<?xml version='1.0' encoding='UTF-8'?><gpx version="1.1" creator="JPX - https://github.com/jenetics/jpx" xmlns="http://www.topografix.com/GPX/1/1"><trk><trkseg><trkpt lat="43.1689945" lon="11.7756203"><ele>279.0</ele><time>2026-05-01T07:34:30.908Z</time></trkpt><trkpt lat="43.1690716" lon="11.7757334"><ele>278.0</ele><time>2026-05-01T07:36:20.908Z</time></trkpt><trkpt lat="43.1691187" lon="11.7758312"><ele>277.0</ele><time>2026-05-01T07:36:21.908Z</time></trkpt><trkpt lat="43.1691626" lon="11.7759276"><ele>276.0</ele><time>2026-05-01T07:36:22.908Z</time></trkpt><trkpt lat="43.1692109" lon="11.7760378"><ele>275.0</ele><time>2026-05-01T07:36:23.908Z</time></trkpt><trkpt lat="43.1692469" lon="11.7761547"><ele>274.4</ele><time>2026-05-01T07:36:24.908Z</time></trkpt><trkpt lat="43.1692859" lon="11.7762835"><ele>273.8</ele><time>2026-05-01T07:36:25.908Z</time></trkpt><trkpt lat="43.1693263" lon="11.7764082"><ele>273.2</ele><time>2026-05-01T07:36:26.908Z</time></trkpt><trkpt lat="43.1693516" lon="11.7765474"><ele>272.6</ele><time>2026-05-01T07:36:27.908Z</time></trkpt><trkpt lat="43.1693739" lon="11.7766871"><ele>272.0</ele><time>2026-05-01T07:36:28.908Z</time></trkpt><trkpt lat="43.1693973" lon="11.7768423"><ele>271.75</ele><time>2026-05-01T07:36:29.907Z</time></trkpt><trkpt lat="43.1694156" lon="11.7770008"><ele>271.5</ele><time>2026-05-01T07:36:30.907Z</time></trkpt><trkpt lat="43.1694273" lon="11.7771852"><ele>271.25</ele><time>2026-05-01T07:36:31.908Z</time></trkpt><trkpt lat="43.1694411" lon="11.7773918"><ele>271.0</ele><time>2026-05-01T07:36:32.908Z</time></trkpt><trkpt lat="43.1694516" lon="11.7775998"><ele>270.5</ele><time>2026-05-01T07:36:33.908Z</time></trkpt><trkpt lat="43.1694669" lon="11.7778025"><ele>270.0</ele><time>2026-05-01T07:36:34.908Z</time></trkpt><trkpt lat="43.1694817" lon="11.7779973"><ele>269.5</ele><time>2026-05-01T07:36:35.908Z</time></trkpt><trkpt lat="43.1694913" lon="11.7782058"><ele>269.0</ele><time>2026-05-01T07:36:36.908Z</time></trkpt><trkpt lat="43.1695001" lon="11.7783955"><ele>268.75</ele><time>2026-05-01T07:36:37.908Z</time></trkpt><trkpt lat="43.1695089" lon="11.7785805"><ele>268.5</ele><time>2026-05-01T07:36:38.907Z</time></trkpt><trkpt lat="43.1695219" lon="11.7787608"><ele>268.25</ele><time>2026-05-01T07:36:39.908Z</time></trkpt><trkpt lat="43.1695429" lon="11.7789371"><ele>268.0</ele><time>2026-05-01T07:36:40.908Z</time></trkpt><trkpt lat="43.1695777" lon="11.7791238"><ele>268.0</ele><time>2026-05-01T07:36:41.908Z</time></trkpt><trkpt lat="43.1696159" lon="11.779309"><ele>268.0</ele><time>2026-05-01T07:36:42.908Z</time></trkpt><trkpt lat="43.1696641" lon="11.7794848"><ele>268.0</ele><time>2026-05-01T07:36:43.908Z</time></trkpt><trkpt lat="43.169732" lon="11.7796435"><ele>268.0</ele><time>2026-05-01T07:36:44.908Z</time></trkpt><trkpt lat="43.1697955" lon="11.7797781"><ele>267.75</ele><time>2026-05-01T07:36:45.907Z</time></trkpt><trkpt lat="43.1698569" lon="11.7799023"><ele>267.5</ele><time>2026-05-01T07:36:46.908Z</time></trkpt><trkpt lat="43.1699158" lon="11.7800365"><ele>267.25</ele><time>2026-05-01T07:36:47.908Z</time></trkpt><trkpt lat="43.1699693" lon="11.7801861"><ele>267.0</ele><time>2026-05-01T07:36:48.908Z</time></trkpt><trkpt lat="43.1700175" lon="11.780347"><ele>266.75</ele><time>2026-05-01T07:36:49.908Z</time></trkpt><trkpt lat="43.1700571" lon="11.780527"><ele>266.5</ele><time>2026-05-01T07:36:50.908Z</time></trkpt><trkpt lat="43.1700843" lon="11.7807207"><ele>266.25</ele><time>2026-05-01T07:36:51.908Z</time></trkpt><trkpt lat="43.1701097" lon="11.7809254"><ele>266.0</ele><time>2026-05-01T07:36:52.908Z</time></trkpt><trkpt lat="43.1701286" lon="11.7811228"><ele>266.0</ele><time>2026-05-01T07:36:53.907Z</time></trkpt><trkpt lat="43.1701497" lon="11.7813251"><ele>266.0</ele><time>2026-05-01T07:36:54.908Z</time></trkpt><trkpt lat="43.170177" lon="11.7815194"><ele>266.0</ele><time>2026-05-01T07:36:55.908Z</time></trkpt><trkpt lat="43.170217" lon="11.7817048"><ele>266.0</ele><time>2026-05-01T07:36:56.908Z</time></trkpt><trkpt lat="43.1702704" lon="11.7818641"><ele>266.0</ele><time>2026-05-01T07:36:57.908Z</time></trkpt><trkpt lat="43.1703343" lon="11.7820036"><ele>266.0</ele><time>2026-05-01T07:36:58.908Z</time></trkpt><trkpt lat="43.1703926" lon="11.7821237"><ele>266.0</ele><time>2026-05-01T07:36:59.908Z</time></trkpt><trkpt lat="43.1704388" lon="11.7822432"><ele>266.0</ele><time>2026-05-01T07:37:00.907Z</time></trkpt><trkpt lat="43.1704638" lon="11.7823725"><ele>266.0</ele><time>2026-05-01T07:37:01.908Z</time></trkpt><trkpt lat="43.1704615" lon="11.7825102"><ele>266.0</ele><time>2026-05-01T07:37:02.908Z</time></trkpt><trkpt lat="43.1704033" lon="11.7826492"><ele>266.0</ele><time>2026-05-01T07:37:03.908Z</time></trkpt><trkpt lat="43.1702926" lon="11.7828002"><ele>266.0</ele><time>2026-05-01T07:37:04.908Z</time></trkpt><trkpt lat="43.1701548" lon="11.7829201"><ele>266.0</ele><time>2026-05-01T07:37:05.908Z</time></trkpt><trkpt lat="43.1700005" lon="11.7830426"><ele>267.33333333333337</ele><time>2026-05-01T07:37:06.908Z</time></trkpt><trkpt lat="43.1698433" lon="11.7831501"><ele>268.6666666666667</ele><time>2026-05-01T07:37:07.907Z</time></trkpt><trkpt lat="43.1696769" lon="11.7832651"><ele>270.0</ele><time>2026-05-01T07:37:08.908Z</time></trkpt><trkpt lat="43.1695047" lon="11.7833667"><ele>270.0</ele><time>2026-05-01T07:37:09.908Z</time></trkpt><trkpt lat="43.1693299" lon="11.7834444"><ele>270.0</ele><time>2026-05-01T07:37:10.907Z</time></trkpt><trkpt lat="43.1691518" lon="11.7835053"><ele>270.0</ele><time>2026-05-01T07:37:11.908Z</time></trkpt><trkpt lat="43.1689693" lon="11.7835697"><ele>269.6666666666667</ele><time>2026-05-01T07:37:12.908Z</time></trkpt><trkpt lat="43.1687878" lon="11.78363"><ele>269.33333333333337</ele><time>2026-05-01T07:37:13.907Z</time></trkpt><trkpt lat="43.1686002" lon="11.7836837"><ele>269.0</ele><time>2026-05-01T07:37:14.907Z</time></trkpt><trkpt lat="43.1684218" lon="11.7837482"><ele>269.0</ele><time>2026-05-01T07:37:15.908Z</time></trkpt><trkpt lat="43.1682464" lon="11.783812"><ele>269.0</ele><time>2026-05-01T07:37:16.907Z</time></trkpt><trkpt lat="43.1680721" lon="11.7838713"><ele>269.0</ele><time>2026-05-01T07:37:17.908Z</time></trkpt><trkpt lat="43.167901" lon="11.7839349"><ele>270.33333333333337</ele><time>2026-05-01T07:37:18.907Z</time></trkpt><trkpt lat="43.1677342" lon="11.7839906"><ele>271.6666666666667</ele><time>2026-05-01T07:37:19.908Z</time></trkpt><trkpt lat="43.167586" lon="11.7840311"><ele>273.0</ele><time>2026-05-01T07:37:20.908Z</time></trkpt><trkpt lat="43.1674366" lon="11.7840717"><ele>273.3333333333333</ele><time>2026-05-01T07:37:21.908Z</time></trkpt><trkpt lat="43.1672843" lon="11.7841105"><ele>273.66666666666663</ele><time>2026-05-01T07:37:22.907Z</time></trkpt><trkpt lat="43.167134" lon="11.7841454"><ele>274.0</ele><time>2026-05-01T07:37:23.907Z</time></trkpt><trkpt lat="43.1669856" lon="11.7841788"><ele>274.0</ele><time>2026-05-01T07:37:24.907Z</time></trkpt><trkpt lat="43.1668418" lon="11.7842097"><ele>274.0</ele><time>2026-05-01T07:37:25.908Z</time></trkpt><trkpt lat="43.166695" lon="11.7842508"><ele>274.0</ele><time>2026-05-01T07:37:26.907Z</time></trkpt><trkpt lat="43.166545" lon="11.7843188"><ele>273.75</ele><time>2026-05-01T07:37:27.907Z</time></trkpt><trkpt lat="43.1664156" lon="11.7843982"><ele>273.5</ele><time>2026-05-01T07:37:28.908Z</time></trkpt><trkpt lat="43.1662921" lon="11.7844742"><ele>273.25</ele><time>2026-05-01T07:37:29.908Z</time></trkpt><trkpt lat="43.1661828" lon="11.7845472"><ele>273.0</ele><time>2026-05-01T07:37:30.908Z</time></trkpt><trkpt lat="43.1660826" lon="11.7846177"><ele>273.0</ele><time>2026-05-01T07:37:31.908Z</time></trkpt><trkpt lat="43.1659886" lon="11.7846816"><ele>273.0</ele><time>2026-05-01T07:37:32.907Z</time></trkpt><trkpt lat="43.1659" lon="11.7847423"><ele>273.0</ele><time>2026-05-01T07:37:33.908Z</time></trkpt><trkpt lat="43.1658" lon="11.7848137"><ele>273.0</ele><time>2026-05-01T07:37:34.908Z</time></trkpt><trkpt lat="43.1657097" lon="11.7849003"><ele>273.0</ele><time>2026-05-01T07:37:35.908Z</time></trkpt><trkpt lat="43.1656203" lon="11.7849826"><ele>272.8</ele><time>2026-05-01T07:37:36.908Z</time></trkpt><trkpt lat="43.1655332" lon="11.7850716"><ele>272.6</ele><time>2026-05-01T07:37:37.908Z</time></trkpt><trkpt lat="43.1654262" lon="11.7851379"><ele>272.4</ele><time>2026-05-01T07:37:38.908Z</time></trkpt><trkpt lat="43.1653141" lon="11.7851766"><ele>272.2</ele><time>2026-05-01T07:37:39.908Z</time></trkpt><trkpt lat="43.1652089" lon="11.7851703"><ele>272.0</ele><time>2026-05-01T07:37:40.907Z</time></trkpt><trkpt lat="43.1651022" lon="11.7851429"><ele>272.0</ele><time>2026-05-01T07:37:41.908Z</time></trkpt><trkpt lat="43.1649973" lon="11.7851089"><ele>272.0</ele><time>2026-05-01T07:37:42.907Z</time></trkpt><trkpt lat="43.1648852" lon="11.7850503"><ele>272.0</ele><time>2026-05-01T07:37:43.908Z</time></trkpt><trkpt lat="43.1647682" lon="11.784991"><ele>272.0</ele><time>2026-05-01T07:37:44.908Z</time></trkpt><trkpt lat="43.1646445" lon="11.7849317"><ele>273.75</ele><time>2026-05-01T07:37:45.908Z</time></trkpt><trkpt lat="43.1645168" lon="11.7848663"><ele>275.5</ele><time>2026-05-01T07:37:46.908Z</time></trkpt><trkpt lat="43.1643824" lon="11.7847976"><ele>277.25</ele><time>2026-05-01T07:37:47.908Z</time></trkpt><trkpt lat="43.1642427" lon="11.7847387"><ele>279.0</ele><time>2026-05-01T07:37:48.908Z</time></trkpt><trkpt lat="43.1641042" lon="11.7846814"><ele>279.75</ele><time>2026-05-01T07:37:49.908Z</time></trkpt><trkpt lat="43.1639702" lon="11.7846334"><ele>280.5</ele><time>2026-05-01T07:37:50.908Z</time></trkpt><trkpt lat="43.1638356" lon="11.7846199"><ele>281.25</ele><time>2026-05-01T07:37:51.908Z</time></trkpt><trkpt lat="43.1637033" lon="11.7846405"><ele>282.0</ele><time>2026-05-01T07:37:52.908Z</time></trkpt><trkpt lat="43.1635839" lon="11.7846936"><ele>282.0</ele><time>2026-05-01T07:37:53.908Z</time></trkpt><trkpt lat="43.1634733" lon="11.7847611"><ele>282.0</ele><time>2026-05-01T07:37:54.907Z</time></trkpt><trkpt lat="43.1633697" lon="11.7848413"><ele>282.0</ele><time>2026-05-01T07:37:55.908Z</time></trkpt><trkpt lat="43.1632768" lon="11.7849436"><ele>282.0</ele><time>2026-05-01T07:37:56.908Z</time></trkpt><trkpt lat="43.1631906" lon="11.7850726"><ele>281.0</ele><time>2026-05-01T07:37:57.907Z</time></trkpt><trkpt lat="43.1630999" lon="11.7852078"><ele>280.0</ele><time>2026-05-01T07:37:58.907Z</time></trkpt><trkpt lat="43.1630093" lon="11.7853455"><ele>279.0</ele><time>2026-05-01T07:37:59.907Z</time></trkpt><trkpt lat="43.1629185" lon="11.785484"><ele>278.0</ele><time>2026-05-01T07:38:00.908Z</time></trkpt><trkpt lat="43.16283" lon="11.7856197"><ele>278.0</ele><time>2026-05-01T07:38:01.907Z</time></trkpt><trkpt lat="43.1627391" lon="11.7857534"><ele>278.0</ele><time>2026-05-01T07:38:02.908Z</time></trkpt><trkpt lat="43.1626436" lon="11.7858839"><ele>278.0</ele><time>2026-05-01T07:38:03.908Z</time></trkpt><trkpt lat="43.1625515" lon="11.7860225"><ele>278.0</ele><time>2026-05-01T07:38:04.908Z</time></trkpt><trkpt lat="43.1624606" lon="11.7861587"><ele>277.0</ele><time>2026-05-01T07:38:05.908Z</time></trkpt><trkpt lat="43.1623779" lon="11.7862856"><ele>276.0</ele><time>2026-05-01T07:38:06.908Z</time></trkpt><trkpt lat="43.162302" lon="11.7863986"><ele>275.0</ele><time>2026-05-01T07:38:07.908Z</time></trkpt><trkpt lat="43.1622303" lon="11.7865025"><ele>274.0</ele><time>2026-05-01T07:38:08.908Z</time></trkpt><trkpt lat="43.1621622" lon="11.7866025"><ele>273.0</ele><time>2026-05-01T07:38:09.907Z</time></trkpt><trkpt lat="43.1620906" lon="11.7866911"><ele>273.0</ele><time>2026-05-01T07:38:10.907Z</time></trkpt><trkpt lat="43.1620267" lon="11.7867612"><ele>273.0</ele><time>2026-05-01T07:38:11.908Z</time></trkpt><trkpt lat="43.1619716" lon="11.7868037"><ele>273.0</ele><time>2026-05-01T07:38:12.908Z</time></trkpt><trkpt lat="43.1619042" lon="11.7868403"><ele>273.0</ele><time>2026-05-01T07:38:15.908Z</time></trkpt><trkpt lat="43.1618315" lon="11.7868548"><ele>273.0</ele><time>2026-05-01T07:38:17.908Z</time></trkpt><trkpt lat="43.1616989" lon="11.7869249"><ele>273.0</ele><time>2026-05-01T07:38:19.908Z</time></trkpt><trkpt lat="43.1616296" lon="11.7870116"><ele>272.8</ele><time>2026-05-01T07:38:20.907Z</time></trkpt><trkpt lat="43.1615717" lon="11.7871298"><ele>272.6</ele><time>2026-05-01T07:38:21.908Z</time></trkpt><trkpt lat="43.1615403" lon="11.7872751"><ele>272.4</ele><time>2026-05-01T07:38:22.908Z</time></trkpt><trkpt lat="43.1615192" lon="11.7874395"><ele>272.2</ele><time>2026-05-01T07:38:23.908Z</time></trkpt><trkpt lat="43.1614871" lon="11.7875837"><ele>272.0</ele><time>2026-05-01T07:38:24.907Z</time></trkpt><trkpt lat="43.1614314" lon="11.7877226"><ele>272.0</ele><time>2026-05-01T07:38:25.908Z</time></trkpt><trkpt lat="43.161358" lon="11.787853"><ele>272.0</ele><time>2026-05-01T07:38:26.907Z</time></trkpt><trkpt lat="43.1612724" lon="11.7880023"><ele>272.0</ele><time>2026-05-01T07:38:27.908Z</time></trkpt><trkpt lat="43.1611762" lon="11.788162"><ele>272.0</ele><time>2026-05-01T07:38:28.907Z</time></trkpt><trkpt lat="43.1610715" lon="11.7883326"><ele>272.0</ele><time>2026-05-01T07:38:29.907Z</time></trkpt><trkpt lat="43.1609718" lon="11.7884924"><ele>272.0</ele><time>2026-05-01T07:38:30.907Z</time></trkpt><trkpt lat="43.160884" lon="11.788657"><ele>272.0</ele><time>2026-05-01T07:38:31.907Z</time></trkpt><trkpt lat="43.1607881" lon="11.7888053"><ele>272.0</ele><time>2026-05-01T07:38:32.907Z</time></trkpt><trkpt lat="43.1606822" lon="11.7889448"><ele>272.0</ele><time>2026-05-01T07:38:33.908Z</time></trkpt><trkpt lat="43.1605794" lon="11.7890751"><ele>272.0</ele><time>2026-05-01T07:38:34.907Z</time></trkpt><trkpt lat="43.1604568" lon="11.7892054"><ele>272.0</ele><time>2026-05-01T07:38:35.908Z</time></trkpt><trkpt lat="43.1603232" lon="11.7893336"><ele>270.6666666666667</ele><time>2026-05-01T07:38:36.908Z</time></trkpt><trkpt lat="43.160188" lon="11.7894609"><ele>269.3333333333333</ele><time>2026-05-01T07:38:37.908Z</time></trkpt><trkpt lat="43.1600444" lon="11.7895879"><ele>268.0</ele><time>2026-05-01T07:38:38.908Z</time></trkpt><trkpt lat="43.159899" lon="11.7897125"><ele>269.66666666666663</ele><time>2026-05-01T07:38:39.908Z</time></trkpt><trkpt lat="43.159757" lon="11.7898394"><ele>271.3333333333333</ele><time>2026-05-01T07:38:40.908Z</time></trkpt><trkpt lat="43.1596195" lon="11.7899636"><ele>273.0</ele><time>2026-05-01T07:38:41.908Z</time></trkpt><trkpt lat="43.1594866" lon="11.7900751"><ele>271.3333333333333</ele><time>2026-05-01T07:38:42.908Z</time></trkpt><trkpt lat="43.1593507" lon="11.7901924"><ele>269.66666666666663</ele><time>2026-05-01T07:38:43.908Z</time></trkpt><trkpt lat="43.1592079" lon="11.7903127"><ele>268.0</ele><time>2026-05-01T07:38:44.908Z</time></trkpt><trkpt lat="43.1590521" lon="11.7904355"><ele>269.0</ele><time>2026-05-01T07:38:45.908Z</time></trkpt><trkpt lat="43.1588814" lon="11.7905754"><ele>270.0</ele><time>2026-05-01T07:38:46.908Z</time></trkpt><trkpt lat="43.1587047" lon="11.7907315"><ele>271.0</ele><time>2026-05-01T07:38:47.907Z</time></trkpt><trkpt lat="43.1585367" lon="11.7908792"><ele>271.0</ele><time>2026-05-01T07:38:48.908Z</time></trkpt><trkpt lat="43.1583673" lon="11.7910332"><ele>271.0</ele><time>2026-05-01T07:38:49.908Z</time></trkpt><trkpt lat="43.1581821" lon="11.7912154"><ele>271.0</ele><time>2026-05-01T07:38:50.907Z</time></trkpt><trkpt lat="43.1579868" lon="11.7914331"><ele>271.0</ele><time>2026-05-01T07:38:51.908Z</time></trkpt><trkpt lat="43.1577653" lon="11.7916411"><ele>271.0</ele><time>2026-05-01T07:38:52.907Z</time></trkpt><trkpt lat="43.1575396" lon="11.7918387"><ele>274.0</ele><time>2026-05-01T07:38:53.907Z</time></trkpt><trkpt lat="43.1572988" lon="11.7920273"><ele>277.0</ele><time>2026-05-01T07:38:54.908Z</time></trkpt><trkpt lat="43.1570637" lon="11.7922078"><ele>277.0</ele><time>2026-05-01T07:38:55.908Z</time></trkpt><trkpt lat="43.1568349" lon="11.79239"><ele>277.0</ele><time>2026-05-01T07:38:56.908Z</time></trkpt><trkpt lat="43.1566086" lon="11.7925418"><ele>279.0</ele><time>2026-05-01T07:38:57.908Z</time></trkpt><trkpt lat="43.1563952" lon="11.7926668"><ele>281.0</ele><time>2026-05-01T07:38:58.907Z</time></trkpt><trkpt lat="43.156184" lon="11.7927699"><ele>281.33333333333337</ele><time>2026-05-01T07:38:59.907Z</time></trkpt><trkpt lat="43.1559826" lon="11.792863"><ele>281.6666666666667</ele><time>2026-05-01T07:39:00.907Z</time></trkpt><trkpt lat="43.1557795" lon="11.7929502"><ele>282.0</ele><time>2026-05-01T07:39:01.907Z</time></trkpt><trkpt lat="43.155571" lon="11.7930357"><ele>281.0</ele><time>2026-05-01T07:39:02.907Z</time></trkpt><trkpt lat="43.1553473" lon="11.7931208"><ele>280.0</ele><time>2026-05-01T07:39:03.908Z</time></trkpt><trkpt lat="43.1551135" lon="11.7932177"><ele>280.5</ele><time>2026-05-01T07:39:04.908Z</time></trkpt><trkpt lat="43.1548613" lon="11.793319"><ele>281.0</ele><time>2026-05-01T07:39:05.908Z</time></trkpt><trkpt lat="43.1545877" lon="11.7934225"><ele>281.5</ele><time>2026-05-01T07:39:06.908Z</time></trkpt><trkpt lat="43.1543036" lon="11.7935155"><ele>282.0</ele><time>2026-05-01T07:39:07.908Z</time></trkpt><trkpt lat="43.154031" lon="11.7936036"><ele>282.5</ele><time>2026-05-01T07:39:08.908Z</time></trkpt><trkpt lat="43.1537715" lon="11.7937036"><ele>283.0</ele><time>2026-05-01T07:39:09.908Z</time></trkpt><trkpt lat="43.1535332" lon="11.7937916"><ele>283.0</ele><time>2026-05-01T07:39:10.908Z</time></trkpt><trkpt lat="43.1533038" lon="11.7938451"><ele>283.0</ele><time>2026-05-01T07:39:11.908Z</time></trkpt><trkpt lat="43.1530882" lon="11.793874"><ele>283.0</ele><time>2026-05-01T07:39:12.907Z</time></trkpt><trkpt lat="43.1528588" lon="11.7938721"><ele>282.3333333333333</ele><time>2026-05-01T07:39:13.908Z</time></trkpt><trkpt lat="43.152636" lon="11.7938631"><ele>281.6666666666667</ele><time>2026-05-01T07:39:14.908Z</time></trkpt><trkpt lat="43.1524126" lon="11.7938447"><ele>281.0</ele><time>2026-05-01T07:39:15.908Z</time></trkpt><trkpt lat="43.1522027" lon="11.7938227"><ele>280.6666666666667</ele><time>2026-05-01T07:39:16.908Z</time></trkpt><trkpt lat="43.152014" lon="11.7938084"><ele>280.3333333333333</ele><time>2026-05-01T07:39:17.908Z</time></trkpt><trkpt lat="43.1518436" lon="11.7938256"><ele>280.0</ele><time>2026-05-01T07:39:18.908Z</time></trkpt><trkpt lat="43.1516932" lon="11.7938999"><ele>280.0</ele><time>2026-05-01T07:39:19.907Z</time></trkpt><trkpt lat="43.1515538" lon="11.7940304"><ele>280.0</ele><time>2026-05-01T07:39:20.908Z</time></trkpt><trkpt lat="43.1514138" lon="11.7941871"><ele>280.0</ele><time>2026-05-01T07:39:21.908Z</time></trkpt><trkpt lat="43.1512728" lon="11.7943648"><ele>281.3333333333333</ele><time>2026-05-01T07:39:22.907Z</time></trkpt><trkpt lat="43.1511242" lon="11.7945653"><ele>282.6666666666667</ele><time>2026-05-01T07:39:23.907Z</time></trkpt><trkpt lat="43.1509635" lon="11.7947686"><ele>284.0</ele><time>2026-05-01T07:39:24.907Z</time></trkpt><trkpt lat="43.1507925" lon="11.7949739"><ele>287.5</ele><time>2026-05-01T07:39:25.908Z</time></trkpt><trkpt lat="43.1506042" lon="11.7951995"><ele>291.0</ele><time>2026-05-01T07:39:26.907Z</time></trkpt><trkpt lat="43.1503915" lon="11.795407"><ele>291.0</ele><time>2026-05-01T07:39:27.907Z</time></trkpt><trkpt lat="43.150156" lon="11.7955865"><ele>291.0</ele><time>2026-05-01T07:39:28.908Z</time></trkpt><trkpt lat="43.1499079" lon="11.7957606"><ele>291.5</ele><time>2026-05-01T07:39:29.907Z</time></trkpt><trkpt lat="43.1496848" lon="11.795936"><ele>292.0</ele><time>2026-05-01T07:39:30.907Z</time></trkpt><trkpt lat="43.1494715" lon="11.7960923"><ele>292.0</ele><time>2026-05-01T07:39:31.908Z</time></trkpt><trkpt lat="43.1492717" lon="11.7962586"><ele>292.0</ele><time>2026-05-01T07:39:32.907Z</time></trkpt><trkpt lat="43.1490844" lon="11.7964486"><ele>293.0</ele><time>2026-05-01T07:39:33.908Z</time></trkpt><trkpt lat="43.1488936" lon="11.7966691"><ele>294.0</ele><time>2026-05-01T07:39:34.908Z</time></trkpt><trkpt lat="43.1486916" lon="11.7968875"><ele>292.0</ele><time>2026-05-01T07:39:35.907Z</time></trkpt><trkpt lat="43.148494" lon="11.7971"><ele>290.0</ele><time>2026-05-01T07:39:36.908Z</time></trkpt><trkpt lat="43.1483142" lon="11.7973083"><ele>291.33333333333337</ele><time>2026-05-01T07:39:37.908Z</time></trkpt><trkpt lat="43.1481621" lon="11.7975203"><ele>292.6666666666667</ele><time>2026-05-01T07:39:38.908Z</time></trkpt><trkpt lat="43.1480443" lon="11.7977473"><ele>294.0</ele><time>2026-05-01T07:39:39.907Z</time></trkpt><trkpt lat="43.1479485" lon="11.7980015"><ele>294.0</ele><time>2026-05-01T07:39:40.908Z</time></trkpt><trkpt lat="43.1478456" lon="11.7982357"><ele>294.0</ele><time>2026-05-01T07:39:41.908Z</time></trkpt><trkpt lat="43.1477416" lon="11.7984688"><ele>294.0</ele><time>2026-05-01T07:39:42.908Z</time></trkpt><trkpt lat="43.1476854" lon="11.7987184"><ele>293.3333333333333</ele><time>2026-05-01T07:39:43.907Z</time></trkpt><trkpt lat="43.1476749" lon="11.7989738"><ele>292.66666666666663</ele><time>2026-05-01T07:39:44.908Z</time></trkpt><trkpt lat="43.1476994" lon="11.7992464"><ele>292.0</ele><time>2026-05-01T07:39:45.908Z</time></trkpt><trkpt lat="43.1477415" lon="11.7995099"><ele>292.0</ele><time>2026-05-01T07:39:46.908Z</time></trkpt><trkpt lat="43.1477749" lon="11.7997567"><ele>292.0</ele><time>2026-05-01T07:39:47.908Z</time></trkpt><trkpt lat="43.1477805" lon="11.8000258"><ele>292.0</ele><time>2026-05-01T07:39:48.908Z</time></trkpt><trkpt lat="43.1477423" lon="11.8003115"><ele>293.0</ele><time>2026-05-01T07:39:49.907Z</time></trkpt><trkpt lat="43.1477091" lon="11.8006104"><ele>294.0</ele><time>2026-05-01T07:39:50.908Z</time></trkpt><trkpt lat="43.1476667" lon="11.8009072"><ele>295.0</ele><time>2026-05-01T07:39:51.908Z</time></trkpt><trkpt lat="43.1476058" lon="11.8011981"><ele>295.0</ele><time>2026-05-01T07:39:52.908Z</time></trkpt><trkpt lat="43.1475229" lon="11.8014811"><ele>295.0</ele><time>2026-05-01T07:39:53.908Z</time></trkpt><trkpt lat="43.1474177" lon="11.8017686"><ele>293.5</ele><time>2026-05-01T07:39:54.907Z</time></trkpt><trkpt lat="43.1473133" lon="11.8020526"><ele>292.0</ele><time>2026-05-01T07:39:55.907Z</time></trkpt><trkpt lat="43.1472114" lon="11.8023416"><ele>292.0</ele><time>2026-05-01T07:39:56.908Z</time></trkpt><trkpt lat="43.1471137" lon="11.8026459"><ele>292.0</ele><time>2026-05-01T07:39:57.908Z</time></trkpt><trkpt lat="43.1470206" lon="11.8029645"><ele>292.0</ele><time>2026-05-01T07:39:58.908Z</time></trkpt><trkpt lat="43.1469431" lon="11.803288"><ele>292.0</ele><time>2026-05-01T07:39:59.908Z</time></trkpt><trkpt lat="43.1468703" lon="11.8035859"><ele>292.3333333333333</ele><time>2026-05-01T07:40:00.907Z</time></trkpt><trkpt lat="43.1468072" lon="11.8038598"><ele>292.6666666666667</ele><time>2026-05-01T07:40:01.908Z</time></trkpt><trkpt lat="43.146753" lon="11.8041287"><ele>293.0</ele><time>2026-05-01T07:40:02.908Z</time></trkpt><trkpt lat="43.1467007" lon="11.8044108"><ele>293.33333333333337</ele><time>2026-05-01T07:40:03.908Z</time></trkpt><trkpt lat="43.1466548" lon="11.8046864"><ele>293.6666666666667</ele><time>2026-05-01T07:40:04.908Z</time></trkpt><trkpt lat="43.146616" lon="11.8049574"><ele>294.0</ele><time>2026-05-01T07:40:05.908Z</time></trkpt><trkpt lat="43.1465736" lon="11.8052092"><ele>293.3333333333333</ele><time>2026-05-01T07:40:06.908Z</time></trkpt><trkpt lat="43.1465056" lon="11.8054485"><ele>292.66666666666663</ele><time>2026-05-01T07:40:07.908Z</time></trkpt><trkpt lat="43.1464095" lon="11.8056748"><ele>292.0</ele><time>2026-05-01T07:40:08.908Z</time></trkpt><trkpt lat="43.1462749" lon="11.8058915"><ele>292.3333333333333</ele><time>2026-05-01T07:40:09.908Z</time></trkpt><trkpt lat="43.1461229" lon="11.8061009"><ele>292.6666666666667</ele><time>2026-05-01T07:40:10.907Z</time></trkpt><trkpt lat="43.1459898" lon="11.8062993"><ele>293.0</ele><time>2026-05-01T07:40:11.908Z</time></trkpt><trkpt lat="43.1458803" lon="11.8064898"><ele>293.0</ele><time>2026-05-01T07:40:12.908Z</time></trkpt><trkpt lat="43.1458059" lon="11.8066989"><ele>293.0</ele><time>2026-05-01T07:40:13.908Z</time></trkpt><trkpt lat="43.1457652" lon="11.8069538"><ele>293.0</ele><time>2026-05-01T07:40:14.908Z</time></trkpt><trkpt lat="43.145732" lon="11.8072144"><ele>293.0</ele><time>2026-05-01T07:40:15.907Z</time></trkpt><trkpt lat="43.1456516" lon="11.8074629"><ele>293.0</ele><time>2026-05-01T07:40:16.908Z</time></trkpt><trkpt lat="43.1455223" lon="11.8076813"><ele>293.0</ele><time>2026-05-01T07:40:17.908Z</time></trkpt><trkpt lat="43.1453591" lon="11.8078796"><ele>293.0</ele><time>2026-05-01T07:40:18.908Z</time></trkpt><trkpt lat="43.1451854" lon="11.8080732"><ele>293.0</ele><time>2026-05-01T07:40:19.907Z</time></trkpt><trkpt lat="43.1449997" lon="11.8082391"><ele>293.0</ele><time>2026-05-01T07:40:20.908Z</time></trkpt><trkpt lat="43.1448066" lon="11.8084053"><ele>291.0</ele><time>2026-05-01T07:40:21.908Z</time></trkpt><trkpt lat="43.1446142" lon="11.8085859"><ele>289.0</ele><time>2026-05-01T07:40:22.908Z</time></trkpt><trkpt lat="43.1444191" lon="11.8087668"><ele>289.0</ele><time>2026-05-01T07:40:23.908Z</time></trkpt><trkpt lat="43.1442147" lon="11.8089554"><ele>289.0</ele><time>2026-05-01T07:40:24.908Z</time></trkpt><trkpt lat="43.1440533" lon="11.8091366"><ele>289.3333333333333</ele><time>2026-05-01T07:40:25.907Z</time></trkpt><trkpt lat="43.1439141" lon="11.809319"><ele>289.6666666666667</ele><time>2026-05-01T07:40:26.907Z</time></trkpt><trkpt lat="43.1437868" lon="11.8095054"><ele>290.0</ele><time>2026-05-01T07:40:27.908Z</time></trkpt><trkpt lat="43.1436902" lon="11.8097209"><ele>290.0</ele><time>2026-05-01T07:40:28.908Z</time></trkpt><trkpt lat="43.1436256" lon="11.8099779"><ele>290.0</ele><time>2026-05-01T07:40:29.908Z</time></trkpt><trkpt lat="43.143579" lon="11.8102492"><ele>290.0</ele><time>2026-05-01T07:40:30.908Z</time></trkpt><trkpt lat="43.1435338" lon="11.8105412"><ele>289.0</ele><time>2026-05-01T07:40:31.908Z</time></trkpt><trkpt lat="43.1434753" lon="11.8108297"><ele>288.0</ele><time>2026-05-01T07:40:32.908Z</time></trkpt><trkpt lat="43.1434111" lon="11.8111225"><ele>287.0</ele><time>2026-05-01T07:40:33.908Z</time></trkpt><trkpt lat="43.1433569" lon="11.8114413"><ele>287.0</ele><time>2026-05-01T07:40:34.908Z</time></trkpt><trkpt lat="43.1432902" lon="11.8117589"><ele>287.0</ele><time>2026-05-01T07:40:35.908Z</time></trkpt><trkpt lat="43.1432292" lon="11.8120811"><ele>287.0</ele><time>2026-05-01T07:40:36.908Z</time></trkpt><trkpt lat="43.1431703" lon="11.8124207"><ele>287.0</ele><time>2026-05-01T07:40:37.908Z</time></trkpt><trkpt lat="43.1431192" lon="11.8127654"><ele>288.5</ele><time>2026-05-01T07:40:38.908Z</time></trkpt><trkpt lat="43.1430804" lon="11.8131158"><ele>290.0</ele><time>2026-05-01T07:40:39.908Z</time></trkpt><trkpt lat="43.1430352" lon="11.8134581"><ele>289.5</ele><time>2026-05-01T07:40:40.908Z</time></trkpt><trkpt lat="43.1429904" lon="11.8137826"><ele>289.0</ele><time>2026-05-01T07:40:41.908Z</time></trkpt><trkpt lat="43.1429367" lon="11.8140957"><ele>289.3333333333333</ele><time>2026-05-01T07:40:42.908Z</time></trkpt><trkpt lat="43.1428725" lon="11.8143847"><ele>289.6666666666667</ele><time>2026-05-01T07:40:43.908Z</time></trkpt><trkpt lat="43.1428" lon="11.8146596"><ele>290.0</ele><time>2026-05-01T07:40:44.907Z</time></trkpt><trkpt lat="43.1427296" lon="11.8149187"><ele>290.6666666666667</ele><time>2026-05-01T07:40:45.908Z</time></trkpt><trkpt lat="43.1426761" lon="11.8151685"><ele>291.3333333333333</ele><time>2026-05-01T07:40:46.907Z</time></trkpt><trkpt lat="43.1426317" lon="11.8154149"><ele>292.0</ele><time>2026-05-01T07:40:47.908Z</time></trkpt><trkpt lat="43.1426254" lon="11.8156536"><ele>292.0</ele><time>2026-05-01T07:40:48.908Z</time></trkpt><trkpt lat="43.1426365" lon="11.8158813"><ele>292.0</ele><time>2026-05-01T07:40:49.908Z</time></trkpt><trkpt lat="43.1426613" lon="11.8161102"><ele>292.0</ele><time>2026-05-01T07:40:50.908Z</time></trkpt><trkpt lat="43.1426802" lon="11.816338"><ele>292.0</ele><time>2026-05-01T07:40:51.908Z</time></trkpt><trkpt lat="43.1426848" lon="11.8165608"><ele>292.0</ele><time>2026-05-01T07:40:52.908Z</time></trkpt><trkpt lat="43.1426818" lon="11.8167916"><ele>292.0</ele><time>2026-05-01T07:40:53.908Z</time></trkpt><trkpt lat="43.1426668" lon="11.817018"><ele>292.0</ele><time>2026-05-01T07:40:54.908Z</time></trkpt><trkpt lat="43.1426459" lon="11.8172463"><ele>292.0</ele><time>2026-05-01T07:40:55.908Z</time></trkpt><trkpt lat="43.1426069" lon="11.8174642"><ele>292.0</ele><time>2026-05-01T07:40:56.907Z</time></trkpt><trkpt lat="43.1425621" lon="11.8176431"><ele>291.25</ele><time>2026-05-01T07:40:57.907Z</time></trkpt><trkpt lat="43.1424891" lon="11.8178008"><ele>290.5</ele><time>2026-05-01T07:40:58.908Z</time></trkpt><trkpt lat="43.1424056" lon="11.817935"><ele>289.75</ele><time>2026-05-01T07:40:59.907Z</time></trkpt><trkpt lat="43.1423135" lon="11.8180561"><ele>289.0</ele><time>2026-05-01T07:41:00.908Z</time></trkpt><trkpt lat="43.1422126" lon="11.8181871"><ele>288.3333333333333</ele><time>2026-05-01T07:41:01.908Z</time></trkpt><trkpt lat="43.1421078" lon="11.8183096"><ele>287.6666666666667</ele><time>2026-05-01T07:41:02.907Z</time></trkpt><trkpt lat="43.1419831" lon="11.8184425"><ele>287.0</ele><time>2026-05-01T07:41:03.907Z</time></trkpt><trkpt lat="43.141867" lon="11.8185831"><ele>285.6666666666667</ele><time>2026-05-01T07:41:04.908Z</time></trkpt><trkpt lat="43.1417544" lon="11.8187155"><ele>284.3333333333333</ele><time>2026-05-01T07:41:05.908Z</time></trkpt><trkpt lat="43.1416358" lon="11.818852"><ele>283.0</ele><time>2026-05-01T07:41:06.908Z</time></trkpt><trkpt lat="43.1415191" lon="11.8189876"><ele>282.3333333333333</ele><time>2026-05-01T07:41:07.908Z</time></trkpt><trkpt lat="43.1413845" lon="11.8191387"><ele>281.6666666666667</ele><time>2026-05-01T07:41:08.907Z</time></trkpt><trkpt lat="43.1412557" lon="11.8192815"><ele>281.0</ele><time>2026-05-01T07:41:09.907Z</time></trkpt><trkpt lat="43.1411162" lon="11.8194347"><ele>280.0</ele><time>2026-05-01T07:41:10.908Z</time></trkpt><trkpt lat="43.140972" lon="11.8195902"><ele>279.0</ele><time>2026-05-01T07:41:11.908Z</time></trkpt><trkpt lat="43.1408288" lon="11.8197632"><ele>278.0</ele><time>2026-05-01T07:41:12.908Z</time></trkpt><trkpt lat="43.1406832" lon="11.8199408"><ele>276.0</ele><time>2026-05-01T07:41:13.907Z</time></trkpt><trkpt lat="43.140534" lon="11.8201174"><ele>274.0</ele><time>2026-05-01T07:41:14.908Z</time></trkpt><trkpt lat="43.1403889" lon="11.8202985"><ele>272.0</ele><time>2026-05-01T07:41:15.908Z</time></trkpt><trkpt lat="43.1402418" lon="11.8204878"><ele>270.6666666666667</ele><time>2026-05-01T07:41:16.908Z</time></trkpt><trkpt lat="43.1401006" lon="11.8206838"><ele>269.3333333333333</ele><time>2026-05-01T07:41:17.908Z</time></trkpt><trkpt lat="43.1399548" lon="11.8208782"><ele>268.0</ele><time>2026-05-01T07:41:18.907Z</time></trkpt><trkpt lat="43.13981" lon="11.8210718"><ele>266.66666666666663</ele><time>2026-05-01T07:41:19.908Z</time></trkpt><trkpt lat="43.139666" lon="11.8212672"><ele>265.3333333333333</ele><time>2026-05-01T07:41:20.907Z</time></trkpt><trkpt lat="43.1395177" lon="11.8214636"><ele>264.0</ele><time>2026-05-01T07:41:21.908Z</time></trkpt><trkpt lat="43.1393704" lon="11.8216551"><ele>264.0</ele><time>2026-05-01T07:41:22.908Z</time></trkpt><trkpt lat="43.1392271" lon="11.8218391"><ele>264.0</ele><time>2026-05-01T07:41:23.908Z</time></trkpt><trkpt lat="43.1390862" lon="11.8220283"><ele>264.0</ele><time>2026-05-01T07:41:24.908Z</time></trkpt><trkpt lat="43.1389491" lon="11.8222119"><ele>264.0</ele><time>2026-05-01T07:41:25.908Z</time></trkpt><trkpt lat="43.1388197" lon="11.8223932"><ele>264.0</ele><time>2026-05-01T07:41:26.907Z</time></trkpt><trkpt lat="43.1386894" lon="11.8225749"><ele>264.0</ele><time>2026-05-01T07:41:27.908Z</time></trkpt><trkpt lat="43.1385595" lon="11.8227556"><ele>264.0</ele><time>2026-05-01T07:41:28.907Z</time></trkpt><trkpt lat="43.1384353" lon="11.8229308"><ele>264.0</ele><time>2026-05-01T07:41:29.908Z</time></trkpt><trkpt lat="43.1383151" lon="11.8231089"><ele>264.0</ele><time>2026-05-01T07:41:30.908Z</time></trkpt><trkpt lat="43.1382001" lon="11.8232906"><ele>265.0</ele><time>2026-05-01T07:41:31.908Z</time></trkpt><trkpt lat="43.1380759" lon="11.823475"><ele>266.0</ele><time>2026-05-01T07:41:32.907Z</time></trkpt><trkpt lat="43.1379562" lon="11.8236704"><ele>267.0</ele><time>2026-05-01T07:41:33.908Z</time></trkpt><trkpt lat="43.137852" lon="11.8238742"><ele>267.0</ele><time>2026-05-01T07:41:34.908Z</time></trkpt><trkpt lat="43.1377546" lon="11.8240697"><ele>267.0</ele><time>2026-05-01T07:41:35.908Z</time></trkpt><trkpt lat="43.1376556" lon="11.8242511"><ele>267.0</ele><time>2026-05-01T07:41:36.907Z</time></trkpt><trkpt lat="43.1375453" lon="11.8244127"><ele>267.0</ele><time>2026-05-01T07:41:37.908Z</time></trkpt><trkpt lat="43.1374252" lon="11.824573"><ele>267.0</ele><time>2026-05-01T07:41:38.908Z</time></trkpt><trkpt lat="43.1372857" lon="11.824726"><ele>267.0</ele><time>2026-05-01T07:41:39.907Z</time></trkpt><trkpt lat="43.1371353" lon="11.8248549"><ele>266.6666666666667</ele><time>2026-05-01T07:41:40.908Z</time></trkpt><trkpt lat="43.1369854" lon="11.8249636"><ele>266.33333333333337</ele><time>2026-05-01T07:41:41.908Z</time></trkpt><trkpt lat="43.1368283" lon="11.8250509"><ele>266.0</ele><time>2026-05-01T07:41:42.908Z</time></trkpt><trkpt lat="43.1366519" lon="11.8251273"><ele>266.33333333333337</ele><time>2026-05-01T07:41:43.908Z</time></trkpt><trkpt lat="43.1364652" lon="11.8252074"><ele>266.6666666666667</ele><time>2026-05-01T07:41:44.908Z</time></trkpt><trkpt lat="43.1362808" lon="11.8252913"><ele>267.0</ele><time>2026-05-01T07:41:45.908Z</time></trkpt><trkpt lat="43.1360955" lon="11.8253965"><ele>267.0</ele><time>2026-05-01T07:41:46.907Z</time></trkpt><trkpt lat="43.1359268" lon="11.8255069"><ele>267.0</ele><time>2026-05-01T07:41:47.908Z</time></trkpt><trkpt lat="43.1357778" lon="11.8256394"><ele>267.0</ele><time>2026-05-01T07:41:48.908Z</time></trkpt><trkpt lat="43.1356269" lon="11.8257651"><ele>267.6666666666667</ele><time>2026-05-01T07:41:49.908Z</time></trkpt><trkpt lat="43.1354707" lon="11.8258844"><ele>268.33333333333337</ele><time>2026-05-01T07:41:50.908Z</time></trkpt><trkpt lat="43.1353135" lon="11.8260227"><ele>269.0</ele><time>2026-05-01T07:41:51.908Z</time></trkpt><trkpt lat="43.1351438" lon="11.8261576"><ele>269.6666666666667</ele><time>2026-05-01T07:41:52.908Z</time></trkpt><trkpt lat="43.1349755" lon="11.8262971"><ele>270.3333333333333</ele><time>2026-05-01T07:41:53.908Z</time></trkpt><trkpt lat="43.1348003" lon="11.8264178"><ele>271.0</ele><time>2026-05-01T07:41:54.908Z</time></trkpt><trkpt lat="43.1346196" lon="11.8265631"><ele>271.66666666666663</ele><time>2026-05-01T07:41:55.908Z</time></trkpt><trkpt lat="43.1344406" lon="11.8267109"><ele>272.3333333333333</ele><time>2026-05-01T07:41:56.907Z</time></trkpt><trkpt lat="43.1342437" lon="11.8268571"><ele>273.0</ele><time>2026-05-01T07:41:57.907Z</time></trkpt><trkpt lat="43.1340502" lon="11.8270111"><ele>278.0</ele><time>2026-05-01T07:41:58.908Z</time></trkpt><trkpt lat="43.1338528" lon="11.8271695"><ele>283.0</ele><time>2026-05-01T07:41:59.908Z</time></trkpt><trkpt lat="43.1336455" lon="11.8273299"><ele>283.0</ele><time>2026-05-01T07:42:00.908Z</time></trkpt><trkpt lat="43.133456" lon="11.8274857"><ele>283.0</ele><time>2026-05-01T07:42:01.908Z</time></trkpt><trkpt lat="43.1332777" lon="11.8276379"><ele>283.0</ele><time>2026-05-01T07:42:02.908Z</time></trkpt><trkpt lat="43.1330974" lon="11.8277805"><ele>286.0</ele><time>2026-05-01T07:42:03.908Z</time></trkpt><trkpt lat="43.1329322" lon="11.8279292"><ele>289.0</ele><time>2026-05-01T07:42:04.908Z</time></trkpt><trkpt lat="43.1327742" lon="11.8280489"><ele>292.0</ele><time>2026-05-01T07:42:05.908Z</time></trkpt><trkpt lat="43.1326307" lon="11.82816"><ele>292.0</ele><time>2026-05-01T07:42:06.908Z</time></trkpt><trkpt lat="43.1325143" lon="11.8282544"><ele>292.0</ele><time>2026-05-01T07:42:07.908Z</time></trkpt><trkpt lat="43.1324042" lon="11.8283326"><ele>292.0</ele><time>2026-05-01T07:42:08.907Z</time></trkpt><trkpt lat="43.1323166" lon="11.8284008"><ele>292.0</ele><time>2026-05-01T07:42:09.907Z</time></trkpt><trkpt lat="43.1322557" lon="11.8284496"><ele>292.0</ele><time>2026-05-01T07:42:10.908Z</time></trkpt><trkpt lat="43.1321682" lon="11.8285185"><ele>293.4</ele><time>2026-05-01T07:42:12.907Z</time></trkpt><trkpt lat="43.1320995" lon="11.8285475"><ele>294.79999999999995</ele><time>2026-05-01T07:42:14.907Z</time></trkpt><trkpt lat="43.1320773" lon="11.8286325"><ele>296.2</ele><time>2026-05-01T07:42:25.908Z</time></trkpt><trkpt lat="43.1321094" lon="11.8288147"><ele>297.59999999999997</ele><time>2026-05-01T07:42:27.908Z</time></trkpt><trkpt lat="43.1321497" lon="11.8289314"><ele>299.0</ele><time>2026-05-01T07:42:28.907Z</time></trkpt><trkpt lat="43.1321859" lon="11.8290645"><ele>299.0</ele><time>2026-05-01T07:42:29.907Z</time></trkpt><trkpt lat="43.1322421" lon="11.829229"><ele>299.0</ele><time>2026-05-01T07:42:30.908Z</time></trkpt><trkpt lat="43.1323091" lon="11.8294062"><ele>299.0</ele><time>2026-05-01T07:42:31.908Z</time></trkpt><trkpt lat="43.1323742" lon="11.8295787"><ele>299.0</ele><time>2026-05-01T07:42:32.907Z</time></trkpt><trkpt lat="43.1324493" lon="11.8297648"><ele>301.33333333333337</ele><time>2026-05-01T07:42:33.908Z</time></trkpt><trkpt lat="43.1325334" lon="11.8299538"><ele>303.6666666666667</ele><time>2026-05-01T07:42:34.908Z</time></trkpt><trkpt lat="43.1326201" lon="11.8301439"><ele>306.0</ele><time>2026-05-01T07:42:35.908Z</time></trkpt><trkpt lat="43.1326926" lon="11.8303372"><ele>306.3333333333333</ele><time>2026-05-01T07:42:36.908Z</time></trkpt><trkpt lat="43.1327532" lon="11.830524"><ele>306.66666666666663</ele><time>2026-05-01T07:42:37.908Z</time></trkpt><trkpt lat="43.1328024" lon="11.8307265"><ele>307.0</ele><time>2026-05-01T07:42:38.907Z</time></trkpt><trkpt lat="43.132849" lon="11.8309452"><ele>306.3333333333333</ele><time>2026-05-01T07:42:39.908Z</time></trkpt><trkpt lat="43.1328993" lon="11.8311739"><ele>305.6666666666667</ele><time>2026-05-01T07:42:40.908Z</time></trkpt><trkpt lat="43.1329362" lon="11.8313993"><ele>305.0</ele><time>2026-05-01T07:42:41.907Z</time></trkpt><trkpt lat="43.1329643" lon="11.8316309"><ele>303.0</ele><time>2026-05-01T07:42:42.908Z</time></trkpt><trkpt lat="43.1329884" lon="11.8318638"><ele>301.0</ele><time>2026-05-01T07:42:43.907Z</time></trkpt><trkpt lat="43.1330034" lon="11.8321032"><ele>299.0</ele><time>2026-05-01T07:42:44.908Z</time></trkpt><trkpt lat="43.1330197" lon="11.8323405"><ele>299.0</ele><time>2026-05-01T07:42:45.908Z</time></trkpt><trkpt lat="43.1330506" lon="11.8325906"><ele>299.0</ele><time>2026-05-01T07:42:46.908Z</time></trkpt><trkpt lat="43.133098" lon="11.8328601"><ele>299.0</ele><time>2026-05-01T07:42:47.907Z</time></trkpt><trkpt lat="43.1331562" lon="11.8331493"><ele>299.0</ele><time>2026-05-01T07:42:48.907Z</time></trkpt><trkpt lat="43.1332014" lon="11.8334254"><ele>299.0</ele><time>2026-05-01T07:42:49.908Z</time></trkpt><trkpt lat="43.1332389" lon="11.8336989"><ele>299.0</ele><time>2026-05-01T07:42:50.907Z</time></trkpt><trkpt lat="43.1332622" lon="11.8339979"><ele>299.0</ele><time>2026-05-01T07:42:51.908Z</time></trkpt><trkpt lat="43.1332607" lon="11.8342933"><ele>299.0</ele><time>2026-05-01T07:42:52.907Z</time></trkpt><trkpt lat="43.1332495" lon="11.8345873"><ele>299.0</ele><time>2026-05-01T07:42:53.908Z</time></trkpt><trkpt lat="43.1332264" lon="11.8348796"><ele>295.33333333333337</ele><time>2026-05-01T07:42:54.908Z</time></trkpt><trkpt lat="43.1332235" lon="11.8351564"><ele>291.6666666666667</ele><time>2026-05-01T07:42:55.909Z</time></trkpt><trkpt lat="43.1332416" lon="11.8354306"><ele>288.0</ele><time>2026-05-01T07:42:56.909Z</time></trkpt><trkpt lat="43.1332993" lon="11.8357002"><ele>288.0</ele><time>2026-05-01T07:42:57.909Z</time></trkpt><trkpt lat="43.1333747" lon="11.8359484"><ele>288.0</ele><time>2026-05-01T07:42:58.909Z</time></trkpt><trkpt lat="43.1334705" lon="11.8361888"><ele>288.0</ele><time>2026-05-01T07:42:59.908Z</time></trkpt><trkpt lat="43.1335706" lon="11.8364188"><ele>286.6666666666667</ele><time>2026-05-01T07:43:00.909Z</time></trkpt><trkpt lat="43.1336665" lon="11.836645"><ele>285.33333333333337</ele><time>2026-05-01T07:43:01.908Z</time></trkpt><trkpt lat="43.1337582" lon="11.8368774"><ele>284.0</ele><time>2026-05-01T07:43:02.908Z</time></trkpt><trkpt lat="43.1338438" lon="11.8371244"><ele>283.0</ele><time>2026-05-01T07:43:03.909Z</time></trkpt><trkpt lat="43.1339226" lon="11.8373853"><ele>282.0</ele><time>2026-05-01T07:43:04.909Z</time></trkpt><trkpt lat="43.1339889" lon="11.8376355"><ele>281.0</ele><time>2026-05-01T07:43:05.909Z</time></trkpt><trkpt lat="43.1340353" lon="11.8378945"><ele>281.33333333333337</ele><time>2026-05-01T07:43:06.909Z</time></trkpt><trkpt lat="43.1340571" lon="11.8381615"><ele>281.6666666666667</ele><time>2026-05-01T07:43:07.908Z</time></trkpt><trkpt lat="43.1340739" lon="11.8384237"><ele>282.0</ele><time>2026-05-01T07:43:08.909Z</time></trkpt><trkpt lat="43.1340881" lon="11.8386842"><ele>282.0</ele><time>2026-05-01T07:43:09.908Z</time></trkpt><trkpt lat="43.1341142" lon="11.8389569"><ele>282.0</ele><time>2026-05-01T07:43:10.909Z</time></trkpt><trkpt lat="43.1341277" lon="11.8392428"><ele>282.0</ele><time>2026-05-01T07:43:11.909Z</time></trkpt><trkpt lat="43.1341359" lon="11.8395375"><ele>281.0</ele><time>2026-05-01T07:43:12.909Z</time></trkpt><trkpt lat="43.134143" lon="11.8398261"><ele>280.0</ele><time>2026-05-01T07:43:13.909Z</time></trkpt><trkpt lat="43.1341466" lon="11.840111"><ele>279.0</ele><time>2026-05-01T07:43:14.909Z</time></trkpt><trkpt lat="43.1341624" lon="11.8403748"><ele>278.6666666666667</ele><time>2026-05-01T07:43:15.908Z</time></trkpt><trkpt lat="43.1342061" lon="11.8406142"><ele>278.33333333333337</ele><time>2026-05-01T07:43:16.908Z</time></trkpt><trkpt lat="43.1342697" lon="11.8408286"><ele>278.0</ele><time>2026-05-01T07:43:17.909Z</time></trkpt><trkpt lat="43.1343648" lon="11.8410347"><ele>277.33333333333337</ele><time>2026-05-01T07:43:18.909Z</time></trkpt><trkpt lat="43.1344741" lon="11.8412509"><ele>276.6666666666667</ele><time>2026-05-01T07:43:19.909Z</time></trkpt><trkpt lat="43.1346036" lon="11.8415003"><ele>276.0</ele><time>2026-05-01T07:43:20.909Z</time></trkpt><trkpt lat="43.1347429" lon="11.8417736"><ele>274.5</ele><time>2026-05-01T07:43:21.909Z</time></trkpt><trkpt lat="43.1348864" lon="11.842053"><ele>273.0</ele><time>2026-05-01T07:43:22.909Z</time></trkpt><trkpt lat="43.1350234" lon="11.8423314"><ele>272.5</ele><time>2026-05-01T07:43:23.909Z</time></trkpt><trkpt lat="43.1351693" lon="11.8426089"><ele>272.0</ele><time>2026-05-01T07:43:24.908Z</time></trkpt><trkpt lat="43.135313" lon="11.8428878"><ele>271.5</ele><time>2026-05-01T07:43:25.908Z</time></trkpt><trkpt lat="43.1354569" lon="11.8431714"><ele>271.0</ele><time>2026-05-01T07:43:26.908Z</time></trkpt><trkpt lat="43.1356003" lon="11.8434579"><ele>268.5</ele><time>2026-05-01T07:43:27.909Z</time></trkpt><trkpt lat="43.1357455" lon="11.8437504"><ele>266.0</ele><time>2026-05-01T07:43:28.909Z</time></trkpt><trkpt lat="43.1358919" lon="11.8440364"><ele>264.5</ele><time>2026-05-01T07:43:29.909Z</time></trkpt><trkpt lat="43.1360338" lon="11.8443192"><ele>263.0</ele><time>2026-05-01T07:43:30.908Z</time></trkpt><trkpt lat="43.1361765" lon="11.8445921"><ele>263.0</ele><time>2026-05-01T07:43:31.908Z</time></trkpt><trkpt lat="43.1363173" lon="11.8448639"><ele>263.0</ele><time>2026-05-01T07:43:32.909Z</time></trkpt><trkpt lat="43.1364508" lon="11.8451215"><ele>263.0</ele><time>2026-05-01T07:43:33.909Z</time></trkpt><trkpt lat="43.1365774" lon="11.8453739"><ele>263.0</ele><time>2026-05-01T07:43:34.909Z</time></trkpt><trkpt lat="43.1366769" lon="11.8455973"><ele>263.0</ele><time>2026-05-01T07:43:35.908Z</time></trkpt><trkpt lat="43.1367567" lon="11.8458049"><ele>263.0</ele><time>2026-05-01T07:43:36.909Z</time></trkpt><trkpt lat="43.1368015" lon="11.8460157"><ele>263.0</ele><time>2026-05-01T07:43:37.909Z</time></trkpt><trkpt lat="43.1367775" lon="11.8462251"><ele>263.0</ele><time>2026-05-01T07:43:38.909Z</time></trkpt><trkpt lat="43.136716" lon="11.846442"><ele>263.0</ele><time>2026-05-01T07:43:39.909Z</time></trkpt><trkpt lat="43.136656" lon="11.8466425"><ele>263.0</ele><time>2026-05-01T07:43:40.909Z</time></trkpt><trkpt lat="43.1365974" lon="11.8468472"><ele>263.0</ele><time>2026-05-01T07:43:41.909Z</time></trkpt><trkpt lat="43.1365446" lon="11.8470601"><ele>263.0</ele><time>2026-05-01T07:43:42.909Z</time></trkpt><trkpt lat="43.136522" lon="11.8472892"><ele>263.0</ele><time>2026-05-01T07:43:43.909Z</time></trkpt><trkpt lat="43.1365486" lon="11.8475315"><ele>263.0</ele><time>2026-05-01T07:43:44.909Z</time></trkpt><trkpt lat="43.136598" lon="11.8478009"><ele>263.0</ele><time>2026-05-01T07:43:45.909Z</time></trkpt><trkpt lat="43.1366462" lon="11.848079"><ele>263.0</ele><time>2026-05-01T07:43:46.909Z</time></trkpt><trkpt lat="43.1366963" lon="11.8483717"><ele>263.0</ele><time>2026-05-01T07:43:47.908Z</time></trkpt><trkpt lat="43.1367306" lon="11.8486792"><ele>263.5</ele><time>2026-05-01T07:43:48.909Z</time></trkpt><trkpt lat="43.1367558" lon="11.8490015"><ele>264.0</ele><time>2026-05-01T07:43:49.908Z</time></trkpt><trkpt lat="43.1367784" lon="11.8493062"><ele>264.0</ele><time>2026-05-01T07:43:50.909Z</time></trkpt><trkpt lat="43.1367909" lon="11.8495823"><ele>264.0</ele><time>2026-05-01T07:43:51.909Z</time></trkpt><trkpt lat="43.136805" lon="11.8498181"><ele>264.0</ele><time>2026-05-01T07:43:52.909Z</time></trkpt><trkpt lat="43.1368187" lon="11.8500371"><ele>264.0</ele><time>2026-05-01T07:43:53.909Z</time></trkpt><trkpt lat="43.1368314" lon="11.8502354"><ele>264.0</ele><time>2026-05-01T07:43:54.908Z</time></trkpt><trkpt lat="43.1368503" lon="11.8504188"><ele>264.0</ele><time>2026-05-01T07:43:55.908Z</time></trkpt><trkpt lat="43.1368841" lon="11.850599"><ele>264.0</ele><time>2026-05-01T07:43:56.909Z</time></trkpt><trkpt lat="43.1369425" lon="11.8507846"><ele>263.6666666666667</ele><time>2026-05-01T07:43:57.908Z</time></trkpt><trkpt lat="43.1370025" lon="11.8509835"><ele>263.33333333333337</ele><time>2026-05-01T07:43:58.909Z</time></trkpt><trkpt lat="43.1370707" lon="11.8511796"><ele>263.0</ele><time>2026-05-01T07:43:59.908Z</time></trkpt><trkpt lat="43.1371366" lon="11.8513711"><ele>263.0</ele><time>2026-05-01T07:44:00.909Z</time></trkpt><trkpt lat="43.1371991" lon="11.8515585"><ele>263.0</ele><time>2026-05-01T07:44:01.909Z</time></trkpt><trkpt lat="43.1372541" lon="11.8517506"><ele>263.0</ele><time>2026-05-01T07:44:02.908Z</time></trkpt><trkpt lat="43.1373031" lon="11.851944"><ele>262.6666666666667</ele><time>2026-05-01T07:44:03.909Z</time></trkpt><trkpt lat="43.1373405" lon="11.8521402"><ele>262.3333333333333</ele><time>2026-05-01T07:44:04.909Z</time></trkpt><trkpt lat="43.1373751" lon="11.8523495"><ele>262.0</ele><time>2026-05-01T07:44:05.909Z</time></trkpt><trkpt lat="43.1374179" lon="11.8525567"><ele>261.75</ele><time>2026-05-01T07:44:06.909Z</time></trkpt><trkpt lat="43.1374539" lon="11.8527676"><ele>261.5</ele><time>2026-05-01T07:44:07.909Z</time></trkpt><trkpt lat="43.1374936" lon="11.8529577"><ele>261.25</ele><time>2026-05-01T07:44:08.909Z</time></trkpt><trkpt lat="43.1375295" lon="11.8531395"><ele>261.0</ele><time>2026-05-01T07:44:09.909Z</time></trkpt><trkpt lat="43.1375628" lon="11.8533056"><ele>260.8</ele><time>2026-05-01T07:44:10.909Z</time></trkpt><trkpt lat="43.1375871" lon="11.8534707"><ele>260.6</ele><time>2026-05-01T07:44:11.908Z</time></trkpt><trkpt lat="43.1376101" lon="11.8536156"><ele>260.4</ele><time>2026-05-01T07:44:12.909Z</time></trkpt><trkpt lat="43.1376321" lon="11.8537513"><ele>260.2</ele><time>2026-05-01T07:44:13.909Z</time></trkpt><trkpt lat="43.137645" lon="11.853866"><ele>260.0</ele><time>2026-05-01T07:44:14.909Z</time></trkpt><trkpt lat="43.1376436" lon="11.8539636"><ele>260.0</ele><time>2026-05-01T07:44:15.908Z</time></trkpt><trkpt lat="43.1376153" lon="11.854051"><ele>260.0</ele><time>2026-05-01T07:44:16.909Z</time></trkpt><trkpt lat="43.1375507" lon="11.8541376"><ele>260.0</ele><time>2026-05-01T07:44:17.909Z</time></trkpt><trkpt lat="43.1374731" lon="11.8542246"><ele>260.0</ele><time>2026-05-01T07:44:18.909Z</time></trkpt><trkpt lat="43.1373764" lon="11.8542986"><ele>260.0</ele><time>2026-05-01T07:44:19.909Z</time></trkpt><trkpt lat="43.1372772" lon="11.8543792"><ele>259.75</ele><time>2026-05-01T07:44:20.908Z</time></trkpt><trkpt lat="43.1371724" lon="11.8544678"><ele>259.5</ele><time>2026-05-01T07:44:21.908Z</time></trkpt><trkpt lat="43.1370549" lon="11.8545603"><ele>259.25</ele><time>2026-05-01T07:44:22.909Z</time></trkpt><trkpt lat="43.1369468" lon="11.8546573"><ele>259.0</ele><time>2026-05-01T07:44:23.909Z</time></trkpt><trkpt lat="43.1368369" lon="11.8547441"><ele>259.0</ele><time>2026-05-01T07:44:24.909Z</time></trkpt><trkpt lat="43.1367357" lon="11.8548429"><ele>259.0</ele><time>2026-05-01T07:44:25.908Z</time></trkpt><trkpt lat="43.1366326" lon="11.8549297"><ele>259.0</ele><time>2026-05-01T07:44:26.909Z</time></trkpt><trkpt lat="43.1365407" lon="11.8550186"><ele>259.0</ele><time>2026-05-01T07:44:27.909Z</time></trkpt><trkpt lat="43.1364371" lon="11.8551031"><ele>259.0</ele><time>2026-05-01T07:44:28.909Z</time></trkpt><trkpt lat="43.1363384" lon="11.8551946"><ele>259.0</ele><time>2026-05-01T07:44:29.908Z</time></trkpt><trkpt lat="43.1362429" lon="11.8552829"><ele>259.0</ele><time>2026-05-01T07:44:30.909Z</time></trkpt><trkpt lat="43.1361374" lon="11.8553761"><ele>259.0</ele><time>2026-05-01T07:44:31.909Z</time></trkpt><trkpt lat="43.1360278" lon="11.8554664"><ele>259.0</ele><time>2026-05-01T07:44:32.909Z</time></trkpt><trkpt lat="43.1359183" lon="11.855556"><ele>259.0</ele><time>2026-05-01T07:44:33.908Z</time></trkpt><trkpt lat="43.1358104" lon="11.8556578"><ele>259.0</ele><time>2026-05-01T07:44:34.909Z</time></trkpt><trkpt lat="43.1357016" lon="11.8557591"><ele>259.0</ele><time>2026-05-01T07:44:35.909Z</time></trkpt><trkpt lat="43.1355914" lon="11.855858"><ele>259.0</ele><time>2026-05-01T07:44:36.909Z</time></trkpt><trkpt lat="43.1354824" lon="11.855958"><ele>259.0</ele><time>2026-05-01T07:44:37.908Z</time></trkpt><trkpt lat="43.1353803" lon="11.8560525"><ele>259.0</ele><time>2026-05-01T07:44:38.909Z</time></trkpt><trkpt lat="43.1352876" lon="11.8561357"><ele>259.0</ele><time>2026-05-01T07:44:39.909Z</time></trkpt><trkpt lat="43.1352031" lon="11.8562017"><ele>259.0</ele><time>2026-05-01T07:44:40.909Z</time></trkpt><trkpt lat="43.1351325" lon="11.8562609"><ele>259.0</ele><time>2026-05-01T07:44:41.909Z</time></trkpt><trkpt lat="43.1350755" lon="11.8563048"><ele>259.0</ele><time>2026-05-01T07:44:42.909Z</time></trkpt><trkpt lat="43.1349944" lon="11.8562807"><ele>259.0</ele><time>2026-05-01T07:44:44.908Z</time></trkpt><trkpt lat="43.1349304" lon="11.8561593"><ele>259.0</ele><time>2026-05-01T07:44:45.908Z</time></trkpt><trkpt lat="43.1348428" lon="11.8560017"><ele>260.0</ele><time>2026-05-01T07:44:46.909Z</time></trkpt><trkpt lat="43.1347463" lon="11.8558462"><ele>261.0</ele><time>2026-05-01T07:44:47.909Z</time></trkpt><trkpt lat="43.1346368" lon="11.8557021"><ele>262.0</ele><time>2026-05-01T07:44:48.909Z</time></trkpt><trkpt lat="43.1345236" lon="11.8555672"><ele>262.0</ele><time>2026-05-01T07:44:49.909Z</time></trkpt><trkpt lat="43.1344289" lon="11.8554353"><ele>262.0</ele><time>2026-05-01T07:44:50.909Z</time></trkpt><trkpt lat="43.1343472" lon="11.8553464"><ele>262.0</ele><time>2026-05-01T07:44:51.909Z</time></trkpt><trkpt lat="43.1342656" lon="11.8552865"><ele>262.0</ele><time>2026-05-01T07:44:52.909Z</time></trkpt><trkpt lat="43.1341661" lon="11.8552939"><ele>262.0</ele><time>2026-05-01T07:44:53.908Z</time></trkpt><trkpt lat="43.1340652" lon="11.8553457"><ele>263.3333333333333</ele><time>2026-05-01T07:44:54.908Z</time></trkpt><trkpt lat="43.1339599" lon="11.8554537"><ele>264.6666666666667</ele><time>2026-05-01T07:44:55.909Z</time></trkpt><trkpt lat="43.1338401" lon="11.8555946"><ele>266.0</ele><time>2026-05-01T07:44:56.909Z</time></trkpt><trkpt lat="43.1337022" lon="11.8557277"><ele>266.0</ele><time>2026-05-01T07:44:57.909Z</time></trkpt><trkpt lat="43.1335577" lon="11.8558539"><ele>266.0</ele><time>2026-05-01T07:44:58.909Z</time></trkpt><trkpt lat="43.1334163" lon="11.855983"><ele>266.0</ele><time>2026-05-01T07:44:59.909Z</time></trkpt><trkpt lat="43.1332801" lon="11.8561065"><ele>265.6666666666667</ele><time>2026-05-01T07:45:00.909Z</time></trkpt><trkpt lat="43.1331426" lon="11.8562253"><ele>265.3333333333333</ele><time>2026-05-01T07:45:01.908Z</time></trkpt><trkpt lat="43.1330152" lon="11.8563589"><ele>265.0</ele><time>2026-05-01T07:45:02.908Z</time></trkpt><trkpt lat="43.1328846" lon="11.8564945"><ele>265.0</ele><time>2026-05-01T07:45:03.909Z</time></trkpt><trkpt lat="43.1327614" lon="11.8566306"><ele>265.0</ele><time>2026-05-01T07:45:04.908Z</time></trkpt><trkpt lat="43.1326219" lon="11.8567563"><ele>265.0</ele><time>2026-05-01T07:45:05.909Z</time></trkpt><trkpt lat="43.1324844" lon="11.8568808"><ele>264.0</ele><time>2026-05-01T07:45:06.909Z</time></trkpt><trkpt lat="43.1323436" lon="11.857009"><ele>263.0</ele><time>2026-05-01T07:45:07.908Z</time></trkpt><trkpt lat="43.1322138" lon="11.8571279"><ele>262.0</ele><time>2026-05-01T07:45:08.909Z</time></trkpt><trkpt lat="43.1320864" lon="11.8572502"><ele>262.0</ele><time>2026-05-01T07:45:09.909Z</time></trkpt><trkpt lat="43.131956" lon="11.8573727"><ele>262.0</ele><time>2026-05-01T07:45:10.908Z</time></trkpt><trkpt lat="43.1318266" lon="11.8575069"><ele>262.0</ele><time>2026-05-01T07:45:11.909Z</time></trkpt><trkpt lat="43.1316902" lon="11.8576177"><ele>262.0</ele><time>2026-05-01T07:45:12.909Z</time></trkpt><trkpt lat="43.131571" lon="11.8577229"><ele>262.0</ele><time>2026-05-01T07:45:13.909Z</time></trkpt><trkpt lat="43.1314457" lon="11.8578366"><ele>262.0</ele><time>2026-05-01T07:45:14.909Z</time></trkpt><trkpt lat="43.1313156" lon="11.8579507"><ele>262.0</ele><time>2026-05-01T07:45:15.908Z</time></trkpt><trkpt lat="43.1311907" lon="11.8580741"><ele>261.8</ele><time>2026-05-01T07:45:16.909Z</time></trkpt><trkpt lat="43.131069" lon="11.8581912"><ele>261.6</ele><time>2026-05-01T07:45:17.909Z</time></trkpt><trkpt lat="43.1309649" lon="11.8582843"><ele>261.40000000000003</ele><time>2026-05-01T07:45:18.908Z</time></trkpt><trkpt lat="43.1308949" lon="11.8583406"><ele>261.2</ele><time>2026-05-01T07:45:19.908Z</time></trkpt><trkpt lat="43.1308266" lon="11.8583427"><ele>261.0</ele><time>2026-05-01T07:45:20.909Z</time></trkpt><trkpt lat="43.1307581" lon="11.8582577"><ele>260.0</ele><time>2026-05-01T07:45:21.909Z</time></trkpt><trkpt lat="43.130684" lon="11.8580816"><ele>259.0</ele><time>2026-05-01T07:45:22.909Z</time></trkpt><trkpt lat="43.1306082" lon="11.8578668"><ele>258.0</ele><time>2026-05-01T07:45:23.909Z</time></trkpt><trkpt lat="43.1305286" lon="11.8576207"><ele>258.5</ele><time>2026-05-01T07:45:24.908Z</time></trkpt><trkpt lat="43.1304614" lon="11.8574074"><ele>259.0</ele><time>2026-05-01T07:45:25.909Z</time></trkpt><trkpt lat="43.1304097" lon="11.8572436"><ele>259.5</ele><time>2026-05-01T07:45:26.908Z</time></trkpt><trkpt lat="43.1303656" lon="11.8571086"><ele>260.0</ele><time>2026-05-01T07:45:27.909Z</time></trkpt><trkpt lat="43.1303284" lon="11.8569983"><ele>260.0</ele><time>2026-05-01T07:45:28.909Z</time></trkpt><trkpt lat="43.1302917" lon="11.856921"><ele>260.0</ele><time>2026-05-01T07:45:29.909Z</time></trkpt><trkpt lat="43.1302589" lon="11.8567915"><ele>260.0</ele><time>2026-05-01T07:45:31.909Z</time></trkpt><trkpt lat="43.1303161" lon="11.8566858"><ele>260.0</ele><time>2026-05-01T07:45:33.908Z</time></trkpt><trkpt lat="43.1304083" lon="11.8566181"><ele>260.0</ele><time>2026-05-01T07:45:34.909Z</time></trkpt><trkpt lat="43.1305247" lon="11.8565627"><ele>260.33333333333337</ele><time>2026-05-01T07:45:35.908Z</time></trkpt><trkpt lat="43.1306333" lon="11.8565084"><ele>260.6666666666667</ele><time>2026-05-01T07:45:36.909Z</time></trkpt><trkpt lat="43.1307229" lon="11.8564765"><ele>261.0</ele><time>2026-05-01T07:45:37.909Z</time></trkpt><trkpt lat="43.1307884" lon="11.8564629"><ele>261.3333333333333</ele><time>2026-05-01T07:45:38.909Z</time></trkpt><trkpt lat="43.1308779" lon="11.856503"><ele>261.66666666666663</ele><time>2026-05-01T07:45:40.909Z</time></trkpt><trkpt lat="43.1309359" lon="11.8565532"><ele>262.0</ele><time>2026-05-01T07:45:42.908Z</time></trkpt><trkpt lat="43.1309962" lon="11.8565957"><ele>262.0</ele><time>2026-05-01T07:45:45.909Z</time></trkpt><trkpt lat="43.1311438" lon="11.8566596"><ele>262.0</ele><time>2026-05-01T07:49:33.909Z</time></trkpt><trkpt lat="43.1311733" lon="11.8565083"><ele>262.0</ele><time>2026-05-01T07:49:35.908Z</time></trkpt><trkpt lat="43.1311798" lon="11.8564198"><ele>262.0</ele><time>2026-05-01T07:49:36.909Z</time></trkpt><trkpt lat="43.1311583" lon="11.8563203"><ele>262.0</ele><time>2026-05-01T07:49:38.909Z</time></trkpt><trkpt lat="43.1310811" lon="11.8562972"><ele>262.0</ele><time>2026-05-01T07:49:40.908Z</time></trkpt><trkpt lat="43.1309969" lon="11.8563269"><ele>262.0</ele><time>2026-05-01T07:49:41.909Z</time></trkpt><trkpt lat="43.1308892" lon="11.8563748"><ele>262.0</ele><time>2026-05-01T07:49:42.909Z</time></trkpt><trkpt lat="43.1307788" lon="11.856425"><ele>262.0</ele><time>2026-05-01T07:49:43.908Z</time></trkpt><trkpt lat="43.1306593" lon="11.8564816"><ele>262.0</ele><time>2026-05-01T07:49:44.909Z</time></trkpt><trkpt lat="43.1305351" lon="11.856547"><ele>262.0</ele><time>2026-05-01T07:49:45.909Z</time></trkpt><trkpt lat="43.1304064" lon="11.8566154"><ele>262.0</ele><time>2026-05-01T07:49:46.909Z</time></trkpt><trkpt lat="43.13028" lon="11.8566859"><ele>262.0</ele><time>2026-05-01T07:49:47.909Z</time></trkpt><trkpt lat="43.1301636" lon="11.8567543"><ele>262.0</ele><time>2026-05-01T07:49:48.909Z</time></trkpt><trkpt lat="43.1300667" lon="11.8568134"><ele>261.5</ele><time>2026-05-01T07:49:49.908Z</time></trkpt><trkpt lat="43.1299741" lon="11.8568583"><ele>261.0</ele><time>2026-05-01T07:49:50.908Z</time></trkpt><trkpt lat="43.1298644" lon="11.8569141"><ele>260.5</ele><time>2026-05-01T07:49:51.908Z</time></trkpt><trkpt lat="43.1297428" lon="11.8569795"><ele>260.0</ele><time>2026-05-01T07:49:52.909Z</time></trkpt><trkpt lat="43.1295868" lon="11.8570431"><ele>259.6666666666667</ele><time>2026-05-01T07:49:53.909Z</time></trkpt><trkpt lat="43.1293967" lon="11.8571274"><ele>259.3333333333333</ele><time>2026-05-01T07:49:54.909Z</time></trkpt><trkpt lat="43.1291988" lon="11.8572287"><ele>259.0</ele><time>2026-05-01T07:49:55.909Z</time></trkpt><trkpt lat="43.1289741" lon="11.857338"><ele>259.0</ele><time>2026-05-01T07:49:56.908Z</time></trkpt><trkpt lat="43.1287404" lon="11.8574488"><ele>259.0</ele><time>2026-05-01T07:49:57.909Z</time></trkpt><trkpt lat="43.1285169" lon="11.8575516"><ele>259.3333333333333</ele><time>2026-05-01T07:49:58.908Z</time></trkpt><trkpt lat="43.1283057" lon="11.8576508"><ele>259.6666666666667</ele><time>2026-05-01T07:49:59.909Z</time></trkpt><trkpt lat="43.1281081" lon="11.8577461"><ele>260.0</ele><time>2026-05-01T07:50:00.909Z</time></trkpt><trkpt lat="43.1279227" lon="11.8578487"><ele>260.0</ele><time>2026-05-01T07:50:01.909Z</time></trkpt><trkpt lat="43.1277552" lon="11.8579783"><ele>260.0</ele><time>2026-05-01T07:50:02.908Z</time></trkpt><trkpt lat="43.1275958" lon="11.8581421"><ele>260.0</ele><time>2026-05-01T07:50:03.909Z</time></trkpt><trkpt lat="43.1274474" lon="11.8582958"><ele>260.0</ele><time>2026-05-01T07:50:04.909Z</time></trkpt><trkpt lat="43.1273013" lon="11.8584365"><ele>260.0</ele><time>2026-05-01T07:50:05.909Z</time></trkpt><trkpt lat="43.1271673" lon="11.8585356"><ele>260.0</ele><time>2026-05-01T07:50:06.909Z</time></trkpt><trkpt lat="43.1270167" lon="11.8585775"><ele>259.6666666666667</ele><time>2026-05-01T07:50:07.908Z</time></trkpt><trkpt lat="43.1268277" lon="11.85858"><ele>259.3333333333333</ele><time>2026-05-01T07:50:08.909Z</time></trkpt><trkpt lat="43.1266193" lon="11.8585693"><ele>259.0</ele><time>2026-05-01T07:50:09.908Z</time></trkpt><trkpt lat="43.1263957" lon="11.8585821"><ele>260.0</ele><time>2026-05-01T07:50:10.909Z</time></trkpt><trkpt lat="43.1261602" lon="11.8585987"><ele>261.0</ele><time>2026-05-01T07:50:11.909Z</time></trkpt><trkpt lat="43.1259122" lon="11.8586021"><ele>262.5</ele><time>2026-05-01T07:50:12.908Z</time></trkpt><trkpt lat="43.1256664" lon="11.8586052"><ele>264.0</ele><time>2026-05-01T07:50:13.909Z</time></trkpt><trkpt lat="43.1254148" lon="11.8586123"><ele>264.0</ele><time>2026-05-01T07:50:14.909Z</time></trkpt><trkpt lat="43.1251865" lon="11.8586278"><ele>264.0</ele><time>2026-05-01T07:50:15.909Z</time></trkpt><trkpt lat="43.1249719" lon="11.8586374"><ele>264.0</ele><time>2026-05-01T07:50:16.909Z</time></trkpt><trkpt lat="43.1247799" lon="11.8586489"><ele>264.0</ele><time>2026-05-01T07:50:17.909Z</time></trkpt><trkpt lat="43.1245888" lon="11.8587035"><ele>264.0</ele><time>2026-05-01T07:50:18.909Z</time></trkpt><trkpt lat="43.1243859" lon="11.8587858"><ele>264.0</ele><time>2026-05-01T07:50:19.909Z</time></trkpt><trkpt lat="43.1241628" lon="11.8588934"><ele>263.5</ele><time>2026-05-01T07:50:20.908Z</time></trkpt><trkpt lat="43.123931" lon="11.8590016"><ele>263.0</ele><time>2026-05-01T07:50:21.909Z</time></trkpt><trkpt lat="43.1236721" lon="11.8591227"><ele>263.0</ele><time>2026-05-01T07:50:22.908Z</time></trkpt><trkpt lat="43.1234085" lon="11.8592608"><ele>263.0</ele><time>2026-05-01T07:50:23.909Z</time></trkpt><trkpt lat="43.1231357" lon="11.8593986"><ele>268.0</ele><time>2026-05-01T07:50:24.909Z</time></trkpt><trkpt lat="43.1228648" lon="11.8595385"><ele>273.0</ele><time>2026-05-01T07:50:25.909Z</time></trkpt><trkpt lat="43.1225959" lon="11.8596549"><ele>274.5</ele><time>2026-05-01T07:50:26.908Z</time></trkpt><trkpt lat="43.1223506" lon="11.8597534"><ele>276.0</ele><time>2026-05-01T07:50:27.909Z</time></trkpt><trkpt lat="43.1221058" lon="11.8598459"><ele>276.0</ele><time>2026-05-01T07:50:28.909Z</time></trkpt><trkpt lat="43.1218579" lon="11.8598749"><ele>276.0</ele><time>2026-05-01T07:50:29.909Z</time></trkpt><trkpt lat="43.1216033" lon="11.8598735"><ele>280.0</ele><time>2026-05-01T07:50:30.909Z</time></trkpt><trkpt lat="43.1213319" lon="11.8598582"><ele>284.0</ele><time>2026-05-01T07:50:31.909Z</time></trkpt><trkpt lat="43.1210424" lon="11.8598413"><ele>284.0</ele><time>2026-05-01T07:50:32.909Z</time></trkpt><trkpt lat="43.1207733" lon="11.8598346"><ele>284.0</ele><time>2026-05-01T07:50:33.909Z</time></trkpt><trkpt lat="43.1205212" lon="11.8598342"><ele>286.33333333333337</ele><time>2026-05-01T07:50:34.909Z</time></trkpt><trkpt lat="43.120305" lon="11.8598398"><ele>288.6666666666667</ele><time>2026-05-01T07:50:35.909Z</time></trkpt><trkpt lat="43.1201385" lon="11.8598362"><ele>291.0</ele><time>2026-05-01T07:50:36.909Z</time></trkpt><trkpt lat="43.1200009" lon="11.8598227"><ele>290.25</ele><time>2026-05-01T07:50:37.909Z</time></trkpt><trkpt lat="43.1198887" lon="11.8597793"><ele>289.5</ele><time>2026-05-01T07:50:38.909Z</time></trkpt><trkpt lat="43.1197827" lon="11.8596985"><ele>288.75</ele><time>2026-05-01T07:50:39.908Z</time></trkpt><trkpt lat="43.1196819" lon="11.8596098"><ele>288.0</ele><time>2026-05-01T07:50:40.909Z</time></trkpt><trkpt lat="43.1195869" lon="11.8594918"><ele>288.0</ele><time>2026-05-01T07:50:41.909Z</time></trkpt><trkpt lat="43.1194994" lon="11.8593573"><ele>288.0</ele><time>2026-05-01T07:50:42.909Z</time></trkpt><trkpt lat="43.119405" lon="11.8592079"><ele>288.0</ele><time>2026-05-01T07:50:43.909Z</time></trkpt><trkpt lat="43.1192948" lon="11.8590773"><ele>288.0</ele><time>2026-05-01T07:50:44.909Z</time></trkpt><trkpt lat="43.1191678" lon="11.8590086"><ele>291.3333333333333</ele><time>2026-05-01T07:50:45.909Z</time></trkpt><trkpt lat="43.1190334" lon="11.858983"><ele>294.66666666666663</ele><time>2026-05-01T07:50:46.908Z</time></trkpt><trkpt lat="43.1188807" lon="11.8590153"><ele>298.0</ele><time>2026-05-01T07:50:47.909Z</time></trkpt><trkpt lat="43.1187242" lon="11.8590966"><ele>298.0</ele><time>2026-05-01T07:50:48.908Z</time></trkpt><trkpt lat="43.1185752" lon="11.8591817"><ele>298.0</ele><time>2026-05-01T07:50:49.909Z</time></trkpt><trkpt lat="43.1184177" lon="11.8592634"><ele>298.0</ele><time>2026-05-01T07:50:50.909Z</time></trkpt><trkpt lat="43.118272" lon="11.8592947"><ele>297.5</ele><time>2026-05-01T07:50:51.909Z</time></trkpt><trkpt lat="43.1181277" lon="11.8593114"><ele>297.0</ele><time>2026-05-01T07:50:52.909Z</time></trkpt><trkpt lat="43.1179813" lon="11.8593058"><ele>296.5</ele><time>2026-05-01T07:50:53.909Z</time></trkpt><trkpt lat="43.1178284" lon="11.8592774"><ele>296.0</ele><time>2026-05-01T07:50:54.909Z</time></trkpt><trkpt lat="43.117654" lon="11.8592421"><ele>296.0</ele><time>2026-05-01T07:50:55.909Z</time></trkpt><trkpt lat="43.1174771" lon="11.8592187"><ele>296.0</ele><time>2026-05-01T07:50:56.909Z</time></trkpt><trkpt lat="43.1173218" lon="11.8591878"><ele>296.0</ele><time>2026-05-01T07:50:57.908Z</time></trkpt><trkpt lat="43.1171699" lon="11.8591812"><ele>296.25</ele><time>2026-05-01T07:50:58.908Z</time></trkpt><trkpt lat="43.1170301" lon="11.8591737"><ele>296.5</ele><time>2026-05-01T07:50:59.909Z</time></trkpt><trkpt lat="43.1168996" lon="11.8591757"><ele>296.75</ele><time>2026-05-01T07:51:00.908Z</time></trkpt><trkpt lat="43.1167718" lon="11.8592196"><ele>297.0</ele><time>2026-05-01T07:51:01.909Z</time></trkpt><trkpt lat="43.11665" lon="11.8592919"><ele>296.8333333333333</ele><time>2026-05-01T07:51:02.909Z</time></trkpt><trkpt lat="43.1165481" lon="11.8593774"><ele>296.6666666666667</ele><time>2026-05-01T07:51:03.909Z</time></trkpt><trkpt lat="43.116469" lon="11.8594568"><ele>296.5</ele><time>2026-05-01T07:51:04.909Z</time></trkpt><trkpt lat="43.1164176" lon="11.8595346"><ele>296.33333333333337</ele><time>2026-05-01T07:51:05.909Z</time></trkpt><trkpt lat="43.1163634" lon="11.8595866"><ele>296.1666666666667</ele><time>2026-05-01T07:51:11.908Z</time></trkpt><trkpt lat="43.1163223" lon="11.8596574"><ele>296.0</ele><time>2026-05-01T07:51:12.909Z</time></trkpt><trkpt lat="43.1162736" lon="11.8597538"><ele>296.0</ele><time>2026-05-01T07:51:13.909Z</time></trkpt><trkpt lat="43.1162242" lon="11.8598751"><ele>296.0</ele><time>2026-05-01T07:51:14.909Z</time></trkpt><trkpt lat="43.1161728" lon="11.8600144"><ele>296.0</ele><time>2026-05-01T07:51:15.909Z</time></trkpt><trkpt lat="43.1161214" lon="11.8601616"><ele>296.0</ele><time>2026-05-01T07:51:16.909Z</time></trkpt><trkpt lat="43.1160652" lon="11.8603009"><ele>296.0</ele><time>2026-05-01T07:51:17.908Z</time></trkpt><trkpt lat="43.1160035" lon="11.8604383"><ele>296.0</ele><time>2026-05-01T07:51:18.908Z</time></trkpt><trkpt lat="43.1159443" lon="11.8605758"><ele>296.0</ele><time>2026-05-01T07:51:19.909Z</time></trkpt><trkpt lat="43.1158871" lon="11.8607216"><ele>296.0</ele><time>2026-05-01T07:51:20.908Z</time></trkpt><trkpt lat="43.1158381" lon="11.8608631"><ele>295.75</ele><time>2026-05-01T07:51:21.909Z</time></trkpt><trkpt lat="43.1157892" lon="11.8610038"><ele>295.5</ele><time>2026-05-01T07:51:22.909Z</time></trkpt><trkpt lat="43.1157331" lon="11.8611359"><ele>295.25</ele><time>2026-05-01T07:51:23.909Z</time></trkpt><trkpt lat="43.1156667" lon="11.8612535"><ele>295.0</ele><time>2026-05-01T07:51:24.909Z</time></trkpt><trkpt lat="43.1155794" lon="11.8613651"><ele>294.16666666666663</ele><time>2026-05-01T07:51:25.909Z</time></trkpt><trkpt lat="43.1155095" lon="11.861466"><ele>293.3333333333333</ele><time>2026-05-01T07:51:26.909Z</time></trkpt><trkpt lat="43.1154493" lon="11.861549"><ele>292.5</ele><time>2026-05-01T07:51:27.909Z</time></trkpt><trkpt lat="43.1153933" lon="11.8616268"><ele>291.6666666666667</ele><time>2026-05-01T07:51:28.909Z</time></trkpt><trkpt lat="43.1153422" lon="11.8616946"><ele>290.83333333333337</ele><time>2026-05-01T07:51:29.909Z</time></trkpt><trkpt lat="43.1152886" lon="11.8617644"><ele>290.0</ele><time>2026-05-01T07:51:30.908Z</time></trkpt><trkpt lat="43.1152219" lon="11.8618461"><ele>289.83333333333337</ele><time>2026-05-01T07:51:31.908Z</time></trkpt><trkpt lat="43.1151531" lon="11.8619302"><ele>289.6666666666667</ele><time>2026-05-01T07:51:32.909Z</time></trkpt><trkpt lat="43.1150896" lon="11.8620249"><ele>289.5</ele><time>2026-05-01T07:51:33.909Z</time></trkpt><trkpt lat="43.1150311" lon="11.8621076"><ele>289.3333333333333</ele><time>2026-05-01T07:51:34.909Z</time></trkpt><trkpt lat="43.1149728" lon="11.862201"><ele>289.16666666666663</ele><time>2026-05-01T07:51:35.909Z</time></trkpt><trkpt lat="43.1149142" lon="11.8622825"><ele>289.0</ele><time>2026-05-01T07:51:36.909Z</time></trkpt><trkpt lat="43.1148729" lon="11.8623485"><ele>288.8333333333333</ele><time>2026-05-01T07:51:37.909Z</time></trkpt><trkpt lat="43.1148314" lon="11.862427"><ele>288.66666666666663</ele><time>2026-05-01T07:51:39.909Z</time></trkpt><trkpt lat="43.1147923" lon="11.8625158"><ele>288.5</ele><time>2026-05-01T07:51:47.909Z</time></trkpt><trkpt lat="43.1147373" lon="11.8625841"><ele>288.3333333333333</ele><time>2026-05-01T07:51:49.909Z</time></trkpt><trkpt lat="43.1146702" lon="11.8626871"><ele>288.1666666666667</ele><time>2026-05-01T07:51:51.908Z</time></trkpt><trkpt lat="43.1145857" lon="11.8627992"><ele>288.0</ele><time>2026-05-01T07:51:53.908Z</time></trkpt><trkpt lat="43.1145015" lon="11.8629478"><ele>289.0</ele><time>2026-05-01T07:51:55.908Z</time></trkpt><trkpt lat="43.1144406" lon="11.8630288"><ele>290.0</ele><time>2026-05-01T07:51:56.909Z</time></trkpt><trkpt lat="43.11438" lon="11.8631215"><ele>291.0</ele><time>2026-05-01T07:51:57.909Z</time></trkpt><trkpt lat="43.1143218" lon="11.8632237"><ele>292.0</ele><time>2026-05-01T07:51:58.908Z</time></trkpt><trkpt lat="43.1142704" lon="11.8633334"><ele>293.0</ele><time>2026-05-01T07:51:59.908Z</time></trkpt><trkpt lat="43.1142216" lon="11.8634334"><ele>292.8</ele><time>2026-05-01T07:52:00.909Z</time></trkpt><trkpt lat="43.114164" lon="11.8635444"><ele>292.6</ele><time>2026-05-01T07:52:01.909Z</time></trkpt><trkpt lat="43.1141078" lon="11.863645"><ele>292.4</ele><time>2026-05-01T07:52:02.909Z</time></trkpt><trkpt lat="43.1140484" lon="11.8637367"><ele>292.2</ele><time>2026-05-01T07:52:03.909Z</time></trkpt><trkpt lat="43.1139917" lon="11.8638194"><ele>292.0</ele><time>2026-05-01T07:52:04.909Z</time></trkpt><trkpt lat="43.1139316" lon="11.86391"><ele>292.0</ele><time>2026-05-01T07:52:05.909Z</time></trkpt><trkpt lat="43.1138759" lon="11.8639971"><ele>292.0</ele><time>2026-05-01T07:52:06.909Z</time></trkpt><trkpt lat="43.1138187" lon="11.864084"><ele>292.0</ele><time>2026-05-01T07:52:07.908Z</time></trkpt><trkpt lat="43.1137778" lon="11.8641785"><ele>292.0</ele><time>2026-05-01T07:52:08.909Z</time></trkpt><trkpt lat="43.1137319" lon="11.864279"><ele>292.0</ele><time>2026-05-01T07:52:09.909Z</time></trkpt><trkpt lat="43.1136788" lon="11.8643615"><ele>292.0</ele><time>2026-05-01T07:52:10.909Z</time></trkpt><trkpt lat="43.1136325" lon="11.8644629"><ele>292.2</ele><time>2026-05-01T07:52:11.909Z</time></trkpt><trkpt lat="43.1135845" lon="11.8645692"><ele>292.4</ele><time>2026-05-01T07:52:12.909Z</time></trkpt><trkpt lat="43.1135301" lon="11.8646818"><ele>292.6</ele><time>2026-05-01T07:52:13.909Z</time></trkpt><trkpt lat="43.1134632" lon="11.8647937"><ele>292.8</ele><time>2026-05-01T07:52:14.909Z</time></trkpt><trkpt lat="43.1134016" lon="11.8649003"><ele>293.0</ele><time>2026-05-01T07:52:15.908Z</time></trkpt><trkpt lat="43.113329" lon="11.8650264"><ele>293.0</ele><time>2026-05-01T07:52:16.908Z</time></trkpt><trkpt lat="43.1132623" lon="11.8651339"><ele>293.0</ele><time>2026-05-01T07:52:17.909Z</time></trkpt><trkpt lat="43.1132084" lon="11.8652563"><ele>293.0</ele><time>2026-05-01T07:52:18.909Z</time></trkpt><trkpt lat="43.1131731" lon="11.8653778"><ele>293.0</ele><time>2026-05-01T07:52:19.909Z</time></trkpt><trkpt lat="43.1131434" lon="11.8655025"><ele>293.0</ele><time>2026-05-01T07:52:20.909Z</time></trkpt><trkpt lat="43.1131243" lon="11.8656275"><ele>294.6</ele><time>2026-05-01T07:52:21.909Z</time></trkpt><trkpt lat="43.1131198" lon="11.8657663"><ele>296.20000000000005</ele><time>2026-05-01T07:52:22.909Z</time></trkpt><trkpt lat="43.1131201" lon="11.8659027"><ele>297.8</ele><time>2026-05-01T07:52:23.909Z</time></trkpt><trkpt lat="43.1131264" lon="11.8660425"><ele>299.40000000000003</ele><time>2026-05-01T07:52:24.908Z</time></trkpt><trkpt lat="43.1131319" lon="11.8661898"><ele>301.0</ele><time>2026-05-01T07:52:25.909Z</time></trkpt><trkpt lat="43.1131466" lon="11.8663511"><ele>301.0</ele><time>2026-05-01T07:52:26.908Z</time></trkpt><trkpt lat="43.1131556" lon="11.8665107"><ele>301.0</ele><time>2026-05-01T07:52:27.909Z</time></trkpt><trkpt lat="43.1131674" lon="11.8666522"><ele>301.0</ele><time>2026-05-01T07:52:28.908Z</time></trkpt><trkpt lat="43.1131704" lon="11.8667783"><ele>301.0</ele><time>2026-05-01T07:52:29.909Z</time></trkpt><trkpt lat="43.1131735" lon="11.8669058"><ele>301.0</ele><time>2026-05-01T07:52:30.908Z</time></trkpt><trkpt lat="43.1131649" lon="11.8670428"><ele>299.40000000000003</ele><time>2026-05-01T07:52:31.908Z</time></trkpt><trkpt lat="43.1131535" lon="11.8671886"><ele>297.8</ele><time>2026-05-01T07:52:32.908Z</time></trkpt><trkpt lat="43.1131366" lon="11.8673315"><ele>296.20000000000005</ele><time>2026-05-01T07:52:33.908Z</time></trkpt><trkpt lat="43.1131097" lon="11.8674724"><ele>294.6</ele><time>2026-05-01T07:52:34.909Z</time></trkpt><trkpt lat="43.1130782" lon="11.8676186"><ele>293.0</ele><time>2026-05-01T07:52:35.909Z</time></trkpt><trkpt lat="43.1130355" lon="11.8677638"><ele>291.0</ele><time>2026-05-01T07:52:36.909Z</time></trkpt><trkpt lat="43.1129971" lon="11.8679059"><ele>289.0</ele><time>2026-05-01T07:52:37.908Z</time></trkpt><trkpt lat="43.1129373" lon="11.8680422"><ele>287.0</ele><time>2026-05-01T07:52:38.909Z</time></trkpt><trkpt lat="43.1128841" lon="11.8681794"><ele>285.0</ele><time>2026-05-01T07:52:39.909Z</time></trkpt><trkpt lat="43.1128216" lon="11.8683238"><ele>283.0</ele><time>2026-05-01T07:52:40.908Z</time></trkpt><trkpt lat="43.1127203" lon="11.8684684"><ele>281.0</ele><time>2026-05-01T07:52:41.908Z</time></trkpt><trkpt lat="43.1125993" lon="11.8686119"><ele>279.0</ele><time>2026-05-01T07:52:42.909Z</time></trkpt><trkpt lat="43.1124643" lon="11.8687295"><ele>279.5</ele><time>2026-05-01T07:52:43.909Z</time></trkpt><trkpt lat="43.1123403" lon="11.8688473"><ele>280.0</ele><time>2026-05-01T07:52:44.909Z</time></trkpt><trkpt lat="43.1122214" lon="11.8689574"><ele>280.5</ele><time>2026-05-01T07:52:45.909Z</time></trkpt><trkpt lat="43.1121246" lon="11.8690767"><ele>281.0</ele><time>2026-05-01T07:52:46.909Z</time></trkpt><trkpt lat="43.1120443" lon="11.8692086"><ele>279.75</ele><time>2026-05-01T07:52:47.909Z</time></trkpt><trkpt lat="43.1119695" lon="11.869371"><ele>278.5</ele><time>2026-05-01T07:52:48.908Z</time></trkpt><trkpt lat="43.1119094" lon="11.8695359"><ele>277.25</ele><time>2026-05-01T07:52:49.908Z</time></trkpt><trkpt lat="43.1118606" lon="11.8697015"><ele>276.0</ele><time>2026-05-01T07:52:50.909Z</time></trkpt><trkpt lat="43.1118212" lon="11.8698647"><ele>276.0</ele><time>2026-05-01T07:52:51.909Z</time></trkpt><trkpt lat="43.1117834" lon="11.8700349"><ele>276.0</ele><time>2026-05-01T07:52:52.909Z</time></trkpt><trkpt lat="43.1117448" lon="11.8702122"><ele>276.0</ele><time>2026-05-01T07:52:53.909Z</time></trkpt><trkpt lat="43.1117048" lon="11.8703756"><ele>276.0</ele><time>2026-05-01T07:52:54.909Z</time></trkpt><trkpt lat="43.1116624" lon="11.8705201"><ele>276.40000000000003</ele><time>2026-05-01T07:52:55.909Z</time></trkpt><trkpt lat="43.111628" lon="11.8706528"><ele>276.8</ele><time>2026-05-01T07:52:56.909Z</time></trkpt><trkpt lat="43.1115963" lon="11.8707912"><ele>277.20000000000005</ele><time>2026-05-01T07:52:57.909Z</time></trkpt><trkpt lat="43.1115551" lon="11.8709482"><ele>277.6</ele><time>2026-05-01T07:52:58.909Z</time></trkpt><trkpt lat="43.1115214" lon="11.8710978"><ele>278.0</ele><time>2026-05-01T07:52:59.909Z</time></trkpt><trkpt lat="43.111478" lon="11.8712706"><ele>278.0</ele><time>2026-05-01T07:53:00.909Z</time></trkpt><trkpt lat="43.1114294" lon="11.8714374"><ele>278.0</ele><time>2026-05-01T07:53:01.909Z</time></trkpt><trkpt lat="43.1113865" lon="11.8715941"><ele>278.0</ele><time>2026-05-01T07:53:02.908Z</time></trkpt><trkpt lat="43.111348" lon="11.8717618"><ele>278.0</ele><time>2026-05-01T07:53:03.909Z</time></trkpt><trkpt lat="43.1113265" lon="11.8719313"><ele>276.5</ele><time>2026-05-01T07:53:04.908Z</time></trkpt><trkpt lat="43.1113198" lon="11.872109"><ele>275.0</ele><time>2026-05-01T07:53:05.909Z</time></trkpt><trkpt lat="43.1113122" lon="11.8722909"><ele>273.5</ele><time>2026-05-01T07:53:06.908Z</time></trkpt><trkpt lat="43.1113441" lon="11.8724768"><ele>272.0</ele><time>2026-05-01T07:53:07.909Z</time></trkpt><trkpt lat="43.111403" lon="11.8726983"><ele>271.33333333333337</ele><time>2026-05-01T07:53:08.908Z</time></trkpt><trkpt lat="43.1114845" lon="11.8729572"><ele>270.6666666666667</ele><time>2026-05-01T07:53:09.909Z</time></trkpt><trkpt lat="43.1115653" lon="11.8732607"><ele>270.0</ele><time>2026-05-01T07:53:10.908Z</time></trkpt><trkpt lat="43.1116343" lon="11.8736183"><ele>267.5</ele><time>2026-05-01T07:53:11.908Z</time></trkpt><trkpt lat="43.1116899" lon="11.8739837"><ele>265.0</ele><time>2026-05-01T07:53:12.909Z</time></trkpt><trkpt lat="43.1117378" lon="11.8743515"><ele>265.0</ele><time>2026-05-01T07:53:13.909Z</time></trkpt><trkpt lat="43.1117934" lon="11.8746739"><ele>265.0</ele><time>2026-05-01T07:53:14.909Z</time></trkpt><trkpt lat="43.1118374" lon="11.8749661"><ele>264.66666666666663</ele><time>2026-05-01T07:53:15.909Z</time></trkpt><trkpt lat="43.1118811" lon="11.8752269"><ele>264.3333333333333</ele><time>2026-05-01T07:53:16.909Z</time></trkpt><trkpt lat="43.1119246" lon="11.875469"><ele>264.0</ele><time>2026-05-01T07:53:17.908Z</time></trkpt><trkpt lat="43.1119683" lon="11.8756853"><ele>264.0</ele><time>2026-05-01T07:53:18.909Z</time></trkpt><trkpt lat="43.1119999" lon="11.8758962"><ele>264.0</ele><time>2026-05-01T07:53:19.909Z</time></trkpt><trkpt lat="43.1120143" lon="11.8761055"><ele>264.0</ele><time>2026-05-01T07:53:20.908Z</time></trkpt><trkpt lat="43.1120177" lon="11.8763081"><ele>263.75</ele><time>2026-05-01T07:53:21.908Z</time></trkpt><trkpt lat="43.1120139" lon="11.8764861"><ele>263.5</ele><time>2026-05-01T07:53:22.909Z</time></trkpt><trkpt lat="43.1120006" lon="11.8766668"><ele>263.25</ele><time>2026-05-01T07:53:23.909Z</time></trkpt><trkpt lat="43.1120041" lon="11.8768494"><ele>263.0</ele><time>2026-05-01T07:53:24.909Z</time></trkpt><trkpt lat="43.1120222" lon="11.8770244"><ele>263.25</ele><time>2026-05-01T07:53:25.909Z</time></trkpt><trkpt lat="43.1120424" lon="11.8771993"><ele>263.5</ele><time>2026-05-01T07:53:26.908Z</time></trkpt><trkpt lat="43.1120711" lon="11.8773661"><ele>263.75</ele><time>2026-05-01T07:53:27.908Z</time></trkpt><trkpt lat="43.1121041" lon="11.8775414"><ele>264.0</ele><time>2026-05-01T07:53:28.909Z</time></trkpt><trkpt lat="43.1121497" lon="11.8777275"><ele>264.0</ele><time>2026-05-01T07:53:29.909Z</time></trkpt><trkpt lat="43.1122172" lon="11.8779387"><ele>264.0</ele><time>2026-05-01T07:53:30.909Z</time></trkpt><trkpt lat="43.1123021" lon="11.8781639"><ele>264.0</ele><time>2026-05-01T07:53:31.909Z</time></trkpt><trkpt lat="43.1123817" lon="11.8783925"><ele>261.6666666666667</ele><time>2026-05-01T07:53:32.909Z</time></trkpt><trkpt lat="43.1124615" lon="11.8786162"><ele>259.33333333333337</ele><time>2026-05-01T07:53:33.908Z</time></trkpt><trkpt lat="43.1125049" lon="11.8788331"><ele>257.0</ele><time>2026-05-01T07:53:34.909Z</time></trkpt><trkpt lat="43.1125268" lon="11.8790289"><ele>257.0</ele><time>2026-05-01T07:53:35.909Z</time></trkpt><trkpt lat="43.1125334" lon="11.8792142"><ele>257.0</ele><time>2026-05-01T07:53:36.909Z</time></trkpt><trkpt lat="43.1125252" lon="11.8794063"><ele>257.0</ele><time>2026-05-01T07:53:37.909Z</time></trkpt><trkpt lat="43.1124957" lon="11.8796156"><ele>257.0</ele><time>2026-05-01T07:53:38.908Z</time></trkpt><trkpt lat="43.1124584" lon="11.8798367"><ele>256.6666666666667</ele><time>2026-05-01T07:53:39.909Z</time></trkpt><trkpt lat="43.1124012" lon="11.8800644"><ele>256.3333333333333</ele><time>2026-05-01T07:53:40.909Z</time></trkpt><trkpt lat="43.1123549" lon="11.8802933"><ele>256.0</ele><time>2026-05-01T07:53:41.909Z</time></trkpt><trkpt lat="43.1123021" lon="11.8805085"><ele>254.0</ele><time>2026-05-01T07:53:42.909Z</time></trkpt><trkpt lat="43.1122206" lon="11.8807082"><ele>252.0</ele><time>2026-05-01T07:53:43.908Z</time></trkpt><trkpt lat="43.1121121" lon="11.8808914"><ele>250.0</ele><time>2026-05-01T07:53:44.909Z</time></trkpt><trkpt lat="43.1119813" lon="11.8810401"><ele>250.0</ele><time>2026-05-01T07:53:45.909Z</time></trkpt><trkpt lat="43.1118257" lon="11.881191"><ele>250.0</ele><time>2026-05-01T07:53:46.909Z</time></trkpt><trkpt lat="43.1116525" lon="11.8813487"><ele>250.0</ele><time>2026-05-01T07:53:47.909Z</time></trkpt><trkpt lat="43.1114744" lon="11.8815075"><ele>251.0</ele><time>2026-05-01T07:53:48.908Z</time></trkpt><trkpt lat="43.111287" lon="11.8816714"><ele>252.0</ele><time>2026-05-01T07:53:49.909Z</time></trkpt><trkpt lat="43.1111009" lon="11.8818334"><ele>253.0</ele><time>2026-05-01T07:53:50.908Z</time></trkpt><trkpt lat="43.1109118" lon="11.8820022"><ele>253.33333333333331</ele><time>2026-05-01T07:53:51.909Z</time></trkpt><trkpt lat="43.1107187" lon="11.8821556"><ele>253.66666666666669</ele><time>2026-05-01T07:53:52.909Z</time></trkpt><trkpt lat="43.1105206" lon="11.8822988"><ele>254.0</ele><time>2026-05-01T07:53:53.909Z</time></trkpt><trkpt lat="43.1103151" lon="11.8824261"><ele>254.0</ele><time>2026-05-01T07:53:54.909Z</time></trkpt><trkpt lat="43.1101189" lon="11.882537"><ele>254.0</ele><time>2026-05-01T07:53:55.908Z</time></trkpt><trkpt lat="43.1099292" lon="11.8826446"><ele>254.0</ele><time>2026-05-01T07:53:56.908Z</time></trkpt><trkpt lat="43.1097312" lon="11.882738"><ele>253.66666666666669</ele><time>2026-05-01T07:53:57.909Z</time></trkpt><trkpt lat="43.1095386" lon="11.8828374"><ele>253.33333333333331</ele><time>2026-05-01T07:53:58.909Z</time></trkpt><trkpt lat="43.1093451" lon="11.8829444"><ele>253.0</ele><time>2026-05-01T07:53:59.908Z</time></trkpt><trkpt lat="43.109148" lon="11.8830445"><ele>253.66666666666666</ele><time>2026-05-01T07:54:00.909Z</time></trkpt><trkpt lat="43.1089504" lon="11.8831395"><ele>254.33333333333331</ele><time>2026-05-01T07:54:01.909Z</time></trkpt><trkpt lat="43.1087535" lon="11.8832358"><ele>255.0</ele><time>2026-05-01T07:54:02.908Z</time></trkpt><trkpt lat="43.1085543" lon="11.8833383"><ele>254.66666666666669</ele><time>2026-05-01T07:54:03.909Z</time></trkpt><trkpt lat="43.1083658" lon="11.8834387"><ele>254.33333333333334</ele><time>2026-05-01T07:54:04.908Z</time></trkpt><trkpt lat="43.1081769" lon="11.8835417"><ele>254.0</ele><time>2026-05-01T07:54:05.909Z</time></trkpt><trkpt lat="43.1079913" lon="11.8836416"><ele>254.66666666666669</ele><time>2026-05-01T07:54:06.908Z</time></trkpt><trkpt lat="43.1078217" lon="11.8837566"><ele>255.33333333333331</ele><time>2026-05-01T07:54:07.909Z</time></trkpt><trkpt lat="43.1076596" lon="11.8838668"><ele>256.0</ele><time>2026-05-01T07:54:08.909Z</time></trkpt><trkpt lat="43.1074984" lon="11.8839635"><ele>256.0</ele><time>2026-05-01T07:54:09.909Z</time></trkpt><trkpt lat="43.1073228" lon="11.8840455"><ele>256.0</ele><time>2026-05-01T07:54:10.909Z</time></trkpt><trkpt lat="43.1071444" lon="11.8841214"><ele>256.0</ele><time>2026-05-01T07:54:11.908Z</time></trkpt><trkpt lat="43.1069547" lon="11.8842028"><ele>256.0</ele><time>2026-05-01T07:54:12.908Z</time></trkpt><trkpt lat="43.1067583" lon="11.8843065"><ele>256.0</ele><time>2026-05-01T07:54:13.909Z</time></trkpt><trkpt lat="43.1065584" lon="11.884422"><ele>256.0</ele><time>2026-05-01T07:54:14.909Z</time></trkpt><trkpt lat="43.1063599" lon="11.8845343"><ele>256.0</ele><time>2026-05-01T07:54:15.909Z</time></trkpt><trkpt lat="43.1061596" lon="11.8846499"><ele>256.0</ele><time>2026-05-01T07:54:16.909Z</time></trkpt><trkpt lat="43.1059518" lon="11.8847745"><ele>256.0</ele><time>2026-05-01T07:54:17.909Z</time></trkpt><trkpt lat="43.1057514" lon="11.8848967"><ele>255.33333333333331</ele><time>2026-05-01T07:54:18.908Z</time></trkpt><trkpt lat="43.1055523" lon="11.8850277"><ele>254.66666666666669</ele><time>2026-05-01T07:54:19.909Z</time></trkpt><trkpt lat="43.1053467" lon="11.8851529"><ele>254.0</ele><time>2026-05-01T07:54:20.909Z</time></trkpt><trkpt lat="43.1051335" lon="11.8852822"><ele>254.0</ele><time>2026-05-01T07:54:21.909Z</time></trkpt><trkpt lat="43.1049237" lon="11.8854071"><ele>254.0</ele><time>2026-05-01T07:54:22.908Z</time></trkpt><trkpt lat="43.1047027" lon="11.8855446"><ele>253.5</ele><time>2026-05-01T07:54:23.909Z</time></trkpt><trkpt lat="43.1044836" lon="11.8856936"><ele>253.0</ele><time>2026-05-01T07:54:24.908Z</time></trkpt><trkpt lat="43.104259" lon="11.8858514"><ele>254.0</ele><time>2026-05-01T07:54:25.909Z</time></trkpt><trkpt lat="43.1040326" lon="11.8859781"><ele>255.0</ele><time>2026-05-01T07:54:26.909Z</time></trkpt><trkpt lat="43.1038018" lon="11.8860862"><ele>255.0</ele><time>2026-05-01T07:54:27.909Z</time></trkpt><trkpt lat="43.1035522" lon="11.8861911"><ele>255.0</ele><time>2026-05-01T07:54:28.908Z</time></trkpt><trkpt lat="43.1032965" lon="11.8862901"><ele>257.0</ele><time>2026-05-01T07:54:29.909Z</time></trkpt><trkpt lat="43.1030407" lon="11.8863877"><ele>259.0</ele><time>2026-05-01T07:54:30.909Z</time></trkpt><trkpt lat="43.1027765" lon="11.8864716"><ele>259.0</ele><time>2026-05-01T07:54:31.908Z</time></trkpt><trkpt lat="43.1025382" lon="11.8865501"><ele>259.0</ele><time>2026-05-01T07:54:32.909Z</time></trkpt><trkpt lat="43.1023087" lon="11.8866305"><ele>260.66666666666663</ele><time>2026-05-01T07:54:33.909Z</time></trkpt><trkpt lat="43.1020957" lon="11.8867059"><ele>262.3333333333333</ele><time>2026-05-01T07:54:34.909Z</time></trkpt><trkpt lat="43.1018997" lon="11.8867903"><ele>264.0</ele><time>2026-05-01T07:54:35.909Z</time></trkpt><trkpt lat="43.1017204" lon="11.8868917"><ele>264.3333333333333</ele><time>2026-05-01T07:54:36.908Z</time></trkpt><trkpt lat="43.1015494" lon="11.8870067"><ele>264.66666666666663</ele><time>2026-05-01T07:54:37.909Z</time></trkpt><trkpt lat="43.1013934" lon="11.8871317"><ele>265.0</ele><time>2026-05-01T07:54:38.909Z</time></trkpt><trkpt lat="43.1012562" lon="11.8872641"><ele>265.0</ele><time>2026-05-01T07:54:39.909Z</time></trkpt><trkpt lat="43.1011265" lon="11.8874209"><ele>265.0</ele><time>2026-05-01T07:54:40.908Z</time></trkpt><trkpt lat="43.1009918" lon="11.887582"><ele>265.0</ele><time>2026-05-01T07:54:41.908Z</time></trkpt><trkpt lat="43.1008551" lon="11.8877501"><ele>264.0</ele><time>2026-05-01T07:54:42.908Z</time></trkpt><trkpt lat="43.100719" lon="11.8879146"><ele>263.0</ele><time>2026-05-01T07:54:43.908Z</time></trkpt><trkpt lat="43.1005716" lon="11.8880776"><ele>262.0</ele><time>2026-05-01T07:54:44.909Z</time></trkpt><trkpt lat="43.100415" lon="11.8882487"><ele>262.0</ele><time>2026-05-01T07:54:45.908Z</time></trkpt><trkpt lat="43.10025" lon="11.888417"><ele>262.0</ele><time>2026-05-01T07:54:46.909Z</time></trkpt><trkpt lat="43.1000695" lon="11.8885885"><ele>262.0</ele><time>2026-05-01T07:54:47.908Z</time></trkpt><trkpt lat="43.0998814" lon="11.8887584"><ele>261.5</ele><time>2026-05-01T07:54:48.909Z</time></trkpt><trkpt lat="43.0996933" lon="11.8889111"><ele>261.0</ele><time>2026-05-01T07:54:49.909Z</time></trkpt><trkpt lat="43.0994978" lon="11.8890855"><ele>261.0</ele><time>2026-05-01T07:54:50.909Z</time></trkpt><trkpt lat="43.0993044" lon="11.8892438"><ele>261.0</ele><time>2026-05-01T07:54:51.908Z</time></trkpt><trkpt lat="43.099109" lon="11.8894082"><ele>261.0</ele><time>2026-05-01T07:54:52.909Z</time></trkpt><trkpt lat="43.0989172" lon="11.8895736"><ele>261.0</ele><time>2026-05-01T07:54:53.908Z</time></trkpt><trkpt lat="43.0987266" lon="11.8897449"><ele>261.0</ele><time>2026-05-01T07:54:54.909Z</time></trkpt><trkpt lat="43.0985225" lon="11.8899125"><ele>261.0</ele><time>2026-05-01T07:54:55.909Z</time></trkpt><trkpt lat="43.0983236" lon="11.8900767"><ele>260.5</ele><time>2026-05-01T07:54:56.909Z</time></trkpt><trkpt lat="43.0981322" lon="11.8902316"><ele>260.0</ele><time>2026-05-01T07:54:57.909Z</time></trkpt><trkpt lat="43.0979402" lon="11.8904041"><ele>260.0</ele><time>2026-05-01T07:54:58.908Z</time></trkpt><trkpt lat="43.097751" lon="11.8905778"><ele>260.0</ele><time>2026-05-01T07:54:59.909Z</time></trkpt><trkpt lat="43.0975607" lon="11.890751"><ele>259.33333333333337</ele><time>2026-05-01T07:55:00.908Z</time></trkpt><trkpt lat="43.0973683" lon="11.8909046"><ele>258.6666666666667</ele><time>2026-05-01T07:55:01.909Z</time></trkpt><trkpt lat="43.0971699" lon="11.8910356"><ele>258.0</ele><time>2026-05-01T07:55:02.908Z</time></trkpt><trkpt lat="43.096965" lon="11.8911272"><ele>258.0</ele><time>2026-05-01T07:55:03.909Z</time></trkpt><trkpt lat="43.0967512" lon="11.8911887"><ele>258.0</ele><time>2026-05-01T07:55:04.908Z</time></trkpt><trkpt lat="43.0965246" lon="11.8912517"><ele>258.0</ele><time>2026-05-01T07:55:05.909Z</time></trkpt><trkpt lat="43.0962919" lon="11.8913098"><ele>258.0</ele><time>2026-05-01T07:55:06.909Z</time></trkpt><trkpt lat="43.0960645" lon="11.8913689"><ele>258.0</ele><time>2026-05-01T07:55:07.909Z</time></trkpt><trkpt lat="43.0958377" lon="11.8914278"><ele>258.0</ele><time>2026-05-01T07:55:08.908Z</time></trkpt><trkpt lat="43.0956121" lon="11.8914896"><ele>258.0</ele><time>2026-05-01T07:55:09.909Z</time></trkpt><trkpt lat="43.0953875" lon="11.8915459"><ele>258.0</ele><time>2026-05-01T07:55:10.909Z</time></trkpt><trkpt lat="43.0951631" lon="11.8916021"><ele>258.0</ele><time>2026-05-01T07:55:11.908Z</time></trkpt><trkpt lat="43.0949422" lon="11.8916685"><ele>258.0</ele><time>2026-05-01T07:55:12.909Z</time></trkpt><trkpt lat="43.0947247" lon="11.8917221"><ele>258.0</ele><time>2026-05-01T07:55:13.909Z</time></trkpt><trkpt lat="43.0945047" lon="11.8917753"><ele>255.5</ele><time>2026-05-01T07:55:14.909Z</time></trkpt><trkpt lat="43.0942804" lon="11.8918319"><ele>253.0</ele><time>2026-05-01T07:55:15.908Z</time></trkpt><trkpt lat="43.0940536" lon="11.891883"><ele>252.0</ele><time>2026-05-01T07:55:16.908Z</time></trkpt><trkpt lat="43.0938225" lon="11.8919317"><ele>251.0</ele><time>2026-05-01T07:55:17.908Z</time></trkpt><trkpt lat="43.0935844" lon="11.8919871"><ele>251.0</ele><time>2026-05-01T07:55:18.908Z</time></trkpt><trkpt lat="43.0933467" lon="11.8920404"><ele>251.0</ele><time>2026-05-01T07:55:19.909Z</time></trkpt><trkpt lat="43.0931093" lon="11.8921097"><ele>251.5</ele><time>2026-05-01T07:55:20.909Z</time></trkpt><trkpt lat="43.092876" lon="11.8921793"><ele>252.0</ele><time>2026-05-01T07:55:21.909Z</time></trkpt><trkpt lat="43.0926335" lon="11.8922376"><ele>251.0</ele><time>2026-05-01T07:55:22.909Z</time></trkpt><trkpt lat="43.0923951" lon="11.8923006"><ele>250.0</ele><time>2026-05-01T07:55:23.908Z</time></trkpt><trkpt lat="43.0921508" lon="11.8923608"><ele>250.0</ele><time>2026-05-01T07:55:24.909Z</time></trkpt><trkpt lat="43.0919108" lon="11.8924269"><ele>250.0</ele><time>2026-05-01T07:55:25.909Z</time></trkpt><trkpt lat="43.0916684" lon="11.8924829"><ele>250.0</ele><time>2026-05-01T07:55:26.909Z</time></trkpt><trkpt lat="43.0914241" lon="11.8925445"><ele>250.0</ele><time>2026-05-01T07:55:27.909Z</time></trkpt><trkpt lat="43.091183" lon="11.8926103"><ele>250.0</ele><time>2026-05-01T07:55:28.908Z</time></trkpt><trkpt lat="43.0909382" lon="11.8926733"><ele>250.0</ele><time>2026-05-01T07:55:29.909Z</time></trkpt><trkpt lat="43.0907032" lon="11.89273"><ele>250.0</ele><time>2026-05-01T07:55:30.909Z</time></trkpt><trkpt lat="43.0904745" lon="11.8927911"><ele>250.0</ele><time>2026-05-01T07:55:31.909Z</time></trkpt><trkpt lat="43.0902378" lon="11.8928564"><ele>250.0</ele><time>2026-05-01T07:55:32.908Z</time></trkpt><trkpt lat="43.0900038" lon="11.8929144"><ele>250.0</ele><time>2026-05-01T07:55:33.909Z</time></trkpt><trkpt lat="43.08977" lon="11.8929788"><ele>249.5</ele><time>2026-05-01T07:55:34.908Z</time></trkpt><trkpt lat="43.0895361" lon="11.8930397"><ele>249.0</ele><time>2026-05-01T07:55:35.909Z</time></trkpt><trkpt lat="43.0893023" lon="11.8931026"><ele>248.0</ele><time>2026-05-01T07:55:36.909Z</time></trkpt><trkpt lat="43.0890675" lon="11.8931718"><ele>247.0</ele><time>2026-05-01T07:55:37.909Z</time></trkpt><trkpt lat="43.0888244" lon="11.8932374"><ele>247.0</ele><time>2026-05-01T07:55:38.908Z</time></trkpt><trkpt lat="43.0885843" lon="11.8932957"><ele>247.0</ele><time>2026-05-01T07:55:39.908Z</time></trkpt><trkpt lat="43.0883361" lon="11.8933568"><ele>248.0</ele><time>2026-05-01T07:55:40.909Z</time></trkpt><trkpt lat="43.0880839" lon="11.8934164"><ele>249.0</ele><time>2026-05-01T07:55:41.908Z</time></trkpt><trkpt lat="43.0878309" lon="11.8934692"><ele>249.0</ele><time>2026-05-01T07:55:42.909Z</time></trkpt><trkpt lat="43.0875819" lon="11.8935311"><ele>249.0</ele><time>2026-05-01T07:55:43.909Z</time></trkpt><trkpt lat="43.0873307" lon="11.8935997"><ele>248.5</ele><time>2026-05-01T07:55:44.908Z</time></trkpt><trkpt lat="43.0870748" lon="11.8936713"><ele>248.0</ele><time>2026-05-01T07:55:45.909Z</time></trkpt><trkpt lat="43.0868223" lon="11.8937363"><ele>248.0</ele><time>2026-05-01T07:55:46.909Z</time></trkpt><trkpt lat="43.0865656" lon="11.8937949"><ele>248.0</ele><time>2026-05-01T07:55:47.909Z</time></trkpt><trkpt lat="43.0863095" lon="11.8938566"><ele>248.0</ele><time>2026-05-01T07:55:48.909Z</time></trkpt><trkpt lat="43.0860534" lon="11.8939204"><ele>248.0</ele><time>2026-05-01T07:55:49.908Z</time></trkpt><trkpt lat="43.0857987" lon="11.8939816"><ele>248.5</ele><time>2026-05-01T07:55:50.909Z</time></trkpt><trkpt lat="43.0855452" lon="11.8940454"><ele>249.0</ele><time>2026-05-01T07:55:51.909Z</time></trkpt><trkpt lat="43.085294" lon="11.8941122"><ele>249.0</ele><time>2026-05-01T07:55:52.908Z</time></trkpt><trkpt lat="43.0850411" lon="11.8941775"><ele>249.0</ele><time>2026-05-01T07:55:53.909Z</time></trkpt><trkpt lat="43.0847877" lon="11.8942398"><ele>248.0</ele><time>2026-05-01T07:55:54.909Z</time></trkpt><trkpt lat="43.0845428" lon="11.894302"><ele>247.0</ele><time>2026-05-01T07:55:55.909Z</time></trkpt><trkpt lat="43.0842928" lon="11.8943639"><ele>247.5</ele><time>2026-05-01T07:55:56.909Z</time></trkpt><trkpt lat="43.0840463" lon="11.8944262"><ele>248.0</ele><time>2026-05-01T07:55:57.909Z</time></trkpt><trkpt lat="43.083797" lon="11.8944892"><ele>248.0</ele><time>2026-05-01T07:55:58.909Z</time></trkpt><trkpt lat="43.0835542" lon="11.8945526"><ele>248.0</ele><time>2026-05-01T07:55:59.908Z</time></trkpt><trkpt lat="43.0833067" lon="11.8946056"><ele>247.5</ele><time>2026-05-01T07:56:00.909Z</time></trkpt><trkpt lat="43.0830686" lon="11.8946678"><ele>247.0</ele><time>2026-05-01T07:56:01.909Z</time></trkpt><trkpt lat="43.0828292" lon="11.8947253"><ele>247.0</ele><time>2026-05-01T07:56:02.909Z</time></trkpt><trkpt lat="43.0825874" lon="11.8947892"><ele>247.0</ele><time>2026-05-01T07:56:03.908Z</time></trkpt><trkpt lat="43.0823518" lon="11.8948562"><ele>247.5</ele><time>2026-05-01T07:56:04.908Z</time></trkpt><trkpt lat="43.0821154" lon="11.8949232"><ele>248.0</ele><time>2026-05-01T07:56:05.908Z</time></trkpt><trkpt lat="43.0818799" lon="11.8949868"><ele>248.0</ele><time>2026-05-01T07:56:06.909Z</time></trkpt><trkpt lat="43.0816407" lon="11.8950431"><ele>248.0</ele><time>2026-05-01T07:56:07.909Z</time></trkpt><trkpt lat="43.081403" lon="11.8951049"><ele>249.5</ele><time>2026-05-01T07:56:08.908Z</time></trkpt><trkpt lat="43.0811597" lon="11.8951664"><ele>251.0</ele><time>2026-05-01T07:56:09.909Z</time></trkpt><trkpt lat="43.080915" lon="11.89523"><ele>251.33333333333334</ele><time>2026-05-01T07:56:10.909Z</time></trkpt><trkpt lat="43.0806874" lon="11.8952847"><ele>251.66666666666669</ele><time>2026-05-01T07:56:11.909Z</time></trkpt><trkpt lat="43.0804775" lon="11.8953367"><ele>252.0</ele><time>2026-05-01T07:56:12.909Z</time></trkpt><trkpt lat="43.080278" lon="11.8953808"><ele>252.0</ele><time>2026-05-01T07:56:13.909Z</time></trkpt><trkpt lat="43.0800869" lon="11.8954248"><ele>252.0</ele><time>2026-05-01T07:56:14.908Z</time></trkpt><trkpt lat="43.0798966" lon="11.8954654"><ele>252.0</ele><time>2026-05-01T07:56:15.908Z</time></trkpt><trkpt lat="43.079712" lon="11.8955151"><ele>251.33333333333331</ele><time>2026-05-01T07:56:16.909Z</time></trkpt><trkpt lat="43.0795284" lon="11.8955635"><ele>250.66666666666666</ele><time>2026-05-01T07:56:17.909Z</time></trkpt><trkpt lat="43.0793428" lon="11.8956105"><ele>250.0</ele><time>2026-05-01T07:56:18.909Z</time></trkpt><trkpt lat="43.079163" lon="11.8956583"><ele>250.0</ele><time>2026-05-01T07:56:19.908Z</time></trkpt><trkpt lat="43.0789871" lon="11.8956999"><ele>250.0</ele><time>2026-05-01T07:56:20.909Z</time></trkpt><trkpt lat="43.0788051" lon="11.895741"><ele>250.0</ele><time>2026-05-01T07:56:21.909Z</time></trkpt><trkpt lat="43.0786259" lon="11.8957841"><ele>250.0</ele><time>2026-05-01T07:56:22.909Z</time></trkpt><trkpt lat="43.0784361" lon="11.8958283"><ele>250.0</ele><time>2026-05-01T07:56:23.909Z</time></trkpt><trkpt lat="43.0782483" lon="11.8958826"><ele>250.0</ele><time>2026-05-01T07:56:24.908Z</time></trkpt><trkpt lat="43.0780557" lon="11.8959293"><ele>250.0</ele><time>2026-05-01T07:56:25.909Z</time></trkpt><trkpt lat="43.0778602" lon="11.8959908"><ele>250.0</ele><time>2026-05-01T07:56:26.909Z</time></trkpt><trkpt lat="43.0776662" lon="11.8960365"><ele>250.0</ele><time>2026-05-01T07:56:27.909Z</time></trkpt><trkpt lat="43.0774647" lon="11.8960893"><ele>250.66666666666666</ele><time>2026-05-01T07:56:28.909Z</time></trkpt><trkpt lat="43.077257" lon="11.8961382"><ele>251.33333333333331</ele><time>2026-05-01T07:56:29.908Z</time></trkpt><trkpt lat="43.0770471" lon="11.8961939"><ele>252.0</ele><time>2026-05-01T07:56:30.908Z</time></trkpt><trkpt lat="43.0768451" lon="11.8962408"><ele>252.0</ele><time>2026-05-01T07:56:31.909Z</time></trkpt><trkpt lat="43.0766409" lon="11.8962949"><ele>252.0</ele><time>2026-05-01T07:56:32.909Z</time></trkpt><trkpt lat="43.0764533" lon="11.8963519"><ele>252.0</ele><time>2026-05-01T07:56:33.908Z</time></trkpt><trkpt lat="43.0762718" lon="11.8963998"><ele>252.0</ele><time>2026-05-01T07:56:34.909Z</time></trkpt><trkpt lat="43.0760927" lon="11.8964603"><ele>252.0</ele><time>2026-05-01T07:56:35.909Z</time></trkpt><trkpt lat="43.0759168" lon="11.8965568"><ele>252.0</ele><time>2026-05-01T07:56:36.909Z</time></trkpt><trkpt lat="43.0757414" lon="11.8966874"><ele>251.66666666666669</ele><time>2026-05-01T07:56:37.909Z</time></trkpt><trkpt lat="43.0755643" lon="11.8968288"><ele>251.33333333333334</ele><time>2026-05-01T07:56:38.909Z</time></trkpt><trkpt lat="43.0753875" lon="11.8969726"><ele>251.0</ele><time>2026-05-01T07:56:39.909Z</time></trkpt><trkpt lat="43.0752109" lon="11.8971234"><ele>251.0</ele><time>2026-05-01T07:56:40.909Z</time></trkpt><trkpt lat="43.0750404" lon="11.8972669"><ele>251.0</ele><time>2026-05-01T07:56:41.909Z</time></trkpt><trkpt lat="43.0748748" lon="11.8974025"><ele>251.0</ele><time>2026-05-01T07:56:42.909Z</time></trkpt><trkpt lat="43.0747168" lon="11.8975373"><ele>250.66666666666669</ele><time>2026-05-01T07:56:43.909Z</time></trkpt><trkpt lat="43.0745609" lon="11.897667"><ele>250.33333333333331</ele><time>2026-05-01T07:56:44.909Z</time></trkpt><trkpt lat="43.0744067" lon="11.8977955"><ele>250.0</ele><time>2026-05-01T07:56:45.909Z</time></trkpt><trkpt lat="43.0742505" lon="11.8979221"><ele>250.0</ele><time>2026-05-01T07:56:46.909Z</time></trkpt><trkpt lat="43.0740961" lon="11.8980527"><ele>250.0</ele><time>2026-05-01T07:56:47.909Z</time></trkpt><trkpt lat="43.073941" lon="11.8981871"><ele>250.0</ele><time>2026-05-01T07:56:48.909Z</time></trkpt><trkpt lat="43.073781" lon="11.89832"><ele>249.66666666666666</ele><time>2026-05-01T07:56:49.909Z</time></trkpt><trkpt lat="43.0736184" lon="11.8984547"><ele>249.33333333333331</ele><time>2026-05-01T07:56:50.909Z</time></trkpt><trkpt lat="43.0734566" lon="11.8985851"><ele>249.0</ele><time>2026-05-01T07:56:51.909Z</time></trkpt><trkpt lat="43.0732972" lon="11.8987182"><ele>249.33333333333331</ele><time>2026-05-01T07:56:52.909Z</time></trkpt><trkpt lat="43.0731336" lon="11.898852"><ele>249.66666666666666</ele><time>2026-05-01T07:56:53.909Z</time></trkpt><trkpt lat="43.0729715" lon="11.8989868"><ele>250.0</ele><time>2026-05-01T07:56:54.909Z</time></trkpt><trkpt lat="43.0728212" lon="11.8991113"><ele>250.0</ele><time>2026-05-01T07:56:55.908Z</time></trkpt><trkpt lat="43.0726667" lon="11.8992374"><ele>250.0</ele><time>2026-05-01T07:56:56.909Z</time></trkpt><trkpt lat="43.0725146" lon="11.8993727"><ele>250.0</ele><time>2026-05-01T07:56:57.909Z</time></trkpt><trkpt lat="43.0723623" lon="11.8995046"><ele>249.66666666666666</ele><time>2026-05-01T07:56:58.909Z</time></trkpt><trkpt lat="43.0722049" lon="11.8996355"><ele>249.33333333333331</ele><time>2026-05-01T07:56:59.908Z</time></trkpt><trkpt lat="43.0720465" lon="11.8997608"><ele>249.0</ele><time>2026-05-01T07:57:00.908Z</time></trkpt><trkpt lat="43.0718929" lon="11.8998891"><ele>249.0</ele><time>2026-05-01T07:57:01.909Z</time></trkpt><trkpt lat="43.0717425" lon="11.9000165"><ele>249.0</ele><time>2026-05-01T07:57:02.908Z</time></trkpt><trkpt lat="43.0715849" lon="11.9001479"><ele>249.0</ele><time>2026-05-01T07:57:03.909Z</time></trkpt><trkpt lat="43.0714224" lon="11.9003001"><ele>249.0</ele><time>2026-05-01T07:57:04.91Z</time></trkpt><trkpt lat="43.0712484" lon="11.9004561"><ele>249.0</ele><time>2026-05-01T07:57:05.91Z</time></trkpt><trkpt lat="43.0710711" lon="11.9006173"><ele>249.0</ele><time>2026-05-01T07:57:06.91Z</time></trkpt><trkpt lat="43.0708882" lon="11.9007747"><ele>248.66666666666669</ele><time>2026-05-01T07:57:07.91Z</time></trkpt><trkpt lat="43.0707003" lon="11.9009217"><ele>248.33333333333334</ele><time>2026-05-01T07:57:08.91Z</time></trkpt><trkpt lat="43.0705069" lon="11.9010715"><ele>248.0</ele><time>2026-05-01T07:57:09.91Z</time></trkpt><trkpt lat="43.0703085" lon="11.9012145"><ele>248.0</ele><time>2026-05-01T07:57:10.91Z</time></trkpt><trkpt lat="43.0701181" lon="11.9013687"><ele>248.0</ele><time>2026-05-01T07:57:11.909Z</time></trkpt><trkpt lat="43.069928" lon="11.9015187"><ele>248.0</ele><time>2026-05-01T07:57:12.91Z</time></trkpt><trkpt lat="43.0697439" lon="11.9016701"><ele>248.66666666666669</ele><time>2026-05-01T07:57:13.91Z</time></trkpt><trkpt lat="43.0695771" lon="11.9018152"><ele>249.33333333333331</ele><time>2026-05-01T07:57:14.91Z</time></trkpt><trkpt lat="43.0694206" lon="11.9019497"><ele>250.0</ele><time>2026-05-01T07:57:15.91Z</time></trkpt><trkpt lat="43.0692657" lon="11.9020758"><ele>250.0</ele><time>2026-05-01T07:57:16.91Z</time></trkpt><trkpt lat="43.0691092" lon="11.9022218"><ele>250.0</ele><time>2026-05-01T07:57:17.91Z</time></trkpt><trkpt lat="43.0689461" lon="11.9023678"><ele>250.0</ele><time>2026-05-01T07:57:18.909Z</time></trkpt><trkpt lat="43.0687696" lon="11.9025172"><ele>250.33333333333331</ele><time>2026-05-01T07:57:19.909Z</time></trkpt><trkpt lat="43.0685827" lon="11.9026644"><ele>250.66666666666669</ele><time>2026-05-01T07:57:20.91Z</time></trkpt><trkpt lat="43.0683912" lon="11.9028151"><ele>251.0</ele><time>2026-05-01T07:57:21.91Z</time></trkpt><trkpt lat="43.0682029" lon="11.9029749"><ele>251.0</ele><time>2026-05-01T07:57:22.91Z</time></trkpt><trkpt lat="43.0680178" lon="11.9031444"><ele>251.0</ele><time>2026-05-01T07:57:23.909Z</time></trkpt><trkpt lat="43.0678366" lon="11.9033287"><ele>251.0</ele><time>2026-05-01T07:57:24.91Z</time></trkpt><trkpt lat="43.0676688" lon="11.9035231"><ele>250.66666666666669</ele><time>2026-05-01T07:57:25.909Z</time></trkpt><trkpt lat="43.0675114" lon="11.9037268"><ele>250.33333333333331</ele><time>2026-05-01T07:57:26.909Z</time></trkpt><trkpt lat="43.0673602" lon="11.9039293"><ele>250.0</ele><time>2026-05-01T07:57:27.91Z</time></trkpt><trkpt lat="43.0672164" lon="11.9041251"><ele>250.33333333333331</ele><time>2026-05-01T07:57:28.91Z</time></trkpt><trkpt lat="43.0670844" lon="11.9043156"><ele>250.66666666666669</ele><time>2026-05-01T07:57:29.91Z</time></trkpt><trkpt lat="43.0669584" lon="11.9045107"><ele>251.0</ele><time>2026-05-01T07:57:30.909Z</time></trkpt><trkpt lat="43.0668382" lon="11.9047152"><ele>251.0</ele><time>2026-05-01T07:57:31.91Z</time></trkpt><trkpt lat="43.0667215" lon="11.904929"><ele>251.0</ele><time>2026-05-01T07:57:32.909Z</time></trkpt><trkpt lat="43.0666026" lon="11.9051529"><ele>251.0</ele><time>2026-05-01T07:57:33.91Z</time></trkpt><trkpt lat="43.066483" lon="11.905381"><ele>251.0</ele><time>2026-05-01T07:57:34.91Z</time></trkpt><trkpt lat="43.066358" lon="11.9056082"><ele>251.0</ele><time>2026-05-01T07:57:35.91Z</time></trkpt><trkpt lat="43.0662361" lon="11.9058335"><ele>251.0</ele><time>2026-05-01T07:57:36.909Z</time></trkpt><trkpt lat="43.0661113" lon="11.9060584"><ele>251.0</ele><time>2026-05-01T07:57:37.91Z</time></trkpt><trkpt lat="43.0659854" lon="11.9062822"><ele>251.0</ele><time>2026-05-01T07:57:38.91Z</time></trkpt><trkpt lat="43.0658605" lon="11.9065049"><ele>251.0</ele><time>2026-05-01T07:57:39.91Z</time></trkpt><trkpt lat="43.0657331" lon="11.906722"><ele>251.66666666666669</ele><time>2026-05-01T07:57:40.909Z</time></trkpt><trkpt lat="43.0656049" lon="11.9069385"><ele>252.33333333333331</ele><time>2026-05-01T07:57:41.91Z</time></trkpt><trkpt lat="43.0654772" lon="11.9071607"><ele>253.0</ele><time>2026-05-01T07:57:42.909Z</time></trkpt><trkpt lat="43.0653525" lon="11.9073862"><ele>252.66666666666666</ele><time>2026-05-01T07:57:43.91Z</time></trkpt><trkpt lat="43.0652245" lon="11.9076129"><ele>252.33333333333331</ele><time>2026-05-01T07:57:44.91Z</time></trkpt><trkpt lat="43.0650971" lon="11.907838"><ele>252.0</ele><time>2026-05-01T07:57:45.91Z</time></trkpt><trkpt lat="43.0649752" lon="11.9080564"><ele>252.33333333333331</ele><time>2026-05-01T07:57:46.909Z</time></trkpt><trkpt lat="43.064854" lon="11.9082758"><ele>252.66666666666666</ele><time>2026-05-01T07:57:47.91Z</time></trkpt><trkpt lat="43.0647257" lon="11.9084963"><ele>253.0</ele><time>2026-05-01T07:57:48.909Z</time></trkpt><trkpt lat="43.064599" lon="11.9087128"><ele>253.0</ele><time>2026-05-01T07:57:49.909Z</time></trkpt><trkpt lat="43.0644698" lon="11.908925"><ele>253.0</ele><time>2026-05-01T07:57:50.91Z</time></trkpt><trkpt lat="43.0643309" lon="11.9091246"><ele>253.0</ele><time>2026-05-01T07:57:51.91Z</time></trkpt><trkpt lat="43.0641817" lon="11.9092925"><ele>254.0</ele><time>2026-05-01T07:57:52.91Z</time></trkpt><trkpt lat="43.0640302" lon="11.9094365"><ele>255.0</ele><time>2026-05-01T07:57:53.909Z</time></trkpt><trkpt lat="43.0638859" lon="11.9095764"><ele>256.0</ele><time>2026-05-01T07:57:54.91Z</time></trkpt><trkpt lat="43.0637311" lon="11.9097052"><ele>256.0</ele><time>2026-05-01T07:57:55.909Z</time></trkpt><trkpt lat="43.0635896" lon="11.9098332"><ele>256.0</ele><time>2026-05-01T07:57:56.91Z</time></trkpt><trkpt lat="43.0634672" lon="11.9099664"><ele>256.0</ele><time>2026-05-01T07:57:57.91Z</time></trkpt><trkpt lat="43.063343" lon="11.910078"><ele>255.0</ele><time>2026-05-01T07:57:58.909Z</time></trkpt><trkpt lat="43.0632343" lon="11.9101952"><ele>254.0</ele><time>2026-05-01T07:57:59.91Z</time></trkpt><trkpt lat="43.0631283" lon="11.9103083"><ele>253.0</ele><time>2026-05-01T07:58:00.909Z</time></trkpt><trkpt lat="43.0630309" lon="11.9104108"><ele>252.0</ele><time>2026-05-01T07:58:01.909Z</time></trkpt><trkpt lat="43.0629287" lon="11.9105138"><ele>252.0</ele><time>2026-05-01T07:58:02.909Z</time></trkpt><trkpt lat="43.0628232" lon="11.9106148"><ele>252.0</ele><time>2026-05-01T07:58:03.91Z</time></trkpt><trkpt lat="43.0627154" lon="11.9107148"><ele>252.0</ele><time>2026-05-01T07:58:04.909Z</time></trkpt><trkpt lat="43.0626185" lon="11.9108235"><ele>252.0</ele><time>2026-05-01T07:58:05.91Z</time></trkpt><trkpt lat="43.0625277" lon="11.910912"><ele>252.0</ele><time>2026-05-01T07:58:06.91Z</time></trkpt><trkpt lat="43.0624525" lon="11.911001"><ele>252.0</ele><time>2026-05-01T07:58:07.91Z</time></trkpt><trkpt lat="43.0623743" lon="11.9110717"><ele>252.0</ele><time>2026-05-01T07:58:08.909Z</time></trkpt><trkpt lat="43.0623081" lon="11.9111368"><ele>252.0</ele><time>2026-05-01T07:58:09.909Z</time></trkpt><trkpt lat="43.0622465" lon="11.9112049"><ele>252.0</ele><time>2026-05-01T07:58:10.91Z</time></trkpt><trkpt lat="43.0621738" lon="11.9112751"><ele>252.0</ele><time>2026-05-01T07:58:11.91Z</time></trkpt><trkpt lat="43.0620972" lon="11.9113504"><ele>252.0</ele><time>2026-05-01T07:58:12.909Z</time></trkpt><trkpt lat="43.0620117" lon="11.9114419"><ele>252.0</ele><time>2026-05-01T07:58:13.909Z</time></trkpt><trkpt lat="43.0619195" lon="11.9115374"><ele>252.0</ele><time>2026-05-01T07:58:14.909Z</time></trkpt><trkpt lat="43.0618354" lon="11.911617"><ele>252.0</ele><time>2026-05-01T07:58:15.91Z</time></trkpt><trkpt lat="43.061765" lon="11.9116884"><ele>252.0</ele><time>2026-05-01T07:58:16.91Z</time></trkpt><trkpt lat="43.0616928" lon="11.9117611"><ele>252.0</ele><time>2026-05-01T07:58:17.909Z</time></trkpt><trkpt lat="43.0616166" lon="11.9118378"><ele>252.0</ele><time>2026-05-01T07:58:18.909Z</time></trkpt><trkpt lat="43.0615301" lon="11.911918"><ele>252.0</ele><time>2026-05-01T07:58:19.91Z</time></trkpt><trkpt lat="43.0614343" lon="11.9120241"><ele>252.0</ele><time>2026-05-01T07:58:20.91Z</time></trkpt><trkpt lat="43.0613238" lon="11.9121428"><ele>252.25</ele><time>2026-05-01T07:58:21.91Z</time></trkpt><trkpt lat="43.0612092" lon="11.9122516"><ele>252.5</ele><time>2026-05-01T07:58:22.909Z</time></trkpt><trkpt lat="43.0610877" lon="11.912356"><ele>252.75</ele><time>2026-05-01T07:58:23.91Z</time></trkpt><trkpt lat="43.0609783" lon="11.9124711"><ele>253.0</ele><time>2026-05-01T07:58:24.91Z</time></trkpt><trkpt lat="43.0608784" lon="11.9125746"><ele>253.25</ele><time>2026-05-01T07:58:25.91Z</time></trkpt><trkpt lat="43.0607732" lon="11.9126741"><ele>253.5</ele><time>2026-05-01T07:58:26.91Z</time></trkpt><trkpt lat="43.0606706" lon="11.9127817"><ele>253.75</ele><time>2026-05-01T07:58:27.91Z</time></trkpt><trkpt lat="43.0605667" lon="11.9128883"><ele>254.0</ele><time>2026-05-01T07:58:28.909Z</time></trkpt><trkpt lat="43.0604582" lon="11.9130013"><ele>254.0</ele><time>2026-05-01T07:58:29.909Z</time></trkpt><trkpt lat="43.0603346" lon="11.9131378"><ele>254.0</ele><time>2026-05-01T07:58:30.91Z</time></trkpt><trkpt lat="43.0602005" lon="11.9132878"><ele>254.0</ele><time>2026-05-01T07:58:31.91Z</time></trkpt><trkpt lat="43.0600561" lon="11.9134263"><ele>256.0</ele><time>2026-05-01T07:58:32.91Z</time></trkpt><trkpt lat="43.0599057" lon="11.9135541"><ele>258.0</ele><time>2026-05-01T07:58:33.909Z</time></trkpt><trkpt lat="43.0597537" lon="11.9136897"><ele>260.0</ele><time>2026-05-01T07:58:34.909Z</time></trkpt><trkpt lat="43.0596042" lon="11.9138282"><ele>260.0</ele><time>2026-05-01T07:58:35.909Z</time></trkpt><trkpt lat="43.0594602" lon="11.9139632"><ele>260.0</ele><time>2026-05-01T07:58:36.91Z</time></trkpt><trkpt lat="43.059313" lon="11.9141028"><ele>260.0</ele><time>2026-05-01T07:58:37.91Z</time></trkpt><trkpt lat="43.0591655" lon="11.914234"><ele>260.75</ele><time>2026-05-01T07:58:38.91Z</time></trkpt><trkpt lat="43.0590355" lon="11.9143507"><ele>261.5</ele><time>2026-05-01T07:58:39.91Z</time></trkpt><trkpt lat="43.0589211" lon="11.9144561"><ele>262.25</ele><time>2026-05-01T07:58:40.91Z</time></trkpt><trkpt lat="43.0588165" lon="11.9145521"><ele>263.0</ele><time>2026-05-01T07:58:41.91Z</time></trkpt><trkpt lat="43.0587223" lon="11.9146352"><ele>263.0</ele><time>2026-05-01T07:58:42.909Z</time></trkpt><trkpt lat="43.0586357" lon="11.9147066"><ele>263.0</ele><time>2026-05-01T07:58:43.909Z</time></trkpt><trkpt lat="43.0585273" lon="11.9147843"><ele>263.0</ele><time>2026-05-01T07:58:44.91Z</time></trkpt><trkpt lat="43.0584167" lon="11.9148407"><ele>263.0</ele><time>2026-05-01T07:58:45.91Z</time></trkpt><trkpt lat="43.0583179" lon="11.9148957"><ele>263.0</ele><time>2026-05-01T07:58:46.91Z</time></trkpt><trkpt lat="43.058211" lon="11.9149484"><ele>261.6</ele><time>2026-05-01T07:58:47.909Z</time></trkpt><trkpt lat="43.0581041" lon="11.9150122"><ele>260.20000000000005</ele><time>2026-05-01T07:58:48.91Z</time></trkpt><trkpt lat="43.0580076" lon="11.9150619"><ele>258.8</ele><time>2026-05-01T07:58:49.91Z</time></trkpt><trkpt lat="43.0579028" lon="11.9151121"><ele>257.40000000000003</ele><time>2026-05-01T07:58:50.91Z</time></trkpt><trkpt lat="43.0578009" lon="11.9151686"><ele>256.0</ele><time>2026-05-01T07:58:51.91Z</time></trkpt><trkpt lat="43.057719" lon="11.9152271"><ele>255.49999999999997</ele><time>2026-05-01T07:58:52.909Z</time></trkpt><trkpt lat="43.0576345" lon="11.9152701"><ele>255.0</ele><time>2026-05-01T07:58:53.91Z</time></trkpt><trkpt lat="43.0575581" lon="11.9153069"><ele>254.5</ele><time>2026-05-01T07:58:54.91Z</time></trkpt><trkpt lat="43.0574905" lon="11.9153458"><ele>254.0</ele><time>2026-05-01T07:58:55.91Z</time></trkpt><trkpt lat="43.057381" lon="11.9153926"><ele>253.49999999999997</ele><time>2026-05-01T07:58:57.909Z</time></trkpt><trkpt lat="43.0573097" lon="11.9154409"><ele>253.0</ele><time>2026-05-01T07:58:59.909Z</time></trkpt><trkpt lat="43.0572219" lon="11.9155258"><ele>252.83333333333331</ele><time>2026-05-01T07:59:15.91Z</time></trkpt><trkpt lat="43.0571647" lon="11.9155673"><ele>252.66666666666666</ele><time>2026-05-01T07:59:16.909Z</time></trkpt><trkpt lat="43.0570945" lon="11.9156196"><ele>252.5</ele><time>2026-05-01T07:59:17.91Z</time></trkpt><trkpt lat="43.0570248" lon="11.9156829"><ele>252.33333333333331</ele><time>2026-05-01T07:59:18.91Z</time></trkpt><trkpt lat="43.0569513" lon="11.9157611"><ele>252.16666666666666</ele><time>2026-05-01T07:59:19.91Z</time></trkpt><trkpt lat="43.0568646" lon="11.9158507"><ele>252.0</ele><time>2026-05-01T07:59:20.91Z</time></trkpt><trkpt lat="43.0567756" lon="11.9159751"><ele>252.0</ele><time>2026-05-01T07:59:21.91Z</time></trkpt><trkpt lat="43.0566814" lon="11.9161029"><ele>252.0</ele><time>2026-05-01T07:59:22.91Z</time></trkpt><trkpt lat="43.0565804" lon="11.916229"><ele>252.0</ele><time>2026-05-01T07:59:23.91Z</time></trkpt><trkpt lat="43.0564846" lon="11.9163645"><ele>252.0</ele><time>2026-05-01T07:59:24.91Z</time></trkpt><trkpt lat="43.0563825" lon="11.9165045"><ele>252.25</ele><time>2026-05-01T07:59:25.909Z</time></trkpt><trkpt lat="43.0562812" lon="11.9166389"><ele>252.5</ele><time>2026-05-01T07:59:26.91Z</time></trkpt><trkpt lat="43.0561813" lon="11.9167759"><ele>252.75</ele><time>2026-05-01T07:59:27.91Z</time></trkpt><trkpt lat="43.0560836" lon="11.9169089"><ele>253.0</ele><time>2026-05-01T07:59:28.909Z</time></trkpt><trkpt lat="43.0559897" lon="11.9170418"><ele>253.25</ele><time>2026-05-01T07:59:29.91Z</time></trkpt><trkpt lat="43.0559033" lon="11.9171626"><ele>253.5</ele><time>2026-05-01T07:59:30.91Z</time></trkpt><trkpt lat="43.055819" lon="11.9172805"><ele>253.75</ele><time>2026-05-01T07:59:31.91Z</time></trkpt><trkpt lat="43.0557423" lon="11.917398"><ele>254.0</ele><time>2026-05-01T07:59:32.91Z</time></trkpt><trkpt lat="43.0556744" lon="11.9175219"><ele>253.75</ele><time>2026-05-01T07:59:33.909Z</time></trkpt><trkpt lat="43.0556016" lon="11.9176463"><ele>253.5</ele><time>2026-05-01T07:59:34.91Z</time></trkpt><trkpt lat="43.0555287" lon="11.9177734"><ele>253.25</ele><time>2026-05-01T07:59:35.91Z</time></trkpt><trkpt lat="43.0554522" lon="11.9179094"><ele>253.0</ele><time>2026-05-01T07:59:36.91Z</time></trkpt><trkpt lat="43.0553684" lon="11.9180421"><ele>253.0</ele><time>2026-05-01T07:59:37.91Z</time></trkpt><trkpt lat="43.0552788" lon="11.918181"><ele>253.0</ele><time>2026-05-01T07:59:38.909Z</time></trkpt><trkpt lat="43.0551786" lon="11.9183252"><ele>253.0</ele><time>2026-05-01T07:59:39.91Z</time></trkpt><trkpt lat="43.0550662" lon="11.9184708"><ele>253.0</ele><time>2026-05-01T07:59:40.91Z</time></trkpt><trkpt lat="43.0549419" lon="11.9186097"><ele>252.66666666666666</ele><time>2026-05-01T07:59:41.91Z</time></trkpt><trkpt lat="43.0548106" lon="11.9187382"><ele>252.33333333333331</ele><time>2026-05-01T07:59:42.909Z</time></trkpt><trkpt lat="43.0546874" lon="11.9188504"><ele>252.0</ele><time>2026-05-01T07:59:43.909Z</time></trkpt><trkpt lat="43.0545617" lon="11.9189615"><ele>252.0</ele><time>2026-05-01T07:59:44.91Z</time></trkpt><trkpt lat="43.0544409" lon="11.9190684"><ele>252.0</ele><time>2026-05-01T07:59:45.91Z</time></trkpt><trkpt lat="43.0543115" lon="11.9191843"><ele>252.0</ele><time>2026-05-01T07:59:46.91Z</time></trkpt><trkpt lat="43.0541863" lon="11.9192967"><ele>252.0</ele><time>2026-05-01T07:59:47.91Z</time></trkpt><trkpt lat="43.0540511" lon="11.9194138"><ele>252.33333333333331</ele><time>2026-05-01T07:59:48.909Z</time></trkpt><trkpt lat="43.0539155" lon="11.9195332"><ele>252.66666666666666</ele><time>2026-05-01T07:59:49.91Z</time></trkpt><trkpt lat="43.0537814" lon="11.9196448"><ele>253.0</ele><time>2026-05-01T07:59:50.909Z</time></trkpt><trkpt lat="43.0536511" lon="11.9197536"><ele>253.0</ele><time>2026-05-01T07:59:51.91Z</time></trkpt><trkpt lat="43.0535238" lon="11.9198617"><ele>253.0</ele><time>2026-05-01T07:59:52.909Z</time></trkpt><trkpt lat="43.0533951" lon="11.9199726"><ele>253.0</ele><time>2026-05-01T07:59:53.91Z</time></trkpt><trkpt lat="43.0532652" lon="11.9200804"><ele>253.0</ele><time>2026-05-01T07:59:54.91Z</time></trkpt><trkpt lat="43.0531312" lon="11.9202"><ele>253.0</ele><time>2026-05-01T07:59:55.91Z</time></trkpt><trkpt lat="43.0529954" lon="11.920317"><ele>253.0</ele><time>2026-05-01T07:59:56.91Z</time></trkpt><trkpt lat="43.0528559" lon="11.9204363"><ele>253.0</ele><time>2026-05-01T07:59:57.91Z</time></trkpt><trkpt lat="43.0527106" lon="11.9205526"><ele>253.0</ele><time>2026-05-01T07:59:58.909Z</time></trkpt><trkpt lat="43.0525637" lon="11.9206802"><ele>253.0</ele><time>2026-05-01T07:59:59.91Z</time></trkpt><trkpt lat="43.0524095" lon="11.9208064"><ele>253.0</ele><time>2026-05-01T08:00:00.91Z</time></trkpt><trkpt lat="43.0522557" lon="11.9209366"><ele>253.0</ele><time>2026-05-01T08:00:01.91Z</time></trkpt><trkpt lat="43.0520983" lon="11.9210685"><ele>253.0</ele><time>2026-05-01T08:00:02.91Z</time></trkpt><trkpt lat="43.0516184" lon="11.9214544"><ele>253.0</ele><time>2026-05-01T08:00:05.909Z</time></trkpt><trkpt lat="43.0513115" lon="11.9217131"><ele>253.0</ele><time>2026-05-01T08:00:06.909Z</time></trkpt><trkpt lat="43.0510916" lon="11.9219198"><ele>252.5</ele><time>2026-05-01T08:00:07.91Z</time></trkpt><trkpt lat="43.0508772" lon="11.9220882"><ele>252.0</ele><time>2026-05-01T08:00:08.909Z</time></trkpt><trkpt lat="43.0506667" lon="11.9222837"><ele>254.0</ele><time>2026-05-01T08:00:09.909Z</time></trkpt><trkpt lat="43.0504697" lon="11.9224643"><ele>256.0</ele><time>2026-05-01T08:00:10.91Z</time></trkpt><trkpt lat="43.0502701" lon="11.9226333"><ele>256.0</ele><time>2026-05-01T08:00:11.909Z</time></trkpt><trkpt lat="43.0500635" lon="11.9228082"><ele>256.0</ele><time>2026-05-01T08:00:12.91Z</time></trkpt><trkpt lat="43.0498585" lon="11.9229843"><ele>255.0</ele><time>2026-05-01T08:00:13.909Z</time></trkpt><trkpt lat="43.0496504" lon="11.9231708"><ele>254.0</ele><time>2026-05-01T08:00:14.909Z</time></trkpt><trkpt lat="43.0494367" lon="11.9233516"><ele>253.0</ele><time>2026-05-01T08:00:15.91Z</time></trkpt><trkpt lat="43.0492139" lon="11.9235288"><ele>252.0</ele><time>2026-05-01T08:00:16.91Z</time></trkpt><trkpt lat="43.0489937" lon="11.9237182"><ele>251.5</ele><time>2026-05-01T08:00:17.91Z</time></trkpt><trkpt lat="43.0487815" lon="11.9239071"><ele>251.0</ele><time>2026-05-01T08:00:18.909Z</time></trkpt><trkpt lat="43.0485786" lon="11.9240962"><ele>251.0</ele><time>2026-05-01T08:00:19.909Z</time></trkpt><trkpt lat="43.048399" lon="11.9242633"><ele>251.0</ele><time>2026-05-01T08:00:20.91Z</time></trkpt><trkpt lat="43.048231" lon="11.9244094"><ele>251.0</ele><time>2026-05-01T08:00:21.909Z</time></trkpt><trkpt lat="43.0480822" lon="11.9245406"><ele>251.75</ele><time>2026-05-01T08:00:22.91Z</time></trkpt><trkpt lat="43.0479502" lon="11.924648"><ele>252.5</ele><time>2026-05-01T08:00:23.91Z</time></trkpt><trkpt lat="43.0478294" lon="11.9247511"><ele>253.25</ele><time>2026-05-01T08:00:24.91Z</time></trkpt><trkpt lat="43.0477232" lon="11.9248338"><ele>254.0</ele><time>2026-05-01T08:00:25.91Z</time></trkpt><trkpt lat="43.04764" lon="11.9248903"><ele>254.0</ele><time>2026-05-01T08:00:26.91Z</time></trkpt><trkpt lat="43.0475786" lon="11.9249309"><ele>253.99999999999997</ele><time>2026-05-01T08:00:27.91Z</time></trkpt><trkpt lat="43.047513" lon="11.9249109"><ele>253.99999999999997</ele><time>2026-05-01T08:00:29.91Z</time></trkpt><trkpt lat="43.0474776" lon="11.9248243"><ele>254.0</ele><time>2026-05-01T08:00:30.91Z</time></trkpt><trkpt lat="43.0474366" lon="11.9246926"><ele>254.0</ele><time>2026-05-01T08:00:31.91Z</time></trkpt><trkpt lat="43.0473753" lon="11.9245077"><ele>252.66666666666669</ele><time>2026-05-01T08:00:32.909Z</time></trkpt><trkpt lat="43.0473125" lon="11.9243106"><ele>251.33333333333331</ele><time>2026-05-01T08:00:33.91Z</time></trkpt><trkpt lat="43.0472615" lon="11.9240695"><ele>250.0</ele><time>2026-05-01T08:00:34.909Z</time></trkpt><trkpt lat="43.0471728" lon="11.9238058"><ele>250.0</ele><time>2026-05-01T08:00:35.91Z</time></trkpt><trkpt lat="43.0470874" lon="11.92354"><ele>250.0</ele><time>2026-05-01T08:00:36.909Z</time></trkpt><trkpt lat="43.0470037" lon="11.9232412"><ele>250.0</ele><time>2026-05-01T08:00:37.909Z</time></trkpt><trkpt lat="43.0469231" lon="11.9229407"><ele>251.0</ele><time>2026-05-01T08:00:38.909Z</time></trkpt><trkpt lat="43.0468348" lon="11.9226357"><ele>252.0</ele><time>2026-05-01T08:00:39.91Z</time></trkpt><trkpt lat="43.0467399" lon="11.9223068"><ele>253.0</ele><time>2026-05-01T08:00:40.91Z</time></trkpt><trkpt lat="43.0466485" lon="11.9219754"><ele>254.0</ele><time>2026-05-01T08:00:41.909Z</time></trkpt><trkpt lat="43.0465527" lon="11.9216396"><ele>251.5</ele><time>2026-05-01T08:00:42.91Z</time></trkpt><trkpt lat="43.0464574" lon="11.9213064"><ele>249.0</ele><time>2026-05-01T08:00:43.909Z</time></trkpt><trkpt lat="43.0463612" lon="11.9209672"><ele>250.5</ele><time>2026-05-01T08:00:44.91Z</time></trkpt><trkpt lat="43.0462564" lon="11.9206186"><ele>252.0</ele><time>2026-05-01T08:00:45.91Z</time></trkpt><trkpt lat="43.0461496" lon="11.9202675"><ele>252.5</ele><time>2026-05-01T08:00:46.91Z</time></trkpt><trkpt lat="43.0460447" lon="11.9199088"><ele>253.0</ele><time>2026-05-01T08:00:47.91Z</time></trkpt><trkpt lat="43.0459278" lon="11.9195466"><ele>251.5</ele><time>2026-05-01T08:00:48.91Z</time></trkpt><trkpt lat="43.0458198" lon="11.9191868"><ele>250.0</ele><time>2026-05-01T08:00:49.91Z</time></trkpt><trkpt lat="43.0457142" lon="11.9188221"><ele>250.0</ele><time>2026-05-01T08:00:50.91Z</time></trkpt><trkpt lat="43.0456072" lon="11.9184696"><ele>250.0</ele><time>2026-05-01T08:00:51.909Z</time></trkpt><trkpt lat="43.0455056" lon="11.9181129"><ele>250.0</ele><time>2026-05-01T08:00:52.909Z</time></trkpt><trkpt lat="43.0454047" lon="11.9177716"><ele>250.0</ele><time>2026-05-01T08:00:53.91Z</time></trkpt><trkpt lat="43.045307" lon="11.917424"><ele>250.0</ele><time>2026-05-01T08:00:54.909Z</time></trkpt><trkpt lat="43.0452072" lon="11.9170856"><ele>250.0</ele><time>2026-05-01T08:00:55.91Z</time></trkpt><trkpt lat="43.0451181" lon="11.9167646"><ele>250.0</ele><time>2026-05-01T08:00:56.91Z</time></trkpt><trkpt lat="43.0450285" lon="11.916462"><ele>250.0</ele><time>2026-05-01T08:00:57.91Z</time></trkpt><trkpt lat="43.0449493" lon="11.9161764"><ele>250.33333333333331</ele><time>2026-05-01T08:00:58.909Z</time></trkpt><trkpt lat="43.0448756" lon="11.9159112"><ele>250.66666666666669</ele><time>2026-05-01T08:00:59.91Z</time></trkpt><trkpt lat="43.0448065" lon="11.9156606"><ele>251.0</ele><time>2026-05-01T08:01:00.909Z</time></trkpt><trkpt lat="43.0447164" lon="11.9154176"><ele>251.33333333333334</ele><time>2026-05-01T08:01:01.91Z</time></trkpt><trkpt lat="43.044592" lon="11.9152119"><ele>251.66666666666669</ele><time>2026-05-01T08:01:02.91Z</time></trkpt><trkpt lat="43.04445" lon="11.9150195"><ele>252.0</ele><time>2026-05-01T08:01:03.909Z</time></trkpt><trkpt lat="43.0442991" lon="11.9148238"><ele>253.0</ele><time>2026-05-01T08:01:04.91Z</time></trkpt><trkpt lat="43.0441489" lon="11.9146147"><ele>254.0</ele><time>2026-05-01T08:01:05.91Z</time></trkpt><trkpt lat="43.0440107" lon="11.9143974"><ele>255.0</ele><time>2026-05-01T08:01:06.909Z</time></trkpt><trkpt lat="43.0438855" lon="11.914187"><ele>260.6666666666667</ele><time>2026-05-01T08:01:07.91Z</time></trkpt><trkpt lat="43.0437529" lon="11.9139975"><ele>266.33333333333337</ele><time>2026-05-01T08:01:08.91Z</time></trkpt><trkpt lat="43.043601" lon="11.9138538"><ele>272.0</ele><time>2026-05-01T08:01:09.91Z</time></trkpt><trkpt lat="43.0434203" lon="11.9137546"><ele>273.33333333333337</ele><time>2026-05-01T08:01:10.91Z</time></trkpt><trkpt lat="43.0432329" lon="11.9136563"><ele>274.6666666666667</ele><time>2026-05-01T08:01:11.91Z</time></trkpt><trkpt lat="43.0430372" lon="11.9135555"><ele>276.0</ele><time>2026-05-01T08:01:12.909Z</time></trkpt><trkpt lat="43.0428321" lon="11.9134154"><ele>275.0</ele><time>2026-05-01T08:01:13.909Z</time></trkpt><trkpt lat="43.0426262" lon="11.9132738"><ele>274.0</ele><time>2026-05-01T08:01:14.91Z</time></trkpt><trkpt lat="43.0424071" lon="11.9131045"><ele>276.5</ele><time>2026-05-01T08:01:15.91Z</time></trkpt><trkpt lat="43.0421792" lon="11.9129299"><ele>279.0</ele><time>2026-05-01T08:01:16.909Z</time></trkpt><trkpt lat="43.041945" lon="11.9127406"><ele>282.0</ele><time>2026-05-01T08:01:17.91Z</time></trkpt><trkpt lat="43.0417178" lon="11.9125563"><ele>285.0</ele><time>2026-05-01T08:01:18.91Z</time></trkpt><trkpt lat="43.04149" lon="11.9123525"><ele>286.5</ele><time>2026-05-01T08:01:19.909Z</time></trkpt><trkpt lat="43.0412775" lon="11.9121622"><ele>288.0</ele><time>2026-05-01T08:01:20.909Z</time></trkpt><trkpt lat="43.0410852" lon="11.9119858"><ele>288.0</ele><time>2026-05-01T08:01:21.91Z</time></trkpt><trkpt lat="43.0408912" lon="11.9118188"><ele>288.0</ele><time>2026-05-01T08:01:22.909Z</time></trkpt><trkpt lat="43.0406947" lon="11.9116417"><ele>286.5</ele><time>2026-05-01T08:01:23.91Z</time></trkpt><trkpt lat="43.0404932" lon="11.9114638"><ele>285.0</ele><time>2026-05-01T08:01:24.91Z</time></trkpt><trkpt lat="43.0402912" lon="11.911278"><ele>285.0</ele><time>2026-05-01T08:01:25.91Z</time></trkpt><trkpt lat="43.0400801" lon="11.9110882"><ele>285.0</ele><time>2026-05-01T08:01:26.909Z</time></trkpt><trkpt lat="43.0398833" lon="11.9108893"><ele>288.0</ele><time>2026-05-01T08:01:27.91Z</time></trkpt><trkpt lat="43.0396807" lon="11.9106885"><ele>291.0</ele><time>2026-05-01T08:01:28.91Z</time></trkpt><trkpt lat="43.0394877" lon="11.9105136"><ele>291.0</ele><time>2026-05-01T08:01:29.91Z</time></trkpt><trkpt lat="43.0392966" lon="11.9103501"><ele>291.0</ele><time>2026-05-01T08:01:30.91Z</time></trkpt><trkpt lat="43.0391151" lon="11.9101924"><ele>291.0</ele><time>2026-05-01T08:01:31.91Z</time></trkpt><trkpt lat="43.0389362" lon="11.9100176"><ele>291.6666666666667</ele><time>2026-05-01T08:01:32.91Z</time></trkpt><trkpt lat="43.0387685" lon="11.90982"><ele>292.33333333333337</ele><time>2026-05-01T08:01:33.91Z</time></trkpt><trkpt lat="43.0386171" lon="11.9095933"><ele>293.0</ele><time>2026-05-01T08:01:34.909Z</time></trkpt><trkpt lat="43.038452" lon="11.9093759"><ele>289.5</ele><time>2026-05-01T08:01:35.909Z</time></trkpt><trkpt lat="43.0382755" lon="11.909166"><ele>286.0</ele><time>2026-05-01T08:01:36.91Z</time></trkpt><trkpt lat="43.0380854" lon="11.9089743"><ele>286.0</ele><time>2026-05-01T08:01:37.91Z</time></trkpt><trkpt lat="43.0378974" lon="11.9087852"><ele>286.0</ele><time>2026-05-01T08:01:38.909Z</time></trkpt><trkpt lat="43.0376994" lon="11.9086355"><ele>286.0</ele><time>2026-05-01T08:01:39.91Z</time></trkpt><trkpt lat="43.0374881" lon="11.9085271"><ele>286.0</ele><time>2026-05-01T08:01:40.91Z</time></trkpt><trkpt lat="43.0372608" lon="11.9084754"><ele>284.5</ele><time>2026-05-01T08:01:41.909Z</time></trkpt><trkpt lat="43.0370201" lon="11.9084569"><ele>283.0</ele><time>2026-05-01T08:01:42.91Z</time></trkpt><trkpt lat="43.0367814" lon="11.9084467"><ele>284.0</ele><time>2026-05-01T08:01:43.91Z</time></trkpt><trkpt lat="43.0365443" lon="11.9084323"><ele>285.0</ele><time>2026-05-01T08:01:44.909Z</time></trkpt><trkpt lat="43.0363109" lon="11.908423"><ele>289.0</ele><time>2026-05-01T08:01:45.91Z</time></trkpt><trkpt lat="43.0360806" lon="11.9084058"><ele>293.0</ele><time>2026-05-01T08:01:46.909Z</time></trkpt><trkpt lat="43.0358578" lon="11.9083904"><ele>291.33333333333337</ele><time>2026-05-01T08:01:47.91Z</time></trkpt><trkpt lat="43.0356466" lon="11.9083944"><ele>289.6666666666667</ele><time>2026-05-01T08:01:48.909Z</time></trkpt><trkpt lat="43.0354536" lon="11.9083799"><ele>288.0</ele><time>2026-05-01T08:01:49.91Z</time></trkpt><trkpt lat="43.0352814" lon="11.90833"><ele>288.0</ele><time>2026-05-01T08:01:50.909Z</time></trkpt><trkpt lat="43.0351048" lon="11.9082487"><ele>288.0</ele><time>2026-05-01T08:01:51.91Z</time></trkpt><trkpt lat="43.03494" lon="11.908129"><ele>288.0</ele><time>2026-05-01T08:01:52.91Z</time></trkpt><trkpt lat="43.0347748" lon="11.907976"><ele>285.0</ele><time>2026-05-01T08:01:53.91Z</time></trkpt><trkpt lat="43.0346116" lon="11.9078231"><ele>282.0</ele><time>2026-05-01T08:01:54.91Z</time></trkpt><trkpt lat="43.0344413" lon="11.9076592"><ele>279.0</ele><time>2026-05-01T08:01:55.91Z</time></trkpt><trkpt lat="43.0342759" lon="11.9074834"><ele>276.3333333333333</ele><time>2026-05-01T08:01:56.91Z</time></trkpt><trkpt lat="43.0341345" lon="11.9072842"><ele>273.66666666666663</ele><time>2026-05-01T08:01:57.909Z</time></trkpt><trkpt lat="43.0340203" lon="11.9070504"><ele>271.0</ele><time>2026-05-01T08:01:58.909Z</time></trkpt><trkpt lat="43.033926" lon="11.906813"><ele>271.3333333333333</ele><time>2026-05-01T08:01:59.909Z</time></trkpt><trkpt lat="43.0338303" lon="11.9065985"><ele>271.6666666666667</ele><time>2026-05-01T08:02:00.91Z</time></trkpt><trkpt lat="43.0337574" lon="11.9064117"><ele>272.0</ele><time>2026-05-01T08:02:01.909Z</time></trkpt><trkpt lat="43.0337121" lon="11.9062301"><ele>272.0</ele><time>2026-05-01T08:02:02.91Z</time></trkpt><trkpt lat="43.0336987" lon="11.906033"><ele>272.0</ele><time>2026-05-01T08:02:03.91Z</time></trkpt><trkpt lat="43.0337075" lon="11.9058145"><ele>272.0</ele><time>2026-05-01T08:02:04.91Z</time></trkpt><trkpt lat="43.0337501" lon="11.9055633"><ele>275.6666666666667</ele><time>2026-05-01T08:02:05.909Z</time></trkpt><trkpt lat="43.0338283" lon="11.905275"><ele>279.3333333333333</ele><time>2026-05-01T08:02:06.91Z</time></trkpt><trkpt lat="43.0339088" lon="11.9049902"><ele>283.0</ele><time>2026-05-01T08:02:07.91Z</time></trkpt><trkpt lat="43.033981" lon="11.9047081"><ele>283.0</ele><time>2026-05-01T08:02:08.91Z</time></trkpt><trkpt lat="43.034033" lon="11.904458"><ele>283.0</ele><time>2026-05-01T08:02:09.91Z</time></trkpt><trkpt lat="43.0340588" lon="11.9042432"><ele>283.0</ele><time>2026-05-01T08:02:10.909Z</time></trkpt><trkpt lat="43.034043" lon="11.9040316"><ele>283.0</ele><time>2026-05-01T08:02:11.91Z</time></trkpt><trkpt lat="43.0340039" lon="11.9038017"><ele>283.0</ele><time>2026-05-01T08:02:12.91Z</time></trkpt><trkpt lat="43.0339454" lon="11.9035554"><ele>283.0</ele><time>2026-05-01T08:02:13.909Z</time></trkpt><trkpt lat="43.0338789" lon="11.9032953"><ele>284.3333333333333</ele><time>2026-05-01T08:02:14.909Z</time></trkpt><trkpt lat="43.0338187" lon="11.903014"><ele>285.6666666666667</ele><time>2026-05-01T08:02:15.91Z</time></trkpt><trkpt lat="43.033741" lon="11.9027257"><ele>287.0</ele><time>2026-05-01T08:02:16.909Z</time></trkpt><trkpt lat="43.0336672" lon="11.9024434"><ele>289.33333333333337</ele><time>2026-05-01T08:02:17.91Z</time></trkpt><trkpt lat="43.0335821" lon="11.902161"><ele>291.6666666666667</ele><time>2026-05-01T08:02:18.91Z</time></trkpt><trkpt lat="43.0334915" lon="11.9018977"><ele>294.0</ele><time>2026-05-01T08:02:19.91Z</time></trkpt><trkpt lat="43.0334182" lon="11.9016618"><ele>295.75</ele><time>2026-05-01T08:02:20.91Z</time></trkpt><trkpt lat="43.033381" lon="11.9014634"><ele>297.5</ele><time>2026-05-01T08:02:21.91Z</time></trkpt><trkpt lat="43.0333686" lon="11.9012916"><ele>299.25</ele><time>2026-05-01T08:02:22.909Z</time></trkpt><trkpt lat="43.033389" lon="11.901087"><ele>301.0</ele><time>2026-05-01T08:02:23.91Z</time></trkpt><trkpt lat="43.0334273" lon="11.9008347"><ele>301.0</ele><time>2026-05-01T08:02:24.91Z</time></trkpt><trkpt lat="43.033459" lon="11.9005556"><ele>301.0</ele><time>2026-05-01T08:02:25.909Z</time></trkpt><trkpt lat="43.0334788" lon="11.9002846"><ele>301.0</ele><time>2026-05-01T08:02:26.91Z</time></trkpt><trkpt lat="43.0334928" lon="11.9"><ele>301.0</ele><time>2026-05-01T08:02:27.91Z</time></trkpt><trkpt lat="43.0334808" lon="11.8997391"><ele>301.0</ele><time>2026-05-01T08:02:28.909Z</time></trkpt><trkpt lat="43.033422" lon="11.8994831"><ele>301.0</ele><time>2026-05-01T08:02:29.909Z</time></trkpt><trkpt lat="43.0333186" lon="11.899275"><ele>301.3333333333333</ele><time>2026-05-01T08:02:30.909Z</time></trkpt><trkpt lat="43.033163" lon="11.8991393"><ele>301.6666666666667</ele><time>2026-05-01T08:02:31.91Z</time></trkpt><trkpt lat="43.0329894" lon="11.8990361"><ele>302.0</ele><time>2026-05-01T08:02:32.91Z</time></trkpt><trkpt lat="43.0327992" lon="11.898938"><ele>302.0</ele><time>2026-05-01T08:02:33.91Z</time></trkpt><trkpt lat="43.0325963" lon="11.898844"><ele>302.0</ele><time>2026-05-01T08:02:34.91Z</time></trkpt><trkpt lat="43.0323958" lon="11.8987294"><ele>302.0</ele><time>2026-05-01T08:02:35.91Z</time></trkpt><trkpt lat="43.0322049" lon="11.8986265"><ele>302.0</ele><time>2026-05-01T08:02:36.91Z</time></trkpt><trkpt lat="43.0320332" lon="11.8985432"><ele>302.0</ele><time>2026-05-01T08:02:37.91Z</time></trkpt><trkpt lat="43.0318704" lon="11.8984618"><ele>302.0</ele><time>2026-05-01T08:02:38.909Z</time></trkpt><trkpt lat="43.031734" lon="11.8983836"><ele>302.75</ele><time>2026-05-01T08:02:39.91Z</time></trkpt><trkpt lat="43.0316198" lon="11.8983073"><ele>303.5</ele><time>2026-05-01T08:02:40.91Z</time></trkpt><trkpt lat="43.031523" lon="11.8982171"><ele>304.25</ele><time>2026-05-01T08:02:41.91Z</time></trkpt><trkpt lat="43.0314149" lon="11.8981311"><ele>305.0</ele><time>2026-05-01T08:02:42.91Z</time></trkpt><trkpt lat="43.0313232" lon="11.8980454"><ele>305.0</ele><time>2026-05-01T08:02:43.909Z</time></trkpt><trkpt lat="43.0312444" lon="11.8979653"><ele>305.0</ele><time>2026-05-01T08:02:44.91Z</time></trkpt><trkpt lat="43.0311681" lon="11.897896"><ele>305.0</ele><time>2026-05-01T08:02:45.91Z</time></trkpt><trkpt lat="43.0311106" lon="11.8978355"><ele>305.0</ele><time>2026-05-01T08:02:46.909Z</time></trkpt><trkpt lat="43.0310472" lon="11.8977781"><ele>305.0</ele><time>2026-05-01T08:02:47.909Z</time></trkpt><trkpt lat="43.0309877" lon="11.8977157"><ele>305.0</ele><time>2026-05-01T08:02:48.909Z</time></trkpt><trkpt lat="43.0309166" lon="11.8976637"><ele>305.0</ele><time>2026-05-01T08:02:49.909Z</time></trkpt><trkpt lat="43.03082" lon="11.8976397"><ele>305.0</ele><time>2026-05-01T08:02:50.91Z</time></trkpt><trkpt lat="43.0306916" lon="11.8976208"><ele>305.0</ele><time>2026-05-01T08:02:51.909Z</time></trkpt><trkpt lat="43.0305349" lon="11.8976055"><ele>305.0</ele><time>2026-05-01T08:02:52.91Z</time></trkpt><trkpt lat="43.0303763" lon="11.8975872"><ele>304.25</ele><time>2026-05-01T08:02:53.91Z</time></trkpt><trkpt lat="43.0302288" lon="11.8975477"><ele>303.5</ele><time>2026-05-01T08:02:54.909Z</time></trkpt><trkpt lat="43.0300943" lon="11.8975263"><ele>302.75</ele><time>2026-05-01T08:02:55.91Z</time></trkpt><trkpt lat="43.0299704" lon="11.8975011"><ele>302.0</ele><time>2026-05-01T08:02:56.91Z</time></trkpt><trkpt lat="43.0298457" lon="11.8974691"><ele>300.25</ele><time>2026-05-01T08:02:57.91Z</time></trkpt><trkpt lat="43.0297195" lon="11.8974365"><ele>298.5</ele><time>2026-05-01T08:02:58.909Z</time></trkpt><trkpt lat="43.0295931" lon="11.8974014"><ele>296.75</ele><time>2026-05-01T08:02:59.909Z</time></trkpt><trkpt lat="43.0294626" lon="11.8973552"><ele>295.0</ele><time>2026-05-01T08:03:00.91Z</time></trkpt><trkpt lat="43.0293372" lon="11.8973017"><ele>295.0</ele><time>2026-05-01T08:03:01.91Z</time></trkpt><trkpt lat="43.0292235" lon="11.8972504"><ele>295.0</ele><time>2026-05-01T08:03:02.91Z</time></trkpt><trkpt lat="43.0291005" lon="11.8971836"><ele>295.0</ele><time>2026-05-01T08:03:03.909Z</time></trkpt><trkpt lat="43.0289878" lon="11.8971111"><ele>295.0</ele><time>2026-05-01T08:03:04.91Z</time></trkpt><trkpt lat="43.0288793" lon="11.8970368"><ele>294.5</ele><time>2026-05-01T08:03:05.91Z</time></trkpt><trkpt lat="43.0287766" lon="11.8969526"><ele>294.0</ele><time>2026-05-01T08:03:06.909Z</time></trkpt><trkpt lat="43.0286855" lon="11.8968632"><ele>293.5</ele><time>2026-05-01T08:03:07.91Z</time></trkpt><trkpt lat="43.0285933" lon="11.8967629"><ele>293.0</ele><time>2026-05-01T08:03:08.909Z</time></trkpt><trkpt lat="43.028505" lon="11.8966467"><ele>293.2</ele><time>2026-05-01T08:03:09.91Z</time></trkpt><trkpt lat="43.0284146" lon="11.896527"><ele>293.4</ele><time>2026-05-01T08:03:10.909Z</time></trkpt><trkpt lat="43.0283366" lon="11.8964182"><ele>293.59999999999997</ele><time>2026-05-01T08:03:11.91Z</time></trkpt><trkpt lat="43.0282725" lon="11.8963239"><ele>293.8</ele><time>2026-05-01T08:03:12.91Z</time></trkpt><trkpt lat="43.028216" lon="11.8962251"><ele>294.0</ele><time>2026-05-01T08:03:13.909Z</time></trkpt><trkpt lat="43.0281545" lon="11.8961354"><ele>294.0</ele><time>2026-05-01T08:03:14.909Z</time></trkpt><trkpt lat="43.0280954" lon="11.8960468"><ele>294.0</ele><time>2026-05-01T08:03:15.91Z</time></trkpt><trkpt lat="43.0280459" lon="11.8959679"><ele>294.0</ele><time>2026-05-01T08:03:16.91Z</time></trkpt><trkpt lat="43.0279908" lon="11.8958893"><ele>294.0</ele><time>2026-05-01T08:03:17.909Z</time></trkpt><trkpt lat="43.0279333" lon="11.8957965"><ele>294.0</ele><time>2026-05-01T08:03:18.909Z</time></trkpt><trkpt lat="43.0278787" lon="11.8956978"><ele>294.0</ele><time>2026-05-01T08:03:19.91Z</time></trkpt><trkpt lat="43.0278267" lon="11.8955832"><ele>297.4</ele><time>2026-05-01T08:03:20.91Z</time></trkpt><trkpt lat="43.027769" lon="11.8954665"><ele>300.79999999999995</ele><time>2026-05-01T08:03:21.91Z</time></trkpt><trkpt lat="43.0277163" lon="11.8953273"><ele>304.20000000000005</ele><time>2026-05-01T08:03:22.91Z</time></trkpt><trkpt lat="43.0276765" lon="11.895183"><ele>307.6</ele><time>2026-05-01T08:03:23.91Z</time></trkpt><trkpt lat="43.0276436" lon="11.8950554"><ele>311.0</ele><time>2026-05-01T08:03:24.91Z</time></trkpt><trkpt lat="43.0276144" lon="11.8949289"><ele>314.0</ele><time>2026-05-01T08:03:25.909Z</time></trkpt><trkpt lat="43.0275844" lon="11.8948155"><ele>317.0</ele><time>2026-05-01T08:03:26.91Z</time></trkpt><trkpt lat="43.0275455" lon="11.8946994"><ele>320.0</ele><time>2026-05-01T08:03:27.91Z</time></trkpt><trkpt lat="43.0274964" lon="11.8946"><ele>323.0</ele><time>2026-05-01T08:03:28.909Z</time></trkpt><trkpt lat="43.0274506" lon="11.8944758"><ele>326.0</ele><time>2026-05-01T08:03:29.91Z</time></trkpt><trkpt lat="43.0273762" lon="11.8943599"><ele>328.6</ele><time>2026-05-01T08:03:30.91Z</time></trkpt><trkpt lat="43.027306" lon="11.8942452"><ele>331.20000000000005</ele><time>2026-05-01T08:03:31.909Z</time></trkpt><trkpt lat="43.0272363" lon="11.8941504"><ele>333.79999999999995</ele><time>2026-05-01T08:03:32.909Z</time></trkpt><trkpt lat="43.0271667" lon="11.8940501"><ele>336.4</ele><time>2026-05-01T08:03:33.91Z</time></trkpt><trkpt lat="43.0270997" lon="11.8939638"><ele>339.0</ele><time>2026-05-01T08:03:34.909Z</time></trkpt><trkpt lat="43.0270323" lon="11.8938877"><ele>339.0</ele><time>2026-05-01T08:03:35.91Z</time></trkpt><trkpt lat="43.0269574" lon="11.8938095"><ele>339.0</ele><time>2026-05-01T08:03:36.91Z</time></trkpt><trkpt lat="43.0268616" lon="11.8937131"><ele>339.0</ele><time>2026-05-01T08:03:37.91Z</time></trkpt><trkpt lat="43.0267472" lon="11.8935889"><ele>339.0</ele><time>2026-05-01T08:03:38.91Z</time></trkpt><trkpt lat="43.0266175" lon="11.8934513"><ele>339.0</ele><time>2026-05-01T08:03:39.91Z</time></trkpt><trkpt lat="43.0264801" lon="11.8932813"><ele>339.0</ele><time>2026-05-01T08:03:40.91Z</time></trkpt><trkpt lat="43.0263265" lon="11.8931048"><ele>339.0</ele><time>2026-05-01T08:03:41.91Z</time></trkpt><trkpt lat="43.026172" lon="11.8929558"><ele>339.0</ele><time>2026-05-01T08:03:42.91Z</time></trkpt><trkpt lat="43.0260148" lon="11.8928236"><ele>339.0</ele><time>2026-05-01T08:03:43.91Z</time></trkpt><trkpt lat="43.0258626" lon="11.8927032"><ele>339.0</ele><time>2026-05-01T08:03:44.91Z</time></trkpt><trkpt lat="43.0257214" lon="11.8925906"><ele>340.6666666666667</ele><time>2026-05-01T08:03:45.91Z</time></trkpt><trkpt lat="43.025585" lon="11.8924891"><ele>342.33333333333337</ele><time>2026-05-01T08:03:46.91Z</time></trkpt><trkpt lat="43.0254422" lon="11.8924377"><ele>344.0</ele><time>2026-05-01T08:03:47.91Z</time></trkpt><trkpt lat="43.0252915" lon="11.8924015"><ele>344.0</ele><time>2026-05-01T08:03:48.91Z</time></trkpt><trkpt lat="43.0251256" lon="11.8923782"><ele>344.0</ele><time>2026-05-01T08:03:49.91Z</time></trkpt><trkpt lat="43.0249301" lon="11.8923653"><ele>344.0</ele><time>2026-05-01T08:03:50.91Z</time></trkpt><trkpt lat="43.0247328" lon="11.8923557"><ele>346.6666666666667</ele><time>2026-05-01T08:03:51.909Z</time></trkpt><trkpt lat="43.0245438" lon="11.8923196"><ele>349.3333333333333</ele><time>2026-05-01T08:03:52.909Z</time></trkpt><trkpt lat="43.0243634" lon="11.8922591"><ele>352.0</ele><time>2026-05-01T08:03:53.909Z</time></trkpt><trkpt lat="43.0242086" lon="11.8921835"><ele>353.25</ele><time>2026-05-01T08:03:54.91Z</time></trkpt><trkpt lat="43.0240769" lon="11.8921078"><ele>354.5</ele><time>2026-05-01T08:03:55.909Z</time></trkpt><trkpt lat="43.0239543" lon="11.8920411"><ele>355.75</ele><time>2026-05-01T08:03:56.91Z</time></trkpt><trkpt lat="43.0238402" lon="11.8919736"><ele>357.0</ele><time>2026-05-01T08:03:57.91Z</time></trkpt><trkpt lat="43.0237362" lon="11.8919178"><ele>357.0</ele><time>2026-05-01T08:03:58.909Z</time></trkpt><trkpt lat="43.0236539" lon="11.8918751"><ele>357.0</ele><time>2026-05-01T08:03:59.91Z</time></trkpt><trkpt lat="43.0235583" lon="11.8918174"><ele>357.0</ele><time>2026-05-01T08:04:01.91Z</time></trkpt><trkpt lat="43.0234894" lon="11.8918106"><ele>357.0</ele><time>2026-05-01T08:04:06.909Z</time></trkpt><trkpt lat="43.0233803" lon="11.8919519"><ele>357.0</ele><time>2026-05-01T08:04:08.91Z</time></trkpt><trkpt lat="43.023322" lon="11.8920797"><ele>354.25</ele><time>2026-05-01T08:04:09.91Z</time></trkpt><trkpt lat="43.0232497" lon="11.8922135"><ele>351.5</ele><time>2026-05-01T08:04:10.91Z</time></trkpt><trkpt lat="43.0231711" lon="11.8923752"><ele>348.75</ele><time>2026-05-01T08:04:11.91Z</time></trkpt><trkpt lat="43.0230827" lon="11.8925511"><ele>346.0</ele><time>2026-05-01T08:04:12.91Z</time></trkpt><trkpt lat="43.0229874" lon="11.8927455"><ele>345.0</ele><time>2026-05-01T08:04:13.909Z</time></trkpt><trkpt lat="43.0228819" lon="11.892946"><ele>344.0</ele><time>2026-05-01T08:04:14.909Z</time></trkpt><trkpt lat="43.0227756" lon="11.8931691"><ele>343.0</ele><time>2026-05-01T08:04:15.91Z</time></trkpt><trkpt lat="43.0226688" lon="11.8934042"><ele>343.0</ele><time>2026-05-01T08:04:16.909Z</time></trkpt><trkpt lat="43.0225606" lon="11.8936481"><ele>343.0</ele><time>2026-05-01T08:04:17.91Z</time></trkpt><trkpt lat="43.0224507" lon="11.893888"><ele>343.0</ele><time>2026-05-01T08:04:18.909Z</time></trkpt><trkpt lat="43.0223429" lon="11.8941334"><ele>342.0</ele><time>2026-05-01T08:04:19.91Z</time></trkpt><trkpt lat="43.0222343" lon="11.8943688"><ele>341.0</ele><time>2026-05-01T08:04:20.91Z</time></trkpt><trkpt lat="43.0221364" lon="11.8945924"><ele>340.0</ele><time>2026-05-01T08:04:21.91Z</time></trkpt><trkpt lat="43.0220318" lon="11.894802"><ele>340.0</ele><time>2026-05-01T08:04:22.909Z</time></trkpt><trkpt lat="43.0219283" lon="11.8949988"><ele>340.0</ele><time>2026-05-01T08:04:23.909Z</time></trkpt><trkpt lat="43.0218275" lon="11.8951773"><ele>340.0</ele><time>2026-05-01T08:04:24.91Z</time></trkpt><trkpt lat="43.0217344" lon="11.8953473"><ele>341.0</ele><time>2026-05-01T08:04:25.91Z</time></trkpt><trkpt lat="43.0216309" lon="11.8955163"><ele>342.0</ele><time>2026-05-01T08:04:26.91Z</time></trkpt><trkpt lat="43.0215133" lon="11.8956869"><ele>343.0</ele><time>2026-05-01T08:04:27.906Z</time></trkpt><trkpt lat="43.0213834" lon="11.8958877"><ele>343.3333333333333</ele><time>2026-05-01T08:04:28.91Z</time></trkpt><trkpt lat="43.0212538" lon="11.8961249"><ele>343.6666666666667</ele><time>2026-05-01T08:04:29.909Z</time></trkpt><trkpt lat="43.0211356" lon="11.8963819"><ele>344.0</ele><time>2026-05-01T08:04:30.909Z</time></trkpt><trkpt lat="43.0210264" lon="11.8966428"><ele>344.6666666666667</ele><time>2026-05-01T08:04:31.909Z</time></trkpt><trkpt lat="43.0209304" lon="11.8968972"><ele>345.3333333333333</ele><time>2026-05-01T08:04:32.91Z</time></trkpt><trkpt lat="43.0208507" lon="11.8971385"><ele>346.0</ele><time>2026-05-01T08:04:33.909Z</time></trkpt><trkpt lat="43.0207884" lon="11.8973694"><ele>343.0</ele><time>2026-05-01T08:04:34.909Z</time></trkpt><trkpt lat="43.0207679" lon="11.8976257"><ele>340.0</ele><time>2026-05-01T08:04:35.909Z</time></trkpt><trkpt lat="43.0207802" lon="11.8978919"><ele>337.0</ele><time>2026-05-01T08:04:36.91Z</time></trkpt><trkpt lat="43.0208011" lon="11.8981544"><ele>336.66666666666663</ele><time>2026-05-01T08:04:37.91Z</time></trkpt><trkpt lat="43.0208314" lon="11.8984206"><ele>336.3333333333333</ele><time>2026-05-01T08:04:38.91Z</time></trkpt><trkpt lat="43.0208589" lon="11.8986668"><ele>336.0</ele><time>2026-05-01T08:04:39.909Z</time></trkpt><trkpt lat="43.0208866" lon="11.8988949"><ele>336.0</ele><time>2026-05-01T08:04:40.91Z</time></trkpt><trkpt lat="43.0209149" lon="11.899101"><ele>336.0</ele><time>2026-05-01T08:04:41.91Z</time></trkpt><trkpt lat="43.020946" lon="11.8993035"><ele>336.0</ele><time>2026-05-01T08:04:42.91Z</time></trkpt><trkpt lat="43.0209804" lon="11.8995075"><ele>335.75</ele><time>2026-05-01T08:04:43.91Z</time></trkpt><trkpt lat="43.0210229" lon="11.8996961"><ele>335.5</ele><time>2026-05-01T08:04:44.909Z</time></trkpt><trkpt lat="43.0210622" lon="11.8998785"><ele>335.25</ele><time>2026-05-01T08:04:45.909Z</time></trkpt><trkpt lat="43.0210928" lon="11.9000481"><ele>335.0</ele><time>2026-05-01T08:04:46.91Z</time></trkpt><trkpt lat="43.0210977" lon="11.9002154"><ele>335.0</ele><time>2026-05-01T08:04:47.91Z</time></trkpt><trkpt lat="43.0210892" lon="11.9003844"><ele>335.0</ele><time>2026-05-01T08:04:48.91Z</time></trkpt><trkpt lat="43.0210703" lon="11.900558"><ele>335.0</ele><time>2026-05-01T08:04:49.909Z</time></trkpt><trkpt lat="43.021036" lon="11.9007466"><ele>335.0</ele><time>2026-05-01T08:04:50.909Z</time></trkpt><trkpt lat="43.0209964" lon="11.900944"><ele>334.6666666666667</ele><time>2026-05-01T08:04:51.909Z</time></trkpt><trkpt lat="43.0209313" lon="11.901144"><ele>334.3333333333333</ele><time>2026-05-01T08:04:52.91Z</time></trkpt><trkpt lat="43.0208384" lon="11.9013345"><ele>334.0</ele><time>2026-05-01T08:04:53.91Z</time></trkpt><trkpt lat="43.0207423" lon="11.9015239"><ele>334.0</ele><time>2026-05-01T08:04:54.909Z</time></trkpt><trkpt lat="43.0206377" lon="11.9017125"><ele>334.0</ele><time>2026-05-01T08:04:55.91Z</time></trkpt><trkpt lat="43.0205171" lon="11.901901"><ele>334.0</ele><time>2026-05-01T08:04:56.91Z</time></trkpt><trkpt lat="43.0203754" lon="11.9020698"><ele>332.0</ele><time>2026-05-01T08:04:57.91Z</time></trkpt><trkpt lat="43.0202223" lon="11.9022101"><ele>330.0</ele><time>2026-05-01T08:04:58.909Z</time></trkpt><trkpt lat="43.0200699" lon="11.9023476"><ele>328.0</ele><time>2026-05-01T08:04:59.91Z</time></trkpt><trkpt lat="43.0199338" lon="11.9024906"><ele>328.66666666666663</ele><time>2026-05-01T08:05:00.909Z</time></trkpt><trkpt lat="43.0198245" lon="11.9026638"><ele>329.3333333333333</ele><time>2026-05-01T08:05:01.91Z</time></trkpt><trkpt lat="43.0197445" lon="11.9028762"><ele>330.0</ele><time>2026-05-01T08:05:02.91Z</time></trkpt><trkpt lat="43.0196781" lon="11.9031048"><ele>330.0</ele><time>2026-05-01T08:05:03.91Z</time></trkpt><trkpt lat="43.0196131" lon="11.9033253"><ele>330.0</ele><time>2026-05-01T08:05:04.91Z</time></trkpt><trkpt lat="43.0195567" lon="11.9035398"><ele>330.0</ele><time>2026-05-01T08:05:05.91Z</time></trkpt><trkpt lat="43.0194953" lon="11.9037346"><ele>330.6</ele><time>2026-05-01T08:05:06.91Z</time></trkpt><trkpt lat="43.0194535" lon="11.9039082"><ele>331.2</ele><time>2026-05-01T08:05:07.91Z</time></trkpt><trkpt lat="43.0194123" lon="11.9040599"><ele>331.79999999999995</ele><time>2026-05-01T08:05:08.909Z</time></trkpt><trkpt lat="43.0193808" lon="11.9041935"><ele>332.4</ele><time>2026-05-01T08:05:09.91Z</time></trkpt><trkpt lat="43.0193565" lon="11.9043107"><ele>333.0</ele><time>2026-05-01T08:05:10.91Z</time></trkpt><trkpt lat="43.0193344" lon="11.9044163"><ele>333.0</ele><time>2026-05-01T08:05:11.91Z</time></trkpt><trkpt lat="43.0193012" lon="11.9045181"><ele>333.0</ele><time>2026-05-01T08:05:12.909Z</time></trkpt><trkpt lat="43.0192501" lon="11.9046161"><ele>333.0</ele><time>2026-05-01T08:05:13.91Z</time></trkpt><trkpt lat="43.0191923" lon="11.9047105"><ele>333.0</ele><time>2026-05-01T08:05:14.91Z</time></trkpt><trkpt lat="43.01912" lon="11.9048276"><ele>333.0</ele><time>2026-05-01T08:05:15.909Z</time></trkpt><trkpt lat="43.0190411" lon="11.9049664"><ele>331.0</ele><time>2026-05-01T08:05:16.91Z</time></trkpt><trkpt lat="43.0189477" lon="11.9050771"><ele>329.0</ele><time>2026-05-01T08:05:17.91Z</time></trkpt><trkpt lat="43.0188597" lon="11.9052143"><ele>327.0</ele><time>2026-05-01T08:05:18.909Z</time></trkpt><trkpt lat="43.0187667" lon="11.9053678"><ele>325.0</ele><time>2026-05-01T08:05:19.91Z</time></trkpt><trkpt lat="43.0186694" lon="11.9055342"><ele>324.3333333333333</ele><time>2026-05-01T08:05:20.909Z</time></trkpt><trkpt lat="43.0185537" lon="11.9057093"><ele>323.6666666666667</ele><time>2026-05-01T08:05:21.91Z</time></trkpt><trkpt lat="43.0184318" lon="11.9058859"><ele>323.0</ele><time>2026-05-01T08:05:22.91Z</time></trkpt><trkpt lat="43.0183143" lon="11.9060707"><ele>322.33333333333337</ele><time>2026-05-01T08:05:23.91Z</time></trkpt><trkpt lat="43.0182044" lon="11.9062508"><ele>321.6666666666667</ele><time>2026-05-01T08:05:24.91Z</time></trkpt><trkpt lat="43.0180922" lon="11.9064224"><ele>321.0</ele><time>2026-05-01T08:05:25.91Z</time></trkpt><trkpt lat="43.0179684" lon="11.9065817"><ele>321.0</ele><time>2026-05-01T08:05:26.909Z</time></trkpt><trkpt lat="43.0178243" lon="11.9067348"><ele>321.0</ele><time>2026-05-01T08:05:27.909Z</time></trkpt><trkpt lat="43.0176647" lon="11.9068386"><ele>321.0</ele><time>2026-05-01T08:05:28.91Z</time></trkpt><trkpt lat="43.0174838" lon="11.9069251"><ele>323.6666666666667</ele><time>2026-05-01T08:05:29.909Z</time></trkpt><trkpt lat="43.0172958" lon="11.9069907"><ele>326.33333333333337</ele><time>2026-05-01T08:05:30.91Z</time></trkpt><trkpt lat="43.017119" lon="11.907046"><ele>329.0</ele><time>2026-05-01T08:05:31.91Z</time></trkpt><trkpt lat="43.0169575" lon="11.9071001"><ele>329.0</ele><time>2026-05-01T08:05:32.91Z</time></trkpt><trkpt lat="43.0168049" lon="11.9071682"><ele>329.0</ele><time>2026-05-01T08:05:33.91Z</time></trkpt><trkpt lat="43.0166716" lon="11.907257"><ele>329.0</ele><time>2026-05-01T08:05:34.91Z</time></trkpt><trkpt lat="43.0165527" lon="11.9073935"><ele>327.33333333333337</ele><time>2026-05-01T08:05:35.909Z</time></trkpt><trkpt lat="43.0164299" lon="11.9075813"><ele>325.6666666666667</ele><time>2026-05-01T08:05:36.91Z</time></trkpt><trkpt lat="43.0163168" lon="11.9077838"><ele>324.0</ele><time>2026-05-01T08:05:37.909Z</time></trkpt><trkpt lat="43.0161971" lon="11.9079941"><ele>324.0</ele><time>2026-05-01T08:05:38.91Z</time></trkpt><trkpt lat="43.0160797" lon="11.9082219"><ele>324.0</ele><time>2026-05-01T08:05:39.91Z</time></trkpt><trkpt lat="43.0159556" lon="11.9084488"><ele>324.0</ele><time>2026-05-01T08:05:40.909Z</time></trkpt><trkpt lat="43.0158314" lon="11.9086705"><ele>325.3333333333333</ele><time>2026-05-01T08:05:41.91Z</time></trkpt><trkpt lat="43.0157045" lon="11.9088951"><ele>326.66666666666663</ele><time>2026-05-01T08:05:42.909Z</time></trkpt><trkpt lat="43.015582" lon="11.9091142"><ele>328.0</ele><time>2026-05-01T08:05:43.91Z</time></trkpt><trkpt lat="43.0154643" lon="11.9093311"><ele>328.0</ele><time>2026-05-01T08:05:44.91Z</time></trkpt><trkpt lat="43.0153681" lon="11.9095358"><ele>328.0</ele><time>2026-05-01T08:05:45.91Z</time></trkpt><trkpt lat="43.0152998" lon="11.9097315"><ele>328.0</ele><time>2026-05-01T08:05:46.909Z</time></trkpt><trkpt lat="43.0152581" lon="11.9099277"><ele>328.0</ele><time>2026-05-01T08:05:47.91Z</time></trkpt><trkpt lat="43.0152408" lon="11.9101141"><ele>328.0</ele><time>2026-05-01T08:05:48.909Z</time></trkpt><trkpt lat="43.0152454" lon="11.9102991"><ele>328.0</ele><time>2026-05-01T08:05:49.91Z</time></trkpt><trkpt lat="43.0152414" lon="11.91048"><ele>328.0</ele><time>2026-05-01T08:05:50.91Z</time></trkpt><trkpt lat="43.0152422" lon="11.9106526"><ele>328.0</ele><time>2026-05-01T08:05:51.91Z</time></trkpt><trkpt lat="43.0152421" lon="11.910824"><ele>328.0</ele><time>2026-05-01T08:05:52.91Z</time></trkpt><trkpt lat="43.0152519" lon="11.9110045"><ele>328.0</ele><time>2026-05-01T08:05:53.91Z</time></trkpt><trkpt lat="43.0152756" lon="11.9111926"><ele>328.0</ele><time>2026-05-01T08:05:54.909Z</time></trkpt><trkpt lat="43.015306" lon="11.9113918"><ele>328.0</ele><time>2026-05-01T08:05:55.91Z</time></trkpt><trkpt lat="43.0153383" lon="11.9115593"><ele>328.0</ele><time>2026-05-01T08:05:56.91Z</time></trkpt><trkpt lat="43.0153615" lon="11.9117114"><ele>328.0</ele><time>2026-05-01T08:05:57.91Z</time></trkpt><trkpt lat="43.0153823" lon="11.911847"><ele>328.0</ele><time>2026-05-01T08:05:58.909Z</time></trkpt><trkpt lat="43.0154053" lon="11.9119751"><ele>328.0</ele><time>2026-05-01T08:05:59.91Z</time></trkpt><trkpt lat="43.0154285" lon="11.912088"><ele>328.59999999999997</ele><time>2026-05-01T08:06:00.91Z</time></trkpt><trkpt lat="43.0154575" lon="11.9121938"><ele>329.2</ele><time>2026-05-01T08:06:01.909Z</time></trkpt><trkpt lat="43.0154984" lon="11.9123071"><ele>329.8</ele><time>2026-05-01T08:06:02.91Z</time></trkpt><trkpt lat="43.0155484" lon="11.9124248"><ele>330.4</ele><time>2026-05-01T08:06:03.909Z</time></trkpt><trkpt lat="43.0155992" lon="11.9125572"><ele>331.0</ele><time>2026-05-01T08:06:04.909Z</time></trkpt><trkpt lat="43.0156555" lon="11.9126888"><ele>331.75</ele><time>2026-05-01T08:06:05.91Z</time></trkpt><trkpt lat="43.0157161" lon="11.9128116"><ele>332.5</ele><time>2026-05-01T08:06:06.909Z</time></trkpt><trkpt lat="43.0157874" lon="11.9129515"><ele>333.25</ele><time>2026-05-01T08:06:07.91Z</time></trkpt><trkpt lat="43.0158596" lon="11.9130926"><ele>334.0</ele><time>2026-05-01T08:06:08.909Z</time></trkpt><trkpt lat="43.0159235" lon="11.9132274"><ele>335.2</ele><time>2026-05-01T08:06:09.91Z</time></trkpt><trkpt lat="43.0159742" lon="11.9133575"><ele>336.4</ele><time>2026-05-01T08:06:10.909Z</time></trkpt><trkpt lat="43.016028" lon="11.9134738"><ele>337.6</ele><time>2026-05-01T08:06:11.91Z</time></trkpt><trkpt lat="43.0160686" lon="11.9135891"><ele>338.8</ele><time>2026-05-01T08:06:12.91Z</time></trkpt><trkpt lat="43.0161116" lon="11.9136883"><ele>340.0</ele><time>2026-05-01T08:06:13.91Z</time></trkpt><trkpt lat="43.0161346" lon="11.9137868"><ele>340.0</ele><time>2026-05-01T08:06:14.91Z</time></trkpt><trkpt lat="43.0161841" lon="11.9138775"><ele>340.0</ele><time>2026-05-01T08:06:15.909Z</time></trkpt><trkpt lat="43.0162235" lon="11.9139776"><ele>340.0</ele><time>2026-05-01T08:06:16.909Z</time></trkpt><trkpt lat="43.016258" lon="11.9140933"><ele>340.0</ele><time>2026-05-01T08:06:17.91Z</time></trkpt><trkpt lat="43.0163122" lon="11.9142185"><ele>340.0</ele><time>2026-05-01T08:06:18.909Z</time></trkpt><trkpt lat="43.0163739" lon="11.9143494"><ele>339.6</ele><time>2026-05-01T08:06:19.909Z</time></trkpt><trkpt lat="43.016435" lon="11.9144765"><ele>339.2</ele><time>2026-05-01T08:06:20.91Z</time></trkpt><trkpt lat="43.0164971" lon="11.9145921"><ele>338.79999999999995</ele><time>2026-05-01T08:06:21.91Z</time></trkpt><trkpt lat="43.0165478" lon="11.9146958"><ele>338.4</ele><time>2026-05-01T08:06:22.91Z</time></trkpt><trkpt lat="43.0165998" lon="11.9147876"><ele>338.0</ele><time>2026-05-01T08:06:23.91Z</time></trkpt><trkpt lat="43.0166549" lon="11.9148996"><ele>338.0</ele><time>2026-05-01T08:06:24.91Z</time></trkpt><trkpt lat="43.016717" lon="11.9150194"><ele>338.0</ele><time>2026-05-01T08:06:25.91Z</time></trkpt><trkpt lat="43.0167794" lon="11.9151599"><ele>338.0</ele><time>2026-05-01T08:06:26.91Z</time></trkpt><trkpt lat="43.0168358" lon="11.915321"><ele>338.0</ele><time>2026-05-01T08:06:27.91Z</time></trkpt><trkpt lat="43.0168796" lon="11.9154953"><ele>337.75</ele><time>2026-05-01T08:06:28.91Z</time></trkpt><trkpt lat="43.0169083" lon="11.9156649"><ele>337.5</ele><time>2026-05-01T08:06:29.91Z</time></trkpt><trkpt lat="43.0169239" lon="11.9158191"><ele>337.25</ele><time>2026-05-01T08:06:30.91Z</time></trkpt><trkpt lat="43.016936" lon="11.9159685"><ele>337.0</ele><time>2026-05-01T08:06:31.91Z</time></trkpt><trkpt lat="43.0169342" lon="11.9161248"><ele>336.5</ele><time>2026-05-01T08:06:32.909Z</time></trkpt><trkpt lat="43.0169181" lon="11.9163032"><ele>336.0</ele><time>2026-05-01T08:06:33.909Z</time></trkpt><trkpt lat="43.0168852" lon="11.9164916"><ele>335.5</ele><time>2026-05-01T08:06:34.91Z</time></trkpt><trkpt lat="43.0168494" lon="11.9166954"><ele>335.0</ele><time>2026-05-01T08:06:35.91Z</time></trkpt><trkpt lat="43.0168004" lon="11.916926"><ele>335.0</ele><time>2026-05-01T08:06:36.909Z</time></trkpt><trkpt lat="43.0167428" lon="11.9171759"><ele>335.0</ele><time>2026-05-01T08:06:37.91Z</time></trkpt><trkpt lat="43.0166881" lon="11.9174135"><ele>335.0</ele><time>2026-05-01T08:06:38.909Z</time></trkpt><trkpt lat="43.0166382" lon="11.9176297"><ele>336.25</ele><time>2026-05-01T08:06:39.91Z</time></trkpt><trkpt lat="43.0165936" lon="11.9178209"><ele>337.5</ele><time>2026-05-01T08:06:40.91Z</time></trkpt><trkpt lat="43.0165567" lon="11.9179872"><ele>338.75</ele><time>2026-05-01T08:06:41.91Z</time></trkpt><trkpt lat="43.0165053" lon="11.9181466"><ele>340.0</ele><time>2026-05-01T08:06:42.91Z</time></trkpt><trkpt lat="43.0164427" lon="11.9182876"><ele>338.8</ele><time>2026-05-01T08:06:43.91Z</time></trkpt><trkpt lat="43.016381" lon="11.9184056"><ele>337.6</ele><time>2026-05-01T08:06:44.91Z</time></trkpt><trkpt lat="43.016314" lon="11.9185282"><ele>336.4</ele><time>2026-05-01T08:06:45.91Z</time></trkpt><trkpt lat="43.016237" lon="11.918654"><ele>335.2</ele><time>2026-05-01T08:06:46.91Z</time></trkpt><trkpt lat="43.0161626" lon="11.9187615"><ele>334.0</ele><time>2026-05-01T08:06:47.91Z</time></trkpt><trkpt lat="43.0160767" lon="11.9188539"><ele>334.0</ele><time>2026-05-01T08:06:48.91Z</time></trkpt><trkpt lat="43.0159842" lon="11.9189412"><ele>334.0</ele><time>2026-05-01T08:06:49.91Z</time></trkpt><trkpt lat="43.0158872" lon="11.9190385"><ele>334.0</ele><time>2026-05-01T08:06:50.91Z</time></trkpt><trkpt lat="43.0157945" lon="11.919135"><ele>334.0</ele><time>2026-05-01T08:06:51.91Z</time></trkpt><trkpt lat="43.0157027" lon="11.9192301"><ele>333.0</ele><time>2026-05-01T08:06:52.91Z</time></trkpt><trkpt lat="43.0156115" lon="11.9193282"><ele>332.0</ele><time>2026-05-01T08:06:53.91Z</time></trkpt><trkpt lat="43.0155265" lon="11.9194477"><ele>331.0</ele><time>2026-05-01T08:06:54.91Z</time></trkpt><trkpt lat="43.0154651" lon="11.9195925"><ele>330.0</ele><time>2026-05-01T08:06:55.91Z</time></trkpt><trkpt lat="43.0154099" lon="11.9197504"><ele>330.0</ele><time>2026-05-01T08:06:56.91Z</time></trkpt><trkpt lat="43.0153614" lon="11.9199115"><ele>330.0</ele><time>2026-05-01T08:06:57.91Z</time></trkpt><trkpt lat="43.0153175" lon="11.9200781"><ele>330.0</ele><time>2026-05-01T08:06:58.91Z</time></trkpt><trkpt lat="43.0152758" lon="11.9202606"><ele>330.0</ele><time>2026-05-01T08:06:59.91Z</time></trkpt><trkpt lat="43.0152435" lon="11.9204804"><ele>330.0</ele><time>2026-05-01T08:07:00.909Z</time></trkpt><trkpt lat="43.0152131" lon="11.9207446"><ele>330.0</ele><time>2026-05-01T08:07:01.91Z</time></trkpt><trkpt lat="43.0151754" lon="11.9210412"><ele>330.0</ele><time>2026-05-01T08:07:02.91Z</time></trkpt><trkpt lat="43.0151283" lon="11.9213601"><ele>333.5</ele><time>2026-05-01T08:07:03.91Z</time></trkpt><trkpt lat="43.0150718" lon="11.9216857"><ele>337.0</ele><time>2026-05-01T08:07:04.91Z</time></trkpt><trkpt lat="43.0150056" lon="11.92202"><ele>345.5</ele><time>2026-05-01T08:07:05.91Z</time></trkpt><trkpt lat="43.014948" lon="11.9223431"><ele>354.0</ele><time>2026-05-01T08:07:06.91Z</time></trkpt><trkpt lat="43.0148844" lon="11.9226632"><ele>357.0</ele><time>2026-05-01T08:07:07.91Z</time></trkpt><trkpt lat="43.0148158" lon="11.9229693"><ele>360.0</ele><time>2026-05-01T08:07:08.909Z</time></trkpt><trkpt lat="43.0147391" lon="11.9232483"><ele>360.3333333333333</ele><time>2026-05-01T08:07:09.91Z</time></trkpt><trkpt lat="43.0146568" lon="11.9235"><ele>360.66666666666663</ele><time>2026-05-01T08:07:10.909Z</time></trkpt><trkpt lat="43.0146004" lon="11.9237499"><ele>361.0</ele><time>2026-05-01T08:07:11.909Z</time></trkpt><trkpt lat="43.0145677" lon="11.9240361"><ele>360.0</ele><time>2026-05-01T08:07:12.91Z</time></trkpt><trkpt lat="43.0145804" lon="11.9243565"><ele>359.0</ele><time>2026-05-01T08:07:13.909Z</time></trkpt><trkpt lat="43.0146208" lon="11.9246596"><ele>359.0</ele><time>2026-05-01T08:07:14.909Z</time></trkpt><trkpt lat="43.0146762" lon="11.9249269"><ele>359.0</ele><time>2026-05-01T08:07:15.91Z</time></trkpt><trkpt lat="43.01473" lon="11.9251729"><ele>359.0</ele><time>2026-05-01T08:07:16.909Z</time></trkpt><trkpt lat="43.0147746" lon="11.9254243"><ele>359.0</ele><time>2026-05-01T08:07:17.91Z</time></trkpt><trkpt lat="43.0148013" lon="11.9256918"><ele>359.0</ele><time>2026-05-01T08:07:18.91Z</time></trkpt><trkpt lat="43.0147912" lon="11.925958"><ele>359.0</ele><time>2026-05-01T08:07:19.909Z</time></trkpt><trkpt lat="43.01476" lon="11.9262022"><ele>358.6666666666667</ele><time>2026-05-01T08:07:20.909Z</time></trkpt><trkpt lat="43.0147646" lon="11.9264399"><ele>358.3333333333333</ele><time>2026-05-01T08:07:21.91Z</time></trkpt><trkpt lat="43.0148301" lon="11.9266639"><ele>358.0</ele><time>2026-05-01T08:07:22.909Z</time></trkpt><trkpt lat="43.0149585" lon="11.9268574"><ele>356.66666666666663</ele><time>2026-05-01T08:07:23.91Z</time></trkpt><trkpt lat="43.0151154" lon="11.927032"><ele>355.3333333333333</ele><time>2026-05-01T08:07:24.91Z</time></trkpt><trkpt lat="43.015283" lon="11.927218"><ele>354.0</ele><time>2026-05-01T08:07:25.91Z</time></trkpt><trkpt lat="43.015449" lon="11.9274255"><ele>357.0</ele><time>2026-05-01T08:07:26.91Z</time></trkpt><trkpt lat="43.0156009" lon="11.9276462"><ele>360.0</ele><time>2026-05-01T08:07:27.91Z</time></trkpt><trkpt lat="43.0157369" lon="11.9278949"><ele>363.0</ele><time>2026-05-01T08:07:28.91Z</time></trkpt><trkpt lat="43.0158705" lon="11.9281675"><ele>352.5</ele><time>2026-05-01T08:07:29.91Z</time></trkpt><trkpt lat="43.0159902" lon="11.9284558"><ele>342.0</ele><time>2026-05-01T08:07:30.909Z</time></trkpt><trkpt lat="43.0161075" lon="11.9287544"><ele>342.0</ele><time>2026-05-01T08:07:31.91Z</time></trkpt><trkpt lat="43.0162187" lon="11.9290365"><ele>342.0</ele><time>2026-05-01T08:07:32.91Z</time></trkpt><trkpt lat="43.0163312" lon="11.9293046"><ele>341.0</ele><time>2026-05-01T08:07:33.909Z</time></trkpt><trkpt lat="43.0164263" lon="11.9295553"><ele>340.0</ele><time>2026-05-01T08:07:34.91Z</time></trkpt><trkpt lat="43.016511" lon="11.9297923"><ele>339.0</ele><time>2026-05-01T08:07:35.91Z</time></trkpt><trkpt lat="43.0165928" lon="11.929984"><ele>335.5</ele><time>2026-05-01T08:07:36.91Z</time></trkpt><trkpt lat="43.0166557" lon="11.9301396"><ele>332.0</ele><time>2026-05-01T08:07:37.91Z</time></trkpt><trkpt lat="43.0167042" lon="11.9302748"><ele>328.5</ele><time>2026-05-01T08:07:38.909Z</time></trkpt><trkpt lat="43.0167501" lon="11.9304075"><ele>325.0</ele><time>2026-05-01T08:07:39.909Z</time></trkpt><trkpt lat="43.0167576" lon="11.9305663"><ele>325.0</ele><time>2026-05-01T08:07:40.91Z</time></trkpt><trkpt lat="43.0167408" lon="11.9307612"><ele>325.0</ele><time>2026-05-01T08:07:41.91Z</time></trkpt><trkpt lat="43.0167105" lon="11.93095"><ele>325.0</ele><time>2026-05-01T08:07:42.91Z</time></trkpt><trkpt lat="43.0166657" lon="11.9311135"><ele>325.0</ele><time>2026-05-01T08:07:43.91Z</time></trkpt><trkpt lat="43.0165918" lon="11.9312372"><ele>323.0</ele><time>2026-05-01T08:07:44.909Z</time></trkpt><trkpt lat="43.0164939" lon="11.9313331"><ele>321.0</ele><time>2026-05-01T08:07:45.91Z</time></trkpt><trkpt lat="43.0163773" lon="11.9313648"><ele>319.0</ele><time>2026-05-01T08:07:46.91Z</time></trkpt><trkpt lat="43.0162403" lon="11.9313318"><ele>317.0</ele><time>2026-05-01T08:07:47.91Z</time></trkpt><trkpt lat="43.0160768" lon="11.9312575"><ele>317.0</ele><time>2026-05-01T08:07:48.91Z</time></trkpt><trkpt lat="43.0158979" lon="11.9311659"><ele>317.0</ele><time>2026-05-01T08:07:49.91Z</time></trkpt><trkpt lat="43.0157032" lon="11.9310517"><ele>317.0</ele><time>2026-05-01T08:07:50.91Z</time></trkpt><trkpt lat="43.0155079" lon="11.9309226"><ele>321.0</ele><time>2026-05-01T08:07:51.909Z</time></trkpt><trkpt lat="43.015302" lon="11.9307928"><ele>325.0</ele><time>2026-05-01T08:07:52.91Z</time></trkpt><trkpt lat="43.0151106" lon="11.9306607"><ele>329.0</ele><time>2026-05-01T08:07:53.91Z</time></trkpt><trkpt lat="43.0149443" lon="11.9305447"><ele>329.0</ele><time>2026-05-01T08:07:54.909Z</time></trkpt><trkpt lat="43.0147979" lon="11.9304202"><ele>329.0</ele><time>2026-05-01T08:07:55.91Z</time></trkpt><trkpt lat="43.0146704" lon="11.9302533"><ele>329.0</ele><time>2026-05-01T08:07:56.91Z</time></trkpt><trkpt lat="43.0145409" lon="11.930037"><ele>330.5</ele><time>2026-05-01T08:07:57.91Z</time></trkpt><trkpt lat="43.0144169" lon="11.9297925"><ele>332.0</ele><time>2026-05-01T08:07:58.909Z</time></trkpt><trkpt lat="43.0142734" lon="11.929532"><ele>329.0</ele><time>2026-05-01T08:07:59.91Z</time></trkpt><trkpt lat="43.0141343" lon="11.9292745"><ele>326.0</ele><time>2026-05-01T08:08:00.909Z</time></trkpt><trkpt lat="43.0140095" lon="11.9290386"><ele>323.0</ele><time>2026-05-01T08:08:01.91Z</time></trkpt><trkpt lat="43.0138867" lon="11.9287922"><ele>323.0</ele><time>2026-05-01T08:08:02.91Z</time></trkpt><trkpt lat="43.0137684" lon="11.9285339"><ele>323.0</ele><time>2026-05-01T08:08:03.91Z</time></trkpt><trkpt lat="43.0136631" lon="11.928268"><ele>323.0</ele><time>2026-05-01T08:08:04.91Z</time></trkpt><trkpt lat="43.0135697" lon="11.9280271"><ele>325.6666666666667</ele><time>2026-05-01T08:08:05.91Z</time></trkpt><trkpt lat="43.0134891" lon="11.9278028"><ele>328.3333333333333</ele><time>2026-05-01T08:08:06.91Z</time></trkpt><trkpt lat="43.0133938" lon="11.9276314"><ele>331.0</ele><time>2026-05-01T08:08:07.91Z</time></trkpt><trkpt lat="43.0132535" lon="11.9275035"><ele>333.0</ele><time>2026-05-01T08:08:08.91Z</time></trkpt><trkpt lat="43.0130725" lon="11.9274176"><ele>335.0</ele><time>2026-05-01T08:08:09.91Z</time></trkpt><trkpt lat="43.0128708" lon="11.9273396"><ele>337.0</ele><time>2026-05-01T08:08:10.91Z</time></trkpt><trkpt lat="43.0126556" lon="11.9272873"><ele>336.3333333333333</ele><time>2026-05-01T08:08:11.909Z</time></trkpt><trkpt lat="43.0124527" lon="11.9272528"><ele>335.6666666666667</ele><time>2026-05-01T08:08:12.91Z</time></trkpt><trkpt lat="43.0122489" lon="11.9272463"><ele>335.0</ele><time>2026-05-01T08:08:13.91Z</time></trkpt><trkpt lat="43.0120369" lon="11.9272789"><ele>335.0</ele><time>2026-05-01T08:08:14.909Z</time></trkpt><trkpt lat="43.0118294" lon="11.9273676"><ele>335.0</ele><time>2026-05-01T08:08:15.909Z</time></trkpt><trkpt lat="43.0116376" lon="11.9274827"><ele>335.0</ele><time>2026-05-01T08:08:16.909Z</time></trkpt><trkpt lat="43.0114663" lon="11.9276233"><ele>333.6666666666667</ele><time>2026-05-01T08:08:17.91Z</time></trkpt><trkpt lat="43.0113105" lon="11.9277529"><ele>332.3333333333333</ele><time>2026-05-01T08:08:18.91Z</time></trkpt><trkpt lat="43.011155" lon="11.9278327"><ele>331.0</ele><time>2026-05-01T08:08:19.909Z</time></trkpt><trkpt lat="43.0109948" lon="11.9278781"><ele>332.66666666666663</ele><time>2026-05-01T08:08:20.91Z</time></trkpt><trkpt lat="43.0108207" lon="11.9278479"><ele>334.3333333333333</ele><time>2026-05-01T08:08:21.91Z</time></trkpt><trkpt lat="43.01062" lon="11.9277853"><ele>336.0</ele><time>2026-05-01T08:08:22.909Z</time></trkpt><trkpt lat="43.010394" lon="11.9277072"><ele>336.0</ele><time>2026-05-01T08:08:23.91Z</time></trkpt><trkpt lat="43.0101615" lon="11.927639"><ele>336.0</ele><time>2026-05-01T08:08:24.91Z</time></trkpt><trkpt lat="43.009919" lon="11.9275672"><ele>334.5</ele><time>2026-05-01T08:08:25.91Z</time></trkpt><trkpt lat="43.0096738" lon="11.9274801"><ele>333.0</ele><time>2026-05-01T08:08:26.91Z</time></trkpt><trkpt lat="43.0094313" lon="11.9273788"><ele>333.0</ele><time>2026-05-01T08:08:27.91Z</time></trkpt><trkpt lat="43.0092051" lon="11.9272703"><ele>333.0</ele><time>2026-05-01T08:08:28.91Z</time></trkpt><trkpt lat="43.0089873" lon="11.9271591"><ele>334.5</ele><time>2026-05-01T08:08:29.91Z</time></trkpt><trkpt lat="43.0087768" lon="11.9270212"><ele>336.0</ele><time>2026-05-01T08:08:30.909Z</time></trkpt><trkpt lat="43.0085561" lon="11.9268787"><ele>336.0</ele><time>2026-05-01T08:08:31.909Z</time></trkpt><trkpt lat="43.0083231" lon="11.9267303"><ele>336.0</ele><time>2026-05-01T08:08:32.91Z</time></trkpt><trkpt lat="43.0080917" lon="11.9265845"><ele>333.0</ele><time>2026-05-01T08:08:33.909Z</time></trkpt><trkpt lat="43.0078623" lon="11.9264395"><ele>330.0</ele><time>2026-05-01T08:08:34.91Z</time></trkpt><trkpt lat="43.0076307" lon="11.9262913"><ele>324.0</ele><time>2026-05-01T08:08:35.91Z</time></trkpt><trkpt lat="43.0074059" lon="11.926126"><ele>318.0</ele><time>2026-05-01T08:08:36.91Z</time></trkpt><trkpt lat="43.0071714" lon="11.9259454"><ele>319.0</ele><time>2026-05-01T08:08:37.91Z</time></trkpt><trkpt lat="43.0069341" lon="11.9257377"><ele>320.0</ele><time>2026-05-01T08:08:38.91Z</time></trkpt><trkpt lat="43.0066982" lon="11.9255084"><ele>314.5</ele><time>2026-05-01T08:08:39.91Z</time></trkpt><trkpt lat="43.0064503" lon="11.9252755"><ele>309.0</ele><time>2026-05-01T08:08:40.91Z</time></trkpt><trkpt lat="43.0061967" lon="11.9250377"><ele>309.0</ele><time>2026-05-01T08:08:41.909Z</time></trkpt><trkpt lat="43.0059602" lon="11.9248295"><ele>309.0</ele><time>2026-05-01T08:08:42.909Z</time></trkpt><trkpt lat="43.0057352" lon="11.9246259"><ele>308.5</ele><time>2026-05-01T08:08:43.91Z</time></trkpt><trkpt lat="43.0055281" lon="11.9244459"><ele>308.0</ele><time>2026-05-01T08:08:44.909Z</time></trkpt><trkpt lat="43.0053446" lon="11.9242847"><ele>306.6666666666667</ele><time>2026-05-01T08:08:45.91Z</time></trkpt><trkpt lat="43.0051873" lon="11.9241358"><ele>305.3333333333333</ele><time>2026-05-01T08:08:46.91Z</time></trkpt><trkpt lat="43.0050441" lon="11.923995"><ele>304.0</ele><time>2026-05-01T08:08:47.91Z</time></trkpt><trkpt lat="43.0049401" lon="11.923824"><ele>305.66666666666663</ele><time>2026-05-01T08:08:48.91Z</time></trkpt><trkpt lat="43.0048849" lon="11.9236073"><ele>307.3333333333333</ele><time>2026-05-01T08:08:49.91Z</time></trkpt><trkpt lat="43.0048699" lon="11.9233538"><ele>309.0</ele><time>2026-05-01T08:08:50.91Z</time></trkpt><trkpt lat="43.0048703" lon="11.9230604"><ele>309.0</ele><time>2026-05-01T08:08:51.91Z</time></trkpt><trkpt lat="43.004873" lon="11.922775"><ele>309.0</ele><time>2026-05-01T08:08:52.91Z</time></trkpt><trkpt lat="43.0048699" lon="11.9225215"><ele>309.0</ele><time>2026-05-01T08:08:53.91Z</time></trkpt><trkpt lat="43.0048401" lon="11.9222899"><ele>307.3333333333333</ele><time>2026-05-01T08:08:54.91Z</time></trkpt><trkpt lat="43.0047659" lon="11.9220733"><ele>305.66666666666663</ele><time>2026-05-01T08:08:55.909Z</time></trkpt><trkpt lat="43.0046418" lon="11.9219029"><ele>304.0</ele><time>2026-05-01T08:08:56.91Z</time></trkpt><trkpt lat="43.0044811" lon="11.9217636"><ele>302.3333333333333</ele><time>2026-05-01T08:08:57.909Z</time></trkpt><trkpt lat="43.0043074" lon="11.9216784"><ele>300.6666666666667</ele><time>2026-05-01T08:08:58.91Z</time></trkpt><trkpt lat="43.0041092" lon="11.9216416"><ele>299.0</ele><time>2026-05-01T08:08:59.91Z</time></trkpt><trkpt lat="43.0039054" lon="11.9216042"><ele>299.0</ele><time>2026-05-01T08:09:00.91Z</time></trkpt><trkpt lat="43.0036897" lon="11.9215593"><ele>299.0</ele><time>2026-05-01T08:09:01.91Z</time></trkpt><trkpt lat="43.0034547" lon="11.9215025"><ele>299.5</ele><time>2026-05-01T08:09:02.909Z</time></trkpt><trkpt lat="43.0032149" lon="11.9214376"><ele>300.0</ele><time>2026-05-01T08:09:03.91Z</time></trkpt><trkpt lat="43.0029605" lon="11.921364"><ele>300.0</ele><time>2026-05-01T08:09:04.91Z</time></trkpt><trkpt lat="43.0026948" lon="11.9212844"><ele>300.0</ele><time>2026-05-01T08:09:05.91Z</time></trkpt><trkpt lat="43.0024233" lon="11.9212029"><ele>299.0</ele><time>2026-05-01T08:09:06.91Z</time></trkpt><trkpt lat="43.002152" lon="11.9211148"><ele>298.0</ele><time>2026-05-01T08:09:07.91Z</time></trkpt><trkpt lat="43.0018764" lon="11.9210295"><ele>296.5</ele><time>2026-05-01T08:09:08.91Z</time></trkpt><trkpt lat="43.0016118" lon="11.920955"><ele>295.0</ele><time>2026-05-01T08:09:09.909Z</time></trkpt><trkpt lat="43.0013566" lon="11.920888"><ele>292.0</ele><time>2026-05-01T08:09:10.91Z</time></trkpt><trkpt lat="43.0011017" lon="11.9208225"><ele>289.0</ele><time>2026-05-01T08:09:11.909Z</time></trkpt><trkpt lat="43.0008568" lon="11.920757"><ele>290.5</ele><time>2026-05-01T08:09:12.909Z</time></trkpt><trkpt lat="43.0006032" lon="11.9206853"><ele>292.0</ele><time>2026-05-01T08:09:13.91Z</time></trkpt><trkpt lat="43.000356" lon="11.9206181"><ele>292.0</ele><time>2026-05-01T08:09:14.909Z</time></trkpt><trkpt lat="43.000106" lon="11.9205488"><ele>292.0</ele><time>2026-05-01T08:09:15.91Z</time></trkpt><trkpt lat="42.9998733" lon="11.9204871"><ele>292.0</ele><time>2026-05-01T08:09:16.909Z</time></trkpt><trkpt lat="42.9996352" lon="11.9204244"><ele>292.0</ele><time>2026-05-01T08:09:17.91Z</time></trkpt><trkpt lat="42.9994081" lon="11.9203719"><ele>292.0</ele><time>2026-05-01T08:09:18.909Z</time></trkpt><trkpt lat="42.9991882" lon="11.9203285"><ele>292.0</ele><time>2026-05-01T08:09:19.91Z</time></trkpt><trkpt lat="42.9989633" lon="11.9203477"><ele>292.0</ele><time>2026-05-01T08:09:20.909Z</time></trkpt><trkpt lat="42.9987242" lon="11.920421"><ele>291.0</ele><time>2026-05-01T08:09:21.91Z</time></trkpt><trkpt lat="42.9984905" lon="11.920538"><ele>290.0</ele><time>2026-05-01T08:09:22.91Z</time></trkpt><trkpt lat="42.998246" lon="11.9206822"><ele>288.5</ele><time>2026-05-01T08:09:23.909Z</time></trkpt><trkpt lat="42.9979942" lon="11.9208458"><ele>287.0</ele><time>2026-05-01T08:09:24.909Z</time></trkpt><trkpt lat="42.9977328" lon="11.9210159"><ele>289.5</ele><time>2026-05-01T08:09:25.91Z</time></trkpt><trkpt lat="42.9974695" lon="11.9211762"><ele>292.0</ele><time>2026-05-01T08:09:26.91Z</time></trkpt><trkpt lat="42.9972122" lon="11.9213355"><ele>292.0</ele><time>2026-05-01T08:09:27.909Z</time></trkpt><trkpt lat="42.9969701" lon="11.921491"><ele>292.0</ele><time>2026-05-01T08:09:28.91Z</time></trkpt><trkpt lat="42.9967387" lon="11.9216302"><ele>295.0</ele><time>2026-05-01T08:09:29.91Z</time></trkpt><trkpt lat="42.9965034" lon="11.9217727"><ele>298.0</ele><time>2026-05-01T08:09:30.91Z</time></trkpt><trkpt lat="42.9962617" lon="11.9219304"><ele>298.0</ele><time>2026-05-01T08:09:31.909Z</time></trkpt><trkpt lat="42.9960267" lon="11.9220816"><ele>298.0</ele><time>2026-05-01T08:09:32.91Z</time></trkpt><trkpt lat="42.9957798" lon="11.9222172"><ele>298.5</ele><time>2026-05-01T08:09:33.91Z</time></trkpt><trkpt lat="42.9955237" lon="11.9223131"><ele>299.0</ele><time>2026-05-01T08:09:34.91Z</time></trkpt><trkpt lat="42.9952712" lon="11.9223676"><ele>299.0</ele><time>2026-05-01T08:09:35.909Z</time></trkpt><trkpt lat="42.9950165" lon="11.9223881"><ele>299.0</ele><time>2026-05-01T08:09:36.909Z</time></trkpt><trkpt lat="42.9947348" lon="11.9223877"><ele>297.0</ele><time>2026-05-01T08:09:37.91Z</time></trkpt><trkpt lat="42.9944478" lon="11.9223675"><ele>295.0</ele><time>2026-05-01T08:09:38.91Z</time></trkpt><trkpt lat="42.994154" lon="11.9223423"><ele>291.5</ele><time>2026-05-01T08:09:39.91Z</time></trkpt><trkpt lat="42.9938706" lon="11.9223047"><ele>288.0</ele><time>2026-05-01T08:09:40.91Z</time></trkpt><trkpt lat="42.9935902" lon="11.9222652"><ele>288.5</ele><time>2026-05-01T08:09:41.91Z</time></trkpt><trkpt lat="42.9933132" lon="11.9222304"><ele>289.0</ele><time>2026-05-01T08:09:42.909Z</time></trkpt><trkpt lat="42.9930436" lon="11.9221874"><ele>289.0</ele><time>2026-05-01T08:09:43.909Z</time></trkpt><trkpt lat="42.992782" lon="11.9221189"><ele>289.0</ele><time>2026-05-01T08:09:44.91Z</time></trkpt><trkpt lat="42.9925318" lon="11.9220518"><ele>294.0</ele><time>2026-05-01T08:09:45.909Z</time></trkpt><trkpt lat="42.9922987" lon="11.9219875"><ele>299.0</ele><time>2026-05-01T08:09:46.91Z</time></trkpt><trkpt lat="42.9920849" lon="11.9219311"><ele>299.0</ele><time>2026-05-01T08:09:47.91Z</time></trkpt><trkpt lat="42.991863" lon="11.9218936"><ele>299.0</ele><time>2026-05-01T08:09:48.91Z</time></trkpt><trkpt lat="42.9916289" lon="11.9218653"><ele>297.0</ele><time>2026-05-01T08:09:49.91Z</time></trkpt><trkpt lat="42.9913881" lon="11.9218456"><ele>295.0</ele><time>2026-05-01T08:09:50.91Z</time></trkpt><trkpt lat="42.9911306" lon="11.9218395"><ele>295.0</ele><time>2026-05-01T08:09:51.91Z</time></trkpt><trkpt lat="42.9908665" lon="11.9218634"><ele>295.0</ele><time>2026-05-01T08:09:52.91Z</time></trkpt><trkpt lat="42.9905864" lon="11.9219104"><ele>290.5</ele><time>2026-05-01T08:09:53.91Z</time></trkpt><trkpt lat="42.9903042" lon="11.9219645"><ele>286.0</ele><time>2026-05-01T08:09:54.91Z</time></trkpt><trkpt lat="42.9900243" lon="11.9220519"><ele>283.5</ele><time>2026-05-01T08:09:55.91Z</time></trkpt><trkpt lat="42.9897594" lon="11.9221246"><ele>281.0</ele><time>2026-05-01T08:09:56.91Z</time></trkpt><trkpt lat="42.9894923" lon="11.9221846"><ele>281.0</ele><time>2026-05-01T08:09:57.91Z</time></trkpt><trkpt lat="42.9892188" lon="11.9222008"><ele>281.0</ele><time>2026-05-01T08:09:58.91Z</time></trkpt><trkpt lat="42.9889333" lon="11.9222107"><ele>280.0</ele><time>2026-05-01T08:09:59.91Z</time></trkpt><trkpt lat="42.9886383" lon="11.922221"><ele>279.0</ele><time>2026-05-01T08:10:00.91Z</time></trkpt><trkpt lat="42.988353" lon="11.9222316"><ele>277.0</ele><time>2026-05-01T08:10:01.91Z</time></trkpt><trkpt lat="42.9880885" lon="11.9222363"><ele>275.0</ele><time>2026-05-01T08:10:02.91Z</time></trkpt><trkpt lat="42.9878375" lon="11.9222508"><ele>275.0</ele><time>2026-05-01T08:10:03.909Z</time></trkpt><trkpt lat="42.9875991" lon="11.9222596"><ele>275.0</ele><time>2026-05-01T08:10:04.91Z</time></trkpt><trkpt lat="42.9873736" lon="11.9222778"><ele>274.33333333333337</ele><time>2026-05-01T08:10:05.91Z</time></trkpt><trkpt lat="42.987157" lon="11.9223107"><ele>273.6666666666667</ele><time>2026-05-01T08:10:06.91Z</time></trkpt><trkpt lat="42.9869455" lon="11.9223922"><ele>273.0</ele><time>2026-05-01T08:10:07.91Z</time></trkpt><trkpt lat="42.9867431" lon="11.9225206"><ele>274.6666666666667</ele><time>2026-05-01T08:10:08.91Z</time></trkpt><trkpt lat="42.9865501" lon="11.9226733"><ele>276.33333333333337</ele><time>2026-05-01T08:10:09.91Z</time></trkpt><trkpt lat="42.9863693" lon="11.9228505"><ele>278.0</ele><time>2026-05-01T08:10:10.91Z</time></trkpt><trkpt lat="42.9861978" lon="11.9230551"><ele>278.0</ele><time>2026-05-01T08:10:11.91Z</time></trkpt><trkpt lat="42.9860294" lon="11.9232715"><ele>278.0</ele><time>2026-05-01T08:10:12.91Z</time></trkpt><trkpt lat="42.9858546" lon="11.9234943"><ele>277.5</ele><time>2026-05-01T08:10:13.909Z</time></trkpt><trkpt lat="42.9856692" lon="11.9237287"><ele>277.0</ele><time>2026-05-01T08:10:14.91Z</time></trkpt><trkpt lat="42.985491" lon="11.9239717"><ele>277.0</ele><time>2026-05-01T08:10:15.91Z</time></trkpt><trkpt lat="42.985321" lon="11.9242012"><ele>277.0</ele><time>2026-05-01T08:10:16.909Z</time></trkpt><trkpt lat="42.9851639" lon="11.9243953"><ele>276.66666666666663</ele><time>2026-05-01T08:10:17.91Z</time></trkpt><trkpt lat="42.9850176" lon="11.9245616"><ele>276.3333333333333</ele><time>2026-05-01T08:10:18.91Z</time></trkpt><trkpt lat="42.984886" lon="11.924696"><ele>276.0</ele><time>2026-05-01T08:10:19.91Z</time></trkpt><trkpt lat="42.9847468" lon="11.9247801"><ele>276.0</ele><time>2026-05-01T08:10:20.91Z</time></trkpt><trkpt lat="42.9846148" lon="11.9248087"><ele>276.0</ele><time>2026-05-01T08:10:21.909Z</time></trkpt><trkpt lat="42.9844742" lon="11.9247709"><ele>276.0</ele><time>2026-05-01T08:10:22.91Z</time></trkpt><trkpt lat="42.9843321" lon="11.9246548"><ele>276.0</ele><time>2026-05-01T08:10:23.91Z</time></trkpt><trkpt lat="42.9842025" lon="11.9244883"><ele>273.3333333333333</ele><time>2026-05-01T08:10:24.91Z</time></trkpt><trkpt lat="42.9840913" lon="11.924287"><ele>270.66666666666663</ele><time>2026-05-01T08:10:25.91Z</time></trkpt><trkpt lat="42.9840125" lon="11.9240752"><ele>268.0</ele><time>2026-05-01T08:10:26.91Z</time></trkpt><trkpt lat="42.9839374" lon="11.923882"><ele>267.66666666666663</ele><time>2026-05-01T08:10:27.909Z</time></trkpt><trkpt lat="42.983851" lon="11.9237007"><ele>267.3333333333333</ele><time>2026-05-01T08:10:28.909Z</time></trkpt><trkpt lat="42.9837449" lon="11.9235598"><ele>267.0</ele><time>2026-05-01T08:10:29.91Z</time></trkpt><trkpt lat="42.9836119" lon="11.9234842"><ele>267.0</ele><time>2026-05-01T08:10:30.909Z</time></trkpt><trkpt lat="42.9834516" lon="11.923486"><ele>267.0</ele><time>2026-05-01T08:10:31.91Z</time></trkpt><trkpt lat="42.9832778" lon="11.9235291"><ele>267.0</ele><time>2026-05-01T08:10:32.91Z</time></trkpt><trkpt lat="42.983121" lon="11.9236401"><ele>266.3333333333333</ele><time>2026-05-01T08:10:33.91Z</time></trkpt><trkpt lat="42.9829816" lon="11.9238251"><ele>265.66666666666663</ele><time>2026-05-01T08:10:34.909Z</time></trkpt><trkpt lat="42.982859" lon="11.9240382"><ele>265.0</ele><time>2026-05-01T08:10:35.91Z</time></trkpt><trkpt lat="42.9827412" lon="11.9242668"><ele>264.66666666666663</ele><time>2026-05-01T08:10:36.91Z</time></trkpt><trkpt lat="42.9826036" lon="11.9244965"><ele>264.3333333333333</ele><time>2026-05-01T08:10:37.91Z</time></trkpt><trkpt lat="42.9824512" lon="11.9247348"><ele>264.0</ele><time>2026-05-01T08:10:38.91Z</time></trkpt><trkpt lat="42.9822974" lon="11.924979"><ele>264.0</ele><time>2026-05-01T08:10:39.91Z</time></trkpt><trkpt lat="42.9821332" lon="11.9252175"><ele>264.0</ele><time>2026-05-01T08:10:40.91Z</time></trkpt><trkpt lat="42.9819538" lon="11.925418"><ele>264.0</ele><time>2026-05-01T08:10:41.91Z</time></trkpt><trkpt lat="42.9817398" lon="11.9255726"><ele>264.0</ele><time>2026-05-01T08:10:42.91Z</time></trkpt><trkpt lat="42.9814982" lon="11.9256905"><ele>263.5</ele><time>2026-05-01T08:10:43.91Z</time></trkpt><trkpt lat="42.9812504" lon="11.9257771"><ele>263.0</ele><time>2026-05-01T08:10:44.91Z</time></trkpt><trkpt lat="42.9809952" lon="11.9258557"><ele>264.0</ele><time>2026-05-01T08:10:45.91Z</time></trkpt><trkpt lat="42.9807277" lon="11.9259303"><ele>265.0</ele><time>2026-05-01T08:10:46.91Z</time></trkpt><trkpt lat="42.9804458" lon="11.9259944"><ele>265.0</ele><time>2026-05-01T08:10:47.91Z</time></trkpt><trkpt lat="42.9801766" lon="11.9260607"><ele>265.0</ele><time>2026-05-01T08:10:48.91Z</time></trkpt><trkpt lat="42.9799038" lon="11.9261173"><ele>264.0</ele><time>2026-05-01T08:10:49.909Z</time></trkpt><trkpt lat="42.9796253" lon="11.9261823"><ele>263.0</ele><time>2026-05-01T08:10:50.909Z</time></trkpt><trkpt lat="42.9793689" lon="11.9262414"><ele>262.5</ele><time>2026-05-01T08:10:51.91Z</time></trkpt><trkpt lat="42.9791094" lon="11.9263176"><ele>262.0</ele><time>2026-05-01T08:10:52.91Z</time></trkpt><trkpt lat="42.9788445" lon="11.9264109"><ele>262.0</ele><time>2026-05-01T08:10:53.91Z</time></trkpt><trkpt lat="42.9785654" lon="11.9265052"><ele>262.0</ele><time>2026-05-01T08:10:54.909Z</time></trkpt><trkpt lat="42.9782828" lon="11.9265923"><ele>262.0</ele><time>2026-05-01T08:10:55.909Z</time></trkpt><trkpt lat="42.9780133" lon="11.9266816"><ele>262.0</ele><time>2026-05-01T08:10:56.909Z</time></trkpt><trkpt lat="42.977758" lon="11.9267649"><ele>261.5</ele><time>2026-05-01T08:10:57.91Z</time></trkpt><trkpt lat="42.9775242" lon="11.9268424"><ele>261.0</ele><time>2026-05-01T08:10:58.91Z</time></trkpt><trkpt lat="42.9773171" lon="11.9269114"><ele>261.0</ele><time>2026-05-01T08:10:59.91Z</time></trkpt><trkpt lat="42.9771321" lon="11.9269764"><ele>261.0</ele><time>2026-05-01T08:11:00.91Z</time></trkpt><trkpt lat="42.9769633" lon="11.9270336"><ele>261.0</ele><time>2026-05-01T08:11:01.91Z</time></trkpt><trkpt lat="42.9768037" lon="11.9270832"><ele>261.25</ele><time>2026-05-01T08:11:02.91Z</time></trkpt><trkpt lat="42.9766526" lon="11.9271147"><ele>261.5</ele><time>2026-05-01T08:11:03.91Z</time></trkpt><trkpt lat="42.976515" lon="11.9271318"><ele>261.75</ele><time>2026-05-01T08:11:04.91Z</time></trkpt><trkpt lat="42.9763889" lon="11.9271258"><ele>262.0</ele><time>2026-05-01T08:11:05.91Z</time></trkpt><trkpt lat="42.97627" lon="11.9271106"><ele>262.0</ele><time>2026-05-01T08:11:06.91Z</time></trkpt><trkpt lat="42.9761519" lon="11.9270619"><ele>262.0</ele><time>2026-05-01T08:11:07.909Z</time></trkpt><trkpt lat="42.9760347" lon="11.9269971"><ele>262.0</ele><time>2026-05-01T08:11:08.909Z</time></trkpt><trkpt lat="42.975915" lon="11.9269258"><ele>262.0</ele><time>2026-05-01T08:11:09.91Z</time></trkpt><trkpt lat="42.9758045" lon="11.9268601"><ele>261.6</ele><time>2026-05-01T08:11:10.91Z</time></trkpt><trkpt lat="42.9757032" lon="11.9267975"><ele>261.2</ele><time>2026-05-01T08:11:11.91Z</time></trkpt><trkpt lat="42.9756156" lon="11.9267406"><ele>260.8</ele><time>2026-05-01T08:11:12.909Z</time></trkpt><trkpt lat="42.9755443" lon="11.9266797"><ele>260.4</ele><time>2026-05-01T08:11:13.91Z</time></trkpt><trkpt lat="42.9754961" lon="11.9266207"><ele>260.0</ele><time>2026-05-01T08:11:14.909Z</time></trkpt><trkpt lat="42.9754036" lon="11.9265119"><ele>260.0</ele><time>2026-05-01T08:11:16.91Z</time></trkpt><trkpt lat="42.9753257" lon="11.9264265"><ele>260.0</ele><time>2026-05-01T08:11:18.91Z</time></trkpt><trkpt lat="42.9752701" lon="11.9263642"><ele>260.0</ele><time>2026-05-01T08:11:20.91Z</time></trkpt><trkpt lat="42.975212" lon="11.9262995"><ele>260.0</ele><time>2026-05-01T08:11:23.91Z</time></trkpt><trkpt lat="42.9751452" lon="11.92625"><ele>260.0</ele><time>2026-05-01T08:12:07.911Z</time></trkpt><trkpt lat="42.975081" lon="11.9261955"><ele>260.0</ele><time>2026-05-01T08:12:08.91Z</time></trkpt><trkpt lat="42.9750143" lon="11.9261155"><ele>259.75</ele><time>2026-05-01T08:12:09.911Z</time></trkpt><trkpt lat="42.9749337" lon="11.9260282"><ele>259.5</ele><time>2026-05-01T08:12:10.911Z</time></trkpt><trkpt lat="42.9748411" lon="11.9259266"><ele>259.25</ele><time>2026-05-01T08:12:11.911Z</time></trkpt><trkpt lat="42.9747203" lon="11.9258101"><ele>259.0</ele><time>2026-05-01T08:12:12.911Z</time></trkpt><trkpt lat="42.9745875" lon="11.9256947"><ele>259.0</ele><time>2026-05-01T08:12:13.911Z</time></trkpt><trkpt lat="42.9744399" lon="11.9255666"><ele>259.0</ele><time>2026-05-01T08:12:14.911Z</time></trkpt><trkpt lat="42.97427" lon="11.9254112"><ele>259.0</ele><time>2026-05-01T08:12:15.91Z</time></trkpt><trkpt lat="42.9740823" lon="11.9252391"><ele>259.5</ele><time>2026-05-01T08:12:16.911Z</time></trkpt><trkpt lat="42.9738923" lon="11.9250615"><ele>260.0</ele><time>2026-05-01T08:12:17.911Z</time></trkpt><trkpt lat="42.9737107" lon="11.9248735"><ele>260.0</ele><time>2026-05-01T08:12:18.911Z</time></trkpt><trkpt lat="42.9735211" lon="11.9246683"><ele>260.0</ele><time>2026-05-01T08:12:19.911Z</time></trkpt><trkpt lat="42.9733356" lon="11.9244567"><ele>261.5</ele><time>2026-05-01T08:12:20.91Z</time></trkpt><trkpt lat="42.9731478" lon="11.9242338"><ele>263.0</ele><time>2026-05-01T08:12:21.911Z</time></trkpt><trkpt lat="42.9729666" lon="11.9240167"><ele>263.33333333333337</ele><time>2026-05-01T08:12:22.911Z</time></trkpt><trkpt lat="42.9728021" lon="11.9238229"><ele>263.6666666666667</ele><time>2026-05-01T08:12:23.911Z</time></trkpt><trkpt lat="42.9726523" lon="11.9236512"><ele>264.0</ele><time>2026-05-01T08:12:24.911Z</time></trkpt><trkpt lat="42.9724958" lon="11.9235036"><ele>264.0</ele><time>2026-05-01T08:12:25.911Z</time></trkpt><trkpt lat="42.9723256" lon="11.9234201"><ele>264.0</ele><time>2026-05-01T08:12:26.911Z</time></trkpt><trkpt lat="42.9721485" lon="11.9234041"><ele>264.0</ele><time>2026-05-01T08:12:27.911Z</time></trkpt><trkpt lat="42.9719551" lon="11.9234519"><ele>264.0</ele><time>2026-05-01T08:12:28.911Z</time></trkpt><trkpt lat="42.9717584" lon="11.9235257"><ele>264.0</ele><time>2026-05-01T08:12:29.911Z</time></trkpt><trkpt lat="42.9715698" lon="11.9236125"><ele>264.0</ele><time>2026-05-01T08:12:30.911Z</time></trkpt><trkpt lat="42.9713912" lon="11.9236831"><ele>266.0</ele><time>2026-05-01T08:12:31.911Z</time></trkpt><trkpt lat="42.9712457" lon="11.9237172"><ele>268.0</ele><time>2026-05-01T08:12:32.911Z</time></trkpt><trkpt lat="42.9711244" lon="11.9236931"><ele>270.0</ele><time>2026-05-01T08:12:33.911Z</time></trkpt><trkpt lat="42.9710191" lon="11.9236126"><ele>272.0</ele><time>2026-05-01T08:12:34.911Z</time></trkpt><trkpt lat="42.9709246" lon="11.9234553"><ele>274.33333333333337</ele><time>2026-05-01T08:12:35.911Z</time></trkpt><trkpt lat="42.9708559" lon="11.9232526"><ele>276.6666666666667</ele><time>2026-05-01T08:12:36.911Z</time></trkpt><trkpt lat="42.9708207" lon="11.9229852"><ele>279.0</ele><time>2026-05-01T08:12:37.911Z</time></trkpt><trkpt lat="42.9708284" lon="11.9227077"><ele>283.0</ele><time>2026-05-01T08:12:38.91Z</time></trkpt><trkpt lat="42.970871" lon="11.9224461"><ele>287.0</ele><time>2026-05-01T08:12:39.911Z</time></trkpt><trkpt lat="42.9709626" lon="11.9221708"><ele>291.0</ele><time>2026-05-01T08:12:40.911Z</time></trkpt><trkpt lat="42.9710819" lon="11.9218924"><ele>293.5</ele><time>2026-05-01T08:12:41.911Z</time></trkpt><trkpt lat="42.9712189" lon="11.921609"><ele>296.0</ele><time>2026-05-01T08:12:42.911Z</time></trkpt><trkpt lat="42.9713412" lon="11.9213601"><ele>296.0</ele><time>2026-05-01T08:12:43.911Z</time></trkpt><trkpt lat="42.9714334" lon="11.9211163"><ele>296.0</ele><time>2026-05-01T08:12:44.911Z</time></trkpt><trkpt lat="42.9714723" lon="11.9208748"><ele>296.0</ele><time>2026-05-01T08:12:45.911Z</time></trkpt><trkpt lat="42.9714607" lon="11.9206226"><ele>295.33333333333337</ele><time>2026-05-01T08:12:46.911Z</time></trkpt><trkpt lat="42.9713845" lon="11.9203751"><ele>294.6666666666667</ele><time>2026-05-01T08:12:47.911Z</time></trkpt><trkpt lat="42.9712657" lon="11.9201591"><ele>294.0</ele><time>2026-05-01T08:12:48.911Z</time></trkpt><trkpt lat="42.9711047" lon="11.9199604"><ele>292.0</ele><time>2026-05-01T08:12:49.911Z</time></trkpt><trkpt lat="42.9709095" lon="11.9197647"><ele>290.0</ele><time>2026-05-01T08:12:50.911Z</time></trkpt><trkpt lat="42.9707058" lon="11.9195608"><ele>294.0</ele><time>2026-05-01T08:12:51.911Z</time></trkpt><trkpt lat="42.970491" lon="11.9193435"><ele>298.0</ele><time>2026-05-01T08:12:52.91Z</time></trkpt><trkpt lat="42.970267" lon="11.9191228"><ele>299.5</ele><time>2026-05-01T08:12:53.911Z</time></trkpt><trkpt lat="42.9700339" lon="11.9188895"><ele>301.0</ele><time>2026-05-01T08:12:54.911Z</time></trkpt><trkpt lat="42.9697929" lon="11.9186637"><ele>301.0</ele><time>2026-05-01T08:12:55.911Z</time></trkpt><trkpt lat="42.9695663" lon="11.9184557"><ele>301.0</ele><time>2026-05-01T08:12:56.91Z</time></trkpt><trkpt lat="42.9693584" lon="11.9182652"><ele>303.0</ele><time>2026-05-01T08:12:57.91Z</time></trkpt><trkpt lat="42.96916" lon="11.9180919"><ele>305.0</ele><time>2026-05-01T08:12:58.911Z</time></trkpt><trkpt lat="42.9689762" lon="11.9179006"><ele>305.0</ele><time>2026-05-01T08:12:59.911Z</time></trkpt><trkpt lat="42.9687908" lon="11.9176567"><ele>305.0</ele><time>2026-05-01T08:13:00.911Z</time></trkpt><trkpt lat="42.9686048" lon="11.917374"><ele>305.5</ele><time>2026-05-01T08:13:01.911Z</time></trkpt><trkpt lat="42.9684216" lon="11.9170996"><ele>306.0</ele><time>2026-05-01T08:13:02.911Z</time></trkpt><trkpt lat="42.9682528" lon="11.9168272"><ele>309.0</ele><time>2026-05-01T08:13:03.911Z</time></trkpt><trkpt lat="42.9680947" lon="11.916536"><ele>312.0</ele><time>2026-05-01T08:13:04.91Z</time></trkpt><trkpt lat="42.967948" lon="11.9162133"><ele>312.0</ele><time>2026-05-01T08:13:05.911Z</time></trkpt><trkpt lat="42.9678127" lon="11.9158835"><ele>312.0</ele><time>2026-05-01T08:13:06.91Z</time></trkpt><trkpt lat="42.9676626" lon="11.9155541"><ele>312.0</ele><time>2026-05-01T08:13:07.91Z</time></trkpt><trkpt lat="42.9675288" lon="11.915228"><ele>312.0</ele><time>2026-05-01T08:13:08.911Z</time></trkpt><trkpt lat="42.9674013" lon="11.9148919"><ele>317.5</ele><time>2026-05-01T08:13:09.911Z</time></trkpt><trkpt lat="42.9673043" lon="11.9145387"><ele>323.0</ele><time>2026-05-01T08:13:10.91Z</time></trkpt><trkpt lat="42.9672199" lon="11.9141999"><ele>327.33333333333337</ele><time>2026-05-01T08:13:11.911Z</time></trkpt><trkpt lat="42.9671454" lon="11.9138896"><ele>331.6666666666667</ele><time>2026-05-01T08:13:12.91Z</time></trkpt><trkpt lat="42.967074" lon="11.9136216"><ele>336.0</ele><time>2026-05-01T08:13:13.911Z</time></trkpt><trkpt lat="42.9670088" lon="11.91335"><ele>337.6666666666667</ele><time>2026-05-01T08:13:14.911Z</time></trkpt><trkpt lat="42.9669483" lon="11.9131033"><ele>339.33333333333337</ele><time>2026-05-01T08:13:15.91Z</time></trkpt><trkpt lat="42.9668866" lon="11.9128578"><ele>341.0</ele><time>2026-05-01T08:13:16.911Z</time></trkpt><trkpt lat="42.9668225" lon="11.9126045"><ele>341.33333333333337</ele><time>2026-05-01T08:13:17.91Z</time></trkpt><trkpt lat="42.9667587" lon="11.9123591"><ele>341.6666666666667</ele><time>2026-05-01T08:13:18.91Z</time></trkpt><trkpt lat="42.9667031" lon="11.9121077"><ele>342.0</ele><time>2026-05-01T08:13:19.91Z</time></trkpt><trkpt lat="42.9666533" lon="11.9118476"><ele>340.0</ele><time>2026-05-01T08:13:20.911Z</time></trkpt><trkpt lat="42.9666044" lon="11.9116115"><ele>338.0</ele><time>2026-05-01T08:13:21.911Z</time></trkpt><trkpt lat="42.9665608" lon="11.9113706"><ele>336.0</ele><time>2026-05-01T08:13:22.911Z</time></trkpt><trkpt lat="42.9665292" lon="11.9111479"><ele>336.0</ele><time>2026-05-01T08:13:23.911Z</time></trkpt><trkpt lat="42.9664967" lon="11.9109569"><ele>336.0</ele><time>2026-05-01T08:13:24.91Z</time></trkpt><trkpt lat="42.966464" lon="11.910775"><ele>336.0</ele><time>2026-05-01T08:13:25.911Z</time></trkpt><trkpt lat="42.9664339" lon="11.910594"><ele>336.0</ele><time>2026-05-01T08:13:26.911Z</time></trkpt><trkpt lat="42.9664059" lon="11.9104153"><ele>336.0</ele><time>2026-05-01T08:13:27.911Z</time></trkpt><trkpt lat="42.966393" lon="11.9102354"><ele>336.0</ele><time>2026-05-01T08:13:28.911Z</time></trkpt><trkpt lat="42.966379" lon="11.9100522"><ele>336.0</ele><time>2026-05-01T08:13:29.911Z</time></trkpt><trkpt lat="42.9663941" lon="11.9098679"><ele>336.0</ele><time>2026-05-01T08:13:30.91Z</time></trkpt><trkpt lat="42.9664208" lon="11.9096647"><ele>336.0</ele><time>2026-05-01T08:13:31.911Z</time></trkpt><trkpt lat="42.9664555" lon="11.9094508"><ele>336.0</ele><time>2026-05-01T08:13:32.91Z</time></trkpt><trkpt lat="42.9664971" lon="11.9092184"><ele>336.0</ele><time>2026-05-01T08:13:33.911Z</time></trkpt><trkpt lat="42.9665386" lon="11.9089805"><ele>333.3333333333333</ele><time>2026-05-01T08:13:34.91Z</time></trkpt><trkpt lat="42.9665943" lon="11.9087436"><ele>330.66666666666663</ele><time>2026-05-01T08:13:35.911Z</time></trkpt><trkpt lat="42.9666593" lon="11.9085038"><ele>328.0</ele><time>2026-05-01T08:13:36.911Z</time></trkpt><trkpt lat="42.9667245" lon="11.9082677"><ele>319.0</ele><time>2026-05-01T08:13:37.91Z</time></trkpt><trkpt lat="42.9667909" lon="11.9080322"><ele>310.0</ele><time>2026-05-01T08:13:38.91Z</time></trkpt><trkpt lat="42.9668488" lon="11.907806"><ele>301.0</ele><time>2026-05-01T08:13:39.911Z</time></trkpt><trkpt lat="42.966896" lon="11.9075951"><ele>304.66666666666663</ele><time>2026-05-01T08:13:40.911Z</time></trkpt><trkpt lat="42.966912" lon="11.9073857"><ele>308.3333333333333</ele><time>2026-05-01T08:13:41.911Z</time></trkpt><trkpt lat="42.9669274" lon="11.9071749"><ele>312.0</ele><time>2026-05-01T08:13:42.911Z</time></trkpt><trkpt lat="42.9669316" lon="11.9069602"><ele>317.3333333333333</ele><time>2026-05-01T08:13:43.911Z</time></trkpt><trkpt lat="42.9669351" lon="11.9067353"><ele>322.66666666666663</ele><time>2026-05-01T08:13:44.911Z</time></trkpt><trkpt lat="42.9669364" lon="11.9064987"><ele>328.0</ele><time>2026-05-01T08:13:45.91Z</time></trkpt><trkpt lat="42.9669465" lon="11.906265"><ele>328.0</ele><time>2026-05-01T08:13:46.911Z</time></trkpt><trkpt lat="42.9669585" lon="11.9060452"><ele>328.0</ele><time>2026-05-01T08:13:47.911Z</time></trkpt><trkpt lat="42.9669683" lon="11.9058362"><ele>328.0</ele><time>2026-05-01T08:13:48.91Z</time></trkpt><trkpt lat="42.9669786" lon="11.9056305"><ele>327.25</ele><time>2026-05-01T08:13:49.911Z</time></trkpt><trkpt lat="42.9669851" lon="11.9054366"><ele>326.5</ele><time>2026-05-01T08:13:50.911Z</time></trkpt><trkpt lat="42.9669992" lon="11.9052452"><ele>325.75</ele><time>2026-05-01T08:13:51.91Z</time></trkpt><trkpt lat="42.9670103" lon="11.9050521"><ele>325.0</ele><time>2026-05-01T08:13:52.911Z</time></trkpt><trkpt lat="42.967023" lon="11.9048625"><ele>323.5</ele><time>2026-05-01T08:13:53.91Z</time></trkpt><trkpt lat="42.9670274" lon="11.9046837"><ele>322.0</ele><time>2026-05-01T08:13:54.911Z</time></trkpt><trkpt lat="42.9670324" lon="11.9044846"><ele>320.5</ele><time>2026-05-01T08:13:55.911Z</time></trkpt><trkpt lat="42.9670457" lon="11.9042774"><ele>319.0</ele><time>2026-05-01T08:13:56.91Z</time></trkpt><trkpt lat="42.9670518" lon="11.9040635"><ele>319.0</ele><time>2026-05-01T08:13:57.911Z</time></trkpt><trkpt lat="42.9670602" lon="11.9038543"><ele>319.0</ele><time>2026-05-01T08:13:58.91Z</time></trkpt><trkpt lat="42.9670575" lon="11.9036527"><ele>319.0</ele><time>2026-05-01T08:13:59.91Z</time></trkpt><trkpt lat="42.9670532" lon="11.903454"><ele>319.0</ele><time>2026-05-01T08:14:00.911Z</time></trkpt><trkpt lat="42.9670409" lon="11.9032533"><ele>319.25</ele><time>2026-05-01T08:14:01.911Z</time></trkpt><trkpt lat="42.9670185" lon="11.9030762"><ele>319.5</ele><time>2026-05-01T08:14:02.91Z</time></trkpt><trkpt lat="42.9669849" lon="11.9029145"><ele>319.75</ele><time>2026-05-01T08:14:03.911Z</time></trkpt><trkpt lat="42.9669402" lon="11.9027695"><ele>320.0</ele><time>2026-05-01T08:14:04.91Z</time></trkpt><trkpt lat="42.9669011" lon="11.9026555"><ele>320.0</ele><time>2026-05-01T08:14:05.91Z</time></trkpt><trkpt lat="42.9668662" lon="11.902554"><ele>320.0</ele><time>2026-05-01T08:14:06.911Z</time></trkpt><trkpt lat="42.9667687" lon="11.9025345"><ele>320.0</ele><time>2026-05-01T08:14:08.911Z</time></trkpt><trkpt lat="42.9667165" lon="11.9026072"><ele>320.0</ele><time>2026-05-01T08:14:09.911Z</time></trkpt><trkpt lat="42.9666666" lon="11.902726"><ele>320.0</ele><time>2026-05-01T08:14:10.911Z</time></trkpt><trkpt lat="42.9665964" lon="11.9028749"><ele>321.6666666666667</ele><time>2026-05-01T08:14:11.911Z</time></trkpt><trkpt lat="42.9665106" lon="11.9030486"><ele>323.3333333333333</ele><time>2026-05-01T08:14:12.911Z</time></trkpt><trkpt lat="42.966449" lon="11.903257"><ele>325.0</ele><time>2026-05-01T08:14:13.911Z</time></trkpt><trkpt lat="42.9663828" lon="11.9034729"><ele>325.0</ele><time>2026-05-01T08:14:14.911Z</time></trkpt><trkpt lat="42.966332" lon="11.9036989"><ele>325.0</ele><time>2026-05-01T08:14:15.91Z</time></trkpt><trkpt lat="42.9662793" lon="11.9039139"><ele>325.0</ele><time>2026-05-01T08:14:16.91Z</time></trkpt><trkpt lat="42.9662159" lon="11.9041189"><ele>324.5</ele><time>2026-05-01T08:14:17.91Z</time></trkpt><trkpt lat="42.9661374" lon="11.9042939"><ele>324.0</ele><time>2026-05-01T08:14:18.911Z</time></trkpt><trkpt lat="42.966032" lon="11.9044232"><ele>323.5</ele><time>2026-05-01T08:14:19.911Z</time></trkpt><trkpt lat="42.9658975" lon="11.9044937"><ele>323.0</ele><time>2026-05-01T08:14:20.91Z</time></trkpt><trkpt lat="42.9657374" lon="11.904538"><ele>321.75</ele><time>2026-05-01T08:14:21.911Z</time></trkpt><trkpt lat="42.9655844" lon="11.9045633"><ele>320.5</ele><time>2026-05-01T08:14:22.91Z</time></trkpt><trkpt lat="42.9654517" lon="11.9046084"><ele>319.25</ele><time>2026-05-01T08:14:23.91Z</time></trkpt><trkpt lat="42.965349" lon="11.9046941"><ele>318.0</ele><time>2026-05-01T08:14:24.91Z</time></trkpt><trkpt lat="42.9652899" lon="11.9048249"><ele>318.0</ele><time>2026-05-01T08:14:25.91Z</time></trkpt><trkpt lat="42.9652925" lon="11.9049868"><ele>318.0</ele><time>2026-05-01T08:14:26.91Z</time></trkpt><trkpt lat="42.9653425" lon="11.9051588"><ele>318.0</ele><time>2026-05-01T08:14:27.911Z</time></trkpt><trkpt lat="42.9654161" lon="11.9053203"><ele>318.0</ele><time>2026-05-01T08:14:28.911Z</time></trkpt><trkpt lat="42.9654803" lon="11.9054889"><ele>317.75</ele><time>2026-05-01T08:14:29.911Z</time></trkpt><trkpt lat="42.9655284" lon="11.9056521"><ele>317.5</ele><time>2026-05-01T08:14:30.911Z</time></trkpt><trkpt lat="42.9655503" lon="11.9058204"><ele>317.25</ele><time>2026-05-01T08:14:31.911Z</time></trkpt><trkpt lat="42.9655339" lon="11.9059874"><ele>317.0</ele><time>2026-05-01T08:14:32.911Z</time></trkpt><trkpt lat="42.965473" lon="11.9061308"><ele>316.5</ele><time>2026-05-01T08:14:33.911Z</time></trkpt><trkpt lat="42.9653742" lon="11.9062441"><ele>316.0</ele><time>2026-05-01T08:14:34.911Z</time></trkpt><trkpt lat="42.9652622" lon="11.9062775"><ele>315.5</ele><time>2026-05-01T08:14:35.911Z</time></trkpt><trkpt lat="42.9651376" lon="11.9062201"><ele>315.0</ele><time>2026-05-01T08:14:36.91Z</time></trkpt><trkpt lat="42.9650004" lon="11.9060765"><ele>315.0</ele><time>2026-05-01T08:14:37.911Z</time></trkpt><trkpt lat="42.9648627" lon="11.9059222"><ele>315.0</ele><time>2026-05-01T08:14:38.911Z</time></trkpt><trkpt lat="42.9647135" lon="11.905774"><ele>315.0</ele><time>2026-05-01T08:14:39.91Z</time></trkpt><trkpt lat="42.9645714" lon="11.9056732"><ele>312.6666666666667</ele><time>2026-05-01T08:14:40.911Z</time></trkpt><trkpt lat="42.964427" lon="11.9056199"><ele>310.33333333333337</ele><time>2026-05-01T08:14:41.911Z</time></trkpt><trkpt lat="42.9642711" lon="11.9056133"><ele>308.0</ele><time>2026-05-01T08:14:42.911Z</time></trkpt><trkpt lat="42.9640983" lon="11.9056066"><ele>307.33333333333337</ele><time>2026-05-01T08:14:43.911Z</time></trkpt><trkpt lat="42.9639343" lon="11.9055937"><ele>306.6666666666667</ele><time>2026-05-01T08:14:44.91Z</time></trkpt><trkpt lat="42.9637676" lon="11.9055961"><ele>306.0</ele><time>2026-05-01T08:14:45.911Z</time></trkpt><trkpt lat="42.9636107" lon="11.9055936"><ele>306.0</ele><time>2026-05-01T08:14:46.911Z</time></trkpt><trkpt lat="42.9634597" lon="11.9056175"><ele>306.0</ele><time>2026-05-01T08:14:47.911Z</time></trkpt><trkpt lat="42.9633256" lon="11.9057134"><ele>306.0</ele><time>2026-05-01T08:14:48.91Z</time></trkpt><trkpt lat="42.9632056" lon="11.9058747"><ele>303.6666666666667</ele><time>2026-05-01T08:14:49.91Z</time></trkpt><trkpt lat="42.9630764" lon="11.906066"><ele>301.33333333333337</ele><time>2026-05-01T08:14:50.911Z</time></trkpt><trkpt lat="42.9629404" lon="11.9062618"><ele>299.0</ele><time>2026-05-01T08:14:51.91Z</time></trkpt><trkpt lat="42.9627981" lon="11.9064708"><ele>299.0</ele><time>2026-05-01T08:14:52.911Z</time></trkpt><trkpt lat="42.9626603" lon="11.9066664"><ele>299.0</ele><time>2026-05-01T08:14:53.911Z</time></trkpt><trkpt lat="42.9625305" lon="11.9068757"><ele>299.0</ele><time>2026-05-01T08:14:54.911Z</time></trkpt><trkpt lat="42.9624141" lon="11.9070977"><ele>296.33333333333337</ele><time>2026-05-01T08:14:55.91Z</time></trkpt><trkpt lat="42.9623074" lon="11.9073126"><ele>293.6666666666667</ele><time>2026-05-01T08:14:56.911Z</time></trkpt><trkpt lat="42.962216" lon="11.9075321"><ele>291.0</ele><time>2026-05-01T08:14:57.91Z</time></trkpt><trkpt lat="42.9621371" lon="11.9077352"><ele>291.0</ele><time>2026-05-01T08:14:58.911Z</time></trkpt><trkpt lat="42.9620566" lon="11.9079169"><ele>291.0</ele><time>2026-05-01T08:14:59.91Z</time></trkpt><trkpt lat="42.961968" lon="11.90807"><ele>291.0</ele><time>2026-05-01T08:15:00.911Z</time></trkpt><trkpt lat="42.9618807" lon="11.9082222"><ele>291.0</ele><time>2026-05-01T08:15:01.91Z</time></trkpt><trkpt lat="42.9617732" lon="11.9083309"><ele>290.3333333333333</ele><time>2026-05-01T08:15:02.91Z</time></trkpt><trkpt lat="42.9616261" lon="11.9083993"><ele>289.66666666666663</ele><time>2026-05-01T08:15:03.911Z</time></trkpt><trkpt lat="42.9614475" lon="11.9084571"><ele>289.0</ele><time>2026-05-01T08:15:04.911Z</time></trkpt><trkpt lat="42.9612293" lon="11.9084887"><ele>294.0</ele><time>2026-05-01T08:15:05.911Z</time></trkpt><trkpt lat="42.9609999" lon="11.9085428"><ele>299.0</ele><time>2026-05-01T08:15:06.911Z</time></trkpt><trkpt lat="42.9607662" lon="11.9086067"><ele>299.0</ele><time>2026-05-01T08:15:07.911Z</time></trkpt><trkpt lat="42.9605395" lon="11.9086608"><ele>299.0</ele><time>2026-05-01T08:15:08.91Z</time></trkpt><trkpt lat="42.9603243" lon="11.9086993"><ele>299.0</ele><time>2026-05-01T08:15:09.911Z</time></trkpt><trkpt lat="42.9601243" lon="11.908737"><ele>294.0</ele><time>2026-05-01T08:15:10.911Z</time></trkpt><trkpt lat="42.9599249" lon="11.908778"><ele>289.0</ele><time>2026-05-01T08:15:11.91Z</time></trkpt><trkpt lat="42.9597383" lon="11.9088225"><ele>284.0</ele><time>2026-05-01T08:15:12.911Z</time></trkpt><trkpt lat="42.9595648" lon="11.9088691"><ele>284.0</ele><time>2026-05-01T08:15:13.91Z</time></trkpt><trkpt lat="42.9594052" lon="11.9089331"><ele>284.0</ele><time>2026-05-01T08:15:14.91Z</time></trkpt><trkpt lat="42.9592634" lon="11.9090523"><ele>284.0</ele><time>2026-05-01T08:15:15.911Z</time></trkpt><trkpt lat="42.9591284" lon="11.9092317"><ele>281.0</ele><time>2026-05-01T08:15:16.911Z</time></trkpt><trkpt lat="42.9589869" lon="11.9094609"><ele>278.0</ele><time>2026-05-01T08:15:17.911Z</time></trkpt><trkpt lat="42.9588264" lon="11.9097079"><ele>278.0</ele><time>2026-05-01T08:15:18.911Z</time></trkpt><trkpt lat="42.9586444" lon="11.9099538"><ele>278.0</ele><time>2026-05-01T08:15:19.911Z</time></trkpt><trkpt lat="42.9584555" lon="11.9102053"><ele>275.0</ele><time>2026-05-01T08:15:20.911Z</time></trkpt><trkpt lat="42.9582583" lon="11.9104613"><ele>272.0</ele><time>2026-05-01T08:15:21.911Z</time></trkpt><trkpt lat="42.9580589" lon="11.9107297"><ele>272.0</ele><time>2026-05-01T08:15:22.911Z</time></trkpt><trkpt lat="42.9578601" lon="11.911004"><ele>272.0</ele><time>2026-05-01T08:15:23.91Z</time></trkpt><trkpt lat="42.957665" lon="11.9112766"><ele>271.5</ele><time>2026-05-01T08:15:24.911Z</time></trkpt><trkpt lat="42.957469" lon="11.9115596"><ele>271.0</ele><time>2026-05-01T08:15:25.911Z</time></trkpt><trkpt lat="42.9572647" lon="11.9118398"><ele>270.5</ele><time>2026-05-01T08:15:26.91Z</time></trkpt><trkpt lat="42.9570495" lon="11.9121211"><ele>270.0</ele><time>2026-05-01T08:15:27.911Z</time></trkpt><trkpt lat="42.9568315" lon="11.9124106"><ele>270.5</ele><time>2026-05-01T08:15:28.911Z</time></trkpt><trkpt lat="42.9566109" lon="11.912703"><ele>271.0</ele><time>2026-05-01T08:15:29.911Z</time></trkpt><trkpt lat="42.9563917" lon="11.9130006"><ele>271.0</ele><time>2026-05-01T08:15:30.91Z</time></trkpt><trkpt lat="42.9561771" lon="11.9133025"><ele>271.0</ele><time>2026-05-01T08:15:31.911Z</time></trkpt><trkpt lat="42.9559722" lon="11.9136042"><ele>276.5</ele><time>2026-05-01T08:15:32.911Z</time></trkpt><trkpt lat="42.9557772" lon="11.9138888"><ele>282.0</ele><time>2026-05-01T08:15:33.911Z</time></trkpt><trkpt lat="42.9555929" lon="11.9141461"><ele>283.0</ele><time>2026-05-01T08:15:34.911Z</time></trkpt><trkpt lat="42.955426" lon="11.9143922"><ele>284.0</ele><time>2026-05-01T08:15:35.911Z</time></trkpt><trkpt lat="42.9552612" lon="11.9146268"><ele>284.0</ele><time>2026-05-01T08:15:36.911Z</time></trkpt><trkpt lat="42.9550959" lon="11.9148605"><ele>284.0</ele><time>2026-05-01T08:15:37.911Z</time></trkpt><trkpt lat="42.9549173" lon="11.9150724"><ele>285.0</ele><time>2026-05-01T08:15:38.911Z</time></trkpt><trkpt lat="42.9547086" lon="11.9152692"><ele>286.0</ele><time>2026-05-01T08:15:39.911Z</time></trkpt><trkpt lat="42.9544868" lon="11.9154527"><ele>286.0</ele><time>2026-05-01T08:15:40.911Z</time></trkpt><trkpt lat="42.9542653" lon="11.9156301"><ele>286.0</ele><time>2026-05-01T08:15:41.911Z</time></trkpt><trkpt lat="42.9540349" lon="11.9157996"><ele>288.3333333333333</ele><time>2026-05-01T08:15:42.911Z</time></trkpt><trkpt lat="42.953834" lon="11.9159523"><ele>290.6666666666667</ele><time>2026-05-01T08:15:43.911Z</time></trkpt><trkpt lat="42.9536787" lon="11.9160608"><ele>293.0</ele><time>2026-05-01T08:15:44.91Z</time></trkpt><trkpt lat="42.9535479" lon="11.9161725"><ele>293.0</ele><time>2026-05-01T08:15:45.911Z</time></trkpt><trkpt lat="42.9534302" lon="11.9162784"><ele>293.0</ele><time>2026-05-01T08:15:46.911Z</time></trkpt><trkpt lat="42.953323" lon="11.9163331"><ele>293.0</ele><time>2026-05-01T08:15:47.911Z</time></trkpt><trkpt lat="42.9532431" lon="11.9163627"><ele>293.0</ele><time>2026-05-01T08:15:48.911Z</time></trkpt><trkpt lat="42.9531636" lon="11.9163269"><ele>293.0</ele><time>2026-05-01T08:15:49.911Z</time></trkpt><trkpt lat="42.9530784" lon="11.91619"><ele>293.6666666666667</ele><time>2026-05-01T08:15:50.911Z</time></trkpt><trkpt lat="42.9530025" lon="11.915989"><ele>294.3333333333333</ele><time>2026-05-01T08:15:51.911Z</time></trkpt><trkpt lat="42.9529357" lon="11.9157929"><ele>295.0</ele><time>2026-05-01T08:15:52.91Z</time></trkpt><trkpt lat="42.9528807" lon="11.9156348"><ele>295.0</ele><time>2026-05-01T08:15:53.91Z</time></trkpt><trkpt lat="42.9528019" lon="11.9155248"><ele>295.0</ele><time>2026-05-01T08:15:54.91Z</time></trkpt><trkpt lat="42.9526926" lon="11.9155328"><ele>295.0</ele><time>2026-05-01T08:15:55.91Z</time></trkpt><trkpt lat="42.952591" lon="11.915588"><ele>295.0</ele><time>2026-05-01T08:15:56.911Z</time></trkpt><trkpt lat="42.9525363" lon="11.9157584"><ele>291.0</ele><time>2026-05-01T08:15:57.91Z</time></trkpt><trkpt lat="42.9524975" lon="11.9159514"><ele>287.0</ele><time>2026-05-01T08:15:58.91Z</time></trkpt><trkpt lat="42.9524824" lon="11.9162102"><ele>283.0</ele><time>2026-05-01T08:15:59.91Z</time></trkpt><trkpt lat="42.9524569" lon="11.9164846"><ele>282.3333333333333</ele><time>2026-05-01T08:16:00.911Z</time></trkpt><trkpt lat="42.952427" lon="11.9167485"><ele>281.6666666666667</ele><time>2026-05-01T08:16:01.911Z</time></trkpt><trkpt lat="42.9523547" lon="11.917007"><ele>281.0</ele><time>2026-05-01T08:16:02.911Z</time></trkpt><trkpt lat="42.9522277" lon="11.9172334"><ele>281.0</ele><time>2026-05-01T08:16:03.911Z</time></trkpt><trkpt lat="42.9520488" lon="11.9174368"><ele>281.0</ele><time>2026-05-01T08:16:04.91Z</time></trkpt><trkpt lat="42.9518338" lon="11.9176232"><ele>276.0</ele><time>2026-05-01T08:16:05.91Z</time></trkpt><trkpt lat="42.951595" lon="11.9178289"><ele>271.0</ele><time>2026-05-01T08:16:06.911Z</time></trkpt><trkpt lat="42.9513435" lon="11.9180448"><ele>271.0</ele><time>2026-05-01T08:16:07.911Z</time></trkpt><trkpt lat="42.951082" lon="11.9182624"><ele>271.0</ele><time>2026-05-01T08:16:08.911Z</time></trkpt><trkpt lat="42.9508192" lon="11.9184852"><ele>272.0</ele><time>2026-05-01T08:16:09.911Z</time></trkpt><trkpt lat="42.9505531" lon="11.9187258"><ele>273.0</ele><time>2026-05-01T08:16:10.91Z</time></trkpt><trkpt lat="42.9502784" lon="11.9189648"><ele>275.5</ele><time>2026-05-01T08:16:11.91Z</time></trkpt><trkpt lat="42.9500022" lon="11.9192021"><ele>278.0</ele><time>2026-05-01T08:16:12.911Z</time></trkpt><trkpt lat="42.949731" lon="11.9194359"><ele>278.0</ele><time>2026-05-01T08:16:13.911Z</time></trkpt><trkpt lat="42.9494752" lon="11.9196585"><ele>278.0</ele><time>2026-05-01T08:16:14.91Z</time></trkpt><trkpt lat="42.9492419" lon="11.919854"><ele>282.0</ele><time>2026-05-01T08:16:15.91Z</time></trkpt><trkpt lat="42.9490337" lon="11.9200527"><ele>286.0</ele><time>2026-05-01T08:16:16.911Z</time></trkpt><trkpt lat="42.9488384" lon="11.9202558"><ele>286.5</ele><time>2026-05-01T08:16:17.911Z</time></trkpt><trkpt lat="42.9486525" lon="11.9204736"><ele>287.0</ele><time>2026-05-01T08:16:18.911Z</time></trkpt><trkpt lat="42.9484831" lon="11.9206852"><ele>289.33333333333337</ele><time>2026-05-01T08:16:19.911Z</time></trkpt><trkpt lat="42.9483291" lon="11.9208828"><ele>291.6666666666667</ele><time>2026-05-01T08:16:20.911Z</time></trkpt><trkpt lat="42.9482036" lon="11.9210774"><ele>294.0</ele><time>2026-05-01T08:16:21.911Z</time></trkpt><trkpt lat="42.9480933" lon="11.9212252"><ele>293.75</ele><time>2026-05-01T08:16:22.91Z</time></trkpt><trkpt lat="42.9479975" lon="11.9213474"><ele>293.5</ele><time>2026-05-01T08:16:23.911Z</time></trkpt><trkpt lat="42.9478831" lon="11.9214531"><ele>293.25</ele><time>2026-05-01T08:16:24.911Z</time></trkpt><trkpt lat="42.947731" lon="11.9215246"><ele>293.0</ele><time>2026-05-01T08:16:25.911Z</time></trkpt><trkpt lat="42.9475395" lon="11.9216037"><ele>293.0</ele><time>2026-05-01T08:16:26.911Z</time></trkpt><trkpt lat="42.9473224" lon="11.9217074"><ele>293.0</ele><time>2026-05-01T08:16:27.91Z</time></trkpt><trkpt lat="42.9470973" lon="11.9218326"><ele>292.0</ele><time>2026-05-01T08:16:28.911Z</time></trkpt><trkpt lat="42.9468569" lon="11.9219593"><ele>291.0</ele><time>2026-05-01T08:16:29.911Z</time></trkpt><trkpt lat="42.9465997" lon="11.922079"><ele>288.0</ele><time>2026-05-01T08:16:30.91Z</time></trkpt><trkpt lat="42.9463341" lon="11.9222089"><ele>285.0</ele><time>2026-05-01T08:16:31.911Z</time></trkpt><trkpt lat="42.9460631" lon="11.9223533"><ele>284.0</ele><time>2026-05-01T08:16:32.91Z</time></trkpt><trkpt lat="42.9457897" lon="11.9224975"><ele>283.0</ele><time>2026-05-01T08:16:33.91Z</time></trkpt><trkpt lat="42.9455206" lon="11.922641"><ele>279.5</ele><time>2026-05-01T08:16:34.911Z</time></trkpt><trkpt lat="42.9452613" lon="11.9227789"><ele>276.0</ele><time>2026-05-01T08:16:35.91Z</time></trkpt><trkpt lat="42.9450111" lon="11.922897"><ele>274.5</ele><time>2026-05-01T08:16:36.91Z</time></trkpt><trkpt lat="42.9447789" lon="11.9230193"><ele>273.0</ele><time>2026-05-01T08:16:37.911Z</time></trkpt><trkpt lat="42.9445552" lon="11.9231359"><ele>273.0</ele><time>2026-05-01T08:16:38.911Z</time></trkpt><trkpt lat="42.9443468" lon="11.9232514"><ele>273.0</ele><time>2026-05-01T08:16:39.911Z</time></trkpt><trkpt lat="42.9441436" lon="11.9233543"><ele>273.0</ele><time>2026-05-01T08:16:40.91Z</time></trkpt><trkpt lat="42.9439446" lon="11.9234521"><ele>271.0</ele><time>2026-05-01T08:16:41.911Z</time></trkpt><trkpt lat="42.9437433" lon="11.9235554"><ele>269.0</ele><time>2026-05-01T08:16:42.911Z</time></trkpt><trkpt lat="42.9435228" lon="11.923665"><ele>269.0</ele><time>2026-05-01T08:16:43.911Z</time></trkpt><trkpt lat="42.9432938" lon="11.9237784"><ele>269.0</ele><time>2026-05-01T08:16:44.911Z</time></trkpt><trkpt lat="42.943072" lon="11.9238932"><ele>269.0</ele><time>2026-05-01T08:16:45.911Z</time></trkpt><trkpt lat="42.9428527" lon="11.9240088"><ele>269.0</ele><time>2026-05-01T08:16:46.91Z</time></trkpt><trkpt lat="42.9426406" lon="11.9241399"><ele>269.0</ele><time>2026-05-01T08:16:47.911Z</time></trkpt><trkpt lat="42.94243" lon="11.9243021"><ele>269.0</ele><time>2026-05-01T08:16:48.911Z</time></trkpt><trkpt lat="42.9422102" lon="11.9244899"><ele>269.0</ele><time>2026-05-01T08:16:49.911Z</time></trkpt><trkpt lat="42.9419765" lon="11.9247046"><ele>269.0</ele><time>2026-05-01T08:16:50.91Z</time></trkpt><trkpt lat="42.9417452" lon="11.9249091"><ele>270.0</ele><time>2026-05-01T08:16:51.911Z</time></trkpt><trkpt lat="42.9415249" lon="11.9250955"><ele>271.0</ele><time>2026-05-01T08:16:52.911Z</time></trkpt><trkpt lat="42.9413232" lon="11.9252694"><ele>271.0</ele><time>2026-05-01T08:16:53.911Z</time></trkpt><trkpt lat="42.9411628" lon="11.92542"><ele>271.0</ele><time>2026-05-01T08:16:54.911Z</time></trkpt><trkpt lat="42.9410306" lon="11.9255314"><ele>271.0</ele><time>2026-05-01T08:16:55.91Z</time></trkpt><trkpt lat="42.9409117" lon="11.9256115"><ele>273.5</ele><time>2026-05-01T08:16:56.911Z</time></trkpt><trkpt lat="42.9407933" lon="11.9256231"><ele>276.0</ele><time>2026-05-01T08:16:57.911Z</time></trkpt><trkpt lat="42.9406674" lon="11.9255544"><ele>278.5</ele><time>2026-05-01T08:16:58.911Z</time></trkpt><trkpt lat="42.9405537" lon="11.9254064"><ele>281.0</ele><time>2026-05-01T08:16:59.911Z</time></trkpt><trkpt lat="42.9404606" lon="11.9251954"><ele>279.33333333333337</ele><time>2026-05-01T08:17:00.91Z</time></trkpt><trkpt lat="42.9403684" lon="11.9249896"><ele>277.6666666666667</ele><time>2026-05-01T08:17:01.911Z</time></trkpt><trkpt lat="42.9402775" lon="11.9248082"><ele>276.0</ele><time>2026-05-01T08:17:02.911Z</time></trkpt><trkpt lat="42.9401946" lon="11.9247022"><ele>276.0</ele><time>2026-05-01T08:17:03.911Z</time></trkpt><trkpt lat="42.9400845" lon="11.9246876"><ele>276.0</ele><time>2026-05-01T08:17:04.911Z</time></trkpt><trkpt lat="42.9399535" lon="11.9247721"><ele>276.0</ele><time>2026-05-01T08:17:05.911Z</time></trkpt><trkpt lat="42.9398638" lon="11.9249794"><ele>276.0</ele><time>2026-05-01T08:17:06.911Z</time></trkpt><trkpt lat="42.9397732" lon="11.9251781"><ele>282.0</ele><time>2026-05-01T08:17:07.911Z</time></trkpt><trkpt lat="42.9396718" lon="11.925365"><ele>288.0</ele><time>2026-05-01T08:17:08.911Z</time></trkpt><trkpt lat="42.9395502" lon="11.9255352"><ele>294.0</ele><time>2026-05-01T08:17:09.911Z</time></trkpt><trkpt lat="42.9393988" lon="11.9256624"><ele>295.3333333333333</ele><time>2026-05-01T08:17:10.911Z</time></trkpt><trkpt lat="42.9392131" lon="11.9257475"><ele>296.66666666666663</ele><time>2026-05-01T08:17:11.911Z</time></trkpt><trkpt lat="42.9390143" lon="11.9257934"><ele>298.0</ele><time>2026-05-01T08:17:12.911Z</time></trkpt><trkpt lat="42.9388037" lon="11.9258262"><ele>298.0</ele><time>2026-05-01T08:17:13.911Z</time></trkpt><trkpt lat="42.9385894" lon="11.9258426"><ele>298.0</ele><time>2026-05-01T08:17:14.91Z</time></trkpt><trkpt lat="42.938374" lon="11.9258326"><ele>298.0</ele><time>2026-05-01T08:17:15.91Z</time></trkpt><trkpt lat="42.9381731" lon="11.9258261"><ele>300.66666666666663</ele><time>2026-05-01T08:17:16.911Z</time></trkpt><trkpt lat="42.9379989" lon="11.9257963"><ele>303.3333333333333</ele><time>2026-05-01T08:17:17.911Z</time></trkpt><trkpt lat="42.9378228" lon="11.9257034"><ele>306.0</ele><time>2026-05-01T08:17:18.911Z</time></trkpt><trkpt lat="42.9376701" lon="11.9255645"><ele>308.3333333333333</ele><time>2026-05-01T08:17:19.911Z</time></trkpt><trkpt lat="42.9375093" lon="11.925406"><ele>310.66666666666663</ele><time>2026-05-01T08:17:20.911Z</time></trkpt><trkpt lat="42.937339" lon="11.9252548"><ele>313.0</ele><time>2026-05-01T08:17:21.91Z</time></trkpt><trkpt lat="42.9371519" lon="11.925139"><ele>313.0</ele><time>2026-05-01T08:17:22.911Z</time></trkpt><trkpt lat="42.9369309" lon="11.9250647"><ele>313.0</ele><time>2026-05-01T08:17:23.91Z</time></trkpt><trkpt lat="42.9366996" lon="11.9250094"><ele>312.0</ele><time>2026-05-01T08:17:24.91Z</time></trkpt><trkpt lat="42.9364875" lon="11.9249494"><ele>311.0</ele><time>2026-05-01T08:17:25.911Z</time></trkpt><trkpt lat="42.9363094" lon="11.9248678"><ele>310.0</ele><time>2026-05-01T08:17:26.911Z</time></trkpt><trkpt lat="42.9361472" lon="11.9247754"><ele>310.0</ele><time>2026-05-01T08:17:27.911Z</time></trkpt><trkpt lat="42.9359942" lon="11.9246352"><ele>310.0</ele><time>2026-05-01T08:17:28.911Z</time></trkpt><trkpt lat="42.9358287" lon="11.9244664"><ele>310.0</ele><time>2026-05-01T08:17:29.91Z</time></trkpt><trkpt lat="42.9356555" lon="11.9242836"><ele>313.0</ele><time>2026-05-01T08:17:30.91Z</time></trkpt><trkpt lat="42.9354893" lon="11.9241125"><ele>316.0</ele><time>2026-05-01T08:17:31.911Z</time></trkpt><trkpt lat="42.9353296" lon="11.9239538"><ele>319.0</ele><time>2026-05-01T08:17:32.91Z</time></trkpt><trkpt lat="42.9351872" lon="11.9238078"><ele>319.0</ele><time>2026-05-01T08:17:33.911Z</time></trkpt><trkpt lat="42.9350603" lon="11.9236575"><ele>319.0</ele><time>2026-05-01T08:17:34.911Z</time></trkpt><trkpt lat="42.9349382" lon="11.9234993"><ele>319.0</ele><time>2026-05-01T08:17:35.911Z</time></trkpt><trkpt lat="42.9348173" lon="11.923301"><ele>319.0</ele><time>2026-05-01T08:17:36.91Z</time></trkpt><trkpt lat="42.9347248" lon="11.923081"><ele>319.0</ele><time>2026-05-01T08:17:37.91Z</time></trkpt><trkpt lat="42.9346675" lon="11.9228485"><ele>319.0</ele><time>2026-05-01T08:17:38.91Z</time></trkpt><trkpt lat="42.934644" lon="11.9226128"><ele>320.0</ele><time>2026-05-01T08:17:39.911Z</time></trkpt><trkpt lat="42.9346346" lon="11.9223977"><ele>321.0</ele><time>2026-05-01T08:17:40.91Z</time></trkpt><trkpt lat="42.9345942" lon="11.9222182"><ele>322.0</ele><time>2026-05-01T08:17:41.911Z</time></trkpt><trkpt lat="42.9345183" lon="11.9220548"><ele>323.0</ele><time>2026-05-01T08:17:42.91Z</time></trkpt><trkpt lat="42.9344041" lon="11.9219394"><ele>323.0</ele><time>2026-05-01T08:17:43.911Z</time></trkpt><trkpt lat="42.9342671" lon="11.9218593"><ele>323.0</ele><time>2026-05-01T08:17:44.91Z</time></trkpt><trkpt lat="42.9340938" lon="11.9218464"><ele>323.0</ele><time>2026-05-01T08:17:45.91Z</time></trkpt><trkpt lat="42.9338993" lon="11.9218768"><ele>319.0</ele><time>2026-05-01T08:17:46.91Z</time></trkpt><trkpt lat="42.9336865" lon="11.9219484"><ele>315.0</ele><time>2026-05-01T08:17:47.911Z</time></trkpt><trkpt lat="42.9334729" lon="11.9220234"><ele>311.0</ele><time>2026-05-01T08:17:48.91Z</time></trkpt><trkpt lat="42.9332648" lon="11.9220911"><ele>311.0</ele><time>2026-05-01T08:17:49.911Z</time></trkpt><trkpt lat="42.9330478" lon="11.9221048"><ele>311.0</ele><time>2026-05-01T08:17:50.911Z</time></trkpt><trkpt lat="42.9328162" lon="11.9221017"><ele>311.0</ele><time>2026-05-01T08:17:51.91Z</time></trkpt><trkpt lat="42.932584" lon="11.9220844"><ele>312.0</ele><time>2026-05-01T08:17:52.91Z</time></trkpt><trkpt lat="42.9323517" lon="11.9220601"><ele>313.0</ele><time>2026-05-01T08:17:53.911Z</time></trkpt><trkpt lat="42.9321317" lon="11.9220305"><ele>313.0</ele><time>2026-05-01T08:17:54.91Z</time></trkpt><trkpt lat="42.9319141" lon="11.9219953"><ele>313.0</ele><time>2026-05-01T08:17:55.911Z</time></trkpt><trkpt lat="42.9317305" lon="11.9219514"><ele>313.0</ele><time>2026-05-01T08:17:56.911Z</time></trkpt><trkpt lat="42.931559" lon="11.9218851"><ele>312.3333333333333</ele><time>2026-05-01T08:17:57.911Z</time></trkpt><trkpt lat="42.9313981" lon="11.9217637"><ele>311.6666666666667</ele><time>2026-05-01T08:17:58.91Z</time></trkpt><trkpt lat="42.9312722" lon="11.9215622"><ele>311.0</ele><time>2026-05-01T08:17:59.911Z</time></trkpt><trkpt lat="42.9311542" lon="11.9213142"><ele>313.0</ele><time>2026-05-01T08:18:00.911Z</time></trkpt><trkpt lat="42.9310346" lon="11.9210391"><ele>315.0</ele><time>2026-05-01T08:18:01.911Z</time></trkpt><trkpt lat="42.9308815" lon="11.9207708"><ele>315.0</ele><time>2026-05-01T08:18:02.91Z</time></trkpt><trkpt lat="42.9306952" lon="11.9205113"><ele>315.0</ele><time>2026-05-01T08:18:03.91Z</time></trkpt><trkpt lat="42.9304816" lon="11.9202886"><ele>315.0</ele><time>2026-05-01T08:18:04.911Z</time></trkpt><trkpt lat="42.9302663" lon="11.9200571"><ele>315.0</ele><time>2026-05-01T08:18:05.911Z</time></trkpt><trkpt lat="42.9300539" lon="11.9198206"><ele>315.0</ele><time>2026-05-01T08:18:06.91Z</time></trkpt><trkpt lat="42.9298285" lon="11.9195753"><ele>315.0</ele><time>2026-05-01T08:18:07.911Z</time></trkpt><trkpt lat="42.9296029" lon="11.9193239"><ele>315.0</ele><time>2026-05-01T08:18:08.911Z</time></trkpt><trkpt lat="42.9293831" lon="11.9190728"><ele>315.0</ele><time>2026-05-01T08:18:09.91Z</time></trkpt><trkpt lat="42.9291564" lon="11.9188145"><ele>315.0</ele><time>2026-05-01T08:18:10.911Z</time></trkpt><trkpt lat="42.9289344" lon="11.918545"><ele>315.0</ele><time>2026-05-01T08:18:11.911Z</time></trkpt><trkpt lat="42.9287082" lon="11.9182859"><ele>315.0</ele><time>2026-05-01T08:18:12.91Z</time></trkpt><trkpt lat="42.9284739" lon="11.9180308"><ele>315.0</ele><time>2026-05-01T08:18:13.91Z</time></trkpt><trkpt lat="42.9282374" lon="11.9177813"><ele>317.0</ele><time>2026-05-01T08:18:14.911Z</time></trkpt><trkpt lat="42.9280046" lon="11.9175288"><ele>319.0</ele><time>2026-05-01T08:18:15.91Z</time></trkpt><trkpt lat="42.927778" lon="11.9172768"><ele>318.0</ele><time>2026-05-01T08:18:16.911Z</time></trkpt><trkpt lat="42.9275487" lon="11.9170318"><ele>317.0</ele><time>2026-05-01T08:18:17.911Z</time></trkpt><trkpt lat="42.9273212" lon="11.9167741"><ele>319.0</ele><time>2026-05-01T08:18:18.91Z</time></trkpt><trkpt lat="42.9270991" lon="11.9165287"><ele>321.0</ele><time>2026-05-01T08:18:19.911Z</time></trkpt><trkpt lat="42.9268957" lon="11.9163021"><ele>320.5</ele><time>2026-05-01T08:18:20.911Z</time></trkpt><trkpt lat="42.9267061" lon="11.9160916"><ele>320.0</ele><time>2026-05-01T08:18:21.911Z</time></trkpt><trkpt lat="42.9265221" lon="11.9158899"><ele>322.5</ele><time>2026-05-01T08:18:22.911Z</time></trkpt><trkpt lat="42.9263173" lon="11.9156886"><ele>325.0</ele><time>2026-05-01T08:18:23.91Z</time></trkpt><trkpt lat="42.9260965" lon="11.9154897"><ele>321.5</ele><time>2026-05-01T08:18:24.911Z</time></trkpt><trkpt lat="42.9258782" lon="11.9153064"><ele>318.0</ele><time>2026-05-01T08:18:25.91Z</time></trkpt><trkpt lat="42.9256632" lon="11.9151372"><ele>320.6666666666667</ele><time>2026-05-01T08:18:26.911Z</time></trkpt><trkpt lat="42.9254885" lon="11.9149847"><ele>323.33333333333337</ele><time>2026-05-01T08:18:27.911Z</time></trkpt><trkpt lat="42.9253394" lon="11.914873"><ele>326.0</ele><time>2026-05-01T08:18:28.911Z</time></trkpt><trkpt lat="42.9252177" lon="11.9147974"><ele>326.0</ele><time>2026-05-01T08:18:29.911Z</time></trkpt><trkpt lat="42.9250888" lon="11.9147754"><ele>326.0</ele><time>2026-05-01T08:18:30.911Z</time></trkpt><trkpt lat="42.9249559" lon="11.9147965"><ele>326.0</ele><time>2026-05-01T08:18:31.91Z</time></trkpt><trkpt lat="42.9248494" lon="11.9148966"><ele>326.0</ele><time>2026-05-01T08:18:32.91Z</time></trkpt><trkpt lat="42.9248104" lon="11.9150609"><ele>323.75</ele><time>2026-05-01T08:18:33.911Z</time></trkpt><trkpt lat="42.9248172" lon="11.9152614"><ele>321.5</ele><time>2026-05-01T08:18:34.911Z</time></trkpt><trkpt lat="42.9248561" lon="11.9154488"><ele>319.25</ele><time>2026-05-01T08:18:35.911Z</time></trkpt><trkpt lat="42.9248911" lon="11.9156177"><ele>317.0</ele><time>2026-05-01T08:18:36.911Z</time></trkpt><trkpt lat="42.924895" lon="11.9157712"><ele>317.0</ele><time>2026-05-01T08:18:37.911Z</time></trkpt><trkpt lat="42.9248463" lon="11.9159021"><ele>317.0</ele><time>2026-05-01T08:18:38.911Z</time></trkpt><trkpt lat="42.9247624" lon="11.9159523"><ele>317.0</ele><time>2026-05-01T08:18:39.91Z</time></trkpt><trkpt lat="42.9246521" lon="11.9159193"><ele>317.0</ele><time>2026-05-01T08:18:40.911Z</time></trkpt><trkpt lat="42.9245219" lon="11.9158278"><ele>317.0</ele><time>2026-05-01T08:18:41.91Z</time></trkpt><trkpt lat="42.9243652" lon="11.9157534"><ele>317.0</ele><time>2026-05-01T08:18:42.911Z</time></trkpt><trkpt lat="42.9241799" lon="11.915748"><ele>317.0</ele><time>2026-05-01T08:18:43.911Z</time></trkpt><trkpt lat="42.9239961" lon="11.9157698"><ele>319.0</ele><time>2026-05-01T08:18:44.91Z</time></trkpt><trkpt lat="42.9238158" lon="11.9157762"><ele>321.0</ele><time>2026-05-01T08:18:45.911Z</time></trkpt><trkpt lat="42.9236209" lon="11.9157502"><ele>323.0</ele><time>2026-05-01T08:18:46.91Z</time></trkpt><trkpt lat="42.9234228" lon="11.9156855"><ele>325.0</ele><time>2026-05-01T08:18:47.91Z</time></trkpt><trkpt lat="42.9232359" lon="11.9156237"><ele>327.0</ele><time>2026-05-01T08:18:48.91Z</time></trkpt><trkpt lat="42.923071" lon="11.9155397"><ele>329.0</ele><time>2026-05-01T08:18:49.911Z</time></trkpt><trkpt lat="42.9229148" lon="11.9154245"><ele>329.0</ele><time>2026-05-01T08:18:50.911Z</time></trkpt><trkpt lat="42.9227691" lon="11.9152543"><ele>329.0</ele><time>2026-05-01T08:18:51.91Z</time></trkpt><trkpt lat="42.9226212" lon="11.9150338"><ele>329.0</ele><time>2026-05-01T08:18:52.911Z</time></trkpt><trkpt lat="42.9224859" lon="11.9148088"><ele>333.33333333333337</ele><time>2026-05-01T08:18:53.911Z</time></trkpt><trkpt lat="42.9223664" lon="11.9146384"><ele>337.6666666666667</ele><time>2026-05-01T08:18:54.911Z</time></trkpt><trkpt lat="42.9222595" lon="11.9144965"><ele>342.0</ele><time>2026-05-01T08:18:55.911Z</time></trkpt><trkpt lat="42.9221427" lon="11.9144189"><ele>342.0</ele><time>2026-05-01T08:18:56.911Z</time></trkpt><trkpt lat="42.9220079" lon="11.9144154"><ele>342.0</ele><time>2026-05-01T08:18:57.911Z</time></trkpt><trkpt lat="42.9218908" lon="11.9144956"><ele>342.0</ele><time>2026-05-01T08:18:58.911Z</time></trkpt><trkpt lat="42.9218196" lon="11.9146838"><ele>342.0</ele><time>2026-05-01T08:18:59.911Z</time></trkpt><trkpt lat="42.9218106" lon="11.9149407"><ele>340.3333333333333</ele><time>2026-05-01T08:19:00.911Z</time></trkpt><trkpt lat="42.9218523" lon="11.9151871"><ele>338.66666666666663</ele><time>2026-05-01T08:19:01.911Z</time></trkpt><trkpt lat="42.9219008" lon="11.9154276"><ele>337.0</ele><time>2026-05-01T08:19:02.91Z</time></trkpt><trkpt lat="42.9219744" lon="11.9156597"><ele>337.0</ele><time>2026-05-01T08:19:03.911Z</time></trkpt><trkpt lat="42.9220667" lon="11.9159007"><ele>337.0</ele><time>2026-05-01T08:19:04.91Z</time></trkpt><trkpt lat="42.9221761" lon="11.9161171"><ele>337.0</ele><time>2026-05-01T08:19:05.91Z</time></trkpt><trkpt lat="42.9223061" lon="11.9163164"><ele>338.0</ele><time>2026-05-01T08:19:06.911Z</time></trkpt><trkpt lat="42.9224145" lon="11.9164771"><ele>339.0</ele><time>2026-05-01T08:19:07.91Z</time></trkpt><trkpt lat="42.9224858" lon="11.916644"><ele>340.0</ele><time>2026-05-01T08:19:08.911Z</time></trkpt><trkpt lat="42.9225033" lon="11.9168234"><ele>341.0</ele><time>2026-05-01T08:19:09.911Z</time></trkpt><trkpt lat="42.9224633" lon="11.91702"><ele>341.33333333333337</ele><time>2026-05-01T08:19:10.911Z</time></trkpt><trkpt lat="42.9223584" lon="11.9172333"><ele>341.6666666666667</ele><time>2026-05-01T08:19:11.911Z</time></trkpt><trkpt lat="42.9222449" lon="11.917412"><ele>342.0</ele><time>2026-05-01T08:19:12.911Z</time></trkpt><trkpt lat="42.9221557" lon="11.9175545"><ele>342.0</ele><time>2026-05-01T08:19:13.911Z</time></trkpt><trkpt lat="42.9220642" lon="11.9176592"><ele>342.0</ele><time>2026-05-01T08:19:14.911Z</time></trkpt><trkpt lat="42.921982" lon="11.9177076"><ele>342.0</ele><time>2026-05-01T08:19:15.91Z</time></trkpt><trkpt lat="42.9218812" lon="11.9176556"><ele>342.0</ele><time>2026-05-01T08:19:16.911Z</time></trkpt><trkpt lat="42.9217813" lon="11.9175223"><ele>341.0</ele><time>2026-05-01T08:19:17.911Z</time></trkpt><trkpt lat="42.9216948" lon="11.9173594"><ele>340.0</ele><time>2026-05-01T08:19:18.911Z</time></trkpt><trkpt lat="42.9215968" lon="11.9171824"><ele>339.0</ele><time>2026-05-01T08:19:19.911Z</time></trkpt><trkpt lat="42.9214573" lon="11.9170056"><ele>339.0</ele><time>2026-05-01T08:19:20.91Z</time></trkpt><trkpt lat="42.9212762" lon="11.9169048"><ele>339.0</ele><time>2026-05-01T08:19:21.91Z</time></trkpt><trkpt lat="42.9210793" lon="11.9168749"><ele>339.0</ele><time>2026-05-01T08:19:22.911Z</time></trkpt><trkpt lat="42.9208778" lon="11.9168753"><ele>335.3333333333333</ele><time>2026-05-01T08:19:23.911Z</time></trkpt><trkpt lat="42.920683" lon="11.9169459"><ele>331.66666666666663</ele><time>2026-05-01T08:19:24.911Z</time></trkpt><trkpt lat="42.9205053" lon="11.9170405"><ele>328.0</ele><time>2026-05-01T08:19:25.911Z</time></trkpt><trkpt lat="42.9203539" lon="11.9171305"><ele>328.0</ele><time>2026-05-01T08:19:26.91Z</time></trkpt><trkpt lat="42.9202118" lon="11.9171878"><ele>328.0</ele><time>2026-05-01T08:19:27.911Z</time></trkpt><trkpt lat="42.9200883" lon="11.9171961"><ele>328.0</ele><time>2026-05-01T08:19:28.911Z</time></trkpt><trkpt lat="42.919972" lon="11.917156"><ele>328.0</ele><time>2026-05-01T08:19:29.911Z</time></trkpt><trkpt lat="42.9198715" lon="11.9170533"><ele>328.66666666666663</ele><time>2026-05-01T08:19:30.911Z</time></trkpt><trkpt lat="42.9198087" lon="11.9168712"><ele>329.3333333333333</ele><time>2026-05-01T08:19:31.911Z</time></trkpt><trkpt lat="42.9197972" lon="11.9166423"><ele>330.0</ele><time>2026-05-01T08:19:32.911Z</time></trkpt><trkpt lat="42.9198018" lon="11.916402"><ele>330.0</ele><time>2026-05-01T08:19:33.91Z</time></trkpt><trkpt lat="42.9197922" lon="11.9161766"><ele>330.0</ele><time>2026-05-01T08:19:34.91Z</time></trkpt><trkpt lat="42.9197365" lon="11.9159469"><ele>330.0</ele><time>2026-05-01T08:19:35.911Z</time></trkpt><trkpt lat="42.9196317" lon="11.9157675"><ele>330.6666666666667</ele><time>2026-05-01T08:19:36.911Z</time></trkpt><trkpt lat="42.919492" lon="11.9156065"><ele>331.33333333333337</ele><time>2026-05-01T08:19:37.911Z</time></trkpt><trkpt lat="42.9193105" lon="11.9154818"><ele>332.0</ele><time>2026-05-01T08:19:38.911Z</time></trkpt><trkpt lat="42.9191142" lon="11.9154269"><ele>328.33333333333337</ele><time>2026-05-01T08:19:39.91Z</time></trkpt><trkpt lat="42.9188995" lon="11.9153945"><ele>324.6666666666667</ele><time>2026-05-01T08:19:40.911Z</time></trkpt><trkpt lat="42.9186875" lon="11.9153623"><ele>321.0</ele><time>2026-05-01T08:19:41.911Z</time></trkpt><trkpt lat="42.9184864" lon="11.9153318"><ele>321.0</ele><time>2026-05-01T08:19:42.911Z</time></trkpt><trkpt lat="42.9183243" lon="11.9153239"><ele>321.0</ele><time>2026-05-01T08:19:43.911Z</time></trkpt><trkpt lat="42.9181847" lon="11.9153688"><ele>321.0</ele><time>2026-05-01T08:19:44.911Z</time></trkpt><trkpt lat="42.9180673" lon="11.9154891"><ele>321.0</ele><time>2026-05-01T08:19:45.911Z</time></trkpt><trkpt lat="42.9179833" lon="11.9156834"><ele>321.0</ele><time>2026-05-01T08:19:46.911Z</time></trkpt><trkpt lat="42.9179174" lon="11.915915"><ele>321.0</ele><time>2026-05-01T08:19:47.911Z</time></trkpt><trkpt lat="42.9178585" lon="11.9161639"><ele>319.3333333333333</ele><time>2026-05-01T08:19:48.91Z</time></trkpt><trkpt lat="42.9177926" lon="11.9164388"><ele>317.66666666666663</ele><time>2026-05-01T08:19:49.911Z</time></trkpt><trkpt lat="42.9177205" lon="11.9167267"><ele>316.0</ele><time>2026-05-01T08:19:50.911Z</time></trkpt><trkpt lat="42.9176524" lon="11.916999"><ele>315.0</ele><time>2026-05-01T08:19:51.91Z</time></trkpt><trkpt lat="42.9175918" lon="11.9172174"><ele>314.0</ele><time>2026-05-01T08:19:52.911Z</time></trkpt><trkpt lat="42.9175269" lon="11.9173996"><ele>313.0</ele><time>2026-05-01T08:19:53.911Z</time></trkpt><trkpt lat="42.9174349" lon="11.9175451"><ele>313.3333333333333</ele><time>2026-05-01T08:19:54.911Z</time></trkpt><trkpt lat="42.9173111" lon="11.9176499"><ele>313.6666666666667</ele><time>2026-05-01T08:19:55.91Z</time></trkpt><trkpt lat="42.9171617" lon="11.9177042"><ele>314.0</ele><time>2026-05-01T08:19:56.91Z</time></trkpt><trkpt lat="42.9170035" lon="11.917694"><ele>314.0</ele><time>2026-05-01T08:19:57.911Z</time></trkpt><trkpt lat="42.9168525" lon="11.9176174"><ele>314.0</ele><time>2026-05-01T08:19:58.91Z</time></trkpt><trkpt lat="42.9166889" lon="11.9174831"><ele>314.0</ele><time>2026-05-01T08:19:59.911Z</time></trkpt><trkpt lat="42.9165351" lon="11.9172927"><ele>318.0</ele><time>2026-05-01T08:20:00.91Z</time></trkpt><trkpt lat="42.9163504" lon="11.9170703"><ele>322.0</ele><time>2026-05-01T08:20:01.911Z</time></trkpt><trkpt lat="42.9161588" lon="11.9168672"><ele>323.66666666666663</ele><time>2026-05-01T08:20:02.91Z</time></trkpt><trkpt lat="42.9159777" lon="11.9167065"><ele>325.3333333333333</ele><time>2026-05-01T08:20:03.91Z</time></trkpt><trkpt lat="42.9157959" lon="11.9165865"><ele>327.0</ele><time>2026-05-01T08:20:04.911Z</time></trkpt><trkpt lat="42.9156078" lon="11.9165166"><ele>327.0</ele><time>2026-05-01T08:20:05.911Z</time></trkpt><trkpt lat="42.9154123" lon="11.9164986"><ele>327.0</ele><time>2026-05-01T08:20:06.91Z</time></trkpt><trkpt lat="42.9152045" lon="11.9165144"><ele>327.0</ele><time>2026-05-01T08:20:07.911Z</time></trkpt><trkpt lat="42.914991" lon="11.916543"><ele>327.6666666666667</ele><time>2026-05-01T08:20:08.911Z</time></trkpt><trkpt lat="42.9147821" lon="11.9165574"><ele>328.33333333333337</ele><time>2026-05-01T08:20:09.911Z</time></trkpt><trkpt lat="42.9146021" lon="11.9165734"><ele>329.0</ele><time>2026-05-01T08:20:10.91Z</time></trkpt><trkpt lat="42.9144446" lon="11.9166076"><ele>329.0</ele><time>2026-05-01T08:20:11.911Z</time></trkpt><trkpt lat="42.914319" lon="11.9166869"><ele>329.0</ele><time>2026-05-01T08:20:12.911Z</time></trkpt><trkpt lat="42.9142305" lon="11.9168239"><ele>329.0</ele><time>2026-05-01T08:20:13.911Z</time></trkpt><trkpt lat="42.9141667" lon="11.9170122"><ele>329.0</ele><time>2026-05-01T08:20:14.91Z</time></trkpt><trkpt lat="42.9140907" lon="11.9172354"><ele>330.6666666666667</ele><time>2026-05-01T08:20:15.911Z</time></trkpt><trkpt lat="42.9140124" lon="11.9174644"><ele>332.3333333333333</ele><time>2026-05-01T08:20:16.91Z</time></trkpt><trkpt lat="42.9139645" lon="11.9177004"><ele>334.0</ele><time>2026-05-01T08:20:17.911Z</time></trkpt><trkpt lat="42.9139564" lon="11.9179673"><ele>335.0</ele><time>2026-05-01T08:20:18.91Z</time></trkpt><trkpt lat="42.9139803" lon="11.9182072"><ele>336.0</ele><time>2026-05-01T08:20:19.911Z</time></trkpt><trkpt lat="42.9140007" lon="11.9184117"><ele>337.0</ele><time>2026-05-01T08:20:20.911Z</time></trkpt><trkpt lat="42.9140054" lon="11.9185934"><ele>335.0</ele><time>2026-05-01T08:20:21.911Z</time></trkpt><trkpt lat="42.9139681" lon="11.9187512"><ele>333.0</ele><time>2026-05-01T08:20:22.911Z</time></trkpt><trkpt lat="42.913888" lon="11.9188689"><ele>331.0</ele><time>2026-05-01T08:20:23.91Z</time></trkpt><trkpt lat="42.9137741" lon="11.918958"><ele>329.0</ele><time>2026-05-01T08:20:24.911Z</time></trkpt><trkpt lat="42.9136215" lon="11.9190046"><ele>329.0</ele><time>2026-05-01T08:20:25.911Z</time></trkpt><trkpt lat="42.9134516" lon="11.9190121"><ele>329.0</ele><time>2026-05-01T08:20:26.91Z</time></trkpt><trkpt lat="42.9132787" lon="11.9190149"><ele>329.0</ele><time>2026-05-01T08:20:27.91Z</time></trkpt><trkpt lat="42.9131137" lon="11.9189867"><ele>332.33333333333337</ele><time>2026-05-01T08:20:28.91Z</time></trkpt><trkpt lat="42.9129593" lon="11.9189262"><ele>335.6666666666667</ele><time>2026-05-01T08:20:29.911Z</time></trkpt><trkpt lat="42.9128114" lon="11.9188108"><ele>339.0</ele><time>2026-05-01T08:20:30.911Z</time></trkpt><trkpt lat="42.9126702" lon="11.9186626"><ele>338.3333333333333</ele><time>2026-05-01T08:20:31.91Z</time></trkpt><trkpt lat="42.9125218" lon="11.9185073"><ele>337.66666666666663</ele><time>2026-05-01T08:20:32.911Z</time></trkpt><trkpt lat="42.9123521" lon="11.9183827"><ele>337.0</ele><time>2026-05-01T08:20:33.91Z</time></trkpt><trkpt lat="42.9121779" lon="11.9183121"><ele>341.66666666666663</ele><time>2026-05-01T08:20:34.911Z</time></trkpt><trkpt lat="42.9120129" lon="11.9182434"><ele>346.3333333333333</ele><time>2026-05-01T08:20:35.911Z</time></trkpt><trkpt lat="42.9118745" lon="11.9181497"><ele>351.0</ele><time>2026-05-01T08:20:36.911Z</time></trkpt><trkpt lat="42.9117552" lon="11.9180054"><ele>353.0</ele><time>2026-05-01T08:20:37.911Z</time></trkpt><trkpt lat="42.9116432" lon="11.9178253"><ele>355.0</ele><time>2026-05-01T08:20:38.911Z</time></trkpt><trkpt lat="42.9115656" lon="11.91764"><ele>357.0</ele><time>2026-05-01T08:20:39.911Z</time></trkpt><trkpt lat="42.9115223" lon="11.9174162"><ele>357.0</ele><time>2026-05-01T08:20:40.911Z</time></trkpt><trkpt lat="42.9115134" lon="11.9171592"><ele>357.0</ele><time>2026-05-01T08:20:41.911Z</time></trkpt><trkpt lat="42.9114874" lon="11.9168656"><ele>357.0</ele><time>2026-05-01T08:20:42.91Z</time></trkpt><trkpt lat="42.9114258" lon="11.9165865"><ele>358.3333333333333</ele><time>2026-05-01T08:20:43.911Z</time></trkpt><trkpt lat="42.9113671" lon="11.9163576"><ele>359.66666666666663</ele><time>2026-05-01T08:20:44.91Z</time></trkpt><trkpt lat="42.9113157" lon="11.9161326"><ele>361.0</ele><time>2026-05-01T08:20:45.911Z</time></trkpt><trkpt lat="42.9112635" lon="11.915923"><ele>362.66666666666663</ele><time>2026-05-01T08:20:46.911Z</time></trkpt><trkpt lat="42.9111838" lon="11.915745"><ele>364.3333333333333</ele><time>2026-05-01T08:20:47.911Z</time></trkpt><trkpt lat="42.911066" lon="11.915597"><ele>366.0</ele><time>2026-05-01T08:20:48.911Z</time></trkpt><trkpt lat="42.9109306" lon="11.9154974"><ele>366.0</ele><time>2026-05-01T08:20:49.911Z</time></trkpt><trkpt lat="42.9107558" lon="11.9154598"><ele>366.0</ele><time>2026-05-01T08:20:50.91Z</time></trkpt><trkpt lat="42.910563" lon="11.9154755"><ele>366.0</ele><time>2026-05-01T08:20:51.91Z</time></trkpt><trkpt lat="42.9103527" lon="11.9155106"><ele>366.0</ele><time>2026-05-01T08:20:52.911Z</time></trkpt><trkpt lat="42.9101322" lon="11.9155468"><ele>366.0</ele><time>2026-05-01T08:20:53.91Z</time></trkpt><trkpt lat="42.9099112" lon="11.9155827"><ele>366.0</ele><time>2026-05-01T08:20:54.911Z</time></trkpt><trkpt lat="42.9096858" lon="11.9156165"><ele>367.3333333333333</ele><time>2026-05-01T08:20:55.91Z</time></trkpt><trkpt lat="42.9094798" lon="11.9156536"><ele>368.66666666666663</ele><time>2026-05-01T08:20:56.91Z</time></trkpt><trkpt lat="42.9093066" lon="11.9157009"><ele>370.0</ele><time>2026-05-01T08:20:57.911Z</time></trkpt><trkpt lat="42.9091704" lon="11.9157402"><ele>370.5</ele><time>2026-05-01T08:20:58.911Z</time></trkpt><trkpt lat="42.9090507" lon="11.9158144"><ele>371.0</ele><time>2026-05-01T08:20:59.911Z</time></trkpt><trkpt lat="42.9089318" lon="11.9159109"><ele>371.5</ele><time>2026-05-01T08:21:00.911Z</time></trkpt><trkpt lat="42.9088448" lon="11.9160482"><ele>372.0</ele><time>2026-05-01T08:21:01.911Z</time></trkpt><trkpt lat="42.9087781" lon="11.9162207"><ele>372.0</ele><time>2026-05-01T08:21:02.911Z</time></trkpt><trkpt lat="42.9087155" lon="11.9164097"><ele>372.0</ele><time>2026-05-01T08:21:03.911Z</time></trkpt><trkpt lat="42.9086674" lon="11.9165957"><ele>372.0</ele><time>2026-05-01T08:21:04.911Z</time></trkpt><trkpt lat="42.9086226" lon="11.9167848"><ele>372.0</ele><time>2026-05-01T08:21:05.911Z</time></trkpt><trkpt lat="42.908573" lon="11.9169724"><ele>370.25</ele><time>2026-05-01T08:21:06.911Z</time></trkpt><trkpt lat="42.9085144" lon="11.9171519"><ele>368.5</ele><time>2026-05-01T08:21:07.911Z</time></trkpt><trkpt lat="42.9084509" lon="11.9173275"><ele>366.75</ele><time>2026-05-01T08:21:08.911Z</time></trkpt><trkpt lat="42.9083666" lon="11.917496"><ele>365.0</ele><time>2026-05-01T08:21:09.911Z</time></trkpt><trkpt lat="42.9082485" lon="11.917644"><ele>369.0</ele><time>2026-05-01T08:21:10.911Z</time></trkpt><trkpt lat="42.9081236" lon="11.917784"><ele>373.0</ele><time>2026-05-01T08:21:11.911Z</time></trkpt><trkpt lat="42.9080087" lon="11.9179049"><ele>377.0</ele><time>2026-05-01T08:21:12.911Z</time></trkpt><trkpt lat="42.9079099" lon="11.9179992"><ele>381.0</ele><time>2026-05-01T08:21:13.911Z</time></trkpt><trkpt lat="42.9078213" lon="11.9180624"><ele>381.0</ele><time>2026-05-01T08:21:14.911Z</time></trkpt><trkpt lat="42.9077336" lon="11.9181137"><ele>381.0</ele><time>2026-05-01T08:21:15.91Z</time></trkpt><trkpt lat="42.9076425" lon="11.9181242"><ele>381.0</ele><time>2026-05-01T08:21:16.911Z</time></trkpt><trkpt lat="42.9075468" lon="11.9181116"><ele>381.0</ele><time>2026-05-01T08:21:17.911Z</time></trkpt><trkpt lat="42.9074643" lon="11.9180842"><ele>381.0</ele><time>2026-05-01T08:21:18.911Z</time></trkpt><trkpt lat="42.9073988" lon="11.9180569"><ele>381.0</ele><time>2026-05-01T08:21:19.91Z</time></trkpt><trkpt lat="42.9073118" lon="11.9180364"><ele>380.8</ele><time>2026-05-01T08:21:21.912Z</time></trkpt><trkpt lat="42.9072626" lon="11.9181414"><ele>380.6</ele><time>2026-05-01T08:21:23.911Z</time></trkpt><trkpt lat="42.9072263" lon="11.9182489"><ele>380.4</ele><time>2026-05-01T08:21:24.911Z</time></trkpt><trkpt lat="42.9071813" lon="11.9183802"><ele>380.2</ele><time>2026-05-01T08:21:25.912Z</time></trkpt><trkpt lat="42.9071222" lon="11.9185137"><ele>380.0</ele><time>2026-05-01T08:21:26.912Z</time></trkpt><trkpt lat="42.9070493" lon="11.9186665"><ele>380.0</ele><time>2026-05-01T08:21:27.912Z</time></trkpt><trkpt lat="42.9069772" lon="11.9188437"><ele>380.0</ele><time>2026-05-01T08:21:28.912Z</time></trkpt><trkpt lat="42.9068998" lon="11.9190443"><ele>380.0</ele><time>2026-05-01T08:21:29.912Z</time></trkpt><trkpt lat="42.9068193" lon="11.9192317"><ele>379.5</ele><time>2026-05-01T08:21:30.912Z</time></trkpt><trkpt lat="42.9067512" lon="11.919411"><ele>379.0</ele><time>2026-05-01T08:21:31.912Z</time></trkpt><trkpt lat="42.9066976" lon="11.9195876"><ele>378.5</ele><time>2026-05-01T08:21:32.911Z</time></trkpt><trkpt lat="42.9066667" lon="11.9197816"><ele>378.0</ele><time>2026-05-01T08:21:33.912Z</time></trkpt><trkpt lat="42.9066443" lon="11.9199825"><ele>377.0</ele><time>2026-05-01T08:21:34.912Z</time></trkpt><trkpt lat="42.9066312" lon="11.9201959"><ele>376.0</ele><time>2026-05-01T08:21:35.911Z</time></trkpt><trkpt lat="42.9066117" lon="11.9204194"><ele>375.0</ele><time>2026-05-01T08:21:36.912Z</time></trkpt><trkpt lat="42.9065932" lon="11.9206263"><ele>375.0</ele><time>2026-05-01T08:21:37.912Z</time></trkpt><trkpt lat="42.9065803" lon="11.9208174"><ele>375.0</ele><time>2026-05-01T08:21:38.912Z</time></trkpt><trkpt lat="42.9065466" lon="11.9210054"><ele>375.0</ele><time>2026-05-01T08:21:39.911Z</time></trkpt><trkpt lat="42.9065196" lon="11.9211875"><ele>375.0</ele><time>2026-05-01T08:21:40.911Z</time></trkpt><trkpt lat="42.9064776" lon="11.9213739"><ele>373.0</ele><time>2026-05-01T08:21:41.911Z</time></trkpt><trkpt lat="42.9064203" lon="11.9215602"><ele>371.0</ele><time>2026-05-01T08:21:42.912Z</time></trkpt><trkpt lat="42.9063651" lon="11.9217461"><ele>369.0</ele><time>2026-05-01T08:21:43.912Z</time></trkpt><trkpt lat="42.9063052" lon="11.9219456"><ele>366.0</ele><time>2026-05-01T08:21:44.912Z</time></trkpt><trkpt lat="42.906238" lon="11.9221376"><ele>363.0</ele><time>2026-05-01T08:21:45.912Z</time></trkpt><trkpt lat="42.9061847" lon="11.9223322"><ele>360.0</ele><time>2026-05-01T08:21:46.911Z</time></trkpt><trkpt lat="42.9061241" lon="11.9225151"><ele>360.75</ele><time>2026-05-01T08:21:47.911Z</time></trkpt><trkpt lat="42.9060625" lon="11.9226753"><ele>361.5</ele><time>2026-05-01T08:21:48.912Z</time></trkpt><trkpt lat="42.9059972" lon="11.9228354"><ele>362.25</ele><time>2026-05-01T08:21:49.912Z</time></trkpt><trkpt lat="42.905927" lon="11.9229953"><ele>363.0</ele><time>2026-05-01T08:21:50.912Z</time></trkpt><trkpt lat="42.9058633" lon="11.9231669"><ele>363.0</ele><time>2026-05-01T08:21:51.911Z</time></trkpt><trkpt lat="42.9058182" lon="11.9233464"><ele>363.0</ele><time>2026-05-01T08:21:52.911Z</time></trkpt><trkpt lat="42.9057905" lon="11.9235376"><ele>363.0</ele><time>2026-05-01T08:21:53.912Z</time></trkpt><trkpt lat="42.905785" lon="11.9237515"><ele>363.0</ele><time>2026-05-01T08:21:54.912Z</time></trkpt><trkpt lat="42.9057839" lon="11.9239723"><ele>363.3333333333333</ele><time>2026-05-01T08:21:55.912Z</time></trkpt><trkpt lat="42.9057906" lon="11.9242119"><ele>363.66666666666663</ele><time>2026-05-01T08:21:56.912Z</time></trkpt><trkpt lat="42.905801" lon="11.9244314"><ele>364.0</ele><time>2026-05-01T08:21:57.912Z</time></trkpt><trkpt lat="42.9057995" lon="11.924643"><ele>364.5</ele><time>2026-05-01T08:21:58.912Z</time></trkpt><trkpt lat="42.9057833" lon="11.9248295"><ele>365.0</ele><time>2026-05-01T08:21:59.912Z</time></trkpt><trkpt lat="42.9057535" lon="11.9250053"><ele>365.5</ele><time>2026-05-01T08:22:00.912Z</time></trkpt><trkpt lat="42.9056965" lon="11.9251819"><ele>366.0</ele><time>2026-05-01T08:22:01.912Z</time></trkpt><trkpt lat="42.9056386" lon="11.9253646"><ele>363.3333333333333</ele><time>2026-05-01T08:22:02.912Z</time></trkpt><trkpt lat="42.9055673" lon="11.9255512"><ele>360.66666666666663</ele><time>2026-05-01T08:22:03.912Z</time></trkpt><trkpt lat="42.9054937" lon="11.925743"><ele>358.0</ele><time>2026-05-01T08:22:04.912Z</time></trkpt><trkpt lat="42.9054212" lon="11.9259335"><ele>355.0</ele><time>2026-05-01T08:22:05.911Z</time></trkpt><trkpt lat="42.9053533" lon="11.9261214"><ele>352.0</ele><time>2026-05-01T08:22:06.911Z</time></trkpt><trkpt lat="42.9052843" lon="11.9263053"><ele>349.0</ele><time>2026-05-01T08:22:07.912Z</time></trkpt><trkpt lat="42.9052154" lon="11.9264945"><ele>349.0</ele><time>2026-05-01T08:22:08.912Z</time></trkpt><trkpt lat="42.9051481" lon="11.9267019"><ele>349.0</ele><time>2026-05-01T08:22:09.911Z</time></trkpt><trkpt lat="42.9050922" lon="11.9269202"><ele>349.0</ele><time>2026-05-01T08:22:10.912Z</time></trkpt><trkpt lat="42.9050479" lon="11.9271448"><ele>351.66666666666663</ele><time>2026-05-01T08:22:11.912Z</time></trkpt><trkpt lat="42.9050061" lon="11.9273775"><ele>354.3333333333333</ele><time>2026-05-01T08:22:12.912Z</time></trkpt><trkpt lat="42.9049675" lon="11.9276181"><ele>357.0</ele><time>2026-05-01T08:22:13.912Z</time></trkpt><trkpt lat="42.9049381" lon="11.9278688"><ele>357.6666666666667</ele><time>2026-05-01T08:22:14.911Z</time></trkpt><trkpt lat="42.9049219" lon="11.9281229"><ele>358.33333333333337</ele><time>2026-05-01T08:22:15.912Z</time></trkpt><trkpt lat="42.9049351" lon="11.9283748"><ele>359.0</ele><time>2026-05-01T08:22:16.911Z</time></trkpt><trkpt lat="42.9049579" lon="11.9286203"><ele>359.6666666666667</ele><time>2026-05-01T08:22:17.912Z</time></trkpt><trkpt lat="42.9050018" lon="11.9288567"><ele>360.3333333333333</ele><time>2026-05-01T08:22:18.912Z</time></trkpt><trkpt lat="42.9050584" lon="11.9290761"><ele>361.0</ele><time>2026-05-01T08:22:19.912Z</time></trkpt><trkpt lat="42.9051165" lon="11.9292828"><ele>355.3333333333333</ele><time>2026-05-01T08:22:20.912Z</time></trkpt><trkpt lat="42.9051692" lon="11.9294821"><ele>349.6666666666667</ele><time>2026-05-01T08:22:21.911Z</time></trkpt><trkpt lat="42.9052174" lon="11.9296812"><ele>344.0</ele><time>2026-05-01T08:22:22.912Z</time></trkpt><trkpt lat="42.9052468" lon="11.929874"><ele>344.5</ele><time>2026-05-01T08:22:23.912Z</time></trkpt><trkpt lat="42.905247" lon="11.9300829"><ele>345.0</ele><time>2026-05-01T08:22:24.912Z</time></trkpt><trkpt lat="42.9052398" lon="11.9302926"><ele>345.5</ele><time>2026-05-01T08:22:25.912Z</time></trkpt><trkpt lat="42.9052238" lon="11.9304768"><ele>346.0</ele><time>2026-05-01T08:22:26.912Z</time></trkpt><trkpt lat="42.9052095" lon="11.9306206"><ele>346.0</ele><time>2026-05-01T08:22:27.911Z</time></trkpt><trkpt lat="42.905183" lon="11.9307348"><ele>346.0</ele><time>2026-05-01T08:22:28.912Z</time></trkpt><trkpt lat="42.9051482" lon="11.9308374"><ele>346.0</ele><time>2026-05-01T08:22:29.912Z</time></trkpt><trkpt lat="42.9050804" lon="11.9309587"><ele>346.0</ele><time>2026-05-01T08:22:30.912Z</time></trkpt><trkpt lat="42.9049666" lon="11.931074"><ele>346.0</ele><time>2026-05-01T08:22:31.912Z</time></trkpt><trkpt lat="42.9048576" lon="11.9311898"><ele>348.0</ele><time>2026-05-01T08:22:32.911Z</time></trkpt><trkpt lat="42.9047449" lon="11.9312889"><ele>350.0</ele><time>2026-05-01T08:22:33.912Z</time></trkpt><trkpt lat="42.9046364" lon="11.9313597"><ele>352.0</ele><time>2026-05-01T08:22:34.912Z</time></trkpt><trkpt lat="42.9045303" lon="11.9314002"><ele>354.0</ele><time>2026-05-01T08:22:35.911Z</time></trkpt><trkpt lat="42.9044113" lon="11.931388"><ele>354.0</ele><time>2026-05-01T08:22:36.912Z</time></trkpt><trkpt lat="42.904273" lon="11.9313104"><ele>354.0</ele><time>2026-05-01T08:22:37.912Z</time></trkpt><trkpt lat="42.904121" lon="11.9311859"><ele>354.0</ele><time>2026-05-01T08:22:38.912Z</time></trkpt><trkpt lat="42.9039564" lon="11.9310389"><ele>352.0</ele><time>2026-05-01T08:22:39.912Z</time></trkpt><trkpt lat="42.9037886" lon="11.9308775"><ele>350.0</ele><time>2026-05-01T08:22:40.912Z</time></trkpt><trkpt lat="42.9036102" lon="11.9307239"><ele>348.0</ele><time>2026-05-01T08:22:41.912Z</time></trkpt><trkpt lat="42.9034194" lon="11.930559"><ele>342.5</ele><time>2026-05-01T08:22:42.912Z</time></trkpt><trkpt lat="42.9032243" lon="11.9303867"><ele>337.0</ele><time>2026-05-01T08:22:43.911Z</time></trkpt><trkpt lat="42.9030293" lon="11.9302276"><ele>337.0</ele><time>2026-05-01T08:22:44.912Z</time></trkpt><trkpt lat="42.9028448" lon="11.9300747"><ele>337.0</ele><time>2026-05-01T08:22:45.912Z</time></trkpt><trkpt lat="42.902661" lon="11.929922"><ele>337.0</ele><time>2026-05-01T08:22:46.912Z</time></trkpt><trkpt lat="42.9024962" lon="11.9297956"><ele>336.0</ele><time>2026-05-01T08:22:47.912Z</time></trkpt><trkpt lat="42.9023504" lon="11.9296797"><ele>335.0</ele><time>2026-05-01T08:22:48.912Z</time></trkpt><trkpt lat="42.9022167" lon="11.9295749"><ele>334.0</ele><time>2026-05-01T08:22:49.912Z</time></trkpt><trkpt lat="42.9020965" lon="11.929476"><ele>334.0</ele><time>2026-05-01T08:22:50.912Z</time></trkpt><trkpt lat="42.9019772" lon="11.9293983"><ele>334.0</ele><time>2026-05-01T08:22:51.912Z</time></trkpt><trkpt lat="42.9018624" lon="11.929358"><ele>334.0</ele><time>2026-05-01T08:22:52.912Z</time></trkpt><trkpt lat="42.901737" lon="11.9293797"><ele>334.0</ele><time>2026-05-01T08:22:53.911Z</time></trkpt><trkpt lat="42.9016275" lon="11.9294544"><ele>333.66666666666663</ele><time>2026-05-01T08:22:54.911Z</time></trkpt><trkpt lat="42.9015302" lon="11.929625"><ele>333.3333333333333</ele><time>2026-05-01T08:22:55.912Z</time></trkpt><trkpt lat="42.9014388" lon="11.9298542"><ele>333.0</ele><time>2026-05-01T08:22:56.912Z</time></trkpt><trkpt lat="42.9013527" lon="11.9300917"><ele>333.0</ele><time>2026-05-01T08:22:57.912Z</time></trkpt><trkpt lat="42.9012574" lon="11.9303577"><ele>333.0</ele><time>2026-05-01T08:22:58.911Z</time></trkpt><trkpt lat="42.9052154" lon="11.9264945"><ele>338.3333333333333</ele><time>2026-05-01T08:22:08.912Z</time></trkpt><trkpt lat="42.9051481" lon="11.9267019"><ele>343.66666666666663</ele><time>2026-05-01T08:22:09.911Z</time></trkpt><trkpt lat="42.9050922" lon="11.9269202"><ele>349.0</ele><time>2026-05-01T08:22:10.912Z</time></trkpt><trkpt lat="42.9050479" lon="11.9271448"><ele>351.66666666666663</ele><time>2026-05-01T08:22:11.912Z</time></trkpt><trkpt lat="42.9050061" lon="11.9273775"><ele>354.3333333333333</ele><time>2026-05-01T08:22:12.912Z</time></trkpt><trkpt lat="42.9049675" lon="11.9276181"><ele>357.0</ele><time>2026-05-01T08:22:13.912Z</time></trkpt><trkpt lat="42.9049381" lon="11.9278688"><ele>357.6666666666667</ele><time>2026-05-01T08:22:14.911Z</time></trkpt><trkpt lat="42.9049219" lon="11.9281229"><ele>358.33333333333337</ele><time>2026-05-01T08:22:15.912Z</time></trkpt><trkpt lat="42.9049351" lon="11.9283748"><ele>359.0</ele><time>2026-05-01T08:22:16.911Z</time></trkpt><trkpt lat="42.9049579" lon="11.9286203"><ele>359.6666666666667</ele><time>2026-05-01T08:22:17.912Z</time></trkpt><trkpt lat="42.9050018" lon="11.9288567"><ele>360.3333333333333</ele><time>2026-05-01T08:22:18.912Z</time></trkpt><trkpt lat="42.9050584" lon="11.9290761"><ele>361.0</ele><time>2026-05-01T08:22:19.912Z</time></trkpt><trkpt lat="42.9051165" lon="11.9292828"><ele>355.3333333333333</ele><time>2026-05-01T08:22:20.912Z</time></trkpt><trkpt lat="42.9051692" lon="11.9294821"><ele>349.6666666666667</ele><time>2026-05-01T08:22:21.911Z</time></trkpt><trkpt lat="42.9052174" lon="11.9296812"><ele>344.0</ele><time>2026-05-01T08:22:22.912Z</time></trkpt><trkpt lat="42.9052468" lon="11.929874"><ele>344.5</ele><time>2026-05-01T08:22:23.912Z</time></trkpt><trkpt lat="42.905247" lon="11.9300829"><ele>345.0</ele><time>2026-05-01T08:22:24.912Z</time></trkpt><trkpt lat="42.9052398" lon="11.9302926"><ele>345.5</ele><time>2026-05-01T08:22:25.912Z</time></trkpt><trkpt lat="42.9052238" lon="11.9304768"><ele>346.0</ele><time>2026-05-01T08:22:26.912Z</time></trkpt><trkpt lat="42.9052095" lon="11.9306206"><ele>346.0</ele><time>2026-05-01T08:22:27.911Z</time></trkpt><trkpt lat="42.905183" lon="11.9307348"><ele>346.0</ele><time>2026-05-01T08:22:28.912Z</time></trkpt><trkpt lat="42.9051482" lon="11.9308374"><ele>346.0</ele><time>2026-05-01T08:22:29.912Z</time></trkpt><trkpt lat="42.9050804" lon="11.9309587"><ele>346.0</ele><time>2026-05-01T08:22:30.912Z</time></trkpt><trkpt lat="42.9049666" lon="11.931074"><ele>346.0</ele><time>2026-05-01T08:22:31.912Z</time></trkpt><trkpt lat="42.9048576" lon="11.9311898"><ele>348.0</ele><time>2026-05-01T08:22:32.911Z</time></trkpt><trkpt lat="42.9047449" lon="11.9312889"><ele>350.0</ele><time>2026-05-01T08:22:33.912Z</time></trkpt><trkpt lat="42.9046364" lon="11.9313597"><ele>352.0</ele><time>2026-05-01T08:22:34.912Z</time></trkpt><trkpt lat="42.9045303" lon="11.9314002"><ele>354.0</ele><time>2026-05-01T08:22:35.911Z</time></trkpt><trkpt lat="42.9044113" lon="11.931388"><ele>354.0</ele><time>2026-05-01T08:22:36.912Z</time></trkpt><trkpt lat="42.904273" lon="11.9313104"><ele>354.0</ele><time>2026-05-01T08:22:37.912Z</time></trkpt><trkpt lat="42.904121" lon="11.9311859"><ele>354.0</ele><time>2026-05-01T08:22:38.912Z</time></trkpt><trkpt lat="42.9039564" lon="11.9310389"><ele>352.0</ele><time>2026-05-01T08:22:39.912Z</time></trkpt><trkpt lat="42.9037886" lon="11.9308775"><ele>350.0</ele><time>2026-05-01T08:22:40.912Z</time></trkpt><trkpt lat="42.9036102" lon="11.9307239"><ele>348.0</ele><time>2026-05-01T08:22:41.912Z</time></trkpt><trkpt lat="42.9034194" lon="11.930559"><ele>342.5</ele><time>2026-05-01T08:22:42.912Z</time></trkpt><trkpt lat="42.9032243" lon="11.9303867"><ele>337.0</ele><time>2026-05-01T08:22:43.911Z</time></trkpt><trkpt lat="42.9030293" lon="11.9302276"><ele>337.0</ele><time>2026-05-01T08:22:44.912Z</time></trkpt><trkpt lat="42.9028448" lon="11.9300747"><ele>337.0</ele><time>2026-05-01T08:22:45.912Z</time></trkpt><trkpt lat="42.902661" lon="11.929922"><ele>337.0</ele><time>2026-05-01T08:22:46.912Z</time></trkpt><trkpt lat="42.9024962" lon="11.9297956"><ele>336.0</ele><time>2026-05-01T08:22:47.912Z</time></trkpt><trkpt lat="42.9023504" lon="11.9296797"><ele>335.0</ele><time>2026-05-01T08:22:48.912Z</time></trkpt><trkpt lat="42.9022167" lon="11.9295749"><ele>334.0</ele><time>2026-05-01T08:22:49.912Z</time></trkpt><trkpt lat="42.9020965" lon="11.929476"><ele>334.0</ele><time>2026-05-01T08:22:50.912Z</time></trkpt><trkpt lat="42.9019772" lon="11.9293983"><ele>334.0</ele><time>2026-05-01T08:22:51.912Z</time></trkpt><trkpt lat="42.9018624" lon="11.929358"><ele>334.0</ele><time>2026-05-01T08:22:52.912Z</time></trkpt><trkpt lat="42.901737" lon="11.9293797"><ele>334.0</ele><time>2026-05-01T08:22:53.911Z</time></trkpt><trkpt lat="42.9016275" lon="11.9294544"><ele>333.66666666666663</ele><time>2026-05-01T08:22:54.911Z</time></trkpt><trkpt lat="42.9015302" lon="11.929625"><ele>333.3333333333333</ele><time>2026-05-01T08:22:55.912Z</time></trkpt><trkpt lat="42.9014388" lon="11.9298542"><ele>333.0</ele><time>2026-05-01T08:22:56.912Z</time></trkpt><trkpt lat="42.9013527" lon="11.9300917"><ele>333.0</ele><time>2026-05-01T08:22:57.912Z</time></trkpt><trkpt lat="42.9012574" lon="11.9303577"><ele>333.0</ele><time>2026-05-01T08:22:58.911Z</time></trkpt><trkpt lat="42.9011455" lon="11.9306379"><ele>333.0</ele><time>2026-05-01T08:22:59.912Z</time></trkpt><trkpt lat="42.9010266" lon="11.9309166"><ele>333.0</ele><time>2026-05-01T08:23:00.912Z</time></trkpt><trkpt lat="42.900904" lon="11.9311887"><ele>333.0</ele><time>2026-05-01T08:23:01.912Z</time></trkpt><trkpt lat="42.9007755" lon="11.9314698"><ele>333.0</ele><time>2026-05-01T08:23:02.912Z</time></trkpt><trkpt lat="42.9006554" lon="11.9317357"><ele>332.3333333333333</ele><time>2026-05-01T08:23:03.912Z</time></trkpt><trkpt lat="42.9005471" lon="11.9319985"><ele>331.66666666666663</ele><time>2026-05-01T08:23:04.912Z</time></trkpt><trkpt lat="42.9004524" lon="11.93226"><ele>331.0</ele><time>2026-05-01T08:23:05.912Z</time></trkpt><trkpt lat="42.9003677" lon="11.9325327"><ele>329.0</ele><time>2026-05-01T08:23:06.912Z</time></trkpt><trkpt lat="42.9002874" lon="11.9328142"><ele>327.0</ele><time>2026-05-01T08:23:07.911Z</time></trkpt><trkpt lat="42.9002077" lon="11.9331096"><ele>328.0</ele><time>2026-05-01T08:23:08.912Z</time></trkpt><trkpt lat="42.9001199" lon="11.9334093"><ele>329.0</ele><time>2026-05-01T08:23:09.912Z</time></trkpt><trkpt lat="42.9000236" lon="11.933713"><ele>329.0</ele><time>2026-05-01T08:23:10.911Z</time></trkpt><trkpt lat="42.8999139" lon="11.9340154"><ele>329.0</ele><time>2026-05-01T08:23:11.912Z</time></trkpt><trkpt lat="42.8997841" lon="11.9342959"><ele>326.5</ele><time>2026-05-01T08:23:12.912Z</time></trkpt><trkpt lat="42.8996321" lon="11.9345518"><ele>324.0</ele><time>2026-05-01T08:23:13.912Z</time></trkpt><trkpt lat="42.8994787" lon="11.9347791"><ele>324.0</ele><time>2026-05-01T08:23:14.912Z</time></trkpt><trkpt lat="42.8993379" lon="11.9349682"><ele>324.0</ele><time>2026-05-01T08:23:15.912Z</time></trkpt><trkpt lat="42.8991931" lon="11.9351321"><ele>324.0</ele><time>2026-05-01T08:23:16.911Z</time></trkpt><trkpt lat="42.8990433" lon="11.9352904"><ele>325.0</ele><time>2026-05-01T08:23:17.912Z</time></trkpt><trkpt lat="42.8988755" lon="11.9354631"><ele>326.0</ele><time>2026-05-01T08:23:18.911Z</time></trkpt><trkpt lat="42.8986845" lon="11.9356569"><ele>327.0</ele><time>2026-05-01T08:23:19.912Z</time></trkpt><trkpt lat="42.8985038" lon="11.9358544"><ele>328.3333333333333</ele><time>2026-05-01T08:23:20.912Z</time></trkpt><trkpt lat="42.8983312" lon="11.9360354"><ele>329.66666666666663</ele><time>2026-05-01T08:23:21.911Z</time></trkpt><trkpt lat="42.8981736" lon="11.9361932"><ele>331.0</ele><time>2026-05-01T08:23:22.912Z</time></trkpt><trkpt lat="42.8980323" lon="11.9363407"><ele>331.0</ele><time>2026-05-01T08:23:23.912Z</time></trkpt><trkpt lat="42.8978956" lon="11.9364721"><ele>331.0</ele><time>2026-05-01T08:23:24.911Z</time></trkpt><trkpt lat="42.8977559" lon="11.9365986"><ele>331.0</ele><time>2026-05-01T08:23:25.912Z</time></trkpt><trkpt lat="42.8975968" lon="11.9367108"><ele>332.3333333333333</ele><time>2026-05-01T08:23:26.912Z</time></trkpt><trkpt lat="42.8974187" lon="11.9368271"><ele>333.6666666666667</ele><time>2026-05-01T08:23:27.911Z</time></trkpt><trkpt lat="42.8972529" lon="11.9369509"><ele>335.0</ele><time>2026-05-01T08:23:28.912Z</time></trkpt><trkpt lat="42.8970804" lon="11.937069"><ele>335.0</ele><time>2026-05-01T08:23:29.912Z</time></trkpt><trkpt lat="42.896905" lon="11.9371897"><ele>335.0</ele><time>2026-05-01T08:23:30.912Z</time></trkpt><trkpt lat="42.8967403" lon="11.937307"><ele>335.0</ele><time>2026-05-01T08:23:31.911Z</time></trkpt><trkpt lat="42.896599" lon="11.9374079"><ele>335.0</ele><time>2026-05-01T08:23:32.912Z</time></trkpt><trkpt lat="42.8964801" lon="11.9374762"><ele>335.0</ele><time>2026-05-01T08:23:33.912Z</time></trkpt><trkpt lat="42.896363" lon="11.9375068"><ele>335.0</ele><time>2026-05-01T08:23:34.911Z</time></trkpt><trkpt lat="42.8962327" lon="11.937503"><ele>335.0</ele><time>2026-05-01T08:23:35.912Z</time></trkpt><trkpt lat="42.8960921" lon="11.9374601"><ele>335.0</ele><time>2026-05-01T08:23:36.911Z</time></trkpt><trkpt lat="42.8959271" lon="11.9373906"><ele>335.0</ele><time>2026-05-01T08:23:37.912Z</time></trkpt><trkpt lat="42.8957578" lon="11.9373293"><ele>335.0</ele><time>2026-05-01T08:23:38.912Z</time></trkpt><trkpt lat="42.8956011" lon="11.9372774"><ele>334.5</ele><time>2026-05-01T08:23:39.911Z</time></trkpt><trkpt lat="42.8954688" lon="11.9372506"><ele>334.0</ele><time>2026-05-01T08:23:40.912Z</time></trkpt><trkpt lat="42.8953501" lon="11.9372691"><ele>333.5</ele><time>2026-05-01T08:23:41.912Z</time></trkpt><trkpt lat="42.895245" lon="11.9373515"><ele>333.0</ele><time>2026-05-01T08:23:42.912Z</time></trkpt><trkpt lat="42.8951409" lon="11.9374687"><ele>333.75</ele><time>2026-05-01T08:23:43.911Z</time></trkpt><trkpt lat="42.8950713" lon="11.9376218"><ele>334.5</ele><time>2026-05-01T08:23:44.912Z</time></trkpt><trkpt lat="42.8950529" lon="11.9378102"><ele>335.25</ele><time>2026-05-01T08:23:45.911Z</time></trkpt><trkpt lat="42.8950676" lon="11.9380282"><ele>336.0</ele><time>2026-05-01T08:23:46.912Z</time></trkpt><trkpt lat="42.8951124" lon="11.9382574"><ele>333.6666666666667</ele><time>2026-05-01T08:23:47.912Z</time></trkpt><trkpt lat="42.895169" lon="11.9384837"><ele>331.33333333333337</ele><time>2026-05-01T08:23:48.912Z</time></trkpt><trkpt lat="42.8952086" lon="11.9386948"><ele>329.0</ele><time>2026-05-01T08:23:49.911Z</time></trkpt><trkpt lat="42.8952206" lon="11.9389069"><ele>329.0</ele><time>2026-05-01T08:23:50.912Z</time></trkpt><trkpt lat="42.8952068" lon="11.9391363"><ele>329.0</ele><time>2026-05-01T08:23:51.912Z</time></trkpt><trkpt lat="42.8951728" lon="11.939334"><ele>329.0</ele><time>2026-05-01T08:23:52.912Z</time></trkpt><trkpt lat="42.8951095" lon="11.9395312"><ele>331.25</ele><time>2026-05-01T08:23:53.912Z</time></trkpt><trkpt lat="42.8950242" lon="11.9396822"><ele>333.5</ele><time>2026-05-01T08:23:54.912Z</time></trkpt><trkpt lat="42.8949155" lon="11.9397594"><ele>335.75</ele><time>2026-05-01T08:23:55.912Z</time></trkpt><trkpt lat="42.8948028" lon="11.939781"><ele>338.0</ele><time>2026-05-01T08:23:56.911Z</time></trkpt><trkpt lat="42.8946995" lon="11.939731"><ele>338.0</ele><time>2026-05-01T08:23:57.912Z</time></trkpt><trkpt lat="42.8946379" lon="11.9395984"><ele>338.0</ele><time>2026-05-01T08:23:58.912Z</time></trkpt><trkpt lat="42.8946183" lon="11.9394199"><ele>338.0</ele><time>2026-05-01T08:23:59.912Z</time></trkpt><trkpt lat="42.8946189" lon="11.939226"><ele>338.0</ele><time>2026-05-01T08:24:00.912Z</time></trkpt><trkpt lat="42.8946299" lon="11.9390128"><ele>338.6666666666667</ele><time>2026-05-01T08:24:01.912Z</time></trkpt><trkpt lat="42.8946189" lon="11.9387829"><ele>339.3333333333333</ele><time>2026-05-01T08:24:02.912Z</time></trkpt><trkpt lat="42.8945773" lon="11.9385371"><ele>340.0</ele><time>2026-05-01T08:24:03.912Z</time></trkpt><trkpt lat="42.8945105" lon="11.9383167"><ele>338.66666666666663</ele><time>2026-05-01T08:24:04.911Z</time></trkpt><trkpt lat="42.8944273" lon="11.9381319"><ele>337.3333333333333</ele><time>2026-05-01T08:24:05.912Z</time></trkpt><trkpt lat="42.894308" lon="11.9380084"><ele>336.0</ele><time>2026-05-01T08:24:06.911Z</time></trkpt><trkpt lat="42.8941713" lon="11.9379307"><ele>342.3333333333333</ele><time>2026-05-01T08:24:07.912Z</time></trkpt><trkpt lat="42.8940095" lon="11.9378911"><ele>348.66666666666663</ele><time>2026-05-01T08:24:08.911Z</time></trkpt><trkpt lat="42.8938237" lon="11.9378758"><ele>355.0</ele><time>2026-05-01T08:24:09.912Z</time></trkpt><trkpt lat="42.8936393" lon="11.9378621"><ele>355.0</ele><time>2026-05-01T08:24:10.912Z</time></trkpt><trkpt lat="42.8934425" lon="11.9378554"><ele>355.0</ele><time>2026-05-01T08:24:11.912Z</time></trkpt><trkpt lat="42.8932484" lon="11.9378497"><ele>355.0</ele><time>2026-05-01T08:24:12.912Z</time></trkpt><trkpt lat="42.8930742" lon="11.9378324"><ele>357.0</ele><time>2026-05-01T08:24:13.912Z</time></trkpt><trkpt lat="42.8929235" lon="11.9378242"><ele>359.0</ele><time>2026-05-01T08:24:14.912Z</time></trkpt><trkpt lat="42.8928028" lon="11.937845"><ele>361.0</ele><time>2026-05-01T08:24:15.912Z</time></trkpt><trkpt lat="42.892692" lon="11.9379015"><ele>363.0</ele><time>2026-05-01T08:24:16.912Z</time></trkpt><trkpt lat="42.8925711" lon="11.9379926"><ele>363.6666666666667</ele><time>2026-05-01T08:24:17.912Z</time></trkpt><trkpt lat="42.892448" lon="11.938112"><ele>364.33333333333337</ele><time>2026-05-01T08:24:18.912Z</time></trkpt><trkpt lat="42.8923179" lon="11.9382247"><ele>365.0</ele><time>2026-05-01T08:24:19.911Z</time></trkpt><trkpt lat="42.892183" lon="11.9383294"><ele>365.0</ele><time>2026-05-01T08:24:20.912Z</time></trkpt><trkpt lat="42.892064" lon="11.9383992"><ele>365.0</ele><time>2026-05-01T08:24:21.911Z</time></trkpt><trkpt lat="42.8919641" lon="11.9384054"><ele>365.0</ele><time>2026-05-01T08:24:22.911Z</time></trkpt><trkpt lat="42.8918467" lon="11.9383267"><ele>365.0</ele><time>2026-05-01T08:24:23.912Z</time></trkpt><trkpt lat="42.8917332" lon="11.9382015"><ele>366.5</ele><time>2026-05-01T08:24:24.911Z</time></trkpt><trkpt lat="42.8916296" lon="11.9380473"><ele>368.0</ele><time>2026-05-01T08:24:25.911Z</time></trkpt><trkpt lat="42.8915342" lon="11.9378977"><ele>369.5</ele><time>2026-05-01T08:24:26.912Z</time></trkpt><trkpt lat="42.8914526" lon="11.9377802"><ele>371.0</ele><time>2026-05-01T08:24:27.912Z</time></trkpt><trkpt lat="42.8913816" lon="11.9377003"><ele>371.0</ele><time>2026-05-01T08:24:28.912Z</time></trkpt><trkpt lat="42.8913076" lon="11.9376544"><ele>371.0</ele><time>2026-05-01T08:24:29.911Z</time></trkpt><trkpt lat="42.8912193" lon="11.9376363"><ele>371.0</ele><time>2026-05-01T08:24:30.911Z</time></trkpt><trkpt lat="42.8911209" lon="11.9376259"><ele>371.0</ele><time>2026-05-01T08:24:31.911Z</time></trkpt><trkpt lat="42.8910021" lon="11.9376381"><ele>371.0</ele><time>2026-05-01T08:24:32.912Z</time></trkpt><trkpt lat="42.8908739" lon="11.9376447"><ele>373.0</ele><time>2026-05-01T08:24:33.912Z</time></trkpt><trkpt lat="42.8907212" lon="11.9376408"><ele>375.0</ele><time>2026-05-01T08:24:34.911Z</time></trkpt><trkpt lat="42.8905618" lon="11.9376509"><ele>377.0</ele><time>2026-05-01T08:24:35.912Z</time></trkpt><trkpt lat="42.8903904" lon="11.9376594"><ele>377.0</ele><time>2026-05-01T08:24:36.912Z</time></trkpt><trkpt lat="42.8902168" lon="11.9376757"><ele>377.0</ele><time>2026-05-01T08:24:37.912Z</time></trkpt><trkpt lat="42.8900319" lon="11.9376773"><ele>377.0</ele><time>2026-05-01T08:24:38.911Z</time></trkpt><trkpt lat="42.889841" lon="11.9376774"><ele>375.0</ele><time>2026-05-01T08:24:39.912Z</time></trkpt><trkpt lat="42.8896423" lon="11.9376832"><ele>373.0</ele><time>2026-05-01T08:24:40.911Z</time></trkpt><trkpt lat="42.8894256" lon="11.9376824"><ele>371.0</ele><time>2026-05-01T08:24:41.912Z</time></trkpt><trkpt lat="42.8892088" lon="11.937699"><ele>366.0</ele><time>2026-05-01T08:24:42.912Z</time></trkpt><trkpt lat="42.8889808" lon="11.9377365"><ele>361.0</ele><time>2026-05-01T08:24:43.911Z</time></trkpt><trkpt lat="42.8887514" lon="11.9377797"><ele>361.0</ele><time>2026-05-01T08:24:44.912Z</time></trkpt><trkpt lat="42.8885192" lon="11.9378186"><ele>361.0</ele><time>2026-05-01T08:24:45.912Z</time></trkpt><trkpt lat="42.8882848" lon="11.9378647"><ele>356.5</ele><time>2026-05-01T08:24:46.912Z</time></trkpt><trkpt lat="42.8880436" lon="11.9379028"><ele>352.0</ele><time>2026-05-01T08:24:47.912Z</time></trkpt><trkpt lat="42.887807" lon="11.9379283"><ele>351.3333333333333</ele><time>2026-05-01T08:24:48.912Z</time></trkpt><trkpt lat="42.887579" lon="11.9379576"><ele>350.6666666666667</ele><time>2026-05-01T08:24:49.912Z</time></trkpt><trkpt lat="42.887369" lon="11.9379815"><ele>350.0</ele><time>2026-05-01T08:24:50.912Z</time></trkpt><trkpt lat="42.8871789" lon="11.9379912"><ele>350.0</ele><time>2026-05-01T08:24:51.912Z</time></trkpt><trkpt lat="42.8870197" lon="11.9379572"><ele>350.0</ele><time>2026-05-01T08:24:52.912Z</time></trkpt><trkpt lat="42.8868655" lon="11.9379004"><ele>350.0</ele><time>2026-05-01T08:24:53.912Z</time></trkpt><trkpt lat="42.8867207" lon="11.9377982"><ele>348.6666666666667</ele><time>2026-05-01T08:24:54.912Z</time></trkpt><trkpt lat="42.8865682" lon="11.937641"><ele>347.3333333333333</ele><time>2026-05-01T08:24:55.912Z</time></trkpt><trkpt lat="42.8864119" lon="11.9374543"><ele>346.0</ele><time>2026-05-01T08:24:56.912Z</time></trkpt><trkpt lat="42.8862416" lon="11.9372203"><ele>346.5</ele><time>2026-05-01T08:24:57.911Z</time></trkpt><trkpt lat="42.8860632" lon="11.9369763"><ele>347.0</ele><time>2026-05-01T08:24:58.912Z</time></trkpt><trkpt lat="42.8858733" lon="11.9367247"><ele>350.5</ele><time>2026-05-01T08:24:59.912Z</time></trkpt><trkpt lat="42.8856782" lon="11.9364727"><ele>354.0</ele><time>2026-05-01T08:25:00.912Z</time></trkpt><trkpt lat="42.8854876" lon="11.9362351"><ele>354.0</ele><time>2026-05-01T08:25:01.912Z</time></trkpt><trkpt lat="42.8853105" lon="11.9360105"><ele>354.0</ele><time>2026-05-01T08:25:02.912Z</time></trkpt><trkpt lat="42.8851479" lon="11.9358024"><ele>358.6666666666667</ele><time>2026-05-01T08:25:03.912Z</time></trkpt><trkpt lat="42.8850023" lon="11.9356098"><ele>363.33333333333337</ele><time>2026-05-01T08:25:04.911Z</time></trkpt><trkpt lat="42.8848624" lon="11.9354515"><ele>368.0</ele><time>2026-05-01T08:25:05.912Z</time></trkpt><trkpt lat="42.8847193" lon="11.9353153"><ele>368.0</ele><time>2026-05-01T08:25:06.912Z</time></trkpt><trkpt lat="42.884568" lon="11.9352064"><ele>368.0</ele><time>2026-05-01T08:25:07.912Z</time></trkpt><trkpt lat="42.8844041" lon="11.9351347"><ele>368.0</ele><time>2026-05-01T08:25:08.912Z</time></trkpt><trkpt lat="42.8842169" lon="11.9350851"><ele>367.6666666666667</ele><time>2026-05-01T08:25:09.912Z</time></trkpt><trkpt lat="42.8840144" lon="11.9350783"><ele>367.3333333333333</ele><time>2026-05-01T08:25:10.911Z</time></trkpt><trkpt lat="42.8837951" lon="11.9350693"><ele>367.0</ele><time>2026-05-01T08:25:11.912Z</time></trkpt><trkpt lat="42.8835652" lon="11.9350479"><ele>368.0</ele><time>2026-05-01T08:25:12.912Z</time></trkpt><trkpt lat="42.8833323" lon="11.9350165"><ele>369.0</ele><time>2026-05-01T08:25:13.912Z</time></trkpt><trkpt lat="42.8831119" lon="11.9349759"><ele>369.0</ele><time>2026-05-01T08:25:14.912Z</time></trkpt><trkpt lat="42.8829196" lon="11.9349223"><ele>369.0</ele><time>2026-05-01T08:25:15.911Z</time></trkpt><trkpt lat="42.8827589" lon="11.9348654"><ele>369.0</ele><time>2026-05-01T08:25:16.911Z</time></trkpt><trkpt lat="42.8826279" lon="11.934821"><ele>369.75</ele><time>2026-05-01T08:25:17.912Z</time></trkpt><trkpt lat="42.8825101" lon="11.9347513"><ele>370.5</ele><time>2026-05-01T08:25:18.912Z</time></trkpt><trkpt lat="42.8824181" lon="11.9346505"><ele>371.25</ele><time>2026-05-01T08:25:19.912Z</time></trkpt><trkpt lat="42.8823482" lon="11.9345202"><ele>372.0</ele><time>2026-05-01T08:25:20.912Z</time></trkpt><trkpt lat="42.8823005" lon="11.9343882"><ele>372.0</ele><time>2026-05-01T08:25:21.911Z</time></trkpt><trkpt lat="42.8822555" lon="11.934294"><ele>372.0</ele><time>2026-05-01T08:25:22.912Z</time></trkpt><trkpt lat="42.8822027" lon="11.9341816"><ele>372.0</ele><time>2026-05-01T08:25:24.912Z</time></trkpt><trkpt lat="42.8821149" lon="11.9340992"><ele>372.0</ele><time>2026-05-01T08:25:26.912Z</time></trkpt><trkpt lat="42.8820199" lon="11.9340518"><ele>372.0</ele><time>2026-05-01T08:25:27.911Z</time></trkpt><trkpt lat="42.8818894" lon="11.9340101"><ele>373.5</ele><time>2026-05-01T08:25:28.912Z</time></trkpt><trkpt lat="42.881752" lon="11.9339712"><ele>375.0</ele><time>2026-05-01T08:25:29.912Z</time></trkpt><trkpt lat="42.8816156" lon="11.9339563"><ele>376.5</ele><time>2026-05-01T08:25:30.912Z</time></trkpt><trkpt lat="42.8814861" lon="11.933948"><ele>378.0</ele><time>2026-05-01T08:25:31.912Z</time></trkpt><trkpt lat="42.8813741" lon="11.9339667"><ele>378.0</ele><time>2026-05-01T08:25:32.912Z</time></trkpt><trkpt lat="42.8812852" lon="11.9340063"><ele>378.0</ele><time>2026-05-01T08:25:33.911Z</time></trkpt><trkpt lat="42.8812083" lon="11.9341221"><ele>378.0</ele><time>2026-05-01T08:25:34.911Z</time></trkpt><trkpt lat="42.8811476" lon="11.9342689"><ele>378.0</ele><time>2026-05-01T08:25:35.912Z</time></trkpt><trkpt lat="42.881093" lon="11.9344424"><ele>376.5</ele><time>2026-05-01T08:25:36.911Z</time></trkpt><trkpt lat="42.8810472" lon="11.9345994"><ele>375.0</ele><time>2026-05-01T08:25:37.911Z</time></trkpt><trkpt lat="42.8810315" lon="11.934763"><ele>373.5</ele><time>2026-05-01T08:25:38.912Z</time></trkpt><trkpt lat="42.8810476" lon="11.9349384"><ele>372.0</ele><time>2026-05-01T08:25:39.912Z</time></trkpt><trkpt lat="42.8811317" lon="11.9351161"><ele>372.0</ele><time>2026-05-01T08:25:40.912Z</time></trkpt><trkpt lat="42.8812267" lon="11.9352961"><ele>372.0</ele><time>2026-05-01T08:25:41.912Z</time></trkpt><trkpt lat="42.8813411" lon="11.9354759"><ele>372.0</ele><time>2026-05-01T08:25:42.912Z</time></trkpt><trkpt lat="42.881448" lon="11.9356759"><ele>372.0</ele><time>2026-05-01T08:25:43.912Z</time></trkpt><trkpt lat="42.8815551" lon="11.9358736"><ele>372.0</ele><time>2026-05-01T08:25:44.911Z</time></trkpt><trkpt lat="42.8816371" lon="11.9360551"><ele>372.0</ele><time>2026-05-01T08:25:45.912Z</time></trkpt><trkpt lat="42.8816919" lon="11.9362117"><ele>373.25</ele><time>2026-05-01T08:25:46.911Z</time></trkpt><trkpt lat="42.881705" lon="11.9363806"><ele>374.5</ele><time>2026-05-01T08:25:47.912Z</time></trkpt><trkpt lat="42.8816843" lon="11.9365561"><ele>375.75</ele><time>2026-05-01T08:25:48.911Z</time></trkpt><trkpt lat="42.8816373" lon="11.9367059"><ele>377.0</ele><time>2026-05-01T08:25:49.912Z</time></trkpt><trkpt lat="42.8815746" lon="11.9368348"><ele>377.25</ele><time>2026-05-01T08:25:50.912Z</time></trkpt><trkpt lat="42.8814992" lon="11.9369341"><ele>377.5</ele><time>2026-05-01T08:25:51.912Z</time></trkpt><trkpt lat="42.8814018" lon="11.937"><ele>377.75</ele><time>2026-05-01T08:25:52.912Z</time></trkpt><trkpt lat="42.8812955" lon="11.9370851"><ele>378.0</ele><time>2026-05-01T08:25:53.912Z</time></trkpt><trkpt lat="42.8811684" lon="11.9371924"><ele>378.0</ele><time>2026-05-01T08:25:54.911Z</time></trkpt><trkpt lat="42.8810282" lon="11.9373092"><ele>378.0</ele><time>2026-05-01T08:25:55.911Z</time></trkpt><trkpt lat="42.8808921" lon="11.9374332"><ele>378.0</ele><time>2026-05-01T08:25:56.911Z</time></trkpt><trkpt lat="42.8807656" lon="11.9375363"><ele>375.75</ele><time>2026-05-01T08:25:57.911Z</time></trkpt><trkpt lat="42.8806509" lon="11.9376292"><ele>373.5</ele><time>2026-05-01T08:25:58.912Z</time></trkpt><trkpt lat="42.880544" lon="11.9377082"><ele>371.25</ele><time>2026-05-01T08:25:59.912Z</time></trkpt><trkpt lat="42.8804494" lon="11.9377802"><ele>369.0</ele><time>2026-05-01T08:26:00.912Z</time></trkpt><trkpt lat="42.8803347" lon="11.9378455"><ele>369.0</ele><time>2026-05-01T08:26:01.912Z</time></trkpt><trkpt lat="42.8801829" lon="11.9378809"><ele>369.0</ele><time>2026-05-01T08:26:02.912Z</time></trkpt><trkpt lat="42.8799974" lon="11.9379047"><ele>369.0</ele><time>2026-05-01T08:26:03.912Z</time></trkpt><trkpt lat="42.8797914" lon="11.9379247"><ele>369.3333333333333</ele><time>2026-05-01T08:26:04.911Z</time></trkpt><trkpt lat="42.8795924" lon="11.9379297"><ele>369.66666666666663</ele><time>2026-05-01T08:26:05.912Z</time></trkpt><trkpt lat="42.879401" lon="11.9379234"><ele>370.0</ele><time>2026-05-01T08:26:06.911Z</time></trkpt><trkpt lat="42.8792417" lon="11.9379142"><ele>371.25</ele><time>2026-05-01T08:26:07.912Z</time></trkpt><trkpt lat="42.8791048" lon="11.9379118"><ele>372.5</ele><time>2026-05-01T08:26:08.912Z</time></trkpt><trkpt lat="42.8789807" lon="11.9379148"><ele>373.75</ele><time>2026-05-01T08:26:09.912Z</time></trkpt><trkpt lat="42.8788765" lon="11.9379509"><ele>375.0</ele><time>2026-05-01T08:26:10.911Z</time></trkpt><trkpt lat="42.8787854" lon="11.9380309"><ele>375.0</ele><time>2026-05-01T08:26:11.912Z</time></trkpt><trkpt lat="42.8787092" lon="11.9381427"><ele>375.0</ele><time>2026-05-01T08:26:12.911Z</time></trkpt><trkpt lat="42.8786579" lon="11.9382763"><ele>375.0</ele><time>2026-05-01T08:26:13.912Z</time></trkpt><trkpt lat="42.878634" lon="11.9384321"><ele>375.0</ele><time>2026-05-01T08:26:14.912Z</time></trkpt><trkpt lat="42.8786091" lon="11.9385655"><ele>375.0</ele><time>2026-05-01T08:26:15.912Z</time></trkpt><trkpt lat="42.8785709" lon="11.9386683"><ele>375.0</ele><time>2026-05-01T08:26:16.912Z</time></trkpt><trkpt lat="42.8785052" lon="11.9387463"><ele>375.0</ele><time>2026-05-01T08:26:17.912Z</time></trkpt><trkpt lat="42.8784409" lon="11.9388407"><ele>375.0</ele><time>2026-05-01T08:26:18.912Z</time></trkpt><trkpt lat="42.8784038" lon="11.9389907"><ele>375.0</ele><time>2026-05-01T08:26:19.912Z</time></trkpt><trkpt lat="42.8783698" lon="11.9391721"><ele>375.0</ele><time>2026-05-01T08:26:20.912Z</time></trkpt><trkpt lat="42.878328" lon="11.9393597"><ele>373.5</ele><time>2026-05-01T08:26:21.911Z</time></trkpt><trkpt lat="42.8782812" lon="11.9395517"><ele>372.0</ele><time>2026-05-01T08:26:22.911Z</time></trkpt><trkpt lat="42.878236" lon="11.939737"><ele>370.5</ele><time>2026-05-01T08:26:23.911Z</time></trkpt><trkpt lat="42.8781799" lon="11.9399085"><ele>369.0</ele><time>2026-05-01T08:26:24.912Z</time></trkpt><trkpt lat="42.8781165" lon="11.9400693"><ele>366.3333333333333</ele><time>2026-05-01T08:26:25.912Z</time></trkpt><trkpt lat="42.8780663" lon="11.9402436"><ele>363.66666666666663</ele><time>2026-05-01T08:26:26.911Z</time></trkpt><trkpt lat="42.8780508" lon="11.9404558"><ele>361.0</ele><time>2026-05-01T08:26:27.911Z</time></trkpt><trkpt lat="42.8780624" lon="11.9406846"><ele>359.3333333333333</ele><time>2026-05-01T08:26:28.912Z</time></trkpt><trkpt lat="42.8780723" lon="11.9409204"><ele>357.6666666666667</ele><time>2026-05-01T08:26:29.912Z</time></trkpt><trkpt lat="42.8780888" lon="11.9411544"><ele>356.0</ele><time>2026-05-01T08:26:30.912Z</time></trkpt><trkpt lat="42.8781007" lon="11.9413766"><ele>356.0</ele><time>2026-05-01T08:26:31.912Z</time></trkpt><trkpt lat="42.8781075" lon="11.941584"><ele>356.0</ele><time>2026-05-01T08:26:32.912Z</time></trkpt><trkpt lat="42.8781117" lon="11.9417675"><ele>356.0</ele><time>2026-05-01T08:26:33.912Z</time></trkpt><trkpt lat="42.8780959" lon="11.9419141"><ele>356.0</ele><time>2026-05-01T08:26:34.912Z</time></trkpt><trkpt lat="42.8780487" lon="11.9420302"><ele>355.25</ele><time>2026-05-01T08:26:35.912Z</time></trkpt><trkpt lat="42.8779664" lon="11.9421071"><ele>354.5</ele><time>2026-05-01T08:26:36.911Z</time></trkpt><trkpt lat="42.8778483" lon="11.9421364"><ele>353.75</ele><time>2026-05-01T08:26:37.912Z</time></trkpt><trkpt lat="42.8777177" lon="11.9421647"><ele>353.0</ele><time>2026-05-01T08:26:38.911Z</time></trkpt><trkpt lat="42.8775761" lon="11.9421984"><ele>353.0</ele><time>2026-05-01T08:26:39.912Z</time></trkpt><trkpt lat="42.8774387" lon="11.9422195"><ele>353.0</ele><time>2026-05-01T08:26:40.911Z</time></trkpt><trkpt lat="42.8773294" lon="11.9422415"><ele>353.0</ele><time>2026-05-01T08:26:41.912Z</time></trkpt><trkpt lat="42.8772521" lon="11.9422408"><ele>353.0</ele><time>2026-05-01T08:26:42.911Z</time></trkpt><trkpt lat="42.877145" lon="11.9421704"><ele>353.0</ele><time>2026-05-01T08:26:44.912Z</time></trkpt><trkpt lat="42.8770808" lon="11.9420615"><ele>353.0</ele><time>2026-05-01T08:26:45.911Z</time></trkpt><trkpt lat="42.8770052" lon="11.9419627"><ele>353.0</ele><time>2026-05-01T08:26:46.912Z</time></trkpt><trkpt lat="42.8769041" lon="11.9419005"><ele>353.0</ele><time>2026-05-01T08:26:47.912Z</time></trkpt><trkpt lat="42.8767904" lon="11.9418591"><ele>353.0</ele><time>2026-05-01T08:26:48.911Z</time></trkpt><trkpt lat="42.8766802" lon="11.9417989"><ele>353.2</ele><time>2026-05-01T08:26:49.912Z</time></trkpt><trkpt lat="42.876575" lon="11.9417116"><ele>353.4</ele><time>2026-05-01T08:26:50.911Z</time></trkpt><trkpt lat="42.8764719" lon="11.9416338"><ele>353.59999999999997</ele><time>2026-05-01T08:26:51.912Z</time></trkpt><trkpt lat="42.8763939" lon="11.9415814"><ele>353.79999999999995</ele><time>2026-05-01T08:26:52.912Z</time></trkpt><trkpt lat="42.8763138" lon="11.9416032"><ele>354.0</ele><time>2026-05-01T08:26:53.911Z</time></trkpt><trkpt lat="42.8762532" lon="11.9417208"><ele>351.0</ele><time>2026-05-01T08:26:54.912Z</time></trkpt><trkpt lat="42.8762246" lon="11.9419001"><ele>348.0</ele><time>2026-05-01T08:26:55.912Z</time></trkpt><trkpt lat="42.8762063" lon="11.9421072"><ele>345.0</ele><time>2026-05-01T08:26:56.912Z</time></trkpt><trkpt lat="42.8761877" lon="11.942351"><ele>343.75</ele><time>2026-05-01T08:26:57.912Z</time></trkpt><trkpt lat="42.8761631" lon="11.9425552"><ele>342.5</ele><time>2026-05-01T08:26:58.912Z</time></trkpt><trkpt lat="42.876138" lon="11.9427331"><ele>341.25</ele><time>2026-05-01T08:26:59.912Z</time></trkpt><trkpt lat="42.8760964" lon="11.9428668"><ele>340.0</ele><time>2026-05-01T08:27:00.911Z</time></trkpt><trkpt lat="42.8760408" lon="11.9429627"><ele>340.0</ele><time>2026-05-01T08:27:01.912Z</time></trkpt><trkpt lat="42.8759735" lon="11.9429754"><ele>340.0</ele><time>2026-05-01T08:27:02.912Z</time></trkpt><trkpt lat="42.8758854" lon="11.9429453"><ele>340.0</ele><time>2026-05-01T08:27:03.912Z</time></trkpt><trkpt lat="42.875779" lon="11.9428863"><ele>340.0</ele><time>2026-05-01T08:27:04.912Z</time></trkpt><trkpt lat="42.8756621" lon="11.942785"><ele>340.0</ele><time>2026-05-01T08:27:05.911Z</time></trkpt><trkpt lat="42.875527" lon="11.9426506"><ele>341.75</ele><time>2026-05-01T08:27:06.912Z</time></trkpt><trkpt lat="42.8753938" lon="11.9425524"><ele>343.5</ele><time>2026-05-01T08:27:07.912Z</time></trkpt><trkpt lat="42.8752709" lon="11.9424884"><ele>345.25</ele><time>2026-05-01T08:27:08.912Z</time></trkpt><trkpt lat="42.8751359" lon="11.9424817"><ele>347.0</ele><time>2026-05-01T08:27:09.912Z</time></trkpt><trkpt lat="42.8749962" lon="11.9425266"><ele>347.33333333333337</ele><time>2026-05-01T08:27:10.912Z</time></trkpt><trkpt lat="42.874857" lon="11.9425857"><ele>347.6666666666667</ele><time>2026-05-01T08:27:11.912Z</time></trkpt><trkpt lat="42.8747061" lon="11.9426529"><ele>348.0</ele><time>2026-05-01T08:27:12.912Z</time></trkpt><trkpt lat="42.8745381" lon="11.9427169"><ele>348.0</ele><time>2026-05-01T08:27:13.912Z</time></trkpt><trkpt lat="42.8743574" lon="11.942792"><ele>348.0</ele><time>2026-05-01T08:27:14.912Z</time></trkpt><trkpt lat="42.8741714" lon="11.9428665"><ele>348.0</ele><time>2026-05-01T08:27:15.912Z</time></trkpt><trkpt lat="42.873989" lon="11.9429368"><ele>350.0</ele><time>2026-05-01T08:27:16.912Z</time></trkpt><trkpt lat="42.8738261" lon="11.9430014"><ele>352.0</ele><time>2026-05-01T08:27:17.912Z</time></trkpt><trkpt lat="42.8736765" lon="11.9430588"><ele>354.0</ele><time>2026-05-01T08:27:18.912Z</time></trkpt><trkpt lat="42.8735428" lon="11.9431176"><ele>355.0</ele><time>2026-05-01T08:27:19.912Z</time></trkpt><trkpt lat="42.8734283" lon="11.9431797"><ele>356.0</ele><time>2026-05-01T08:27:20.912Z</time></trkpt><trkpt lat="42.8733257" lon="11.9432536"><ele>357.0</ele><time>2026-05-01T08:27:21.912Z</time></trkpt><trkpt lat="42.8732367" lon="11.9433651"><ele>358.0</ele><time>2026-05-01T08:27:22.912Z</time></trkpt><trkpt lat="42.8731554" lon="11.9434942"><ele>358.0</ele><time>2026-05-01T08:27:23.912Z</time></trkpt><trkpt lat="42.8730698" lon="11.9436512"><ele>358.0</ele><time>2026-05-01T08:27:24.911Z</time></trkpt><trkpt lat="42.8729722" lon="11.9438182"><ele>358.0</ele><time>2026-05-01T08:27:25.912Z</time></trkpt><trkpt lat="42.872867" lon="11.9439964"><ele>358.0</ele><time>2026-05-01T08:27:26.912Z</time></trkpt><trkpt lat="42.8727631" lon="11.9442055"><ele>358.0</ele><time>2026-05-01T08:27:27.912Z</time></trkpt><trkpt lat="42.8726554" lon="11.9444227"><ele>358.0</ele><time>2026-05-01T08:27:28.912Z</time></trkpt><trkpt lat="42.8725441" lon="11.9446482"><ele>357.0</ele><time>2026-05-01T08:27:29.912Z</time></trkpt><trkpt lat="42.8724323" lon="11.9448964"><ele>356.0</ele><time>2026-05-01T08:27:30.912Z</time></trkpt><trkpt lat="42.8723167" lon="11.9451712"><ele>355.0</ele><time>2026-05-01T08:27:31.912Z</time></trkpt><trkpt lat="42.8722007" lon="11.945451"><ele>355.0</ele><time>2026-05-01T08:27:32.912Z</time></trkpt><trkpt lat="42.8720927" lon="11.9457345"><ele>355.0</ele><time>2026-05-01T08:27:33.912Z</time></trkpt><trkpt lat="42.8719882" lon="11.9460067"><ele>356.0</ele><time>2026-05-01T08:27:34.911Z</time></trkpt><trkpt lat="42.8718889" lon="11.9462797"><ele>357.0</ele><time>2026-05-01T08:27:35.911Z</time></trkpt><trkpt lat="42.8717955" lon="11.9465274"><ele>358.0</ele><time>2026-05-01T08:27:36.912Z</time></trkpt><trkpt lat="42.8716987" lon="11.9467812"><ele>352.0</ele><time>2026-05-01T08:27:37.912Z</time></trkpt><trkpt lat="42.8716104" lon="11.9470564"><ele>346.0</ele><time>2026-05-01T08:27:38.912Z</time></trkpt><trkpt lat="42.8715449" lon="11.9473668"><ele>346.0</ele><time>2026-05-01T08:27:39.912Z</time></trkpt><trkpt lat="42.8714917" lon="11.9476782"><ele>346.0</ele><time>2026-05-01T08:27:40.912Z</time></trkpt><trkpt lat="42.8714413" lon="11.9479685"><ele>346.0</ele><time>2026-05-01T08:27:41.912Z</time></trkpt><trkpt lat="42.8713937" lon="11.9482427"><ele>346.0</ele><time>2026-05-01T08:27:42.911Z</time></trkpt><trkpt lat="42.8713558" lon="11.948506"><ele>346.0</ele><time>2026-05-01T08:27:43.912Z</time></trkpt><trkpt lat="42.8713315" lon="11.9487784"><ele>345.66666666666663</ele><time>2026-05-01T08:27:44.912Z</time></trkpt><trkpt lat="42.871315" lon="11.9490585"><ele>345.3333333333333</ele><time>2026-05-01T08:27:45.911Z</time></trkpt><trkpt lat="42.8713097" lon="11.9493412"><ele>345.0</ele><time>2026-05-01T08:27:46.911Z</time></trkpt><trkpt lat="42.8713001" lon="11.9496286"><ele>344.6666666666667</ele><time>2026-05-01T08:27:47.912Z</time></trkpt><trkpt lat="42.871283" lon="11.9499138"><ele>344.33333333333337</ele><time>2026-05-01T08:27:48.912Z</time></trkpt><trkpt lat="42.8712449" lon="11.9502041"><ele>344.0</ele><time>2026-05-01T08:27:49.912Z</time></trkpt><trkpt lat="42.8711842" lon="11.9505005"><ele>344.0</ele><time>2026-05-01T08:27:50.912Z</time></trkpt><trkpt lat="42.871117" lon="11.9507934"><ele>344.0</ele><time>2026-05-01T08:27:51.911Z</time></trkpt><trkpt lat="42.8710393" lon="11.9510862"><ele>344.33333333333337</ele><time>2026-05-01T08:27:52.912Z</time></trkpt><trkpt lat="42.8709683" lon="11.9513745"><ele>344.6666666666667</ele><time>2026-05-01T08:27:53.912Z</time></trkpt><trkpt lat="42.8708943" lon="11.9516656"><ele>345.0</ele><time>2026-05-01T08:27:54.912Z</time></trkpt><trkpt lat="42.8708083" lon="11.9519452"><ele>338.5</ele><time>2026-05-01T08:27:55.912Z</time></trkpt><trkpt lat="42.8707016" lon="11.9522135"><ele>332.0</ele><time>2026-05-01T08:27:56.912Z</time></trkpt><trkpt lat="42.8705784" lon="11.9524821"><ele>330.6666666666667</ele><time>2026-05-01T08:27:57.911Z</time></trkpt><trkpt lat="42.8704503" lon="11.9527293"><ele>329.3333333333333</ele><time>2026-05-01T08:27:58.912Z</time></trkpt><trkpt lat="42.8703451" lon="11.9529921"><ele>328.0</ele><time>2026-05-01T08:27:59.912Z</time></trkpt><trkpt lat="42.8702701" lon="11.9532679"><ele>327.5</ele><time>2026-05-01T08:28:00.911Z</time></trkpt><trkpt lat="42.8702232" lon="11.9535745"><ele>327.0</ele><time>2026-05-01T08:28:01.912Z</time></trkpt><trkpt lat="42.8701937" lon="11.95389"><ele>327.0</ele><time>2026-05-01T08:28:02.912Z</time></trkpt><trkpt lat="42.8701711" lon="11.9542046"><ele>327.0</ele><time>2026-05-01T08:28:03.912Z</time></trkpt><trkpt lat="42.8701359" lon="11.9545156"><ele>322.5</ele><time>2026-05-01T08:28:04.911Z</time></trkpt><trkpt lat="42.8701011" lon="11.9548267"><ele>318.0</ele><time>2026-05-01T08:28:05.911Z</time></trkpt><trkpt lat="42.8700609" lon="11.9551293"><ele>317.0</ele><time>2026-05-01T08:28:06.911Z</time></trkpt><trkpt lat="42.8700027" lon="11.9554322"><ele>316.0</ele><time>2026-05-01T08:28:07.912Z</time></trkpt><trkpt lat="42.8699265" lon="11.9557292"><ele>315.5</ele><time>2026-05-01T08:28:08.912Z</time></trkpt><trkpt lat="42.8698444" lon="11.9560473"><ele>315.0</ele><time>2026-05-01T08:28:09.912Z</time></trkpt><trkpt lat="42.8697556" lon="11.9563818"><ele>314.5</ele><time>2026-05-01T08:28:10.912Z</time></trkpt><trkpt lat="42.8696661" lon="11.9567229"><ele>314.0</ele><time>2026-05-01T08:28:11.912Z</time></trkpt><trkpt lat="42.8695721" lon="11.9570538"><ele>314.0</ele><time>2026-05-01T08:28:12.912Z</time></trkpt><trkpt lat="42.8694878" lon="11.9573659"><ele>314.0</ele><time>2026-05-01T08:28:13.912Z</time></trkpt><trkpt lat="42.8694059" lon="11.9576354"><ele>313.6666666666667</ele><time>2026-05-01T08:28:14.912Z</time></trkpt><trkpt lat="42.8693372" lon="11.9578773"><ele>313.3333333333333</ele><time>2026-05-01T08:28:15.912Z</time></trkpt><trkpt lat="42.8693003" lon="11.9581044"><ele>313.0</ele><time>2026-05-01T08:28:16.912Z</time></trkpt><trkpt lat="42.8692981" lon="11.9583438"><ele>314.0</ele><time>2026-05-01T08:28:17.912Z</time></trkpt><trkpt lat="42.8693175" lon="11.9586019"><ele>315.0</ele><time>2026-05-01T08:28:18.912Z</time></trkpt><trkpt lat="42.8693454" lon="11.9588713"><ele>316.0</ele><time>2026-05-01T08:28:19.912Z</time></trkpt><trkpt lat="42.8693822" lon="11.959135"><ele>316.0</ele><time>2026-05-01T08:28:20.912Z</time></trkpt><trkpt lat="42.8694118" lon="11.9593815"><ele>316.0</ele><time>2026-05-01T08:28:21.912Z</time></trkpt><trkpt lat="42.8694348" lon="11.9596183"><ele>316.0</ele><time>2026-05-01T08:28:22.912Z</time></trkpt><trkpt lat="42.8694573" lon="11.959856"><ele>317.3333333333333</ele><time>2026-05-01T08:28:23.911Z</time></trkpt><trkpt lat="42.8694735" lon="11.9600929"><ele>318.6666666666667</ele><time>2026-05-01T08:28:24.912Z</time></trkpt><trkpt lat="42.8694782" lon="11.9603451"><ele>320.0</ele><time>2026-05-01T08:28:25.911Z</time></trkpt><trkpt lat="42.8694736" lon="11.9605942"><ele>320.0</ele><time>2026-05-01T08:28:26.912Z</time></trkpt><trkpt lat="42.8694552" lon="11.9608389"><ele>320.0</ele><time>2026-05-01T08:28:27.912Z</time></trkpt><trkpt lat="42.8694257" lon="11.9610763"><ele>320.0</ele><time>2026-05-01T08:28:28.911Z</time></trkpt><trkpt lat="42.8694055" lon="11.9612942"><ele>320.2</ele><time>2026-05-01T08:28:29.912Z</time></trkpt><trkpt lat="42.8693778" lon="11.9614797"><ele>320.4</ele><time>2026-05-01T08:28:30.912Z</time></trkpt><trkpt lat="42.8693621" lon="11.9616494"><ele>320.6</ele><time>2026-05-01T08:28:31.912Z</time></trkpt><trkpt lat="42.8693498" lon="11.961773"><ele>320.8</ele><time>2026-05-01T08:28:32.911Z</time></trkpt><trkpt lat="42.8693457" lon="11.9618762"><ele>321.0</ele><time>2026-05-01T08:28:33.912Z</time></trkpt><trkpt lat="42.8693584" lon="11.9619678"><ele>320.6666666666667</ele><time>2026-05-01T08:28:34.912Z</time></trkpt><trkpt lat="42.869369" lon="11.9620586"><ele>320.3333333333333</ele><time>2026-05-01T08:28:35.912Z</time></trkpt><trkpt lat="42.8693801" lon="11.9621485"><ele>320.0</ele><time>2026-05-01T08:28:36.911Z</time></trkpt><trkpt lat="42.8693946" lon="11.9622345"><ele>319.66666666666663</ele><time>2026-05-01T08:28:37.912Z</time></trkpt><trkpt lat="42.8694174" lon="11.9623259"><ele>319.3333333333333</ele><time>2026-05-01T08:28:38.912Z</time></trkpt><trkpt lat="42.8694618" lon="11.9624828"><ele>319.0</ele><time>2026-05-01T08:28:40.911Z</time></trkpt><trkpt lat="42.8694981" lon="11.9626614"><ele>318.5</ele><time>2026-05-01T08:28:42.912Z</time></trkpt><trkpt lat="42.8695006" lon="11.9627538"><ele>318.0</ele><time>2026-05-01T08:28:43.912Z</time></trkpt><trkpt lat="42.869469" lon="11.9628281"><ele>317.5</ele><time>2026-05-01T08:28:44.912Z</time></trkpt><trkpt lat="42.8693719" lon="11.9628946"><ele>317.0</ele><time>2026-05-01T08:28:46.912Z</time></trkpt><trkpt lat="42.8692974" lon="11.9629266"><ele>316.5</ele><time>2026-05-01T08:28:48.911Z</time></trkpt><trkpt lat="42.8691951" lon="11.9629731"><ele>316.0</ele><time>2026-05-01T08:28:50.911Z</time></trkpt><trkpt lat="42.8690832" lon="11.9630615"><ele>313.0</ele><time>2026-05-01T08:28:52.912Z</time></trkpt><trkpt lat="42.869013" lon="11.9631195"><ele>310.0</ele><time>2026-05-01T08:28:53.912Z</time></trkpt><trkpt lat="42.8689196" lon="11.9631782"><ele>307.0</ele><time>2026-05-01T08:28:54.912Z</time></trkpt><trkpt lat="42.8688157" lon="11.9632384"><ele>304.0</ele><time>2026-05-01T08:28:55.911Z</time></trkpt><trkpt lat="42.8687127" lon="11.9633115"><ele>301.0</ele><time>2026-05-01T08:28:56.912Z</time></trkpt><trkpt lat="42.8686116" lon="11.9633817"><ele>301.0</ele><time>2026-05-01T08:28:57.911Z</time></trkpt><trkpt lat="42.8685187" lon="11.9634459"><ele>301.0</ele><time>2026-05-01T08:28:58.911Z</time></trkpt><trkpt lat="42.8684309" lon="11.9635156"><ele>301.0</ele><time>2026-05-01T08:28:59.912Z</time></trkpt><trkpt lat="42.8683444" lon="11.9635746"><ele>301.0</ele><time>2026-05-01T08:29:00.912Z</time></trkpt><trkpt lat="42.8682702" lon="11.9636258"><ele>301.0</ele><time>2026-05-01T08:29:01.911Z</time></trkpt><trkpt lat="42.8682015" lon="11.9636762"><ele>301.0</ele><time>2026-05-01T08:29:02.911Z</time></trkpt><trkpt lat="42.8681509" lon="11.9637502"><ele>301.0</ele><time>2026-05-01T08:29:03.911Z</time></trkpt><trkpt lat="42.868108" lon="11.9638543"><ele>301.0</ele><time>2026-05-01T08:29:04.912Z</time></trkpt><trkpt lat="42.8680895" lon="11.9639688"><ele>301.0</ele><time>2026-05-01T08:29:05.912Z</time></trkpt><trkpt lat="42.868097" lon="11.9640723"><ele>301.0</ele><time>2026-05-01T08:29:06.912Z</time></trkpt><trkpt lat="42.8681088" lon="11.9641759"><ele>301.0</ele><time>2026-05-01T08:29:07.911Z</time></trkpt><trkpt lat="42.8681327" lon="11.9642845"><ele>300.7142857142857</ele><time>2026-05-01T08:29:08.911Z</time></trkpt><trkpt lat="42.8681508" lon="11.9643946"><ele>300.42857142857144</ele><time>2026-05-01T08:29:09.912Z</time></trkpt><trkpt lat="42.8681662" lon="11.9645021"><ele>300.1428571428571</ele><time>2026-05-01T08:29:10.911Z</time></trkpt><trkpt lat="42.8681764" lon="11.9646087"><ele>299.8571428571429</ele><time>2026-05-01T08:29:11.911Z</time></trkpt><trkpt lat="42.868186" lon="11.9646952"><ele>299.57142857142856</ele><time>2026-05-01T08:29:12.912Z</time></trkpt><trkpt lat="42.8682006" lon="11.9647861"><ele>299.2857142857143</ele><time>2026-05-01T08:29:13.912Z</time></trkpt><trkpt lat="42.8682127" lon="11.9648713"><ele>299.0</ele><time>2026-05-01T08:29:14.912Z</time></trkpt><trkpt lat="42.8682263" lon="11.9650225"><ele>299.0</ele><time>2026-05-01T08:29:16.911Z</time></trkpt><trkpt lat="42.8682395" lon="11.9651403"><ele>299.0</ele><time>2026-05-01T08:29:18.911Z</time></trkpt><trkpt lat="42.8682426" lon="11.965228"><ele>299.0</ele><time>2026-05-01T08:29:23.912Z</time></trkpt><trkpt lat="42.8681685" lon="11.9652756"><ele>299.0</ele><time>2026-05-01T08:29:27.911Z</time></trkpt><trkpt lat="42.8680745" lon="11.9651783"><ele>299.0</ele><time>2026-05-01T08:29:29.912Z</time></trkpt><trkpt lat="42.8680161" lon="11.9650716"><ele>299.0</ele><time>2026-05-01T08:29:30.912Z</time></trkpt><trkpt lat="42.8679442" lon="11.9649481"><ele>299.0</ele><time>2026-05-01T08:29:31.912Z</time></trkpt><trkpt lat="42.8678553" lon="11.9648271"><ele>299.0</ele><time>2026-05-01T08:29:32.912Z</time></trkpt><trkpt lat="42.8677509" lon="11.9646633"><ele>299.0</ele><time>2026-05-01T08:29:33.911Z</time></trkpt><trkpt lat="42.8676398" lon="11.9645002"><ele>299.0</ele><time>2026-05-01T08:29:34.911Z</time></trkpt><trkpt lat="42.8675202" lon="11.9643461"><ele>300.33333333333337</ele><time>2026-05-01T08:29:35.911Z</time></trkpt><trkpt lat="42.8674043" lon="11.9641761"><ele>301.6666666666667</ele><time>2026-05-01T08:29:36.912Z</time></trkpt><trkpt lat="42.8672861" lon="11.964016"><ele>303.0</ele><time>2026-05-01T08:29:37.912Z</time></trkpt><trkpt lat="42.8671674" lon="11.9638637"><ele>303.0</ele><time>2026-05-01T08:29:38.911Z</time></trkpt><trkpt lat="42.8670538" lon="11.9637179"><ele>303.0</ele><time>2026-05-01T08:29:39.911Z</time></trkpt><trkpt lat="42.8669286" lon="11.9635821"><ele>303.0</ele><time>2026-05-01T08:29:40.911Z</time></trkpt><trkpt lat="42.8667978" lon="11.9634515"><ele>303.6666666666667</ele><time>2026-05-01T08:29:41.912Z</time></trkpt><trkpt lat="42.866658" lon="11.9633127"><ele>304.33333333333337</ele><time>2026-05-01T08:29:42.912Z</time></trkpt><trkpt lat="42.8665207" lon="11.963188"><ele>305.0</ele><time>2026-05-01T08:29:43.912Z</time></trkpt><trkpt lat="42.8663908" lon="11.9630674"><ele>305.0</ele><time>2026-05-01T08:29:44.912Z</time></trkpt><trkpt lat="42.8662729" lon="11.9629612"><ele>305.0</ele><time>2026-05-01T08:29:45.911Z</time></trkpt><trkpt lat="42.8661714" lon="11.9628649"><ele>305.0</ele><time>2026-05-01T08:29:46.912Z</time></trkpt><trkpt lat="42.8660752" lon="11.9627751"><ele>305.0</ele><time>2026-05-01T08:29:47.912Z</time></trkpt><trkpt lat="42.8659896" lon="11.9627051"><ele>304.75</ele><time>2026-05-01T08:29:48.912Z</time></trkpt><trkpt lat="42.8659172" lon="11.9626417"><ele>304.5</ele><time>2026-05-01T08:29:49.912Z</time></trkpt><trkpt lat="42.8658352" lon="11.9625764"><ele>304.25</ele><time>2026-05-01T08:29:50.912Z</time></trkpt><trkpt lat="42.8657168" lon="11.9624832"><ele>304.0</ele><time>2026-05-01T08:29:51.911Z</time></trkpt><trkpt lat="42.8655806" lon="11.962394"><ele>306.3333333333333</ele><time>2026-05-01T08:29:52.912Z</time></trkpt><trkpt lat="42.8654256" lon="11.9622921"><ele>308.6666666666667</ele><time>2026-05-01T08:29:53.912Z</time></trkpt><trkpt lat="42.8652764" lon="11.9621853"><ele>311.0</ele><time>2026-05-01T08:29:54.912Z</time></trkpt><trkpt lat="42.8651246" lon="11.9620952"><ele>311.5</ele><time>2026-05-01T08:29:55.912Z</time></trkpt><trkpt lat="42.8649742" lon="11.9620133"><ele>312.0</ele><time>2026-05-01T08:29:56.912Z</time></trkpt><trkpt lat="42.8648338" lon="11.9619597"><ele>312.5</ele><time>2026-05-01T08:29:57.912Z</time></trkpt><trkpt lat="42.864702" lon="11.9619107"><ele>313.0</ele><time>2026-05-01T08:29:58.912Z</time></trkpt><trkpt lat="42.8645661" lon="11.9618668"><ele>313.0</ele><time>2026-05-01T08:29:59.912Z</time></trkpt><trkpt lat="42.8644272" lon="11.9618182"><ele>313.0</ele><time>2026-05-01T08:30:00.912Z</time></trkpt><trkpt lat="42.864283" lon="11.9617674"><ele>313.0</ele><time>2026-05-01T08:30:01.912Z</time></trkpt><trkpt lat="42.8641372" lon="11.9616908"><ele>313.0</ele><time>2026-05-01T08:30:02.911Z</time></trkpt><trkpt lat="42.8639954" lon="11.9616022"><ele>317.0</ele><time>2026-05-01T08:30:03.912Z</time></trkpt><trkpt lat="42.8638535" lon="11.9615074"><ele>321.0</ele><time>2026-05-01T08:30:04.911Z</time></trkpt><trkpt lat="42.8637156" lon="11.9614067"><ele>325.0</ele><time>2026-05-01T08:30:05.911Z</time></trkpt><trkpt lat="42.8635885" lon="11.9613128"><ele>325.0</ele><time>2026-05-01T08:30:06.911Z</time></trkpt><trkpt lat="42.8634671" lon="11.9612109"><ele>325.0</ele><time>2026-05-01T08:30:07.912Z</time></trkpt><trkpt lat="42.8633499" lon="11.9610973"><ele>325.0</ele><time>2026-05-01T08:30:08.912Z</time></trkpt><trkpt lat="42.8632287" lon="11.9609581"><ele>325.0</ele><time>2026-05-01T08:30:09.912Z</time></trkpt><trkpt lat="42.863106" lon="11.9607944"><ele>327.3333333333333</ele><time>2026-05-01T08:30:10.911Z</time></trkpt><trkpt lat="42.8629786" lon="11.9606312"><ele>329.6666666666667</ele><time>2026-05-01T08:30:11.911Z</time></trkpt><trkpt lat="42.8628513" lon="11.9604611"><ele>332.0</ele><time>2026-05-01T08:30:12.912Z</time></trkpt><trkpt lat="42.8627237" lon="11.9602893"><ele>330.33333333333337</ele><time>2026-05-01T08:30:13.912Z</time></trkpt><trkpt lat="42.8626014" lon="11.9601215"><ele>328.6666666666667</ele><time>2026-05-01T08:30:14.912Z</time></trkpt><trkpt lat="42.8624786" lon="11.9599639"><ele>327.0</ele><time>2026-05-01T08:30:15.912Z</time></trkpt><trkpt lat="42.862358" lon="11.9598165"><ele>329.75</ele><time>2026-05-01T08:30:16.912Z</time></trkpt><trkpt lat="42.8622456" lon="11.9596909"><ele>332.5</ele><time>2026-05-01T08:30:17.912Z</time></trkpt><trkpt lat="42.8621287" lon="11.9595764"><ele>335.25</ele><time>2026-05-01T08:30:18.912Z</time></trkpt><trkpt lat="42.8620115" lon="11.9594743"><ele>338.0</ele><time>2026-05-01T08:30:19.911Z</time></trkpt><trkpt lat="42.8618931" lon="11.9593718"><ele>338.0</ele><time>2026-05-01T08:30:20.912Z</time></trkpt><trkpt lat="42.8617908" lon="11.9592583"><ele>338.0</ele><time>2026-05-01T08:30:21.912Z</time></trkpt><trkpt lat="42.8616915" lon="11.9591047"><ele>338.0</ele><time>2026-05-01T08:30:22.912Z</time></trkpt><trkpt lat="42.861611" lon="11.9589239"><ele>338.0</ele><time>2026-05-01T08:30:23.911Z</time></trkpt><trkpt lat="42.8615294" lon="11.9587491"><ele>338.25</ele><time>2026-05-01T08:30:24.912Z</time></trkpt><trkpt lat="42.8614388" lon="11.9585994"><ele>338.5</ele><time>2026-05-01T08:30:25.911Z</time></trkpt><trkpt lat="42.8613442" lon="11.9584706"><ele>338.75</ele><time>2026-05-01T08:30:26.911Z</time></trkpt><trkpt lat="42.8612393" lon="11.9583639"><ele>339.0</ele><time>2026-05-01T08:30:27.912Z</time></trkpt><trkpt lat="42.8611167" lon="11.9582772"><ele>337.75</ele><time>2026-05-01T08:30:28.911Z</time></trkpt><trkpt lat="42.8609878" lon="11.9582018"><ele>336.5</ele><time>2026-05-01T08:30:29.911Z</time></trkpt><trkpt lat="42.8608523" lon="11.95812"><ele>335.25</ele><time>2026-05-01T08:30:30.912Z</time></trkpt><trkpt lat="42.8607163" lon="11.9580455"><ele>334.0</ele><time>2026-05-01T08:30:31.912Z</time></trkpt><trkpt lat="42.8605644" lon="11.9579784"><ele>337.0</ele><time>2026-05-01T08:30:32.912Z</time></trkpt><trkpt lat="42.8604183" lon="11.9579155"><ele>340.0</ele><time>2026-05-01T08:30:33.911Z</time></trkpt><trkpt lat="42.8602799" lon="11.9578508"><ele>343.0</ele><time>2026-05-01T08:30:34.911Z</time></trkpt><trkpt lat="42.8601505" lon="11.9578096"><ele>346.0</ele><time>2026-05-01T08:30:35.911Z</time></trkpt><trkpt lat="42.8600264" lon="11.9577668"><ele>348.0</ele><time>2026-05-01T08:30:36.912Z</time></trkpt><trkpt lat="42.8598904" lon="11.9577416"><ele>350.0</ele><time>2026-05-01T08:30:37.912Z</time></trkpt><trkpt lat="42.8597428" lon="11.9577221"><ele>352.0</ele><time>2026-05-01T08:30:38.911Z</time></trkpt><trkpt lat="42.8595827" lon="11.9577045"><ele>354.0</ele><time>2026-05-01T08:30:39.912Z</time></trkpt><trkpt lat="42.8594119" lon="11.9576711"><ele>356.0</ele><time>2026-05-01T08:30:40.912Z</time></trkpt><trkpt lat="42.8592346" lon="11.9576493"><ele>358.0</ele><time>2026-05-01T08:30:41.912Z</time></trkpt><trkpt lat="42.8590518" lon="11.9576282"><ele>360.0</ele><time>2026-05-01T08:30:42.912Z</time></trkpt><trkpt lat="42.8588534" lon="11.9575904"><ele>360.0</ele><time>2026-05-01T08:30:43.912Z</time></trkpt><trkpt lat="42.8586636" lon="11.9575585"><ele>360.0</ele><time>2026-05-01T08:30:44.912Z</time></trkpt><trkpt lat="42.8584811" lon="11.9575202"><ele>360.0</ele><time>2026-05-01T08:30:45.912Z</time></trkpt><trkpt lat="42.8583296" lon="11.957477"><ele>358.5</ele><time>2026-05-01T08:30:46.912Z</time></trkpt><trkpt lat="42.8581898" lon="11.9574206"><ele>357.0</ele><time>2026-05-01T08:30:47.912Z</time></trkpt><trkpt lat="42.8580468" lon="11.9573771"><ele>355.5</ele><time>2026-05-01T08:30:48.911Z</time></trkpt><trkpt lat="42.8579021" lon="11.9573543"><ele>354.0</ele><time>2026-05-01T08:30:49.912Z</time></trkpt><trkpt lat="42.8577492" lon="11.9573608"><ele>355.0</ele><time>2026-05-01T08:30:50.912Z</time></trkpt><trkpt lat="42.8576056" lon="11.9573685"><ele>356.0</ele><time>2026-05-01T08:30:51.912Z</time></trkpt><trkpt lat="42.8574874" lon="11.9573994"><ele>357.0</ele><time>2026-05-01T08:30:52.911Z</time></trkpt><trkpt lat="42.8573776" lon="11.9574279"><ele>358.0</ele><time>2026-05-01T08:30:53.912Z</time></trkpt><trkpt lat="42.857275" lon="11.9574998"><ele>360.0</ele><time>2026-05-01T08:30:54.912Z</time></trkpt><trkpt lat="42.8571664" lon="11.9575908"><ele>362.0</ele><time>2026-05-01T08:30:55.912Z</time></trkpt><trkpt lat="42.8570436" lon="11.9576962"><ele>364.0</ele><time>2026-05-01T08:30:56.912Z</time></trkpt><trkpt lat="42.8569066" lon="11.9578026"><ele>366.0</ele><time>2026-05-01T08:30:57.911Z</time></trkpt><trkpt lat="42.8567544" lon="11.9579007"><ele>366.0</ele><time>2026-05-01T08:30:58.911Z</time></trkpt><trkpt lat="42.8566042" lon="11.9579933"><ele>366.0</ele><time>2026-05-01T08:30:59.912Z</time></trkpt><trkpt lat="42.8564521" lon="11.958077"><ele>366.0</ele><time>2026-05-01T08:31:00.912Z</time></trkpt><trkpt lat="42.8563123" lon="11.9581617"><ele>366.0</ele><time>2026-05-01T08:31:01.912Z</time></trkpt><trkpt lat="42.856195" lon="11.958226"><ele>366.0</ele><time>2026-05-01T08:31:02.912Z</time></trkpt><trkpt lat="42.8560904" lon="11.9582782"><ele>366.0</ele><time>2026-05-01T08:31:03.912Z</time></trkpt><trkpt lat="42.855988" lon="11.9583077"><ele>366.0</ele><time>2026-05-01T08:31:04.911Z</time></trkpt><trkpt lat="42.8558872" lon="11.9583078"><ele>366.0</ele><time>2026-05-01T08:31:05.911Z</time></trkpt><trkpt lat="42.8557869" lon="11.9582696"><ele>365.4</ele><time>2026-05-01T08:31:06.912Z</time></trkpt><trkpt lat="42.855696" lon="11.9581997"><ele>364.8</ele><time>2026-05-01T08:31:07.912Z</time></trkpt><trkpt lat="42.8556203" lon="11.9580711"><ele>364.2</ele><time>2026-05-01T08:31:08.911Z</time></trkpt><trkpt lat="42.8555576" lon="11.9579424"><ele>363.59999999999997</ele><time>2026-05-01T08:31:09.912Z</time></trkpt><trkpt lat="42.855507" lon="11.957822"><ele>363.0</ele><time>2026-05-01T08:31:10.912Z</time></trkpt><trkpt lat="42.8554546" lon="11.9577348"><ele>363.0</ele><time>2026-05-01T08:31:11.911Z</time></trkpt><trkpt lat="42.8553812" lon="11.9576742"><ele>363.0</ele><time>2026-05-01T08:31:12.912Z</time></trkpt><trkpt lat="42.8552875" lon="11.9576423"><ele>363.0</ele><time>2026-05-01T08:31:13.911Z</time></trkpt><trkpt lat="42.8551719" lon="11.9576341"><ele>363.0</ele><time>2026-05-01T08:31:14.911Z</time></trkpt><trkpt lat="42.8550503" lon="11.9576593"><ele>363.0</ele><time>2026-05-01T08:31:15.912Z</time></trkpt><trkpt lat="42.854903" lon="11.9576899"><ele>366.0</ele><time>2026-05-01T08:31:16.912Z</time></trkpt><trkpt lat="42.8547363" lon="11.9577366"><ele>369.0</ele><time>2026-05-01T08:31:17.912Z</time></trkpt><trkpt lat="42.8545632" lon="11.9577935"><ele>372.0</ele><time>2026-05-01T08:31:18.911Z</time></trkpt><trkpt lat="42.854378" lon="11.9578484"><ele>372.75</ele><time>2026-05-01T08:31:19.912Z</time></trkpt><trkpt lat="42.8542217" lon="11.9579044"><ele>373.5</ele><time>2026-05-01T08:31:20.912Z</time></trkpt><trkpt lat="42.8540789" lon="11.9579278"><ele>374.25</ele><time>2026-05-01T08:31:21.911Z</time></trkpt><trkpt lat="42.8539526" lon="11.9579383"><ele>375.0</ele><time>2026-05-01T08:31:22.912Z</time></trkpt><trkpt lat="42.8538423" lon="11.9579421"><ele>375.0</ele><time>2026-05-01T08:31:23.912Z</time></trkpt><trkpt lat="42.8537399" lon="11.9579115"><ele>375.0</ele><time>2026-05-01T08:31:24.912Z</time></trkpt><trkpt lat="42.8536486" lon="11.9578449"><ele>375.0</ele><time>2026-05-01T08:31:25.911Z</time></trkpt><trkpt lat="42.8535603" lon="11.9577481"><ele>375.0</ele><time>2026-05-01T08:31:26.912Z</time></trkpt><trkpt lat="42.8534953" lon="11.9576347"><ele>375.0</ele><time>2026-05-01T08:31:27.912Z</time></trkpt><trkpt lat="42.8534337" lon="11.9574936"><ele>376.5</ele><time>2026-05-01T08:31:28.912Z</time></trkpt><trkpt lat="42.8533757" lon="11.9573553"><ele>378.0</ele><time>2026-05-01T08:31:29.912Z</time></trkpt><trkpt lat="42.8533258" lon="11.9571935"><ele>379.5</ele><time>2026-05-01T08:31:30.912Z</time></trkpt><trkpt lat="42.8532827" lon="11.9570264"><ele>381.0</ele><time>2026-05-01T08:31:31.912Z</time></trkpt><trkpt lat="42.8532449" lon="11.9568344"><ele>381.3333333333333</ele><time>2026-05-01T08:31:32.911Z</time></trkpt><trkpt lat="42.8532219" lon="11.9566277"><ele>381.66666666666663</ele><time>2026-05-01T08:31:33.912Z</time></trkpt><trkpt lat="42.8531926" lon="11.956406"><ele>382.0</ele><time>2026-05-01T08:31:34.911Z</time></trkpt><trkpt lat="42.8531615" lon="11.9561852"><ele>382.0</ele><time>2026-05-01T08:31:35.912Z</time></trkpt><trkpt lat="42.8531325" lon="11.955964"><ele>382.0</ele><time>2026-05-01T08:31:36.911Z</time></trkpt><trkpt lat="42.8530993" lon="11.9557621"><ele>382.0</ele><time>2026-05-01T08:31:37.912Z</time></trkpt><trkpt lat="42.8530667" lon="11.9555724"><ele>381.75</ele><time>2026-05-01T08:31:38.912Z</time></trkpt><trkpt lat="42.8530382" lon="11.9553822"><ele>381.5</ele><time>2026-05-01T08:31:39.911Z</time></trkpt><trkpt lat="42.8530039" lon="11.9551927"><ele>381.25</ele><time>2026-05-01T08:31:40.912Z</time></trkpt><trkpt lat="42.8529563" lon="11.9550123"><ele>381.0</ele><time>2026-05-01T08:31:41.912Z</time></trkpt><trkpt lat="42.8528966" lon="11.9548239"><ele>381.6666666666667</ele><time>2026-05-01T08:31:42.911Z</time></trkpt><trkpt lat="42.8528071" lon="11.9546328"><ele>382.33333333333337</ele><time>2026-05-01T08:31:43.912Z</time></trkpt><trkpt lat="42.8527129" lon="11.9544462"><ele>383.0</ele><time>2026-05-01T08:31:44.912Z</time></trkpt><trkpt lat="42.852614" lon="11.9542742"><ele>385.0</ele><time>2026-05-01T08:31:45.912Z</time></trkpt><trkpt lat="42.8525225" lon="11.9541145"><ele>387.0</ele><time>2026-05-01T08:31:46.911Z</time></trkpt><trkpt lat="42.852436" lon="11.9539691"><ele>389.0</ele><time>2026-05-01T08:31:47.911Z</time></trkpt><trkpt lat="42.8523637" lon="11.9538389"><ele>391.0</ele><time>2026-05-01T08:31:48.911Z</time></trkpt><trkpt lat="42.8522836" lon="11.9537299"><ele>391.0</ele><time>2026-05-01T08:31:49.912Z</time></trkpt><trkpt lat="42.8522003" lon="11.9536546"><ele>391.0</ele><time>2026-05-01T08:31:50.912Z</time></trkpt><trkpt lat="42.8521131" lon="11.9536256"><ele>391.0</ele><time>2026-05-01T08:31:51.912Z</time></trkpt><trkpt lat="42.8520165" lon="11.9536402"><ele>391.0</ele><time>2026-05-01T08:31:52.912Z</time></trkpt><trkpt lat="42.8519121" lon="11.9536814"><ele>391.0</ele><time>2026-05-01T08:31:53.912Z</time></trkpt><trkpt lat="42.8517985" lon="11.9537186"><ele>392.6</ele><time>2026-05-01T08:31:54.911Z</time></trkpt><trkpt lat="42.8516884" lon="11.953764"><ele>394.20000000000005</ele><time>2026-05-01T08:31:55.912Z</time></trkpt><trkpt lat="42.8515787" lon="11.9538134"><ele>395.79999999999995</ele><time>2026-05-01T08:31:56.912Z</time></trkpt><trkpt lat="42.8514782" lon="11.9538649"><ele>397.4</ele><time>2026-05-01T08:31:57.912Z</time></trkpt><trkpt lat="42.8513874" lon="11.9539304"><ele>399.0</ele><time>2026-05-01T08:31:58.912Z</time></trkpt><trkpt lat="42.8513346" lon="11.9540596"><ele>399.0</ele><time>2026-05-01T08:31:59.911Z</time></trkpt><trkpt lat="42.8513132" lon="11.9542202"><ele>399.0</ele><time>2026-05-01T08:32:00.912Z</time></trkpt><trkpt lat="42.8512954" lon="11.9543945"><ele>399.0</ele><time>2026-05-01T08:32:01.912Z</time></trkpt><trkpt lat="42.8512864" lon="11.9545571"><ele>399.0</ele><time>2026-05-01T08:32:02.912Z</time></trkpt><trkpt lat="42.8512508" lon="11.9547203"><ele>399.0</ele><time>2026-05-01T08:32:03.912Z</time></trkpt><trkpt lat="42.8511948" lon="11.9548681"><ele>399.0</ele><time>2026-05-01T08:32:04.912Z</time></trkpt><trkpt lat="42.8511374" lon="11.9549911"><ele>399.0</ele><time>2026-05-01T08:32:05.912Z</time></trkpt><trkpt lat="42.8510803" lon="11.9550953"><ele>399.0</ele><time>2026-05-01T08:32:06.912Z</time></trkpt><trkpt lat="42.8510174" lon="11.9551806"><ele>399.0</ele><time>2026-05-01T08:32:07.912Z</time></trkpt><trkpt lat="42.8509532" lon="11.9552351"><ele>400.5</ele><time>2026-05-01T08:32:08.912Z</time></trkpt><trkpt lat="42.8508791" lon="11.9552626"><ele>402.0</ele><time>2026-05-01T08:32:09.911Z</time></trkpt><trkpt lat="42.8508014" lon="11.9552667"><ele>403.5</ele><time>2026-05-01T08:32:10.911Z</time></trkpt><trkpt lat="42.8507363" lon="11.9552528"><ele>405.0</ele><time>2026-05-01T08:32:11.911Z</time></trkpt><trkpt lat="42.850639" lon="11.9552086"><ele>406.5</ele><time>2026-05-01T08:32:13.911Z</time></trkpt><trkpt lat="42.8505582" lon="11.9551529"><ele>408.0</ele><time>2026-05-01T08:32:15.912Z</time></trkpt><trkpt lat="42.8505122" lon="11.9550877"><ele>408.4</ele><time>2026-05-01T08:32:16.912Z</time></trkpt><trkpt lat="42.8504549" lon="11.9550034"><ele>408.79999999999995</ele><time>2026-05-01T08:32:17.912Z</time></trkpt><trkpt lat="42.8503991" lon="11.9548979"><ele>409.2</ele><time>2026-05-01T08:32:18.912Z</time></trkpt><trkpt lat="42.8503759" lon="11.9547609"><ele>409.6</ele><time>2026-05-01T08:32:19.912Z</time></trkpt><trkpt lat="42.8503771" lon="11.9546033"><ele>410.0</ele><time>2026-05-01T08:32:20.911Z</time></trkpt><trkpt lat="42.8503948" lon="11.9544426"><ele>410.0</ele><time>2026-05-01T08:32:21.912Z</time></trkpt><trkpt lat="42.8504156" lon="11.9542815"><ele>410.0</ele><time>2026-05-01T08:32:22.912Z</time></trkpt><trkpt lat="42.8504142" lon="11.954138"><ele>410.0</ele><time>2026-05-01T08:32:23.911Z</time></trkpt><trkpt lat="42.8503697" lon="11.9539991"><ele>410.0</ele><time>2026-05-01T08:32:24.912Z</time></trkpt><trkpt lat="42.8502839" lon="11.9538771"><ele>410.5</ele><time>2026-05-01T08:32:25.912Z</time></trkpt><trkpt lat="42.8501691" lon="11.9537774"><ele>411.0</ele><time>2026-05-01T08:32:26.912Z</time></trkpt><trkpt lat="42.8500477" lon="11.9536848"><ele>411.5</ele><time>2026-05-01T08:32:27.912Z</time></trkpt><trkpt lat="42.8499314" lon="11.9535775"><ele>412.0</ele><time>2026-05-01T08:32:28.911Z</time></trkpt><trkpt lat="42.8498371" lon="11.9534495"><ele>417.0</ele><time>2026-05-01T08:32:29.911Z</time></trkpt><trkpt lat="42.8497605" lon="11.9532906"><ele>422.0</ele><time>2026-05-01T08:32:30.912Z</time></trkpt><trkpt lat="42.8496963" lon="11.9530953"><ele>427.0</ele><time>2026-05-01T08:32:31.911Z</time></trkpt><trkpt lat="42.8496231" lon="11.9528955"><ele>427.0</ele><time>2026-05-01T08:32:32.911Z</time></trkpt><trkpt lat="42.849518" lon="11.9527122"><ele>427.0</ele><time>2026-05-01T08:32:33.912Z</time></trkpt><trkpt lat="42.849406" lon="11.9525529"><ele>427.0</ele><time>2026-05-01T08:32:34.912Z</time></trkpt><trkpt lat="42.8492981" lon="11.9524113"><ele>428.0</ele><time>2026-05-01T08:32:35.911Z</time></trkpt><trkpt lat="42.8492203" lon="11.9522768"><ele>429.0</ele><time>2026-05-01T08:32:36.911Z</time></trkpt><trkpt lat="42.8491737" lon="11.9521136"><ele>430.0</ele><time>2026-05-01T08:32:37.911Z</time></trkpt><trkpt lat="42.8491577" lon="11.9519475"><ele>431.0</ele><time>2026-05-01T08:32:38.911Z</time></trkpt><trkpt lat="42.8491689" lon="11.95178"><ele>432.25</ele><time>2026-05-01T08:32:39.912Z</time></trkpt><trkpt lat="42.8492149" lon="11.9516178"><ele>433.5</ele><time>2026-05-01T08:32:40.912Z</time></trkpt><trkpt lat="42.8492992" lon="11.9514574"><ele>434.75</ele><time>2026-05-01T08:32:41.912Z</time></trkpt><trkpt lat="42.8494044" lon="11.951317"><ele>436.0</ele><time>2026-05-01T08:32:42.911Z</time></trkpt><trkpt lat="42.8495095" lon="11.9511773"><ele>436.0</ele><time>2026-05-01T08:32:43.912Z</time></trkpt><trkpt lat="42.8495982" lon="11.9510404"><ele>436.0</ele><time>2026-05-01T08:32:44.912Z</time></trkpt><trkpt lat="42.8496505" lon="11.9508812"><ele>436.0</ele><time>2026-05-01T08:32:45.911Z</time></trkpt><trkpt lat="42.8496478" lon="11.950697"><ele>436.0</ele><time>2026-05-01T08:32:46.912Z</time></trkpt><trkpt lat="42.849618" lon="11.950512"><ele>437.25</ele><time>2026-05-01T08:32:47.912Z</time></trkpt><trkpt lat="42.8495864" lon="11.9503239"><ele>438.5</ele><time>2026-05-01T08:32:48.911Z</time></trkpt><trkpt lat="42.849598" lon="11.9501523"><ele>439.75</ele><time>2026-05-01T08:32:49.912Z</time></trkpt><trkpt lat="42.8496603" lon="11.9499992"><ele>441.0</ele><time>2026-05-01T08:32:50.912Z</time></trkpt><trkpt lat="42.8497566" lon="11.9498466"><ele>439.33333333333337</ele><time>2026-05-01T08:32:51.912Z</time></trkpt><trkpt lat="42.8498902" lon="11.9496769"><ele>437.6666666666667</ele><time>2026-05-01T08:32:52.912Z</time></trkpt><trkpt lat="42.8500508" lon="11.9494784"><ele>436.0</ele><time>2026-05-01T08:32:53.912Z</time></trkpt><trkpt lat="42.8501912" lon="11.9492804"><ele>439.33333333333337</ele><time>2026-05-01T08:32:54.911Z</time></trkpt><trkpt lat="42.8503168" lon="11.9491098"><ele>442.66666666666663</ele><time>2026-05-01T08:32:55.911Z</time></trkpt><trkpt lat="42.8504249" lon="11.948959"><ele>446.0</ele><time>2026-05-01T08:32:56.911Z</time></trkpt><trkpt lat="42.8505154" lon="11.9488227"><ele>446.0</ele><time>2026-05-01T08:32:57.912Z</time></trkpt><trkpt lat="42.8505595" lon="11.948704"><ele>446.0</ele><time>2026-05-01T08:32:58.912Z</time></trkpt><trkpt lat="42.850546" lon="11.948597"><ele>446.0</ele><time>2026-05-01T08:32:59.911Z</time></trkpt><trkpt lat="42.8504827" lon="11.948513"><ele>446.0</ele><time>2026-05-01T08:33:00.912Z</time></trkpt><trkpt lat="42.8503989" lon="11.9484901"><ele>446.0</ele><time>2026-05-01T08:33:01.911Z</time></trkpt><trkpt lat="42.8502964" lon="11.948518"><ele>446.0</ele><time>2026-05-01T08:33:02.912Z</time></trkpt><trkpt lat="42.8501712" lon="11.9485927"><ele>446.0</ele><time>2026-05-01T08:33:03.912Z</time></trkpt><trkpt lat="42.8500382" lon="11.9486978"><ele>446.0</ele><time>2026-05-01T08:33:04.912Z</time></trkpt><trkpt lat="42.8498894" lon="11.9487974"><ele>452.3333333333333</ele><time>2026-05-01T08:33:05.912Z</time></trkpt><trkpt lat="42.8497109" lon="11.9488967"><ele>458.66666666666663</ele><time>2026-05-01T08:33:06.912Z</time></trkpt><trkpt lat="42.8495106" lon="11.9490125"><ele>465.0</ele><time>2026-05-01T08:33:07.912Z</time></trkpt><trkpt lat="42.8493016" lon="11.9491217"><ele>464.0</ele><time>2026-05-01T08:33:08.912Z</time></trkpt><trkpt lat="42.8491014" lon="11.9492487"><ele>463.0</ele><time>2026-05-01T08:33:09.911Z</time></trkpt><trkpt lat="42.8489237" lon="11.9493852"><ele>462.0</ele><time>2026-05-01T08:33:10.912Z</time></trkpt><trkpt lat="42.8487886" lon="11.9495235"><ele>462.0</ele><time>2026-05-01T08:33:11.912Z</time></trkpt><trkpt lat="42.8486409" lon="11.9496241"><ele>462.0</ele><time>2026-05-01T08:33:12.912Z</time></trkpt><trkpt lat="42.8484805" lon="11.9496849"><ele>462.0</ele><time>2026-05-01T08:33:13.912Z</time></trkpt><trkpt lat="42.8483386" lon="11.9497505"><ele>464.0</ele><time>2026-05-01T08:33:14.912Z</time></trkpt><trkpt lat="42.8482261" lon="11.9498332"><ele>466.0</ele><time>2026-05-01T08:33:15.911Z</time></trkpt><trkpt lat="42.8481446" lon="11.9498937"><ele>468.0</ele><time>2026-05-01T08:33:16.911Z</time></trkpt><trkpt lat="42.8480788" lon="11.9499229"><ele>470.0</ele><time>2026-05-01T08:33:17.912Z</time></trkpt><trkpt lat="42.8480217" lon="11.9498675"><ele>472.0</ele><time>2026-05-01T08:33:18.911Z</time></trkpt><trkpt lat="42.8480073" lon="11.9497608"><ele>474.0</ele><time>2026-05-01T08:33:19.912Z</time></trkpt><trkpt lat="42.8480356" lon="11.9496238"><ele>474.0</ele><time>2026-05-01T08:33:20.912Z</time></trkpt><trkpt lat="42.8480889" lon="11.9495095"><ele>474.0</ele><time>2026-05-01T08:33:21.912Z</time></trkpt><trkpt lat="42.8481716" lon="11.9493969"><ele>474.0</ele><time>2026-05-01T08:33:22.912Z</time></trkpt><trkpt lat="42.8482746" lon="11.9492742"><ele>474.0</ele><time>2026-05-01T08:33:23.912Z</time></trkpt><trkpt lat="42.8483769" lon="11.9491073"><ele>474.75</ele><time>2026-05-01T08:33:24.912Z</time></trkpt><trkpt lat="42.8484499" lon="11.9489268"><ele>475.5</ele><time>2026-05-01T08:33:25.912Z</time></trkpt><trkpt lat="42.8484981" lon="11.948748"><ele>476.25</ele><time>2026-05-01T08:33:26.912Z</time></trkpt><trkpt lat="42.8484991" lon="11.9485583"><ele>477.0</ele><time>2026-05-01T08:33:27.911Z</time></trkpt><trkpt lat="42.8484435" lon="11.9483788"><ele>481.66666666666663</ele><time>2026-05-01T08:33:28.912Z</time></trkpt><trkpt lat="42.848347" lon="11.9481979"><ele>486.3333333333333</ele><time>2026-05-01T08:33:29.912Z</time></trkpt><trkpt lat="42.8482329" lon="11.9480278"><ele>491.0</ele><time>2026-05-01T08:33:30.912Z</time></trkpt><trkpt lat="42.8481328" lon="11.947844"><ele>491.0</ele><time>2026-05-01T08:33:31.912Z</time></trkpt><trkpt lat="42.8480472" lon="11.9476291"><ele>491.0</ele><time>2026-05-01T08:33:32.912Z</time></trkpt><trkpt lat="42.8479915" lon="11.9473861"><ele>491.0</ele><time>2026-05-01T08:33:33.912Z</time></trkpt><trkpt lat="42.8479568" lon="11.947135"><ele>496.0</ele><time>2026-05-01T08:33:34.912Z</time></trkpt><trkpt lat="42.8479425" lon="11.9468811"><ele>501.0</ele><time>2026-05-01T08:33:35.912Z</time></trkpt><trkpt lat="42.8479247" lon="11.946647"><ele>506.0</ele><time>2026-05-01T08:33:36.911Z</time></trkpt><trkpt lat="42.8478946" lon="11.9464187"><ele>506.3333333333333</ele><time>2026-05-01T08:33:37.912Z</time></trkpt><trkpt lat="42.8478312" lon="11.9461822"><ele>506.66666666666663</ele><time>2026-05-01T08:33:38.912Z</time></trkpt><trkpt lat="42.8477281" lon="11.9459377"><ele>507.0</ele><time>2026-05-01T08:33:39.912Z</time></trkpt><trkpt lat="42.8476132" lon="11.9456945"><ele>507.0</ele><time>2026-05-01T08:33:40.912Z</time></trkpt><trkpt lat="42.8475064" lon="11.9454559"><ele>507.0</ele><time>2026-05-01T08:33:41.911Z</time></trkpt><trkpt lat="42.8474147" lon="11.9452246"><ele>507.0</ele><time>2026-05-01T08:33:42.912Z</time></trkpt><trkpt lat="42.8473429" lon="11.9449837"><ele>511.33333333333337</ele><time>2026-05-01T08:33:43.912Z</time></trkpt><trkpt lat="42.8472879" lon="11.9447157"><ele>515.6666666666667</ele><time>2026-05-01T08:33:44.912Z</time></trkpt><trkpt lat="42.8472358" lon="11.9444275"><ele>520.0</ele><time>2026-05-01T08:33:45.911Z</time></trkpt><trkpt lat="42.8471728" lon="11.9441215"><ele>525.0</ele><time>2026-05-01T08:33:46.911Z</time></trkpt><trkpt lat="42.8470957" lon="11.9438052"><ele>530.0</ele><time>2026-05-01T08:33:47.911Z</time></trkpt><trkpt lat="42.8470051" lon="11.9435023"><ele>533.6666666666666</ele><time>2026-05-01T08:33:48.912Z</time></trkpt><trkpt lat="42.8469411" lon="11.9432446"><ele>537.3333333333334</ele><time>2026-05-01T08:33:49.912Z</time></trkpt><trkpt lat="42.8468881" lon="11.9430324"><ele>541.0</ele><time>2026-05-01T08:33:50.912Z</time></trkpt><trkpt lat="42.8468296" lon="11.9428785"><ele>536.5</ele><time>2026-05-01T08:33:51.912Z</time></trkpt><trkpt lat="42.846754" lon="11.9427606"><ele>532.0</ele><time>2026-05-01T08:33:52.911Z</time></trkpt><trkpt lat="42.8466476" lon="11.9427096"><ele>527.5</ele><time>2026-05-01T08:33:53.912Z</time></trkpt><trkpt lat="42.8465216" lon="11.9427271"><ele>523.0</ele><time>2026-05-01T08:33:54.911Z</time></trkpt><trkpt lat="42.8464078" lon="11.942825"><ele>523.0</ele><time>2026-05-01T08:33:55.911Z</time></trkpt><trkpt lat="42.8463029" lon="11.9429546"><ele>523.0</ele><time>2026-05-01T08:33:56.912Z</time></trkpt><trkpt lat="42.8461969" lon="11.9430836"><ele>523.0</ele><time>2026-05-01T08:33:57.912Z</time></trkpt><trkpt lat="42.8460855" lon="11.9431514"><ele>523.0</ele><time>2026-05-01T08:33:58.912Z</time></trkpt><trkpt lat="42.8459758" lon="11.943154"><ele>522.0</ele><time>2026-05-01T08:33:59.911Z</time></trkpt><trkpt lat="42.8458821" lon="11.943093"><ele>521.0</ele><time>2026-05-01T08:34:00.911Z</time></trkpt><trkpt lat="42.8457826" lon="11.942964"><ele>520.0</ele><time>2026-05-01T08:34:01.911Z</time></trkpt><trkpt lat="42.8456951" lon="11.9427758"><ele>519.0</ele><time>2026-05-01T08:34:02.912Z</time></trkpt><trkpt lat="42.8456117" lon="11.9425562"><ele>525.6666666666666</ele><time>2026-05-01T08:34:03.912Z</time></trkpt><trkpt lat="42.8455165" lon="11.9423239"><ele>532.3333333333333</ele><time>2026-05-01T08:34:04.911Z</time></trkpt><trkpt lat="42.8454346" lon="11.9420716"><ele>539.0</ele><time>2026-05-01T08:34:05.912Z</time></trkpt><trkpt lat="42.8453494" lon="11.9418073"><ele>537.0</ele><time>2026-05-01T08:34:06.912Z</time></trkpt><trkpt lat="42.8452661" lon="11.9415525"><ele>535.0</ele><time>2026-05-01T08:34:07.912Z</time></trkpt><trkpt lat="42.8451739" lon="11.9413018"><ele>533.0</ele><time>2026-05-01T08:34:08.912Z</time></trkpt><trkpt lat="42.8450893" lon="11.9410611"><ele>536.0</ele><time>2026-05-01T08:34:09.912Z</time></trkpt><trkpt lat="42.8450374" lon="11.9407997"><ele>539.0</ele><time>2026-05-01T08:34:10.912Z</time></trkpt><trkpt lat="42.8450118" lon="11.9405291"><ele>542.0</ele><time>2026-05-01T08:34:11.911Z</time></trkpt><trkpt lat="42.8449699" lon="11.9402533"><ele>544.5</ele><time>2026-05-01T08:34:12.911Z</time></trkpt><trkpt lat="42.8449077" lon="11.9399451"><ele>547.0</ele><time>2026-05-01T08:34:13.911Z</time></trkpt><trkpt lat="42.8448316" lon="11.9396565"><ele>547.0</ele><time>2026-05-01T08:34:14.912Z</time></trkpt><trkpt lat="42.8447601" lon="11.939402"><ele>547.0</ele><time>2026-05-01T08:34:15.912Z</time></trkpt><trkpt lat="42.8446918" lon="11.9391649"><ele>547.0</ele><time>2026-05-01T08:34:16.912Z</time></trkpt><trkpt lat="42.8445953" lon="11.9389452"><ele>548.0</ele><time>2026-05-01T08:34:17.911Z</time></trkpt><trkpt lat="42.844466" lon="11.9387194"><ele>549.0</ele><time>2026-05-01T08:34:18.912Z</time></trkpt><trkpt lat="42.844306" lon="11.9385094"><ele>550.0</ele><time>2026-05-01T08:34:19.912Z</time></trkpt><trkpt lat="42.8441207" lon="11.9383"><ele>550.0</ele><time>2026-05-01T08:34:20.912Z</time></trkpt><trkpt lat="42.8439422" lon="11.9380829"><ele>550.0</ele><time>2026-05-01T08:34:21.912Z</time></trkpt><trkpt lat="42.8437637" lon="11.9378538"><ele>550.0</ele><time>2026-05-01T08:34:22.912Z</time></trkpt><trkpt lat="42.8435799" lon="11.9376434"><ele>550.0</ele><time>2026-05-01T08:34:23.911Z</time></trkpt><trkpt lat="42.843426" lon="11.9374387"><ele>549.3333333333334</ele><time>2026-05-01T08:34:24.912Z</time></trkpt><trkpt lat="42.8432877" lon="11.9372654"><ele>548.6666666666666</ele><time>2026-05-01T08:34:25.912Z</time></trkpt><trkpt lat="42.8431702" lon="11.9370976"><ele>548.0</ele><time>2026-05-01T08:34:26.912Z</time></trkpt><trkpt lat="42.8430822" lon="11.9369404"><ele>548.0</ele><time>2026-05-01T08:34:27.912Z</time></trkpt><trkpt lat="42.8430346" lon="11.9367532"><ele>548.0</ele><time>2026-05-01T08:34:28.912Z</time></trkpt><trkpt lat="42.8430189" lon="11.9365442"><ele>548.0</ele><time>2026-05-01T08:34:29.912Z</time></trkpt><trkpt lat="42.8430436" lon="11.9363137"><ele>550.6666666666666</ele><time>2026-05-01T08:34:30.911Z</time></trkpt><trkpt lat="42.8430912" lon="11.9360645"><ele>553.3333333333334</ele><time>2026-05-01T08:34:31.911Z</time></trkpt><trkpt lat="42.8431686" lon="11.9357977"><ele>556.0</ele><time>2026-05-01T08:34:32.912Z</time></trkpt><trkpt lat="42.8432502" lon="11.9355114"><ele>559.5</ele><time>2026-05-01T08:34:33.912Z</time></trkpt><trkpt lat="42.8433354" lon="11.9352043"><ele>563.0</ele><time>2026-05-01T08:34:34.912Z</time></trkpt><trkpt lat="42.8434064" lon="11.9348975"><ele>564.0</ele><time>2026-05-01T08:34:35.912Z</time></trkpt><trkpt lat="42.8434576" lon="11.9346012"><ele>565.0</ele><time>2026-05-01T08:34:36.911Z</time></trkpt><trkpt lat="42.8434783" lon="11.9343332"><ele>566.0</ele><time>2026-05-01T08:34:37.912Z</time></trkpt><trkpt lat="42.8434707" lon="11.9340976"><ele>567.0</ele><time>2026-05-01T08:34:38.912Z</time></trkpt><trkpt lat="42.843448" lon="11.9338742"><ele>568.0</ele><time>2026-05-01T08:34:39.911Z</time></trkpt><trkpt lat="42.8433801" lon="11.9336537"><ele>569.0</ele><time>2026-05-01T08:34:40.912Z</time></trkpt><trkpt lat="42.8432908" lon="11.9334092"><ele>571.0</ele><time>2026-05-01T08:34:41.911Z</time></trkpt><trkpt lat="42.8431956" lon="11.9331619"><ele>573.0</ele><time>2026-05-01T08:34:42.912Z</time></trkpt><trkpt lat="42.8431062" lon="11.9329151"><ele>575.0</ele><time>2026-05-01T08:34:43.912Z</time></trkpt><trkpt lat="42.8430399" lon="11.9326492"><ele>577.6666666666666</ele><time>2026-05-01T08:34:44.911Z</time></trkpt><trkpt lat="42.8429579" lon="11.9324163"><ele>580.3333333333334</ele><time>2026-05-01T08:34:45.912Z</time></trkpt><trkpt lat="42.8428397" lon="11.9322135"><ele>583.0</ele><time>2026-05-01T08:34:46.911Z</time></trkpt><trkpt lat="42.8427318" lon="11.9320364"><ele>583.0</ele><time>2026-05-01T08:34:47.912Z</time></trkpt><trkpt lat="42.8426258" lon="11.9318618"><ele>583.0</ele><time>2026-05-01T08:34:48.912Z</time></trkpt><trkpt lat="42.8425442" lon="11.9316508"><ele>583.0</ele><time>2026-05-01T08:34:49.912Z</time></trkpt><trkpt lat="42.8424957" lon="11.9314054"><ele>583.0</ele><time>2026-05-01T08:34:50.911Z</time></trkpt><trkpt lat="42.8424656" lon="11.931135"><ele>583.0</ele><time>2026-05-01T08:34:51.912Z</time></trkpt><trkpt lat="42.8424708" lon="11.9308417"><ele>583.0</ele><time>2026-05-01T08:34:52.912Z</time></trkpt><trkpt lat="42.8424954" lon="11.9305412"><ele>586.5</ele><time>2026-05-01T08:34:53.911Z</time></trkpt><trkpt lat="42.8425143" lon="11.9302572"><ele>590.0</ele><time>2026-05-01T08:34:54.911Z</time></trkpt><trkpt lat="42.8425601" lon="11.929934"><ele>591.6666666666666</ele><time>2026-05-01T08:34:55.912Z</time></trkpt><trkpt lat="42.8425682" lon="11.9296277"><ele>593.3333333333334</ele><time>2026-05-01T08:34:56.912Z</time></trkpt><trkpt lat="42.8425633" lon="11.9293554"><ele>595.0</ele><time>2026-05-01T08:34:57.911Z</time></trkpt><trkpt lat="42.8425547" lon="11.9291317"><ele>596.0</ele><time>2026-05-01T08:34:58.912Z</time></trkpt><trkpt lat="42.8425605" lon="11.9289454"><ele>597.0</ele><time>2026-05-01T08:34:59.912Z</time></trkpt><trkpt lat="42.8425962" lon="11.9287435"><ele>598.0</ele><time>2026-05-01T08:35:00.911Z</time></trkpt><trkpt lat="42.8426765" lon="11.9285301"><ele>598.3333333333334</ele><time>2026-05-01T08:35:01.911Z</time></trkpt><trkpt lat="42.8427725" lon="11.9283241"><ele>598.6666666666666</ele><time>2026-05-01T08:35:02.912Z</time></trkpt><trkpt lat="42.8428241" lon="11.9280927"><ele>599.0</ele><time>2026-05-01T08:35:03.912Z</time></trkpt><trkpt lat="42.8428401" lon="11.9278347"><ele>599.3333333333333</ele><time>2026-05-01T08:35:04.912Z</time></trkpt><trkpt lat="42.8428152" lon="11.9275563"><ele>599.6666666666666</ele><time>2026-05-01T08:35:05.912Z</time></trkpt><trkpt lat="42.8427606" lon="11.9272533"><ele>600.0</ele><time>2026-05-01T08:35:06.912Z</time></trkpt><trkpt lat="42.8426962" lon="11.9269777"><ele>599.5</ele><time>2026-05-01T08:35:07.912Z</time></trkpt><trkpt lat="42.8426345" lon="11.9266681"><ele>599.0</ele><time>2026-05-01T08:35:08.912Z</time></trkpt><trkpt lat="42.8425806" lon="11.9263641"><ele>604.3333333333333</ele><time>2026-05-01T08:35:09.911Z</time></trkpt><trkpt lat="42.842519" lon="11.9260872"><ele>609.6666666666666</ele><time>2026-05-01T08:35:10.912Z</time></trkpt><trkpt lat="42.8424591" lon="11.9258296"><ele>615.0</ele><time>2026-05-01T08:35:11.912Z</time></trkpt><trkpt lat="42.8424167" lon="11.9255676"><ele>615.3333333333334</ele><time>2026-05-01T08:35:12.911Z</time></trkpt><trkpt lat="42.842402" lon="11.9252822"><ele>615.6666666666667</ele><time>2026-05-01T08:35:13.912Z</time></trkpt><trkpt lat="42.8424283" lon="11.9249649"><ele>616.0</ele><time>2026-05-01T08:35:14.911Z</time></trkpt><trkpt lat="42.8424645" lon="11.9246419"><ele>616.0</ele><time>2026-05-01T08:35:15.912Z</time></trkpt><trkpt lat="42.8424865" lon="11.9243563"><ele>616.0</ele><time>2026-05-01T08:35:16.912Z</time></trkpt><trkpt lat="42.8425047" lon="11.924096"><ele>616.0</ele><time>2026-05-01T08:35:17.912Z</time></trkpt><trkpt lat="42.842528" lon="11.9238465"><ele>615.3333333333334</ele><time>2026-05-01T08:35:18.912Z</time></trkpt><trkpt lat="42.8425204" lon="11.9235826"><ele>614.6666666666666</ele><time>2026-05-01T08:35:19.912Z</time></trkpt><trkpt lat="42.8424905" lon="11.9232858"><ele>614.0</ele><time>2026-05-01T08:35:20.912Z</time></trkpt><trkpt lat="42.8424639" lon="11.9229621"><ele>613.3333333333333</ele><time>2026-05-01T08:35:21.911Z</time></trkpt><trkpt lat="42.8424248" lon="11.9226463"><ele>612.6666666666666</ele><time>2026-05-01T08:35:22.911Z</time></trkpt><trkpt lat="42.8424117" lon="11.922373"><ele>612.0</ele><time>2026-05-01T08:35:23.912Z</time></trkpt><trkpt lat="42.8424394" lon="11.9221628"><ele>612.0</ele><time>2026-05-01T08:35:24.911Z</time></trkpt><trkpt lat="42.8424778" lon="11.9219507"><ele>612.0</ele><time>2026-05-01T08:35:25.912Z</time></trkpt><trkpt lat="42.8425497" lon="11.9217702"><ele>612.0</ele><time>2026-05-01T08:35:26.911Z</time></trkpt><trkpt lat="42.8426346" lon="11.9216112"><ele>612.0</ele><time>2026-05-01T08:35:27.912Z</time></trkpt><trkpt lat="42.8427091" lon="11.9214394"><ele>612.0</ele><time>2026-05-01T08:35:28.912Z</time></trkpt><trkpt lat="42.8427359" lon="11.921266"><ele>612.0</ele><time>2026-05-01T08:35:29.912Z</time></trkpt><trkpt lat="42.8426635" lon="11.9211011"><ele>612.0</ele><time>2026-05-01T08:35:30.911Z</time></trkpt><trkpt lat="42.8425454" lon="11.9209438"><ele>618.0</ele><time>2026-05-01T08:35:31.912Z</time></trkpt><trkpt lat="42.8423976" lon="11.9207915"><ele>624.0</ele><time>2026-05-01T08:35:32.912Z</time></trkpt><trkpt lat="42.8422328" lon="11.9206437"><ele>630.0</ele><time>2026-05-01T08:35:33.912Z</time></trkpt><trkpt lat="42.8420657" lon="11.9204958"><ele>630.0</ele><time>2026-05-01T08:35:34.911Z</time></trkpt><trkpt lat="42.8418895" lon="11.9203349"><ele>630.0</ele><time>2026-05-01T08:35:35.912Z</time></trkpt><trkpt lat="42.8417065" lon="11.9201586"><ele>630.0</ele><time>2026-05-01T08:35:36.911Z</time></trkpt><trkpt lat="42.8415131" lon="11.9199687"><ele>635.5</ele><time>2026-05-01T08:35:37.912Z</time></trkpt><trkpt lat="42.8413077" lon="11.9197703"><ele>641.0</ele><time>2026-05-01T08:35:38.912Z</time></trkpt><trkpt lat="42.8410958" lon="11.9195619"><ele>638.0</ele><time>2026-05-01T08:35:39.912Z</time></trkpt><trkpt lat="42.8408771" lon="11.9193585"><ele>635.0</ele><time>2026-05-01T08:35:40.912Z</time></trkpt><trkpt lat="42.8406535" lon="11.9191468"><ele>644.0</ele><time>2026-05-01T08:35:41.912Z</time></trkpt><trkpt lat="42.8404459" lon="11.9189391"><ele>653.0</ele><time>2026-05-01T08:35:42.912Z</time></trkpt><trkpt lat="42.840257" lon="11.9187671"><ele>650.6666666666666</ele><time>2026-05-01T08:35:43.912Z</time></trkpt><trkpt lat="42.8400916" lon="11.9186273"><ele>648.3333333333334</ele><time>2026-05-01T08:35:44.912Z</time></trkpt><trkpt lat="42.8399424" lon="11.9185411"><ele>646.0</ele><time>2026-05-01T08:35:45.911Z</time></trkpt><trkpt lat="42.8398205" lon="11.9184818"><ele>646.0</ele><time>2026-05-01T08:35:46.911Z</time></trkpt><trkpt lat="42.8397361" lon="11.9184064"><ele>646.0</ele><time>2026-05-01T08:35:47.912Z</time></trkpt><trkpt lat="42.8396737" lon="11.9182986"><ele>646.0</ele><time>2026-05-01T08:35:48.911Z</time></trkpt><trkpt lat="42.8396534" lon="11.918144"><ele>646.0</ele><time>2026-05-01T08:35:49.912Z</time></trkpt><trkpt lat="42.8396507" lon="11.917943"><ele>652.0</ele><time>2026-05-01T08:35:50.912Z</time></trkpt><trkpt lat="42.8396367" lon="11.9177123"><ele>658.0</ele><time>2026-05-01T08:35:51.912Z</time></trkpt><trkpt lat="42.8395987" lon="11.9174754"><ele>664.0</ele><time>2026-05-01T08:35:52.912Z</time></trkpt><trkpt lat="42.8395439" lon="11.9172557"><ele>661.0</ele><time>2026-05-01T08:35:53.912Z</time></trkpt><trkpt lat="42.8394604" lon="11.917067"><ele>658.0</ele><time>2026-05-01T08:35:54.912Z</time></trkpt><trkpt lat="42.8393502" lon="11.9168913"><ele>655.0</ele><time>2026-05-01T08:35:55.912Z</time></trkpt><trkpt lat="42.8392082" lon="11.9167653"><ele>661.0</ele><time>2026-05-01T08:35:56.912Z</time></trkpt><trkpt lat="42.8390421" lon="11.9166864"><ele>667.0</ele><time>2026-05-01T08:35:57.912Z</time></trkpt><trkpt lat="42.8388629" lon="11.9166394"><ele>673.0</ele><time>2026-05-01T08:35:58.911Z</time></trkpt><trkpt lat="42.8386991" lon="11.9166021"><ele>673.0</ele><time>2026-05-01T08:35:59.912Z</time></trkpt><trkpt lat="42.8385523" lon="11.9165558"><ele>673.0</ele><time>2026-05-01T08:36:00.912Z</time></trkpt><trkpt lat="42.8384073" lon="11.9164603"><ele>673.0</ele><time>2026-05-01T08:36:01.912Z</time></trkpt><trkpt lat="42.8382754" lon="11.9163084"><ele>675.3333333333334</ele><time>2026-05-01T08:36:02.912Z</time></trkpt><trkpt lat="42.8381481" lon="11.9161181"><ele>677.6666666666666</ele><time>2026-05-01T08:36:03.912Z</time></trkpt><trkpt lat="42.8380128" lon="11.9158891"><ele>680.0</ele><time>2026-05-01T08:36:04.911Z</time></trkpt><trkpt lat="42.8378694" lon="11.9156715"><ele>680.0</ele><time>2026-05-01T08:36:05.911Z</time></trkpt><trkpt lat="42.8377207" lon="11.9154793"><ele>680.0</ele><time>2026-05-01T08:36:06.912Z</time></trkpt><trkpt lat="42.8375479" lon="11.9153386"><ele>680.0</ele><time>2026-05-01T08:36:07.911Z</time></trkpt><trkpt lat="42.8373479" lon="11.915244"><ele>675.3333333333333</ele><time>2026-05-01T08:36:08.912Z</time></trkpt><trkpt lat="42.8371338" lon="11.9151671"><ele>670.6666666666666</ele><time>2026-05-01T08:36:09.912Z</time></trkpt><trkpt lat="42.8369159" lon="11.9151102"><ele>666.0</ele><time>2026-05-01T08:36:10.912Z</time></trkpt><trkpt lat="42.8366886" lon="11.9150837"><ele>666.0</ele><time>2026-05-01T08:36:11.912Z</time></trkpt><trkpt lat="42.8364553" lon="11.9150939"><ele>666.0</ele><time>2026-05-01T08:36:12.912Z</time></trkpt><trkpt lat="42.836215" lon="11.9151327"><ele>666.0</ele><time>2026-05-01T08:36:13.912Z</time></trkpt><trkpt lat="42.8359887" lon="11.9151932"><ele>666.0</ele><time>2026-05-01T08:36:14.912Z</time></trkpt><trkpt lat="42.835784" lon="11.9152396"><ele>666.0</ele><time>2026-05-01T08:36:15.912Z</time></trkpt><trkpt lat="42.8355936" lon="11.9152748"><ele>667.3333333333334</ele><time>2026-05-01T08:36:16.912Z</time></trkpt><trkpt lat="42.8354171" lon="11.9152727"><ele>668.6666666666667</ele><time>2026-05-01T08:36:17.911Z</time></trkpt><trkpt lat="42.8352433" lon="11.9152419"><ele>670.0</ele><time>2026-05-01T08:36:18.912Z</time></trkpt><trkpt lat="42.8350967" lon="11.9151786"><ele>674.0</ele><time>2026-05-01T08:36:19.912Z</time></trkpt><trkpt lat="42.834969" lon="11.9150702"><ele>678.0</ele><time>2026-05-01T08:36:20.912Z</time></trkpt><trkpt lat="42.8348331" lon="11.9149365"><ele>682.0</ele><time>2026-05-01T08:36:21.912Z</time></trkpt><trkpt lat="42.8347053" lon="11.9147508"><ele>682.0</ele><time>2026-05-01T08:36:22.912Z</time></trkpt><trkpt lat="42.8345815" lon="11.914516"><ele>682.0</ele><time>2026-05-01T08:36:23.912Z</time></trkpt><trkpt lat="42.8344594" lon="11.9142434"><ele>682.0</ele><time>2026-05-01T08:36:24.911Z</time></trkpt><trkpt lat="42.8343124" lon="11.9139775"><ele>679.5</ele><time>2026-05-01T08:36:25.911Z</time></trkpt><trkpt lat="42.8341624" lon="11.9137149"><ele>677.0</ele><time>2026-05-01T08:36:26.912Z</time></trkpt><trkpt lat="42.8340238" lon="11.9134628"><ele>681.3333333333333</ele><time>2026-05-01T08:36:27.912Z</time></trkpt><trkpt lat="42.8339038" lon="11.9132472"><ele>685.6666666666666</ele><time>2026-05-01T08:36:28.912Z</time></trkpt><trkpt lat="42.8337764" lon="11.9130459"><ele>690.0</ele><time>2026-05-01T08:36:29.912Z</time></trkpt><trkpt lat="42.8336476" lon="11.912879"><ele>690.0</ele><time>2026-05-01T08:36:30.912Z</time></trkpt><trkpt lat="42.8334952" lon="11.9127491"><ele>690.0</ele><time>2026-05-01T08:36:31.912Z</time></trkpt><trkpt lat="42.83333" lon="11.9126369"><ele>690.0</ele><time>2026-05-01T08:36:32.911Z</time></trkpt><trkpt lat="42.8331505" lon="11.9125322"><ele>690.0</ele><time>2026-05-01T08:36:33.912Z</time></trkpt><trkpt lat="42.8329891" lon="11.9124009"><ele>690.0</ele><time>2026-05-01T08:36:34.912Z</time></trkpt><trkpt lat="42.8328457" lon="11.9122933"><ele>690.0</ele><time>2026-05-01T08:36:35.911Z</time></trkpt><trkpt lat="42.832727" lon="11.9121683"><ele>690.0</ele><time>2026-05-01T08:36:36.912Z</time></trkpt><trkpt lat="42.8326581" lon="11.9120117"><ele>690.0</ele><time>2026-05-01T08:36:37.912Z</time></trkpt><trkpt lat="42.8325904" lon="11.9118282"><ele>690.0</ele><time>2026-05-01T08:36:38.912Z</time></trkpt><trkpt lat="42.8325292" lon="11.9116057"><ele>689.6666666666666</ele><time>2026-05-01T08:36:39.912Z</time></trkpt><trkpt lat="42.8324637" lon="11.9113698"><ele>689.3333333333333</ele><time>2026-05-01T08:36:40.912Z</time></trkpt><trkpt lat="42.8323836" lon="11.9111797"><ele>689.0</ele><time>2026-05-01T08:36:41.912Z</time></trkpt><trkpt lat="42.8323046" lon="11.9110315"><ele>689.0</ele><time>2026-05-01T08:36:42.911Z</time></trkpt><trkpt lat="42.832243" lon="11.910908"><ele>689.0</ele><time>2026-05-01T08:36:43.912Z</time></trkpt><trkpt lat="42.8321669" lon="11.9108377"><ele>689.0</ele><time>2026-05-01T08:36:44.912Z</time></trkpt><trkpt lat="42.8320773" lon="11.9108561"><ele>689.0</ele><time>2026-05-01T08:36:45.911Z</time></trkpt><trkpt lat="42.8319987" lon="11.9109226"><ele>689.0</ele><time>2026-05-01T08:36:46.912Z</time></trkpt><trkpt lat="42.8319038" lon="11.9110377"><ele>689.0</ele><time>2026-05-01T08:36:47.911Z</time></trkpt><trkpt lat="42.8318267" lon="11.9111659"><ele>689.0</ele><time>2026-05-01T08:36:48.912Z</time></trkpt><trkpt lat="42.8317188" lon="11.9112721"><ele>689.0</ele><time>2026-05-01T08:36:49.911Z</time></trkpt><trkpt lat="42.8315842" lon="11.9113059"><ele>689.0</ele><time>2026-05-01T08:36:50.912Z</time></trkpt><trkpt lat="42.8314413" lon="11.9112644"><ele>688.5</ele><time>2026-05-01T08:36:51.912Z</time></trkpt><trkpt lat="42.8313018" lon="11.9111887"><ele>688.0</ele><time>2026-05-01T08:36:52.912Z</time></trkpt><trkpt lat="42.831183" lon="11.9110969"><ele>687.5</ele><time>2026-05-01T08:36:53.912Z</time></trkpt><trkpt lat="42.8310981" lon="11.9109804"><ele>687.0</ele><time>2026-05-01T08:36:54.911Z</time></trkpt><trkpt lat="42.8310326" lon="11.9108357"><ele>689.0</ele><time>2026-05-01T08:36:55.912Z</time></trkpt><trkpt lat="42.8309897" lon="11.9106438"><ele>691.0</ele><time>2026-05-01T08:36:56.911Z</time></trkpt><trkpt lat="42.8309645" lon="11.9104132"><ele>693.0</ele><time>2026-05-01T08:36:57.912Z</time></trkpt><trkpt lat="42.8309328" lon="11.9101822"><ele>694.3333333333334</ele><time>2026-05-01T08:36:58.912Z</time></trkpt><trkpt lat="42.8308658" lon="11.9099461"><ele>695.6666666666667</ele><time>2026-05-01T08:36:59.912Z</time></trkpt><trkpt lat="42.8307547" lon="11.9097203"><ele>697.0</ele><time>2026-05-01T08:37:00.912Z</time></trkpt><trkpt lat="42.8306293" lon="11.9094943"><ele>697.0</ele><time>2026-05-01T08:37:01.911Z</time></trkpt><trkpt lat="42.8304931" lon="11.9092735"><ele>697.0</ele><time>2026-05-01T08:37:02.912Z</time></trkpt><trkpt lat="42.8303409" lon="11.9090712"><ele>697.0</ele><time>2026-05-01T08:37:03.912Z</time></trkpt><trkpt lat="42.8301915" lon="11.9088979"><ele>697.0</ele><time>2026-05-01T08:37:04.912Z</time></trkpt><trkpt lat="42.8300422" lon="11.9087557"><ele>697.0</ele><time>2026-05-01T08:37:05.912Z</time></trkpt><trkpt lat="42.8298969" lon="11.9086789"><ele>697.0</ele><time>2026-05-01T08:37:06.912Z</time></trkpt><trkpt lat="42.8297561" lon="11.908658"><ele>697.0</ele><time>2026-05-01T08:37:07.912Z</time></trkpt><trkpt lat="42.8296167" lon="11.9086856"><ele>697.0</ele><time>2026-05-01T08:37:08.911Z</time></trkpt><trkpt lat="42.8294962" lon="11.908719"><ele>697.0</ele><time>2026-05-01T08:37:09.912Z</time></trkpt><trkpt lat="42.8293719" lon="11.9086766"><ele>697.0</ele><time>2026-05-01T08:37:10.911Z</time></trkpt><trkpt lat="42.8292454" lon="11.9085938"><ele>690.0</ele><time>2026-05-01T08:37:11.912Z</time></trkpt><trkpt lat="42.832727" lon="11.9121683"><ele>690.0</ele><time>2026-05-01T08:36:36.912Z</time></trkpt><trkpt lat="42.8326581" lon="11.9120117"><ele>690.0</ele><time>2026-05-01T08:36:37.912Z</time></trkpt><trkpt lat="42.8325904" lon="11.9118282"><ele>690.0</ele><time>2026-05-01T08:36:38.912Z</time></trkpt><trkpt lat="42.8325292" lon="11.9116057"><ele>689.6666666666666</ele><time>2026-05-01T08:36:39.912Z</time></trkpt><trkpt lat="42.8324637" lon="11.9113698"><ele>689.3333333333333</ele><time>2026-05-01T08:36:40.912Z</time></trkpt><trkpt lat="42.8323836" lon="11.9111797"><ele>689.0</ele><time>2026-05-01T08:36:41.912Z</time></trkpt><trkpt lat="42.8323046" lon="11.9110315"><ele>689.0</ele><time>2026-05-01T08:36:42.911Z</time></trkpt><trkpt lat="42.832243" lon="11.910908"><ele>689.0</ele><time>2026-05-01T08:36:43.912Z</time></trkpt><trkpt lat="42.8321669" lon="11.9108377"><ele>689.0</ele><time>2026-05-01T08:36:44.912Z</time></trkpt><trkpt lat="42.8320773" lon="11.9108561"><ele>689.0</ele><time>2026-05-01T08:36:45.911Z</time></trkpt><trkpt lat="42.8319987" lon="11.9109226"><ele>689.0</ele><time>2026-05-01T08:36:46.912Z</time></trkpt><trkpt lat="42.8319038" lon="11.9110377"><ele>689.0</ele><time>2026-05-01T08:36:47.911Z</time></trkpt><trkpt lat="42.8318267" lon="11.9111659"><ele>689.0</ele><time>2026-05-01T08:36:48.912Z</time></trkpt><trkpt lat="42.8317188" lon="11.9112721"><ele>689.0</ele><time>2026-05-01T08:36:49.911Z</time></trkpt><trkpt lat="42.8315842" lon="11.9113059"><ele>689.0</ele><time>2026-05-01T08:36:50.912Z</time></trkpt><trkpt lat="42.8314413" lon="11.9112644"><ele>688.5</ele><time>2026-05-01T08:36:51.912Z</time></trkpt><trkpt lat="42.8313018" lon="11.9111887"><ele>688.0</ele><time>2026-05-01T08:36:52.912Z</time></trkpt><trkpt lat="42.831183" lon="11.9110969"><ele>687.5</ele><time>2026-05-01T08:36:53.912Z</time></trkpt><trkpt lat="42.8310981" lon="11.9109804"><ele>687.0</ele><time>2026-05-01T08:36:54.911Z</time></trkpt><trkpt lat="42.8310326" lon="11.9108357"><ele>689.0</ele><time>2026-05-01T08:36:55.912Z</time></trkpt><trkpt lat="42.8309897" lon="11.9106438"><ele>691.0</ele><time>2026-05-01T08:36:56.911Z</time></trkpt><trkpt lat="42.8309645" lon="11.9104132"><ele>693.0</ele><time>2026-05-01T08:36:57.912Z</time></trkpt><trkpt lat="42.8309328" lon="11.9101822"><ele>694.3333333333334</ele><time>2026-05-01T08:36:58.912Z</time></trkpt><trkpt lat="42.8308658" lon="11.9099461"><ele>695.6666666666667</ele><time>2026-05-01T08:36:59.912Z</time></trkpt><trkpt lat="42.8307547" lon="11.9097203"><ele>697.0</ele><time>2026-05-01T08:37:00.912Z</time></trkpt><trkpt lat="42.8306293" lon="11.9094943"><ele>697.0</ele><time>2026-05-01T08:37:01.911Z</time></trkpt><trkpt lat="42.8304931" lon="11.9092735"><ele>697.0</ele><time>2026-05-01T08:37:02.912Z</time></trkpt><trkpt lat="42.8303409" lon="11.9090712"><ele>697.0</ele><time>2026-05-01T08:37:03.912Z</time></trkpt><trkpt lat="42.8301915" lon="11.9088979"><ele>697.0</ele><time>2026-05-01T08:37:04.912Z</time></trkpt><trkpt lat="42.8300422" lon="11.9087557"><ele>697.0</ele><time>2026-05-01T08:37:05.912Z</time></trkpt><trkpt lat="42.8298969" lon="11.9086789"><ele>697.0</ele><time>2026-05-01T08:37:06.912Z</time></trkpt><trkpt lat="42.8297561" lon="11.908658"><ele>697.0</ele><time>2026-05-01T08:37:07.912Z</time></trkpt><trkpt lat="42.8296167" lon="11.9086856"><ele>697.0</ele><time>2026-05-01T08:37:08.911Z</time></trkpt><trkpt lat="42.8294962" lon="11.908719"><ele>697.0</ele><time>2026-05-01T08:37:09.912Z</time></trkpt><trkpt lat="42.8293719" lon="11.9086766"><ele>697.0</ele><time>2026-05-01T08:37:10.911Z</time></trkpt><trkpt lat="42.8292454" lon="11.9085938"><ele>697.0</ele><time>2026-05-01T08:37:11.912Z</time></trkpt><trkpt lat="42.8291283" lon="11.9084734"><ele>697.0</ele><time>2026-05-01T08:37:12.912Z</time></trkpt><trkpt lat="42.829041" lon="11.9083671"><ele>697.0</ele><time>2026-05-01T08:37:13.912Z</time></trkpt><trkpt lat="42.8289877" lon="11.908223"><ele>697.0</ele><time>2026-05-01T08:37:14.911Z</time></trkpt><trkpt lat="42.8289714" lon="11.9080374"><ele>700.5</ele><time>2026-05-01T08:37:15.911Z</time></trkpt><trkpt lat="42.8289472" lon="11.9078715"><ele>704.0</ele><time>2026-05-01T08:37:16.911Z</time></trkpt><trkpt lat="42.8288691" lon="11.9077185"><ele>707.5</ele><time>2026-05-01T08:37:17.912Z</time></trkpt><trkpt lat="42.8287938" lon="11.9075858"><ele>711.0</ele><time>2026-05-01T08:37:18.912Z</time></trkpt><trkpt lat="42.8286936" lon="11.9075063"><ele>712.0</ele><time>2026-05-01T08:37:19.912Z</time></trkpt><trkpt lat="42.8285548" lon="11.9074853"><ele>713.0</ele><time>2026-05-01T08:37:20.912Z</time></trkpt><trkpt lat="42.8284079" lon="11.9075"><ele>714.0</ele><time>2026-05-01T08:37:21.912Z</time></trkpt><trkpt lat="42.8282811" lon="11.9074991"><ele>715.0</ele><time>2026-05-01T08:37:22.912Z</time></trkpt><trkpt lat="42.8281595" lon="11.9074064"><ele>715.0</ele><time>2026-05-01T08:37:23.911Z</time></trkpt><trkpt lat="42.8280635" lon="11.9072614"><ele>715.0</ele><time>2026-05-01T08:37:24.912Z</time></trkpt><trkpt lat="42.8279425" lon="11.9071066"><ele>715.0</ele><time>2026-05-01T08:37:25.912Z</time></trkpt><trkpt lat="42.8278047" lon="11.9069689"><ele>715.0</ele><time>2026-05-01T08:37:26.912Z</time></trkpt><trkpt lat="42.8276591" lon="11.9068445"><ele>715.0</ele><time>2026-05-01T08:37:27.912Z</time></trkpt><trkpt lat="42.8275205" lon="11.9067537"><ele>715.0</ele><time>2026-05-01T08:37:28.912Z</time></trkpt><trkpt lat="42.8273831" lon="11.9066803"><ele>716.6666666666667</ele><time>2026-05-01T08:37:29.912Z</time></trkpt><trkpt lat="42.8272432" lon="11.9066469"><ele>718.3333333333334</ele><time>2026-05-01T08:37:30.912Z</time></trkpt><trkpt lat="42.8270951" lon="11.9066813"><ele>720.0</ele><time>2026-05-01T08:37:31.911Z</time></trkpt><trkpt lat="42.826939" lon="11.906738"><ele>719.0</ele><time>2026-05-01T08:37:32.912Z</time></trkpt><trkpt lat="42.8267741" lon="11.9067531"><ele>718.0</ele><time>2026-05-01T08:37:33.912Z</time></trkpt><trkpt lat="42.826605" lon="11.906709"><ele>717.0</ele><time>2026-05-01T08:37:34.912Z</time></trkpt><trkpt lat="42.8264298" lon="11.9066439"><ele>717.0</ele><time>2026-05-01T08:37:35.911Z</time></trkpt><trkpt lat="42.8262686" lon="11.9065696"><ele>717.0</ele><time>2026-05-01T08:37:36.911Z</time></trkpt><trkpt lat="42.8260911" lon="11.9065308"><ele>717.0</ele><time>2026-05-01T08:37:37.912Z</time></trkpt><trkpt lat="42.825896" lon="11.9064996"><ele>715.3333333333334</ele><time>2026-05-01T08:37:38.912Z</time></trkpt><trkpt lat="42.82571" lon="11.9064688"><ele>713.6666666666667</ele><time>2026-05-01T08:37:39.912Z</time></trkpt><trkpt lat="42.8255319" lon="11.9064488"><ele>712.0</ele><time>2026-05-01T08:37:40.911Z</time></trkpt><trkpt lat="42.8253527" lon="11.9064832"><ele>712.0</ele><time>2026-05-01T08:37:41.912Z</time></trkpt><trkpt lat="42.8251584" lon="11.9065499"><ele>712.0</ele><time>2026-05-01T08:37:42.912Z</time></trkpt><trkpt lat="42.8249551" lon="11.9066147"><ele>712.0</ele><time>2026-05-01T08:37:43.911Z</time></trkpt><trkpt lat="42.8247388" lon="11.9066745"><ele>712.3333333333334</ele><time>2026-05-01T08:37:44.911Z</time></trkpt><trkpt lat="42.8245184" lon="11.9067369"><ele>712.6666666666666</ele><time>2026-05-01T08:37:45.912Z</time></trkpt><trkpt lat="42.8243043" lon="11.90679"><ele>713.0</ele><time>2026-05-01T08:37:46.912Z</time></trkpt><trkpt lat="42.8241086" lon="11.9068449"><ele>713.6666666666666</ele><time>2026-05-01T08:37:47.912Z</time></trkpt><trkpt lat="42.8239278" lon="11.906903"><ele>714.3333333333334</ele><time>2026-05-01T08:37:48.912Z</time></trkpt><trkpt lat="42.8237626" lon="11.9069839"><ele>715.0</ele><time>2026-05-01T08:37:49.912Z</time></trkpt><trkpt lat="42.8236128" lon="11.9071203"><ele>715.0</ele><time>2026-05-01T08:37:50.912Z</time></trkpt><trkpt lat="42.8234833" lon="11.9072777"><ele>715.0</ele><time>2026-05-01T08:37:51.912Z</time></trkpt><trkpt lat="42.8233477" lon="11.9074295"><ele>715.0</ele><time>2026-05-01T08:37:52.912Z</time></trkpt><trkpt lat="42.8232011" lon="11.9075792"><ele>712.6666666666667</ele><time>2026-05-01T08:37:53.912Z</time></trkpt><trkpt lat="42.8230431" lon="11.9077014"><ele>710.3333333333334</ele><time>2026-05-01T08:37:54.911Z</time></trkpt><trkpt lat="42.8228801" lon="11.9077927"><ele>708.0</ele><time>2026-05-01T08:37:55.912Z</time></trkpt><trkpt lat="42.8227225" lon="11.9078563"><ele>709.0</ele><time>2026-05-01T08:37:56.912Z</time></trkpt><trkpt lat="42.8225783" lon="11.907917"><ele>710.0</ele><time>2026-05-01T08:37:57.911Z</time></trkpt><trkpt lat="42.8224423" lon="11.9079706"><ele>711.0</ele><time>2026-05-01T08:37:58.912Z</time></trkpt><trkpt lat="42.8223026" lon="11.9080004"><ele>712.0</ele><time>2026-05-01T08:37:59.912Z</time></trkpt><trkpt lat="42.8221607" lon="11.9080243"><ele>712.0</ele><time>2026-05-01T08:38:00.911Z</time></trkpt><trkpt lat="42.8220081" lon="11.9080227"><ele>712.0</ele><time>2026-05-01T08:38:01.912Z</time></trkpt><trkpt lat="42.8218564" lon="11.9080057"><ele>712.0</ele><time>2026-05-01T08:38:02.912Z</time></trkpt><trkpt lat="42.8217165" lon="11.9079973"><ele>712.0</ele><time>2026-05-01T08:38:03.912Z</time></trkpt><trkpt lat="42.8215919" lon="11.9080002"><ele>712.5</ele><time>2026-05-01T08:38:04.911Z</time></trkpt><trkpt lat="42.821478" lon="11.9080247"><ele>713.0</ele><time>2026-05-01T08:38:05.911Z</time></trkpt><trkpt lat="42.8213777" lon="11.9080856"><ele>713.5</ele><time>2026-05-01T08:38:06.912Z</time></trkpt><trkpt lat="42.8212964" lon="11.9081967"><ele>714.0</ele><time>2026-05-01T08:38:07.912Z</time></trkpt><trkpt lat="42.8212243" lon="11.9083554"><ele>712.5</ele><time>2026-05-01T08:38:08.912Z</time></trkpt><trkpt lat="42.8211464" lon="11.9085272"><ele>711.0</ele><time>2026-05-01T08:38:09.913Z</time></trkpt><trkpt lat="42.82106" lon="11.9086877"><ele>709.5</ele><time>2026-05-01T08:38:10.913Z</time></trkpt><trkpt lat="42.8209611" lon="11.9088158"><ele>708.0</ele><time>2026-05-01T08:38:11.913Z</time></trkpt><trkpt lat="42.820838" lon="11.9089152"><ele>708.0</ele><time>2026-05-01T08:38:12.913Z</time></trkpt><trkpt lat="42.8206993" lon="11.9090123"><ele>708.0</ele><time>2026-05-01T08:38:13.912Z</time></trkpt><trkpt lat="42.8205553" lon="11.909103"><ele>708.0</ele><time>2026-05-01T08:38:14.913Z</time></trkpt><trkpt lat="42.8204132" lon="11.9091877"><ele>707.5</ele><time>2026-05-01T08:38:15.913Z</time></trkpt><trkpt lat="42.8202925" lon="11.9092577"><ele>707.0</ele><time>2026-05-01T08:38:16.913Z</time></trkpt><trkpt lat="42.8201964" lon="11.9093498"><ele>706.5</ele><time>2026-05-01T08:38:17.913Z</time></trkpt><trkpt lat="42.8201259" lon="11.9094541"><ele>706.0</ele><time>2026-05-01T08:38:18.913Z</time></trkpt><trkpt lat="42.8200698" lon="11.9095908"><ele>706.0</ele><time>2026-05-01T08:38:19.913Z</time></trkpt><trkpt lat="42.8200249" lon="11.9097603"><ele>706.0</ele><time>2026-05-01T08:38:20.913Z</time></trkpt><trkpt lat="42.8199944" lon="11.9099525"><ele>706.0</ele><time>2026-05-01T08:38:21.913Z</time></trkpt><trkpt lat="42.8199665" lon="11.9101476"><ele>706.0</ele><time>2026-05-01T08:38:22.913Z</time></trkpt><trkpt lat="42.8199164" lon="11.9103429"><ele>703.6666666666667</ele><time>2026-05-01T08:38:23.912Z</time></trkpt><trkpt lat="42.8198306" lon="11.9105364"><ele>701.3333333333334</ele><time>2026-05-01T08:38:24.913Z</time></trkpt><trkpt lat="42.8197353" lon="11.9107059"><ele>699.0</ele><time>2026-05-01T08:38:25.913Z</time></trkpt><trkpt lat="42.8196196" lon="11.9108594"><ele>695.6666666666666</ele><time>2026-05-01T08:38:26.912Z</time></trkpt><trkpt lat="42.8194911" lon="11.9110043"><ele>692.3333333333333</ele><time>2026-05-01T08:38:27.912Z</time></trkpt><trkpt lat="42.8193613" lon="11.9111155"><ele>689.0</ele><time>2026-05-01T08:38:28.913Z</time></trkpt><trkpt lat="42.8192287" lon="11.9112111"><ele>689.0</ele><time>2026-05-01T08:38:29.913Z</time></trkpt><trkpt lat="42.8191009" lon="11.9112856"><ele>689.0</ele><time>2026-05-01T08:38:30.912Z</time></trkpt><trkpt lat="42.8189682" lon="11.9113369"><ele>689.0</ele><time>2026-05-01T08:38:31.912Z</time></trkpt><trkpt lat="42.8188397" lon="11.9113705"><ele>689.0</ele><time>2026-05-01T08:38:32.913Z</time></trkpt><trkpt lat="42.8187077" lon="11.9113845"><ele>689.0</ele><time>2026-05-01T08:38:33.913Z</time></trkpt><trkpt lat="42.818569" lon="11.9113821"><ele>689.0</ele><time>2026-05-01T08:38:34.912Z</time></trkpt><trkpt lat="42.8184187" lon="11.9113765"><ele>689.0</ele><time>2026-05-01T08:38:35.913Z</time></trkpt><trkpt lat="42.8182654" lon="11.9113792"><ele>689.0</ele><time>2026-05-01T08:38:36.913Z</time></trkpt><trkpt lat="42.8181033" lon="11.9114025"><ele>689.0</ele><time>2026-05-01T08:38:37.913Z</time></trkpt><trkpt lat="42.8179544" lon="11.9114407"><ele>689.0</ele><time>2026-05-01T08:38:38.913Z</time></trkpt><trkpt lat="42.8178138" lon="11.9114841"><ele>689.0</ele><time>2026-05-01T08:38:39.912Z</time></trkpt><trkpt lat="42.8176697" lon="11.9115505"><ele>689.0</ele><time>2026-05-01T08:38:40.913Z</time></trkpt><trkpt lat="42.8175188" lon="11.9116606"><ele>685.0</ele><time>2026-05-01T08:38:41.913Z</time></trkpt><trkpt lat="42.8173623" lon="11.9118117"><ele>681.0</ele><time>2026-05-01T08:38:42.913Z</time></trkpt><trkpt lat="42.8172229" lon="11.911959"><ele>677.0</ele><time>2026-05-01T08:38:43.913Z</time></trkpt><trkpt lat="42.8170908" lon="11.9120871"><ele>677.0</ele><time>2026-05-01T08:38:44.913Z</time></trkpt><trkpt lat="42.8169815" lon="11.9122141"><ele>677.0</ele><time>2026-05-01T08:38:45.913Z</time></trkpt><trkpt lat="42.8169035" lon="11.9123855"><ele>677.0</ele><time>2026-05-01T08:38:46.913Z</time></trkpt><trkpt lat="42.8168539" lon="11.9125733"><ele>677.0</ele><time>2026-05-01T08:38:47.913Z</time></trkpt><trkpt lat="42.8168201" lon="11.9127697"><ele>674.5</ele><time>2026-05-01T08:38:48.913Z</time></trkpt><trkpt lat="42.8167966" lon="11.9129596"><ele>672.0</ele><time>2026-05-01T08:38:49.913Z</time></trkpt><trkpt lat="42.8167896" lon="11.9131484"><ele>669.5</ele><time>2026-05-01T08:38:50.912Z</time></trkpt><trkpt lat="42.8168004" lon="11.9133329"><ele>667.0</ele><time>2026-05-01T08:38:51.913Z</time></trkpt><trkpt lat="42.8168309" lon="11.9135031"><ele>665.75</ele><time>2026-05-01T08:38:52.913Z</time></trkpt><trkpt lat="42.8169057" lon="11.9136482"><ele>664.5</ele><time>2026-05-01T08:38:53.913Z</time></trkpt><trkpt lat="42.8170198" lon="11.9137822"><ele>663.25</ele><time>2026-05-01T08:38:54.913Z</time></trkpt><trkpt lat="42.8171355" lon="11.9139207"><ele>662.0</ele><time>2026-05-01T08:38:55.913Z</time></trkpt><trkpt lat="42.8172215" lon="11.9140572"><ele>662.0</ele><time>2026-05-01T08:38:56.912Z</time></trkpt><trkpt lat="42.8172858" lon="11.9141994"><ele>662.0</ele><time>2026-05-01T08:38:57.913Z</time></trkpt><trkpt lat="42.8173103" lon="11.9143774"><ele>662.0</ele><time>2026-05-01T08:38:58.912Z</time></trkpt><trkpt lat="42.8172914" lon="11.9146136"><ele>662.0</ele><time>2026-05-01T08:38:59.913Z</time></trkpt><trkpt lat="42.817295" lon="11.9148652"><ele>657.6666666666666</ele><time>2026-05-01T08:39:00.912Z</time></trkpt><trkpt lat="42.8173366" lon="11.9151273"><ele>653.3333333333334</ele><time>2026-05-01T08:39:01.913Z</time></trkpt><trkpt lat="42.8173864" lon="11.9153999"><ele>649.0</ele><time>2026-05-01T08:39:02.912Z</time></trkpt><trkpt lat="42.8174222" lon="11.9156768"><ele>647.3333333333334</ele><time>2026-05-01T08:39:03.913Z</time></trkpt><trkpt lat="42.8174362" lon="11.9159384"><ele>645.6666666666666</ele><time>2026-05-01T08:39:04.912Z</time></trkpt><trkpt lat="42.8174359" lon="11.9161683"><ele>644.0</ele><time>2026-05-01T08:39:05.912Z</time></trkpt><trkpt lat="42.8174374" lon="11.9163375"><ele>644.0</ele><time>2026-05-01T08:39:06.913Z</time></trkpt><trkpt lat="42.8174257" lon="11.9164817"><ele>644.0</ele><time>2026-05-01T08:39:07.913Z</time></trkpt><trkpt lat="42.817373" lon="11.9165916"><ele>644.0</ele><time>2026-05-01T08:39:08.912Z</time></trkpt><trkpt lat="42.817264" lon="11.9166321"><ele>644.0</ele><time>2026-05-01T08:39:09.913Z</time></trkpt><trkpt lat="42.8171106" lon="11.9166319"><ele>644.0</ele><time>2026-05-01T08:39:10.913Z</time></trkpt><trkpt lat="42.8169306" lon="11.9165946"><ele>644.0</ele><time>2026-05-01T08:39:11.912Z</time></trkpt><trkpt lat="42.8167418" lon="11.9165545"><ele>644.0</ele><time>2026-05-01T08:39:12.913Z</time></trkpt><trkpt lat="42.816549" lon="11.9165122"><ele>643.6666666666666</ele><time>2026-05-01T08:39:13.913Z</time></trkpt><trkpt lat="42.8163633" lon="11.9164788"><ele>643.3333333333334</ele><time>2026-05-01T08:39:14.913Z</time></trkpt><trkpt lat="42.8161914" lon="11.9164678"><ele>643.0</ele><time>2026-05-01T08:39:15.912Z</time></trkpt><trkpt lat="42.8160101" lon="11.9165"><ele>642.3333333333334</ele><time>2026-05-01T08:39:16.913Z</time></trkpt><trkpt lat="42.8158259" lon="11.9165868"><ele>641.6666666666666</ele><time>2026-05-01T08:39:17.912Z</time></trkpt><trkpt lat="42.8156468" lon="11.9167413"><ele>641.0</ele><time>2026-05-01T08:39:18.913Z</time></trkpt><trkpt lat="42.8154672" lon="11.9169098"><ele>640.3333333333333</ele><time>2026-05-01T08:39:19.913Z</time></trkpt><trkpt lat="42.8152837" lon="11.9170679"><ele>639.6666666666666</ele><time>2026-05-01T08:39:20.913Z</time></trkpt><trkpt lat="42.8151011" lon="11.9172068"><ele>639.0</ele><time>2026-05-01T08:39:21.912Z</time></trkpt><trkpt lat="42.8149149" lon="11.9173062"><ele>639.0</ele><time>2026-05-01T08:39:22.913Z</time></trkpt><trkpt lat="42.814706" lon="11.917387"><ele>639.0</ele><time>2026-05-01T08:39:23.913Z</time></trkpt><trkpt lat="42.8145007" lon="11.9174585"><ele>639.0</ele><time>2026-05-01T08:39:24.913Z</time></trkpt><trkpt lat="42.8143042" lon="11.9175259"><ele>638.3333333333334</ele><time>2026-05-01T08:39:25.913Z</time></trkpt><trkpt lat="42.8141261" lon="11.9175944"><ele>637.6666666666667</ele><time>2026-05-01T08:39:26.912Z</time></trkpt><trkpt lat="42.8139756" lon="11.917683"><ele>637.0</ele><time>2026-05-01T08:39:27.913Z</time></trkpt><trkpt lat="42.8138427" lon="11.9178052"><ele>637.0</ele><time>2026-05-01T08:39:28.913Z</time></trkpt><trkpt lat="42.8137218" lon="11.917965"><ele>637.0</ele><time>2026-05-01T08:39:29.912Z</time></trkpt><trkpt lat="42.813607" lon="11.9181415"><ele>637.0</ele><time>2026-05-01T08:39:30.912Z</time></trkpt><trkpt lat="42.8134941" lon="11.9183158"><ele>635.6666666666667</ele><time>2026-05-01T08:39:31.913Z</time></trkpt><trkpt lat="42.8133694" lon="11.9184657"><ele>634.3333333333334</ele><time>2026-05-01T08:39:32.913Z</time></trkpt><trkpt lat="42.8132343" lon="11.9185778"><ele>633.0</ele><time>2026-05-01T08:39:33.913Z</time></trkpt><trkpt lat="42.8130917" lon="11.9186499"><ele>633.0</ele><time>2026-05-01T08:39:34.913Z</time></trkpt><trkpt lat="42.8129539" lon="11.9187118"><ele>633.0</ele><time>2026-05-01T08:39:35.913Z</time></trkpt><trkpt lat="42.8128268" lon="11.9188217"><ele>633.0</ele><time>2026-05-01T08:39:36.913Z</time></trkpt><trkpt lat="42.8127261" lon="11.9189959"><ele>633.0</ele><time>2026-05-01T08:39:37.912Z</time></trkpt><trkpt lat="42.8126575" lon="11.9191946"><ele>633.0</ele><time>2026-05-01T08:39:38.913Z</time></trkpt><trkpt lat="42.8126109" lon="11.919395"><ele>633.0</ele><time>2026-05-01T08:39:39.912Z</time></trkpt><trkpt lat="42.8125886" lon="11.919608"><ele>633.3333333333334</ele><time>2026-05-01T08:39:40.913Z</time></trkpt><trkpt lat="42.8125985" lon="11.9198551"><ele>633.6666666666667</ele><time>2026-05-01T08:39:41.913Z</time></trkpt><trkpt lat="42.8126251" lon="11.9200809"><ele>634.0</ele><time>2026-05-01T08:39:42.912Z</time></trkpt><trkpt lat="42.8126955" lon="11.9203073"><ele>630.3333333333334</ele><time>2026-05-01T08:39:43.913Z</time></trkpt><trkpt lat="42.812794" lon="11.9205316"><ele>626.6666666666666</ele><time>2026-05-01T08:39:44.913Z</time></trkpt><trkpt lat="42.8129005" lon="11.9207796"><ele>623.0</ele><time>2026-05-01T08:39:45.912Z</time></trkpt><trkpt lat="42.812997" lon="11.9210218"><ele>623.0</ele><time>2026-05-01T08:39:46.912Z</time></trkpt><trkpt lat="42.8130841" lon="11.9212439"><ele>623.0</ele><time>2026-05-01T08:39:47.913Z</time></trkpt><trkpt lat="42.8131531" lon="11.9214366"><ele>623.0</ele><time>2026-05-01T08:39:48.912Z</time></trkpt><trkpt lat="42.8131991" lon="11.9216044"><ele>622.0</ele><time>2026-05-01T08:39:49.913Z</time></trkpt><trkpt lat="42.8132291" lon="11.9217694"><ele>621.0</ele><time>2026-05-01T08:39:50.913Z</time></trkpt><trkpt lat="42.8132084" lon="11.9219426"><ele>620.0</ele><time>2026-05-01T08:39:51.913Z</time></trkpt><trkpt lat="42.8131412" lon="11.922098"><ele>619.0</ele><time>2026-05-01T08:39:52.913Z</time></trkpt><trkpt lat="42.8130248" lon="11.9222282"><ele>619.0</ele><time>2026-05-01T08:39:53.912Z</time></trkpt><trkpt lat="42.8128657" lon="11.9223461"><ele>619.0</ele><time>2026-05-01T08:39:54.913Z</time></trkpt><trkpt lat="42.8126936" lon="11.9224581"><ele>619.0</ele><time>2026-05-01T08:39:55.912Z</time></trkpt><trkpt lat="42.8125168" lon="11.9225759"><ele>616.3333333333334</ele><time>2026-05-01T08:39:56.913Z</time></trkpt><trkpt lat="42.8123254" lon="11.922686"><ele>613.6666666666666</ele><time>2026-05-01T08:39:57.913Z</time></trkpt><trkpt lat="42.8121284" lon="11.9227802"><ele>611.0</ele><time>2026-05-01T08:39:58.912Z</time></trkpt><trkpt lat="42.811916" lon="11.9228563"><ele>610.0</ele><time>2026-05-01T08:39:59.913Z</time></trkpt><trkpt lat="42.8116909" lon="11.9229134"><ele>609.0</ele><time>2026-05-01T08:40:00.913Z</time></trkpt><trkpt lat="42.8114624" lon="11.9229444"><ele>609.0</ele><time>2026-05-01T08:40:01.913Z</time></trkpt><trkpt lat="42.8112494" lon="11.9229735"><ele>609.0</ele><time>2026-05-01T08:40:02.913Z</time></trkpt><trkpt lat="42.8110586" lon="11.9229863"><ele>609.0</ele><time>2026-05-01T08:40:03.912Z</time></trkpt><trkpt lat="42.81089" lon="11.9229953"><ele>609.5</ele><time>2026-05-01T08:40:04.912Z</time></trkpt><trkpt lat="42.8107567" lon="11.9230044"><ele>610.0</ele><time>2026-05-01T08:40:05.912Z</time></trkpt><trkpt lat="42.8106355" lon="11.9230593"><ele>610.5</ele><time>2026-05-01T08:40:06.913Z</time></trkpt><trkpt lat="42.8105204" lon="11.9231709"><ele>611.0</ele><time>2026-05-01T08:40:07.913Z</time></trkpt><trkpt lat="42.8104159" lon="11.9233226"><ele>611.3333333333333</ele><time>2026-05-01T08:40:08.913Z</time></trkpt><trkpt lat="42.810312" lon="11.9235122"><ele>611.6666666666666</ele><time>2026-05-01T08:40:09.913Z</time></trkpt><trkpt lat="42.8102027" lon="11.9237101"><ele>612.0</ele><time>2026-05-01T08:40:10.913Z</time></trkpt><trkpt lat="42.8100995" lon="11.9238939"><ele>612.0</ele><time>2026-05-01T08:40:11.913Z</time></trkpt><trkpt lat="42.8099947" lon="11.9240588"><ele>612.0</ele><time>2026-05-01T08:40:12.912Z</time></trkpt><trkpt lat="42.8098812" lon="11.9241835"><ele>612.0</ele><time>2026-05-01T08:40:13.912Z</time></trkpt><trkpt lat="42.8097415" lon="11.9242748"><ele>609.6666666666666</ele><time>2026-05-01T08:40:14.912Z</time></trkpt><trkpt lat="42.8095733" lon="11.9243179"><ele>607.3333333333333</ele><time>2026-05-01T08:40:15.912Z</time></trkpt><trkpt lat="42.8094002" lon="11.9243597"><ele>605.0</ele><time>2026-05-01T08:40:16.913Z</time></trkpt><trkpt lat="42.8092236" lon="11.9243856"><ele>605.0</ele><time>2026-05-01T08:40:17.913Z</time></trkpt><trkpt lat="42.809053" lon="11.9244091"><ele>605.0</ele><time>2026-05-01T08:40:18.913Z</time></trkpt><trkpt lat="42.8089107" lon="11.9244562"><ele>605.0</ele><time>2026-05-01T08:40:19.913Z</time></trkpt><trkpt lat="42.8087951" lon="11.9245403"><ele>605.0</ele><time>2026-05-01T08:40:20.913Z</time></trkpt><trkpt lat="42.8087147" lon="11.9247091"><ele>605.0</ele><time>2026-05-01T08:40:21.912Z</time></trkpt><trkpt lat="42.8086666" lon="11.9248991"><ele>605.0</ele><time>2026-05-01T08:40:22.913Z</time></trkpt><trkpt lat="42.8086623" lon="11.9250936"><ele>605.0</ele><time>2026-05-01T08:40:23.913Z</time></trkpt><trkpt lat="42.8086979" lon="11.9252833"><ele>605.0</ele><time>2026-05-01T08:40:24.913Z</time></trkpt><trkpt lat="42.808775" lon="11.9254732"><ele>605.6666666666666</ele><time>2026-05-01T08:40:25.913Z</time></trkpt><trkpt lat="42.8088761" lon="11.9256656"><ele>606.3333333333334</ele><time>2026-05-01T08:40:26.913Z</time></trkpt><trkpt lat="42.8089925" lon="11.9258579"><ele>607.0</ele><time>2026-05-01T08:40:27.913Z</time></trkpt><trkpt lat="42.8091177" lon="11.9260531"><ele>608.0</ele><time>2026-05-01T08:40:28.913Z</time></trkpt><trkpt lat="42.8092079" lon="11.9262681"><ele>609.0</ele><time>2026-05-01T08:40:29.913Z</time></trkpt><trkpt lat="42.80927" lon="11.9264918"><ele>610.0</ele><time>2026-05-01T08:40:30.913Z</time></trkpt><trkpt lat="42.8093075" lon="11.9267268"><ele>607.3333333333334</ele><time>2026-05-01T08:40:31.912Z</time></trkpt><trkpt lat="42.8093034" lon="11.9269491"><ele>604.6666666666666</ele><time>2026-05-01T08:40:32.913Z</time></trkpt><trkpt lat="42.8092585" lon="11.9271449"><ele>602.0</ele><time>2026-05-01T08:40:33.913Z</time></trkpt><trkpt lat="42.8091659" lon="11.9272852"><ele>602.0</ele><time>2026-05-01T08:40:34.913Z</time></trkpt><trkpt lat="42.8090625" lon="11.9273775"><ele>602.0</ele><time>2026-05-01T08:40:35.913Z</time></trkpt><trkpt lat="42.8089404" lon="11.9274217"><ele>602.0</ele><time>2026-05-01T08:40:36.913Z</time></trkpt><trkpt lat="42.8087923" lon="11.9274354"><ele>602.0</ele><time>2026-05-01T08:40:37.913Z</time></trkpt><trkpt lat="42.8086137" lon="11.9274511"><ele>601.75</ele><time>2026-05-01T08:40:38.913Z</time></trkpt><trkpt lat="42.8084477" lon="11.9274554"><ele>601.5</ele><time>2026-05-01T08:40:39.913Z</time></trkpt><trkpt lat="42.8083091" lon="11.9274869"><ele>601.25</ele><time>2026-05-01T08:40:40.913Z</time></trkpt><trkpt lat="42.8081998" lon="11.9275437"><ele>601.0</ele><time>2026-05-01T08:40:41.913Z</time></trkpt><trkpt lat="42.8081224" lon="11.9276697"><ele>601.0</ele><time>2026-05-01T08:40:42.913Z</time></trkpt><trkpt lat="42.8081089" lon="11.927862"><ele>601.0</ele><time>2026-05-01T08:40:43.913Z</time></trkpt><trkpt lat="42.8081399" lon="11.9280908"><ele>601.0</ele><time>2026-05-01T08:40:44.913Z</time></trkpt><trkpt lat="42.8082075" lon="11.9282825"><ele>602.6666666666667</ele><time>2026-05-01T08:40:45.912Z</time></trkpt><trkpt lat="42.8083139" lon="11.9284732"><ele>604.3333333333334</ele><time>2026-05-01T08:40:46.913Z</time></trkpt><trkpt lat="42.8084377" lon="11.9286655"><ele>606.0</ele><time>2026-05-01T08:40:47.913Z</time></trkpt><trkpt lat="42.8085698" lon="11.928861"><ele>600.6666666666666</ele><time>2026-05-01T08:40:48.913Z</time></trkpt><trkpt lat="42.8087034" lon="11.9290678"><ele>595.3333333333333</ele><time>2026-05-01T08:40:49.913Z</time></trkpt><trkpt lat="42.8088369" lon="11.9292833"><ele>590.0</ele><time>2026-05-01T08:40:50.912Z</time></trkpt><trkpt lat="42.8089706" lon="11.9294919"><ele>590.0</ele><time>2026-05-01T08:40:51.913Z</time></trkpt><trkpt lat="42.809091" lon="11.92969"><ele>590.0</ele><time>2026-05-01T08:40:52.913Z</time></trkpt><trkpt lat="42.8091944" lon="11.9298361"><ele>590.0</ele><time>2026-05-01T08:40:53.912Z</time></trkpt><trkpt lat="42.8092614" lon="11.9299542"><ele>590.0</ele><time>2026-05-01T08:40:54.912Z</time></trkpt><trkpt lat="42.8092855" lon="11.9301101"><ele>587.3333333333333</ele><time>2026-05-01T08:40:55.913Z</time></trkpt><trkpt lat="42.8092577" lon="11.930311"><ele>584.6666666666666</ele><time>2026-05-01T08:40:56.912Z</time></trkpt><trkpt lat="42.8092073" lon="11.9304878"><ele>582.0</ele><time>2026-05-01T08:40:57.913Z</time></trkpt><trkpt lat="42.8091167" lon="11.9306816"><ele>580.0</ele><time>2026-05-01T08:40:58.913Z</time></trkpt><trkpt lat="42.8090009" lon="11.9309059"><ele>578.0</ele><time>2026-05-01T08:40:59.913Z</time></trkpt><trkpt lat="42.8089017" lon="11.9311267"><ele>576.0</ele><time>2026-05-01T08:41:00.912Z</time></trkpt><trkpt lat="42.808817" lon="11.9313443"><ele>576.0</ele><time>2026-05-01T08:41:01.912Z</time></trkpt><trkpt lat="42.8087626" lon="11.9315565"><ele>576.0</ele><time>2026-05-01T08:41:02.912Z</time></trkpt><trkpt lat="42.8087619" lon="11.9317809"><ele>576.0</ele><time>2026-05-01T08:41:03.913Z</time></trkpt><trkpt lat="42.8087925" lon="11.932043"><ele>574.6666666666666</ele><time>2026-05-01T08:41:04.912Z</time></trkpt><trkpt lat="42.8088473" lon="11.9323062"><ele>573.3333333333333</ele><time>2026-05-01T08:41:05.913Z</time></trkpt><trkpt lat="42.8089201" lon="11.9325748"><ele>572.0</ele><time>2026-05-01T08:41:06.913Z</time></trkpt><trkpt lat="42.8089941" lon="11.9328235"><ele>571.6666666666666</ele><time>2026-05-01T08:41:07.913Z</time></trkpt><trkpt lat="42.8090819" lon="11.9330596"><ele>571.3333333333334</ele><time>2026-05-01T08:41:08.913Z</time></trkpt><trkpt lat="42.8092155" lon="11.9332868"><ele>571.0</ele><time>2026-05-01T08:41:09.913Z</time></trkpt><trkpt lat="42.8093883" lon="11.9335145"><ele>568.5</ele><time>2026-05-01T08:41:10.912Z</time></trkpt><trkpt lat="42.8095793" lon="11.9337249"><ele>566.0</ele><time>2026-05-01T08:41:11.912Z</time></trkpt><trkpt lat="42.8097692" lon="11.9339343"><ele>566.0</ele><time>2026-05-01T08:41:12.913Z</time></trkpt><trkpt lat="42.8099368" lon="11.9341209"><ele>566.0</ele><time>2026-05-01T08:41:13.913Z</time></trkpt><trkpt lat="42.810089" lon="11.9342818"><ele>566.0</ele><time>2026-05-01T08:41:14.913Z</time></trkpt><trkpt lat="42.8102105" lon="11.9344465"><ele>567.3333333333333</ele><time>2026-05-01T08:41:15.913Z</time></trkpt><trkpt lat="42.8103113" lon="11.9346451"><ele>568.6666666666666</ele><time>2026-05-01T08:41:16.913Z</time></trkpt><trkpt lat="42.8103717" lon="11.934887"><ele>570.0</ele><time>2026-05-01T08:41:17.913Z</time></trkpt><trkpt lat="42.810402" lon="11.9351403"><ele>570.6666666666666</ele><time>2026-05-01T08:41:18.913Z</time></trkpt><trkpt lat="42.8104228" lon="11.9353991"><ele>571.3333333333333</ele><time>2026-05-01T08:41:19.913Z</time></trkpt><trkpt lat="42.8104158" lon="11.9356606"><ele>572.0</ele><time>2026-05-01T08:41:20.913Z</time></trkpt><trkpt lat="42.8103781" lon="11.9359271"><ele>570.3333333333333</ele><time>2026-05-01T08:41:21.913Z</time></trkpt><trkpt lat="42.8103185" lon="11.9362262"><ele>568.6666666666666</ele><time>2026-05-01T08:41:22.913Z</time></trkpt><trkpt lat="42.8102544" lon="11.936507"><ele>567.0</ele><time>2026-05-01T08:41:23.913Z</time></trkpt><trkpt lat="42.8102112" lon="11.9367425"><ele>565.0</ele><time>2026-05-01T08:41:24.912Z</time></trkpt><trkpt lat="42.810195" lon="11.9369432"><ele>563.0</ele><time>2026-05-01T08:41:25.913Z</time></trkpt><trkpt lat="42.8102164" lon="11.9371422"><ele>561.0</ele><time>2026-05-01T08:41:26.913Z</time></trkpt><trkpt lat="42.8102815" lon="11.9373254"><ele>559.0</ele><time>2026-05-01T08:41:27.913Z</time></trkpt><trkpt lat="42.810392" lon="11.9374998"><ele>557.3333333333334</ele><time>2026-05-01T08:41:28.913Z</time></trkpt><trkpt lat="42.8105115" lon="11.9376786"><ele>555.6666666666666</ele><time>2026-05-01T08:41:29.913Z</time></trkpt><trkpt lat="42.8106131" lon="11.9378955"><ele>554.0</ele><time>2026-05-01T08:41:30.913Z</time></trkpt><trkpt lat="42.8106788" lon="11.9381455"><ele>554.3333333333333</ele><time>2026-05-01T08:41:31.913Z</time></trkpt><trkpt lat="42.8107074" lon="11.9383991"><ele>554.6666666666666</ele><time>2026-05-01T08:41:32.912Z</time></trkpt><trkpt lat="42.8106913" lon="11.9386524"><ele>555.0</ele><time>2026-05-01T08:41:33.913Z</time></trkpt><trkpt lat="42.8106431" lon="11.9388902"><ele>555.0</ele><time>2026-05-01T08:41:34.913Z</time></trkpt><trkpt lat="42.8105522" lon="11.9391321"><ele>555.0</ele><time>2026-05-01T08:41:35.913Z</time></trkpt><trkpt lat="42.8104493" lon="11.939385"><ele>555.0</ele><time>2026-05-01T08:41:36.913Z</time></trkpt><trkpt lat="42.8103416" lon="11.9396421"><ele>554.6666666666666</ele><time>2026-05-01T08:41:37.913Z</time></trkpt><trkpt lat="42.8102336" lon="11.9399055"><ele>554.3333333333333</ele><time>2026-05-01T08:41:38.913Z</time></trkpt><trkpt lat="42.810131" lon="11.9401467"><ele>554.0</ele><time>2026-05-01T08:41:39.912Z</time></trkpt><trkpt lat="42.8100504" lon="11.9403581"><ele>554.75</ele><time>2026-05-01T08:41:40.913Z</time></trkpt><trkpt lat="42.8099978" lon="11.9405246"><ele>555.5</ele><time>2026-05-01T08:41:41.912Z</time></trkpt><trkpt lat="42.8099754" lon="11.940671"><ele>556.25</ele><time>2026-05-01T08:41:42.913Z</time></trkpt><trkpt lat="42.8099894" lon="11.9408179"><ele>557.0</ele><time>2026-05-01T08:41:43.913Z</time></trkpt><trkpt lat="42.8100342" lon="11.940974"><ele>557.75</ele><time>2026-05-01T08:41:44.913Z</time></trkpt><trkpt lat="42.810097" lon="11.9411344"><ele>558.5</ele><time>2026-05-01T08:41:45.913Z</time></trkpt><trkpt lat="42.8101465" lon="11.941295"><ele>559.25</ele><time>2026-05-01T08:41:46.913Z</time></trkpt><trkpt lat="42.8101658" lon="11.9414524"><ele>560.0</ele><time>2026-05-01T08:41:47.913Z</time></trkpt><trkpt lat="42.8101374" lon="11.9416127"><ele>562.6666666666666</ele><time>2026-05-01T08:41:48.913Z</time></trkpt><trkpt lat="42.8100515" lon="11.941767"><ele>565.3333333333334</ele><time>2026-05-01T08:41:49.913Z</time></trkpt><trkpt lat="42.8099211" lon="11.9419187"><ele>568.0</ele><time>2026-05-01T08:41:50.913Z</time></trkpt><trkpt lat="42.8097854" lon="11.942077"><ele>568.0</ele><time>2026-05-01T08:41:51.912Z</time></trkpt><trkpt lat="42.8096543" lon="11.9422336"><ele>568.0</ele><time>2026-05-01T08:41:52.913Z</time></trkpt><trkpt lat="42.8095453" lon="11.9423828"><ele>568.0</ele><time>2026-05-01T08:41:53.913Z</time></trkpt><trkpt lat="42.8094787" lon="11.942548"><ele>568.3333333333334</ele><time>2026-05-01T08:41:54.913Z</time></trkpt><trkpt lat="42.8094606" lon="11.9427525"><ele>568.6666666666666</ele><time>2026-05-01T08:41:55.913Z</time></trkpt><trkpt lat="42.8094601" lon="11.9429629"><ele>569.0</ele><time>2026-05-01T08:41:56.912Z</time></trkpt><trkpt lat="42.8094743" lon="11.9431827"><ele>568.0</ele><time>2026-05-01T08:41:57.912Z</time></trkpt><trkpt lat="42.8095013" lon="11.943383"><ele>567.0</ele><time>2026-05-01T08:41:58.913Z</time></trkpt><trkpt lat="42.8095699" lon="11.9435611"><ele>566.0</ele><time>2026-05-01T08:41:59.912Z</time></trkpt><trkpt lat="42.8096664" lon="11.9437205"><ele>565.0</ele><time>2026-05-01T08:42:00.912Z</time></trkpt><trkpt lat="42.8097741" lon="11.9438623"><ele>565.0</ele><time>2026-05-01T08:42:01.913Z</time></trkpt><trkpt lat="42.809877" lon="11.9440018"><ele>565.0</ele><time>2026-05-01T08:42:02.912Z</time></trkpt><trkpt lat="42.8099525" lon="11.9441482"><ele>565.0</ele><time>2026-05-01T08:42:03.913Z</time></trkpt><trkpt lat="42.8099701" lon="11.9443142"><ele>565.0</ele><time>2026-05-01T08:42:04.913Z</time></trkpt><trkpt lat="42.8099213" lon="11.9445006"><ele>565.0</ele><time>2026-05-01T08:42:05.912Z</time></trkpt><trkpt lat="42.8098227" lon="11.9447014"><ele>565.0</ele><time>2026-05-01T08:42:06.913Z</time></trkpt><trkpt lat="42.8097152" lon="11.9449126"><ele>565.0</ele><time>2026-05-01T08:42:07.913Z</time></trkpt><trkpt lat="42.8095987" lon="11.9451461"><ele>566.0</ele><time>2026-05-01T08:42:08.913Z</time></trkpt><trkpt lat="42.8094687" lon="11.9453987"><ele>567.0</ele><time>2026-05-01T08:42:09.913Z</time></trkpt><trkpt lat="42.8093446" lon="11.9456464"><ele>568.0</ele><time>2026-05-01T08:42:10.913Z</time></trkpt><trkpt lat="42.8092213" lon="11.945887"><ele>566.0</ele><time>2026-05-01T08:42:11.913Z</time></trkpt><trkpt lat="42.8090924" lon="11.9460885"><ele>564.0</ele><time>2026-05-01T08:42:12.912Z</time></trkpt><trkpt lat="42.8089512" lon="11.9462629"><ele>562.0</ele><time>2026-05-01T08:42:13.913Z</time></trkpt><trkpt lat="42.8087912" lon="11.9464036"><ele>562.0</ele><time>2026-05-01T08:42:14.913Z</time></trkpt><trkpt lat="42.8086146" lon="11.9465121"><ele>562.0</ele><time>2026-05-01T08:42:15.913Z</time></trkpt><trkpt lat="42.8084366" lon="11.9466061"><ele>562.0</ele><time>2026-05-01T08:42:16.913Z</time></trkpt><trkpt lat="42.8082867" lon="11.9467021"><ele>557.5</ele><time>2026-05-01T08:42:17.913Z</time></trkpt><trkpt lat="42.808171" lon="11.9467993"><ele>553.0</ele><time>2026-05-01T08:42:18.913Z</time></trkpt><trkpt lat="42.8081215" lon="11.9469291"><ele>548.5</ele><time>2026-05-01T08:42:19.913Z</time></trkpt><trkpt lat="42.8081282" lon="11.9470805"><ele>544.0</ele><time>2026-05-01T08:42:20.913Z</time></trkpt><trkpt lat="42.8081719" lon="11.9472492"><ele>544.0</ele><time>2026-05-01T08:42:21.913Z</time></trkpt><trkpt lat="42.8082566" lon="11.9474271"><ele>544.0</ele><time>2026-05-01T08:42:22.913Z</time></trkpt><trkpt lat="42.8083495" lon="11.9476059"><ele>544.0</ele><time>2026-05-01T08:42:23.912Z</time></trkpt><trkpt lat="42.80841" lon="11.9478157"><ele>541.75</ele><time>2026-05-01T08:42:24.913Z</time></trkpt><trkpt lat="42.8084193" lon="11.948023"><ele>539.5</ele><time>2026-05-01T08:42:25.912Z</time></trkpt><trkpt lat="42.8084238" lon="11.9482"><ele>537.25</ele><time>2026-05-01T08:42:26.912Z</time></trkpt><trkpt lat="42.8084777" lon="11.948358"><ele>535.0</ele><time>2026-05-01T08:42:27.913Z</time></trkpt><trkpt lat="42.8085911" lon="11.9485034"><ele>535.0</ele><time>2026-05-01T08:42:28.912Z</time></trkpt><trkpt lat="42.8087382" lon="11.9486562"><ele>535.0</ele><time>2026-05-01T08:42:29.913Z</time></trkpt><trkpt lat="42.8088856" lon="11.948811"><ele>535.0</ele><time>2026-05-01T08:42:30.913Z</time></trkpt><trkpt lat="42.8090187" lon="11.9489693"><ele>535.0</ele><time>2026-05-01T08:42:31.912Z</time></trkpt><trkpt lat="42.8091188" lon="11.9491474"><ele>535.0</ele><time>2026-05-01T08:42:32.912Z</time></trkpt><trkpt lat="42.8091908" lon="11.9493481"><ele>535.0</ele><time>2026-05-01T08:42:33.912Z</time></trkpt><trkpt lat="42.809285" lon="11.9495427"><ele>531.3333333333334</ele><time>2026-05-01T08:42:34.912Z</time></trkpt><trkpt lat="42.8094339" lon="11.9496954"><ele>527.6666666666666</ele><time>2026-05-01T08:42:35.913Z</time></trkpt><trkpt lat="42.8096215" lon="11.9498261"><ele>524.0</ele><time>2026-05-01T08:42:36.913Z</time></trkpt><trkpt lat="42.8098323" lon="11.9499401"><ele>517.5</ele><time>2026-05-01T08:42:37.912Z</time></trkpt><trkpt lat="42.8100586" lon="11.950071"><ele>511.0</ele><time>2026-05-01T08:42:38.912Z</time></trkpt><trkpt lat="42.8102794" lon="11.9502005"><ele>511.0</ele><time>2026-05-01T08:42:39.912Z</time></trkpt><trkpt lat="42.8104878" lon="11.9503333"><ele>511.0</ele><time>2026-05-01T08:42:40.912Z</time></trkpt><trkpt lat="42.8106897" lon="11.9504403"><ele>511.0</ele><time>2026-05-01T08:42:41.913Z</time></trkpt><trkpt lat="42.8108686" lon="11.9505577"><ele>509.33333333333337</ele><time>2026-05-01T08:42:42.913Z</time></trkpt><trkpt lat="42.8110292" lon="11.9506792"><ele>507.66666666666663</ele><time>2026-05-01T08:42:43.913Z</time></trkpt><trkpt lat="42.8111649" lon="11.9508347"><ele>506.0</ele><time>2026-05-01T08:42:44.913Z</time></trkpt><trkpt lat="42.8112916" lon="11.951022"><ele>506.0</ele><time>2026-05-01T08:42:45.913Z</time></trkpt><trkpt lat="42.8113992" lon="11.9512347"><ele>506.0</ele><time>2026-05-01T08:42:46.912Z</time></trkpt><trkpt lat="42.811492" lon="11.9514663"><ele>506.0</ele><time>2026-05-01T08:42:47.913Z</time></trkpt><trkpt lat="42.81155" lon="11.9516733"><ele>507.25</ele><time>2026-05-01T08:42:48.913Z</time></trkpt><trkpt lat="42.811589" lon="11.9518673"><ele>508.5</ele><time>2026-05-01T08:42:49.912Z</time></trkpt><trkpt lat="42.8116269" lon="11.9520409"><ele>509.75</ele><time>2026-05-01T08:42:50.913Z</time></trkpt><trkpt lat="42.811676" lon="11.9521972"><ele>511.0</ele><time>2026-05-01T08:42:51.913Z</time></trkpt><trkpt lat="42.8117477" lon="11.9523434"><ele>509.6666666666667</ele><time>2026-05-01T08:42:52.913Z</time></trkpt><trkpt lat="42.8118593" lon="11.9524761"><ele>508.33333333333337</ele><time>2026-05-01T08:42:53.912Z</time></trkpt><trkpt lat="42.8119916" lon="11.9525983"><ele>507.0</ele><time>2026-05-01T08:42:54.913Z</time></trkpt><trkpt lat="42.8121426" lon="11.9527296"><ele>507.0</ele><time>2026-05-01T08:42:55.912Z</time></trkpt><trkpt lat="42.8122914" lon="11.9528686"><ele>507.0</ele><time>2026-05-01T08:42:56.913Z</time></trkpt><trkpt lat="42.8124373" lon="11.9530017"><ele>507.0</ele><time>2026-05-01T08:42:57.913Z</time></trkpt><trkpt lat="42.8125659" lon="11.9531702"><ele>502.33333333333337</ele><time>2026-05-01T08:42:58.912Z</time></trkpt><trkpt lat="42.8126872" lon="11.9533628"><ele>497.6666666666667</ele><time>2026-05-01T08:42:59.913Z</time></trkpt><trkpt lat="42.8127962" lon="11.9535728"><ele>493.0</ele><time>2026-05-01T08:43:00.913Z</time></trkpt><trkpt lat="42.8128978" lon="11.9537619"><ele>493.0</ele><time>2026-05-01T08:43:01.913Z</time></trkpt><trkpt lat="42.8129749" lon="11.9539124"><ele>493.0</ele><time>2026-05-01T08:43:02.912Z</time></trkpt><trkpt lat="42.8130336" lon="11.9540597"><ele>493.0</ele><time>2026-05-01T08:43:03.913Z</time></trkpt><trkpt lat="42.8130671" lon="11.9542069"><ele>493.0</ele><time>2026-05-01T08:43:04.913Z</time></trkpt><trkpt lat="42.813052" lon="11.9543871"><ele>491.33333333333337</ele><time>2026-05-01T08:43:05.913Z</time></trkpt><trkpt lat="42.8129875" lon="11.954592"><ele>489.66666666666663</ele><time>2026-05-01T08:43:06.912Z</time></trkpt><trkpt lat="42.8128772" lon="11.954794"><ele>488.0</ele><time>2026-05-01T08:43:07.913Z</time></trkpt><trkpt lat="42.8127641" lon="11.9549601"><ele>489.5</ele><time>2026-05-01T08:43:08.913Z</time></trkpt><trkpt lat="42.8126622" lon="11.9550932"><ele>491.0</ele><time>2026-05-01T08:43:09.913Z</time></trkpt><trkpt lat="42.8125809" lon="11.9552304"><ele>492.5</ele><time>2026-05-01T08:43:10.913Z</time></trkpt><trkpt lat="42.8125358" lon="11.9554039"><ele>494.0</ele><time>2026-05-01T08:43:11.912Z</time></trkpt><trkpt lat="42.8125309" lon="11.9556091"><ele>494.0</ele><time>2026-05-01T08:43:12.912Z</time></trkpt><trkpt lat="42.8125612" lon="11.9558333"><ele>494.0</ele><time>2026-05-01T08:43:13.913Z</time></trkpt><trkpt lat="42.8125917" lon="11.9560322"><ele>494.0</ele><time>2026-05-01T08:43:14.913Z</time></trkpt><trkpt lat="42.812605" lon="11.9562341"><ele>491.66666666666663</ele><time>2026-05-01T08:43:15.913Z</time></trkpt><trkpt lat="42.8125907" lon="11.9564322"><ele>489.33333333333337</ele><time>2026-05-01T08:43:16.913Z</time></trkpt><trkpt lat="42.8125564" lon="11.9566316"><ele>487.0</ele><time>2026-05-01T08:43:17.913Z</time></trkpt><trkpt lat="42.812491" lon="11.9568279"><ele>484.0</ele><time>2026-05-01T08:43:18.912Z</time></trkpt><trkpt lat="42.8124001" lon="11.9569804"><ele>481.0</ele><time>2026-05-01T08:43:19.913Z</time></trkpt><trkpt lat="42.8123486" lon="11.9571357"><ele>478.0</ele><time>2026-05-01T08:43:20.913Z</time></trkpt><trkpt lat="42.8123389" lon="11.957306"><ele>475.0</ele><time>2026-05-01T08:43:21.913Z</time></trkpt><trkpt lat="42.8123656" lon="11.9575002"><ele>472.6666666666667</ele><time>2026-05-01T08:43:22.913Z</time></trkpt><trkpt lat="42.8124219" lon="11.9577043"><ele>470.33333333333337</ele><time>2026-05-01T08:43:23.913Z</time></trkpt><trkpt lat="42.8124936" lon="11.9579306"><ele>468.0</ele><time>2026-05-01T08:43:24.913Z</time></trkpt><trkpt lat="42.8125671" lon="11.9581725"><ele>466.0</ele><time>2026-05-01T08:43:25.913Z</time></trkpt><trkpt lat="42.812649" lon="11.9584059"><ele>464.0</ele><time>2026-05-01T08:43:26.912Z</time></trkpt><trkpt lat="42.8127129" lon="11.9586281"><ele>462.0</ele><time>2026-05-01T08:43:27.913Z</time></trkpt><trkpt lat="42.8127699" lon="11.9588182"><ele>462.0</ele><time>2026-05-01T08:43:28.913Z</time></trkpt><trkpt lat="42.8128059" lon="11.9590015"><ele>462.0</ele><time>2026-05-01T08:43:29.913Z</time></trkpt><trkpt lat="42.8128304" lon="11.9591932"><ele>462.0</ele><time>2026-05-01T08:43:30.912Z</time></trkpt><trkpt lat="42.8128437" lon="11.9594218"><ele>462.0</ele><time>2026-05-01T08:43:31.913Z</time></trkpt><trkpt lat="42.8128362" lon="11.9596647"><ele>462.0</ele><time>2026-05-01T08:43:32.913Z</time></trkpt><trkpt lat="42.8127937" lon="11.9599086"><ele>462.0</ele><time>2026-05-01T08:43:33.913Z</time></trkpt><trkpt lat="42.8127265" lon="11.9601765"><ele>460.33333333333337</ele><time>2026-05-01T08:43:34.912Z</time></trkpt><trkpt lat="42.8126293" lon="11.9604173"><ele>458.6666666666667</ele><time>2026-05-01T08:43:35.912Z</time></trkpt><trkpt lat="42.8125649" lon="11.9605973"><ele>457.0</ele><time>2026-05-01T08:43:36.912Z</time></trkpt><trkpt lat="42.8125256" lon="11.9607602"><ele>458.0</ele><time>2026-05-01T08:43:37.912Z</time></trkpt><trkpt lat="42.8125122" lon="11.9609159"><ele>459.0</ele><time>2026-05-01T08:43:38.913Z</time></trkpt><trkpt lat="42.8125302" lon="11.9610593"><ele>460.0</ele><time>2026-05-01T08:43:39.913Z</time></trkpt><trkpt lat="42.8125869" lon="11.9612021"><ele>461.0</ele><time>2026-05-01T08:43:40.913Z</time></trkpt><trkpt lat="42.8127033" lon="11.9613516"><ele>461.0</ele><time>2026-05-01T08:43:41.913Z</time></trkpt><trkpt lat="42.8128357" lon="11.9615052"><ele>461.0</ele><time>2026-05-01T08:43:42.913Z</time></trkpt><trkpt lat="42.812959" lon="11.9616618"><ele>461.0</ele><time>2026-05-01T08:43:43.912Z</time></trkpt><trkpt lat="42.8130548" lon="11.9618263"><ele>458.5</ele><time>2026-05-01T08:43:44.912Z</time></trkpt><trkpt lat="42.8131307" lon="11.9619908"><ele>456.0</ele><time>2026-05-01T08:43:45.912Z</time></trkpt><trkpt lat="42.8132061" lon="11.9621526"><ele>453.5</ele><time>2026-05-01T08:43:46.912Z</time></trkpt><trkpt lat="42.8132704" lon="11.9623085"><ele>451.0</ele><time>2026-05-01T08:43:47.913Z</time></trkpt><trkpt lat="42.8133282" lon="11.9624675"><ele>449.5</ele><time>2026-05-01T08:43:48.913Z</time></trkpt><trkpt lat="42.8133687" lon="11.9626371"><ele>448.0</ele><time>2026-05-01T08:43:49.913Z</time></trkpt><trkpt lat="42.813386" lon="11.9628364"><ele>446.5</ele><time>2026-05-01T08:43:50.913Z</time></trkpt><trkpt lat="42.813375" lon="11.9630366"><ele>445.0</ele><time>2026-05-01T08:43:51.913Z</time></trkpt><trkpt lat="42.8133508" lon="11.9632428"><ele>445.33333333333337</ele><time>2026-05-01T08:43:52.913Z</time></trkpt><trkpt lat="42.8133031" lon="11.963451"><ele>445.66666666666663</ele><time>2026-05-01T08:43:53.913Z</time></trkpt><trkpt lat="42.8132153" lon="11.9636709"><ele>446.0</ele><time>2026-05-01T08:43:54.913Z</time></trkpt><trkpt lat="42.8131244" lon="11.9638845"><ele>446.0</ele><time>2026-05-01T08:43:55.912Z</time></trkpt><trkpt lat="42.8130253" lon="11.9640915"><ele>446.0</ele><time>2026-05-01T08:43:56.913Z</time></trkpt><trkpt lat="42.8129342" lon="11.9642749"><ele>446.0</ele><time>2026-05-01T08:43:57.912Z</time></trkpt><trkpt lat="42.8128348" lon="11.9644513"><ele>442.3333333333333</ele><time>2026-05-01T08:43:58.913Z</time></trkpt><trkpt lat="42.812728" lon="11.9645994"><ele>438.66666666666663</ele><time>2026-05-01T08:43:59.912Z</time></trkpt><trkpt lat="42.8126103" lon="11.9647531"><ele>435.0</ele><time>2026-05-01T08:44:00.913Z</time></trkpt><trkpt lat="42.8125015" lon="11.9648804"><ele>434.25</ele><time>2026-05-01T08:44:01.913Z</time></trkpt><trkpt lat="42.8124184" lon="11.9649814"><ele>433.5</ele><time>2026-05-01T08:44:02.913Z</time></trkpt><trkpt lat="42.8123723" lon="11.9651131"><ele>432.75</ele><time>2026-05-01T08:44:03.912Z</time></trkpt><trkpt lat="42.8123568" lon="11.9652715"><ele>432.0</ele><time>2026-05-01T08:44:04.912Z</time></trkpt><trkpt lat="42.8123523" lon="11.9654438"><ele>430.33333333333337</ele><time>2026-05-01T08:44:05.913Z</time></trkpt><trkpt lat="42.8123607" lon="11.9656467"><ele>428.6666666666667</ele><time>2026-05-01T08:44:06.913Z</time></trkpt><trkpt lat="42.8123844" lon="11.9658581"><ele>427.0</ele><time>2026-05-01T08:44:07.912Z</time></trkpt><trkpt lat="42.8124125" lon="11.9660703"><ele>424.0</ele><time>2026-05-01T08:44:08.912Z</time></trkpt><trkpt lat="42.8124348" lon="11.966299"><ele>421.0</ele><time>2026-05-01T08:44:09.913Z</time></trkpt><trkpt lat="42.8124596" lon="11.9665274"><ele>418.0</ele><time>2026-05-01T08:44:10.913Z</time></trkpt><trkpt lat="42.8124766" lon="11.9667595"><ele>416.33333333333337</ele><time>2026-05-01T08:44:11.913Z</time></trkpt><trkpt lat="42.8124963" lon="11.9669862"><ele>414.66666666666663</ele><time>2026-05-01T08:44:12.913Z</time></trkpt><trkpt lat="42.812505" lon="11.9671965"><ele>413.0</ele><time>2026-05-01T08:44:13.913Z</time></trkpt><trkpt lat="42.8125005" lon="11.9673954"><ele>412.5</ele><time>2026-05-01T08:44:14.913Z</time></trkpt><trkpt lat="42.8124984" lon="11.967593"><ele>412.0</ele><time>2026-05-01T08:44:15.913Z</time></trkpt><trkpt lat="42.8124963" lon="11.9677848"><ele>411.5</ele><time>2026-05-01T08:44:16.912Z</time></trkpt><trkpt lat="42.8125011" lon="11.9679831"><ele>411.0</ele><time>2026-05-01T08:44:17.913Z</time></trkpt><trkpt lat="42.8125016" lon="11.9681811"><ele>410.5</ele><time>2026-05-01T08:44:18.913Z</time></trkpt><trkpt lat="42.8125042" lon="11.968378"><ele>410.0</ele><time>2026-05-01T08:44:19.913Z</time></trkpt><trkpt lat="42.8125072" lon="11.968578"><ele>409.5</ele><time>2026-05-01T08:44:20.912Z</time></trkpt><trkpt lat="42.812507" lon="11.96877"><ele>409.0</ele><time>2026-05-01T08:44:21.912Z</time></trkpt><trkpt lat="42.812505" lon="11.9689629"><ele>409.0</ele><time>2026-05-01T08:44:22.913Z</time></trkpt><trkpt lat="42.8125099" lon="11.9691574"><ele>409.0</ele><time>2026-05-01T08:44:23.912Z</time></trkpt><trkpt lat="42.812517" lon="11.9693312"><ele>409.0</ele><time>2026-05-01T08:44:24.913Z</time></trkpt><trkpt lat="42.8125294" lon="11.9694814"><ele>409.0</ele><time>2026-05-01T08:44:25.913Z</time></trkpt><trkpt lat="42.8125628" lon="11.9696153"><ele>409.79999999999995</ele><time>2026-05-01T08:44:26.913Z</time></trkpt><trkpt lat="42.8126231" lon="11.9697223"><ele>410.59999999999997</ele><time>2026-05-01T08:44:27.913Z</time></trkpt><trkpt lat="42.8126901" lon="11.9698384"><ele>411.4</ele><time>2026-05-01T08:44:28.913Z</time></trkpt><trkpt lat="42.8127736" lon="11.9699428"><ele>412.2</ele><time>2026-05-01T08:44:29.912Z</time></trkpt><trkpt lat="42.8128664" lon="11.9700474"><ele>413.0</ele><time>2026-05-01T08:44:30.913Z</time></trkpt><trkpt lat="42.812941" lon="11.9701405"><ele>415.59999999999997</ele><time>2026-05-01T08:44:31.913Z</time></trkpt><trkpt lat="42.8129968" lon="11.9702498"><ele>418.2</ele><time>2026-05-01T08:44:32.913Z</time></trkpt><trkpt lat="42.813025" lon="11.9703571"><ele>420.8</ele><time>2026-05-01T08:44:33.913Z</time></trkpt><trkpt lat="42.8130276" lon="11.9704765"><ele>423.4</ele><time>2026-05-01T08:44:34.913Z</time></trkpt><trkpt lat="42.8130016" lon="11.9706404"><ele>426.0</ele><time>2026-05-01T08:44:35.913Z</time></trkpt><trkpt lat="42.8129577" lon="11.9708191"><ele>428.8</ele><time>2026-05-01T08:44:36.913Z</time></trkpt><trkpt lat="42.8129163" lon="11.9710052"><ele>431.6</ele><time>2026-05-01T08:44:37.912Z</time></trkpt><trkpt lat="42.812882" lon="11.9711554"><ele>434.4</ele><time>2026-05-01T08:44:38.913Z</time></trkpt><trkpt lat="42.8128923" lon="11.9712821"><ele>437.2</ele><time>2026-05-01T08:44:39.913Z</time></trkpt><trkpt lat="42.8129399" lon="11.9713886"><ele>440.0</ele><time>2026-05-01T08:44:40.913Z</time></trkpt><trkpt lat="42.8130154" lon="11.9714928"><ele>440.0</ele><time>2026-05-01T08:44:41.912Z</time></trkpt><trkpt lat="42.8131183" lon="11.9715879"><ele>440.0</ele><time>2026-05-01T08:44:42.913Z</time></trkpt><trkpt lat="42.8132402" lon="11.9716777"><ele>440.0</ele><time>2026-05-01T08:44:43.913Z</time></trkpt><trkpt lat="42.8133438" lon="11.971757"><ele>440.0</ele><time>2026-05-01T08:44:44.912Z</time></trkpt><trkpt lat="42.8134102" lon="11.9718272"><ele>440.16666666666663</ele><time>2026-05-01T08:44:45.913Z</time></trkpt><trkpt lat="42.8134704" lon="11.9718817"><ele>440.3333333333333</ele><time>2026-05-01T08:44:46.912Z</time></trkpt><trkpt lat="42.8135168" lon="11.9719421"><ele>440.5</ele><time>2026-05-01T08:44:47.913Z</time></trkpt><trkpt lat="42.8134647" lon="11.972098"><ele>440.66666666666663</ele><time>2026-05-01T08:44:49.912Z</time></trkpt><trkpt lat="42.8133941" lon="11.9721514"><ele>440.8333333333333</ele><time>2026-05-01T08:44:50.913Z</time></trkpt><trkpt lat="42.8132982" lon="11.9721946"><ele>441.0</ele><time>2026-05-01T08:44:51.913Z</time></trkpt><trkpt lat="42.8132219" lon="11.9722455"><ele>441.0</ele><time>2026-05-01T08:44:52.913Z</time></trkpt><trkpt lat="42.813144" lon="11.9723088"><ele>441.0</ele><time>2026-05-01T08:44:53.913Z</time></trkpt><trkpt lat="42.8130683" lon="11.972383"><ele>441.0</ele><time>2026-05-01T08:44:54.913Z</time></trkpt><trkpt lat="42.8129933" lon="11.9724812"><ele>441.0</ele><time>2026-05-01T08:44:55.912Z</time></trkpt><trkpt lat="42.8129111" lon="11.9725831"><ele>441.0</ele><time>2026-05-01T08:44:56.913Z</time></trkpt><trkpt lat="42.8128286" lon="11.9726756"><ele>439.6666666666667</ele><time>2026-05-01T08:44:57.913Z</time></trkpt><trkpt lat="42.8127498" lon="11.9727719"><ele>438.33333333333337</ele><time>2026-05-01T08:44:58.913Z</time></trkpt><trkpt lat="42.8126838" lon="11.9728653"><ele>437.0</ele><time>2026-05-01T08:44:59.912Z</time></trkpt><trkpt lat="42.8126183" lon="11.9729484"><ele>435.6666666666667</ele><time>2026-05-01T08:45:00.913Z</time></trkpt><trkpt lat="42.8125671" lon="11.9730246"><ele>434.33333333333337</ele><time>2026-05-01T08:45:01.913Z</time></trkpt><trkpt lat="42.8125097" lon="11.9730853"><ele>433.0</ele><time>2026-05-01T08:45:02.913Z</time></trkpt><trkpt lat="42.8124447" lon="11.9731638"><ele>433.33333333333337</ele><time>2026-05-01T08:45:03.913Z</time></trkpt><trkpt lat="42.8123892" lon="11.9732444"><ele>433.6666666666667</ele><time>2026-05-01T08:45:04.913Z</time></trkpt><trkpt lat="42.8123212" lon="11.9733242"><ele>434.0</ele><time>2026-05-01T08:45:05.913Z</time></trkpt><trkpt lat="42.8122599" lon="11.9734072"><ele>434.33333333333337</ele><time>2026-05-01T08:45:06.913Z</time></trkpt><trkpt lat="42.8121962" lon="11.9734948"><ele>434.6666666666667</ele><time>2026-05-01T08:45:07.913Z</time></trkpt><trkpt lat="42.8121298" lon="11.9735757"><ele>435.0</ele><time>2026-05-01T08:45:08.913Z</time></trkpt><trkpt lat="42.8120633" lon="11.9736577"><ele>435.0</ele><time>2026-05-01T08:45:09.913Z</time></trkpt><trkpt lat="42.8119907" lon="11.9737213"><ele>435.0</ele><time>2026-05-01T08:45:10.913Z</time></trkpt><trkpt lat="42.8119055" lon="11.9737737"><ele>435.0</ele><time>2026-05-01T08:45:11.912Z</time></trkpt><trkpt lat="42.8118246" lon="11.9738064"><ele>435.0</ele><time>2026-05-01T08:45:12.912Z</time></trkpt><trkpt lat="42.8117632" lon="11.9738276"><ele>435.0</ele><time>2026-05-01T08:45:13.913Z</time></trkpt><trkpt lat="42.8116795" lon="11.9738656"><ele>435.0</ele><time>2026-05-01T08:45:15.913Z</time></trkpt><trkpt lat="42.8115999" lon="11.97386"><ele>437.8</ele><time>2026-05-01T08:45:17.913Z</time></trkpt><trkpt lat="42.8115245" lon="11.9738698"><ele>440.6</ele><time>2026-05-01T08:45:19.913Z</time></trkpt><trkpt lat="42.8114343" lon="11.9738644"><ele>443.4</ele><time>2026-05-01T08:45:21.912Z</time></trkpt><trkpt lat="42.8113183" lon="11.9738814"><ele>446.2</ele><time>2026-05-01T08:45:23.913Z</time></trkpt><trkpt lat="42.8112406" lon="11.9738949"><ele>449.0</ele><time>2026-05-01T08:45:24.913Z</time></trkpt><trkpt lat="42.8111519" lon="11.9739104"><ele>448.99999999999994</ele><time>2026-05-01T08:45:25.913Z</time></trkpt><trkpt lat="42.811054" lon="11.9739202"><ele>449.0</ele><time>2026-05-01T08:45:26.913Z</time></trkpt><trkpt lat="42.8109655" lon="11.9739429"><ele>449.0</ele><time>2026-05-01T08:45:27.913Z</time></trkpt><trkpt lat="42.8108826" lon="11.973974"><ele>449.0</ele><time>2026-05-01T08:45:28.912Z</time></trkpt><trkpt lat="42.8108004" lon="11.9739998"><ele>448.99999999999994</ele><time>2026-05-01T08:45:29.912Z</time></trkpt><trkpt lat="42.8107326" lon="11.9740179"><ele>449.0</ele><time>2026-05-01T08:45:30.913Z</time></trkpt><trkpt lat="42.810666" lon="11.974069"><ele>448.6</ele><time>2026-05-01T08:45:31.913Z</time></trkpt><trkpt lat="42.8106134" lon="11.9741482"><ele>448.2</ele><time>2026-05-01T08:45:32.913Z</time></trkpt><trkpt lat="42.8105707" lon="11.9742418"><ele>447.80000000000007</ele><time>2026-05-01T08:45:33.913Z</time></trkpt><trkpt lat="42.8105242" lon="11.9743467"><ele>447.40000000000003</ele><time>2026-05-01T08:45:34.912Z</time></trkpt><trkpt lat="42.81048" lon="11.9744671"><ele>447.0</ele><time>2026-05-01T08:45:35.912Z</time></trkpt><trkpt lat="42.8104464" lon="11.9745986"><ele>446.40000000000003</ele><time>2026-05-01T08:45:36.913Z</time></trkpt><trkpt lat="42.8104319" lon="11.9747237"><ele>445.80000000000007</ele><time>2026-05-01T08:45:37.912Z</time></trkpt><trkpt lat="42.8104194" lon="11.9748459"><ele>445.2</ele><time>2026-05-01T08:45:38.913Z</time></trkpt><trkpt lat="42.8104119" lon="11.9749612"><ele>444.6</ele><time>2026-05-01T08:45:39.913Z</time></trkpt><trkpt lat="42.8104127" lon="11.975088"><ele>444.0</ele><time>2026-05-01T08:45:40.913Z</time></trkpt><trkpt lat="42.8104171" lon="11.9752179"><ele>442.0</ele><time>2026-05-01T08:45:41.912Z</time></trkpt><trkpt lat="42.8104105" lon="11.9753375"><ele>440.0</ele><time>2026-05-01T08:45:42.913Z</time></trkpt><trkpt lat="42.8104099" lon="11.975453"><ele>438.0</ele><time>2026-05-01T08:45:43.913Z</time></trkpt><trkpt lat="42.8104084" lon="11.9755794"><ele>436.0</ele><time>2026-05-01T08:45:44.913Z</time></trkpt><trkpt lat="42.8104029" lon="11.9757041"><ele>434.0</ele><time>2026-05-01T08:45:45.913Z</time></trkpt><trkpt lat="42.8104" lon="11.9758333"><ele>431.2</ele><time>2026-05-01T08:45:46.913Z</time></trkpt><trkpt lat="42.8103927" lon="11.9759756"><ele>428.4</ele><time>2026-05-01T08:45:47.913Z</time></trkpt><trkpt lat="42.8103848" lon="11.9761108"><ele>425.6</ele><time>2026-05-01T08:45:48.913Z</time></trkpt><trkpt lat="42.8103757" lon="11.9762352"><ele>422.8</ele><time>2026-05-01T08:45:49.913Z</time></trkpt><trkpt lat="42.8103407" lon="11.9763584"><ele>420.0</ele><time>2026-05-01T08:45:50.913Z</time></trkpt><trkpt lat="42.8103015" lon="11.976479"><ele>420.0</ele><time>2026-05-01T08:45:51.913Z</time></trkpt><trkpt lat="42.810235" lon="11.9765853"><ele>420.0</ele><time>2026-05-01T08:45:52.913Z</time></trkpt><trkpt lat="42.8101551" lon="11.976641"><ele>420.0</ele><time>2026-05-01T08:45:53.912Z</time></trkpt><trkpt lat="42.8100605" lon="11.9766766"><ele>420.0</ele><time>2026-05-01T08:45:54.913Z</time></trkpt><trkpt lat="42.8099566" lon="11.9767106"><ele>420.0</ele><time>2026-05-01T08:45:55.912Z</time></trkpt><trkpt lat="42.8098556" lon="11.9767538"><ele>416.5</ele><time>2026-05-01T08:45:56.913Z</time></trkpt><trkpt lat="42.8097529" lon="11.9768214"><ele>413.0</ele><time>2026-05-01T08:45:57.912Z</time></trkpt><trkpt lat="42.8096585" lon="11.9769401"><ele>409.5</ele><time>2026-05-01T08:45:58.912Z</time></trkpt><trkpt lat="42.8095765" lon="11.9770762"><ele>406.0</ele><time>2026-05-01T08:45:59.913Z</time></trkpt><trkpt lat="42.8095086" lon="11.9772181"><ele>406.0</ele><time>2026-05-01T08:46:00.913Z</time></trkpt><trkpt lat="42.8094362" lon="11.9773544"><ele>406.0</ele><time>2026-05-01T08:46:01.912Z</time></trkpt><trkpt lat="42.8093284" lon="11.9774561"><ele>406.0</ele><time>2026-05-01T08:46:02.913Z</time></trkpt><trkpt lat="42.8092042" lon="11.9775086"><ele>406.0</ele><time>2026-05-01T08:46:03.913Z</time></trkpt><trkpt lat="42.8090799" lon="11.9775588"><ele>404.5</ele><time>2026-05-01T08:46:04.912Z</time></trkpt><trkpt lat="42.808962" lon="11.9776431"><ele>403.0</ele><time>2026-05-01T08:46:05.913Z</time></trkpt><trkpt lat="42.8088657" lon="11.9777876"><ele>401.5</ele><time>2026-05-01T08:46:06.913Z</time></trkpt><trkpt lat="42.8088167" lon="11.9779745"><ele>400.0</ele><time>2026-05-01T08:46:07.913Z</time></trkpt><trkpt lat="42.8087917" lon="11.9781816"><ele>397.0</ele><time>2026-05-01T08:46:08.912Z</time></trkpt><trkpt lat="42.8087852" lon="11.9784073"><ele>394.0</ele><time>2026-05-01T08:46:09.913Z</time></trkpt><trkpt lat="42.808784" lon="11.9786383"><ele>391.0</ele><time>2026-05-01T08:46:10.913Z</time></trkpt><trkpt lat="42.8087721" lon="11.9788524"><ele>391.0</ele><time>2026-05-01T08:46:11.912Z</time></trkpt><trkpt lat="42.8087504" lon="11.9790594"><ele>391.0</ele><time>2026-05-01T08:46:12.913Z</time></trkpt><trkpt lat="42.8087145" lon="11.9792292"><ele>391.0</ele><time>2026-05-01T08:46:13.912Z</time></trkpt><trkpt lat="42.8086733" lon="11.9793589"><ele>391.0</ele><time>2026-05-01T08:46:14.913Z</time></trkpt><trkpt lat="42.8086328" lon="11.9794609"><ele>390.8</ele><time>2026-05-01T08:46:15.913Z</time></trkpt><trkpt lat="42.8086194" lon="11.9795597"><ele>390.6</ele><time>2026-05-01T08:46:16.913Z</time></trkpt><trkpt lat="42.8086033" lon="11.9796851"><ele>390.4</ele><time>2026-05-01T08:46:17.912Z</time></trkpt><trkpt lat="42.8085957" lon="11.9798217"><ele>390.2</ele><time>2026-05-01T08:46:18.913Z</time></trkpt><trkpt lat="42.8085754" lon="11.9799748"><ele>390.0</ele><time>2026-05-01T08:46:19.912Z</time></trkpt><trkpt lat="42.8085453" lon="11.9801421"><ele>390.0</ele><time>2026-05-01T08:46:20.912Z</time></trkpt><trkpt lat="42.8085028" lon="11.9803204"><ele>390.0</ele><time>2026-05-01T08:46:21.913Z</time></trkpt><trkpt lat="42.8084528" lon="11.9805102"><ele>390.0</ele><time>2026-05-01T08:46:22.913Z</time></trkpt><trkpt lat="42.8083908" lon="11.9807017"><ele>390.0</ele><time>2026-05-01T08:46:23.913Z</time></trkpt><trkpt lat="42.8083315" lon="11.9808926"><ele>388.5</ele><time>2026-05-01T08:46:24.912Z</time></trkpt><trkpt lat="42.8082785" lon="11.9810828"><ele>387.0</ele><time>2026-05-01T08:46:25.912Z</time></trkpt><trkpt lat="42.8082275" lon="11.9812546"><ele>385.5</ele><time>2026-05-01T08:46:26.913Z</time></trkpt><trkpt lat="42.8081734" lon="11.9814155"><ele>384.0</ele><time>2026-05-01T08:46:27.913Z</time></trkpt><trkpt lat="42.80811" lon="11.9815644"><ele>383.25</ele><time>2026-05-01T08:46:28.913Z</time></trkpt><trkpt lat="42.8080252" lon="11.9816946"><ele>382.5</ele><time>2026-05-01T08:46:29.913Z</time></trkpt><trkpt lat="42.8079164" lon="11.9818074"><ele>381.75</ele><time>2026-05-01T08:46:30.912Z</time></trkpt><trkpt lat="42.8077926" lon="11.9818976"><ele>381.0</ele><time>2026-05-01T08:46:31.913Z</time></trkpt><trkpt lat="42.8076557" lon="11.9819545"><ele>381.0</ele><time>2026-05-01T08:46:32.913Z</time></trkpt><trkpt lat="42.8075043" lon="11.9819722"><ele>381.0</ele><time>2026-05-01T08:46:33.913Z</time></trkpt><trkpt lat="42.8073485" lon="11.9819509"><ele>381.0</ele><time>2026-05-01T08:46:34.913Z</time></trkpt><trkpt lat="42.807183" lon="11.9819339"><ele>381.0</ele><time>2026-05-01T08:46:35.913Z</time></trkpt><trkpt lat="42.8070121" lon="11.9819775"><ele>381.0</ele><time>2026-05-01T08:46:36.912Z</time></trkpt><trkpt lat="42.8068458" lon="11.982054"><ele>381.0</ele><time>2026-05-01T08:46:37.913Z</time></trkpt><trkpt lat="42.8066914" lon="11.9821516"><ele>380.75</ele><time>2026-05-01T08:46:38.913Z</time></trkpt><trkpt lat="42.8065498" lon="11.9822565"><ele>380.5</ele><time>2026-05-01T08:46:39.913Z</time></trkpt><trkpt lat="42.8064331" lon="11.9823929"><ele>380.25</ele><time>2026-05-01T08:46:40.912Z</time></trkpt><trkpt lat="42.806359" lon="11.9825436"><ele>380.0</ele><time>2026-05-01T08:46:41.912Z</time></trkpt><trkpt lat="42.806322" lon="11.982715"><ele>378.25</ele><time>2026-05-01T08:46:42.913Z</time></trkpt><trkpt lat="42.806323" lon="11.9828945"><ele>376.5</ele><time>2026-05-01T08:46:43.913Z</time></trkpt><trkpt lat="42.8063531" lon="11.9830885"><ele>374.75</ele><time>2026-05-01T08:46:44.913Z</time></trkpt><trkpt lat="42.8064194" lon="11.9832835"><ele>373.0</ele><time>2026-05-01T08:46:45.913Z</time></trkpt><trkpt lat="42.8065227" lon="11.9834941"><ele>370.0</ele><time>2026-05-01T08:46:46.912Z</time></trkpt><trkpt lat="42.8066202" lon="11.9837235"><ele>367.0</ele><time>2026-05-01T08:46:47.912Z</time></trkpt><trkpt lat="42.8067064" lon="11.9839386"><ele>364.0</ele><time>2026-05-01T08:46:48.913Z</time></trkpt><trkpt lat="42.8067791" lon="11.9841611"><ele>362.0</ele><time>2026-05-01T08:46:49.912Z</time></trkpt><trkpt lat="42.8068247" lon="11.9844076"><ele>360.0</ele><time>2026-05-01T08:46:50.913Z</time></trkpt><trkpt lat="42.8068386" lon="11.9846853"><ele>358.0</ele><time>2026-05-01T08:46:51.912Z</time></trkpt><trkpt lat="42.8068294" lon="11.9849831"><ele>356.3333333333333</ele><time>2026-05-01T08:46:52.913Z</time></trkpt><trkpt lat="42.8068009" lon="11.985284"><ele>354.6666666666667</ele><time>2026-05-01T08:46:53.913Z</time></trkpt><trkpt lat="42.806767" lon="11.9855879"><ele>353.0</ele><time>2026-05-01T08:46:54.913Z</time></trkpt><trkpt lat="42.8067427" lon="11.985889"><ele>352.33333333333337</ele><time>2026-05-01T08:46:55.913Z</time></trkpt><trkpt lat="42.8067162" lon="11.9861816"><ele>351.6666666666667</ele><time>2026-05-01T08:46:56.913Z</time></trkpt><trkpt lat="42.806681" lon="11.9864888"><ele>351.0</ele><time>2026-05-01T08:46:57.913Z</time></trkpt><trkpt lat="42.8066356" lon="11.9867838"><ele>349.5</ele><time>2026-05-01T08:46:58.913Z</time></trkpt><trkpt lat="42.806573" lon="11.9870758"><ele>348.0</ele><time>2026-05-01T08:46:59.912Z</time></trkpt><trkpt lat="42.8065058" lon="11.9873843"><ele>346.5</ele><time>2026-05-01T08:47:00.913Z</time></trkpt><trkpt lat="42.8064342" lon="11.9876915"><ele>345.0</ele><time>2026-05-01T08:47:01.912Z</time></trkpt><trkpt lat="42.8063682" lon="11.9880034"><ele>345.0</ele><time>2026-05-01T08:47:02.913Z</time></trkpt><trkpt lat="42.8062969" lon="11.9883056"><ele>345.0</ele><time>2026-05-01T08:47:03.913Z</time></trkpt><trkpt lat="42.8062272" lon="11.9886156"><ele>343.5</ele><time>2026-05-01T08:47:04.913Z</time></trkpt><trkpt lat="42.8061561" lon="11.9889196"><ele>342.0</ele><time>2026-05-01T08:47:05.913Z</time></trkpt><trkpt lat="42.8060847" lon="11.9892232"><ele>341.0</ele><time>2026-05-01T08:47:06.913Z</time></trkpt><trkpt lat="42.8060228" lon="11.9895206"><ele>340.0</ele><time>2026-05-01T08:47:07.913Z</time></trkpt><trkpt lat="42.8059623" lon="11.9898251"><ele>343.0</ele><time>2026-05-01T08:47:08.913Z</time></trkpt><trkpt lat="42.8058988" lon="11.9901159"><ele>346.0</ele><time>2026-05-01T08:47:09.913Z</time></trkpt><trkpt lat="42.8058355" lon="11.99038"><ele>349.0</ele><time>2026-05-01T08:47:10.912Z</time></trkpt><trkpt lat="42.8057737" lon="11.9905948"><ele>349.0</ele><time>2026-05-01T08:47:11.912Z</time></trkpt><trkpt lat="42.8056965" lon="11.9907566"><ele>349.0</ele><time>2026-05-01T08:47:12.913Z</time></trkpt><trkpt lat="42.8055966" lon="11.9908743"><ele>349.0</ele><time>2026-05-01T08:47:13.912Z</time></trkpt><trkpt lat="42.80548" lon="11.9909779"><ele>349.0</ele><time>2026-05-01T08:47:14.913Z</time></trkpt><trkpt lat="42.8053337" lon="11.9910542"><ele>347.0</ele><time>2026-05-01T08:47:15.912Z</time></trkpt><trkpt lat="42.805165" lon="11.9910953"><ele>345.0</ele><time>2026-05-01T08:47:16.913Z</time></trkpt><trkpt lat="42.8049903" lon="11.9910849"><ele>343.0</ele><time>2026-05-01T08:47:17.913Z</time></trkpt><trkpt lat="42.8048105" lon="11.9910149"><ele>344.66666666666663</ele><time>2026-05-01T08:47:18.913Z</time></trkpt><trkpt lat="42.8046294" lon="11.9909478"><ele>346.3333333333333</ele><time>2026-05-01T08:47:19.912Z</time></trkpt><trkpt lat="42.8044448" lon="11.990922"><ele>348.0</ele><time>2026-05-01T08:47:20.913Z</time></trkpt><trkpt lat="42.8042601" lon="11.9909404"><ele>348.0</ele><time>2026-05-01T08:47:21.913Z</time></trkpt><trkpt lat="42.8040699" lon="11.9910187"><ele>348.0</ele><time>2026-05-01T08:47:22.913Z</time></trkpt><trkpt lat="42.8038868" lon="11.9911559"><ele>348.0</ele><time>2026-05-01T08:47:23.913Z</time></trkpt><trkpt lat="42.8037146" lon="11.9913337"><ele>348.0</ele><time>2026-05-01T08:47:24.913Z</time></trkpt><trkpt lat="42.8035646" lon="11.9915666"><ele>348.0</ele><time>2026-05-01T08:47:25.913Z</time></trkpt><trkpt lat="42.8034247" lon="11.9918294"><ele>342.5</ele><time>2026-05-01T08:47:26.913Z</time></trkpt><trkpt lat="42.8032659" lon="11.9920984"><ele>337.0</ele><time>2026-05-01T08:47:27.913Z</time></trkpt><trkpt lat="42.8031157" lon="11.9923807"><ele>332.5</ele><time>2026-05-01T08:47:28.913Z</time></trkpt><trkpt lat="42.8029571" lon="11.9926608"><ele>328.0</ele><time>2026-05-01T08:47:29.912Z</time></trkpt><trkpt lat="42.8028006" lon="11.9929346"><ele>327.0</ele><time>2026-05-01T08:47:30.913Z</time></trkpt><trkpt lat="42.8026457" lon="11.993212"><ele>326.0</ele><time>2026-05-01T08:47:31.913Z</time></trkpt><trkpt lat="42.8024869" lon="11.9934762"><ele>326.0</ele><time>2026-05-01T08:47:32.913Z</time></trkpt><trkpt lat="42.8023268" lon="11.9937469"><ele>326.0</ele><time>2026-05-01T08:47:33.912Z</time></trkpt><trkpt lat="42.8021679" lon="11.9940049"><ele>323.5</ele><time>2026-05-01T08:47:34.913Z</time></trkpt><trkpt lat="42.8020175" lon="11.9942584"><ele>321.0</ele><time>2026-05-01T08:47:35.913Z</time></trkpt><trkpt lat="42.8018587" lon="11.9944867"><ele>324.5</ele><time>2026-05-01T08:47:36.913Z</time></trkpt><trkpt lat="42.8016869" lon="11.9947268"><ele>328.0</ele><time>2026-05-01T08:47:37.913Z</time></trkpt><trkpt lat="42.8015121" lon="11.9949649"><ele>325.5</ele><time>2026-05-01T08:47:38.913Z</time></trkpt><trkpt lat="42.8013113" lon="11.9951886"><ele>323.0</ele><time>2026-05-01T08:47:39.913Z</time></trkpt><trkpt lat="42.8011116" lon="11.9954195"><ele>325.5</ele><time>2026-05-01T08:47:40.913Z</time></trkpt><trkpt lat="42.8009191" lon="11.9956428"><ele>328.0</ele><time>2026-05-01T08:47:41.913Z</time></trkpt><trkpt lat="42.8007338" lon="11.995851"><ele>328.0</ele><time>2026-05-01T08:47:42.913Z</time></trkpt><trkpt lat="42.8005612" lon="11.9960493"><ele>328.0</ele><time>2026-05-01T08:47:43.913Z</time></trkpt><trkpt lat="42.8003938" lon="11.9962252"><ele>328.0</ele><time>2026-05-01T08:47:44.913Z</time></trkpt><trkpt lat="42.8002283" lon="11.9963617"><ele>331.0</ele><time>2026-05-01T08:47:45.912Z</time></trkpt><trkpt lat="42.8000635" lon="11.9964681"><ele>334.0</ele><time>2026-05-01T08:47:46.913Z</time></trkpt><trkpt lat="42.7998865" lon="11.9965644"><ele>337.0</ele><time>2026-05-01T08:47:47.913Z</time></trkpt><trkpt lat="42.79968" lon="11.9966345"><ele>336.0</ele><time>2026-05-01T08:47:48.913Z</time></trkpt><trkpt lat="42.7994664" lon="11.9966975"><ele>335.0</ele><time>2026-05-01T08:47:49.913Z</time></trkpt><trkpt lat="42.7992569" lon="11.9968"><ele>334.0</ele><time>2026-05-01T08:47:50.913Z</time></trkpt><trkpt lat="42.7990494" lon="11.9969247"><ele>331.5</ele><time>2026-05-01T08:47:51.912Z</time></trkpt><trkpt lat="42.7988417" lon="11.9970701"><ele>329.0</ele><time>2026-05-01T08:47:52.913Z</time></trkpt><trkpt lat="42.7986337" lon="11.9972333"><ele>328.5</ele><time>2026-05-01T08:47:53.913Z</time></trkpt><trkpt lat="42.7984231" lon="11.9973918"><ele>328.0</ele><time>2026-05-01T08:47:54.912Z</time></trkpt><trkpt lat="42.7982105" lon="11.9975506"><ele>323.5</ele><time>2026-05-01T08:47:55.913Z</time></trkpt><trkpt lat="42.7979989" lon="11.9977119"><ele>319.0</ele><time>2026-05-01T08:47:56.913Z</time></trkpt><trkpt lat="42.7977971" lon="11.9978724"><ele>319.0</ele><time>2026-05-01T08:47:57.912Z</time></trkpt><trkpt lat="42.7976126" lon="11.9980248"><ele>319.0</ele><time>2026-05-01T08:47:58.913Z</time></trkpt><trkpt lat="42.7974497" lon="11.998174"><ele>319.0</ele><time>2026-05-01T08:47:59.913Z</time></trkpt><trkpt lat="42.7972981" lon="11.9983533"><ele>316.3333333333333</ele><time>2026-05-01T08:48:00.912Z</time></trkpt><trkpt lat="42.797175" lon="11.9985594"><ele>313.6666666666667</ele><time>2026-05-01T08:48:01.913Z</time></trkpt><trkpt lat="42.7970775" lon="11.9987852"><ele>311.0</ele><time>2026-05-01T08:48:02.913Z</time></trkpt><trkpt lat="42.7970093" lon="11.9990296"><ele>310.0</ele><time>2026-05-01T08:48:03.913Z</time></trkpt><trkpt lat="42.7969568" lon="11.9993138"><ele>309.0</ele><time>2026-05-01T08:48:04.913Z</time></trkpt><trkpt lat="42.7969161" lon="11.9996147"><ele>308.0</ele><time>2026-05-01T08:48:05.913Z</time></trkpt><trkpt lat="42.7968811" lon="11.9999233"><ele>308.0</ele><time>2026-05-01T08:48:06.913Z</time></trkpt><trkpt lat="42.7968461" lon="12.0002417"><ele>308.0</ele><time>2026-05-01T08:48:07.913Z</time></trkpt><trkpt lat="42.7968115" lon="12.0005708"><ele>310.0</ele><time>2026-05-01T08:48:08.912Z</time></trkpt><trkpt lat="42.7967767" lon="12.000894"><ele>312.0</ele><time>2026-05-01T08:48:09.912Z</time></trkpt><trkpt lat="42.7967342" lon="12.0012096"><ele>312.0</ele><time>2026-05-01T08:48:10.913Z</time></trkpt><trkpt lat="42.7966968" lon="12.0015316"><ele>312.0</ele><time>2026-05-01T08:48:11.913Z</time></trkpt><trkpt lat="42.7966686" lon="12.0018541"><ele>309.5</ele><time>2026-05-01T08:48:12.913Z</time></trkpt><trkpt lat="42.7966623" lon="12.0021746"><ele>307.0</ele><time>2026-05-01T08:48:13.913Z</time></trkpt><trkpt lat="42.7966587" lon="12.0025025"><ele>304.0</ele><time>2026-05-01T08:48:14.913Z</time></trkpt><trkpt lat="42.7966614" lon="12.0028269"><ele>301.0</ele><time>2026-05-01T08:48:15.913Z</time></trkpt><trkpt lat="42.796657" lon="12.0031699"><ele>299.0</ele><time>2026-05-01T08:48:16.912Z</time></trkpt><trkpt lat="42.7966533" lon="12.0035009"><ele>297.0</ele><time>2026-05-01T08:48:17.913Z</time></trkpt><trkpt lat="42.7966494" lon="12.0038255"><ele>297.0</ele><time>2026-05-01T08:48:18.913Z</time></trkpt><trkpt lat="42.7966453" lon="12.0041426"><ele>297.0</ele><time>2026-05-01T08:48:19.913Z</time></trkpt><trkpt lat="42.7966451" lon="12.0044586"><ele>294.0</ele><time>2026-05-01T08:48:20.913Z</time></trkpt><trkpt lat="42.7966481" lon="12.004775"><ele>291.0</ele><time>2026-05-01T08:48:21.913Z</time></trkpt><trkpt lat="42.7966497" lon="12.0050972"><ele>288.5</ele><time>2026-05-01T08:48:22.913Z</time></trkpt><trkpt lat="42.7966557" lon="12.0054265"><ele>286.0</ele><time>2026-05-01T08:48:23.912Z</time></trkpt><trkpt lat="42.7966587" lon="12.00576"><ele>283.5</ele><time>2026-05-01T08:48:24.912Z</time></trkpt><trkpt lat="42.7966598" lon="12.0060928"><ele>281.0</ele><time>2026-05-01T08:48:25.913Z</time></trkpt><trkpt lat="42.7966684" lon="12.0064325"><ele>280.0</ele><time>2026-05-01T08:48:26.913Z</time></trkpt><trkpt lat="42.7966756" lon="12.0067712"><ele>279.0</ele><time>2026-05-01T08:48:27.912Z</time></trkpt><trkpt lat="42.796684" lon="12.0071013"><ele>279.0</ele><time>2026-05-01T08:48:28.913Z</time></trkpt><trkpt lat="42.7966879" lon="12.007419"><ele>279.0</ele><time>2026-05-01T08:48:29.913Z</time></trkpt><trkpt lat="42.7966947" lon="12.0077227"><ele>277.3333333333333</ele><time>2026-05-01T08:48:30.913Z</time></trkpt><trkpt lat="42.796681" lon="12.0080064"><ele>275.66666666666663</ele><time>2026-05-01T08:48:31.913Z</time></trkpt><trkpt lat="42.7966391" lon="12.0082527"><ele>274.0</ele><time>2026-05-01T08:48:32.912Z</time></trkpt><trkpt lat="42.7965553" lon="12.008484"><ele>274.0</ele><time>2026-05-01T08:48:33.912Z</time></trkpt><trkpt lat="42.7964243" lon="12.0086817"><ele>274.0</ele><time>2026-05-01T08:48:34.912Z</time></trkpt><trkpt lat="42.7962646" lon="12.0088466"><ele>274.0</ele><time>2026-05-01T08:48:35.913Z</time></trkpt><trkpt lat="42.7960879" lon="12.0089926"><ele>273.66666666666663</ele><time>2026-05-01T08:48:36.913Z</time></trkpt><trkpt lat="42.7959026" lon="12.0091056"><ele>273.3333333333333</ele><time>2026-05-01T08:48:37.913Z</time></trkpt><trkpt lat="42.7957352" lon="12.0092154"><ele>273.0</ele><time>2026-05-01T08:48:38.913Z</time></trkpt><trkpt lat="42.7955694" lon="12.0093466"><ele>273.0</ele><time>2026-05-01T08:48:39.913Z</time></trkpt><trkpt lat="42.7954144" lon="12.0095169"><ele>273.0</ele><time>2026-05-01T08:48:40.912Z</time></trkpt><trkpt lat="42.7952698" lon="12.0097422"><ele>273.0</ele><time>2026-05-01T08:48:41.912Z</time></trkpt><trkpt lat="42.7951328" lon="12.0099682"><ele>271.3333333333333</ele><time>2026-05-01T08:48:42.913Z</time></trkpt><trkpt lat="42.7950035" lon="12.010159"><ele>269.66666666666663</ele><time>2026-05-01T08:48:43.913Z</time></trkpt><trkpt lat="42.7948758" lon="12.0103368"><ele>268.0</ele><time>2026-05-01T08:48:44.912Z</time></trkpt><trkpt lat="42.7947138" lon="12.0104631"><ele>268.0</ele><time>2026-05-01T08:48:45.913Z</time></trkpt><trkpt lat="42.7945257" lon="12.010542"><ele>268.0</ele><time>2026-05-01T08:48:46.912Z</time></trkpt><trkpt lat="42.7943266" lon="12.0105823"><ele>268.0</ele><time>2026-05-01T08:48:47.913Z</time></trkpt><trkpt lat="42.7941391" lon="12.0106259"><ele>267.75</ele><time>2026-05-01T08:48:48.913Z</time></trkpt><trkpt lat="42.793984" lon="12.0106522"><ele>267.5</ele><time>2026-05-01T08:48:49.913Z</time></trkpt><trkpt lat="42.7938445" lon="12.0107025"><ele>267.25</ele><time>2026-05-01T08:48:50.912Z</time></trkpt><trkpt lat="42.7937411" lon="12.010813"><ele>267.0</ele><time>2026-05-01T08:48:51.912Z</time></trkpt><trkpt lat="42.793674" lon="12.0109787"><ele>267.0</ele><time>2026-05-01T08:48:52.913Z</time></trkpt><trkpt lat="42.7936589" lon="12.0111843"><ele>267.0</ele><time>2026-05-01T08:48:53.912Z</time></trkpt><trkpt lat="42.7937034" lon="12.0114102"><ele>267.0</ele><time>2026-05-01T08:48:54.913Z</time></trkpt><trkpt lat="42.7937733" lon="12.0116427"><ele>265.3333333333333</ele><time>2026-05-01T08:48:55.912Z</time></trkpt><trkpt lat="42.7938376" lon="12.0118643"><ele>263.66666666666663</ele><time>2026-05-01T08:48:56.912Z</time></trkpt><trkpt lat="42.793887" lon="12.0120917"><ele>262.0</ele><time>2026-05-01T08:48:57.912Z</time></trkpt><trkpt lat="42.7938975" lon="12.01236"><ele>259.0</ele><time>2026-05-01T08:48:58.912Z</time></trkpt><trkpt lat="42.7938548" lon="12.012632"><ele>256.0</ele><time>2026-05-01T08:48:59.913Z</time></trkpt><trkpt lat="42.7937812" lon="12.0129031"><ele>253.0</ele><time>2026-05-01T08:49:00.913Z</time></trkpt><trkpt lat="42.7936975" lon="12.0131709"><ele>251.0</ele><time>2026-05-01T08:49:01.913Z</time></trkpt><trkpt lat="42.7936135" lon="12.0134562"><ele>249.0</ele><time>2026-05-01T08:49:02.913Z</time></trkpt><trkpt lat="42.7935135" lon="12.0137214"><ele>247.0</ele><time>2026-05-01T08:49:03.913Z</time></trkpt><trkpt lat="42.7933855" lon="12.0139568"><ele>249.0</ele><time>2026-05-01T08:49:04.913Z</time></trkpt><trkpt lat="42.7932415" lon="12.0141779"><ele>251.0</ele><time>2026-05-01T08:49:05.912Z</time></trkpt><trkpt lat="42.7930678" lon="12.0143892"><ele>251.0</ele><time>2026-05-01T08:49:06.913Z</time></trkpt><trkpt lat="42.7928743" lon="12.0145693"><ele>251.0</ele><time>2026-05-01T08:49:07.913Z</time></trkpt><trkpt lat="42.7926722" lon="12.0147574"><ele>249.5</ele><time>2026-05-01T08:49:08.913Z</time></trkpt><trkpt lat="42.7924667" lon="12.0149395"><ele>248.0</ele><time>2026-05-01T08:49:09.913Z</time></trkpt><trkpt lat="42.7922614" lon="12.0151273"><ele>248.0</ele><time>2026-05-01T08:49:10.913Z</time></trkpt><trkpt lat="42.7920536" lon="12.0153263"><ele>248.0</ele><time>2026-05-01T08:49:11.913Z</time></trkpt><trkpt lat="42.791847" lon="12.0155153"><ele>246.5</ele><time>2026-05-01T08:49:12.913Z</time></trkpt><trkpt lat="42.7916388" lon="12.0157114"><ele>245.0</ele><time>2026-05-01T08:49:13.913Z</time></trkpt><trkpt lat="42.7914468" lon="12.0158942"><ele>245.0</ele><time>2026-05-01T08:49:14.912Z</time></trkpt><trkpt lat="42.7912619" lon="12.0160747"><ele>245.0</ele><time>2026-05-01T08:49:15.913Z</time></trkpt><trkpt lat="42.7910845" lon="12.0162318"><ele>245.0</ele><time>2026-05-01T08:49:16.913Z</time></trkpt><trkpt lat="42.7909021" lon="12.0163703"><ele>244.33333333333334</ele><time>2026-05-01T08:49:17.913Z</time></trkpt><trkpt lat="42.7907263" lon="12.0165067"><ele>243.66666666666669</ele><time>2026-05-01T08:49:18.912Z</time></trkpt><trkpt lat="42.7905478" lon="12.016651"><ele>243.0</ele><time>2026-05-01T08:49:19.913Z</time></trkpt><trkpt lat="42.7903701" lon="12.0167853"><ele>243.0</ele><time>2026-05-01T08:49:20.912Z</time></trkpt><trkpt lat="42.7901963" lon="12.0169194"><ele>243.0</ele><time>2026-05-01T08:49:21.913Z</time></trkpt><trkpt lat="42.7900249" lon="12.0170372"><ele>243.0</ele><time>2026-05-01T08:49:22.912Z</time></trkpt><trkpt lat="42.7898451" lon="12.0171134"><ele>242.33333333333331</ele><time>2026-05-01T08:49:23.913Z</time></trkpt><trkpt lat="42.789672" lon="12.017145"><ele>241.66666666666666</ele><time>2026-05-01T08:49:24.913Z</time></trkpt><trkpt lat="42.789489" lon="12.0171336"><ele>241.0</ele><time>2026-05-01T08:49:25.913Z</time></trkpt><trkpt lat="42.7893021" lon="12.0170978"><ele>238.66666666666666</ele><time>2026-05-01T08:49:26.912Z</time></trkpt><trkpt lat="42.7891165" lon="12.0170676"><ele>236.33333333333331</ele><time>2026-05-01T08:49:27.912Z</time></trkpt><trkpt lat="42.7889534" lon="12.0170579"><ele>234.0</ele><time>2026-05-01T08:49:28.913Z</time></trkpt><trkpt lat="42.7888163" lon="12.017075"><ele>234.0</ele><time>2026-05-01T08:49:29.913Z</time></trkpt><trkpt lat="42.7886921" lon="12.0171489"><ele>234.0</ele><time>2026-05-01T08:49:30.913Z</time></trkpt><trkpt lat="42.7886064" lon="12.0172908"><ele>234.0</ele><time>2026-05-01T08:49:31.913Z</time></trkpt><trkpt lat="42.7885623" lon="12.0174912"><ele>234.0</ele><time>2026-05-01T08:49:32.913Z</time></trkpt><trkpt lat="42.7885529" lon="12.0177317"><ele>234.33333333333331</ele><time>2026-05-01T08:49:33.913Z</time></trkpt><trkpt lat="42.7885548" lon="12.0179952"><ele>234.66666666666666</ele><time>2026-05-01T08:49:34.912Z</time></trkpt><trkpt lat="42.7885691" lon="12.0182589"><ele>235.0</ele><time>2026-05-01T08:49:35.913Z</time></trkpt><trkpt lat="42.7885799" lon="12.0185266"><ele>234.33333333333331</ele><time>2026-05-01T08:49:36.912Z</time></trkpt><trkpt lat="42.7885902" lon="12.0187793"><ele>233.66666666666669</ele><time>2026-05-01T08:49:37.913Z</time></trkpt><trkpt lat="42.7886099" lon="12.0190177"><ele>233.0</ele><time>2026-05-01T08:49:38.913Z</time></trkpt><trkpt lat="42.7886387" lon="12.0192242"><ele>232.0</ele><time>2026-05-01T08:49:39.913Z</time></trkpt><trkpt lat="42.7887021" lon="12.019414"><ele>231.0</ele><time>2026-05-01T08:49:40.913Z</time></trkpt><trkpt lat="42.7888095" lon="12.0196085"><ele>230.0</ele><time>2026-05-01T08:49:41.912Z</time></trkpt><trkpt lat="42.7889471" lon="12.0198114"><ele>226.33333333333334</ele><time>2026-05-01T08:49:42.913Z</time></trkpt><trkpt lat="42.7890828" lon="12.0200142"><ele>222.66666666666669</ele><time>2026-05-01T08:49:43.913Z</time></trkpt><trkpt lat="42.7892127" lon="12.0202137"><ele>219.0</ele><time>2026-05-01T08:49:44.912Z</time></trkpt><trkpt lat="42.7893235" lon="12.0204266"><ele>217.66666666666669</ele><time>2026-05-01T08:49:45.913Z</time></trkpt><trkpt lat="42.789424" lon="12.0206451"><ele>216.33333333333334</ele><time>2026-05-01T08:49:46.913Z</time></trkpt><trkpt lat="42.7894983" lon="12.0208793"><ele>215.0</ele><time>2026-05-01T08:49:47.913Z</time></trkpt><trkpt lat="42.7895322" lon="12.0211597"><ele>212.66666666666669</ele><time>2026-05-01T08:49:48.913Z</time></trkpt><trkpt lat="42.7895423" lon="12.0214446"><ele>210.33333333333331</ele><time>2026-05-01T08:49:49.913Z</time></trkpt><trkpt lat="42.7895545" lon="12.0217284"><ele>208.0</ele><time>2026-05-01T08:49:50.913Z</time></trkpt><trkpt lat="42.7895763" lon="12.0220098"><ele>207.0</ele><time>2026-05-01T08:49:51.913Z</time></trkpt><trkpt lat="42.7895923" lon="12.0222676"><ele>206.0</ele><time>2026-05-01T08:49:52.912Z</time></trkpt><trkpt lat="42.7896052" lon="12.0224907"><ele>205.0</ele><time>2026-05-01T08:49:53.912Z</time></trkpt><trkpt lat="42.7895918" lon="12.0226815"><ele>205.0</ele><time>2026-05-01T08:49:54.912Z</time></trkpt><trkpt lat="42.7895355" lon="12.0228587"><ele>205.0</ele><time>2026-05-01T08:49:55.913Z</time></trkpt><trkpt lat="42.7894341" lon="12.0230416"><ele>205.0</ele><time>2026-05-01T08:49:56.912Z</time></trkpt><trkpt lat="42.7892996" lon="12.0232071"><ele>204.33333333333331</ele><time>2026-05-01T08:49:57.913Z</time></trkpt><trkpt lat="42.7891446" lon="12.0233449"><ele>203.66666666666669</ele><time>2026-05-01T08:49:58.913Z</time></trkpt><trkpt lat="42.7889999" lon="12.0234467"><ele>203.0</ele><time>2026-05-01T08:49:59.913Z</time></trkpt><trkpt lat="42.7888771" lon="12.0235682"><ele>203.0</ele><time>2026-05-01T08:50:00.912Z</time></trkpt><trkpt lat="42.7887898" lon="12.0237205"><ele>203.0</ele><time>2026-05-01T08:50:01.913Z</time></trkpt><trkpt lat="42.7887176" lon="12.0239093"><ele>203.0</ele><time>2026-05-01T08:50:02.913Z</time></trkpt><trkpt lat="42.7886597" lon="12.0241368"><ele>201.0</ele><time>2026-05-01T08:50:03.913Z</time></trkpt><trkpt lat="42.7886128" lon="12.0243858"><ele>199.0</ele><time>2026-05-01T08:50:04.912Z</time></trkpt><trkpt lat="42.7885625" lon="12.0246435"><ele>197.0</ele><time>2026-05-01T08:50:05.912Z</time></trkpt><trkpt lat="42.7885165" lon="12.0248971"><ele>197.33333333333334</ele><time>2026-05-01T08:50:06.913Z</time></trkpt><trkpt lat="42.7884644" lon="12.0251425"><ele>197.66666666666669</ele><time>2026-05-01T08:50:07.913Z</time></trkpt><trkpt lat="42.7884038" lon="12.0253697"><ele>198.0</ele><time>2026-05-01T08:50:08.913Z</time></trkpt><trkpt lat="42.7883359" lon="12.0255752"><ele>198.0</ele><time>2026-05-01T08:50:09.913Z</time></trkpt><trkpt lat="42.7882609" lon="12.0257548"><ele>198.0</ele><time>2026-05-01T08:50:10.912Z</time></trkpt><trkpt lat="42.7881707" lon="12.0258936"><ele>198.0</ele><time>2026-05-01T08:50:11.913Z</time></trkpt><trkpt lat="42.7880514" lon="12.0259832"><ele>198.0</ele><time>2026-05-01T08:50:12.913Z</time></trkpt><trkpt lat="42.787935" lon="12.0260239"><ele>195.75</ele><time>2026-05-01T08:50:13.913Z</time></trkpt><trkpt lat="42.7878008" lon="12.0260124"><ele>193.5</ele><time>2026-05-01T08:50:14.913Z</time></trkpt><trkpt lat="42.7876718" lon="12.0259717"><ele>191.25</ele><time>2026-05-01T08:50:15.913Z</time></trkpt><trkpt lat="42.7875397" lon="12.0259307"><ele>189.0</ele><time>2026-05-01T08:50:16.913Z</time></trkpt><trkpt lat="42.7874193" lon="12.02591"><ele>187.33333333333334</ele><time>2026-05-01T08:50:17.912Z</time></trkpt><trkpt lat="42.787281" lon="12.025952"><ele>185.66666666666669</ele><time>2026-05-01T08:50:18.913Z</time></trkpt><trkpt lat="42.7871453" lon="12.0260649"><ele>184.0</ele><time>2026-05-01T08:50:19.913Z</time></trkpt><trkpt lat="42.7870165" lon="12.0262108"><ele>184.0</ele><time>2026-05-01T08:50:20.913Z</time></trkpt><trkpt lat="42.7869058" lon="12.026378"><ele>184.0</ele><time>2026-05-01T08:50:21.913Z</time></trkpt><trkpt lat="42.7868056" lon="12.0265764"><ele>184.0</ele><time>2026-05-01T08:50:22.913Z</time></trkpt><trkpt lat="42.7867205" lon="12.0267925"><ele>180.0</ele><time>2026-05-01T08:50:23.913Z</time></trkpt><trkpt lat="42.7866359" lon="12.0270073"><ele>176.0</ele><time>2026-05-01T08:50:24.913Z</time></trkpt><trkpt lat="42.7865622" lon="12.0272187"><ele>172.0</ele><time>2026-05-01T08:50:25.913Z</time></trkpt><trkpt lat="42.786481" lon="12.0274132"><ele>171.66666666666669</ele><time>2026-05-01T08:50:26.913Z</time></trkpt><trkpt lat="42.7863575" lon="12.0275648"><ele>171.33333333333334</ele><time>2026-05-01T08:50:27.913Z</time></trkpt><trkpt lat="42.7862008" lon="12.027684"><ele>171.0</ele><time>2026-05-01T08:50:28.913Z</time></trkpt><trkpt lat="42.7860632" lon="12.0277726"><ele>169.25</ele><time>2026-05-01T08:50:29.912Z</time></trkpt><trkpt lat="42.7859385" lon="12.0278404"><ele>167.5</ele><time>2026-05-01T08:50:30.912Z</time></trkpt><trkpt lat="42.7858259" lon="12.0279306"><ele>165.75</ele><time>2026-05-01T08:50:31.913Z</time></trkpt><trkpt lat="42.7857425" lon="12.02805"><ele>164.0</ele><time>2026-05-01T08:50:32.912Z</time></trkpt><trkpt lat="42.7856903" lon="12.0281975"><ele>164.79999999999998</ele><time>2026-05-01T08:50:33.913Z</time></trkpt><trkpt lat="42.7856922" lon="12.0283614"><ele>165.6</ele><time>2026-05-01T08:50:34.913Z</time></trkpt><trkpt lat="42.7857119" lon="12.028492"><ele>166.4</ele><time>2026-05-01T08:50:35.913Z</time></trkpt><trkpt lat="42.7857345" lon="12.0286226"><ele>167.2</ele><time>2026-05-01T08:50:36.913Z</time></trkpt><trkpt lat="42.7857693" lon="12.0287626"><ele>168.0</ele><time>2026-05-01T08:50:37.912Z</time></trkpt><trkpt lat="42.7858057" lon="12.0288973"><ele>168.0</ele><time>2026-05-01T08:50:38.913Z</time></trkpt><trkpt lat="42.7858385" lon="12.0290205"><ele>168.0</ele><time>2026-05-01T08:50:39.913Z</time></trkpt><trkpt lat="42.7858746" lon="12.029124"><ele>168.0</ele><time>2026-05-01T08:50:40.913Z</time></trkpt><trkpt lat="42.7859036" lon="12.0292236"><ele>168.0</ele><time>2026-05-01T08:50:41.913Z</time></trkpt><trkpt lat="42.7859207" lon="12.02932"><ele>168.0</ele><time>2026-05-01T08:50:42.913Z</time></trkpt><trkpt lat="42.7859106" lon="12.0294266"><ele>168.0</ele><time>2026-05-01T08:50:43.913Z</time></trkpt><trkpt lat="42.7858909" lon="12.0295385"><ele>168.2</ele><time>2026-05-01T08:50:44.913Z</time></trkpt><trkpt lat="42.7858954" lon="12.0296483"><ele>168.4</ele><time>2026-05-01T08:50:45.913Z</time></trkpt><trkpt lat="42.7859424" lon="12.0297391"><ele>168.6</ele><time>2026-05-01T08:50:46.912Z</time></trkpt><trkpt lat="42.7860124" lon="12.0298229"><ele>168.79999999999998</ele><time>2026-05-01T08:50:47.913Z</time></trkpt><trkpt lat="42.7860729" lon="12.0299379"><ele>169.0</ele><time>2026-05-01T08:50:48.913Z</time></trkpt><trkpt lat="42.7860861" lon="12.0300772"><ele>169.0</ele><time>2026-05-01T08:50:49.912Z</time></trkpt><trkpt lat="42.7860684" lon="12.0302445"><ele>169.0</ele><time>2026-05-01T08:50:50.913Z</time></trkpt><trkpt lat="42.7860258" lon="12.0304189"><ele>169.0</ele><time>2026-05-01T08:50:51.912Z</time></trkpt><trkpt lat="42.7859753" lon="12.0305895"><ele>169.0</ele><time>2026-05-01T08:50:52.912Z</time></trkpt><trkpt lat="42.7859277" lon="12.0307564"><ele>168.75</ele><time>2026-05-01T08:50:53.912Z</time></trkpt><trkpt lat="42.7858734" lon="12.0309109"><ele>168.5</ele><time>2026-05-01T08:50:54.913Z</time></trkpt><trkpt lat="42.7858267" lon="12.0310778"><ele>168.25</ele><time>2026-05-01T08:50:55.913Z</time></trkpt><trkpt lat="42.7857734" lon="12.0312376"><ele>168.0</ele><time>2026-05-01T08:50:56.913Z</time></trkpt><trkpt lat="42.7856982" lon="12.031383"><ele>168.0</ele><time>2026-05-01T08:50:57.913Z</time></trkpt><trkpt lat="42.7856043" lon="12.0315194"><ele>168.0</ele><time>2026-05-01T08:50:58.912Z</time></trkpt><trkpt lat="42.7855086" lon="12.0316592"><ele>168.0</ele><time>2026-05-01T08:50:59.912Z</time></trkpt><trkpt lat="42.7854106" lon="12.0317985"><ele>168.0</ele><time>2026-05-01T08:51:00.912Z</time></trkpt><trkpt lat="42.7853194" lon="12.031937"><ele>167.75</ele><time>2026-05-01T08:51:01.913Z</time></trkpt><trkpt lat="42.7852375" lon="12.032091"><ele>167.5</ele><time>2026-05-01T08:51:02.913Z</time></trkpt><trkpt lat="42.78516" lon="12.0322481"><ele>167.25</ele><time>2026-05-01T08:51:03.913Z</time></trkpt><trkpt lat="42.7850778" lon="12.0324218"><ele>167.0</ele><time>2026-05-01T08:51:04.912Z</time></trkpt><trkpt lat="42.7849909" lon="12.0325937"><ele>166.75</ele><time>2026-05-01T08:51:05.913Z</time></trkpt><trkpt lat="42.7849004" lon="12.0327731"><ele>166.5</ele><time>2026-05-01T08:51:06.913Z</time></trkpt><trkpt lat="42.7848191" lon="12.032942"><ele>166.25</ele><time>2026-05-01T08:51:07.913Z</time></trkpt><trkpt lat="42.7847443" lon="12.0330996"><ele>166.0</ele><time>2026-05-01T08:51:08.913Z</time></trkpt><trkpt lat="42.7846778" lon="12.0332433"><ele>165.8</ele><time>2026-05-01T08:51:09.913Z</time></trkpt><trkpt lat="42.7846243" lon="12.0333775"><ele>165.60000000000002</ele><time>2026-05-01T08:51:10.912Z</time></trkpt><trkpt lat="42.7845674" lon="12.0335044"><ele>165.4</ele><time>2026-05-01T08:51:11.913Z</time></trkpt><trkpt lat="42.7845149" lon="12.0336239"><ele>165.2</ele><time>2026-05-01T08:51:12.913Z</time></trkpt><trkpt lat="42.784461" lon="12.0337398"><ele>165.0</ele><time>2026-05-01T08:51:13.913Z</time></trkpt><trkpt lat="42.7844054" lon="12.0338576"><ele>165.0</ele><time>2026-05-01T08:51:14.913Z</time></trkpt><trkpt lat="42.7843531" lon="12.0339751"><ele>165.0</ele><time>2026-05-01T08:51:15.913Z</time></trkpt><trkpt lat="42.7842968" lon="12.0340985"><ele>165.0</ele><time>2026-05-01T08:51:16.912Z</time></trkpt><trkpt lat="42.7842319" lon="12.0342114"><ele>165.0</ele><time>2026-05-01T08:51:17.913Z</time></trkpt><trkpt lat="42.7841799" lon="12.0343337"><ele>165.0</ele><time>2026-05-01T08:51:18.912Z</time></trkpt><trkpt lat="42.784121" lon="12.0344537"><ele>165.0</ele><time>2026-05-01T08:51:19.913Z</time></trkpt><trkpt lat="42.7840723" lon="12.0345792"><ele>165.0</ele><time>2026-05-01T08:51:20.913Z</time></trkpt><trkpt lat="42.7840237" lon="12.0346969"><ele>165.0</ele><time>2026-05-01T08:51:21.913Z</time></trkpt><trkpt lat="42.7839633" lon="12.0348105"><ele>165.0</ele><time>2026-05-01T08:51:22.913Z</time></trkpt><trkpt lat="42.783921" lon="12.0349139"><ele>165.0</ele><time>2026-05-01T08:51:23.912Z</time></trkpt><trkpt lat="42.7838723" lon="12.0350216"><ele>165.2</ele><time>2026-05-01T08:51:24.913Z</time></trkpt><trkpt lat="42.7838239" lon="12.0351246"><ele>165.4</ele><time>2026-05-01T08:51:25.913Z</time></trkpt><trkpt lat="42.7837719" lon="12.0352491"><ele>165.60000000000002</ele><time>2026-05-01T08:51:26.913Z</time></trkpt><trkpt lat="42.7837184" lon="12.035371"><ele>165.8</ele><time>2026-05-01T08:51:27.913Z</time></trkpt><trkpt lat="42.7836614" lon="12.0354866"><ele>166.0</ele><time>2026-05-01T08:51:28.913Z</time></trkpt><trkpt lat="42.7836107" lon="12.0356023"><ele>166.0</ele><time>2026-05-01T08:51:29.914Z</time></trkpt><trkpt lat="42.7835559" lon="12.0357073"><ele>166.0</ele><time>2026-05-01T08:51:30.914Z</time></trkpt><trkpt lat="42.7835096" lon="12.035822"><ele>166.0</ele><time>2026-05-01T08:51:31.914Z</time></trkpt><trkpt lat="42.7834584" lon="12.0359352"><ele>166.0</ele><time>2026-05-01T08:51:32.914Z</time></trkpt><trkpt lat="42.7834093" lon="12.0360623"><ele>166.0</ele><time>2026-05-01T08:51:33.914Z</time></trkpt><trkpt lat="42.7833533" lon="12.0361909"><ele>165.4</ele><time>2026-05-01T08:51:34.914Z</time></trkpt><trkpt lat="42.7833053" lon="12.0363231"><ele>164.8</ele><time>2026-05-01T08:51:35.914Z</time></trkpt><trkpt lat="42.7832679" lon="12.0364587"><ele>164.20000000000002</ele><time>2026-05-01T08:51:36.913Z</time></trkpt><trkpt lat="42.7832351" lon="12.0365846"><ele>163.60000000000002</ele><time>2026-05-01T08:51:37.913Z</time></trkpt><trkpt lat="42.7832225" lon="12.0366989"><ele>163.0</ele><time>2026-05-01T08:51:38.913Z</time></trkpt><trkpt lat="42.7832001" lon="12.0367821"><ele>163.0</ele><time>2026-05-01T08:51:39.913Z</time></trkpt><trkpt lat="42.7831072" lon="12.0368336"><ele>163.0</ele><time>2026-05-01T08:51:41.914Z</time></trkpt><trkpt lat="42.7830362" lon="12.0367922"><ele>163.0</ele><time>2026-05-01T08:51:42.913Z</time></trkpt><trkpt lat="42.7829362" lon="12.0367345"><ele>163.0</ele><time>2026-05-01T08:51:43.914Z</time></trkpt><trkpt lat="42.7828238" lon="12.0366706"><ele>163.0</ele><time>2026-05-01T08:51:44.914Z</time></trkpt><trkpt lat="42.7826925" lon="12.0366046"><ele>161.66666666666669</ele><time>2026-05-01T08:51:45.914Z</time></trkpt><trkpt lat="42.782551" lon="12.036528"><ele>160.33333333333334</ele><time>2026-05-01T08:51:46.914Z</time></trkpt><trkpt lat="42.7823992" lon="12.0364409"><ele>159.0</ele><time>2026-05-01T08:51:47.913Z</time></trkpt><trkpt lat="42.7822515" lon="12.036363"><ele>159.0</ele><time>2026-05-01T08:51:48.914Z</time></trkpt><trkpt lat="42.7820991" lon="12.0362753"><ele>159.0</ele><time>2026-05-01T08:51:49.913Z</time></trkpt><trkpt lat="42.7819504" lon="12.0361762"><ele>159.0</ele><time>2026-05-01T08:51:50.914Z</time></trkpt><trkpt lat="42.7817955" lon="12.0360718"><ele>158.66666666666666</ele><time>2026-05-01T08:51:51.913Z</time></trkpt><trkpt lat="42.7816437" lon="12.0359641"><ele>158.33333333333331</ele><time>2026-05-01T08:51:52.914Z</time></trkpt><trkpt lat="42.7814853" lon="12.03588"><ele>158.0</ele><time>2026-05-01T08:51:53.914Z</time></trkpt><trkpt lat="42.7813184" lon="12.0357755"><ele>158.0</ele><time>2026-05-01T08:51:54.913Z</time></trkpt><trkpt lat="42.7811568" lon="12.0356847"><ele>158.0</ele><time>2026-05-01T08:51:55.914Z</time></trkpt><trkpt lat="42.780989" lon="12.0355909"><ele>158.0</ele><time>2026-05-01T08:51:56.914Z</time></trkpt><trkpt lat="42.780826" lon="12.035487"><ele>157.66666666666666</ele><time>2026-05-01T08:51:57.914Z</time></trkpt><trkpt lat="42.7806602" lon="12.0353735"><ele>157.33333333333334</ele><time>2026-05-01T08:51:58.914Z</time></trkpt><trkpt lat="42.7804816" lon="12.0352563"><ele>157.0</ele><time>2026-05-01T08:51:59.913Z</time></trkpt><trkpt lat="42.7803106" lon="12.035159"><ele>157.33333333333334</ele><time>2026-05-01T08:52:00.913Z</time></trkpt><trkpt lat="42.7801418" lon="12.0350551"><ele>157.66666666666666</ele><time>2026-05-01T08:52:01.914Z</time></trkpt><trkpt lat="42.7799819" lon="12.0349531"><ele>158.0</ele><time>2026-05-01T08:52:02.914Z</time></trkpt><trkpt lat="42.7798265" lon="12.0348484"><ele>158.0</ele><time>2026-05-01T08:52:03.914Z</time></trkpt><trkpt lat="42.7796711" lon="12.034748"><ele>158.0</ele><time>2026-05-01T08:52:04.913Z</time></trkpt><trkpt lat="42.7795238" lon="12.0346537"><ele>158.0</ele><time>2026-05-01T08:52:05.913Z</time></trkpt><trkpt lat="42.7793899" lon="12.034575"><ele>158.0</ele><time>2026-05-01T08:52:06.913Z</time></trkpt><trkpt lat="42.7792544" lon="12.0345003"><ele>158.0</ele><time>2026-05-01T08:52:07.914Z</time></trkpt><trkpt lat="42.7791093" lon="12.0344832"><ele>158.0</ele><time>2026-05-01T08:52:08.914Z</time></trkpt><trkpt lat="42.7789635" lon="12.0345057"><ele>158.0</ele><time>2026-05-01T08:52:09.914Z</time></trkpt><trkpt lat="42.7788223" lon="12.0345493"><ele>158.0</ele><time>2026-05-01T08:52:10.914Z</time></trkpt><trkpt lat="42.7786852" lon="12.0346305"><ele>158.0</ele><time>2026-05-01T08:52:11.914Z</time></trkpt><trkpt lat="42.778559" lon="12.0347225"><ele>158.0</ele><time>2026-05-01T08:52:12.914Z</time></trkpt><trkpt lat="42.7784579" lon="12.0348051"><ele>158.0</ele><time>2026-05-01T08:52:13.914Z</time></trkpt><trkpt lat="42.7783404" lon="12.0348418"><ele>157.75</ele><time>2026-05-01T08:52:14.914Z</time></trkpt><trkpt lat="42.7782277" lon="12.0348455"><ele>157.5</ele><time>2026-05-01T08:52:15.914Z</time></trkpt><trkpt lat="42.7781024" lon="12.034807"><ele>157.25</ele><time>2026-05-01T08:52:16.914Z</time></trkpt><trkpt lat="42.7779778" lon="12.0347294"><ele>157.0</ele><time>2026-05-01T08:52:17.913Z</time></trkpt><trkpt lat="42.777833" lon="12.0346385"><ele>155.66666666666669</ele><time>2026-05-01T08:52:18.914Z</time></trkpt><trkpt lat="42.7776847" lon="12.0345405"><ele>154.33333333333334</ele><time>2026-05-01T08:52:19.913Z</time></trkpt><trkpt lat="42.777537" lon="12.0344391"><ele>153.0</ele><time>2026-05-01T08:52:20.913Z</time></trkpt><trkpt lat="42.7773822" lon="12.0343416"><ele>153.0</ele><time>2026-05-01T08:52:21.914Z</time></trkpt><trkpt lat="42.7772048" lon="12.0342192"><ele>153.0</ele><time>2026-05-01T08:52:22.914Z</time></trkpt><trkpt lat="42.7770102" lon="12.0340907"><ele>153.0</ele><time>2026-05-01T08:52:23.914Z</time></trkpt><trkpt lat="42.7767957" lon="12.0339553"><ele>152.0</ele><time>2026-05-01T08:52:24.914Z</time></trkpt><trkpt lat="42.7765951" lon="12.0338202"><ele>151.0</ele><time>2026-05-01T08:52:25.914Z</time></trkpt><trkpt lat="42.7763931" lon="12.0336889"><ele>150.0</ele><time>2026-05-01T08:52:26.913Z</time></trkpt><trkpt lat="42.7761941" lon="12.0335838"><ele>150.66666666666666</ele><time>2026-05-01T08:52:27.914Z</time></trkpt><trkpt lat="42.7759978" lon="12.0335214"><ele>151.33333333333331</ele><time>2026-05-01T08:52:28.914Z</time></trkpt><trkpt lat="42.7758018" lon="12.0335198"><ele>152.0</ele><time>2026-05-01T08:52:29.913Z</time></trkpt><trkpt lat="42.7756026" lon="12.0335707"><ele>152.0</ele><time>2026-05-01T08:52:30.914Z</time></trkpt><trkpt lat="42.7753692" lon="12.0336669"><ele>152.0</ele><time>2026-05-01T08:52:31.914Z</time></trkpt><trkpt lat="42.7751191" lon="12.0337874"><ele>152.5</ele><time>2026-05-01T08:52:32.914Z</time></trkpt><trkpt lat="42.7748582" lon="12.0338991"><ele>153.0</ele><time>2026-05-01T08:52:33.914Z</time></trkpt><trkpt lat="42.774614" lon="12.0340018"><ele>153.0</ele><time>2026-05-01T08:52:34.914Z</time></trkpt><trkpt lat="42.7743678" lon="12.0340883"><ele>153.0</ele><time>2026-05-01T08:52:35.914Z</time></trkpt><trkpt lat="42.7741524" lon="12.0341805"><ele>152.66666666666666</ele><time>2026-05-01T08:52:36.914Z</time></trkpt><trkpt lat="42.773953" lon="12.0342702"><ele>152.33333333333331</ele><time>2026-05-01T08:52:37.914Z</time></trkpt><trkpt lat="42.7737622" lon="12.0343496"><ele>152.0</ele><time>2026-05-01T08:52:38.914Z</time></trkpt><trkpt lat="42.7735635" lon="12.0344124"><ele>152.66666666666666</ele><time>2026-05-01T08:52:39.914Z</time></trkpt><trkpt lat="42.7733698" lon="12.0344505"><ele>153.33333333333334</ele><time>2026-05-01T08:52:40.914Z</time></trkpt><trkpt lat="42.7731832" lon="12.0344384"><ele>154.0</ele><time>2026-05-01T08:52:41.913Z</time></trkpt><trkpt lat="42.7729907" lon="12.0344198"><ele>154.0</ele><time>2026-05-01T08:52:42.914Z</time></trkpt><trkpt lat="42.7727878" lon="12.0343735"><ele>154.0</ele><time>2026-05-01T08:52:43.914Z</time></trkpt><trkpt lat="42.7725679" lon="12.0343025"><ele>154.0</ele><time>2026-05-01T08:52:44.914Z</time></trkpt><trkpt lat="42.7723431" lon="12.0342385"><ele>154.0</ele><time>2026-05-01T08:52:45.914Z</time></trkpt><trkpt lat="42.7721175" lon="12.0341882"><ele>154.0</ele><time>2026-05-01T08:52:46.914Z</time></trkpt><trkpt lat="42.7718951" lon="12.0341377"><ele>157.0</ele><time>2026-05-01T08:52:47.914Z</time></trkpt><trkpt lat="42.7716744" lon="12.0340743"><ele>160.0</ele><time>2026-05-01T08:52:48.913Z</time></trkpt><trkpt lat="42.7714532" lon="12.0340187"><ele>160.0</ele><time>2026-05-01T08:52:49.914Z</time></trkpt><trkpt lat="42.7712322" lon="12.0339757"><ele>160.0</ele><time>2026-05-01T08:52:50.914Z</time></trkpt><trkpt lat="42.7710046" lon="12.0339447"><ele>165.5</ele><time>2026-05-01T08:52:51.914Z</time></trkpt><trkpt lat="42.7707645" lon="12.0339294"><ele>171.0</ele><time>2026-05-01T08:52:52.913Z</time></trkpt><trkpt lat="42.7705215" lon="12.0339493"><ele>171.0</ele><time>2026-05-01T08:52:53.913Z</time></trkpt><trkpt lat="42.7702862" lon="12.0339862"><ele>171.0</ele><time>2026-05-01T08:52:54.914Z</time></trkpt><trkpt lat="42.7700595" lon="12.0340255"><ele>169.0</ele><time>2026-05-01T08:52:55.913Z</time></trkpt><trkpt lat="42.76986" lon="12.0340593"><ele>167.0</ele><time>2026-05-01T08:52:56.914Z</time></trkpt><trkpt lat="42.7696968" lon="12.034112"><ele>165.0</ele><time>2026-05-01T08:52:57.913Z</time></trkpt><trkpt lat="42.7695493" lon="12.0341873"><ele>165.0</ele><time>2026-05-01T08:52:58.914Z</time></trkpt><trkpt lat="42.7694031" lon="12.0342838"><ele>165.0</ele><time>2026-05-01T08:52:59.914Z</time></trkpt><trkpt lat="42.7692398" lon="12.0344067"><ele>165.0</ele><time>2026-05-01T08:53:00.914Z</time></trkpt><trkpt lat="42.7690726" lon="12.0345289"><ele>168.66666666666666</ele><time>2026-05-01T08:53:01.913Z</time></trkpt><trkpt lat="42.7688959" lon="12.0346638"><ele>172.33333333333331</ele><time>2026-05-01T08:53:02.914Z</time></trkpt><trkpt lat="42.7687352" lon="12.0347985"><ele>176.0</ele><time>2026-05-01T08:53:03.914Z</time></trkpt><trkpt lat="42.7686161" lon="12.0349457"><ele>175.4</ele><time>2026-05-01T08:53:04.913Z</time></trkpt><trkpt lat="42.7685307" lon="12.0350698"><ele>174.8</ele><time>2026-05-01T08:53:05.914Z</time></trkpt><trkpt lat="42.768457" lon="12.035152"><ele>174.20000000000002</ele><time>2026-05-01T08:53:06.914Z</time></trkpt><trkpt lat="42.7683596" lon="12.0352038"><ele>173.60000000000002</ele><time>2026-05-01T08:53:08.914Z</time></trkpt><trkpt lat="42.7683029" lon="12.0351663"><ele>173.0</ele><time>2026-05-01T08:53:10.913Z</time></trkpt><trkpt lat="42.7681774" lon="12.0352126"><ele>173.0</ele><time>2026-05-01T08:53:16.914Z</time></trkpt><trkpt lat="42.7681074" lon="12.0353075"><ele>173.0</ele><time>2026-05-01T08:53:17.913Z</time></trkpt><trkpt lat="42.7680322" lon="12.0354443"><ele>173.0</ele><time>2026-05-01T08:53:18.914Z</time></trkpt><trkpt lat="42.7679679" lon="12.0356212"><ele>173.0</ele><time>2026-05-01T08:53:19.914Z</time></trkpt><trkpt lat="42.7679073" lon="12.0358171"><ele>173.66666666666666</ele><time>2026-05-01T08:53:20.913Z</time></trkpt><trkpt lat="42.7678351" lon="12.0360096"><ele>174.33333333333334</ele><time>2026-05-01T08:53:21.914Z</time></trkpt><trkpt lat="42.7677617" lon="12.036206"><ele>175.0</ele><time>2026-05-01T08:53:22.914Z</time></trkpt><trkpt lat="42.7676877" lon="12.0364026"><ele>175.0</ele><time>2026-05-01T08:53:23.914Z</time></trkpt><trkpt lat="42.7676147" lon="12.0366231"><ele>175.0</ele><time>2026-05-01T08:53:24.914Z</time></trkpt><trkpt lat="42.7675427" lon="12.0368569"><ele>175.0</ele><time>2026-05-01T08:53:25.914Z</time></trkpt><trkpt lat="42.7674629" lon="12.0370955"><ele>172.66666666666669</ele><time>2026-05-01T08:53:26.914Z</time></trkpt><trkpt lat="42.7673817" lon="12.0373264"><ele>170.33333333333334</ele><time>2026-05-01T08:53:27.913Z</time></trkpt><trkpt lat="42.7672979" lon="12.0375754"><ele>168.0</ele><time>2026-05-01T08:53:28.914Z</time></trkpt><trkpt lat="42.7672213" lon="12.0378328"><ele>166.66666666666666</ele><time>2026-05-01T08:53:29.914Z</time></trkpt><trkpt lat="42.7671558" lon="12.0380914"><ele>165.33333333333331</ele><time>2026-05-01T08:53:30.914Z</time></trkpt><trkpt lat="42.7670836" lon="12.0383423"><ele>164.0</ele><time>2026-05-01T08:53:31.914Z</time></trkpt><trkpt lat="42.7670205" lon="12.0385964"><ele>163.66666666666666</ele><time>2026-05-01T08:53:32.914Z</time></trkpt><trkpt lat="42.7669437" lon="12.0388546"><ele>163.33333333333334</ele><time>2026-05-01T08:53:33.913Z</time></trkpt><trkpt lat="42.7668675" lon="12.0391122"><ele>163.0</ele><time>2026-05-01T08:53:34.913Z</time></trkpt><trkpt lat="42.7667952" lon="12.0393764"><ele>163.0</ele><time>2026-05-01T08:53:35.914Z</time></trkpt><trkpt lat="42.7667214" lon="12.0396386"><ele>163.0</ele><time>2026-05-01T08:53:36.914Z</time></trkpt><trkpt lat="42.7666422" lon="12.0398979"><ele>163.0</ele><time>2026-05-01T08:53:37.914Z</time></trkpt><trkpt lat="42.766558" lon="12.0401612"><ele>163.0</ele><time>2026-05-01T08:53:38.913Z</time></trkpt><trkpt lat="42.7664753" lon="12.0404274"><ele>163.0</ele><time>2026-05-01T08:53:39.913Z</time></trkpt><trkpt lat="42.7664009" lon="12.0407048"><ele>163.0</ele><time>2026-05-01T08:53:40.913Z</time></trkpt><trkpt lat="42.7663157" lon="12.0409843"><ele>161.0</ele><time>2026-05-01T08:53:41.914Z</time></trkpt><trkpt lat="42.7662398" lon="12.0412707"><ele>159.0</ele><time>2026-05-01T08:53:42.914Z</time></trkpt><trkpt lat="42.7661556" lon="12.0415682"><ele>159.5</ele><time>2026-05-01T08:53:43.914Z</time></trkpt><trkpt lat="42.7660832" lon="12.0418787"><ele>160.0</ele><time>2026-05-01T08:53:44.914Z</time></trkpt><trkpt lat="42.7660001" lon="12.0421869"><ele>158.0</ele><time>2026-05-01T08:53:45.913Z</time></trkpt><trkpt lat="42.7659211" lon="12.0424993"><ele>156.0</ele><time>2026-05-01T08:53:46.914Z</time></trkpt><trkpt lat="42.765839" lon="12.0428363"><ele>156.0</ele><time>2026-05-01T08:53:47.914Z</time></trkpt><trkpt lat="42.7657574" lon="12.0431711"><ele>156.0</ele><time>2026-05-01T08:53:48.913Z</time></trkpt><trkpt lat="42.7656646" lon="12.0435103"><ele>155.0</ele><time>2026-05-01T08:53:49.913Z</time></trkpt><trkpt lat="42.7655869" lon="12.0438438"><ele>154.0</ele><time>2026-05-01T08:53:50.913Z</time></trkpt><trkpt lat="42.7655085" lon="12.0441695"><ele>153.5</ele><time>2026-05-01T08:53:51.914Z</time></trkpt><trkpt lat="42.7654243" lon="12.0444952"><ele>153.0</ele><time>2026-05-01T08:53:52.914Z</time></trkpt><trkpt lat="42.7653458" lon="12.0448176"><ele>151.5</ele><time>2026-05-01T08:53:53.914Z</time></trkpt><trkpt lat="42.7652635" lon="12.0451389"><ele>150.0</ele><time>2026-05-01T08:53:54.913Z</time></trkpt><trkpt lat="42.7651759" lon="12.045459"><ele>152.0</ele><time>2026-05-01T08:53:55.914Z</time></trkpt><trkpt lat="42.7650876" lon="12.0457918"><ele>154.0</ele><time>2026-05-01T08:53:56.914Z</time></trkpt><trkpt lat="42.7650037" lon="12.0461286"><ele>154.0</ele><time>2026-05-01T08:53:57.914Z</time></trkpt><trkpt lat="42.7649249" lon="12.0464795"><ele>154.0</ele><time>2026-05-01T08:53:58.913Z</time></trkpt><trkpt lat="42.7648383" lon="12.046823"><ele>152.5</ele><time>2026-05-01T08:53:59.914Z</time></trkpt><trkpt lat="42.7647529" lon="12.0471581"><ele>151.0</ele><time>2026-05-01T08:54:00.914Z</time></trkpt><trkpt lat="42.764669" lon="12.0474923"><ele>150.0</ele><time>2026-05-01T08:54:01.914Z</time></trkpt><trkpt lat="42.7645875" lon="12.047835"><ele>149.0</ele><time>2026-05-01T08:54:02.914Z</time></trkpt><trkpt lat="42.7645094" lon="12.0481631"><ele>149.0</ele><time>2026-05-01T08:54:03.913Z</time></trkpt><trkpt lat="42.764421" lon="12.0484804"><ele>149.0</ele><time>2026-05-01T08:54:04.914Z</time></trkpt><trkpt lat="42.7643444" lon="12.0487894"><ele>149.5</ele><time>2026-05-01T08:54:05.914Z</time></trkpt><trkpt lat="42.7642665" lon="12.0490926"><ele>150.0</ele><time>2026-05-01T08:54:06.913Z</time></trkpt><trkpt lat="42.764177" lon="12.0494075"><ele>150.0</ele><time>2026-05-01T08:54:07.914Z</time></trkpt><trkpt lat="42.7640686" lon="12.049735"><ele>150.0</ele><time>2026-05-01T08:54:08.914Z</time></trkpt><trkpt lat="42.7639249" lon="12.0500467"><ele>149.5</ele><time>2026-05-01T08:54:09.913Z</time></trkpt><trkpt lat="42.7637574" lon="12.0503376"><ele>149.0</ele><time>2026-05-01T08:54:10.913Z</time></trkpt><trkpt lat="42.7635705" lon="12.0506027"><ele>149.5</ele><time>2026-05-01T08:54:11.913Z</time></trkpt><trkpt lat="42.7633695" lon="12.050854"><ele>150.0</ele><time>2026-05-01T08:54:12.914Z</time></trkpt><trkpt lat="42.7631617" lon="12.0510977"><ele>150.0</ele><time>2026-05-01T08:54:13.914Z</time></trkpt><trkpt lat="42.7629612" lon="12.0513589"><ele>150.0</ele><time>2026-05-01T08:54:14.914Z</time></trkpt><trkpt lat="42.7627632" lon="12.0516175"><ele>149.0</ele><time>2026-05-01T08:54:15.914Z</time></trkpt><trkpt lat="42.7625573" lon="12.0518742"><ele>148.0</ele><time>2026-05-01T08:54:16.914Z</time></trkpt><trkpt lat="42.7623659" lon="12.0521408"><ele>148.0</ele><time>2026-05-01T08:54:17.914Z</time></trkpt><trkpt lat="42.7621714" lon="12.0524076"><ele>148.0</ele><time>2026-05-01T08:54:18.914Z</time></trkpt><trkpt lat="42.7619832" lon="12.0526701"><ele>147.0</ele><time>2026-05-01T08:54:19.914Z</time></trkpt><trkpt lat="42.7617987" lon="12.0529359"><ele>146.0</ele><time>2026-05-01T08:54:20.914Z</time></trkpt><trkpt lat="42.7616165" lon="12.0532037"><ele>146.5</ele><time>2026-05-01T08:54:21.914Z</time></trkpt><trkpt lat="42.7614364" lon="12.0534762"><ele>147.0</ele><time>2026-05-01T08:54:22.914Z</time></trkpt><trkpt lat="42.761258" lon="12.0537487"><ele>147.0</ele><time>2026-05-01T08:54:23.913Z</time></trkpt><trkpt lat="42.7610788" lon="12.0540227"><ele>147.0</ele><time>2026-05-01T08:54:24.913Z</time></trkpt><trkpt lat="42.7609035" lon="12.0543081"><ele>148.0</ele><time>2026-05-01T08:54:25.913Z</time></trkpt><trkpt lat="42.7607337" lon="12.054592"><ele>149.0</ele><time>2026-05-01T08:54:26.914Z</time></trkpt><trkpt lat="42.7605613" lon="12.0548806"><ele>148.0</ele><time>2026-05-01T08:54:27.914Z</time></trkpt><trkpt lat="42.7604003" lon="12.0551796"><ele>147.0</ele><time>2026-05-01T08:54:28.914Z</time></trkpt><trkpt lat="42.760233" lon="12.0554729"><ele>148.0</ele><time>2026-05-01T08:54:29.914Z</time></trkpt><trkpt lat="42.7600662" lon="12.0557834"><ele>149.0</ele><time>2026-05-01T08:54:30.913Z</time></trkpt><trkpt lat="42.7599001" lon="12.0560919"><ele>149.0</ele><time>2026-05-01T08:54:31.913Z</time></trkpt><trkpt lat="42.759733" lon="12.0564186"><ele>149.0</ele><time>2026-05-01T08:54:32.914Z</time></trkpt><trkpt lat="42.7595652" lon="12.0567397"><ele>149.0</ele><time>2026-05-01T08:54:33.913Z</time></trkpt><trkpt lat="42.7594033" lon="12.0570723"><ele>149.0</ele><time>2026-05-01T08:54:34.914Z</time></trkpt><trkpt lat="42.7592377" lon="12.0574027"><ele>149.0</ele><time>2026-05-01T08:54:35.913Z</time></trkpt><trkpt lat="42.7590761" lon="12.0577237"><ele>149.0</ele><time>2026-05-01T08:54:36.913Z</time></trkpt><trkpt lat="42.7589232" lon="12.0580417"><ele>149.0</ele><time>2026-05-01T08:54:37.914Z</time></trkpt><trkpt lat="42.7587743" lon="12.0583556"><ele>149.0</ele><time>2026-05-01T08:54:38.914Z</time></trkpt><trkpt lat="42.7586271" lon="12.0586582"><ele>151.0</ele><time>2026-05-01T08:54:39.914Z</time></trkpt><trkpt lat="42.7584871" lon="12.0589513"><ele>153.0</ele><time>2026-05-01T08:54:40.913Z</time></trkpt><trkpt lat="42.7583491" lon="12.0592453"><ele>153.0</ele><time>2026-05-01T08:54:41.914Z</time></trkpt><trkpt lat="42.758218" lon="12.0595354"><ele>153.0</ele><time>2026-05-01T08:54:42.914Z</time></trkpt><trkpt lat="42.7580833" lon="12.0598191"><ele>151.0</ele><time>2026-05-01T08:54:43.914Z</time></trkpt><trkpt lat="42.7579347" lon="12.0601014"><ele>149.0</ele><time>2026-05-01T08:54:44.914Z</time></trkpt><trkpt lat="42.7577788" lon="12.0603631"><ele>152.0</ele><time>2026-05-01T08:54:45.913Z</time></trkpt><trkpt lat="42.7576093" lon="12.0606036"><ele>155.0</ele><time>2026-05-01T08:54:46.914Z</time></trkpt><trkpt lat="42.7574275" lon="12.0608372"><ele>155.0</ele><time>2026-05-01T08:54:47.914Z</time></trkpt><trkpt lat="42.7572238" lon="12.0610517"><ele>155.0</ele><time>2026-05-01T08:54:48.913Z</time></trkpt><trkpt lat="42.7570419" lon="12.0612694"><ele>158.0</ele><time>2026-05-01T08:54:49.914Z</time></trkpt><trkpt lat="42.7568686" lon="12.0614834"><ele>161.0</ele><time>2026-05-01T08:54:50.914Z</time></trkpt><trkpt lat="42.7567012" lon="12.0616805"><ele>161.0</ele><time>2026-05-01T08:54:51.914Z</time></trkpt><trkpt lat="42.7565343" lon="12.0618695"><ele>161.0</ele><time>2026-05-01T08:54:52.913Z</time></trkpt><trkpt lat="42.7563776" lon="12.0620745"><ele>161.0</ele><time>2026-05-01T08:54:53.913Z</time></trkpt><trkpt lat="42.7562264" lon="12.062291"><ele>161.0</ele><time>2026-05-01T08:54:54.914Z</time></trkpt><trkpt lat="42.7560622" lon="12.0624828"><ele>161.0</ele><time>2026-05-01T08:54:55.914Z</time></trkpt><trkpt lat="42.7559052" lon="12.0626815"><ele>161.0</ele><time>2026-05-01T08:54:56.914Z</time></trkpt><trkpt lat="42.7557432" lon="12.0628852"><ele>161.0</ele><time>2026-05-01T08:54:57.914Z</time></trkpt><trkpt lat="42.7555864" lon="12.0630956"><ele>161.0</ele><time>2026-05-01T08:54:58.914Z</time></trkpt><trkpt lat="42.7554196" lon="12.0633006"><ele>161.0</ele><time>2026-05-01T08:54:59.914Z</time></trkpt><trkpt lat="42.7552545" lon="12.0635123"><ele>159.0</ele><time>2026-05-01T08:55:00.914Z</time></trkpt><trkpt lat="42.7550925" lon="12.063725"><ele>157.0</ele><time>2026-05-01T08:55:01.914Z</time></trkpt><trkpt lat="42.7549245" lon="12.0639416"><ele>154.0</ele><time>2026-05-01T08:55:02.913Z</time></trkpt><trkpt lat="42.7547561" lon="12.064155"><ele>151.0</ele><time>2026-05-01T08:55:03.914Z</time></trkpt><trkpt lat="42.7545885" lon="12.0643658"><ele>151.0</ele><time>2026-05-01T08:55:04.914Z</time></trkpt><trkpt lat="42.754422" lon="12.0645725"><ele>151.0</ele><time>2026-05-01T08:55:05.914Z</time></trkpt><trkpt lat="42.7542589" lon="12.0647742"><ele>151.0</ele><time>2026-05-01T08:55:06.914Z</time></trkpt><trkpt lat="42.7540911" lon="12.0649783"><ele>151.33333333333334</ele><time>2026-05-01T08:55:07.914Z</time></trkpt><trkpt lat="42.7539247" lon="12.0651864"><ele>151.66666666666666</ele><time>2026-05-01T08:55:08.913Z</time></trkpt><trkpt lat="42.7537662" lon="12.0653842"><ele>152.0</ele><time>2026-05-01T08:55:09.914Z</time></trkpt><trkpt lat="42.7536119" lon="12.065578"><ele>152.0</ele><time>2026-05-01T08:55:10.913Z</time></trkpt><trkpt lat="42.7534604" lon="12.0657713"><ele>152.0</ele><time>2026-05-01T08:55:11.914Z</time></trkpt><trkpt lat="42.7533031" lon="12.0659613"><ele>152.0</ele><time>2026-05-01T08:55:12.914Z</time></trkpt><trkpt lat="42.7531426" lon="12.0661502"><ele>152.0</ele><time>2026-05-01T08:55:13.913Z</time></trkpt><trkpt lat="42.7529752" lon="12.0663333"><ele>152.0</ele><time>2026-05-01T08:55:14.913Z</time></trkpt><trkpt lat="42.7527872" lon="12.0664996"><ele>152.0</ele><time>2026-05-01T08:55:15.913Z</time></trkpt><trkpt lat="42.7525902" lon="12.0666461"><ele>151.5</ele><time>2026-05-01T08:55:16.914Z</time></trkpt><trkpt lat="42.7523863" lon="12.0667731"><ele>151.0</ele><time>2026-05-01T08:55:17.914Z</time></trkpt><trkpt lat="42.7521764" lon="12.0669001"><ele>151.0</ele><time>2026-05-01T08:55:18.914Z</time></trkpt><trkpt lat="42.7519646" lon="12.0670375"><ele>151.0</ele><time>2026-05-01T08:55:19.913Z</time></trkpt><trkpt lat="42.7517576" lon="12.0671768"><ele>151.5</ele><time>2026-05-01T08:55:20.914Z</time></trkpt><trkpt lat="42.7515526" lon="12.0673195"><ele>152.0</ele><time>2026-05-01T08:55:21.914Z</time></trkpt><trkpt lat="42.7513534" lon="12.0674559"><ele>151.66666666666666</ele><time>2026-05-01T08:55:22.914Z</time></trkpt><trkpt lat="42.7511584" lon="12.0676007"><ele>151.33333333333334</ele><time>2026-05-01T08:55:23.914Z</time></trkpt><trkpt lat="42.7509667" lon="12.0677411"><ele>151.0</ele><time>2026-05-01T08:55:24.914Z</time></trkpt><trkpt lat="42.7507905" lon="12.0678733"><ele>151.0</ele><time>2026-05-01T08:55:25.914Z</time></trkpt><trkpt lat="42.7506193" lon="12.068002"><ele>151.0</ele><time>2026-05-01T08:55:26.913Z</time></trkpt><trkpt lat="42.7504478" lon="12.0681259"><ele>151.0</ele><time>2026-05-01T08:55:27.914Z</time></trkpt><trkpt lat="42.7502728" lon="12.0682417"><ele>150.66666666666669</ele><time>2026-05-01T08:55:28.913Z</time></trkpt><trkpt lat="42.7500937" lon="12.0683654"><ele>150.33333333333334</ele><time>2026-05-01T08:55:29.914Z</time></trkpt><trkpt lat="42.7499161" lon="12.0684855"><ele>150.0</ele><time>2026-05-01T08:55:30.913Z</time></trkpt><trkpt lat="42.7497435" lon="12.0686023"><ele>150.0</ele><time>2026-05-01T08:55:31.914Z</time></trkpt><trkpt lat="42.7495783" lon="12.0687114"><ele>150.0</ele><time>2026-05-01T08:55:32.914Z</time></trkpt><trkpt lat="42.7494256" lon="12.0688178"><ele>150.0</ele><time>2026-05-01T08:55:33.914Z</time></trkpt><trkpt lat="42.749281" lon="12.0689193"><ele>150.66666666666666</ele><time>2026-05-01T08:55:34.914Z</time></trkpt><trkpt lat="42.7491324" lon="12.0690151"><ele>151.33333333333331</ele><time>2026-05-01T08:55:35.914Z</time></trkpt><trkpt lat="42.7489823" lon="12.0691154"><ele>152.0</ele><time>2026-05-01T08:55:36.914Z</time></trkpt><trkpt lat="42.7488319" lon="12.0692278"><ele>152.0</ele><time>2026-05-01T08:55:37.913Z</time></trkpt><trkpt lat="42.7486847" lon="12.0693487"><ele>152.0</ele><time>2026-05-01T08:55:38.913Z</time></trkpt><trkpt lat="42.7485317" lon="12.0694744"><ele>152.0</ele><time>2026-05-01T08:55:39.914Z</time></trkpt><trkpt lat="42.7483801" lon="12.0696112"><ele>151.66666666666666</ele><time>2026-05-01T08:55:40.914Z</time></trkpt><trkpt lat="42.7482251" lon="12.0697562"><ele>151.33333333333334</ele><time>2026-05-01T08:55:41.913Z</time></trkpt><trkpt lat="42.7480683" lon="12.0699065"><ele>151.0</ele><time>2026-05-01T08:55:42.913Z</time></trkpt><trkpt lat="42.7479064" lon="12.0700568"><ele>151.0</ele><time>2026-05-01T08:55:43.914Z</time></trkpt><trkpt lat="42.747749" lon="12.0702014"><ele>151.0</ele><time>2026-05-01T08:55:44.913Z</time></trkpt><trkpt lat="42.7475807" lon="12.0703303"><ele>151.0</ele><time>2026-05-01T08:55:45.914Z</time></trkpt><trkpt lat="42.7474087" lon="12.0704355"><ele>153.0</ele><time>2026-05-01T08:55:46.914Z</time></trkpt><trkpt lat="42.7472327" lon="12.0705213"><ele>155.0</ele><time>2026-05-01T08:55:47.914Z</time></trkpt><trkpt lat="42.7470467" lon="12.0705943"><ele>157.0</ele><time>2026-05-01T08:55:48.914Z</time></trkpt><trkpt lat="42.7468636" lon="12.0706783"><ele>158.0</ele><time>2026-05-01T08:55:49.914Z</time></trkpt><trkpt lat="42.7466818" lon="12.0707686"><ele>159.0</ele><time>2026-05-01T08:55:50.914Z</time></trkpt><trkpt lat="42.7465055" lon="12.0708685"><ele>160.0</ele><time>2026-05-01T08:55:51.914Z</time></trkpt><trkpt lat="42.7463138" lon="12.0709518"><ele>159.0</ele><time>2026-05-01T08:55:52.913Z</time></trkpt><trkpt lat="42.7461103" lon="12.0710127"><ele>158.0</ele><time>2026-05-01T08:55:53.914Z</time></trkpt><trkpt lat="42.7459134" lon="12.0710759"><ele>157.0</ele><time>2026-05-01T08:55:54.914Z</time></trkpt><trkpt lat="42.7457128" lon="12.0711479"><ele>157.0</ele><time>2026-05-01T08:55:55.914Z</time></trkpt><trkpt lat="42.7454966" lon="12.0712131"><ele>157.0</ele><time>2026-05-01T08:55:56.914Z</time></trkpt><trkpt lat="42.7452881" lon="12.0712731"><ele>157.0</ele><time>2026-05-01T08:55:57.913Z</time></trkpt><trkpt lat="42.7450774" lon="12.071346"><ele>157.0</ele><time>2026-05-01T08:55:58.914Z</time></trkpt><trkpt lat="42.7448787" lon="12.071422"><ele>157.0</ele><time>2026-05-01T08:55:59.914Z</time></trkpt><trkpt lat="42.7446852" lon="12.0715184"><ele>157.0</ele><time>2026-05-01T08:56:00.913Z</time></trkpt><trkpt lat="42.744497" lon="12.0716242"><ele>156.33333333333334</ele><time>2026-05-01T08:56:01.914Z</time></trkpt><trkpt lat="42.7443035" lon="12.0717301"><ele>155.66666666666666</ele><time>2026-05-01T08:56:02.913Z</time></trkpt><trkpt lat="42.7441132" lon="12.0718399"><ele>155.0</ele><time>2026-05-01T08:56:03.914Z</time></trkpt><trkpt lat="42.7439191" lon="12.0719477"><ele>155.0</ele><time>2026-05-01T08:56:04.914Z</time></trkpt><trkpt lat="42.7437255" lon="12.0720692"><ele>155.0</ele><time>2026-05-01T08:56:05.914Z</time></trkpt><trkpt lat="42.7435392" lon="12.0722007"><ele>155.0</ele><time>2026-05-01T08:56:06.914Z</time></trkpt><trkpt lat="42.7433617" lon="12.0723334"><ele>155.0</ele><time>2026-05-01T08:56:07.914Z</time></trkpt><trkpt lat="42.7431835" lon="12.0724607"><ele>155.0</ele><time>2026-05-01T08:56:08.914Z</time></trkpt><trkpt lat="42.7430072" lon="12.0725868"><ele>155.0</ele><time>2026-05-01T08:56:09.914Z</time></trkpt><trkpt lat="42.7428348" lon="12.0727084"><ele>156.0</ele><time>2026-05-01T08:56:10.913Z</time></trkpt><trkpt lat="42.7426646" lon="12.0728333"><ele>157.0</ele><time>2026-05-01T08:56:11.914Z</time></trkpt><trkpt lat="42.7424965" lon="12.0729567"><ele>158.0</ele><time>2026-05-01T08:56:12.914Z</time></trkpt><trkpt lat="42.7423275" lon="12.0730767"><ele>158.0</ele><time>2026-05-01T08:56:13.914Z</time></trkpt><trkpt lat="42.7421585" lon="12.0732021"><ele>158.0</ele><time>2026-05-01T08:56:14.913Z</time></trkpt><trkpt lat="42.7419872" lon="12.0733308"><ele>158.0</ele><time>2026-05-01T08:56:15.914Z</time></trkpt><trkpt lat="42.7418188" lon="12.073473"><ele>157.0</ele><time>2026-05-01T08:56:16.914Z</time></trkpt><trkpt lat="42.7416538" lon="12.0736269"><ele>156.0</ele><time>2026-05-01T08:56:17.913Z</time></trkpt><trkpt lat="42.7414949" lon="12.0737929"><ele>155.0</ele><time>2026-05-01T08:56:18.914Z</time></trkpt><trkpt lat="42.7413301" lon="12.0739573"><ele>155.0</ele><time>2026-05-01T08:56:19.914Z</time></trkpt><trkpt lat="42.7411706" lon="12.0741271"><ele>155.0</ele><time>2026-05-01T08:56:20.914Z</time></trkpt><trkpt lat="42.7410113" lon="12.074296"><ele>155.0</ele><time>2026-05-01T08:56:21.913Z</time></trkpt><trkpt lat="42.7408528" lon="12.0744691"><ele>155.0</ele><time>2026-05-01T08:56:22.914Z</time></trkpt><trkpt lat="42.7406966" lon="12.0746347"><ele>155.0</ele><time>2026-05-01T08:56:23.914Z</time></trkpt><trkpt lat="42.7405502" lon="12.0748013"><ele>155.0</ele><time>2026-05-01T08:56:24.914Z</time></trkpt><trkpt lat="42.7404115" lon="12.0749503"><ele>154.66666666666666</ele><time>2026-05-01T08:56:25.914Z</time></trkpt><trkpt lat="42.7402795" lon="12.0750928"><ele>154.33333333333334</ele><time>2026-05-01T08:56:26.914Z</time></trkpt><trkpt lat="42.7401444" lon="12.0752347"><ele>154.0</ele><time>2026-05-01T08:56:27.914Z</time></trkpt><trkpt lat="42.7400106" lon="12.0753779"><ele>154.0</ele><time>2026-05-01T08:56:28.914Z</time></trkpt><trkpt lat="42.739875" lon="12.0755135"><ele>154.0</ele><time>2026-05-01T08:56:29.914Z</time></trkpt><trkpt lat="42.7397522" lon="12.0756441"><ele>154.0</ele><time>2026-05-01T08:56:30.914Z</time></trkpt><trkpt lat="42.7396333" lon="12.075766"><ele>153.33333333333334</ele><time>2026-05-01T08:56:31.913Z</time></trkpt><trkpt lat="42.7395127" lon="12.0758762"><ele>152.66666666666666</ele><time>2026-05-01T08:56:32.914Z</time></trkpt><trkpt lat="42.7393812" lon="12.0759751"><ele>152.0</ele><time>2026-05-01T08:56:33.914Z</time></trkpt><trkpt lat="42.7392388" lon="12.0760745"><ele>153.33333333333331</ele><time>2026-05-01T08:56:34.914Z</time></trkpt><trkpt lat="42.7390874" lon="12.0761886"><ele>154.66666666666666</ele><time>2026-05-01T08:56:35.914Z</time></trkpt><trkpt lat="42.7389265" lon="12.0763185"><ele>156.0</ele><time>2026-05-01T08:56:36.914Z</time></trkpt><trkpt lat="42.7387591" lon="12.0764485"><ele>156.0</ele><time>2026-05-01T08:56:37.914Z</time></trkpt><trkpt lat="42.7385873" lon="12.0765912"><ele>156.0</ele><time>2026-05-01T08:56:38.913Z</time></trkpt><trkpt lat="42.7384094" lon="12.0767349"><ele>156.0</ele><time>2026-05-01T08:56:39.914Z</time></trkpt><trkpt lat="42.738228" lon="12.0768981"><ele>155.66666666666666</ele><time>2026-05-01T08:56:40.914Z</time></trkpt><trkpt lat="42.7380579" lon="12.0770766"><ele>155.33333333333331</ele><time>2026-05-01T08:56:41.914Z</time></trkpt><trkpt lat="42.7378861" lon="12.0772633"><ele>155.0</ele><time>2026-05-01T08:56:42.914Z</time></trkpt><trkpt lat="42.7377125" lon="12.0774389"><ele>154.0</ele><time>2026-05-01T08:56:43.914Z</time></trkpt><trkpt lat="42.7375349" lon="12.0776264"><ele>153.0</ele><time>2026-05-01T08:56:44.913Z</time></trkpt><trkpt lat="42.7373595" lon="12.0778075"><ele>152.0</ele><time>2026-05-01T08:56:45.914Z</time></trkpt><trkpt lat="42.7371861" lon="12.0779996"><ele>152.0</ele><time>2026-05-01T08:56:46.914Z</time></trkpt><trkpt lat="42.7370258" lon="12.0782154"><ele>152.0</ele><time>2026-05-01T08:56:47.913Z</time></trkpt><trkpt lat="42.7368807" lon="12.0784629"><ele>153.0</ele><time>2026-05-01T08:56:48.914Z</time></trkpt><trkpt lat="42.7367473" lon="12.0787261"><ele>154.0</ele><time>2026-05-01T08:56:49.913Z</time></trkpt><trkpt lat="42.7366178" lon="12.0789907"><ele>154.0</ele><time>2026-05-01T08:56:50.913Z</time></trkpt><trkpt lat="42.7364902" lon="12.07925"><ele>154.0</ele><time>2026-05-01T08:56:51.913Z</time></trkpt><trkpt lat="42.7363591" lon="12.0795011"><ele>154.0</ele><time>2026-05-01T08:56:52.914Z</time></trkpt><trkpt lat="42.7362265" lon="12.0797489"><ele>154.0</ele><time>2026-05-01T08:56:53.913Z</time></trkpt><trkpt lat="42.7361078" lon="12.0799895"><ele>154.0</ele><time>2026-05-01T08:56:54.914Z</time></trkpt><trkpt lat="42.7359983" lon="12.0801968"><ele>154.0</ele><time>2026-05-01T08:56:55.914Z</time></trkpt><trkpt lat="42.7359055" lon="12.0803856"><ele>154.0</ele><time>2026-05-01T08:56:56.914Z</time></trkpt><trkpt lat="42.7358165" lon="12.0805363"><ele>154.0</ele><time>2026-05-01T08:56:57.913Z</time></trkpt><trkpt lat="42.7357288" lon="12.0806918"><ele>154.0</ele><time>2026-05-01T08:56:58.914Z</time></trkpt><trkpt lat="42.7356425" lon="12.0808547"><ele>154.0</ele><time>2026-05-01T08:56:59.913Z</time></trkpt><trkpt lat="42.7355489" lon="12.081025"><ele>154.0</ele><time>2026-05-01T08:57:00.913Z</time></trkpt><trkpt lat="42.7354469" lon="12.0812039"><ele>154.0</ele><time>2026-05-01T08:57:01.914Z</time></trkpt><trkpt lat="42.7353426" lon="12.0814071"><ele>154.0</ele><time>2026-05-01T08:57:02.913Z</time></trkpt><trkpt lat="42.7352389" lon="12.0816073"><ele>154.0</ele><time>2026-05-01T08:57:03.914Z</time></trkpt><trkpt lat="42.7351355" lon="12.0818034"><ele>153.66666666666669</ele><time>2026-05-01T08:57:04.913Z</time></trkpt><trkpt lat="42.735033" lon="12.0819988"><ele>153.33333333333334</ele><time>2026-05-01T08:57:05.914Z</time></trkpt><trkpt lat="42.7349245" lon="12.0821977"><ele>153.0</ele><time>2026-05-01T08:57:06.914Z</time></trkpt><trkpt lat="42.7348138" lon="12.082402"><ele>152.33333333333334</ele><time>2026-05-01T08:57:07.914Z</time></trkpt><trkpt lat="42.7347057" lon="12.0826059"><ele>151.66666666666669</ele><time>2026-05-01T08:57:08.913Z</time></trkpt><trkpt lat="42.7345994" lon="12.0828091"><ele>151.0</ele><time>2026-05-01T08:57:09.913Z</time></trkpt><trkpt lat="42.7344979" lon="12.0830037"><ele>151.0</ele><time>2026-05-01T08:57:10.914Z</time></trkpt><trkpt lat="42.7343932" lon="12.0831939"><ele>151.0</ele><time>2026-05-01T08:57:11.914Z</time></trkpt><trkpt lat="42.7342938" lon="12.0833819"><ele>151.0</ele><time>2026-05-01T08:57:12.914Z</time></trkpt><trkpt lat="42.7341915" lon="12.0835713"><ele>151.0</ele><time>2026-05-01T08:57:13.914Z</time></trkpt><trkpt lat="42.734095" lon="12.0837738"><ele>151.0</ele><time>2026-05-01T08:57:14.914Z</time></trkpt><trkpt lat="42.7340161" lon="12.0839948"><ele>151.0</ele><time>2026-05-01T08:57:15.914Z</time></trkpt><trkpt lat="42.7339579" lon="12.0842251"><ele>151.0</ele><time>2026-05-01T08:57:16.914Z</time></trkpt><trkpt lat="42.7339107" lon="12.0844621"><ele>151.0</ele><time>2026-05-01T08:57:17.914Z</time></trkpt><trkpt lat="42.7338703" lon="12.0846889"><ele>151.0</ele><time>2026-05-01T08:57:18.913Z</time></trkpt><trkpt lat="42.7338281" lon="12.0848939"><ele>150.66666666666669</ele><time>2026-05-01T08:57:19.914Z</time></trkpt><trkpt lat="42.7337853" lon="12.085093"><ele>150.33333333333334</ele><time>2026-05-01T08:57:20.913Z</time></trkpt><trkpt lat="42.7337436" lon="12.0852839"><ele>150.0</ele><time>2026-05-01T08:57:21.913Z</time></trkpt><trkpt lat="42.7336975" lon="12.0854958"><ele>150.0</ele><time>2026-05-01T08:57:22.913Z</time></trkpt><trkpt lat="42.733647" lon="12.0857009"><ele>150.0</ele><time>2026-05-01T08:57:23.914Z</time></trkpt><trkpt lat="42.7335809" lon="12.0859141"><ele>150.0</ele><time>2026-05-01T08:57:24.914Z</time></trkpt><trkpt lat="42.7335052" lon="12.0861441"><ele>151.0</ele><time>2026-05-01T08:57:25.914Z</time></trkpt><trkpt lat="42.7334131" lon="12.0863789"><ele>152.0</ele><time>2026-05-01T08:57:26.914Z</time></trkpt><trkpt lat="42.7333118" lon="12.0866169"><ele>153.0</ele><time>2026-05-01T08:57:27.914Z</time></trkpt><trkpt lat="42.7332074" lon="12.0868664"><ele>153.0</ele><time>2026-05-01T08:57:28.914Z</time></trkpt><trkpt lat="42.7331046" lon="12.087108"><ele>153.0</ele><time>2026-05-01T08:57:29.913Z</time></trkpt><trkpt lat="42.7330046" lon="12.0873211"><ele>153.0</ele><time>2026-05-01T08:57:30.913Z</time></trkpt><trkpt lat="42.7329085" lon="12.0875286"><ele>153.0</ele><time>2026-05-01T08:57:31.914Z</time></trkpt><trkpt lat="42.7328105" lon="12.0877214"><ele>153.0</ele><time>2026-05-01T08:57:32.914Z</time></trkpt><trkpt lat="42.7327058" lon="12.087911"><ele>153.0</ele><time>2026-05-01T08:57:33.914Z</time></trkpt><trkpt lat="42.7325831" lon="12.0880925"><ele>154.33333333333334</ele><time>2026-05-01T08:57:34.913Z</time></trkpt><trkpt lat="42.7324544" lon="12.0882653"><ele>155.66666666666669</ele><time>2026-05-01T08:57:35.914Z</time></trkpt><trkpt lat="42.7323218" lon="12.0884403"><ele>157.0</ele><time>2026-05-01T08:57:36.913Z</time></trkpt><trkpt lat="42.7321966" lon="12.088618"><ele>157.0</ele><time>2026-05-01T08:57:37.913Z</time></trkpt><trkpt lat="42.7320837" lon="12.0887945"><ele>157.0</ele><time>2026-05-01T08:57:38.913Z</time></trkpt><trkpt lat="42.7319764" lon="12.0889731"><ele>157.0</ele><time>2026-05-01T08:57:39.913Z</time></trkpt><trkpt lat="42.7318696" lon="12.0891477"><ele>157.33333333333334</ele><time>2026-05-01T08:57:40.914Z</time></trkpt><trkpt lat="42.7317625" lon="12.0893246"><ele>157.66666666666666</ele><time>2026-05-01T08:57:41.914Z</time></trkpt><trkpt lat="42.7316513" lon="12.089495"><ele>158.0</ele><time>2026-05-01T08:57:42.914Z</time></trkpt><trkpt lat="42.7315348" lon="12.0896638"><ele>158.0</ele><time>2026-05-01T08:57:43.913Z</time></trkpt><trkpt lat="42.7314128" lon="12.0898341"><ele>158.0</ele><time>2026-05-01T08:57:44.914Z</time></trkpt><trkpt lat="42.7312835" lon="12.0900058"><ele>158.0</ele><time>2026-05-01T08:57:45.913Z</time></trkpt><trkpt lat="42.7311491" lon="12.0901775"><ele>156.0</ele><time>2026-05-01T08:57:46.914Z</time></trkpt><trkpt lat="42.731009" lon="12.0903469"><ele>154.0</ele><time>2026-05-01T08:57:47.913Z</time></trkpt><trkpt lat="42.7308687" lon="12.0905134"><ele>152.0</ele><time>2026-05-01T08:57:48.914Z</time></trkpt><trkpt lat="42.7307383" lon="12.0906781"><ele>151.66666666666666</ele><time>2026-05-01T08:57:49.914Z</time></trkpt><trkpt lat="42.7306105" lon="12.0908168"><ele>151.33333333333334</ele><time>2026-05-01T08:57:50.914Z</time></trkpt><trkpt lat="42.73049" lon="12.0909635"><ele>151.0</ele><time>2026-05-01T08:57:51.913Z</time></trkpt><trkpt lat="42.730376" lon="12.091097"><ele>151.0</ele><time>2026-05-01T08:57:52.914Z</time></trkpt><trkpt lat="42.730276" lon="12.0912247"><ele>151.0</ele><time>2026-05-01T08:57:53.914Z</time></trkpt><trkpt lat="42.7301788" lon="12.0913406"><ele>151.0</ele><time>2026-05-01T08:57:54.913Z</time></trkpt><trkpt lat="42.7300802" lon="12.0914531"><ele>151.0</ele><time>2026-05-01T08:57:55.914Z</time></trkpt><trkpt lat="42.7299772" lon="12.0915583"><ele>150.66666666666669</ele><time>2026-05-01T08:57:56.914Z</time></trkpt><trkpt lat="42.7298528" lon="12.0916675"><ele>150.33333333333334</ele><time>2026-05-01T08:57:57.913Z</time></trkpt><trkpt lat="42.7296894" lon="12.0917686"><ele>150.0</ele><time>2026-05-01T08:57:58.914Z</time></trkpt><trkpt lat="42.729519" lon="12.0918686"><ele>149.0</ele><time>2026-05-01T08:57:59.914Z</time></trkpt><trkpt lat="42.729336" lon="12.0919744"><ele>148.0</ele><time>2026-05-01T08:58:00.914Z</time></trkpt><trkpt lat="42.7291486" lon="12.0920865"><ele>147.0</ele><time>2026-05-01T08:58:01.914Z</time></trkpt><trkpt lat="42.7289721" lon="12.0922226"><ele>147.0</ele><time>2026-05-01T08:58:02.913Z</time></trkpt><trkpt lat="42.7288062" lon="12.0923765"><ele>147.0</ele><time>2026-05-01T08:58:03.914Z</time></trkpt><trkpt lat="42.7286438" lon="12.092534"><ele>147.0</ele><time>2026-05-01T08:58:04.913Z</time></trkpt><trkpt lat="42.7284893" lon="12.0926736"><ele>147.0</ele><time>2026-05-01T08:58:05.914Z</time></trkpt><trkpt lat="42.7283372" lon="12.0928289"><ele>147.0</ele><time>2026-05-01T08:58:06.914Z</time></trkpt><trkpt lat="42.7281782" lon="12.0929769"><ele>147.0</ele><time>2026-05-01T08:58:07.914Z</time></trkpt><trkpt lat="42.7280218" lon="12.0931294"><ele>147.0</ele><time>2026-05-01T08:58:08.914Z</time></trkpt><trkpt lat="42.7278586" lon="12.0932798"><ele>147.0</ele><time>2026-05-01T08:58:09.913Z</time></trkpt><trkpt lat="42.7276971" lon="12.0934248"><ele>147.0</ele><time>2026-05-01T08:58:10.914Z</time></trkpt><trkpt lat="42.727541" lon="12.0935494"><ele>147.0</ele><time>2026-05-01T08:58:11.913Z</time></trkpt><trkpt lat="42.7273872" lon="12.0936667"><ele>147.0</ele><time>2026-05-01T08:58:12.914Z</time></trkpt><trkpt lat="42.727237" lon="12.0937841"><ele>147.0</ele><time>2026-05-01T08:58:13.914Z</time></trkpt><trkpt lat="42.7270911" lon="12.093909"><ele>147.0</ele><time>2026-05-01T08:58:14.914Z</time></trkpt><trkpt lat="42.7269483" lon="12.0940297"><ele>147.0</ele><time>2026-05-01T08:58:15.914Z</time></trkpt><trkpt lat="42.726816" lon="12.0941538"><ele>147.0</ele><time>2026-05-01T08:58:16.914Z</time></trkpt><trkpt lat="42.7266944" lon="12.0942672"><ele>146.75</ele><time>2026-05-01T08:58:17.914Z</time></trkpt><trkpt lat="42.7265888" lon="12.0943742"><ele>146.5</ele><time>2026-05-01T08:58:18.914Z</time></trkpt><trkpt lat="42.7264857" lon="12.0944634"><ele>146.25</ele><time>2026-05-01T08:58:19.914Z</time></trkpt><trkpt lat="42.7263826" lon="12.0945517"><ele>146.0</ele><time>2026-05-01T08:58:20.913Z</time></trkpt><trkpt lat="42.7262763" lon="12.0946421"><ele>146.0</ele><time>2026-05-01T08:58:21.914Z</time></trkpt><trkpt lat="42.7261802" lon="12.0947417"><ele>146.0</ele><time>2026-05-01T08:58:22.914Z</time></trkpt><trkpt lat="42.7260861" lon="12.0948419"><ele>146.0</ele><time>2026-05-01T08:58:23.914Z</time></trkpt><trkpt lat="42.7260055" lon="12.0949404"><ele>146.0</ele><time>2026-05-01T08:58:24.914Z</time></trkpt><trkpt lat="42.7259252" lon="12.0950279"><ele>146.5</ele><time>2026-05-01T08:58:25.913Z</time></trkpt><trkpt lat="42.7258515" lon="12.0951041"><ele>147.0</ele><time>2026-05-01T08:58:26.914Z</time></trkpt><trkpt lat="42.7257814" lon="12.0951721"><ele>147.5</ele><time>2026-05-01T08:58:27.913Z</time></trkpt><trkpt lat="42.7257111" lon="12.0952432"><ele>148.0</ele><time>2026-05-01T08:58:28.913Z</time></trkpt><trkpt lat="42.7256458" lon="12.0953162"><ele>148.5</ele><time>2026-05-01T08:58:29.913Z</time></trkpt><trkpt lat="42.7255844" lon="12.0953884"><ele>149.0</ele><time>2026-05-01T08:58:30.913Z</time></trkpt><trkpt lat="42.725517" lon="12.0954597"><ele>149.0</ele><time>2026-05-01T08:58:31.913Z</time></trkpt><trkpt lat="42.725446" lon="12.0955377"><ele>149.0</ele><time>2026-05-01T08:58:32.914Z</time></trkpt><trkpt lat="42.7253751" lon="12.0956196"><ele>149.0</ele><time>2026-05-01T08:58:33.914Z</time></trkpt><trkpt lat="42.7253021" lon="12.0957001"><ele>149.0</ele><time>2026-05-01T08:58:34.914Z</time></trkpt><trkpt lat="42.7252302" lon="12.0957819"><ele>149.0</ele><time>2026-05-01T08:58:35.914Z</time></trkpt><trkpt lat="42.7251656" lon="12.0958676"><ele>149.4</ele><time>2026-05-01T08:58:36.913Z</time></trkpt><trkpt lat="42.7251016" lon="12.0959499"><ele>149.8</ele><time>2026-05-01T08:58:37.913Z</time></trkpt><trkpt lat="42.7250322" lon="12.0960357"><ele>150.2</ele><time>2026-05-01T08:58:38.914Z</time></trkpt><trkpt lat="42.7249607" lon="12.096124"><ele>150.6</ele><time>2026-05-01T08:58:39.914Z</time></trkpt><trkpt lat="42.7248872" lon="12.0962157"><ele>151.0</ele><time>2026-05-01T08:58:40.914Z</time></trkpt><trkpt lat="42.7248193" lon="12.0963032"><ele>151.0</ele><time>2026-05-01T08:58:41.914Z</time></trkpt><trkpt lat="42.7247479" lon="12.0963907"><ele>151.0</ele><time>2026-05-01T08:58:42.914Z</time></trkpt><trkpt lat="42.7246836" lon="12.0964716"><ele>151.0</ele><time>2026-05-01T08:58:43.914Z</time></trkpt><trkpt lat="42.7246312" lon="12.0965316"><ele>151.0</ele><time>2026-05-01T08:58:44.914Z</time></trkpt><trkpt lat="42.7245719" lon="12.0965875"><ele>151.0</ele><time>2026-05-01T08:58:46.914Z</time></trkpt><trkpt lat="42.7245003" lon="12.0966775"><ele>151.0</ele><time>2026-05-01T08:58:49.914Z</time></trkpt><trkpt lat="42.7244486" lon="12.0967522"><ele>151.83333333333334</ele><time>2026-05-01T08:58:51.914Z</time></trkpt><trkpt lat="42.7244072" lon="12.0968306"><ele>152.66666666666669</ele><time>2026-05-01T08:58:55.914Z</time></trkpt><trkpt lat="42.724393" lon="12.0969143"><ele>153.5</ele><time>2026-05-01T08:58:58.914Z</time></trkpt><trkpt lat="42.7244118" lon="12.0970005"><ele>154.33333333333334</ele><time>2026-05-01T08:59:00.913Z</time></trkpt><trkpt lat="42.724496" lon="12.0970692"><ele>155.16666666666666</ele><time>2026-05-01T08:59:02.914Z</time></trkpt><trkpt lat="42.7246302" lon="12.0971225"><ele>156.0</ele><time>2026-05-01T08:59:04.913Z</time></trkpt><trkpt lat="42.7247159" lon="12.0971356"><ele>156.0</ele><time>2026-05-01T08:59:05.914Z</time></trkpt><trkpt lat="42.7248141" lon="12.0971469"><ele>156.0</ele><time>2026-05-01T08:59:06.913Z</time></trkpt><trkpt lat="42.724926" lon="12.0971573"><ele>156.0</ele><time>2026-05-01T08:59:07.913Z</time></trkpt><trkpt lat="42.7250523" lon="12.0971598"><ele>156.0</ele><time>2026-05-01T08:59:08.913Z</time></trkpt><trkpt lat="42.7251927" lon="12.0971791"><ele>156.0</ele><time>2026-05-01T08:59:09.914Z</time></trkpt><trkpt lat="42.7253276" lon="12.0971884"><ele>156.0</ele><time>2026-05-01T08:59:10.913Z</time></trkpt><trkpt lat="42.725462" lon="12.0972086"><ele>156.0</ele><time>2026-05-01T08:59:11.913Z</time></trkpt><trkpt lat="42.72561" lon="12.0972112"><ele>156.0</ele><time>2026-05-01T08:59:12.913Z</time></trkpt><trkpt lat="42.7257601" lon="12.0972305"><ele>156.0</ele><time>2026-05-01T08:59:13.914Z</time></trkpt><trkpt lat="42.725902" lon="12.0972486"><ele>156.0</ele><time>2026-05-01T08:59:14.914Z</time></trkpt><trkpt lat="42.7260528" lon="12.0972686"><ele>156.0</ele><time>2026-05-01T08:59:15.914Z</time></trkpt><trkpt lat="42.7262195" lon="12.0972802"><ele>155.0</ele><time>2026-05-01T08:59:16.914Z</time></trkpt><trkpt lat="42.7263788" lon="12.0973019"><ele>154.0</ele><time>2026-05-01T08:59:17.914Z</time></trkpt><trkpt lat="42.7265386" lon="12.0973207"><ele>153.0</ele><time>2026-05-01T08:59:18.914Z</time></trkpt><trkpt lat="42.7266993" lon="12.0973308"><ele>153.0</ele><time>2026-05-01T08:59:19.914Z</time></trkpt><trkpt lat="42.7268634" lon="12.0973475"><ele>153.0</ele><time>2026-05-01T08:59:20.914Z</time></trkpt><trkpt lat="42.7270291" lon="12.0973625"><ele>153.0</ele><time>2026-05-01T08:59:21.914Z</time></trkpt><trkpt lat="42.7271918" lon="12.0973709"><ele>152.33333333333334</ele><time>2026-05-01T08:59:22.914Z</time></trkpt><trkpt lat="42.7273536" lon="12.0973978"><ele>151.66666666666669</ele><time>2026-05-01T08:59:23.914Z</time></trkpt><trkpt lat="42.7275131" lon="12.0974252"><ele>151.0</ele><time>2026-05-01T08:59:24.913Z</time></trkpt><trkpt lat="42.7276685" lon="12.0974559"><ele>150.33333333333334</ele><time>2026-05-01T08:59:25.914Z</time></trkpt><trkpt lat="42.7278223" lon="12.0974933"><ele>149.66666666666666</ele><time>2026-05-01T08:59:26.913Z</time></trkpt><trkpt lat="42.727975" lon="12.0975332"><ele>149.0</ele><time>2026-05-01T08:59:27.913Z</time></trkpt><trkpt lat="42.728122" lon="12.0975785"><ele>149.0</ele><time>2026-05-01T08:59:28.914Z</time></trkpt><trkpt lat="42.7282656" lon="12.097643"><ele>149.0</ele><time>2026-05-01T08:59:29.914Z</time></trkpt><trkpt lat="42.7283997" lon="12.0977346"><ele>149.0</ele><time>2026-05-01T08:59:30.914Z</time></trkpt><trkpt lat="42.7285302" lon="12.0978424"><ele>148.0</ele><time>2026-05-01T08:59:31.914Z</time></trkpt><trkpt lat="42.7286641" lon="12.0979791"><ele>147.0</ele><time>2026-05-01T08:59:32.913Z</time></trkpt><trkpt lat="42.7288031" lon="12.0981333"><ele>146.0</ele><time>2026-05-01T08:59:33.914Z</time></trkpt><trkpt lat="42.728951" lon="12.0982957"><ele>145.66666666666666</ele><time>2026-05-01T08:59:34.914Z</time></trkpt><trkpt lat="42.7291115" lon="12.0984546"><ele>145.33333333333334</ele><time>2026-05-01T08:59:35.914Z</time></trkpt><trkpt lat="42.7292704" lon="12.0986282"><ele>145.0</ele><time>2026-05-01T08:59:36.913Z</time></trkpt><trkpt lat="42.7294305" lon="12.0988125"><ele>144.33333333333334</ele><time>2026-05-01T08:59:37.914Z</time></trkpt><trkpt lat="42.7295922" lon="12.0990019"><ele>143.66666666666666</ele><time>2026-05-01T08:59:38.914Z</time></trkpt><trkpt lat="42.7297545" lon="12.0991959"><ele>143.0</ele><time>2026-05-01T08:59:39.914Z</time></trkpt><trkpt lat="42.7299205" lon="12.0993838"><ele>142.33333333333331</ele><time>2026-05-01T08:59:40.914Z</time></trkpt><trkpt lat="42.7300771" lon="12.0995698"><ele>141.66666666666666</ele><time>2026-05-01T08:59:41.914Z</time></trkpt><trkpt lat="42.7302297" lon="12.0997524"><ele>141.0</ele><time>2026-05-01T08:59:42.914Z</time></trkpt><trkpt lat="42.7303703" lon="12.0999212"><ele>139.33333333333334</ele><time>2026-05-01T08:59:43.913Z</time></trkpt><trkpt lat="42.7305051" lon="12.1000914"><ele>137.66666666666669</ele><time>2026-05-01T08:59:44.914Z</time></trkpt><trkpt lat="42.7306426" lon="12.1002859"><ele>136.0</ele><time>2026-05-01T08:59:45.914Z</time></trkpt><trkpt lat="42.7307863" lon="12.1004657"><ele>136.0</ele><time>2026-05-01T08:59:46.914Z</time></trkpt><trkpt lat="42.7309138" lon="12.1006505"><ele>136.0</ele><time>2026-05-01T08:59:47.913Z</time></trkpt><trkpt lat="42.7310186" lon="12.1008489"><ele>136.0</ele><time>2026-05-01T08:59:48.914Z</time></trkpt><trkpt lat="42.7310893" lon="12.1010514"><ele>133.33333333333334</ele><time>2026-05-01T08:59:49.914Z</time></trkpt><trkpt lat="42.731133" lon="12.1012875"><ele>130.66666666666666</ele><time>2026-05-01T08:59:50.914Z</time></trkpt><trkpt lat="42.7311759" lon="12.1015113"><ele>128.0</ele><time>2026-05-01T08:59:51.913Z</time></trkpt><trkpt lat="42.7312204" lon="12.1017468"><ele>127.66666666666666</ele><time>2026-05-01T08:59:52.913Z</time></trkpt><trkpt lat="42.7312615" lon="12.1019934"><ele>127.33333333333334</ele><time>2026-05-01T08:59:53.914Z</time></trkpt><trkpt lat="42.7312993" lon="12.1022351"><ele>127.0</ele><time>2026-05-01T08:59:54.914Z</time></trkpt><trkpt lat="42.7313219" lon="12.1024836"><ele>126.66666666666667</ele><time>2026-05-01T08:59:55.914Z</time></trkpt><trkpt lat="42.73132" lon="12.1027423"><ele>126.33333333333334</ele><time>2026-05-01T08:59:56.913Z</time></trkpt><trkpt lat="42.7313035" lon="12.1030143"><ele>126.0</ele><time>2026-05-01T08:59:57.914Z</time></trkpt><trkpt lat="42.7312787" lon="12.1032873"><ele>126.0</ele><time>2026-05-01T08:59:58.913Z</time></trkpt><trkpt lat="42.7312337" lon="12.1035479"><ele>126.0</ele><time>2026-05-01T08:59:59.913Z</time></trkpt><trkpt lat="42.7311818" lon="12.1038117"><ele>126.0</ele><time>2026-05-01T09:00:00.913Z</time></trkpt><trkpt lat="42.7310953" lon="12.1040511"><ele>125.66666666666666</ele><time>2026-05-01T09:00:01.914Z</time></trkpt><trkpt lat="42.7309871" lon="12.1042919"><ele>125.33333333333333</ele><time>2026-05-01T09:00:02.914Z</time></trkpt><trkpt lat="42.7308433" lon="12.1045108"><ele>125.0</ele><time>2026-05-01T09:00:03.914Z</time></trkpt><trkpt lat="42.7306902" lon="12.1047276"><ele>124.5</ele><time>2026-05-01T09:00:04.914Z</time></trkpt><trkpt lat="42.7305254" lon="12.1049302"><ele>124.0</ele><time>2026-05-01T09:00:05.914Z</time></trkpt><trkpt lat="42.730352" lon="12.1051342"><ele>125.0</ele><time>2026-05-01T09:00:06.914Z</time></trkpt><trkpt lat="42.7301827" lon="12.1053135"><ele>126.0</ele><time>2026-05-01T09:00:07.913Z</time></trkpt><trkpt lat="42.7300223" lon="12.1055125"><ele>127.0</ele><time>2026-05-01T09:00:08.914Z</time></trkpt><trkpt lat="42.7298813" lon="12.1057344"><ele>126.66666666666667</ele><time>2026-05-01T09:00:09.913Z</time></trkpt><trkpt lat="42.7297629" lon="12.105984"><ele>126.33333333333334</ele><time>2026-05-01T09:00:10.914Z</time></trkpt><trkpt lat="42.7296424" lon="12.1062385"><ele>126.0</ele><time>2026-05-01T09:00:11.914Z</time></trkpt><trkpt lat="42.7295154" lon="12.1064855"><ele>125.66666666666666</ele><time>2026-05-01T09:00:12.914Z</time></trkpt><trkpt lat="42.7293889" lon="12.1067309"><ele>125.33333333333333</ele><time>2026-05-01T09:00:13.913Z</time></trkpt><trkpt lat="42.7292594" lon="12.1069696"><ele>125.0</ele><time>2026-05-01T09:00:14.914Z</time></trkpt><trkpt lat="42.7291275" lon="12.1071964"><ele>125.0</ele><time>2026-05-01T09:00:15.914Z</time></trkpt><trkpt lat="42.7289972" lon="12.1074119"><ele>125.0</ele><time>2026-05-01T09:00:16.913Z</time></trkpt><trkpt lat="42.7288693" lon="12.1076139"><ele>125.0</ele><time>2026-05-01T09:00:17.914Z</time></trkpt><trkpt lat="42.7287462" lon="12.1078163"><ele>125.0</ele><time>2026-05-01T09:00:18.914Z</time></trkpt><trkpt lat="42.7286307" lon="12.1080367"><ele>125.0</ele><time>2026-05-01T09:00:19.914Z</time></trkpt><trkpt lat="42.7285217" lon="12.1082599"><ele>125.0</ele><time>2026-05-01T09:00:20.913Z</time></trkpt><trkpt lat="42.7284172" lon="12.1084955"><ele>125.66666666666666</ele><time>2026-05-01T09:00:21.914Z</time></trkpt><trkpt lat="42.7283283" lon="12.1087304"><ele>126.33333333333334</ele><time>2026-05-01T09:00:22.913Z</time></trkpt><trkpt lat="42.7282543" lon="12.1089572"><ele>127.0</ele><time>2026-05-01T09:00:23.914Z</time></trkpt><trkpt lat="42.7281763" lon="12.1091908"><ele>127.0</ele><time>2026-05-01T09:00:24.914Z</time></trkpt><trkpt lat="42.7281088" lon="12.1094395"><ele>127.0</ele><time>2026-05-01T09:00:25.914Z</time></trkpt><trkpt lat="42.7280418" lon="12.1097173"><ele>127.0</ele><time>2026-05-01T09:00:26.914Z</time></trkpt><trkpt lat="42.727977" lon="12.1100063"><ele>127.0</ele><time>2026-05-01T09:00:27.913Z</time></trkpt><trkpt lat="42.7279122" lon="12.1103023"><ele>127.0</ele><time>2026-05-01T09:00:28.914Z</time></trkpt><trkpt lat="42.7278499" lon="12.110605"><ele>125.5</ele><time>2026-05-01T09:00:29.914Z</time></trkpt><trkpt lat="42.7277967" lon="12.110913"><ele>124.0</ele><time>2026-05-01T09:00:30.914Z</time></trkpt><trkpt lat="42.7277543" lon="12.1112299"><ele>124.0</ele><time>2026-05-01T09:00:31.914Z</time></trkpt><trkpt lat="42.7277414" lon="12.1115389"><ele>124.0</ele><time>2026-05-01T09:00:32.914Z</time></trkpt><trkpt lat="42.7277603" lon="12.1118479"><ele>124.0</ele><time>2026-05-01T09:00:33.914Z</time></trkpt><trkpt lat="42.7277837" lon="12.1121408"><ele>124.0</ele><time>2026-05-01T09:00:34.914Z</time></trkpt><trkpt lat="42.7278037" lon="12.1124195"><ele>124.0</ele><time>2026-05-01T09:00:35.913Z</time></trkpt><trkpt lat="42.7278243" lon="12.1126972"><ele>124.0</ele><time>2026-05-01T09:00:36.914Z</time></trkpt><trkpt lat="42.7278432" lon="12.1129609"><ele>124.0</ele><time>2026-05-01T09:00:37.914Z</time></trkpt><trkpt lat="42.7278588" lon="12.1132259"><ele>124.0</ele><time>2026-05-01T09:00:38.913Z</time></trkpt><trkpt lat="42.7278717" lon="12.1134981"><ele>124.33333333333334</ele><time>2026-05-01T09:00:39.914Z</time></trkpt><trkpt lat="42.727887" lon="12.1137748"><ele>124.66666666666666</ele><time>2026-05-01T09:00:40.914Z</time></trkpt><trkpt lat="42.7279029" lon="12.1140616"><ele>125.0</ele><time>2026-05-01T09:00:41.914Z</time></trkpt><trkpt lat="42.7279186" lon="12.1143605"><ele>124.0</ele><time>2026-05-01T09:00:42.914Z</time></trkpt><trkpt lat="42.7279258" lon="12.1146727"><ele>123.0</ele><time>2026-05-01T09:00:43.914Z</time></trkpt><trkpt lat="42.7279318" lon="12.1149992"><ele>122.0</ele><time>2026-05-01T09:00:44.913Z</time></trkpt><trkpt lat="42.7279353" lon="12.1153183"><ele>121.0</ele><time>2026-05-01T09:00:45.914Z</time></trkpt><trkpt lat="42.7279394" lon="12.1156249"><ele>121.66666666666667</ele><time>2026-05-01T09:00:46.914Z</time></trkpt><trkpt lat="42.7279452" lon="12.1159275"><ele>122.33333333333334</ele><time>2026-05-01T09:00:47.914Z</time></trkpt><trkpt lat="42.7279439" lon="12.1162234"><ele>123.0</ele><time>2026-05-01T09:00:48.914Z</time></trkpt><trkpt lat="42.7279369" lon="12.1165263"><ele>122.66666666666666</ele><time>2026-05-01T09:00:49.914Z</time></trkpt><trkpt lat="42.72793" lon="12.1168212"><ele>122.33333333333333</ele><time>2026-05-01T09:00:50.913Z</time></trkpt><trkpt lat="42.7279186" lon="12.1171199"><ele>122.0</ele><time>2026-05-01T09:00:51.914Z</time></trkpt><trkpt lat="42.7279009" lon="12.1174378"><ele>121.5</ele><time>2026-05-01T09:00:52.914Z</time></trkpt><trkpt lat="42.7278626" lon="12.1177649"><ele>121.0</ele><time>2026-05-01T09:00:53.914Z</time></trkpt><trkpt lat="42.7278168" lon="12.1181181"><ele>120.0</ele><time>2026-05-01T09:00:54.914Z</time></trkpt><trkpt lat="42.7277489" lon="12.1184775"><ele>119.0</ele><time>2026-05-01T09:00:55.913Z</time></trkpt><trkpt lat="42.7276685" lon="12.118838"><ele>124.0</ele><time>2026-05-01T09:00:56.914Z</time></trkpt><trkpt lat="42.7275943" lon="12.1191797"><ele>129.0</ele><time>2026-05-01T09:00:57.913Z</time></trkpt><trkpt lat="42.7275214" lon="12.1195086"><ele>129.0</ele><time>2026-05-01T09:00:58.914Z</time></trkpt><trkpt lat="42.7274537" lon="12.1198006"><ele>129.0</ele><time>2026-05-01T09:00:59.913Z</time></trkpt><trkpt lat="42.7273862" lon="12.1200822"><ele>129.0</ele><time>2026-05-01T09:01:00.913Z</time></trkpt><trkpt lat="42.7273265" lon="12.1203507"><ele>127.33333333333334</ele><time>2026-05-01T09:01:01.914Z</time></trkpt><trkpt lat="42.7272675" lon="12.1205972"><ele>125.66666666666667</ele><time>2026-05-01T09:01:02.914Z</time></trkpt><trkpt lat="42.727203" lon="12.1208099"><ele>124.0</ele><time>2026-05-01T09:01:03.913Z</time></trkpt><trkpt lat="42.7271283" lon="12.1209957"><ele>124.0</ele><time>2026-05-01T09:01:04.914Z</time></trkpt><trkpt lat="42.727032" lon="12.121156"><ele>124.0</ele><time>2026-05-01T09:01:05.913Z</time></trkpt><trkpt lat="42.7269183" lon="12.1213274"><ele>124.0</ele><time>2026-05-01T09:01:06.913Z</time></trkpt><trkpt lat="42.726778" lon="12.1215143"><ele>126.66666666666667</ele><time>2026-05-01T09:01:07.914Z</time></trkpt><trkpt lat="42.7266472" lon="12.1217199"><ele>129.33333333333334</ele><time>2026-05-01T09:01:08.914Z</time></trkpt><trkpt lat="42.7265365" lon="12.1219465"><ele>132.0</ele><time>2026-05-01T09:01:09.914Z</time></trkpt><trkpt lat="42.7264523" lon="12.1221823"><ele>130.33333333333334</ele><time>2026-05-01T09:01:10.914Z</time></trkpt><trkpt lat="42.7263693" lon="12.1224151"><ele>128.66666666666669</ele><time>2026-05-01T09:01:11.914Z</time></trkpt><trkpt lat="42.7262817" lon="12.1226508"><ele>127.0</ele><time>2026-05-01T09:01:12.914Z</time></trkpt><trkpt lat="42.7261707" lon="12.1228723"><ele>128.66666666666669</ele><time>2026-05-01T09:01:13.914Z</time></trkpt><trkpt lat="42.7260323" lon="12.1230772"><ele>130.33333333333334</ele><time>2026-05-01T09:01:14.914Z</time></trkpt><trkpt lat="42.725887" lon="12.1232695"><ele>132.0</ele><time>2026-05-01T09:01:15.914Z</time></trkpt><trkpt lat="42.7257641" lon="12.1234642"><ele>132.0</ele><time>2026-05-01T09:01:16.913Z</time></trkpt><trkpt lat="42.7256427" lon="12.1236417"><ele>132.0</ele><time>2026-05-01T09:01:17.914Z</time></trkpt><trkpt lat="42.7255362" lon="12.1238023"><ele>132.0</ele><time>2026-05-01T09:01:18.914Z</time></trkpt><trkpt lat="42.7254306" lon="12.1239485"><ele>133.25</ele><time>2026-05-01T09:01:19.914Z</time></trkpt><trkpt lat="42.725316" lon="12.1240794"><ele>134.5</ele><time>2026-05-01T09:01:20.914Z</time></trkpt><trkpt lat="42.7252039" lon="12.1242018"><ele>135.75</ele><time>2026-05-01T09:01:21.913Z</time></trkpt><trkpt lat="42.7250715" lon="12.1243099"><ele>137.0</ele><time>2026-05-01T09:01:22.913Z</time></trkpt><trkpt lat="42.7249343" lon="12.1244172"><ele>137.0</ele><time>2026-05-01T09:01:23.914Z</time></trkpt><trkpt lat="42.724796" lon="12.1245179"><ele>137.0</ele><time>2026-05-01T09:01:24.914Z</time></trkpt><trkpt lat="42.7247098" lon="12.1245976"><ele>137.0</ele><time>2026-05-01T09:01:25.914Z</time></trkpt><trkpt lat="42.7246355" lon="12.1246306"><ele>137.0</ele><time>2026-05-01T09:01:26.913Z</time></trkpt><trkpt lat="42.7245369" lon="12.1246674"><ele>137.0</ele><time>2026-05-01T09:01:28.914Z</time></trkpt><trkpt lat="42.7243436" lon="12.1248073"><ele>136.79999999999998</ele><time>2026-05-01T09:02:03.914Z</time></trkpt><trkpt lat="42.7242378" lon="12.1248997"><ele>136.6</ele><time>2026-05-01T09:02:05.914Z</time></trkpt><trkpt lat="42.724172" lon="12.1249735"><ele>136.39999999999998</ele><time>2026-05-01T09:02:06.913Z</time></trkpt><trkpt lat="42.724087" lon="12.1250504"><ele>136.2</ele><time>2026-05-01T09:02:07.914Z</time></trkpt><trkpt lat="42.72399" lon="12.125134"><ele>136.0</ele><time>2026-05-01T09:02:08.913Z</time></trkpt><trkpt lat="42.7238905" lon="12.1252195"><ele>136.0</ele><time>2026-05-01T09:02:09.914Z</time></trkpt><trkpt lat="42.7237776" lon="12.1253105"><ele>136.0</ele><time>2026-05-01T09:02:10.914Z</time></trkpt><trkpt lat="42.7236703" lon="12.1253879"><ele>136.0</ele><time>2026-05-01T09:02:11.913Z</time></trkpt><trkpt lat="42.7235549" lon="12.1254615"><ele>136.0</ele><time>2026-05-01T09:02:12.914Z</time></trkpt><trkpt lat="42.7234416" lon="12.1255521"><ele>135.0</ele><time>2026-05-01T09:02:13.914Z</time></trkpt><trkpt lat="42.7233381" lon="12.1256577"><ele>134.0</ele><time>2026-05-01T09:02:14.914Z</time></trkpt><trkpt lat="42.7232458" lon="12.125769"><ele>133.0</ele><time>2026-05-01T09:02:15.914Z</time></trkpt><trkpt lat="42.7231601" lon="12.1258934"><ele>132.0</ele><time>2026-05-01T09:02:16.913Z</time></trkpt><trkpt lat="42.7230747" lon="12.1260375"><ele>132.0</ele><time>2026-05-01T09:02:17.914Z</time></trkpt><trkpt lat="42.7229892" lon="12.1261866"><ele>132.0</ele><time>2026-05-01T09:02:18.914Z</time></trkpt><trkpt lat="42.7229" lon="12.1263282"><ele>132.0</ele><time>2026-05-01T09:02:19.914Z</time></trkpt><trkpt lat="42.7228075" lon="12.1264683"><ele>132.0</ele><time>2026-05-01T09:02:20.914Z</time></trkpt><trkpt lat="42.7227224" lon="12.1266208"><ele>132.0</ele><time>2026-05-01T09:02:21.913Z</time></trkpt><trkpt lat="42.7226385" lon="12.1267623"><ele>132.0</ele><time>2026-05-01T09:02:22.914Z</time></trkpt><trkpt lat="42.7225823" lon="12.126892"><ele>132.0</ele><time>2026-05-01T09:02:23.913Z</time></trkpt><trkpt lat="42.7225356" lon="12.1270198"><ele>132.0</ele><time>2026-05-01T09:02:24.914Z</time></trkpt><trkpt lat="42.7224989" lon="12.127158"><ele>132.0</ele><time>2026-05-01T09:02:25.914Z</time></trkpt><trkpt lat="42.7224856" lon="12.1272926"><ele>132.0</ele><time>2026-05-01T09:02:26.914Z</time></trkpt><trkpt lat="42.722467" lon="12.1274099"><ele>132.0</ele><time>2026-05-01T09:02:27.913Z</time></trkpt><trkpt lat="42.7224347" lon="12.127526"><ele>132.0</ele><time>2026-05-01T09:02:28.913Z</time></trkpt><trkpt lat="42.7224008" lon="12.1276412"><ele>132.0</ele><time>2026-05-01T09:02:29.914Z</time></trkpt><trkpt lat="42.7223689" lon="12.1277583"><ele>130.6</ele><time>2026-05-01T09:02:30.913Z</time></trkpt><trkpt lat="42.7223303" lon="12.1278727"><ele>129.2</ele><time>2026-05-01T09:02:31.913Z</time></trkpt><trkpt lat="42.7222691" lon="12.1279853"><ele>127.8</ele><time>2026-05-01T09:02:32.914Z</time></trkpt><trkpt lat="42.722204" lon="12.1280962"><ele>126.4</ele><time>2026-05-01T09:02:33.914Z</time></trkpt><trkpt lat="42.7221526" lon="12.1282067"><ele>125.0</ele><time>2026-05-01T09:02:34.914Z</time></trkpt><trkpt lat="42.7220943" lon="12.1283247"><ele>124.8</ele><time>2026-05-01T09:02:35.913Z</time></trkpt><trkpt lat="42.7220358" lon="12.1284445"><ele>124.6</ele><time>2026-05-01T09:02:36.913Z</time></trkpt><trkpt lat="42.7219705" lon="12.1285587"><ele>124.4</ele><time>2026-05-01T09:02:37.913Z</time></trkpt><trkpt lat="42.7219053" lon="12.1286731"><ele>124.2</ele><time>2026-05-01T09:02:38.914Z</time></trkpt><trkpt lat="42.7218439" lon="12.1287918"><ele>124.0</ele><time>2026-05-01T09:02:39.914Z</time></trkpt><trkpt lat="42.7217771" lon="12.1288976"><ele>124.0</ele><time>2026-05-01T09:02:40.914Z</time></trkpt><trkpt lat="42.7217079" lon="12.1290179"><ele>124.0</ele><time>2026-05-01T09:02:41.914Z</time></trkpt><trkpt lat="42.7216404" lon="12.1291404"><ele>124.0</ele><time>2026-05-01T09:02:42.914Z</time></trkpt><trkpt lat="42.7215942" lon="12.1292829"><ele>124.0</ele><time>2026-05-01T09:02:43.914Z</time></trkpt><trkpt lat="42.7215743" lon="12.1294412"><ele>124.0</ele><time>2026-05-01T09:02:44.913Z</time></trkpt><trkpt lat="42.7215692" lon="12.129605"><ele>124.0</ele><time>2026-05-01T09:02:45.914Z</time></trkpt><trkpt lat="42.7215828" lon="12.1297817"><ele>124.0</ele><time>2026-05-01T09:02:46.914Z</time></trkpt><trkpt lat="42.7216272" lon="12.1299459"><ele>124.0</ele><time>2026-05-01T09:02:47.914Z</time></trkpt><trkpt lat="42.7216863" lon="12.1301054"><ele>123.75</ele><time>2026-05-01T09:02:48.914Z</time></trkpt><trkpt lat="42.7217454" lon="12.1302593"><ele>123.5</ele><time>2026-05-01T09:02:49.914Z</time></trkpt><trkpt lat="42.7218102" lon="12.1303926"><ele>123.25</ele><time>2026-05-01T09:02:50.914Z</time></trkpt><trkpt lat="42.72189" lon="12.1305148"><ele>123.0</ele><time>2026-05-01T09:02:51.914Z</time></trkpt><trkpt lat="42.7219722" lon="12.1306592"><ele>122.5</ele><time>2026-05-01T09:02:52.913Z</time></trkpt><trkpt lat="42.7220347" lon="12.1308187"><ele>122.0</ele><time>2026-05-01T09:02:53.913Z</time></trkpt><trkpt lat="42.7220639" lon="12.130983"><ele>121.5</ele><time>2026-05-01T09:02:54.913Z</time></trkpt><trkpt lat="42.7220642" lon="12.1311455"><ele>121.0</ele><time>2026-05-01T09:02:55.914Z</time></trkpt><trkpt lat="42.7220487" lon="12.1312959"><ele>121.0</ele><time>2026-05-01T09:02:56.914Z</time></trkpt><trkpt lat="42.721999" lon="12.1314363"><ele>121.0</ele><time>2026-05-01T09:02:57.913Z</time></trkpt><trkpt lat="42.7219201" lon="12.131577"><ele>121.0</ele><time>2026-05-01T09:02:58.914Z</time></trkpt><trkpt lat="42.7218501" lon="12.131725"><ele>121.0</ele><time>2026-05-01T09:02:59.914Z</time></trkpt><trkpt lat="42.7217804" lon="12.1318724"><ele>121.25</ele><time>2026-05-01T09:03:00.914Z</time></trkpt><trkpt lat="42.7217118" lon="12.13204"><ele>121.5</ele><time>2026-05-01T09:03:01.914Z</time></trkpt><trkpt lat="42.7216385" lon="12.1322"><ele>121.75</ele><time>2026-05-01T09:03:02.914Z</time></trkpt><trkpt lat="42.7215781" lon="12.1323564"><ele>122.0</ele><time>2026-05-01T09:03:03.914Z</time></trkpt><trkpt lat="42.7215122" lon="12.1325095"><ele>121.5</ele><time>2026-05-01T09:03:04.913Z</time></trkpt><trkpt lat="42.7214595" lon="12.132657"><ele>121.0</ele><time>2026-05-01T09:03:05.914Z</time></trkpt><trkpt lat="42.7214178" lon="12.1328028"><ele>120.5</ele><time>2026-05-01T09:03:06.914Z</time></trkpt><trkpt lat="42.7213831" lon="12.1329589"><ele>120.0</ele><time>2026-05-01T09:03:07.914Z</time></trkpt><trkpt lat="42.721345" lon="12.1331148"><ele>119.5</ele><time>2026-05-01T09:03:08.914Z</time></trkpt><trkpt lat="42.721316" lon="12.133261"><ele>119.0</ele><time>2026-05-01T09:03:09.913Z</time></trkpt><trkpt lat="42.7213006" lon="12.1333933"><ele>118.5</ele><time>2026-05-01T09:03:10.913Z</time></trkpt><trkpt lat="42.7212958" lon="12.133502"><ele>118.0</ele><time>2026-05-01T09:03:11.913Z</time></trkpt><trkpt lat="42.7213029" lon="12.1335952"><ele>117.5</ele><time>2026-05-01T09:03:12.914Z</time></trkpt><trkpt lat="42.7213083" lon="12.1336841"><ele>117.0</ele><time>2026-05-01T09:03:13.914Z</time></trkpt><trkpt lat="42.7213253" lon="12.1338429"><ele>117.0</ele><time>2026-05-01T09:03:15.913Z</time></trkpt><trkpt lat="42.7213357" lon="12.1340077"><ele>117.0</ele><time>2026-05-01T09:03:17.914Z</time></trkpt><trkpt lat="42.7213275" lon="12.1340973"><ele>117.0</ele><time>2026-05-01T09:03:18.914Z</time></trkpt><trkpt lat="42.7213107" lon="12.1341975"><ele>117.0</ele><time>2026-05-01T09:03:19.914Z</time></trkpt><trkpt lat="42.7212983" lon="12.1343017"><ele>117.0</ele><time>2026-05-01T09:03:20.913Z</time></trkpt><trkpt lat="42.7212895" lon="12.134425"><ele>117.0</ele><time>2026-05-01T09:03:21.913Z</time></trkpt><trkpt lat="42.7212809" lon="12.1345456"><ele>116.8</ele><time>2026-05-01T09:03:22.914Z</time></trkpt><trkpt lat="42.7212704" lon="12.1346769"><ele>116.6</ele><time>2026-05-01T09:03:23.914Z</time></trkpt><trkpt lat="42.7212596" lon="12.1348073"><ele>116.39999999999999</ele><time>2026-05-01T09:03:24.914Z</time></trkpt><trkpt lat="42.7212546" lon="12.1349357"><ele>116.19999999999999</ele><time>2026-05-01T09:03:25.913Z</time></trkpt><trkpt lat="42.7212495" lon="12.1350542"><ele>116.0</ele><time>2026-05-01T09:03:26.914Z</time></trkpt><trkpt lat="42.7212435" lon="12.1351708"><ele>116.0</ele><time>2026-05-01T09:03:27.914Z</time></trkpt><trkpt lat="42.7212349" lon="12.1352621"><ele>116.0</ele><time>2026-05-01T09:03:28.913Z</time></trkpt><trkpt lat="42.7212306" lon="12.1354273"><ele>116.0</ele><time>2026-05-01T09:03:46.914Z</time></trkpt><trkpt lat="42.7211985" lon="12.1355899"><ele>116.0</ele><time>2026-05-01T09:03:48.914Z</time></trkpt><trkpt lat="42.7211721" lon="12.1356816"><ele>116.0</ele><time>2026-05-01T09:03:49.914Z</time></trkpt><trkpt lat="42.7211386" lon="12.1357896"><ele>116.0</ele><time>2026-05-01T09:03:50.914Z</time></trkpt><trkpt lat="42.7211007" lon="12.1359057"><ele>116.0</ele><time>2026-05-01T09:03:51.913Z</time></trkpt><trkpt lat="42.7210418" lon="12.1360099"><ele>116.0</ele><time>2026-05-01T09:03:52.914Z</time></trkpt><trkpt lat="42.7209843" lon="12.1361332"><ele>116.0</ele><time>2026-05-01T09:03:53.914Z</time></trkpt><trkpt lat="42.7209242" lon="12.1362467"><ele>116.0</ele><time>2026-05-01T09:03:54.914Z</time></trkpt><trkpt lat="42.7208513" lon="12.1363566"><ele>116.0</ele><time>2026-05-01T09:03:55.914Z</time></trkpt><trkpt lat="42.7207836" lon="12.1364629"><ele>116.0</ele><time>2026-05-01T09:03:56.914Z</time></trkpt><trkpt lat="42.7207116" lon="12.136563"><ele>116.0</ele><time>2026-05-01T09:03:57.913Z</time></trkpt><trkpt lat="42.7206383" lon="12.1366569"><ele>116.0</ele><time>2026-05-01T09:03:58.914Z</time></trkpt><trkpt lat="42.7205634" lon="12.136764"><ele>116.0</ele><time>2026-05-01T09:03:59.913Z</time></trkpt><trkpt lat="42.7204894" lon="12.1368819"><ele>116.0</ele><time>2026-05-01T09:04:00.914Z</time></trkpt><trkpt lat="42.7204118" lon="12.1369996"><ele>116.0</ele><time>2026-05-01T09:04:01.913Z</time></trkpt><trkpt lat="42.7203406" lon="12.1371281"><ele>116.0</ele><time>2026-05-01T09:04:02.914Z</time></trkpt><trkpt lat="42.7202663" lon="12.1372552"><ele>116.0</ele><time>2026-05-01T09:04:03.914Z</time></trkpt><trkpt lat="42.7201984" lon="12.1373761"><ele>116.0</ele><time>2026-05-01T09:04:04.913Z</time></trkpt><trkpt lat="42.7201276" lon="12.1374876"><ele>116.0</ele><time>2026-05-01T09:04:05.913Z</time></trkpt><trkpt lat="42.7200637" lon="12.1375988"><ele>116.0</ele><time>2026-05-01T09:04:06.914Z</time></trkpt><trkpt lat="42.7200064" lon="12.137703"><ele>116.0</ele><time>2026-05-01T09:04:07.914Z</time></trkpt><trkpt lat="42.7199485" lon="12.1378032"><ele>116.0</ele><time>2026-05-01T09:04:08.913Z</time></trkpt><trkpt lat="42.719894" lon="12.1379034"><ele>116.0</ele><time>2026-05-01T09:04:09.914Z</time></trkpt><trkpt lat="42.7198338" lon="12.1380139"><ele>116.0</ele><time>2026-05-01T09:04:10.914Z</time></trkpt><trkpt lat="42.7197683" lon="12.1381367"><ele>116.0</ele><time>2026-05-01T09:04:11.914Z</time></trkpt><trkpt lat="42.7197021" lon="12.1382615"><ele>116.0</ele><time>2026-05-01T09:04:12.913Z</time></trkpt><trkpt lat="42.7196318" lon="12.1383777"><ele>116.0</ele><time>2026-05-01T09:04:13.913Z</time></trkpt><trkpt lat="42.7195599" lon="12.1384985"><ele>115.25</ele><time>2026-05-01T09:04:14.914Z</time></trkpt><trkpt lat="42.7194871" lon="12.1386231"><ele>114.5</ele><time>2026-05-01T09:04:15.914Z</time></trkpt><trkpt lat="42.7194188" lon="12.1387491"><ele>113.75</ele><time>2026-05-01T09:04:16.913Z</time></trkpt><trkpt lat="42.7193486" lon="12.1388684"><ele>113.0</ele><time>2026-05-01T09:04:17.914Z</time></trkpt><trkpt lat="42.7192805" lon="12.1389922"><ele>113.75</ele><time>2026-05-01T09:04:18.914Z</time></trkpt><trkpt lat="42.71921" lon="12.1391206"><ele>114.5</ele><time>2026-05-01T09:04:19.913Z</time></trkpt><trkpt lat="42.7191311" lon="12.1392486"><ele>115.25</ele><time>2026-05-01T09:04:20.913Z</time></trkpt><trkpt lat="42.7190525" lon="12.1393806"><ele>116.0</ele><time>2026-05-01T09:04:21.914Z</time></trkpt><trkpt lat="42.7189717" lon="12.1395166"><ele>116.0</ele><time>2026-05-01T09:04:22.913Z</time></trkpt><trkpt lat="42.7188866" lon="12.1396627"><ele>116.0</ele><time>2026-05-01T09:04:23.914Z</time></trkpt><trkpt lat="42.7188011" lon="12.1398002"><ele>116.0</ele><time>2026-05-01T09:04:24.914Z</time></trkpt><trkpt lat="42.7187198" lon="12.1399419"><ele>116.0</ele><time>2026-05-01T09:04:25.914Z</time></trkpt><trkpt lat="42.7186369" lon="12.1400815"><ele>117.25</ele><time>2026-05-01T09:04:26.914Z</time></trkpt><trkpt lat="42.7185513" lon="12.1402198"><ele>118.5</ele><time>2026-05-01T09:04:27.913Z</time></trkpt><trkpt lat="42.7184652" lon="12.1403611"><ele>119.75</ele><time>2026-05-01T09:04:28.914Z</time></trkpt><trkpt lat="42.7183759" lon="12.140494"><ele>121.0</ele><time>2026-05-01T09:04:29.914Z</time></trkpt><trkpt lat="42.718296" lon="12.1406224"><ele>119.0</ele><time>2026-05-01T09:04:30.914Z</time></trkpt><trkpt lat="42.7182217" lon="12.1407502"><ele>117.0</ele><time>2026-05-01T09:04:31.914Z</time></trkpt><trkpt lat="42.7181595" lon="12.1408666"><ele>115.0</ele><time>2026-05-01T09:04:32.914Z</time></trkpt><trkpt lat="42.7181123" lon="12.1409657"><ele>113.0</ele><time>2026-05-01T09:04:33.914Z</time></trkpt><trkpt lat="42.718072" lon="12.1410596"><ele>111.0</ele><time>2026-05-01T09:04:34.914Z</time></trkpt><trkpt lat="42.7180205" lon="12.1411418"><ele>111.0</ele><time>2026-05-01T09:04:35.913Z</time></trkpt><trkpt lat="42.7179517" lon="12.1412241"><ele>111.0</ele><time>2026-05-01T09:04:36.914Z</time></trkpt><trkpt lat="42.7178791" lon="12.1413257"><ele>111.0</ele><time>2026-05-01T09:04:37.914Z</time></trkpt><trkpt lat="42.717812" lon="12.1414447"><ele>111.0</ele><time>2026-05-01T09:04:38.914Z</time></trkpt><trkpt lat="42.7177365" lon="12.1415659"><ele>111.0</ele><time>2026-05-01T09:04:39.914Z</time></trkpt><trkpt lat="42.7176529" lon="12.1416861"><ele>111.5</ele><time>2026-05-01T09:04:40.914Z</time></trkpt><trkpt lat="42.7175642" lon="12.1418094"><ele>112.0</ele><time>2026-05-01T09:04:41.914Z</time></trkpt><trkpt lat="42.7174762" lon="12.1419464"><ele>112.5</ele><time>2026-05-01T09:04:42.914Z</time></trkpt><trkpt lat="42.7173884" lon="12.1420848"><ele>113.0</ele><time>2026-05-01T09:04:43.914Z</time></trkpt><trkpt lat="42.7173119" lon="12.1422155"><ele>113.0</ele><time>2026-05-01T09:04:44.913Z</time></trkpt><trkpt lat="42.717232" lon="12.14234"><ele>113.0</ele><time>2026-05-01T09:04:45.913Z</time></trkpt><trkpt lat="42.7171585" lon="12.1424667"><ele>113.0</ele><time>2026-05-01T09:04:46.914Z</time></trkpt><trkpt lat="42.7170798" lon="12.1425936"><ele>113.0</ele><time>2026-05-01T09:04:47.914Z</time></trkpt><trkpt lat="42.7169984" lon="12.1427278"><ele>113.0</ele><time>2026-05-01T09:04:48.914Z</time></trkpt><trkpt lat="42.7169212" lon="12.142862"><ele>113.0</ele><time>2026-05-01T09:04:49.913Z</time></trkpt><trkpt lat="42.7168355" lon="12.1430091"><ele>113.0</ele><time>2026-05-01T09:04:50.913Z</time></trkpt><trkpt lat="42.7167438" lon="12.1431638"><ele>113.0</ele><time>2026-05-01T09:04:51.914Z</time></trkpt><trkpt lat="42.7166503" lon="12.1433247"><ele>112.75</ele><time>2026-05-01T09:04:52.914Z</time></trkpt><trkpt lat="42.7165598" lon="12.1434727"><ele>112.5</ele><time>2026-05-01T09:04:53.913Z</time></trkpt><trkpt lat="42.7164644" lon="12.1436094"><ele>112.25</ele><time>2026-05-01T09:04:54.913Z</time></trkpt><trkpt lat="42.7163762" lon="12.143762"><ele>112.0</ele><time>2026-05-01T09:04:55.914Z</time></trkpt><trkpt lat="42.7162771" lon="12.1439147"><ele>112.25</ele><time>2026-05-01T09:04:56.914Z</time></trkpt><trkpt lat="42.7161925" lon="12.1440527"><ele>112.5</ele><time>2026-05-01T09:04:57.914Z</time></trkpt><trkpt lat="42.7161173" lon="12.1441874"><ele>112.75</ele><time>2026-05-01T09:04:58.914Z</time></trkpt><trkpt lat="42.7160392" lon="12.1443171"><ele>113.0</ele><time>2026-05-01T09:04:59.913Z</time></trkpt><trkpt lat="42.7159632" lon="12.1444429"><ele>113.0</ele><time>2026-05-01T09:05:00.913Z</time></trkpt><trkpt lat="42.7158878" lon="12.1445682"><ele>113.0</ele><time>2026-05-01T09:05:01.913Z</time></trkpt><trkpt lat="42.7158087" lon="12.1446944"><ele>113.0</ele><time>2026-05-01T09:05:02.914Z</time></trkpt><trkpt lat="42.7157327" lon="12.1448274"><ele>113.0</ele><time>2026-05-01T09:05:03.913Z</time></trkpt><trkpt lat="42.7156492" lon="12.1449558"><ele>113.0</ele><time>2026-05-01T09:05:04.914Z</time></trkpt><trkpt lat="42.7155668" lon="12.1450864"><ele>113.0</ele><time>2026-05-01T09:05:05.913Z</time></trkpt><trkpt lat="42.7154848" lon="12.1452168"><ele>113.0</ele><time>2026-05-01T09:05:06.914Z</time></trkpt><trkpt lat="42.7154034" lon="12.1453484"><ele>113.0</ele><time>2026-05-01T09:05:07.913Z</time></trkpt><trkpt lat="42.7153291" lon="12.1454836"><ele>113.0</ele><time>2026-05-01T09:05:08.914Z</time></trkpt><trkpt lat="42.7152629" lon="12.1456035"><ele>113.00000000000001</ele><time>2026-05-01T09:05:09.913Z</time></trkpt><trkpt lat="42.7152017" lon="12.1457077"><ele>113.00000000000001</ele><time>2026-05-01T09:05:10.914Z</time></trkpt><trkpt lat="42.7151468" lon="12.1458035"><ele>113.0</ele><time>2026-05-01T09:05:11.913Z</time></trkpt><trkpt lat="42.7150902" lon="12.1458939"><ele>113.0</ele><time>2026-05-01T09:05:12.913Z</time></trkpt><trkpt lat="42.715038" lon="12.1459821"><ele>113.0</ele><time>2026-05-01T09:05:13.914Z</time></trkpt><trkpt lat="42.7149748" lon="12.1460776"><ele>113.00000000000001</ele><time>2026-05-01T09:05:14.913Z</time></trkpt><trkpt lat="42.7149135" lon="12.1461844"><ele>113.00000000000001</ele><time>2026-05-01T09:05:15.914Z</time></trkpt><trkpt lat="42.7148496" lon="12.1463003"><ele>113.0</ele><time>2026-05-01T09:05:16.914Z</time></trkpt><trkpt lat="42.714772" lon="12.1464196"><ele>113.0</ele><time>2026-05-01T09:05:17.914Z</time></trkpt><trkpt lat="42.7146745" lon="12.1465507"><ele>113.0</ele><time>2026-05-01T09:05:18.914Z</time></trkpt><trkpt lat="42.7145494" lon="12.1466918"><ele>113.0</ele><time>2026-05-01T09:05:19.914Z</time></trkpt><trkpt lat="42.7144049" lon="12.1468504"><ele>113.0</ele><time>2026-05-01T09:05:20.914Z</time></trkpt><trkpt lat="42.7142628" lon="12.1470102"><ele>114.0</ele><time>2026-05-01T09:05:21.914Z</time></trkpt><trkpt lat="42.7141184" lon="12.1471798"><ele>115.0</ele><time>2026-05-01T09:05:22.913Z</time></trkpt><trkpt lat="42.7139628" lon="12.1473565"><ele>116.0</ele><time>2026-05-01T09:05:23.914Z</time></trkpt><trkpt lat="42.7138189" lon="12.1475518"><ele>116.0</ele><time>2026-05-01T09:05:24.913Z</time></trkpt><trkpt lat="42.7136671" lon="12.1477463"><ele>116.0</ele><time>2026-05-01T09:05:25.914Z</time></trkpt><trkpt lat="42.7135208" lon="12.1479244"><ele>116.0</ele><time>2026-05-01T09:05:26.914Z</time></trkpt><trkpt lat="42.71339" lon="12.1480899"><ele>116.0</ele><time>2026-05-01T09:05:27.914Z</time></trkpt><trkpt lat="42.713279" lon="12.1482513"><ele>116.0</ele><time>2026-05-01T09:05:28.914Z</time></trkpt><trkpt lat="42.7131802" lon="12.1484128"><ele>116.0</ele><time>2026-05-01T09:05:29.914Z</time></trkpt><trkpt lat="42.7130921" lon="12.1485932"><ele>116.0</ele><time>2026-05-01T09:05:30.914Z</time></trkpt><trkpt lat="42.7130198" lon="12.1487822"><ele>116.0</ele><time>2026-05-01T09:05:31.914Z</time></trkpt><trkpt lat="42.7129642" lon="12.1489744"><ele>116.0</ele><time>2026-05-01T09:05:32.914Z</time></trkpt><trkpt lat="42.7129146" lon="12.1491659"><ele>115.75</ele><time>2026-05-01T09:05:33.914Z</time></trkpt><trkpt lat="42.7128725" lon="12.1493405"><ele>115.5</ele><time>2026-05-01T09:05:34.914Z</time></trkpt><trkpt lat="42.7128198" lon="12.1495103"><ele>115.25</ele><time>2026-05-01T09:05:35.914Z</time></trkpt><trkpt lat="42.7127574" lon="12.1496732"><ele>115.0</ele><time>2026-05-01T09:05:36.913Z</time></trkpt><trkpt lat="42.7126891" lon="12.1498351"><ele>114.5</ele><time>2026-05-01T09:05:37.914Z</time></trkpt><trkpt lat="42.7126101" lon="12.1499845"><ele>114.0</ele><time>2026-05-01T09:05:38.913Z</time></trkpt><trkpt lat="42.7125152" lon="12.1501179"><ele>113.5</ele><time>2026-05-01T09:05:39.914Z</time></trkpt><trkpt lat="42.7124196" lon="12.150255"><ele>113.0</ele><time>2026-05-01T09:05:40.914Z</time></trkpt><trkpt lat="42.7123231" lon="12.1503955"><ele>113.0</ele><time>2026-05-01T09:05:41.914Z</time></trkpt><trkpt lat="42.712242" lon="12.1505313"><ele>113.0</ele><time>2026-05-01T09:05:42.913Z</time></trkpt><trkpt lat="42.7121548" lon="12.1506673"><ele>113.0</ele><time>2026-05-01T09:05:43.914Z</time></trkpt><trkpt lat="42.71208" lon="12.1508015"><ele>113.0</ele><time>2026-05-01T09:05:44.914Z</time></trkpt><trkpt lat="42.712012" lon="12.1509435"><ele>113.66666666666666</ele><time>2026-05-01T09:05:45.913Z</time></trkpt><trkpt lat="42.7119266" lon="12.1511036"><ele>114.33333333333334</ele><time>2026-05-01T09:05:46.914Z</time></trkpt><trkpt lat="42.7118432" lon="12.1512879"><ele>115.0</ele><time>2026-05-01T09:05:47.914Z</time></trkpt><trkpt lat="42.7117629" lon="12.1514638"><ele>114.0</ele><time>2026-05-01T09:05:48.914Z</time></trkpt><trkpt lat="42.7116881" lon="12.1516173"><ele>113.0</ele><time>2026-05-01T09:05:49.914Z</time></trkpt><trkpt lat="42.7116132" lon="12.1517771"><ele>112.0</ele><time>2026-05-01T09:05:50.914Z</time></trkpt><trkpt lat="42.7115472" lon="12.1519408"><ele>111.0</ele><time>2026-05-01T09:05:51.914Z</time></trkpt><trkpt lat="42.711476" lon="12.1520949"><ele>111.0</ele><time>2026-05-01T09:05:52.913Z</time></trkpt><trkpt lat="42.7113973" lon="12.1522583"><ele>111.0</ele><time>2026-05-01T09:05:53.913Z</time></trkpt><trkpt lat="42.7113196" lon="12.1524248"><ele>111.0</ele><time>2026-05-01T09:05:54.914Z</time></trkpt><trkpt lat="42.7112354" lon="12.1525892"><ele>111.0</ele><time>2026-05-01T09:05:55.914Z</time></trkpt><trkpt lat="42.7111635" lon="12.1527543"><ele>111.0</ele><time>2026-05-01T09:05:56.914Z</time></trkpt><trkpt lat="42.7110908" lon="12.1529046"><ele>111.0</ele><time>2026-05-01T09:05:57.914Z</time></trkpt><trkpt lat="42.7110111" lon="12.1530788"><ele>111.0</ele><time>2026-05-01T09:05:58.914Z</time></trkpt><trkpt lat="42.7109283" lon="12.153245"><ele>111.0</ele><time>2026-05-01T09:05:59.913Z</time></trkpt><trkpt lat="42.7108421" lon="12.1534093"><ele>110.5</ele><time>2026-05-01T09:06:00.915Z</time></trkpt><trkpt lat="42.7107383" lon="12.1535525"><ele>110.0</ele><time>2026-05-01T09:06:01.915Z</time></trkpt><trkpt lat="42.7106331" lon="12.153687"><ele>109.5</ele><time>2026-05-01T09:06:02.914Z</time></trkpt><trkpt lat="42.7105264" lon="12.1538071"><ele>109.0</ele><time>2026-05-01T09:06:03.915Z</time></trkpt><trkpt lat="42.710414" lon="12.1539261"><ele>109.33333333333334</ele><time>2026-05-01T09:06:04.915Z</time></trkpt><trkpt lat="42.7103026" lon="12.1540573"><ele>109.66666666666666</ele><time>2026-05-01T09:06:05.915Z</time></trkpt><trkpt lat="42.7101823" lon="12.1541993"><ele>110.0</ele><time>2026-05-01T09:06:06.915Z</time></trkpt><trkpt lat="42.7100641" lon="12.1543401"><ele>111.0</ele><time>2026-05-01T09:06:07.914Z</time></trkpt><trkpt lat="42.7099418" lon="12.154475"><ele>112.0</ele><time>2026-05-01T09:06:08.914Z</time></trkpt><trkpt lat="42.7098214" lon="12.1546234"><ele>113.0</ele><time>2026-05-01T09:06:09.915Z</time></trkpt><trkpt lat="42.7096992" lon="12.1547735"><ele>113.66666666666666</ele><time>2026-05-01T09:06:10.915Z</time></trkpt><trkpt lat="42.7095758" lon="12.1549269"><ele>114.33333333333334</ele><time>2026-05-01T09:06:11.915Z</time></trkpt><trkpt lat="42.7094519" lon="12.1550768"><ele>115.0</ele><time>2026-05-01T09:06:12.915Z</time></trkpt><trkpt lat="42.7093241" lon="12.1552302"><ele>115.0</ele><time>2026-05-01T09:06:13.914Z</time></trkpt><trkpt lat="42.709196" lon="12.1553797"><ele>115.0</ele><time>2026-05-01T09:06:14.915Z</time></trkpt><trkpt lat="42.709068" lon="12.1555371"><ele>115.0</ele><time>2026-05-01T09:06:15.914Z</time></trkpt><trkpt lat="42.7089338" lon="12.1556962"><ele>115.33333333333334</ele><time>2026-05-01T09:06:16.915Z</time></trkpt><trkpt lat="42.7087991" lon="12.1558519"><ele>115.66666666666666</ele><time>2026-05-01T09:06:17.915Z</time></trkpt><trkpt lat="42.708664" lon="12.1560119"><ele>116.0</ele><time>2026-05-01T09:06:18.915Z</time></trkpt><trkpt lat="42.7085293" lon="12.156167"><ele>116.0</ele><time>2026-05-01T09:06:19.915Z</time></trkpt><trkpt lat="42.7083958" lon="12.1563285"><ele>116.0</ele><time>2026-05-01T09:06:20.915Z</time></trkpt><trkpt lat="42.7082588" lon="12.1564882"><ele>116.0</ele><time>2026-05-01T09:06:21.915Z</time></trkpt><trkpt lat="42.7081178" lon="12.1566607"><ele>117.0</ele><time>2026-05-01T09:06:22.915Z</time></trkpt><trkpt lat="42.7079711" lon="12.1568511"><ele>118.0</ele><time>2026-05-01T09:06:23.915Z</time></trkpt><trkpt lat="42.7078006" lon="12.1570803"><ele>119.0</ele><time>2026-05-01T09:06:24.915Z</time></trkpt><trkpt lat="42.7076149" lon="12.1573078"><ele>115.5</ele><time>2026-05-01T09:06:25.915Z</time></trkpt><trkpt lat="42.7074092" lon="12.1575331"><ele>112.0</ele><time>2026-05-01T09:06:26.915Z</time></trkpt><trkpt lat="42.707199" lon="12.1577572"><ele>112.0</ele><time>2026-05-01T09:06:27.914Z</time></trkpt><trkpt lat="42.7069906" lon="12.1579957"><ele>112.0</ele><time>2026-05-01T09:06:28.915Z</time></trkpt><trkpt lat="42.7067851" lon="12.1582434"><ele>112.0</ele><time>2026-05-01T09:06:29.915Z</time></trkpt><trkpt lat="42.7065842" lon="12.1584955"><ele>112.0</ele><time>2026-05-01T09:06:30.914Z</time></trkpt><trkpt lat="42.7063966" lon="12.1587498"><ele>112.0</ele><time>2026-05-01T09:06:31.914Z</time></trkpt><trkpt lat="42.7062176" lon="12.1590303"><ele>112.0</ele><time>2026-05-01T09:06:32.915Z</time></trkpt><trkpt lat="42.7060417" lon="12.1593258"><ele>112.5</ele><time>2026-05-01T09:06:33.915Z</time></trkpt><trkpt lat="42.7058726" lon="12.1596105"><ele>113.0</ele><time>2026-05-01T09:06:34.914Z</time></trkpt><trkpt lat="42.7057172" lon="12.1599183"><ele>111.0</ele><time>2026-05-01T09:06:35.914Z</time></trkpt><trkpt lat="42.7055651" lon="12.1602214"><ele>109.0</ele><time>2026-05-01T09:06:36.915Z</time></trkpt><trkpt lat="42.7054181" lon="12.1605163"><ele>108.5</ele><time>2026-05-01T09:06:37.915Z</time></trkpt><trkpt lat="42.7052725" lon="12.1608088"><ele>108.0</ele><time>2026-05-01T09:06:38.915Z</time></trkpt><trkpt lat="42.7051419" lon="12.1611037"><ele>109.0</ele><time>2026-05-01T09:06:39.915Z</time></trkpt><trkpt lat="42.7050188" lon="12.161395"><ele>110.0</ele><time>2026-05-01T09:06:40.914Z</time></trkpt><trkpt lat="42.7049129" lon="12.1616993"><ele>110.0</ele><time>2026-05-01T09:06:41.914Z</time></trkpt><trkpt lat="42.7047964" lon="12.1619945"><ele>110.0</ele><time>2026-05-01T09:06:42.915Z</time></trkpt><trkpt lat="42.7046656" lon="12.1622852"><ele>110.5</ele><time>2026-05-01T09:06:43.915Z</time></trkpt><trkpt lat="42.70453" lon="12.1625683"><ele>111.0</ele><time>2026-05-01T09:06:44.914Z</time></trkpt><trkpt lat="42.7043881" lon="12.1628544"><ele>111.0</ele><time>2026-05-01T09:06:45.915Z</time></trkpt><trkpt lat="42.7042498" lon="12.1631446"><ele>111.0</ele><time>2026-05-01T09:06:46.915Z</time></trkpt><trkpt lat="42.7041178" lon="12.1634612"><ele>111.0</ele><time>2026-05-01T09:06:47.914Z</time></trkpt><trkpt lat="42.7039945" lon="12.163801"><ele>111.0</ele><time>2026-05-01T09:06:48.915Z</time></trkpt><trkpt lat="42.7038609" lon="12.1641617"><ele>110.5</ele><time>2026-05-01T09:06:49.915Z</time></trkpt><trkpt lat="42.7037288" lon="12.1645389"><ele>110.0</ele><time>2026-05-01T09:06:50.914Z</time></trkpt><trkpt lat="42.7035979" lon="12.1649182"><ele>112.0</ele><time>2026-05-01T09:06:51.915Z</time></trkpt><trkpt lat="42.7034697" lon="12.1653023"><ele>114.0</ele><time>2026-05-01T09:06:52.915Z</time></trkpt><trkpt lat="42.703331" lon="12.1656993"><ele>114.0</ele><time>2026-05-01T09:06:53.914Z</time></trkpt><trkpt lat="42.7031932" lon="12.166087"><ele>114.0</ele><time>2026-05-01T09:06:54.915Z</time></trkpt><trkpt lat="42.7030574" lon="12.1664631"><ele>111.5</ele><time>2026-05-01T09:06:55.915Z</time></trkpt><trkpt lat="42.7029256" lon="12.1668389"><ele>109.0</ele><time>2026-05-01T09:06:56.915Z</time></trkpt><trkpt lat="42.7028011" lon="12.1672146"><ele>118.0</ele><time>2026-05-01T09:06:57.915Z</time></trkpt><trkpt lat="42.7026812" lon="12.1675995"><ele>127.0</ele><time>2026-05-01T09:06:58.915Z</time></trkpt><trkpt lat="42.7025775" lon="12.1680016"><ele>122.0</ele><time>2026-05-01T09:06:59.915Z</time></trkpt><trkpt lat="42.7024775" lon="12.1684127"><ele>117.0</ele><time>2026-05-01T09:07:00.915Z</time></trkpt><trkpt lat="42.7023688" lon="12.1688365"><ele>113.5</ele><time>2026-05-01T09:07:01.915Z</time></trkpt><trkpt lat="42.7022626" lon="12.1692585"><ele>110.0</ele><time>2026-05-01T09:07:02.915Z</time></trkpt><trkpt lat="42.7021605" lon="12.1696775"><ele>108.0</ele><time>2026-05-01T09:07:03.914Z</time></trkpt><trkpt lat="42.7020636" lon="12.1700931"><ele>106.0</ele><time>2026-05-01T09:07:04.915Z</time></trkpt><trkpt lat="42.7019669" lon="12.1705022"><ele>112.0</ele><time>2026-05-01T09:07:05.915Z</time></trkpt><trkpt lat="42.7018653" lon="12.1708962"><ele>118.0</ele><time>2026-05-01T09:07:06.915Z</time></trkpt><trkpt lat="42.7017819" lon="12.1712836"><ele>114.5</ele><time>2026-05-01T09:07:07.915Z</time></trkpt><trkpt lat="42.7017023" lon="12.1716672"><ele>111.0</ele><time>2026-05-01T09:07:08.914Z</time></trkpt><trkpt lat="42.7016192" lon="12.1720469"><ele>110.0</ele><time>2026-05-01T09:07:09.915Z</time></trkpt><trkpt lat="42.7015401" lon="12.1724128"><ele>109.0</ele><time>2026-05-01T09:07:10.915Z</time></trkpt><trkpt lat="42.7014579" lon="12.1727652"><ele>109.0</ele><time>2026-05-01T09:07:11.915Z</time></trkpt><trkpt lat="42.7013789" lon="12.173113"><ele>109.0</ele><time>2026-05-01T09:07:12.915Z</time></trkpt><trkpt lat="42.7013" lon="12.1734541"><ele>108.5</ele><time>2026-05-01T09:07:13.915Z</time></trkpt><trkpt lat="42.7012165" lon="12.1737802"><ele>108.0</ele><time>2026-05-01T09:07:14.915Z</time></trkpt><trkpt lat="42.7011212" lon="12.1741058"><ele>110.0</ele><time>2026-05-01T09:07:15.915Z</time></trkpt><trkpt lat="42.7009966" lon="12.1744273"><ele>112.0</ele><time>2026-05-01T09:07:16.914Z</time></trkpt><trkpt lat="42.7008676" lon="12.1747424"><ele>110.5</ele><time>2026-05-01T09:07:17.915Z</time></trkpt><trkpt lat="42.7007448" lon="12.1750475"><ele>109.0</ele><time>2026-05-01T09:07:18.915Z</time></trkpt><trkpt lat="42.7006216" lon="12.1753449"><ele>109.0</ele><time>2026-05-01T09:07:19.915Z</time></trkpt><trkpt lat="42.7005032" lon="12.1756496"><ele>109.0</ele><time>2026-05-01T09:07:20.915Z</time></trkpt><trkpt lat="42.7003837" lon="12.1759673"><ele>110.0</ele><time>2026-05-01T09:07:21.915Z</time></trkpt><trkpt lat="42.7002633" lon="12.1762743"><ele>111.0</ele><time>2026-05-01T09:07:22.915Z</time></trkpt><trkpt lat="42.7001338" lon="12.1765719"><ele>111.0</ele><time>2026-05-01T09:07:23.915Z</time></trkpt><trkpt lat="42.7000176" lon="12.1768734"><ele>111.0</ele><time>2026-05-01T09:07:24.915Z</time></trkpt><trkpt lat="42.6999077" lon="12.177163"><ele>109.0</ele><time>2026-05-01T09:07:25.915Z</time></trkpt><trkpt lat="42.6997972" lon="12.1774614"><ele>107.0</ele><time>2026-05-01T09:07:26.915Z</time></trkpt><trkpt lat="42.699677" lon="12.177772"><ele>107.0</ele><time>2026-05-01T09:07:27.915Z</time></trkpt><trkpt lat="42.699554" lon="12.1781151"><ele>107.0</ele><time>2026-05-01T09:07:28.914Z</time></trkpt><trkpt lat="42.699423" lon="12.1784551"><ele>106.5</ele><time>2026-05-01T09:07:29.915Z</time></trkpt><trkpt lat="42.6992853" lon="12.1787942"><ele>106.0</ele><time>2026-05-01T09:07:30.915Z</time></trkpt><trkpt lat="42.69915" lon="12.1791423"><ele>106.0</ele><time>2026-05-01T09:07:31.914Z</time></trkpt><trkpt lat="42.6990078" lon="12.1794862"><ele>106.0</ele><time>2026-05-01T09:07:32.915Z</time></trkpt><trkpt lat="42.6988683" lon="12.1798297"><ele>104.5</ele><time>2026-05-01T09:07:33.915Z</time></trkpt><trkpt lat="42.6987248" lon="12.1801716"><ele>103.0</ele><time>2026-05-01T09:07:34.915Z</time></trkpt><trkpt lat="42.6985854" lon="12.1805137"><ele>105.0</ele><time>2026-05-01T09:07:35.915Z</time></trkpt><trkpt lat="42.6984523" lon="12.1808513"><ele>107.0</ele><time>2026-05-01T09:07:36.915Z</time></trkpt><trkpt lat="42.698321" lon="12.1811785"><ele>107.0</ele><time>2026-05-01T09:07:37.915Z</time></trkpt><trkpt lat="42.6981966" lon="12.1815076"><ele>107.0</ele><time>2026-05-01T09:07:38.915Z</time></trkpt><trkpt lat="42.6980576" lon="12.1818368"><ele>105.5</ele><time>2026-05-01T09:07:39.915Z</time></trkpt><trkpt lat="42.6979313" lon="12.1821739"><ele>104.0</ele><time>2026-05-01T09:07:40.915Z</time></trkpt><trkpt lat="42.6977985" lon="12.1825051"><ele>105.0</ele><time>2026-05-01T09:07:41.914Z</time></trkpt><trkpt lat="42.6976606" lon="12.1828314"><ele>106.0</ele><time>2026-05-01T09:07:42.915Z</time></trkpt><trkpt lat="42.6975353" lon="12.1831619"><ele>105.5</ele><time>2026-05-01T09:07:43.914Z</time></trkpt><trkpt lat="42.6974109" lon="12.1834898"><ele>105.0</ele><time>2026-05-01T09:07:44.915Z</time></trkpt><trkpt lat="42.6972876" lon="12.1838153"><ele>104.5</ele><time>2026-05-01T09:07:45.915Z</time></trkpt><trkpt lat="42.6971667" lon="12.1841536"><ele>104.0</ele><time>2026-05-01T09:07:46.915Z</time></trkpt><trkpt lat="42.6970625" lon="12.1844938"><ele>104.0</ele><time>2026-05-01T09:07:47.915Z</time></trkpt><trkpt lat="42.696945" lon="12.1848382"><ele>104.0</ele><time>2026-05-01T09:07:48.915Z</time></trkpt><trkpt lat="42.696829" lon="12.1851782"><ele>105.0</ele><time>2026-05-01T09:07:49.915Z</time></trkpt><trkpt lat="42.6967142" lon="12.1855036"><ele>106.0</ele><time>2026-05-01T09:07:50.915Z</time></trkpt><trkpt lat="42.6966064" lon="12.1858173"><ele>106.0</ele><time>2026-05-01T09:07:51.915Z</time></trkpt><trkpt lat="42.696503" lon="12.1861067"><ele>106.0</ele><time>2026-05-01T09:07:52.914Z</time></trkpt><trkpt lat="42.6964183" lon="12.1863859"><ele>106.0</ele><time>2026-05-01T09:07:53.915Z</time></trkpt><trkpt lat="42.6963371" lon="12.1866557"><ele>106.0</ele><time>2026-05-01T09:07:54.914Z</time></trkpt><trkpt lat="42.6962506" lon="12.1869447"><ele>106.0</ele><time>2026-05-01T09:07:55.915Z</time></trkpt><trkpt lat="42.6961751" lon="12.187237"><ele>105.33333333333334</ele><time>2026-05-01T09:07:56.914Z</time></trkpt><trkpt lat="42.6961076" lon="12.187523"><ele>104.66666666666666</ele><time>2026-05-01T09:07:57.915Z</time></trkpt><trkpt lat="42.6960612" lon="12.1877987"><ele>104.0</ele><time>2026-05-01T09:07:58.915Z</time></trkpt><trkpt lat="42.6960309" lon="12.1880565"><ele>110.0</ele><time>2026-05-01T09:07:59.915Z</time></trkpt><trkpt lat="42.6960208" lon="12.1882913"><ele>116.0</ele><time>2026-05-01T09:08:00.915Z</time></trkpt><trkpt lat="42.6960064" lon="12.188483"><ele>122.0</ele><time>2026-05-01T09:08:01.914Z</time></trkpt><trkpt lat="42.6959921" lon="12.1886228"><ele>128.0</ele><time>2026-05-01T09:08:02.915Z</time></trkpt><trkpt lat="42.6959754" lon="12.1887065"><ele>127.99999999999999</ele><time>2026-05-01T09:08:03.915Z</time></trkpt><trkpt lat="42.6959391" lon="12.1888179"><ele>128.0</ele><time>2026-05-01T09:08:05.914Z</time></trkpt><trkpt lat="42.6958697" lon="12.1889301"><ele>128.0</ele><time>2026-05-01T09:10:28.915Z</time></trkpt><trkpt lat="42.6958113" lon="12.1890612"><ele>128.0</ele><time>2026-05-01T09:10:30.915Z</time></trkpt><trkpt lat="42.695773" lon="12.189131"><ele>127.99999999999999</ele><time>2026-05-01T09:10:31.915Z</time></trkpt><trkpt lat="42.6957279" lon="12.1892063"><ele>128.0</ele><time>2026-05-01T09:10:32.915Z</time></trkpt><trkpt lat="42.695677" lon="12.1892814"><ele>125.4</ele><time>2026-05-01T09:10:33.915Z</time></trkpt><trkpt lat="42.695635" lon="12.1893683"><ele>122.80000000000001</ele><time>2026-05-01T09:10:34.915Z</time></trkpt><trkpt lat="42.6955772" lon="12.1894668"><ele>120.2</ele><time>2026-05-01T09:10:35.914Z</time></trkpt><trkpt lat="42.6955126" lon="12.1895539"><ele>117.6</ele><time>2026-05-01T09:10:36.914Z</time></trkpt><trkpt lat="42.6954368" lon="12.189649"><ele>115.0</ele><time>2026-05-01T09:10:37.915Z</time></trkpt><trkpt lat="42.6953687" lon="12.1897326"><ele>115.0</ele><time>2026-05-01T09:10:38.915Z</time></trkpt><trkpt lat="42.6952893" lon="12.1898097"><ele>115.0</ele><time>2026-05-01T09:10:39.915Z</time></trkpt><trkpt lat="42.695207" lon="12.1898879"><ele>115.0</ele><time>2026-05-01T09:10:40.915Z</time></trkpt><trkpt lat="42.695121" lon="12.1899676"><ele>115.0</ele><time>2026-05-01T09:10:41.914Z</time></trkpt><trkpt lat="42.6950392" lon="12.1900339"><ele>115.0</ele><time>2026-05-01T09:10:42.915Z</time></trkpt><trkpt lat="42.6949607" lon="12.1900723"><ele>115.83333333333334</ele><time>2026-05-01T09:10:43.915Z</time></trkpt><trkpt lat="42.6948755" lon="12.1900982"><ele>116.66666666666667</ele><time>2026-05-01T09:10:44.914Z</time></trkpt><trkpt lat="42.6947893" lon="12.1900942"><ele>117.5</ele><time>2026-05-01T09:10:45.914Z</time></trkpt><trkpt lat="42.6947018" lon="12.1900804"><ele>118.33333333333334</ele><time>2026-05-01T09:10:46.914Z</time></trkpt><trkpt lat="42.6946202" lon="12.1900968"><ele>119.16666666666667</ele><time>2026-05-01T09:10:47.915Z</time></trkpt><trkpt lat="42.6945485" lon="12.1901494"><ele>120.0</ele><time>2026-05-01T09:10:48.915Z</time></trkpt><trkpt lat="42.69449" lon="12.1902379"><ele>120.0</ele><time>2026-05-01T09:10:49.915Z</time></trkpt><trkpt lat="42.6944443" lon="12.1903477"><ele>120.0</ele><time>2026-05-01T09:10:50.915Z</time></trkpt><trkpt lat="42.6944085" lon="12.1904603"><ele>120.0</ele><time>2026-05-01T09:10:51.914Z</time></trkpt><trkpt lat="42.6943646" lon="12.1905769"><ele>120.0</ele><time>2026-05-01T09:10:52.914Z</time></trkpt><trkpt lat="42.6943244" lon="12.1906846"><ele>120.0</ele><time>2026-05-01T09:10:53.915Z</time></trkpt><trkpt lat="42.6942756" lon="12.1907977"><ele>120.5</ele><time>2026-05-01T09:10:54.915Z</time></trkpt><trkpt lat="42.6942218" lon="12.1909284"><ele>121.0</ele><time>2026-05-01T09:10:55.915Z</time></trkpt><trkpt lat="42.6941698" lon="12.1910775"><ele>121.5</ele><time>2026-05-01T09:10:56.914Z</time></trkpt><trkpt lat="42.6941232" lon="12.191223"><ele>122.0</ele><time>2026-05-01T09:10:57.914Z</time></trkpt><trkpt lat="42.6940811" lon="12.1913633"><ele>122.0</ele><time>2026-05-01T09:10:58.914Z</time></trkpt><trkpt lat="42.6940366" lon="12.1914777"><ele>121.99999999999999</ele><time>2026-05-01T09:10:59.915Z</time></trkpt><trkpt lat="42.6939964" lon="12.1915993"><ele>121.99999999999999</ele><time>2026-05-01T09:11:00.914Z</time></trkpt><trkpt lat="42.693958" lon="12.1917192"><ele>122.0</ele><time>2026-05-01T09:11:01.914Z</time></trkpt><trkpt lat="42.6939298" lon="12.1918423"><ele>122.0</ele><time>2026-05-01T09:11:02.914Z</time></trkpt><trkpt lat="42.6938939" lon="12.1919497"><ele>119.49999999999999</ele><time>2026-05-01T09:11:03.914Z</time></trkpt><trkpt lat="42.6938614" lon="12.1920511"><ele>117.0</ele><time>2026-05-01T09:11:04.914Z</time></trkpt><trkpt lat="42.6938259" lon="12.1921451"><ele>114.5</ele><time>2026-05-01T09:11:05.914Z</time></trkpt><trkpt lat="42.6937852" lon="12.1922423"><ele>112.0</ele><time>2026-05-01T09:11:06.914Z</time></trkpt><trkpt lat="42.6937446" lon="12.1923421"><ele>109.49999999999999</ele><time>2026-05-01T09:11:07.915Z</time></trkpt><trkpt lat="42.6937107" lon="12.1924355"><ele>107.0</ele><time>2026-05-01T09:11:08.914Z</time></trkpt><trkpt lat="42.6936661" lon="12.1925306"><ele>105.39999999999999</ele><time>2026-05-01T09:11:09.915Z</time></trkpt><trkpt lat="42.6936192" lon="12.1926121"><ele>103.79999999999998</ele><time>2026-05-01T09:11:10.915Z</time></trkpt><trkpt lat="42.6935753" lon="12.1927122"><ele>102.2</ele><time>2026-05-01T09:11:11.915Z</time></trkpt><trkpt lat="42.6935344" lon="12.1928311"><ele>100.6</ele><time>2026-05-01T09:11:12.915Z</time></trkpt><trkpt lat="42.6934913" lon="12.1929546"><ele>99.0</ele><time>2026-05-01T09:11:13.914Z</time></trkpt><trkpt lat="42.6934482" lon="12.1930834"><ele>103.4</ele><time>2026-05-01T09:11:14.914Z</time></trkpt><trkpt lat="42.6934011" lon="12.1932146"><ele>107.80000000000001</ele><time>2026-05-01T09:11:15.914Z</time></trkpt><trkpt lat="42.6933545" lon="12.193341"><ele>112.19999999999999</ele><time>2026-05-01T09:11:16.915Z</time></trkpt><trkpt lat="42.6933286" lon="12.1934865"><ele>116.6</ele><time>2026-05-01T09:11:17.915Z</time></trkpt><trkpt lat="42.6933294" lon="12.1936441"><ele>121.0</ele><time>2026-05-01T09:11:18.915Z</time></trkpt><trkpt lat="42.6933476" lon="12.1937934"><ele>121.0</ele><time>2026-05-01T09:11:19.915Z</time></trkpt><trkpt lat="42.6933837" lon="12.1939403"><ele>121.0</ele><time>2026-05-01T09:11:20.915Z</time></trkpt><trkpt lat="42.6934134" lon="12.1940844"><ele>121.0</ele><time>2026-05-01T09:11:21.914Z</time></trkpt><trkpt lat="42.6934373" lon="12.1942383"><ele>121.0</ele><time>2026-05-01T09:11:22.915Z</time></trkpt><trkpt lat="42.6934547" lon="12.1943974"><ele>121.83333333333334</ele><time>2026-05-01T09:11:23.915Z</time></trkpt><trkpt lat="42.6934667" lon="12.1945386"><ele>122.66666666666667</ele><time>2026-05-01T09:11:24.915Z</time></trkpt><trkpt lat="42.6934766" lon="12.1946485"><ele>123.5</ele><time>2026-05-01T09:11:25.915Z</time></trkpt><trkpt lat="42.6934761" lon="12.1947535"><ele>124.33333333333334</ele><time>2026-05-01T09:11:26.915Z</time></trkpt><trkpt lat="42.6934612" lon="12.1948422"><ele>125.16666666666667</ele><time>2026-05-01T09:11:27.915Z</time></trkpt><trkpt lat="42.6934336" lon="12.1949444"><ele>126.0</ele><time>2026-05-01T09:11:28.915Z</time></trkpt><trkpt lat="42.6934127" lon="12.1950619"><ele>126.19999999999999</ele><time>2026-05-01T09:11:29.915Z</time></trkpt><trkpt lat="42.6934001" lon="12.1952099"><ele>126.39999999999999</ele><time>2026-05-01T09:11:30.914Z</time></trkpt><trkpt lat="42.6933787" lon="12.1953439"><ele>126.6</ele><time>2026-05-01T09:11:31.914Z</time></trkpt><trkpt lat="42.6933575" lon="12.1954786"><ele>126.8</ele><time>2026-05-01T09:11:32.914Z</time></trkpt><trkpt lat="42.6933443" lon="12.1956058"><ele>127.0</ele><time>2026-05-01T09:11:33.915Z</time></trkpt><trkpt lat="42.6933268" lon="12.1957283"><ele>125.33333333333334</ele><time>2026-05-01T09:11:34.915Z</time></trkpt><trkpt lat="42.6933106" lon="12.1958371"><ele>123.66666666666667</ele><time>2026-05-01T09:11:35.914Z</time></trkpt><trkpt lat="42.6932919" lon="12.1959549"><ele>122.0</ele><time>2026-05-01T09:11:36.915Z</time></trkpt><trkpt lat="42.6932676" lon="12.1960697"><ele>120.33333333333334</ele><time>2026-05-01T09:11:37.914Z</time></trkpt><trkpt lat="42.6932495" lon="12.1961761"><ele>118.66666666666667</ele><time>2026-05-01T09:11:38.915Z</time></trkpt><trkpt lat="42.693212" lon="12.1962884"><ele>117.0</ele><time>2026-05-01T09:11:39.915Z</time></trkpt><trkpt lat="42.6931766" lon="12.196408"><ele>114.6</ele><time>2026-05-01T09:11:40.915Z</time></trkpt><trkpt lat="42.693131" lon="12.1965211"><ele>112.19999999999999</ele><time>2026-05-01T09:11:41.915Z</time></trkpt><trkpt lat="42.6930924" lon="12.1966422"><ele>109.8</ele><time>2026-05-01T09:11:42.915Z</time></trkpt><trkpt lat="42.6930418" lon="12.1967478"><ele>107.4</ele><time>2026-05-01T09:11:43.914Z</time></trkpt><trkpt lat="42.6929949" lon="12.1968441"><ele>105.0</ele><time>2026-05-01T09:11:44.914Z</time></trkpt><trkpt lat="42.6929462" lon="12.1969319"><ele>105.0</ele><time>2026-05-01T09:11:45.914Z</time></trkpt><trkpt lat="42.6929017" lon="12.1970215"><ele>105.0</ele><time>2026-05-01T09:11:46.915Z</time></trkpt><trkpt lat="42.6928532" lon="12.1971007"><ele>105.0</ele><time>2026-05-01T09:11:47.914Z</time></trkpt><trkpt lat="42.6928123" lon="12.1971819"><ele>105.0</ele><time>2026-05-01T09:11:48.915Z</time></trkpt><trkpt lat="42.6927716" lon="12.1972712"><ele>105.0</ele><time>2026-05-01T09:11:49.914Z</time></trkpt><trkpt lat="42.6927213" lon="12.1973581"><ele>105.0</ele><time>2026-05-01T09:11:50.915Z</time></trkpt><trkpt lat="42.6926686" lon="12.1974598"><ele>107.75</ele><time>2026-05-01T09:11:51.915Z</time></trkpt><trkpt lat="42.6926045" lon="12.1975757"><ele>110.5</ele><time>2026-05-01T09:11:52.915Z</time></trkpt><trkpt lat="42.6925368" lon="12.1977086"><ele>113.25</ele><time>2026-05-01T09:11:53.915Z</time></trkpt><trkpt lat="42.6924686" lon="12.1978473"><ele>116.0</ele><time>2026-05-01T09:11:54.915Z</time></trkpt><trkpt lat="42.6923992" lon="12.1979783"><ele>116.0</ele><time>2026-05-01T09:11:55.915Z</time></trkpt><trkpt lat="42.6923346" lon="12.1980915"><ele>116.0</ele><time>2026-05-01T09:11:56.915Z</time></trkpt><trkpt lat="42.6922908" lon="12.198223"><ele>116.0</ele><time>2026-05-01T09:11:57.915Z</time></trkpt><trkpt lat="42.6922256" lon="12.1983464"><ele>116.0</ele><time>2026-05-01T09:11:58.915Z</time></trkpt><trkpt lat="42.6921723" lon="12.198484"><ele>116.0</ele><time>2026-05-01T09:11:59.915Z</time></trkpt><trkpt lat="42.6921134" lon="12.1986205"><ele>114.19999999999999</ele><time>2026-05-01T09:12:00.915Z</time></trkpt><trkpt lat="42.6920572" lon="12.1987524"><ele>112.39999999999999</ele><time>2026-05-01T09:12:01.915Z</time></trkpt><trkpt lat="42.6920024" lon="12.1988744"><ele>110.6</ele><time>2026-05-01T09:12:02.914Z</time></trkpt><trkpt lat="42.6919446" lon="12.1989965"><ele>108.8</ele><time>2026-05-01T09:12:03.914Z</time></trkpt><trkpt lat="42.6918821" lon="12.1991189"><ele>107.0</ele><time>2026-05-01T09:12:04.914Z</time></trkpt><trkpt lat="42.6918205" lon="12.1992468"><ele>107.0</ele><time>2026-05-01T09:12:05.915Z</time></trkpt><trkpt lat="42.6917534" lon="12.1993743"><ele>106.99999999999999</ele><time>2026-05-01T09:12:06.914Z</time></trkpt><trkpt lat="42.6916899" lon="12.1994967"><ele>106.99999999999999</ele><time>2026-05-01T09:12:07.914Z</time></trkpt><trkpt lat="42.6916218" lon="12.1996108"><ele>107.0</ele><time>2026-05-01T09:12:08.915Z</time></trkpt><trkpt lat="42.6915463" lon="12.1997268"><ele>107.0</ele><time>2026-05-01T09:12:09.914Z</time></trkpt><trkpt lat="42.6914692" lon="12.199837"><ele>106.0</ele><time>2026-05-01T09:12:10.915Z</time></trkpt><trkpt lat="42.691389" lon="12.199955"><ele>105.0</ele><time>2026-05-01T09:12:11.914Z</time></trkpt><trkpt lat="42.6912997" lon="12.2000715"><ele>104.0</ele><time>2026-05-01T09:12:12.915Z</time></trkpt><trkpt lat="42.6912251" lon="12.200186"><ele>103.0</ele><time>2026-05-01T09:12:13.915Z</time></trkpt><trkpt lat="42.6911381" lon="12.2003015"><ele>103.0</ele><time>2026-05-01T09:12:14.915Z</time></trkpt><trkpt lat="42.6910622" lon="12.2004261"><ele>103.0</ele><time>2026-05-01T09:12:15.915Z</time></trkpt><trkpt lat="42.6909838" lon="12.2005641"><ele>103.0</ele><time>2026-05-01T09:12:16.915Z</time></trkpt><trkpt lat="42.6909055" lon="12.2006799"><ele>103.0</ele><time>2026-05-01T09:12:17.914Z</time></trkpt><trkpt lat="42.6908318" lon="12.2007959"><ele>103.0</ele><time>2026-05-01T09:12:18.914Z</time></trkpt><trkpt lat="42.6907576" lon="12.2009091"><ele>103.0</ele><time>2026-05-01T09:12:19.915Z</time></trkpt><trkpt lat="42.6906807" lon="12.2010146"><ele>103.0</ele><time>2026-05-01T09:12:20.915Z</time></trkpt><trkpt lat="42.6906007" lon="12.2011272"><ele>103.0</ele><time>2026-05-01T09:12:21.915Z</time></trkpt><trkpt lat="42.6905171" lon="12.2012562"><ele>103.00000000000001</ele><time>2026-05-01T09:12:22.915Z</time></trkpt><trkpt lat="42.6904539" lon="12.2013507"><ele>103.0</ele><time>2026-05-01T09:12:23.915Z</time></trkpt><trkpt lat="42.6903932" lon="12.2014256"><ele>103.0</ele><time>2026-05-01T09:12:24.915Z</time></trkpt><trkpt lat="42.6903406" lon="12.2014851"><ele>103.0</ele><time>2026-05-01T09:12:25.915Z</time></trkpt><trkpt lat="42.6902931" lon="12.2015577"><ele>103.00000000000001</ele><time>2026-05-01T09:12:26.915Z</time></trkpt><trkpt lat="42.6902466" lon="12.2016468"><ele>103.0</ele><time>2026-05-01T09:12:27.914Z</time></trkpt><trkpt lat="42.6901798" lon="12.2017322"><ele>103.0</ele><time>2026-05-01T09:12:28.915Z</time></trkpt><trkpt lat="42.6901005" lon="12.2018336"><ele>103.0</ele><time>2026-05-01T09:12:29.915Z</time></trkpt><trkpt lat="42.6900075" lon="12.2019338"><ele>103.0</ele><time>2026-05-01T09:12:30.915Z</time></trkpt><trkpt lat="42.6899048" lon="12.2020373"><ele>103.0</ele><time>2026-05-01T09:12:31.915Z</time></trkpt><trkpt lat="42.6897637" lon="12.2021376"><ele>103.0</ele><time>2026-05-01T09:12:32.914Z</time></trkpt><trkpt lat="42.6896069" lon="12.2022286"><ele>103.0</ele><time>2026-05-01T09:12:33.915Z</time></trkpt><trkpt lat="42.6894499" lon="12.2023187"><ele>103.0</ele><time>2026-05-01T09:12:34.915Z</time></trkpt><trkpt lat="42.6893069" lon="12.2024025"><ele>102.66666666666667</ele><time>2026-05-01T09:12:35.915Z</time></trkpt><trkpt lat="42.6891678" lon="12.2024915"><ele>102.33333333333334</ele><time>2026-05-01T09:12:36.915Z</time></trkpt><trkpt lat="42.6890121" lon="12.202581"><ele>102.0</ele><time>2026-05-01T09:12:37.915Z</time></trkpt><trkpt lat="42.6888593" lon="12.2026729"><ele>102.0</ele><time>2026-05-01T09:12:38.915Z</time></trkpt><trkpt lat="42.6887155" lon="12.2027641"><ele>102.0</ele><time>2026-05-01T09:12:39.915Z</time></trkpt><trkpt lat="42.6885594" lon="12.2028494"><ele>102.0</ele><time>2026-05-01T09:12:40.915Z</time></trkpt><trkpt lat="42.6884132" lon="12.2029326"><ele>102.0</ele><time>2026-05-01T09:12:41.914Z</time></trkpt><trkpt lat="42.6882689" lon="12.2030057"><ele>102.0</ele><time>2026-05-01T09:12:42.915Z</time></trkpt><trkpt lat="42.688132" lon="12.2030877"><ele>102.0</ele><time>2026-05-01T09:12:43.915Z</time></trkpt><trkpt lat="42.6879963" lon="12.2031703"><ele>102.0</ele><time>2026-05-01T09:12:44.915Z</time></trkpt><trkpt lat="42.6878623" lon="12.2032583"><ele>102.0</ele><time>2026-05-01T09:12:45.915Z</time></trkpt><trkpt lat="42.6877409" lon="12.2033555"><ele>102.0</ele><time>2026-05-01T09:12:46.914Z</time></trkpt><trkpt lat="42.6876261" lon="12.2034453"><ele>102.0</ele><time>2026-05-01T09:12:47.915Z</time></trkpt><trkpt lat="42.6875252" lon="12.2035481"><ele>102.0</ele><time>2026-05-01T09:12:48.915Z</time></trkpt><trkpt lat="42.687431" lon="12.2036527"><ele>102.0</ele><time>2026-05-01T09:12:49.915Z</time></trkpt><trkpt lat="42.687339" lon="12.2037526"><ele>102.0</ele><time>2026-05-01T09:12:50.915Z</time></trkpt><trkpt lat="42.6872575" lon="12.2038573"><ele>102.0</ele><time>2026-05-01T09:12:51.915Z</time></trkpt><trkpt lat="42.6871665" lon="12.2039738"><ele>101.6</ele><time>2026-05-01T09:12:52.915Z</time></trkpt><trkpt lat="42.6871131" lon="12.2041039"><ele>101.19999999999999</ele><time>2026-05-01T09:12:53.915Z</time></trkpt><trkpt lat="42.6870831" lon="12.2042419"><ele>100.8</ele><time>2026-05-01T09:12:54.915Z</time></trkpt><trkpt lat="42.6870927" lon="12.2043924"><ele>100.4</ele><time>2026-05-01T09:12:55.915Z</time></trkpt><trkpt lat="42.687133" lon="12.204545"><ele>100.0</ele><time>2026-05-01T09:12:56.914Z</time></trkpt><trkpt lat="42.687181" lon="12.2046932"><ele>100.0</ele><time>2026-05-01T09:12:57.915Z</time></trkpt><trkpt lat="42.6872288" lon="12.2048406"><ele>100.0</ele><time>2026-05-01T09:12:58.914Z</time></trkpt><trkpt lat="42.6872781" lon="12.204988"><ele>100.0</ele><time>2026-05-01T09:12:59.915Z</time></trkpt><trkpt lat="42.6873341" lon="12.2051404"><ele>100.0</ele><time>2026-05-01T09:13:00.915Z</time></trkpt><trkpt lat="42.6873894" lon="12.2052997"><ele>100.0</ele><time>2026-05-01T09:13:01.915Z</time></trkpt><trkpt lat="42.6874449" lon="12.2054841"><ele>100.0</ele><time>2026-05-01T09:13:02.915Z</time></trkpt><trkpt lat="42.6875051" lon="12.2056762"><ele>100.0</ele><time>2026-05-01T09:13:03.915Z</time></trkpt><trkpt lat="42.6875684" lon="12.2059042"><ele>100.66666666666667</ele><time>2026-05-01T09:13:04.915Z</time></trkpt><trkpt lat="42.687639" lon="12.2061364"><ele>101.33333333333334</ele><time>2026-05-01T09:13:05.914Z</time></trkpt><trkpt lat="42.6877019" lon="12.2063494"><ele>102.0</ele><time>2026-05-01T09:13:06.915Z</time></trkpt><trkpt lat="42.6877588" lon="12.206542"><ele>101.0</ele><time>2026-05-01T09:13:07.914Z</time></trkpt><trkpt lat="42.6878218" lon="12.2067469"><ele>100.0</ele><time>2026-05-01T09:13:08.914Z</time></trkpt><trkpt lat="42.6878824" lon="12.2069392"><ele>99.0</ele><time>2026-05-01T09:13:09.914Z</time></trkpt><trkpt lat="42.687944" lon="12.207122"><ele>99.0</ele><time>2026-05-01T09:13:10.915Z</time></trkpt><trkpt lat="42.6880037" lon="12.2073163"><ele>99.0</ele><time>2026-05-01T09:13:11.915Z</time></trkpt><trkpt lat="42.688057" lon="12.2074922"><ele>99.0</ele><time>2026-05-01T09:13:12.915Z</time></trkpt><trkpt lat="42.6881046" lon="12.2076546"><ele>99.0</ele><time>2026-05-01T09:13:13.915Z</time></trkpt><trkpt lat="42.688152" lon="12.2078066"><ele>98.75</ele><time>2026-05-01T09:13:14.915Z</time></trkpt><trkpt lat="42.6881983" lon="12.2079539"><ele>98.5</ele><time>2026-05-01T09:13:15.915Z</time></trkpt><trkpt lat="42.6882478" lon="12.2081177"><ele>98.25</ele><time>2026-05-01T09:13:16.914Z</time></trkpt><trkpt lat="42.6883112" lon="12.2083021"><ele>98.0</ele><time>2026-05-01T09:13:17.914Z</time></trkpt><trkpt lat="42.6883805" lon="12.2084966"><ele>97.0</ele><time>2026-05-01T09:13:18.915Z</time></trkpt><trkpt lat="42.6884405" lon="12.2086933"><ele>96.0</ele><time>2026-05-01T09:13:19.915Z</time></trkpt><trkpt lat="42.6884949" lon="12.2089024"><ele>95.0</ele><time>2026-05-01T09:13:20.914Z</time></trkpt><trkpt lat="42.6885522" lon="12.2091026"><ele>98.25</ele><time>2026-05-01T09:13:21.914Z</time></trkpt><trkpt lat="42.6886166" lon="12.2092889"><ele>101.5</ele><time>2026-05-01T09:13:22.915Z</time></trkpt><trkpt lat="42.688669" lon="12.2094538"><ele>104.75</ele><time>2026-05-01T09:13:23.915Z</time></trkpt><trkpt lat="42.688706" lon="12.209593"><ele>108.0</ele><time>2026-05-01T09:13:24.915Z</time></trkpt><trkpt lat="42.6887427" lon="12.2097479"><ele>109.0</ele><time>2026-05-01T09:13:25.915Z</time></trkpt><trkpt lat="42.6887622" lon="12.2099008"><ele>110.00000000000001</ele><time>2026-05-01T09:13:26.915Z</time></trkpt><trkpt lat="42.6887639" lon="12.2100318"><ele>111.00000000000001</ele><time>2026-05-01T09:13:27.914Z</time></trkpt><trkpt lat="42.6887435" lon="12.2101706"><ele>112.0</ele><time>2026-05-01T09:13:28.915Z</time></trkpt><trkpt lat="42.6887346" lon="12.2102942"><ele>113.0</ele><time>2026-05-01T09:13:29.914Z</time></trkpt><trkpt lat="42.6887315" lon="12.2104168"><ele>113.0</ele><time>2026-05-01T09:13:30.914Z</time></trkpt><trkpt lat="42.6887266" lon="12.2105193"><ele>113.0</ele><time>2026-05-01T09:13:31.915Z</time></trkpt><trkpt lat="42.6887231" lon="12.2106128"><ele>113.0</ele><time>2026-05-01T09:13:32.915Z</time></trkpt><trkpt lat="42.6887179" lon="12.210702"><ele>113.0</ele><time>2026-05-01T09:13:33.915Z</time></trkpt><trkpt lat="42.6887118" lon="12.2107987"><ele>113.0</ele><time>2026-05-01T09:13:34.915Z</time></trkpt><trkpt lat="42.6886943" lon="12.2108939"><ele>113.0</ele><time>2026-05-01T09:13:35.915Z</time></trkpt><trkpt lat="42.6886712" lon="12.2109887"><ele>113.0</ele><time>2026-05-01T09:13:36.915Z</time></trkpt><trkpt lat="42.6886406" lon="12.2110899"><ele>113.25</ele><time>2026-05-01T09:13:37.914Z</time></trkpt><trkpt lat="42.6885943" lon="12.2112056"><ele>113.5</ele><time>2026-05-01T09:13:38.914Z</time></trkpt><trkpt lat="42.688532" lon="12.2113219"><ele>113.75</ele><time>2026-05-01T09:13:39.915Z</time></trkpt><trkpt lat="42.6884448" lon="12.2114471"><ele>114.0</ele><time>2026-05-01T09:13:40.915Z</time></trkpt><trkpt lat="42.6883318" lon="12.2115735"><ele>116.33333333333334</ele><time>2026-05-01T09:13:41.915Z</time></trkpt><trkpt lat="42.6881844" lon="12.2116697"><ele>118.66666666666667</ele><time>2026-05-01T09:13:42.915Z</time></trkpt><trkpt lat="42.6880271" lon="12.2117315"><ele>121.0</ele><time>2026-05-01T09:13:43.915Z</time></trkpt><trkpt lat="42.6878658" lon="12.2117386"><ele>121.0</ele><time>2026-05-01T09:13:44.915Z</time></trkpt><trkpt lat="42.687719" lon="12.2117308"><ele>121.0</ele><time>2026-05-01T09:13:45.914Z</time></trkpt><trkpt lat="42.6875722" lon="12.21171"><ele>121.0</ele><time>2026-05-01T09:13:46.915Z</time></trkpt><trkpt lat="42.6874151" lon="12.2116844"><ele>121.0</ele><time>2026-05-01T09:13:47.914Z</time></trkpt><trkpt lat="42.687245" lon="12.2116689"><ele>121.0</ele><time>2026-05-01T09:13:48.915Z</time></trkpt><trkpt lat="42.687079" lon="12.2116397"><ele>121.0</ele><time>2026-05-01T09:13:49.914Z</time></trkpt><trkpt lat="42.686917" lon="12.2115925"><ele>121.0</ele><time>2026-05-01T09:13:50.914Z</time></trkpt><trkpt lat="42.6867645" lon="12.2115873"><ele>121.0</ele><time>2026-05-01T09:13:51.915Z</time></trkpt><trkpt lat="42.6866327" lon="12.2115867"><ele>121.0</ele><time>2026-05-01T09:13:52.915Z</time></trkpt><trkpt lat="42.6864975" lon="12.2115947"><ele>121.0</ele><time>2026-05-01T09:13:53.915Z</time></trkpt><trkpt lat="42.6863764" lon="12.2116353"><ele>121.0</ele><time>2026-05-01T09:13:54.915Z</time></trkpt><trkpt lat="42.6862504" lon="12.2116847"><ele>121.0</ele><time>2026-05-01T09:13:55.915Z</time></trkpt><trkpt lat="42.686103" lon="12.2117298"><ele>121.0</ele><time>2026-05-01T09:13:56.915Z</time></trkpt><trkpt lat="42.6859488" lon="12.2117809"><ele>121.0</ele><time>2026-05-01T09:13:57.914Z</time></trkpt><trkpt lat="42.685787" lon="12.211822"><ele>121.0</ele><time>2026-05-01T09:13:58.915Z</time></trkpt><trkpt lat="42.6856271" lon="12.211866"><ele>121.0</ele><time>2026-05-01T09:13:59.915Z</time></trkpt><trkpt lat="42.6854705" lon="12.211906"><ele>121.0</ele><time>2026-05-01T09:14:00.915Z</time></trkpt><trkpt lat="42.6853287" lon="12.2119445"><ele>120.75</ele><time>2026-05-01T09:14:01.915Z</time></trkpt><trkpt lat="42.6851939" lon="12.2119718"><ele>120.5</ele><time>2026-05-01T09:14:02.915Z</time></trkpt><trkpt lat="42.6850681" lon="12.212008"><ele>120.25</ele><time>2026-05-01T09:14:03.915Z</time></trkpt><trkpt lat="42.6849698" lon="12.2120492"><ele>120.0</ele><time>2026-05-01T09:14:04.915Z</time></trkpt><trkpt lat="42.6848755" lon="12.2121269"><ele>120.0</ele><time>2026-05-01T09:14:05.915Z</time></trkpt><trkpt lat="42.6847962" lon="12.2122556"><ele>120.0</ele><time>2026-05-01T09:14:06.915Z</time></trkpt><trkpt lat="42.6847341" lon="12.2124096"><ele>120.0</ele><time>2026-05-01T09:14:07.915Z</time></trkpt><trkpt lat="42.6846983" lon="12.2125861"><ele>120.0</ele><time>2026-05-01T09:14:08.914Z</time></trkpt><trkpt lat="42.6846642" lon="12.2127604"><ele>122.5</ele><time>2026-05-01T09:14:09.915Z</time></trkpt><trkpt lat="42.6846401" lon="12.2129473"><ele>125.0</ele><time>2026-05-01T09:14:10.915Z</time></trkpt><trkpt lat="42.684622" lon="12.2131289"><ele>127.5</ele><time>2026-05-01T09:14:11.915Z</time></trkpt><trkpt lat="42.6846082" lon="12.2133025"><ele>130.0</ele><time>2026-05-01T09:14:12.915Z</time></trkpt><trkpt lat="42.6845865" lon="12.2134761"><ele>131.25</ele><time>2026-05-01T09:14:13.915Z</time></trkpt><trkpt lat="42.6845545" lon="12.213652"><ele>132.5</ele><time>2026-05-01T09:14:14.914Z</time></trkpt><trkpt lat="42.6845264" lon="12.2138372"><ele>133.75</ele><time>2026-05-01T09:14:15.915Z</time></trkpt><trkpt lat="42.684482" lon="12.2140121"><ele>135.0</ele><time>2026-05-01T09:14:16.915Z</time></trkpt><trkpt lat="42.6843969" lon="12.2141517"><ele>135.0</ele><time>2026-05-01T09:14:17.915Z</time></trkpt><trkpt lat="42.6843091" lon="12.2142697"><ele>135.0</ele><time>2026-05-01T09:14:18.915Z</time></trkpt><trkpt lat="42.6842169" lon="12.2143779"><ele>135.0</ele><time>2026-05-01T09:14:19.915Z</time></trkpt><trkpt lat="42.6841194" lon="12.2144752"><ele>135.0</ele><time>2026-05-01T09:14:20.915Z</time></trkpt><trkpt lat="42.6840072" lon="12.2145504"><ele>135.0</ele><time>2026-05-01T09:14:21.915Z</time></trkpt><trkpt lat="42.6838688" lon="12.214604"><ele>135.0</ele><time>2026-05-01T09:14:22.915Z</time></trkpt><trkpt lat="42.6837329" lon="12.2146654"><ele>135.0</ele><time>2026-05-01T09:14:23.915Z</time></trkpt><trkpt lat="42.6835869" lon="12.2147184"><ele>135.0</ele><time>2026-05-01T09:14:24.914Z</time></trkpt><trkpt lat="42.6834364" lon="12.2147555"><ele>132.66666666666666</ele><time>2026-05-01T09:14:25.915Z</time></trkpt><trkpt lat="42.6832871" lon="12.2147887"><ele>130.33333333333331</ele><time>2026-05-01T09:14:26.915Z</time></trkpt><trkpt lat="42.6831283" lon="12.2147952"><ele>128.0</ele><time>2026-05-01T09:14:27.915Z</time></trkpt><trkpt lat="42.6829729" lon="12.2147825"><ele>128.0</ele><time>2026-05-01T09:14:28.914Z</time></trkpt><trkpt lat="42.6828137" lon="12.2147461"><ele>128.0</ele><time>2026-05-01T09:14:29.915Z</time></trkpt><trkpt lat="42.6826514" lon="12.2147007"><ele>128.0</ele><time>2026-05-01T09:14:30.915Z</time></trkpt><trkpt lat="42.6824877" lon="12.2146265"><ele>130.33333333333331</ele><time>2026-05-01T09:14:31.915Z</time></trkpt><trkpt lat="42.6823311" lon="12.2145063"><ele>132.66666666666666</ele><time>2026-05-01T09:14:32.914Z</time></trkpt><trkpt lat="42.682174" lon="12.2143703"><ele>135.0</ele><time>2026-05-01T09:14:33.915Z</time></trkpt><trkpt lat="42.6820278" lon="12.2142248"><ele>137.0</ele><time>2026-05-01T09:14:34.915Z</time></trkpt><trkpt lat="42.6818867" lon="12.2140679"><ele>139.0</ele><time>2026-05-01T09:14:35.915Z</time></trkpt><trkpt lat="42.6817329" lon="12.2139479"><ele>141.0</ele><time>2026-05-01T09:14:36.915Z</time></trkpt><trkpt lat="42.6815751" lon="12.2138589"><ele>141.0</ele><time>2026-05-01T09:14:37.915Z</time></trkpt><trkpt lat="42.6814093" lon="12.2137915"><ele>141.0</ele><time>2026-05-01T09:14:38.915Z</time></trkpt><trkpt lat="42.6812534" lon="12.213715"><ele>141.0</ele><time>2026-05-01T09:14:39.915Z</time></trkpt><trkpt lat="42.6811047" lon="12.2136635"><ele>144.0</ele><time>2026-05-01T09:14:40.915Z</time></trkpt><trkpt lat="42.6809535" lon="12.2136035"><ele>147.0</ele><time>2026-05-01T09:14:41.914Z</time></trkpt><trkpt lat="42.6808013" lon="12.2135432"><ele>150.0</ele><time>2026-05-01T09:14:42.915Z</time></trkpt><trkpt lat="42.6806515" lon="12.2134817"><ele>150.0</ele><time>2026-05-01T09:14:43.915Z</time></trkpt><trkpt lat="42.6805103" lon="12.2134278"><ele>150.0</ele><time>2026-05-01T09:14:44.915Z</time></trkpt><trkpt lat="42.6803689" lon="12.2133592"><ele>150.0</ele><time>2026-05-01T09:14:45.914Z</time></trkpt><trkpt lat="42.680223" lon="12.213275"><ele>148.0</ele><time>2026-05-01T09:14:46.915Z</time></trkpt><trkpt lat="42.6800829" lon="12.2131908"><ele>146.0</ele><time>2026-05-01T09:14:47.914Z</time></trkpt><trkpt lat="42.6799366" lon="12.2131233"><ele>144.0</ele><time>2026-05-01T09:14:48.915Z</time></trkpt><trkpt lat="42.6797795" lon="12.2130598"><ele>144.0</ele><time>2026-05-01T09:14:49.914Z</time></trkpt><trkpt lat="42.6796258" lon="12.2130299"><ele>144.0</ele><time>2026-05-01T09:14:50.915Z</time></trkpt><trkpt lat="42.6794853" lon="12.2129877"><ele>144.0</ele><time>2026-05-01T09:14:51.915Z</time></trkpt><trkpt lat="42.679353" lon="12.2129228"><ele>144.0</ele><time>2026-05-01T09:14:52.915Z</time></trkpt><trkpt lat="42.6792322" lon="12.2128287"><ele>147.0</ele><time>2026-05-01T09:14:53.914Z</time></trkpt><trkpt lat="42.6791245" lon="12.2127135"><ele>150.0</ele><time>2026-05-01T09:14:54.915Z</time></trkpt><trkpt lat="42.6790163" lon="12.2125958"><ele>153.0</ele><time>2026-05-01T09:14:55.915Z</time></trkpt><trkpt lat="42.6788977" lon="12.212483"><ele>156.0</ele><time>2026-05-01T09:14:56.915Z</time></trkpt><trkpt lat="42.6787776" lon="12.2123989"><ele>156.0</ele><time>2026-05-01T09:14:57.915Z</time></trkpt><trkpt lat="42.6786709" lon="12.2123323"><ele>156.0</ele><time>2026-05-01T09:14:58.915Z</time></trkpt><trkpt lat="42.6785643" lon="12.2122561"><ele>156.0</ele><time>2026-05-01T09:14:59.914Z</time></trkpt><trkpt lat="42.6784681" lon="12.2121603"><ele>156.0</ele><time>2026-05-01T09:15:00.914Z</time></trkpt><trkpt lat="42.6783747" lon="12.2120387"><ele>155.5</ele><time>2026-05-01T09:15:01.915Z</time></trkpt><trkpt lat="42.6782883" lon="12.2119008"><ele>155.0</ele><time>2026-05-01T09:15:02.915Z</time></trkpt><trkpt lat="42.6781965" lon="12.2117832"><ele>154.5</ele><time>2026-05-01T09:15:03.915Z</time></trkpt><trkpt lat="42.6781067" lon="12.2116781"><ele>154.0</ele><time>2026-05-01T09:15:04.914Z</time></trkpt><trkpt lat="42.678007" lon="12.211583"><ele>154.0</ele><time>2026-05-01T09:15:05.914Z</time></trkpt><trkpt lat="42.6779078" lon="12.2114908"><ele>154.0</ele><time>2026-05-01T09:15:06.915Z</time></trkpt><trkpt lat="42.6777876" lon="12.211417"><ele>154.0</ele><time>2026-05-01T09:15:07.915Z</time></trkpt><trkpt lat="42.6776724" lon="12.2113777"><ele>154.0</ele><time>2026-05-01T09:15:08.914Z</time></trkpt><trkpt lat="42.6775521" lon="12.2113705"><ele>156.25</ele><time>2026-05-01T09:15:09.915Z</time></trkpt><trkpt lat="42.6774262" lon="12.2114095"><ele>158.5</ele><time>2026-05-01T09:15:10.915Z</time></trkpt><trkpt lat="42.6773325" lon="12.2114799"><ele>160.75</ele><time>2026-05-01T09:15:11.915Z</time></trkpt><trkpt lat="42.6772463" lon="12.2115837"><ele>163.0</ele><time>2026-05-01T09:15:12.915Z</time></trkpt><trkpt lat="42.6771852" lon="12.2117222"><ele>163.0</ele><time>2026-05-01T09:15:13.915Z</time></trkpt><trkpt lat="42.6771233" lon="12.2118805"><ele>163.0</ele><time>2026-05-01T09:15:14.915Z</time></trkpt><trkpt lat="42.6770633" lon="12.2120391"><ele>163.0</ele><time>2026-05-01T09:15:15.915Z</time></trkpt><trkpt lat="42.6770068" lon="12.2121894"><ele>163.0</ele><time>2026-05-01T09:15:16.914Z</time></trkpt><trkpt lat="42.6769443" lon="12.2123482"><ele>162.25</ele><time>2026-05-01T09:15:17.914Z</time></trkpt><trkpt lat="42.6768783" lon="12.2125014"><ele>161.5</ele><time>2026-05-01T09:15:18.914Z</time></trkpt><trkpt lat="42.6768093" lon="12.2126695"><ele>160.75</ele><time>2026-05-01T09:15:19.914Z</time></trkpt><trkpt lat="42.6767348" lon="12.2128307"><ele>160.0</ele><time>2026-05-01T09:15:20.915Z</time></trkpt><trkpt lat="42.6766591" lon="12.2129897"><ele>160.0</ele><time>2026-05-01T09:15:21.915Z</time></trkpt><trkpt lat="42.6765838" lon="12.2131394"><ele>160.0</ele><time>2026-05-01T09:15:22.915Z</time></trkpt><trkpt lat="42.6765238" lon="12.2132896"><ele>160.0</ele><time>2026-05-01T09:15:23.915Z</time></trkpt><trkpt lat="42.6764616" lon="12.21342"><ele>160.0</ele><time>2026-05-01T09:15:24.915Z</time></trkpt><trkpt lat="42.6763786" lon="12.2135094"><ele>161.4</ele><time>2026-05-01T09:15:25.915Z</time></trkpt><trkpt lat="42.6762766" lon="12.2135544"><ele>162.8</ele><time>2026-05-01T09:15:26.915Z</time></trkpt><trkpt lat="42.6761727" lon="12.2135749"><ele>164.2</ele><time>2026-05-01T09:15:27.915Z</time></trkpt><trkpt lat="42.6760785" lon="12.2135558"><ele>165.6</ele><time>2026-05-01T09:15:28.914Z</time></trkpt><trkpt lat="42.6759859" lon="12.2135343"><ele>167.0</ele><time>2026-05-01T09:15:29.915Z</time></trkpt><trkpt lat="42.675884" lon="12.2135032"><ele>167.0</ele><time>2026-05-01T09:15:30.915Z</time></trkpt><trkpt lat="42.6757778" lon="12.2134636"><ele>167.0</ele><time>2026-05-01T09:15:31.915Z</time></trkpt><trkpt lat="42.6756667" lon="12.2134496"><ele>167.0</ele><time>2026-05-01T09:15:32.915Z</time></trkpt><trkpt lat="42.675565" lon="12.2134833"><ele>167.0</ele><time>2026-05-01T09:15:33.914Z</time></trkpt><trkpt lat="42.6754604" lon="12.2135345"><ele>167.0</ele><time>2026-05-01T09:15:34.915Z</time></trkpt><trkpt lat="42.6753521" lon="12.2135993"><ele>165.0</ele><time>2026-05-01T09:15:35.915Z</time></trkpt><trkpt lat="42.6752555" lon="12.2136718"><ele>163.0</ele><time>2026-05-01T09:15:36.915Z</time></trkpt><trkpt lat="42.6751626" lon="12.2137616"><ele>161.0</ele><time>2026-05-01T09:15:37.915Z</time></trkpt><trkpt lat="42.6750696" lon="12.2138636"><ele>159.0</ele><time>2026-05-01T09:15:38.915Z</time></trkpt><trkpt lat="42.6749697" lon="12.2139711"><ele>161.4</ele><time>2026-05-01T09:15:39.915Z</time></trkpt><trkpt lat="42.6748763" lon="12.2140679"><ele>163.8</ele><time>2026-05-01T09:15:40.915Z</time></trkpt><trkpt lat="42.6747864" lon="12.2141526"><ele>166.20000000000002</ele><time>2026-05-01T09:15:41.914Z</time></trkpt><trkpt lat="42.6747091" lon="12.2142278"><ele>168.60000000000002</ele><time>2026-05-01T09:15:42.915Z</time></trkpt><trkpt lat="42.6746353" lon="12.2143137"><ele>171.0</ele><time>2026-05-01T09:15:43.915Z</time></trkpt><trkpt lat="42.674559" lon="12.2143982"><ele>171.0</ele><time>2026-05-01T09:15:44.915Z</time></trkpt><trkpt lat="42.674491" lon="12.2144815"><ele>171.0</ele><time>2026-05-01T09:15:45.914Z</time></trkpt><trkpt lat="42.6744382" lon="12.2145503"><ele>171.0</ele><time>2026-05-01T09:15:46.915Z</time></trkpt><trkpt lat="42.6743532" lon="12.2146683"><ele>171.0</ele><time>2026-05-01T09:15:48.915Z</time></trkpt><trkpt lat="42.6743012" lon="12.2147344"><ele>171.0</ele><time>2026-05-01T09:15:49.915Z</time></trkpt><trkpt lat="42.6742366" lon="12.2148165"><ele>171.0</ele><time>2026-05-01T09:15:50.915Z</time></trkpt><trkpt lat="42.6741595" lon="12.2149053"><ele>170.75</ele><time>2026-05-01T09:15:51.915Z</time></trkpt><trkpt lat="42.6740612" lon="12.215011"><ele>170.5</ele><time>2026-05-01T09:15:52.914Z</time></trkpt><trkpt lat="42.673967" lon="12.2151019"><ele>170.25</ele><time>2026-05-01T09:15:53.914Z</time></trkpt><trkpt lat="42.6738484" lon="12.2151734"><ele>170.0</ele><time>2026-05-01T09:15:54.915Z</time></trkpt><trkpt lat="42.6737379" lon="12.2152359"><ele>170.0</ele><time>2026-05-01T09:15:55.915Z</time></trkpt><trkpt lat="42.673636" lon="12.2152668"><ele>170.0</ele><time>2026-05-01T09:15:56.915Z</time></trkpt><trkpt lat="42.6735455" lon="12.2152886"><ele>170.0</ele><time>2026-05-01T09:15:57.915Z</time></trkpt><trkpt lat="42.6734587" lon="12.2153057"><ele>170.0</ele><time>2026-05-01T09:15:58.915Z</time></trkpt><trkpt lat="42.6733844" lon="12.215323"><ele>170.0</ele><time>2026-05-01T09:15:59.915Z</time></trkpt><trkpt lat="42.6732553" lon="12.2153331"><ele>170.83333333333331</ele><time>2026-05-01T09:16:01.915Z</time></trkpt><trkpt lat="42.673192" lon="12.2153486"><ele>171.66666666666666</ele><time>2026-05-01T09:16:02.914Z</time></trkpt><trkpt lat="42.673129" lon="12.2153684"><ele>172.5</ele><time>2026-05-01T09:16:03.915Z</time></trkpt><trkpt lat="42.6730224" lon="12.2154142"><ele>173.33333333333334</ele><time>2026-05-01T09:16:05.915Z</time></trkpt><trkpt lat="42.6729549" lon="12.2154627"><ele>174.16666666666669</ele><time>2026-05-01T09:16:07.915Z</time></trkpt><trkpt lat="42.672893" lon="12.2155299"><ele>175.0</ele><time>2026-05-01T09:16:09.915Z</time></trkpt><trkpt lat="42.6728545" lon="12.215661"><ele>175.0</ele><time>2026-05-01T09:16:11.915Z</time></trkpt><trkpt lat="42.6728448" lon="12.2157559"><ele>175.0</ele><time>2026-05-01T09:16:12.915Z</time></trkpt><trkpt lat="42.6728553" lon="12.2158553"><ele>175.0</ele><time>2026-05-01T09:16:13.915Z</time></trkpt><trkpt lat="42.6728926" lon="12.2159437"><ele>175.0</ele><time>2026-05-01T09:16:14.914Z</time></trkpt><trkpt lat="42.6729423" lon="12.2160613"><ele>175.0</ele><time>2026-05-01T09:16:15.915Z</time></trkpt><trkpt lat="42.6730036" lon="12.2161747"><ele>175.0</ele><time>2026-05-01T09:16:16.915Z</time></trkpt><trkpt lat="42.6730751" lon="12.2162753"><ele>175.0</ele><time>2026-05-01T09:16:17.915Z</time></trkpt><trkpt lat="42.6731455" lon="12.2163894"><ele>175.0</ele><time>2026-05-01T09:16:18.915Z</time></trkpt><trkpt lat="42.6732139" lon="12.2165074"><ele>175.0</ele><time>2026-05-01T09:16:19.915Z</time></trkpt><trkpt lat="42.6732728" lon="12.2166243"><ele>175.0</ele><time>2026-05-01T09:16:20.915Z</time></trkpt><trkpt lat="42.6733128" lon="12.2167498"><ele>175.0</ele><time>2026-05-01T09:16:21.915Z</time></trkpt><trkpt lat="42.6733339" lon="12.2168914"><ele>175.0</ele><time>2026-05-01T09:16:22.915Z</time></trkpt><trkpt lat="42.6733376" lon="12.217042"><ele>175.0</ele><time>2026-05-01T09:16:23.915Z</time></trkpt><trkpt lat="42.6733302" lon="12.2172056"><ele>175.0</ele><time>2026-05-01T09:16:24.914Z</time></trkpt><trkpt lat="42.6733111" lon="12.2173794"><ele>175.0</ele><time>2026-05-01T09:16:25.915Z</time></trkpt><trkpt lat="42.6732876" lon="12.2175575"><ele>174.0</ele><time>2026-05-01T09:16:26.915Z</time></trkpt><trkpt lat="42.6732661" lon="12.2177524"><ele>173.0</ele><time>2026-05-01T09:16:27.915Z</time></trkpt><trkpt lat="42.6732345" lon="12.217954"><ele>172.0</ele><time>2026-05-01T09:16:28.915Z</time></trkpt><trkpt lat="42.673187" lon="12.2181668"><ele>172.0</ele><time>2026-05-01T09:16:29.915Z</time></trkpt><trkpt lat="42.6731147" lon="12.2183546"><ele>172.0</ele><time>2026-05-01T09:16:30.915Z</time></trkpt><trkpt lat="42.6729997" lon="12.2185162"><ele>172.0</ele><time>2026-05-01T09:16:31.915Z</time></trkpt><trkpt lat="42.6728766" lon="12.218663"><ele>171.66666666666669</ele><time>2026-05-01T09:16:32.915Z</time></trkpt><trkpt lat="42.6727481" lon="12.218813"><ele>171.33333333333334</ele><time>2026-05-01T09:16:33.915Z</time></trkpt><trkpt lat="42.6726112" lon="12.2189647"><ele>171.0</ele><time>2026-05-01T09:16:34.915Z</time></trkpt><trkpt lat="42.6724562" lon="12.2191094"><ele>171.0</ele><time>2026-05-01T09:16:35.914Z</time></trkpt><trkpt lat="42.6722858" lon="12.2192192"><ele>171.0</ele><time>2026-05-01T09:16:36.914Z</time></trkpt><trkpt lat="42.6720979" lon="12.2193048"><ele>171.0</ele><time>2026-05-01T09:16:37.915Z</time></trkpt><trkpt lat="42.6719008" lon="12.2193835"><ele>169.66666666666666</ele><time>2026-05-01T09:16:38.915Z</time></trkpt><trkpt lat="42.6716863" lon="12.2194573"><ele>168.33333333333331</ele><time>2026-05-01T09:16:39.915Z</time></trkpt><trkpt lat="42.67147" lon="12.2195431"><ele>167.0</ele><time>2026-05-01T09:16:40.915Z</time></trkpt><trkpt lat="42.6712534" lon="12.2196082"><ele>166.0</ele><time>2026-05-01T09:16:41.914Z</time></trkpt><trkpt lat="42.6710472" lon="12.2196839"><ele>165.0</ele><time>2026-05-01T09:16:42.915Z</time></trkpt><trkpt lat="42.6708486" lon="12.2197538"><ele>164.0</ele><time>2026-05-01T09:16:43.915Z</time></trkpt><trkpt lat="42.6706515" lon="12.2198303"><ele>164.0</ele><time>2026-05-01T09:16:44.914Z</time></trkpt><trkpt lat="42.6704501" lon="12.2199111"><ele>164.0</ele><time>2026-05-01T09:16:45.915Z</time></trkpt><trkpt lat="42.6702349" lon="12.2199973"><ele>164.0</ele><time>2026-05-01T09:16:46.915Z</time></trkpt><trkpt lat="42.6700033" lon="12.2200852"><ele>161.5</ele><time>2026-05-01T09:16:47.915Z</time></trkpt><trkpt lat="42.6697646" lon="12.2201685"><ele>159.0</ele><time>2026-05-01T09:16:48.915Z</time></trkpt><trkpt lat="42.6695321" lon="12.2202406"><ele>156.0</ele><time>2026-05-01T09:16:49.915Z</time></trkpt><trkpt lat="42.6693102" lon="12.2203019"><ele>153.0</ele><time>2026-05-01T09:16:50.915Z</time></trkpt><trkpt lat="42.6690771" lon="12.2203501"><ele>153.0</ele><time>2026-05-01T09:16:51.915Z</time></trkpt><trkpt lat="42.6688441" lon="12.220389"><ele>153.0</ele><time>2026-05-01T09:16:52.915Z</time></trkpt><trkpt lat="42.6686224" lon="12.2204414"><ele>150.66666666666666</ele><time>2026-05-01T09:16:53.915Z</time></trkpt><trkpt lat="42.6684044" lon="12.2204686"><ele>148.33333333333331</ele><time>2026-05-01T09:16:54.915Z</time></trkpt><trkpt lat="42.6682004" lon="12.2205038"><ele>146.0</ele><time>2026-05-01T09:16:55.915Z</time></trkpt><trkpt lat="42.6680017" lon="12.2205427"><ele>146.0</ele><time>2026-05-01T09:16:56.915Z</time></trkpt><trkpt lat="42.6677962" lon="12.220592"><ele>146.0</ele><time>2026-05-01T09:16:57.915Z</time></trkpt><trkpt lat="42.6675902" lon="12.2206792"><ele>146.0</ele><time>2026-05-01T09:16:58.915Z</time></trkpt><trkpt lat="42.6673828" lon="12.2208006"><ele>145.0</ele><time>2026-05-01T09:16:59.915Z</time></trkpt><trkpt lat="42.66718" lon="12.2209307"><ele>144.0</ele><time>2026-05-01T09:17:00.915Z</time></trkpt><trkpt lat="42.6669784" lon="12.2210447"><ele>143.0</ele><time>2026-05-01T09:17:01.915Z</time></trkpt><trkpt lat="42.6667641" lon="12.2211326"><ele>143.0</ele><time>2026-05-01T09:17:02.915Z</time></trkpt><trkpt lat="42.6665416" lon="12.2211894"><ele>143.0</ele><time>2026-05-01T09:17:03.915Z</time></trkpt><trkpt lat="42.6663119" lon="12.2212193"><ele>142.0</ele><time>2026-05-01T09:17:04.915Z</time></trkpt><trkpt lat="42.666069" lon="12.2212182"><ele>141.0</ele><time>2026-05-01T09:17:05.915Z</time></trkpt><trkpt lat="42.6658393" lon="12.221182"><ele>141.0</ele><time>2026-05-01T09:17:06.915Z</time></trkpt><trkpt lat="42.665614" lon="12.2211104"><ele>141.0</ele><time>2026-05-01T09:17:07.914Z</time></trkpt><trkpt lat="42.6653934" lon="12.2210175"><ele>141.5</ele><time>2026-05-01T09:17:08.914Z</time></trkpt><trkpt lat="42.6651688" lon="12.2209063"><ele>142.0</ele><time>2026-05-01T09:17:09.914Z</time></trkpt><trkpt lat="42.6649653" lon="12.2208079"><ele>142.0</ele><time>2026-05-01T09:17:10.915Z</time></trkpt><trkpt lat="42.6647874" lon="12.2206838"><ele>142.0</ele><time>2026-05-01T09:17:11.915Z</time></trkpt><trkpt lat="42.6646168" lon="12.2205367"><ele>142.0</ele><time>2026-05-01T09:17:12.915Z</time></trkpt><trkpt lat="42.6644558" lon="12.2203812"><ele>141.33333333333334</ele><time>2026-05-01T09:17:13.914Z</time></trkpt><trkpt lat="42.6643168" lon="12.2202392"><ele>140.66666666666666</ele><time>2026-05-01T09:17:14.915Z</time></trkpt><trkpt lat="42.6641808" lon="12.2201201"><ele>140.0</ele><time>2026-05-01T09:17:15.915Z</time></trkpt><trkpt lat="42.6640234" lon="12.2200489"><ele>140.0</ele><time>2026-05-01T09:17:16.915Z</time></trkpt><trkpt lat="42.6638471" lon="12.2200019"><ele>140.0</ele><time>2026-05-01T09:17:17.915Z</time></trkpt><trkpt lat="42.6636642" lon="12.2199626"><ele>140.0</ele><time>2026-05-01T09:17:18.915Z</time></trkpt><trkpt lat="42.6634787" lon="12.2199089"><ele>141.66666666666666</ele><time>2026-05-01T09:17:19.915Z</time></trkpt><trkpt lat="42.6633086" lon="12.219858"><ele>143.33333333333334</ele><time>2026-05-01T09:17:20.915Z</time></trkpt><trkpt lat="42.6631388" lon="12.2198315"><ele>145.0</ele><time>2026-05-01T09:17:21.915Z</time></trkpt><trkpt lat="42.662964" lon="12.2198455"><ele>145.0</ele><time>2026-05-01T09:17:22.915Z</time></trkpt><trkpt lat="42.6627954" lon="12.2199034"><ele>145.0</ele><time>2026-05-01T09:17:23.915Z</time></trkpt><trkpt lat="42.6626227" lon="12.2200101"><ele>145.0</ele><time>2026-05-01T09:17:24.914Z</time></trkpt><trkpt lat="42.6624601" lon="12.220161"><ele>146.66666666666669</ele><time>2026-05-01T09:17:25.915Z</time></trkpt><trkpt lat="42.6623105" lon="12.2203258"><ele>148.33333333333334</ele><time>2026-05-01T09:17:26.915Z</time></trkpt><trkpt lat="42.66217" lon="12.2205013"><ele>150.0</ele><time>2026-05-01T09:17:27.915Z</time></trkpt><trkpt lat="42.6620334" lon="12.2206845"><ele>143.0</ele><time>2026-05-01T09:17:28.915Z</time></trkpt><trkpt lat="42.6619088" lon="12.2208831"><ele>136.0</ele><time>2026-05-01T09:17:29.914Z</time></trkpt><trkpt lat="42.6617905" lon="12.221096"><ele>129.0</ele><time>2026-05-01T09:17:30.915Z</time></trkpt><trkpt lat="42.661677" lon="12.2213249"><ele>131.66666666666666</ele><time>2026-05-01T09:17:31.914Z</time></trkpt><trkpt lat="42.6615639" lon="12.2215615"><ele>134.33333333333331</ele><time>2026-05-01T09:17:32.915Z</time></trkpt><trkpt lat="42.661471" lon="12.2217981"><ele>137.0</ele><time>2026-05-01T09:17:33.915Z</time></trkpt><trkpt lat="42.6613808" lon="12.2220342"><ele>137.0</ele><time>2026-05-01T09:17:34.915Z</time></trkpt><trkpt lat="42.6612894" lon="12.2222547"><ele>137.0</ele><time>2026-05-01T09:17:35.915Z</time></trkpt><trkpt lat="42.6611906" lon="12.2224721"><ele>137.0</ele><time>2026-05-01T09:17:36.915Z</time></trkpt><trkpt lat="42.6610829" lon="12.2226705"><ele>135.0</ele><time>2026-05-01T09:17:37.915Z</time></trkpt><trkpt lat="42.6609684" lon="12.2228487"><ele>133.0</ele><time>2026-05-01T09:17:38.915Z</time></trkpt><trkpt lat="42.6608413" lon="12.2230135"><ele>131.0</ele><time>2026-05-01T09:17:39.915Z</time></trkpt><trkpt lat="42.6607146" lon="12.2231777"><ele>131.0</ele><time>2026-05-01T09:17:40.915Z</time></trkpt><trkpt lat="42.6605809" lon="12.2233452"><ele>131.0</ele><time>2026-05-01T09:17:41.915Z</time></trkpt><trkpt lat="42.6604522" lon="12.2235069"><ele>131.0</ele><time>2026-05-01T09:17:42.915Z</time></trkpt><trkpt lat="42.6603261" lon="12.2236658"><ele>128.66666666666666</ele><time>2026-05-01T09:17:43.915Z</time></trkpt><trkpt lat="42.6602049" lon="12.2238134"><ele>126.33333333333334</ele><time>2026-05-01T09:17:44.914Z</time></trkpt><trkpt lat="42.6600805" lon="12.2239553"><ele>124.0</ele><time>2026-05-01T09:17:45.915Z</time></trkpt><trkpt lat="42.6599486" lon="12.2240876"><ele>124.0</ele><time>2026-05-01T09:17:46.914Z</time></trkpt><trkpt lat="42.6598035" lon="12.2241906"><ele>124.0</ele><time>2026-05-01T09:17:47.915Z</time></trkpt><trkpt lat="42.65964" lon="12.2242631"><ele>124.0</ele><time>2026-05-01T09:17:48.915Z</time></trkpt><trkpt lat="42.6594633" lon="12.224296"><ele>123.0</ele><time>2026-05-01T09:17:49.915Z</time></trkpt><trkpt lat="42.6592737" lon="12.2243133"><ele>122.0</ele><time>2026-05-01T09:17:50.915Z</time></trkpt><trkpt lat="42.6590892" lon="12.224334"><ele>121.0</ele><time>2026-05-01T09:17:51.915Z</time></trkpt><trkpt lat="42.6589162" lon="12.2243719"><ele>121.0</ele><time>2026-05-01T09:17:52.915Z</time></trkpt><trkpt lat="42.6587545" lon="12.2244414"><ele>121.0</ele><time>2026-05-01T09:17:53.915Z</time></trkpt><trkpt lat="42.6586047" lon="12.2245438"><ele>121.0</ele><time>2026-05-01T09:17:54.915Z</time></trkpt><trkpt lat="42.6584795" lon="12.2246847"><ele>120.0</ele><time>2026-05-01T09:17:55.914Z</time></trkpt><trkpt lat="42.6583805" lon="12.2248534"><ele>119.0</ele><time>2026-05-01T09:17:56.914Z</time></trkpt><trkpt lat="42.6583035" lon="12.2250387"><ele>118.0</ele><time>2026-05-01T09:17:57.914Z</time></trkpt><trkpt lat="42.6582477" lon="12.2252514"><ele>118.0</ele><time>2026-05-01T09:17:58.915Z</time></trkpt><trkpt lat="42.658199" lon="12.2254602"><ele>118.0</ele><time>2026-05-01T09:17:59.914Z</time></trkpt><trkpt lat="42.6581346" lon="12.225652"><ele>118.0</ele><time>2026-05-01T09:18:00.915Z</time></trkpt><trkpt lat="42.6580665" lon="12.2258419"><ele>119.0</ele><time>2026-05-01T09:18:01.915Z</time></trkpt><trkpt lat="42.6579735" lon="12.2260071"><ele>120.0</ele><time>2026-05-01T09:18:02.915Z</time></trkpt><trkpt lat="42.6578753" lon="12.2261491"><ele>121.0</ele><time>2026-05-01T09:18:03.915Z</time></trkpt><trkpt lat="42.6577554" lon="12.2262625"><ele>122.0</ele><time>2026-05-01T09:18:04.914Z</time></trkpt><trkpt lat="42.6576144" lon="12.226352"><ele>121.0</ele><time>2026-05-01T09:18:05.914Z</time></trkpt><trkpt lat="42.6574604" lon="12.2263988"><ele>120.0</ele><time>2026-05-01T09:18:06.915Z</time></trkpt><trkpt lat="42.6573155" lon="12.2264296"><ele>119.0</ele><time>2026-05-01T09:18:07.915Z</time></trkpt><trkpt lat="42.6571762" lon="12.2264714"><ele>118.0</ele><time>2026-05-01T09:18:08.915Z</time></trkpt><trkpt lat="42.6570457" lon="12.2265545"><ele>112.66666666666667</ele><time>2026-05-01T09:18:09.915Z</time></trkpt><trkpt lat="42.6569264" lon="12.226677"><ele>107.33333333333334</ele><time>2026-05-01T09:18:10.915Z</time></trkpt><trkpt lat="42.656833" lon="12.2268615"><ele>102.0</ele><time>2026-05-01T09:18:11.915Z</time></trkpt><trkpt lat="42.6567565" lon="12.2271085"><ele>106.5</ele><time>2026-05-01T09:18:12.915Z</time></trkpt><trkpt lat="42.6566761" lon="12.227391"><ele>111.0</ele><time>2026-05-01T09:18:13.915Z</time></trkpt><trkpt lat="42.6565798" lon="12.2276863"><ele>111.0</ele><time>2026-05-01T09:18:14.915Z</time></trkpt><trkpt lat="42.6564772" lon="12.2279644"><ele>111.0</ele><time>2026-05-01T09:18:15.915Z</time></trkpt><trkpt lat="42.6563846" lon="12.2281855"><ele>111.0</ele><time>2026-05-01T09:18:16.915Z</time></trkpt><trkpt lat="42.6562726" lon="12.2283474"><ele>113.0</ele><time>2026-05-01T09:18:17.915Z</time></trkpt><trkpt lat="42.6561345" lon="12.2284539"><ele>115.0</ele><time>2026-05-01T09:18:18.914Z</time></trkpt><trkpt lat="42.655964" lon="12.2285429"><ele>117.0</ele><time>2026-05-01T09:18:19.915Z</time></trkpt><trkpt lat="42.6557714" lon="12.2286553"><ele>112.5</ele><time>2026-05-01T09:18:20.915Z</time></trkpt><trkpt lat="42.6555778" lon="12.2288065"><ele>108.0</ele><time>2026-05-01T09:18:21.915Z</time></trkpt><trkpt lat="42.6553935" lon="12.2290318"><ele>100.5</ele><time>2026-05-01T09:18:22.915Z</time></trkpt><trkpt lat="42.6552073" lon="12.2293225"><ele>93.0</ele><time>2026-05-01T09:18:23.915Z</time></trkpt><trkpt lat="42.6550352" lon="12.2296388"><ele>98.0</ele><time>2026-05-01T09:18:24.914Z</time></trkpt><trkpt lat="42.6548927" lon="12.2299633"><ele>103.0</ele><time>2026-05-01T09:18:25.915Z</time></trkpt><trkpt lat="42.6547727" lon="12.2302494"><ele>103.0</ele><time>2026-05-01T09:18:26.914Z</time></trkpt><trkpt lat="42.6546621" lon="12.2305236"><ele>103.0</ele><time>2026-05-01T09:18:27.915Z</time></trkpt><trkpt lat="42.6545197" lon="12.2307589"><ele>98.0</ele><time>2026-05-01T09:18:28.915Z</time></trkpt><trkpt lat="42.6543446" lon="12.2309845"><ele>93.0</ele><time>2026-05-01T09:18:29.915Z</time></trkpt><trkpt lat="42.6541564" lon="12.231217"><ele>93.0</ele><time>2026-05-01T09:18:30.915Z</time></trkpt><trkpt lat="42.6539634" lon="12.2314635"><ele>93.0</ele><time>2026-05-01T09:18:31.915Z</time></trkpt><trkpt lat="42.6537845" lon="12.2317353"><ele>93.0</ele><time>2026-05-01T09:18:32.915Z</time></trkpt><trkpt lat="42.6536073" lon="12.2320224"><ele>93.0</ele><time>2026-05-01T09:18:33.915Z</time></trkpt><trkpt lat="42.6534533" lon="12.2323506"><ele>93.0</ele><time>2026-05-01T09:18:34.915Z</time></trkpt><trkpt lat="42.6533104" lon="12.2326674"><ele>93.0</ele><time>2026-05-01T09:18:35.914Z</time></trkpt><trkpt lat="42.6531716" lon="12.2329651"><ele>97.0</ele><time>2026-05-01T09:18:36.915Z</time></trkpt><trkpt lat="42.6530522" lon="12.2332665"><ele>101.0</ele><time>2026-05-01T09:18:37.915Z</time></trkpt><trkpt lat="42.6529491" lon="12.233551"><ele>101.0</ele><time>2026-05-01T09:18:38.915Z</time></trkpt><trkpt lat="42.6528463" lon="12.2338345"><ele>101.0</ele><time>2026-05-01T09:18:39.914Z</time></trkpt><trkpt lat="42.6527471" lon="12.2341239"><ele>96.5</ele><time>2026-05-01T09:18:40.914Z</time></trkpt><trkpt lat="42.6526571" lon="12.2344192"><ele>92.0</ele><time>2026-05-01T09:18:41.915Z</time></trkpt><trkpt lat="42.6525893" lon="12.2347128"><ele>91.33333333333334</ele><time>2026-05-01T09:18:42.915Z</time></trkpt><trkpt lat="42.6525349" lon="12.2349655"><ele>90.66666666666667</ele><time>2026-05-01T09:18:43.915Z</time></trkpt><trkpt lat="42.6525135" lon="12.2351786"><ele>90.0</ele><time>2026-05-01T09:18:44.915Z</time></trkpt><trkpt lat="42.6525429" lon="12.2353889"><ele>90.0</ele><time>2026-05-01T09:18:45.915Z</time></trkpt><trkpt lat="42.6526188" lon="12.235574"><ele>90.0</ele><time>2026-05-01T09:18:46.915Z</time></trkpt><trkpt lat="42.6527525" lon="12.2357611"><ele>90.0</ele><time>2026-05-01T09:18:47.915Z</time></trkpt><trkpt lat="42.65293" lon="12.2359375"><ele>97.5</ele><time>2026-05-01T09:18:48.915Z</time></trkpt><trkpt lat="42.653118" lon="12.2361152"><ele>105.0</ele><time>2026-05-01T09:18:49.915Z</time></trkpt><trkpt lat="42.6533334" lon="12.2363149"><ele>104.0</ele><time>2026-05-01T09:18:50.915Z</time></trkpt><trkpt lat="42.6535686" lon="12.2365186"><ele>103.0</ele><time>2026-05-01T09:18:51.915Z</time></trkpt><trkpt lat="42.6537994" lon="12.2367126"><ele>103.0</ele><time>2026-05-01T09:18:52.914Z</time></trkpt><trkpt lat="42.6540308" lon="12.2368837"><ele>103.0</ele><time>2026-05-01T09:18:53.915Z</time></trkpt><trkpt lat="42.6542387" lon="12.237046"><ele>103.0</ele><time>2026-05-01T09:18:54.914Z</time></trkpt><trkpt lat="42.6544169" lon="12.2372054"><ele>103.0</ele><time>2026-05-01T09:18:55.914Z</time></trkpt><trkpt lat="42.6545359" lon="12.2373529"><ele>103.0</ele><time>2026-05-01T09:18:56.915Z</time></trkpt><trkpt lat="42.6545878" lon="12.2374983"><ele>104.5</ele><time>2026-05-01T09:18:57.915Z</time></trkpt><trkpt lat="42.6546156" lon="12.237652"><ele>106.0</ele><time>2026-05-01T09:18:58.914Z</time></trkpt><trkpt lat="42.6545935" lon="12.2378195"><ele>107.5</ele><time>2026-05-01T09:18:59.914Z</time></trkpt><trkpt lat="42.6545073" lon="12.2379956"><ele>109.0</ele><time>2026-05-01T09:19:00.915Z</time></trkpt><trkpt lat="42.6543788" lon="12.2381345"><ele>104.0</ele><time>2026-05-01T09:19:01.915Z</time></trkpt><trkpt lat="42.6542192" lon="12.238218"><ele>99.0</ele><time>2026-05-01T09:19:02.915Z</time></trkpt><trkpt lat="42.6540357" lon="12.2382588"><ele>94.0</ele><time>2026-05-01T09:19:03.915Z</time></trkpt><trkpt lat="42.6538427" lon="12.2382665"><ele>94.0</ele><time>2026-05-01T09:19:04.915Z</time></trkpt><trkpt lat="42.6536715" lon="12.2382778"><ele>94.0</ele><time>2026-05-01T09:19:05.914Z</time></trkpt><trkpt lat="42.653532" lon="12.2382866"><ele>94.0</ele><time>2026-05-01T09:19:06.915Z</time></trkpt><trkpt lat="42.6534109" lon="12.2382652"><ele>94.0</ele><time>2026-05-01T09:19:07.915Z</time></trkpt><trkpt lat="42.6533076" lon="12.238181"><ele>95.66666666666666</ele><time>2026-05-01T09:19:08.914Z</time></trkpt><trkpt lat="42.6532201" lon="12.2380429"><ele>97.33333333333333</ele><time>2026-05-01T09:19:09.915Z</time></trkpt><trkpt lat="42.6531254" lon="12.2378318"><ele>99.0</ele><time>2026-05-01T09:19:10.915Z</time></trkpt><trkpt lat="42.6530137" lon="12.2375723"><ele>97.66666666666667</ele><time>2026-05-01T09:19:11.915Z</time></trkpt><trkpt lat="42.6528973" lon="12.2372884"><ele>96.33333333333334</ele><time>2026-05-01T09:19:12.914Z</time></trkpt><trkpt lat="42.652799" lon="12.2370379"><ele>95.0</ele><time>2026-05-01T09:19:13.915Z</time></trkpt><trkpt lat="42.6526984" lon="12.2368405"><ele>99.0</ele><time>2026-05-01T09:19:14.915Z</time></trkpt><trkpt lat="42.6525627" lon="12.2366799"><ele>103.0</ele><time>2026-05-01T09:19:15.915Z</time></trkpt><trkpt lat="42.6524228" lon="12.2365855"><ele>107.0</ele><time>2026-05-01T09:19:16.915Z</time></trkpt><trkpt lat="42.6522808" lon="12.2365617"><ele>107.0</ele><time>2026-05-01T09:19:17.915Z</time></trkpt><trkpt lat="42.6521345" lon="12.2366247"><ele>107.0</ele><time>2026-05-01T09:19:18.915Z</time></trkpt><trkpt lat="42.651968" lon="12.236765"><ele>107.0</ele><time>2026-05-01T09:19:19.915Z</time></trkpt><trkpt lat="42.651794" lon="12.2369357"><ele>99.5</ele><time>2026-05-01T09:19:20.915Z</time></trkpt><trkpt lat="42.6516129" lon="12.237147"><ele>92.0</ele><time>2026-05-01T09:19:21.915Z</time></trkpt><trkpt lat="42.6514467" lon="12.2373977"><ele>107.0</ele><time>2026-05-01T09:19:22.915Z</time></trkpt><trkpt lat="42.6512913" lon="12.2376661"><ele>122.0</ele><time>2026-05-01T09:19:23.915Z</time></trkpt><trkpt lat="42.6511521" lon="12.2379173"><ele>120.0</ele><time>2026-05-01T09:19:24.915Z</time></trkpt><trkpt lat="42.6509974" lon="12.2381543"><ele>118.0</ele><time>2026-05-01T09:19:25.914Z</time></trkpt><trkpt lat="42.6508211" lon="12.238378"><ele>118.0</ele><time>2026-05-01T09:19:26.915Z</time></trkpt><trkpt lat="42.6506513" lon="12.2385845"><ele>118.0</ele><time>2026-05-01T09:19:27.914Z</time></trkpt><trkpt lat="42.6504722" lon="12.2387567"><ele>118.0</ele><time>2026-05-01T09:19:28.914Z</time></trkpt><trkpt lat="42.6502767" lon="12.2388971"><ele>119.66666666666667</ele><time>2026-05-01T09:19:29.915Z</time></trkpt><trkpt lat="42.6500775" lon="12.2390093"><ele>121.33333333333334</ele><time>2026-05-01T09:19:30.915Z</time></trkpt><trkpt lat="42.6499086" lon="12.2391383"><ele>123.0</ele><time>2026-05-01T09:19:31.915Z</time></trkpt><trkpt lat="42.6497504" lon="12.2392689"><ele>123.0</ele><time>2026-05-01T09:19:32.914Z</time></trkpt><trkpt lat="42.6496289" lon="12.239419"><ele>123.0</ele><time>2026-05-01T09:19:33.914Z</time></trkpt><trkpt lat="42.6495596" lon="12.2395908"><ele>123.0</ele><time>2026-05-01T09:19:34.915Z</time></trkpt><trkpt lat="42.6495545" lon="12.2397798"><ele>123.0</ele><time>2026-05-01T09:19:35.914Z</time></trkpt><trkpt lat="42.6495928" lon="12.2399365"><ele>124.33333333333334</ele><time>2026-05-01T09:19:36.915Z</time></trkpt><trkpt lat="42.6496813" lon="12.2400655"><ele>125.66666666666667</ele><time>2026-05-01T09:19:37.915Z</time></trkpt><trkpt lat="42.6498259" lon="12.2401547"><ele>127.0</ele><time>2026-05-01T09:19:38.914Z</time></trkpt><trkpt lat="42.6499916" lon="12.240231"><ele>127.0</ele><time>2026-05-01T09:19:39.915Z</time></trkpt><trkpt lat="42.6501793" lon="12.2403152"><ele>127.0</ele><time>2026-05-01T09:19:40.914Z</time></trkpt><trkpt lat="42.6503821" lon="12.2404262"><ele>127.0</ele><time>2026-05-01T09:19:41.915Z</time></trkpt><trkpt lat="42.6505686" lon="12.2405815"><ele>128.0</ele><time>2026-05-01T09:19:42.915Z</time></trkpt><trkpt lat="42.6507351" lon="12.2407498"><ele>129.0</ele><time>2026-05-01T09:19:43.914Z</time></trkpt><trkpt lat="42.6508812" lon="12.2409098"><ele>130.0</ele><time>2026-05-01T09:19:44.914Z</time></trkpt><trkpt lat="42.6510424" lon="12.2410471"><ele>132.33333333333334</ele><time>2026-05-01T09:19:45.915Z</time></trkpt><trkpt lat="42.6512285" lon="12.2411232"><ele>134.66666666666666</ele><time>2026-05-01T09:19:46.914Z</time></trkpt><trkpt lat="42.6514228" lon="12.2411416"><ele>137.0</ele><time>2026-05-01T09:19:47.915Z</time></trkpt><trkpt lat="42.651594" lon="12.2411322"><ele>137.0</ele><time>2026-05-01T09:19:48.915Z</time></trkpt><trkpt lat="42.6517266" lon="12.2411412"><ele>137.0</ele><time>2026-05-01T09:19:49.915Z</time></trkpt><trkpt lat="42.651842" lon="12.2411849"><ele>137.0</ele><time>2026-05-01T09:19:50.915Z</time></trkpt><trkpt lat="42.6519097" lon="12.2412751"><ele>137.0</ele><time>2026-05-01T09:19:51.915Z</time></trkpt><trkpt lat="42.6519318" lon="12.2414247"><ele>136.66666666666666</ele><time>2026-05-01T09:19:52.914Z</time></trkpt><trkpt lat="42.6519112" lon="12.2416021"><ele>136.33333333333334</ele><time>2026-05-01T09:19:53.915Z</time></trkpt><trkpt lat="42.6518397" lon="12.241782"><ele>136.0</ele><time>2026-05-01T09:19:54.915Z</time></trkpt><trkpt lat="42.6517246" lon="12.2419621"><ele>136.0</ele><time>2026-05-01T09:19:55.914Z</time></trkpt><trkpt lat="42.6515791" lon="12.2421396"><ele>136.0</ele><time>2026-05-01T09:19:56.915Z</time></trkpt><trkpt lat="42.6514542" lon="12.2423107"><ele>136.0</ele><time>2026-05-01T09:19:57.915Z</time></trkpt><trkpt lat="42.651359" lon="12.2424829"><ele>138.0</ele><time>2026-05-01T09:19:58.915Z</time></trkpt><trkpt lat="42.6513169" lon="12.2426889"><ele>140.0</ele><time>2026-05-01T09:19:59.914Z</time></trkpt><trkpt lat="42.6513392" lon="12.242936"><ele>142.0</ele><time>2026-05-01T09:20:00.915Z</time></trkpt><trkpt lat="42.6513818" lon="12.2432017"><ele>142.66666666666669</ele><time>2026-05-01T09:20:01.915Z</time></trkpt><trkpt lat="42.6514199" lon="12.2434733"><ele>143.33333333333334</ele><time>2026-05-01T09:20:02.915Z</time></trkpt><trkpt lat="42.6514613" lon="12.2437558"><ele>144.0</ele><time>2026-05-01T09:20:03.915Z</time></trkpt><trkpt lat="42.6515035" lon="12.2440674"><ele>145.0</ele><time>2026-05-01T09:20:04.915Z</time></trkpt><trkpt lat="42.6515424" lon="12.244388"><ele>146.0</ele><time>2026-05-01T09:20:05.915Z</time></trkpt><trkpt lat="42.6515699" lon="12.2447136"><ele>148.0</ele><time>2026-05-01T09:20:06.915Z</time></trkpt><trkpt lat="42.6515686" lon="12.2450482"><ele>150.0</ele><time>2026-05-01T09:20:07.915Z</time></trkpt><trkpt lat="42.651552" lon="12.2453823"><ele>151.0</ele><time>2026-05-01T09:20:08.914Z</time></trkpt><trkpt lat="42.6515276" lon="12.2457062"><ele>152.0</ele><time>2026-05-01T09:20:09.915Z</time></trkpt><trkpt lat="42.6515217" lon="12.2459806"><ele>153.0</ele><time>2026-05-01T09:20:10.914Z</time></trkpt><trkpt lat="42.6515675" lon="12.2462215"><ele>153.0</ele><time>2026-05-01T09:20:11.914Z</time></trkpt><trkpt lat="42.6516258" lon="12.2464233"><ele>153.0</ele><time>2026-05-01T09:20:12.915Z</time></trkpt><trkpt lat="42.6516768" lon="12.2466156"><ele>153.0</ele><time>2026-05-01T09:20:13.915Z</time></trkpt><trkpt lat="42.6517026" lon="12.2468148"><ele>152.33333333333334</ele><time>2026-05-01T09:20:14.915Z</time></trkpt><trkpt lat="42.6516898" lon="12.2470509"><ele>151.66666666666669</ele><time>2026-05-01T09:20:15.915Z</time></trkpt><trkpt lat="42.6516223" lon="12.2473067"><ele>151.0</ele><time>2026-05-01T09:20:16.915Z</time></trkpt><trkpt lat="42.6515258" lon="12.247564"><ele>154.0</ele><time>2026-05-01T09:20:17.915Z</time></trkpt><trkpt lat="42.6514034" lon="12.247813"><ele>157.0</ele><time>2026-05-01T09:20:18.915Z</time></trkpt><trkpt lat="42.6512517" lon="12.2480602"><ele>156.33333333333334</ele><time>2026-05-01T09:20:19.915Z</time></trkpt><trkpt lat="42.6511305" lon="12.248309"><ele>155.66666666666666</ele><time>2026-05-01T09:20:20.914Z</time></trkpt><trkpt lat="42.6510383" lon="12.2485948"><ele>155.0</ele><time>2026-05-01T09:20:21.915Z</time></trkpt><trkpt lat="42.6509546" lon="12.2488892"><ele>156.66666666666666</ele><time>2026-05-01T09:20:22.915Z</time></trkpt><trkpt lat="42.6508787" lon="12.249184"><ele>158.33333333333334</ele><time>2026-05-01T09:20:23.914Z</time></trkpt><trkpt lat="42.6507947" lon="12.249453"><ele>160.0</ele><time>2026-05-01T09:20:24.915Z</time></trkpt><trkpt lat="42.6507112" lon="12.2496772"><ele>162.33333333333334</ele><time>2026-05-01T09:20:25.914Z</time></trkpt><trkpt lat="42.6506464" lon="12.2499041"><ele>164.66666666666666</ele><time>2026-05-01T09:20:26.914Z</time></trkpt><trkpt lat="42.6506333" lon="12.2501366"><ele>167.0</ele><time>2026-05-01T09:20:27.915Z</time></trkpt><trkpt lat="42.650674" lon="12.250362"><ele>167.0</ele><time>2026-05-01T09:20:28.915Z</time></trkpt><trkpt lat="42.6507601" lon="12.2505718"><ele>167.0</ele><time>2026-05-01T09:20:29.915Z</time></trkpt><trkpt lat="42.6508819" lon="12.2507518"><ele>167.0</ele><time>2026-05-01T09:20:30.915Z</time></trkpt><trkpt lat="42.651039" lon="12.2509012"><ele>170.66666666666666</ele><time>2026-05-01T09:20:31.915Z</time></trkpt><trkpt lat="42.6512181" lon="12.2510364"><ele>174.33333333333334</ele><time>2026-05-01T09:20:32.915Z</time></trkpt><trkpt lat="42.6514173" lon="12.2511619"><ele>178.0</ele><time>2026-05-01T09:20:33.915Z</time></trkpt><trkpt lat="42.6516051" lon="12.2513038"><ele>178.0</ele><time>2026-05-01T09:20:34.915Z</time></trkpt><trkpt lat="42.6517815" lon="12.2514337"><ele>178.0</ele><time>2026-05-01T09:20:35.915Z</time></trkpt><trkpt lat="42.651948" lon="12.2515106"><ele>178.0</ele><time>2026-05-01T09:20:36.915Z</time></trkpt><trkpt lat="42.6521023" lon="12.2515565"><ele>178.25</ele><time>2026-05-01T09:20:37.915Z</time></trkpt><trkpt lat="42.6522386" lon="12.2516182"><ele>178.5</ele><time>2026-05-01T09:20:38.914Z</time></trkpt><trkpt lat="42.6523342" lon="12.2517011"><ele>178.75</ele><time>2026-05-01T09:20:39.915Z</time></trkpt><trkpt lat="42.652381" lon="12.2518347"><ele>179.0</ele><time>2026-05-01T09:20:40.915Z</time></trkpt><trkpt lat="42.652373" lon="12.251981"><ele>179.0</ele><time>2026-05-01T09:20:41.914Z</time></trkpt><trkpt lat="42.6523042" lon="12.2521217"><ele>179.0</ele><time>2026-05-01T09:20:42.915Z</time></trkpt><trkpt lat="42.6521853" lon="12.252227"><ele>179.0</ele><time>2026-05-01T09:20:43.915Z</time></trkpt><trkpt lat="42.652032" lon="12.2522738"><ele>179.0</ele><time>2026-05-01T09:20:44.915Z</time></trkpt><trkpt lat="42.6518471" lon="12.2522546"><ele>177.33333333333331</ele><time>2026-05-01T09:20:45.914Z</time></trkpt><trkpt lat="42.6516345" lon="12.2521912"><ele>175.66666666666666</ele><time>2026-05-01T09:20:46.915Z</time></trkpt><trkpt lat="42.6514227" lon="12.2521267"><ele>174.0</ele><time>2026-05-01T09:20:47.915Z</time></trkpt><trkpt lat="42.6512184" lon="12.2520761"><ele>173.66666666666666</ele><time>2026-05-01T09:20:48.914Z</time></trkpt><trkpt lat="42.6510412" lon="12.2520605"><ele>173.33333333333331</ele><time>2026-05-01T09:20:49.915Z</time></trkpt><trkpt lat="42.6508979" lon="12.2521223"><ele>173.0</ele><time>2026-05-01T09:20:50.915Z</time></trkpt><trkpt lat="42.6507575" lon="12.2522456"><ele>177.66666666666666</ele><time>2026-05-01T09:20:51.915Z</time></trkpt><trkpt lat="42.6506635" lon="12.2524639"><ele>182.33333333333334</ele><time>2026-05-01T09:20:52.915Z</time></trkpt><trkpt lat="42.650611" lon="12.2527252"><ele>187.0</ele><time>2026-05-01T09:20:53.915Z</time></trkpt><trkpt lat="42.650582" lon="12.2529675"><ele>186.0</ele><time>2026-05-01T09:20:54.915Z</time></trkpt><trkpt lat="42.6505815" lon="12.2531696"><ele>185.0</ele><time>2026-05-01T09:20:55.915Z</time></trkpt><trkpt lat="42.6506258" lon="12.2533462"><ele>184.0</ele><time>2026-05-01T09:20:56.914Z</time></trkpt><trkpt lat="42.6507338" lon="12.2535134"><ele>184.0</ele><time>2026-05-01T09:20:57.915Z</time></trkpt><trkpt lat="42.6509118" lon="12.2536358"><ele>184.0</ele><time>2026-05-01T09:20:58.915Z</time></trkpt><trkpt lat="42.6511073" lon="12.2537456"><ele>184.0</ele><time>2026-05-01T09:20:59.915Z</time></trkpt><trkpt lat="42.6513119" lon="12.2538436"><ele>184.33333333333334</ele><time>2026-05-01T09:21:00.914Z</time></trkpt><trkpt lat="42.6514978" lon="12.2539373"><ele>184.66666666666666</ele><time>2026-05-01T09:21:01.914Z</time></trkpt><trkpt lat="42.651651" lon="12.2540378"><ele>185.0</ele><time>2026-05-01T09:21:02.914Z</time></trkpt><trkpt lat="42.6517836" lon="12.2541652"><ele>185.0</ele><time>2026-05-01T09:21:03.915Z</time></trkpt><trkpt lat="42.6518885" lon="12.2543066"><ele>185.0</ele><time>2026-05-01T09:21:04.915Z</time></trkpt><trkpt lat="42.6519468" lon="12.2544869"><ele>185.0</ele><time>2026-05-01T09:21:05.915Z</time></trkpt><trkpt lat="42.651969" lon="12.2546884"><ele>185.0</ele><time>2026-05-01T09:21:06.915Z</time></trkpt><trkpt lat="42.6519276" lon="12.2548841"><ele>185.0</ele><time>2026-05-01T09:21:07.915Z</time></trkpt><trkpt lat="42.6518207" lon="12.2550627"><ele>185.0</ele><time>2026-05-01T09:21:08.914Z</time></trkpt><trkpt lat="42.6516709" lon="12.2552028"><ele>185.0</ele><time>2026-05-01T09:21:09.915Z</time></trkpt><trkpt lat="42.6515184" lon="12.2553253"><ele>185.0</ele><time>2026-05-01T09:21:10.915Z</time></trkpt><trkpt lat="42.651393" lon="12.2554991"><ele>185.0</ele><time>2026-05-01T09:21:11.914Z</time></trkpt><trkpt lat="42.6513229" lon="12.2557427"><ele>185.0</ele><time>2026-05-01T09:21:12.915Z</time></trkpt><trkpt lat="42.6513041" lon="12.256"><ele>186.0</ele><time>2026-05-01T09:21:13.915Z</time></trkpt><trkpt lat="42.6513462" lon="12.2562429"><ele>187.0</ele><time>2026-05-01T09:21:14.915Z</time></trkpt><trkpt lat="42.6514405" lon="12.2564806"><ele>188.0</ele><time>2026-05-01T09:21:15.915Z</time></trkpt><trkpt lat="42.6515672" lon="12.2567127"><ele>188.0</ele><time>2026-05-01T09:21:16.915Z</time></trkpt><trkpt lat="42.6517255" lon="12.2569394"><ele>188.0</ele><time>2026-05-01T09:21:17.914Z</time></trkpt><trkpt lat="42.6519107" lon="12.2571723"><ele>192.0</ele><time>2026-05-01T09:21:18.914Z</time></trkpt><trkpt lat="42.6521195" lon="12.2573691"><ele>196.0</ele><time>2026-05-01T09:21:19.915Z</time></trkpt><trkpt lat="42.6523453" lon="12.2575624"><ele>196.0</ele><time>2026-05-01T09:21:20.915Z</time></trkpt><trkpt lat="42.6525701" lon="12.2577519"><ele>196.0</ele><time>2026-05-01T09:21:21.915Z</time></trkpt><trkpt lat="42.652792" lon="12.2579299"><ele>194.0</ele><time>2026-05-01T09:21:22.915Z</time></trkpt><trkpt lat="42.6530026" lon="12.2581083"><ele>192.0</ele><time>2026-05-01T09:21:23.915Z</time></trkpt><trkpt lat="42.6532228" lon="12.258248"><ele>192.0</ele><time>2026-05-01T09:21:24.915Z</time></trkpt><trkpt lat="42.653442" lon="12.2583711"><ele>192.0</ele><time>2026-05-01T09:21:25.914Z</time></trkpt><trkpt lat="42.6536397" lon="12.2584797"><ele>195.33333333333331</ele><time>2026-05-01T09:21:26.915Z</time></trkpt><trkpt lat="42.6538124" lon="12.2585833"><ele>198.66666666666666</ele><time>2026-05-01T09:21:27.914Z</time></trkpt><trkpt lat="42.65397" lon="12.2587334"><ele>202.0</ele><time>2026-05-01T09:21:28.915Z</time></trkpt><trkpt lat="42.6541194" lon="12.2589459"><ele>199.0</ele><time>2026-05-01T09:21:29.915Z</time></trkpt><trkpt lat="42.6542886" lon="12.2591796"><ele>196.0</ele><time>2026-05-01T09:21:30.915Z</time></trkpt><trkpt lat="42.6544725" lon="12.2593795"><ele>196.0</ele><time>2026-05-01T09:21:31.915Z</time></trkpt><trkpt lat="42.654658" lon="12.2595463"><ele>196.0</ele><time>2026-05-01T09:21:32.915Z</time></trkpt><trkpt lat="42.6548243" lon="12.2597556"><ele>196.0</ele><time>2026-05-01T09:21:33.914Z</time></trkpt><trkpt lat="42.6549891" lon="12.2600001"><ele>194.0</ele><time>2026-05-01T09:21:34.915Z</time></trkpt><trkpt lat="42.6551581" lon="12.2602706"><ele>192.0</ele><time>2026-05-01T09:21:35.915Z</time></trkpt><trkpt lat="42.6553293" lon="12.2605545"><ele>195.0</ele><time>2026-05-01T09:21:36.915Z</time></trkpt><trkpt lat="42.655499" lon="12.2608489"><ele>198.0</ele><time>2026-05-01T09:21:37.915Z</time></trkpt><trkpt lat="42.6556523" lon="12.261124"><ele>198.0</ele><time>2026-05-01T09:21:38.914Z</time></trkpt><trkpt lat="42.6557768" lon="12.2613652"><ele>198.0</ele><time>2026-05-01T09:21:39.914Z</time></trkpt><trkpt lat="42.6558705" lon="12.2615774"><ele>198.0</ele><time>2026-05-01T09:21:40.915Z</time></trkpt><trkpt lat="42.6559719" lon="12.2617384"><ele>198.0</ele><time>2026-05-01T09:21:41.915Z</time></trkpt><trkpt lat="42.6561102" lon="12.2618826"><ele>198.0</ele><time>2026-05-01T09:21:42.915Z</time></trkpt><trkpt lat="42.6562694" lon="12.261984"><ele>198.0</ele><time>2026-05-01T09:21:43.915Z</time></trkpt><trkpt lat="42.6564493" lon="12.262071"><ele>198.0</ele><time>2026-05-01T09:21:44.915Z</time></trkpt><trkpt lat="42.6566566" lon="12.2622044"><ele>198.0</ele><time>2026-05-01T09:21:45.914Z</time></trkpt><trkpt lat="42.6568888" lon="12.2623618"><ele>201.0</ele><time>2026-05-01T09:21:46.915Z</time></trkpt><trkpt lat="42.6571496" lon="12.262516"><ele>204.0</ele><time>2026-05-01T09:21:47.914Z</time></trkpt><trkpt lat="42.6573946" lon="12.2626792"><ele>204.0</ele><time>2026-05-01T09:21:48.915Z</time></trkpt><trkpt lat="42.6576074" lon="12.2628029"><ele>204.0</ele><time>2026-05-01T09:21:49.915Z</time></trkpt><trkpt lat="42.6577943" lon="12.2628982"><ele>204.0</ele><time>2026-05-01T09:21:50.914Z</time></trkpt><trkpt lat="42.6579644" lon="12.2629655"><ele>204.5</ele><time>2026-05-01T09:21:51.914Z</time></trkpt><trkpt lat="42.6581021" lon="12.2630297"><ele>205.0</ele><time>2026-05-01T09:21:52.915Z</time></trkpt><trkpt lat="42.6582214" lon="12.2631396"><ele>205.5</ele><time>2026-05-01T09:21:53.915Z</time></trkpt><trkpt lat="42.6583254" lon="12.2632931"><ele>206.0</ele><time>2026-05-01T09:21:54.915Z</time></trkpt><trkpt lat="42.6583941" lon="12.2634924"><ele>206.0</ele><time>2026-05-01T09:21:55.914Z</time></trkpt><trkpt lat="42.6584367" lon="12.2637401"><ele>206.0</ele><time>2026-05-01T09:21:56.915Z</time></trkpt><trkpt lat="42.658444" lon="12.2640094"><ele>206.0</ele><time>2026-05-01T09:21:57.915Z</time></trkpt><trkpt lat="42.6584362" lon="12.2642772"><ele>205.66666666666669</ele><time>2026-05-01T09:21:58.915Z</time></trkpt><trkpt lat="42.6583851" lon="12.2645424"><ele>205.33333333333331</ele><time>2026-05-01T09:21:59.915Z</time></trkpt><trkpt lat="42.6582662" lon="12.264758"><ele>205.0</ele><time>2026-05-01T09:22:00.915Z</time></trkpt><trkpt lat="42.6581187" lon="12.2649459"><ele>205.0</ele><time>2026-05-01T09:22:01.915Z</time></trkpt><trkpt lat="42.6579593" lon="12.2651006"><ele>205.0</ele><time>2026-05-01T09:22:02.914Z</time></trkpt><trkpt lat="42.657817" lon="12.2652404"><ele>205.0</ele><time>2026-05-01T09:22:03.914Z</time></trkpt><trkpt lat="42.6577306" lon="12.2653864"><ele>203.33333333333331</ele><time>2026-05-01T09:22:04.915Z</time></trkpt><trkpt lat="42.6577197" lon="12.2655755"><ele>201.66666666666669</ele><time>2026-05-01T09:22:05.915Z</time></trkpt><trkpt lat="42.6577628" lon="12.2657798"><ele>200.0</ele><time>2026-05-01T09:22:06.915Z</time></trkpt><trkpt lat="42.6578448" lon="12.2659899"><ele>200.0</ele><time>2026-05-01T09:22:07.915Z</time></trkpt><trkpt lat="42.657918" lon="12.2662047"><ele>200.0</ele><time>2026-05-01T09:22:08.914Z</time></trkpt><trkpt lat="42.6579733" lon="12.266433"><ele>200.0</ele><time>2026-05-01T09:22:09.914Z</time></trkpt><trkpt lat="42.6579809" lon="12.2666974"><ele>201.5</ele><time>2026-05-01T09:22:10.915Z</time></trkpt><trkpt lat="42.6579412" lon="12.2670221"><ele>203.0</ele><time>2026-05-01T09:22:11.915Z</time></trkpt><trkpt lat="42.6578841" lon="12.2673636"><ele>205.5</ele><time>2026-05-01T09:22:12.915Z</time></trkpt><trkpt lat="42.6578264" lon="12.2677301"><ele>208.0</ele><time>2026-05-01T09:22:13.914Z</time></trkpt><trkpt lat="42.6577777" lon="12.2681031"><ele>214.0</ele><time>2026-05-01T09:22:14.915Z</time></trkpt><trkpt lat="42.6577374" lon="12.268469"><ele>220.0</ele><time>2026-05-01T09:22:15.914Z</time></trkpt><trkpt lat="42.657695" lon="12.2687803"><ele>220.0</ele><time>2026-05-01T09:22:16.915Z</time></trkpt><trkpt lat="42.6576442" lon="12.269081"><ele>220.0</ele><time>2026-05-01T09:22:17.914Z</time></trkpt><trkpt lat="42.657579" lon="12.2693759"><ele>220.0</ele><time>2026-05-01T09:22:18.915Z</time></trkpt><trkpt lat="42.6574943" lon="12.269628"><ele>220.0</ele><time>2026-05-01T09:22:19.915Z</time></trkpt><trkpt lat="42.6573949" lon="12.2698309"><ele>220.0</ele><time>2026-05-01T09:22:20.915Z</time></trkpt><trkpt lat="42.6572582" lon="12.2700009"><ele>222.66666666666666</ele><time>2026-05-01T09:22:21.915Z</time></trkpt><trkpt lat="42.6571014" lon="12.2701446"><ele>225.33333333333331</ele><time>2026-05-01T09:22:22.915Z</time></trkpt><trkpt lat="42.6569321" lon="12.2702931"><ele>228.0</ele><time>2026-05-01T09:22:23.915Z</time></trkpt><trkpt lat="42.6567932" lon="12.2704872"><ele>226.0</ele><time>2026-05-01T09:22:24.915Z</time></trkpt><trkpt lat="42.6566948" lon="12.2707315"><ele>224.0</ele><time>2026-05-01T09:22:25.914Z</time></trkpt><trkpt lat="42.6566241" lon="12.2710035"><ele>222.0</ele><time>2026-05-01T09:22:26.915Z</time></trkpt><trkpt lat="42.6565381" lon="12.2712519"><ele>220.33333333333331</ele><time>2026-05-01T09:22:27.915Z</time></trkpt><trkpt lat="42.656416" lon="12.271484"><ele>218.66666666666666</ele><time>2026-05-01T09:22:28.915Z</time></trkpt><trkpt lat="42.6562516" lon="12.2716825"><ele>217.0</ele><time>2026-05-01T09:22:29.914Z</time></trkpt><trkpt lat="42.6560622" lon="12.2718698"><ele>222.5</ele><time>2026-05-01T09:22:30.915Z</time></trkpt><trkpt lat="42.655852" lon="12.2720364"><ele>228.0</ele><time>2026-05-01T09:22:31.915Z</time></trkpt><trkpt lat="42.6556342" lon="12.2721835"><ele>226.5</ele><time>2026-05-01T09:22:32.915Z</time></trkpt><trkpt lat="42.6554008" lon="12.2723117"><ele>225.0</ele><time>2026-05-01T09:22:33.915Z</time></trkpt><trkpt lat="42.6551565" lon="12.2724318"><ele>225.0</ele><time>2026-05-01T09:22:34.915Z</time></trkpt><trkpt lat="42.654904" lon="12.2725526"><ele>225.0</ele><time>2026-05-01T09:22:35.915Z</time></trkpt><trkpt lat="42.6546462" lon="12.2726561"><ele>228.5</ele><time>2026-05-01T09:22:36.915Z</time></trkpt><trkpt lat="42.6544063" lon="12.2727733"><ele>232.0</ele><time>2026-05-01T09:22:37.915Z</time></trkpt><trkpt lat="42.6541978" lon="12.2729125"><ele>232.0</ele><time>2026-05-01T09:22:38.915Z</time></trkpt><trkpt lat="42.6540255" lon="12.2731037"><ele>232.0</ele><time>2026-05-01T09:22:39.915Z</time></trkpt><trkpt lat="42.6538808" lon="12.27335"><ele>229.5</ele><time>2026-05-01T09:22:40.915Z</time></trkpt><trkpt lat="42.653758" lon="12.2736127"><ele>227.0</ele><time>2026-05-01T09:22:41.915Z</time></trkpt><trkpt lat="42.6536695" lon="12.2738949"><ele>229.0</ele><time>2026-05-01T09:22:42.915Z</time></trkpt><trkpt lat="42.6536214" lon="12.2742053"><ele>231.0</ele><time>2026-05-01T09:22:43.914Z</time></trkpt><trkpt lat="42.6536012" lon="12.2745251"><ele>234.0</ele><time>2026-05-01T09:22:44.915Z</time></trkpt><trkpt lat="42.6535776" lon="12.2748607"><ele>237.0</ele><time>2026-05-01T09:22:45.915Z</time></trkpt><trkpt lat="42.6535631" lon="12.2752045"><ele>237.0</ele><time>2026-05-01T09:22:46.915Z</time></trkpt><trkpt lat="42.6535521" lon="12.2755492"><ele>237.0</ele><time>2026-05-01T09:22:47.914Z</time></trkpt><trkpt lat="42.6535356" lon="12.2758722"><ele>239.0</ele><time>2026-05-01T09:22:48.915Z</time></trkpt><trkpt lat="42.6535227" lon="12.2761578"><ele>241.0</ele><time>2026-05-01T09:22:49.915Z</time></trkpt><trkpt lat="42.6535059" lon="12.2764132"><ele>243.0</ele><time>2026-05-01T09:22:50.915Z</time></trkpt><trkpt lat="42.6534703" lon="12.2766469"><ele>245.0</ele><time>2026-05-01T09:22:51.915Z</time></trkpt><trkpt lat="42.6534081" lon="12.2768646"><ele>247.0</ele><time>2026-05-01T09:22:52.915Z</time></trkpt><trkpt lat="42.6533128" lon="12.2770694"><ele>249.0</ele><time>2026-05-01T09:22:53.915Z</time></trkpt><trkpt lat="42.6532006" lon="12.2772653"><ele>249.0</ele><time>2026-05-01T09:22:54.915Z</time></trkpt><trkpt lat="42.6530835" lon="12.2774563"><ele>249.0</ele><time>2026-05-01T09:22:55.914Z</time></trkpt><trkpt lat="42.6529767" lon="12.277648"><ele>249.0</ele><time>2026-05-01T09:22:56.915Z</time></trkpt><trkpt lat="42.6529101" lon="12.2778737"><ele>249.33333333333331</ele><time>2026-05-01T09:22:57.915Z</time></trkpt><trkpt lat="42.6528578" lon="12.2781203"><ele>249.66666666666666</ele><time>2026-05-01T09:22:58.915Z</time></trkpt><trkpt lat="42.652816" lon="12.2783705"><ele>250.0</ele><time>2026-05-01T09:22:59.915Z</time></trkpt><trkpt lat="42.6527658" lon="12.2785956"><ele>252.66666666666666</ele><time>2026-05-01T09:23:00.915Z</time></trkpt><trkpt lat="42.6527148" lon="12.2788056"><ele>255.33333333333331</ele><time>2026-05-01T09:23:01.915Z</time></trkpt><trkpt lat="42.6526533" lon="12.2789963"><ele>258.0</ele><time>2026-05-01T09:23:02.914Z</time></trkpt><trkpt lat="42.6525561" lon="12.2791587"><ele>258.0</ele><time>2026-05-01T09:23:03.915Z</time></trkpt><trkpt lat="42.6524505" lon="12.279309"><ele>258.0</ele><time>2026-05-01T09:23:04.915Z</time></trkpt><trkpt lat="42.6523265" lon="12.2794348"><ele>258.0</ele><time>2026-05-01T09:23:05.915Z</time></trkpt><trkpt lat="42.6521778" lon="12.2795197"><ele>258.0</ele><time>2026-05-01T09:23:06.914Z</time></trkpt><trkpt lat="42.6519908" lon="12.2795345"><ele>258.0</ele><time>2026-05-01T09:23:07.915Z</time></trkpt><trkpt lat="42.65179" lon="12.2794788"><ele>258.0</ele><time>2026-05-01T09:23:08.914Z</time></trkpt><trkpt lat="42.6515715" lon="12.2794092"><ele>260.3333333333333</ele><time>2026-05-01T09:23:09.915Z</time></trkpt><trkpt lat="42.651368" lon="12.2793417"><ele>262.66666666666663</ele><time>2026-05-01T09:23:10.915Z</time></trkpt><trkpt lat="42.6511935" lon="12.2792923"><ele>265.0</ele><time>2026-05-01T09:23:11.915Z</time></trkpt><trkpt lat="42.6510657" lon="12.2792224"><ele>266.25</ele><time>2026-05-01T09:23:12.915Z</time></trkpt><trkpt lat="42.650974" lon="12.2791136"><ele>267.5</ele><time>2026-05-01T09:23:13.914Z</time></trkpt><trkpt lat="42.6509309" lon="12.2789442"><ele>268.75</ele><time>2026-05-01T09:23:14.915Z</time></trkpt><trkpt lat="42.6509354" lon="12.2787208"><ele>270.0</ele><time>2026-05-01T09:23:15.914Z</time></trkpt><trkpt lat="42.6509807" lon="12.278504"><ele>271.0</ele><time>2026-05-01T09:23:16.915Z</time></trkpt><trkpt lat="42.6510145" lon="12.2782713"><ele>272.0</ele><time>2026-05-01T09:23:17.914Z</time></trkpt><trkpt lat="42.6510165" lon="12.2780242"><ele>273.0</ele><time>2026-05-01T09:23:18.915Z</time></trkpt><trkpt lat="42.6509883" lon="12.2777813"><ele>273.3333333333333</ele><time>2026-05-01T09:23:19.915Z</time></trkpt><trkpt lat="42.6509263" lon="12.2775732"><ele>273.66666666666663</ele><time>2026-05-01T09:23:20.915Z</time></trkpt><trkpt lat="42.6508551" lon="12.277386"><ele>274.0</ele><time>2026-05-01T09:23:21.914Z</time></trkpt><trkpt lat="42.6507558" lon="12.2772431"><ele>273.66666666666663</ele><time>2026-05-01T09:23:22.915Z</time></trkpt><trkpt lat="42.6506262" lon="12.2771281"><ele>273.3333333333333</ele><time>2026-05-01T09:23:23.915Z</time></trkpt><trkpt lat="42.6504635" lon="12.2770451"><ele>273.0</ele><time>2026-05-01T09:23:24.915Z</time></trkpt><trkpt lat="42.6502801" lon="12.2769837"><ele>273.0</ele><time>2026-05-01T09:23:25.915Z</time></trkpt><trkpt lat="42.6500755" lon="12.2769353"><ele>273.0</ele><time>2026-05-01T09:23:26.915Z</time></trkpt><trkpt lat="42.6498677" lon="12.2769119"><ele>273.0</ele><time>2026-05-01T09:23:27.915Z</time></trkpt><trkpt lat="42.6496635" lon="12.2769035"><ele>273.0</ele><time>2026-05-01T09:23:28.914Z</time></trkpt><trkpt lat="42.6495033" lon="12.2769564"><ele>273.0</ele><time>2026-05-01T09:23:29.914Z</time></trkpt><trkpt lat="42.6493541" lon="12.2770732"><ele>273.0</ele><time>2026-05-01T09:23:30.915Z</time></trkpt><trkpt lat="42.6492215" lon="12.2772384"><ele>277.3333333333333</ele><time>2026-05-01T09:23:31.914Z</time></trkpt><trkpt lat="42.6491117" lon="12.2774465"><ele>281.66666666666663</ele><time>2026-05-01T09:23:32.914Z</time></trkpt><trkpt lat="42.6490061" lon="12.2776886"><ele>286.0</ele><time>2026-05-01T09:23:33.914Z</time></trkpt><trkpt lat="42.648894" lon="12.2779247"><ele>289.66666666666663</ele><time>2026-05-01T09:23:34.914Z</time></trkpt><trkpt lat="42.6487938" lon="12.2781823"><ele>293.3333333333333</ele><time>2026-05-01T09:23:35.915Z</time></trkpt><trkpt lat="42.6487195" lon="12.2784364"><ele>297.0</ele><time>2026-05-01T09:23:36.914Z</time></trkpt><trkpt lat="42.648669" lon="12.2786643"><ele>297.0</ele><time>2026-05-01T09:23:37.914Z</time></trkpt><trkpt lat="42.6486384" lon="12.2788841"><ele>297.0</ele><time>2026-05-01T09:23:38.915Z</time></trkpt><trkpt lat="42.6486158" lon="12.2790877"><ele>297.0</ele><time>2026-05-01T09:23:39.914Z</time></trkpt><trkpt lat="42.6485811" lon="12.2792759"><ele>295.0</ele><time>2026-05-01T09:23:40.915Z</time></trkpt><trkpt lat="42.6485191" lon="12.2794443"><ele>293.0</ele><time>2026-05-01T09:23:41.915Z</time></trkpt><trkpt lat="42.6484002" lon="12.2795594"><ele>291.0</ele><time>2026-05-01T09:23:42.915Z</time></trkpt><trkpt lat="42.6482371" lon="12.2796117"><ele>291.0</ele><time>2026-05-01T09:23:43.914Z</time></trkpt><trkpt lat="42.6480518" lon="12.279638"><ele>291.0</ele><time>2026-05-01T09:23:44.915Z</time></trkpt><trkpt lat="42.6478564" lon="12.2796625"><ele>291.0</ele><time>2026-05-01T09:23:45.915Z</time></trkpt><trkpt lat="42.647663" lon="12.2796666"><ele>290.0</ele><time>2026-05-01T09:23:46.915Z</time></trkpt><trkpt lat="42.6474734" lon="12.279679"><ele>289.0</ele><time>2026-05-01T09:23:47.915Z</time></trkpt><trkpt lat="42.6472924" lon="12.2796891"><ele>288.0</ele><time>2026-05-01T09:23:48.914Z</time></trkpt><trkpt lat="42.6470981" lon="12.2797151"><ele>298.5</ele><time>2026-05-01T09:23:49.914Z</time></trkpt><trkpt lat="42.6468782" lon="12.2797856"><ele>309.0</ele><time>2026-05-01T09:23:50.915Z</time></trkpt><trkpt lat="42.6466581" lon="12.279895"><ele>309.0</ele><time>2026-05-01T09:23:51.915Z</time></trkpt><trkpt lat="42.6464356" lon="12.2800117"><ele>309.0</ele><time>2026-05-01T09:23:52.914Z</time></trkpt><trkpt lat="42.6462349" lon="12.2801296"><ele>308.0</ele><time>2026-05-01T09:23:53.914Z</time></trkpt><trkpt lat="42.6460511" lon="12.2802382"><ele>307.0</ele><time>2026-05-01T09:23:54.915Z</time></trkpt><trkpt lat="42.6458822" lon="12.2803782"><ele>306.0</ele><time>2026-05-01T09:23:55.914Z</time></trkpt><trkpt lat="42.6457193" lon="12.2805491"><ele>306.3333333333333</ele><time>2026-05-01T09:23:56.915Z</time></trkpt><trkpt lat="42.6455698" lon="12.2807499"><ele>306.66666666666663</ele><time>2026-05-01T09:23:57.914Z</time></trkpt><trkpt lat="42.645406" lon="12.2809457"><ele>307.0</ele><time>2026-05-01T09:23:58.915Z</time></trkpt><trkpt lat="42.6452333" lon="12.2811681"><ele>307.0</ele><time>2026-05-01T09:23:59.915Z</time></trkpt><trkpt lat="42.6450547" lon="12.2813883"><ele>307.0</ele><time>2026-05-01T09:24:00.914Z</time></trkpt><trkpt lat="42.6448798" lon="12.2816008"><ele>308.3333333333333</ele><time>2026-05-01T09:24:01.914Z</time></trkpt><trkpt lat="42.6447106" lon="12.281806"><ele>309.6666666666667</ele><time>2026-05-01T09:24:02.915Z</time></trkpt><trkpt lat="42.6445423" lon="12.2819876"><ele>311.0</ele><time>2026-05-01T09:24:03.915Z</time></trkpt><trkpt lat="42.6443432" lon="12.2821323"><ele>323.0</ele><time>2026-05-01T09:24:04.915Z</time></trkpt><trkpt lat="42.6441253" lon="12.2822682"><ele>335.0</ele><time>2026-05-01T09:24:05.915Z</time></trkpt><trkpt lat="42.6439032" lon="12.2823879"><ele>335.0</ele><time>2026-05-01T09:24:06.914Z</time></trkpt><trkpt lat="42.6437035" lon="12.2824903"><ele>335.0</ele><time>2026-05-01T09:24:07.915Z</time></trkpt><trkpt lat="42.643516" lon="12.2825977"><ele>335.0</ele><time>2026-05-01T09:24:08.915Z</time></trkpt><trkpt lat="42.6433555" lon="12.2827466"><ele>337.33333333333337</ele><time>2026-05-01T09:24:09.914Z</time></trkpt><trkpt lat="42.6432084" lon="12.2829465"><ele>339.6666666666667</ele><time>2026-05-01T09:24:10.915Z</time></trkpt><trkpt lat="42.6430666" lon="12.2831648"><ele>342.0</ele><time>2026-05-01T09:24:11.914Z</time></trkpt><trkpt lat="42.6429008" lon="12.2833506"><ele>337.0</ele><time>2026-05-01T09:24:12.915Z</time></trkpt><trkpt lat="42.6427127" lon="12.2835032"><ele>332.0</ele><time>2026-05-01T09:24:13.915Z</time></trkpt><trkpt lat="42.6425288" lon="12.2836141"><ele>327.0</ele><time>2026-05-01T09:24:14.915Z</time></trkpt><trkpt lat="42.64237" lon="12.2837116"><ele>327.0</ele><time>2026-05-01T09:24:15.915Z</time></trkpt><trkpt lat="42.6422216" lon="12.2838272"><ele>327.0</ele><time>2026-05-01T09:24:16.915Z</time></trkpt><trkpt lat="42.6421074" lon="12.2840171"><ele>327.0</ele><time>2026-05-01T09:24:17.915Z</time></trkpt><trkpt lat="42.642021" lon="12.284295"><ele>325.5</ele><time>2026-05-01T09:24:18.915Z</time></trkpt><trkpt lat="42.6419408" lon="12.2846043"><ele>324.0</ele><time>2026-05-01T09:24:19.915Z</time></trkpt><trkpt lat="42.6418479" lon="12.2849267"><ele>331.0</ele><time>2026-05-01T09:24:20.915Z</time></trkpt><trkpt lat="42.6417551" lon="12.2852528"><ele>338.0</ele><time>2026-05-01T09:24:21.914Z</time></trkpt><trkpt lat="42.6416584" lon="12.2855651"><ele>343.0</ele><time>2026-05-01T09:24:22.914Z</time></trkpt><trkpt lat="42.6415547" lon="12.2858228"><ele>348.0</ele><time>2026-05-01T09:24:23.914Z</time></trkpt><trkpt lat="42.6414323" lon="12.2860453"><ele>353.0</ele><time>2026-05-01T09:24:24.915Z</time></trkpt><trkpt lat="42.6413022" lon="12.2862545"><ele>350.6666666666667</ele><time>2026-05-01T09:24:25.915Z</time></trkpt><trkpt lat="42.6411712" lon="12.2864592"><ele>348.3333333333333</ele><time>2026-05-01T09:24:26.915Z</time></trkpt><trkpt lat="42.6410451" lon="12.2866611"><ele>346.0</ele><time>2026-05-01T09:24:27.915Z</time></trkpt><trkpt lat="42.6409304" lon="12.2868392"><ele>346.0</ele><time>2026-05-01T09:24:28.914Z</time></trkpt><trkpt lat="42.6408345" lon="12.2869973"><ele>346.0</ele><time>2026-05-01T09:24:29.915Z</time></trkpt><trkpt lat="42.6407358" lon="12.2871469"><ele>346.0</ele><time>2026-05-01T09:24:30.915Z</time></trkpt><trkpt lat="42.6406434" lon="12.2872876"><ele>346.0</ele><time>2026-05-01T09:24:31.915Z</time></trkpt><trkpt lat="42.6405402" lon="12.2874133"><ele>345.75</ele><time>2026-05-01T09:24:32.915Z</time></trkpt><trkpt lat="42.640432" lon="12.2875339"><ele>345.5</ele><time>2026-05-01T09:24:33.915Z</time></trkpt><trkpt lat="42.6403085" lon="12.2876287"><ele>345.25</ele><time>2026-05-01T09:24:34.915Z</time></trkpt><trkpt lat="42.6401819" lon="12.2877052"><ele>345.0</ele><time>2026-05-01T09:24:35.915Z</time></trkpt><trkpt lat="42.6400546" lon="12.2877539"><ele>345.0</ele><time>2026-05-01T09:24:36.915Z</time></trkpt><trkpt lat="42.6399379" lon="12.2878193"><ele>345.0</ele><time>2026-05-01T09:24:37.915Z</time></trkpt><trkpt lat="42.6398212" lon="12.2879057"><ele>345.0</ele><time>2026-05-01T09:24:38.915Z</time></trkpt><trkpt lat="42.6397181" lon="12.2880339"><ele>345.0</ele><time>2026-05-01T09:24:39.915Z</time></trkpt><trkpt lat="42.6396363" lon="12.2882013"><ele>348.6666666666667</ele><time>2026-05-01T09:24:40.915Z</time></trkpt><trkpt lat="42.6395795" lon="12.2884029"><ele>352.33333333333337</ele><time>2026-05-01T09:24:41.915Z</time></trkpt><trkpt lat="42.6395329" lon="12.2886273"><ele>356.0</ele><time>2026-05-01T09:24:42.914Z</time></trkpt><trkpt lat="42.6394807" lon="12.2888773"><ele>353.0</ele><time>2026-05-01T09:24:43.915Z</time></trkpt><trkpt lat="42.6394236" lon="12.2891519"><ele>350.0</ele><time>2026-05-01T09:24:44.915Z</time></trkpt><trkpt lat="42.6393731" lon="12.2894609"><ele>347.0</ele><time>2026-05-01T09:24:45.915Z</time></trkpt><trkpt lat="42.6393183" lon="12.2897821"><ele>347.0</ele><time>2026-05-01T09:24:46.915Z</time></trkpt><trkpt lat="42.6392703" lon="12.2901085"><ele>347.0</ele><time>2026-05-01T09:24:47.914Z</time></trkpt><trkpt lat="42.6392187" lon="12.2904221"><ele>349.0</ele><time>2026-05-01T09:24:48.915Z</time></trkpt><trkpt lat="42.6391581" lon="12.2907126"><ele>351.0</ele><time>2026-05-01T09:24:49.915Z</time></trkpt><trkpt lat="42.6390923" lon="12.2909716"><ele>353.0</ele><time>2026-05-01T09:24:50.915Z</time></trkpt><trkpt lat="42.6390022" lon="12.2912007"><ele>353.0</ele><time>2026-05-01T09:24:51.915Z</time></trkpt><trkpt lat="42.6388706" lon="12.2914042"><ele>353.0</ele><time>2026-05-01T09:24:52.915Z</time></trkpt><trkpt lat="42.6387068" lon="12.2915613"><ele>353.0</ele><time>2026-05-01T09:24:53.914Z</time></trkpt><trkpt lat="42.638526" lon="12.2916981"><ele>353.33333333333337</ele><time>2026-05-01T09:24:54.915Z</time></trkpt><trkpt lat="42.6383612" lon="12.2918078"><ele>353.6666666666667</ele><time>2026-05-01T09:24:55.915Z</time></trkpt><trkpt lat="42.6382292" lon="12.2919023"><ele>354.0</ele><time>2026-05-01T09:24:56.915Z</time></trkpt><trkpt lat="42.6380932" lon="12.2919683"><ele>354.0</ele><time>2026-05-01T09:24:57.915Z</time></trkpt><trkpt lat="42.6379474" lon="12.2919768"><ele>354.0</ele><time>2026-05-01T09:24:58.914Z</time></trkpt><trkpt lat="42.6377742" lon="12.2919341"><ele>354.0</ele><time>2026-05-01T09:24:59.914Z</time></trkpt><trkpt lat="42.6375752" lon="12.2918536"><ele>354.3333333333333</ele><time>2026-05-01T09:25:00.915Z</time></trkpt><trkpt lat="42.6373624" lon="12.2917802"><ele>354.66666666666663</ele><time>2026-05-01T09:25:01.914Z</time></trkpt><trkpt lat="42.6371629" lon="12.2917173"><ele>355.0</ele><time>2026-05-01T09:25:02.915Z</time></trkpt><trkpt lat="42.6369702" lon="12.2916504"><ele>358.66666666666663</ele><time>2026-05-01T09:25:03.915Z</time></trkpt><trkpt lat="42.6367728" lon="12.2915863"><ele>362.3333333333333</ele><time>2026-05-01T09:25:04.915Z</time></trkpt><trkpt lat="42.6365697" lon="12.2915276"><ele>366.0</ele><time>2026-05-01T09:25:05.915Z</time></trkpt><trkpt lat="42.6363636" lon="12.2914603"><ele>362.3333333333333</ele><time>2026-05-01T09:25:06.914Z</time></trkpt><trkpt lat="42.6361689" lon="12.2913952"><ele>358.66666666666663</ele><time>2026-05-01T09:25:07.915Z</time></trkpt><trkpt lat="42.6359844" lon="12.2913058"><ele>355.0</ele><time>2026-05-01T09:25:08.915Z</time></trkpt><trkpt lat="42.6358019" lon="12.2912165"><ele>355.0</ele><time>2026-05-01T09:25:09.915Z</time></trkpt><trkpt lat="42.6356334" lon="12.291136"><ele>355.0</ele><time>2026-05-01T09:25:10.914Z</time></trkpt><trkpt lat="42.6354569" lon="12.291089"><ele>355.0</ele><time>2026-05-01T09:25:11.914Z</time></trkpt><trkpt lat="42.635284" lon="12.2910867"><ele>356.3333333333333</ele><time>2026-05-01T09:25:12.914Z</time></trkpt><trkpt lat="42.6351108" lon="12.291113"><ele>357.6666666666667</ele><time>2026-05-01T09:25:13.915Z</time></trkpt><trkpt lat="42.6349308" lon="12.2911452"><ele>359.0</ele><time>2026-05-01T09:25:14.915Z</time></trkpt><trkpt lat="42.6347418" lon="12.2911686"><ele>359.0</ele><time>2026-05-01T09:25:15.915Z</time></trkpt><trkpt lat="42.634555" lon="12.2912011"><ele>359.0</ele><time>2026-05-01T09:25:16.915Z</time></trkpt><trkpt lat="42.6343753" lon="12.2912298"><ele>359.0</ele><time>2026-05-01T09:25:17.915Z</time></trkpt><trkpt lat="42.6341946" lon="12.2912533"><ele>359.33333333333337</ele><time>2026-05-01T09:25:18.915Z</time></trkpt><trkpt lat="42.6340049" lon="12.2912806"><ele>359.6666666666667</ele><time>2026-05-01T09:25:19.915Z</time></trkpt><trkpt lat="42.6338174" lon="12.291321"><ele>360.0</ele><time>2026-05-01T09:25:20.915Z</time></trkpt><trkpt lat="42.6336638" lon="12.2913821"><ele>363.3333333333333</ele><time>2026-05-01T09:25:21.915Z</time></trkpt><trkpt lat="42.6335026" lon="12.2914559"><ele>366.66666666666663</ele><time>2026-05-01T09:25:22.915Z</time></trkpt><trkpt lat="42.6333506" lon="12.2915706"><ele>370.0</ele><time>2026-05-01T09:25:23.915Z</time></trkpt><trkpt lat="42.6332037" lon="12.2917131"><ele>370.0</ele><time>2026-05-01T09:25:24.915Z</time></trkpt><trkpt lat="42.6330713" lon="12.2918791"><ele>370.0</ele><time>2026-05-01T09:25:25.915Z</time></trkpt><trkpt lat="42.6329302" lon="12.2920469"><ele>370.0</ele><time>2026-05-01T09:25:26.915Z</time></trkpt><trkpt lat="42.6327808" lon="12.292215"><ele>372.66666666666663</ele><time>2026-05-01T09:25:27.915Z</time></trkpt><trkpt lat="42.6326218" lon="12.2923569"><ele>375.3333333333333</ele><time>2026-05-01T09:25:28.915Z</time></trkpt><trkpt lat="42.6324401" lon="12.2924576"><ele>378.0</ele><time>2026-05-01T09:25:29.915Z</time></trkpt><trkpt lat="42.6322638" lon="12.2925118"><ele>378.0</ele><time>2026-05-01T09:25:30.915Z</time></trkpt><trkpt lat="42.6321111" lon="12.2925664"><ele>378.0</ele><time>2026-05-01T09:25:31.915Z</time></trkpt><trkpt lat="42.6319751" lon="12.292631"><ele>378.0</ele><time>2026-05-01T09:25:32.915Z</time></trkpt><trkpt lat="42.6318526" lon="12.2927403"><ele>378.0</ele><time>2026-05-01T09:25:33.915Z</time></trkpt><trkpt lat="42.6317667" lon="12.2929"><ele>377.3333333333333</ele><time>2026-05-01T09:25:34.915Z</time></trkpt><trkpt lat="42.6317069" lon="12.293074"><ele>376.66666666666663</ele><time>2026-05-01T09:25:35.914Z</time></trkpt><trkpt lat="42.6316727" lon="12.2932576"><ele>376.0</ele><time>2026-05-01T09:25:36.914Z</time></trkpt><trkpt lat="42.6316715" lon="12.2934892"><ele>376.0</ele><time>2026-05-01T09:25:37.914Z</time></trkpt><trkpt lat="42.6316927" lon="12.293736"><ele>376.0</ele><time>2026-05-01T09:25:38.915Z</time></trkpt><trkpt lat="42.6317011" lon="12.2939868"><ele>376.0</ele><time>2026-05-01T09:25:39.915Z</time></trkpt><trkpt lat="42.6316899" lon="12.2942489"><ele>379.0</ele><time>2026-05-01T09:25:40.915Z</time></trkpt><trkpt lat="42.6316477" lon="12.2944809"><ele>382.0</ele><time>2026-05-01T09:25:41.915Z</time></trkpt><trkpt lat="42.631562" lon="12.2946838"><ele>385.0</ele><time>2026-05-01T09:25:42.915Z</time></trkpt><trkpt lat="42.6314474" lon="12.2948804"><ele>387.6666666666667</ele><time>2026-05-01T09:25:43.914Z</time></trkpt><trkpt lat="42.6312986" lon="12.2950771"><ele>390.33333333333337</ele><time>2026-05-01T09:25:44.915Z</time></trkpt><trkpt lat="42.6311409" lon="12.2952839"><ele>393.0</ele><time>2026-05-01T09:25:45.914Z</time></trkpt><trkpt lat="42.6309867" lon="12.2954847"><ele>389.6666666666667</ele><time>2026-05-01T09:25:46.914Z</time></trkpt><trkpt lat="42.6308528" lon="12.2956797"><ele>386.33333333333337</ele><time>2026-05-01T09:25:47.914Z</time></trkpt><trkpt lat="42.6307231" lon="12.2958624"><ele>383.0</ele><time>2026-05-01T09:25:48.915Z</time></trkpt><trkpt lat="42.6305899" lon="12.2960302"><ele>383.0</ele><time>2026-05-01T09:25:49.914Z</time></trkpt><trkpt lat="42.6304567" lon="12.2961852"><ele>383.0</ele><time>2026-05-01T09:25:50.915Z</time></trkpt><trkpt lat="42.6303225" lon="12.296325"><ele>383.0</ele><time>2026-05-01T09:25:51.915Z</time></trkpt><trkpt lat="42.6301551" lon="12.2964149"><ele>383.6666666666667</ele><time>2026-05-01T09:25:52.914Z</time></trkpt><trkpt lat="42.6299597" lon="12.2964692"><ele>384.33333333333337</ele><time>2026-05-01T09:25:53.915Z</time></trkpt><trkpt lat="42.6297502" lon="12.2964815"><ele>385.0</ele><time>2026-05-01T09:25:54.915Z</time></trkpt><trkpt lat="42.6295421" lon="12.2964653"><ele>385.33333333333337</ele><time>2026-05-01T09:25:55.914Z</time></trkpt><trkpt lat="42.629348" lon="12.2964483"><ele>385.66666666666663</ele><time>2026-05-01T09:25:56.914Z</time></trkpt><trkpt lat="42.6291503" lon="12.296441"><ele>386.0</ele><time>2026-05-01T09:25:57.914Z</time></trkpt><trkpt lat="42.6289735" lon="12.2964281"><ele>383.66666666666663</ele><time>2026-05-01T09:25:58.915Z</time></trkpt><trkpt lat="42.6287868" lon="12.2964125"><ele>381.3333333333333</ele><time>2026-05-01T09:25:59.914Z</time></trkpt><trkpt lat="42.6286117" lon="12.2963968"><ele>379.0</ele><time>2026-05-01T09:26:00.915Z</time></trkpt><trkpt lat="42.6284355" lon="12.2963778"><ele>379.0</ele><time>2026-05-01T09:26:01.915Z</time></trkpt><trkpt lat="42.628264" lon="12.2963602"><ele>379.0</ele><time>2026-05-01T09:26:02.914Z</time></trkpt><trkpt lat="42.6280998" lon="12.2963494"><ele>379.0</ele><time>2026-05-01T09:26:03.915Z</time></trkpt><trkpt lat="42.6279387" lon="12.2963371"><ele>381.0</ele><time>2026-05-01T09:26:04.915Z</time></trkpt><trkpt lat="42.6277852" lon="12.296316"><ele>383.0</ele><time>2026-05-01T09:26:05.914Z</time></trkpt><trkpt lat="42.6276391" lon="12.2963072"><ele>385.0</ele><time>2026-05-01T09:26:06.915Z</time></trkpt><trkpt lat="42.6274992" lon="12.2963055"><ele>387.0</ele><time>2026-05-01T09:26:07.915Z</time></trkpt><trkpt lat="42.6273556" lon="12.2963005"><ele>387.0</ele><time>2026-05-01T09:26:08.915Z</time></trkpt><trkpt lat="42.6272039" lon="12.2962927"><ele>387.0</ele><time>2026-05-01T09:26:09.915Z</time></trkpt><trkpt lat="42.6270594" lon="12.2962727"><ele>387.0</ele><time>2026-05-01T09:26:10.915Z</time></trkpt><trkpt lat="42.6269151" lon="12.2962632"><ele>387.0</ele><time>2026-05-01T09:26:11.915Z</time></trkpt><trkpt lat="42.6267693" lon="12.2962566"><ele>388.25</ele><time>2026-05-01T09:26:12.914Z</time></trkpt><trkpt lat="42.6266253" lon="12.29623"><ele>389.5</ele><time>2026-05-01T09:26:13.914Z</time></trkpt><trkpt lat="42.6264866" lon="12.2962101"><ele>390.75</ele><time>2026-05-01T09:26:14.914Z</time></trkpt><trkpt lat="42.626348" lon="12.296188"><ele>392.0</ele><time>2026-05-01T09:26:15.915Z</time></trkpt><trkpt lat="42.6262071" lon="12.296152"><ele>392.0</ele><time>2026-05-01T09:26:16.915Z</time></trkpt><trkpt lat="42.6260705" lon="12.296116"><ele>392.0</ele><time>2026-05-01T09:26:17.914Z</time></trkpt><trkpt lat="42.6259347" lon="12.2960945"><ele>392.0</ele><time>2026-05-01T09:26:18.914Z</time></trkpt><trkpt lat="42.6257966" lon="12.296066"><ele>392.0</ele><time>2026-05-01T09:26:19.914Z</time></trkpt><trkpt lat="42.6256527" lon="12.2960388"><ele>392.0</ele><time>2026-05-01T09:26:20.915Z</time></trkpt><trkpt lat="42.6255138" lon="12.2960081"><ele>392.0</ele><time>2026-05-01T09:26:21.915Z</time></trkpt><trkpt lat="42.6253818" lon="12.2959712"><ele>392.0</ele><time>2026-05-01T09:26:22.914Z</time></trkpt><trkpt lat="42.6252456" lon="12.2959461"><ele>392.0</ele><time>2026-05-01T09:26:23.915Z</time></trkpt><trkpt lat="42.6251254" lon="12.2959394"><ele>391.6</ele><time>2026-05-01T09:26:24.915Z</time></trkpt><trkpt lat="42.6250084" lon="12.2959513"><ele>391.20000000000005</ele><time>2026-05-01T09:26:25.915Z</time></trkpt><trkpt lat="42.6249009" lon="12.2959627"><ele>390.8</ele><time>2026-05-01T09:26:26.915Z</time></trkpt><trkpt lat="42.624789" lon="12.2959897"><ele>390.4</ele><time>2026-05-01T09:26:27.915Z</time></trkpt><trkpt lat="42.6246833" lon="12.2960271"><ele>390.0</ele><time>2026-05-01T09:26:28.914Z</time></trkpt><trkpt lat="42.6245816" lon="12.2960694"><ele>390.0</ele><time>2026-05-01T09:26:29.914Z</time></trkpt><trkpt lat="42.6244846" lon="12.2961106"><ele>390.0</ele><time>2026-05-01T09:26:30.915Z</time></trkpt><trkpt lat="42.6243773" lon="12.2961444"><ele>390.0</ele><time>2026-05-01T09:26:31.914Z</time></trkpt><trkpt lat="42.62426" lon="12.2961873"><ele>390.0</ele><time>2026-05-01T09:26:32.914Z</time></trkpt><trkpt lat="42.6241358" lon="12.2962443"><ele>389.5</ele><time>2026-05-01T09:26:33.915Z</time></trkpt><trkpt lat="42.6240124" lon="12.2962981"><ele>389.0</ele><time>2026-05-01T09:26:34.914Z</time></trkpt><trkpt lat="42.6238961" lon="12.2963385"><ele>388.5</ele><time>2026-05-01T09:26:35.915Z</time></trkpt><trkpt lat="42.6237877" lon="12.2963997"><ele>388.0</ele><time>2026-05-01T09:26:36.915Z</time></trkpt><trkpt lat="42.6236806" lon="12.2964708"><ele>387.59999999999997</ele><time>2026-05-01T09:26:37.915Z</time></trkpt><trkpt lat="42.6235772" lon="12.2965344"><ele>387.2</ele><time>2026-05-01T09:26:38.915Z</time></trkpt><trkpt lat="42.6234919" lon="12.2966024"><ele>386.8</ele><time>2026-05-01T09:26:39.915Z</time></trkpt><trkpt lat="42.6234059" lon="12.2966976"><ele>386.4</ele><time>2026-05-01T09:26:40.915Z</time></trkpt><trkpt lat="42.6233464" lon="12.296798"><ele>386.0</ele><time>2026-05-01T09:26:41.914Z</time></trkpt><trkpt lat="42.6233049" lon="12.2969128"><ele>386.0</ele><time>2026-05-01T09:26:42.915Z</time></trkpt><trkpt lat="42.6232849" lon="12.2970391"><ele>386.0</ele><time>2026-05-01T09:26:43.915Z</time></trkpt><trkpt lat="42.6232807" lon="12.2971798"><ele>386.0</ele><time>2026-05-01T09:26:44.914Z</time></trkpt><trkpt lat="42.6232829" lon="12.2973196"><ele>386.0</ele><time>2026-05-01T09:26:45.914Z</time></trkpt><trkpt lat="42.6232986" lon="12.29747"><ele>386.0</ele><time>2026-05-01T09:26:46.915Z</time></trkpt><trkpt lat="42.6233081" lon="12.2976066"><ele>385.8</ele><time>2026-05-01T09:26:47.915Z</time></trkpt><trkpt lat="42.6233213" lon="12.2977509"><ele>385.6</ele><time>2026-05-01T09:26:48.915Z</time></trkpt><trkpt lat="42.6233181" lon="12.2978685"><ele>385.4</ele><time>2026-05-01T09:26:49.914Z</time></trkpt><trkpt lat="42.6232794" lon="12.2979617"><ele>385.2</ele><time>2026-05-01T09:26:50.914Z</time></trkpt><trkpt lat="42.6232153" lon="12.2980147"><ele>385.0</ele><time>2026-05-01T09:26:51.914Z</time></trkpt><trkpt lat="42.6231062" lon="12.2980523"><ele>385.0</ele><time>2026-05-01T09:26:52.915Z</time></trkpt><trkpt lat="42.6229834" lon="12.2980811"><ele>385.0</ele><time>2026-05-01T09:26:53.915Z</time></trkpt><trkpt lat="42.6228564" lon="12.2981169"><ele>385.0</ele><time>2026-05-01T09:26:54.915Z</time></trkpt><trkpt lat="42.6227242" lon="12.2981577"><ele>385.0</ele><time>2026-05-01T09:26:55.915Z</time></trkpt><trkpt lat="42.6225836" lon="12.2981944"><ele>385.25</ele><time>2026-05-01T09:26:56.915Z</time></trkpt><trkpt lat="42.6224621" lon="12.2982317"><ele>385.5</ele><time>2026-05-01T09:26:57.914Z</time></trkpt><trkpt lat="42.6223528" lon="12.2982935"><ele>385.75</ele><time>2026-05-01T09:26:58.915Z</time></trkpt><trkpt lat="42.6222389" lon="12.2983855"><ele>386.0</ele><time>2026-05-01T09:26:59.915Z</time></trkpt><trkpt lat="42.6221421" lon="12.2984839"><ele>386.0</ele><time>2026-05-01T09:27:00.915Z</time></trkpt><trkpt lat="42.6220453" lon="12.2985776"><ele>386.0</ele><time>2026-05-01T09:27:01.914Z</time></trkpt><trkpt lat="42.6219509" lon="12.2987082"><ele>386.0</ele><time>2026-05-01T09:27:02.914Z</time></trkpt><trkpt lat="42.6218692" lon="12.298825"><ele>386.0</ele><time>2026-05-01T09:27:03.915Z</time></trkpt><trkpt lat="42.6218007" lon="12.2989383"><ele>386.5</ele><time>2026-05-01T09:27:04.915Z</time></trkpt><trkpt lat="42.6217524" lon="12.2990706"><ele>387.0</ele><time>2026-05-01T09:27:05.915Z</time></trkpt><trkpt lat="42.6216971" lon="12.2992238"><ele>387.5</ele><time>2026-05-01T09:27:06.915Z</time></trkpt><trkpt lat="42.6216645" lon="12.2993824"><ele>388.0</ele><time>2026-05-01T09:27:07.914Z</time></trkpt><trkpt lat="42.6216394" lon="12.2995501"><ele>388.0</ele><time>2026-05-01T09:27:08.914Z</time></trkpt><trkpt lat="42.6216166" lon="12.2997229"><ele>388.0</ele><time>2026-05-01T09:27:09.914Z</time></trkpt><trkpt lat="42.6216042" lon="12.2999058"><ele>388.0</ele><time>2026-05-01T09:27:10.914Z</time></trkpt><trkpt lat="42.6215891" lon="12.3000909"><ele>388.0</ele><time>2026-05-01T09:27:11.915Z</time></trkpt><trkpt lat="42.6215764" lon="12.3002846"><ele>388.25</ele><time>2026-05-01T09:27:12.915Z</time></trkpt><trkpt lat="42.6215602" lon="12.3004743"><ele>388.5</ele><time>2026-05-01T09:27:13.915Z</time></trkpt><trkpt lat="42.6215406" lon="12.300667"><ele>388.75</ele><time>2026-05-01T09:27:14.914Z</time></trkpt><trkpt lat="42.6215193" lon="12.3008611"><ele>389.0</ele><time>2026-05-01T09:27:15.915Z</time></trkpt><trkpt lat="42.6215027" lon="12.3010592"><ele>389.0</ele><time>2026-05-01T09:27:16.915Z</time></trkpt><trkpt lat="42.6214888" lon="12.3012574"><ele>389.0</ele><time>2026-05-01T09:27:17.915Z</time></trkpt><trkpt lat="42.6214738" lon="12.3014597"><ele>389.0</ele><time>2026-05-01T09:27:18.915Z</time></trkpt><trkpt lat="42.6214595" lon="12.3016612"><ele>389.0</ele><time>2026-05-01T09:27:19.915Z</time></trkpt><trkpt lat="42.6214388" lon="12.3018845"><ele>390.0</ele><time>2026-05-01T09:27:20.915Z</time></trkpt><trkpt lat="42.6214191" lon="12.3021353"><ele>391.0</ele><time>2026-05-01T09:27:21.915Z</time></trkpt><trkpt lat="42.6213994" lon="12.3024109"><ele>392.0</ele><time>2026-05-01T09:27:22.915Z</time></trkpt><trkpt lat="42.6213709" lon="12.3026921"><ele>392.3333333333333</ele><time>2026-05-01T09:27:23.915Z</time></trkpt><trkpt lat="42.621341" lon="12.302987"><ele>392.66666666666663</ele><time>2026-05-01T09:27:24.914Z</time></trkpt><trkpt lat="42.6213124" lon="12.3032964"><ele>393.0</ele><time>2026-05-01T09:27:25.915Z</time></trkpt><trkpt lat="42.6212828" lon="12.3035988"><ele>393.5</ele><time>2026-05-01T09:27:26.915Z</time></trkpt><trkpt lat="42.6212518" lon="12.3039082"><ele>394.0</ele><time>2026-05-01T09:27:27.914Z</time></trkpt><trkpt lat="42.6212248" lon="12.3042164"><ele>393.33333333333337</ele><time>2026-05-01T09:27:28.915Z</time></trkpt><trkpt lat="42.6211975" lon="12.3045216"><ele>392.66666666666663</ele><time>2026-05-01T09:27:29.915Z</time></trkpt><trkpt lat="42.6211661" lon="12.3048166"><ele>392.0</ele><time>2026-05-01T09:27:30.914Z</time></trkpt><trkpt lat="42.6211288" lon="12.3051001"><ele>392.0</ele><time>2026-05-01T09:27:31.915Z</time></trkpt><trkpt lat="42.6210864" lon="12.3053827"><ele>392.0</ele><time>2026-05-01T09:27:32.914Z</time></trkpt><trkpt lat="42.621033" lon="12.3056589"><ele>392.0</ele><time>2026-05-01T09:27:33.915Z</time></trkpt><trkpt lat="42.6209636" lon="12.3059089"><ele>394.3333333333333</ele><time>2026-05-01T09:27:34.915Z</time></trkpt><trkpt lat="42.6208793" lon="12.3061377"><ele>396.66666666666663</ele><time>2026-05-01T09:27:35.914Z</time></trkpt><trkpt lat="42.6207896" lon="12.3063552"><ele>399.0</ele><time>2026-05-01T09:27:36.915Z</time></trkpt><trkpt lat="42.6206802" lon="12.3065748"><ele>401.0</ele><time>2026-05-01T09:27:37.915Z</time></trkpt><trkpt lat="42.6205494" lon="12.3067929"><ele>403.0</ele><time>2026-05-01T09:27:38.914Z</time></trkpt><trkpt lat="42.6204283" lon="12.307018"><ele>405.0</ele><time>2026-05-01T09:27:39.914Z</time></trkpt><trkpt lat="42.6203178" lon="12.3072156"><ele>402.75</ele><time>2026-05-01T09:27:40.915Z</time></trkpt><trkpt lat="42.6202168" lon="12.3073933"><ele>400.5</ele><time>2026-05-01T09:27:41.915Z</time></trkpt><trkpt lat="42.6201293" lon="12.3075566"><ele>398.25</ele><time>2026-05-01T09:27:42.915Z</time></trkpt><trkpt lat="42.6200544" lon="12.3077026"><ele>396.0</ele><time>2026-05-01T09:27:43.915Z</time></trkpt><trkpt lat="42.6199844" lon="12.3078337"><ele>396.0</ele><time>2026-05-01T09:27:44.915Z</time></trkpt><trkpt lat="42.619918" lon="12.3079614"><ele>396.0</ele><time>2026-05-01T09:27:45.915Z</time></trkpt><trkpt lat="42.6198484" lon="12.3080967"><ele>396.0</ele><time>2026-05-01T09:27:46.915Z</time></trkpt><trkpt lat="42.6197539" lon="12.3082242"><ele>396.0</ele><time>2026-05-01T09:27:47.914Z</time></trkpt><trkpt lat="42.6196516" lon="12.3083635"><ele>395.0</ele><time>2026-05-01T09:27:48.915Z</time></trkpt><trkpt lat="42.6195133" lon="12.3084843"><ele>394.0</ele><time>2026-05-01T09:27:49.915Z</time></trkpt><trkpt lat="42.6193493" lon="12.3085696"><ele>393.0</ele><time>2026-05-01T09:27:50.915Z</time></trkpt><trkpt lat="42.6191777" lon="12.3086232"><ele>393.0</ele><time>2026-05-01T09:27:51.915Z</time></trkpt><trkpt lat="42.6189946" lon="12.3086214"><ele>393.0</ele><time>2026-05-01T09:27:52.914Z</time></trkpt><trkpt lat="42.6188165" lon="12.3085568"><ele>393.0</ele><time>2026-05-01T09:27:53.914Z</time></trkpt><trkpt lat="42.6186304" lon="12.3084254"><ele>391.0</ele><time>2026-05-01T09:27:54.914Z</time></trkpt><trkpt lat="42.618453" lon="12.308265"><ele>389.0</ele><time>2026-05-01T09:27:55.914Z</time></trkpt><trkpt lat="42.6182661" lon="12.3080677"><ele>389.0</ele><time>2026-05-01T09:27:56.914Z</time></trkpt><trkpt lat="42.6180647" lon="12.3078521"><ele>389.0</ele><time>2026-05-01T09:27:57.915Z</time></trkpt><trkpt lat="42.6178407" lon="12.3076294"><ele>389.0</ele><time>2026-05-01T09:27:58.915Z</time></trkpt><trkpt lat="42.617611" lon="12.3074016"><ele>389.0</ele><time>2026-05-01T09:27:59.915Z</time></trkpt><trkpt lat="42.6173747" lon="12.307187"><ele>389.0</ele><time>2026-05-01T09:28:00.915Z</time></trkpt><trkpt lat="42.6171297" lon="12.306995"><ele>389.0</ele><time>2026-05-01T09:28:01.914Z</time></trkpt><trkpt lat="42.6168791" lon="12.3068334"><ele>390.0</ele><time>2026-05-01T09:28:02.915Z</time></trkpt><trkpt lat="42.6166195" lon="12.30668"><ele>391.0</ele><time>2026-05-01T09:28:03.915Z</time></trkpt><trkpt lat="42.6163702" lon="12.3065336"><ele>390.0</ele><time>2026-05-01T09:28:04.914Z</time></trkpt><trkpt lat="42.6161286" lon="12.3063884"><ele>389.0</ele><time>2026-05-01T09:28:05.914Z</time></trkpt><trkpt lat="42.6159049" lon="12.3062388"><ele>389.0</ele><time>2026-05-01T09:28:06.915Z</time></trkpt><trkpt lat="42.6156925" lon="12.3060693"><ele>389.0</ele><time>2026-05-01T09:28:07.915Z</time></trkpt><trkpt lat="42.6154915" lon="12.305892"><ele>389.0</ele><time>2026-05-01T09:28:08.914Z</time></trkpt><trkpt lat="42.6152948" lon="12.3057056"><ele>389.0</ele><time>2026-05-01T09:28:09.915Z</time></trkpt><trkpt lat="42.6151043" lon="12.3055342"><ele>389.0</ele><time>2026-05-01T09:28:10.914Z</time></trkpt><trkpt lat="42.6149118" lon="12.305361"><ele>389.0</ele><time>2026-05-01T09:28:11.915Z</time></trkpt><trkpt lat="42.6147301" lon="12.3051857"><ele>389.0</ele><time>2026-05-01T09:28:12.915Z</time></trkpt><trkpt lat="42.6145607" lon="12.3050147"><ele>389.0</ele><time>2026-05-01T09:28:13.914Z</time></trkpt><trkpt lat="42.6144244" lon="12.304804"><ele>389.0</ele><time>2026-05-01T09:28:14.914Z</time></trkpt><trkpt lat="42.614319" lon="12.3045544"><ele>389.66666666666663</ele><time>2026-05-01T09:28:15.915Z</time></trkpt><trkpt lat="42.6142362" lon="12.3042851"><ele>390.33333333333337</ele><time>2026-05-01T09:28:16.914Z</time></trkpt><trkpt lat="42.6141793" lon="12.3040296"><ele>391.0</ele><time>2026-05-01T09:28:17.915Z</time></trkpt><trkpt lat="42.614118" lon="12.3037674"><ele>391.0</ele><time>2026-05-01T09:28:18.914Z</time></trkpt><trkpt lat="42.6140266" lon="12.3035094"><ele>391.0</ele><time>2026-05-01T09:28:19.915Z</time></trkpt><trkpt lat="42.6139098" lon="12.3032659"><ele>391.0</ele><time>2026-05-01T09:28:20.914Z</time></trkpt><trkpt lat="42.6137591" lon="12.3030555"><ele>392.0</ele><time>2026-05-01T09:28:21.915Z</time></trkpt><trkpt lat="42.613573" lon="12.3028742"><ele>393.0</ele><time>2026-05-01T09:28:22.915Z</time></trkpt><trkpt lat="42.6133736" lon="12.302732"><ele>393.0</ele><time>2026-05-01T09:28:23.914Z</time></trkpt><trkpt lat="42.6131574" lon="12.3026069"><ele>393.0</ele><time>2026-05-01T09:28:24.914Z</time></trkpt><trkpt lat="42.6129419" lon="12.3024957"><ele>396.5</ele><time>2026-05-01T09:28:25.915Z</time></trkpt><trkpt lat="42.6127204" lon="12.302407"><ele>400.0</ele><time>2026-05-01T09:28:26.915Z</time></trkpt><trkpt lat="42.6124786" lon="12.3023472"><ele>400.0</ele><time>2026-05-01T09:28:27.915Z</time></trkpt><trkpt lat="42.6122228" lon="12.3022996"><ele>400.0</ele><time>2026-05-01T09:28:28.915Z</time></trkpt><trkpt lat="42.6119645" lon="12.3022524"><ele>394.5</ele><time>2026-05-01T09:28:29.915Z</time></trkpt><trkpt lat="42.6117215" lon="12.3021684"><ele>389.0</ele><time>2026-05-01T09:28:30.915Z</time></trkpt><trkpt lat="42.6114737" lon="12.302088"><ele>389.0</ele><time>2026-05-01T09:28:31.915Z</time></trkpt><trkpt lat="42.6112335" lon="12.3019904"><ele>389.0</ele><time>2026-05-01T09:28:32.915Z</time></trkpt><trkpt lat="42.611027" lon="12.301917"><ele>392.0</ele><time>2026-05-01T09:28:33.915Z</time></trkpt><trkpt lat="42.6108295" lon="12.3018475"><ele>395.0</ele><time>2026-05-01T09:28:34.914Z</time></trkpt><trkpt lat="42.6106464" lon="12.3017772"><ele>398.0</ele><time>2026-05-01T09:28:35.914Z</time></trkpt><trkpt lat="42.6104759" lon="12.3017169"><ele>398.0</ele><time>2026-05-01T09:28:36.915Z</time></trkpt><trkpt lat="42.6103308" lon="12.3016729"><ele>398.0</ele><time>2026-05-01T09:28:37.915Z</time></trkpt><trkpt lat="42.6101671" lon="12.3016434"><ele>398.0</ele><time>2026-05-01T09:28:38.915Z</time></trkpt><trkpt lat="42.6099902" lon="12.3016316"><ele>397.66666666666663</ele><time>2026-05-01T09:28:39.915Z</time></trkpt><trkpt lat="42.6097891" lon="12.3016066"><ele>397.33333333333337</ele><time>2026-05-01T09:28:40.914Z</time></trkpt><trkpt lat="42.6095772" lon="12.3015619"><ele>397.0</ele><time>2026-05-01T09:28:41.914Z</time></trkpt><trkpt lat="42.6093388" lon="12.3015222"><ele>397.0</ele><time>2026-05-01T09:28:42.915Z</time></trkpt><trkpt lat="42.6090971" lon="12.3014652"><ele>397.0</ele><time>2026-05-01T09:28:43.914Z</time></trkpt><trkpt lat="42.608861" lon="12.301419"><ele>395.0</ele><time>2026-05-01T09:28:44.914Z</time></trkpt><trkpt lat="42.6086594" lon="12.3013756"><ele>393.0</ele><time>2026-05-01T09:28:45.914Z</time></trkpt><trkpt lat="42.6084631" lon="12.3013344"><ele>391.0</ele><time>2026-05-01T09:28:46.915Z</time></trkpt><trkpt lat="42.6082883" lon="12.30129"><ele>391.0</ele><time>2026-05-01T09:28:47.914Z</time></trkpt><trkpt lat="42.6081275" lon="12.3012288"><ele>391.0</ele><time>2026-05-01T09:28:48.915Z</time></trkpt><trkpt lat="42.6079637" lon="12.3011389"><ele>391.0</ele><time>2026-05-01T09:28:49.915Z</time></trkpt><trkpt lat="42.6077816" lon="12.3010373"><ele>393.0</ele><time>2026-05-01T09:28:50.914Z</time></trkpt><trkpt lat="42.6075755" lon="12.3009129"><ele>395.0</ele><time>2026-05-01T09:28:51.915Z</time></trkpt><trkpt lat="42.6073527" lon="12.3007633"><ele>395.0</ele><time>2026-05-01T09:28:52.914Z</time></trkpt><trkpt lat="42.6071241" lon="12.3006072"><ele>395.0</ele><time>2026-05-01T09:28:53.915Z</time></trkpt><trkpt lat="42.6069096" lon="12.3004378"><ele>394.0</ele><time>2026-05-01T09:28:54.915Z</time></trkpt><trkpt lat="42.606707" lon="12.3003106"><ele>393.0</ele><time>2026-05-01T09:28:55.914Z</time></trkpt><trkpt lat="42.6064985" lon="12.3002227"><ele>392.0</ele><time>2026-05-01T09:28:56.914Z</time></trkpt><trkpt lat="42.6062734" lon="12.3001692"><ele>392.5</ele><time>2026-05-01T09:28:57.914Z</time></trkpt><trkpt lat="42.6060548" lon="12.300126"><ele>393.0</ele><time>2026-05-01T09:28:58.915Z</time></trkpt><trkpt lat="42.6058276" lon="12.3000794"><ele>393.0</ele><time>2026-05-01T09:28:59.914Z</time></trkpt><trkpt lat="42.6055974" lon="12.3000312"><ele>393.0</ele><time>2026-05-01T09:29:00.914Z</time></trkpt><trkpt lat="42.605372" lon="12.2999765"><ele>394.5</ele><time>2026-05-01T09:29:01.914Z</time></trkpt><trkpt lat="42.6051357" lon="12.2999108"><ele>396.0</ele><time>2026-05-01T09:29:02.914Z</time></trkpt><trkpt lat="42.6048993" lon="12.2998526"><ele>396.0</ele><time>2026-05-01T09:29:03.915Z</time></trkpt><trkpt lat="42.6046634" lon="12.2997992"><ele>396.0</ele><time>2026-05-01T09:29:04.915Z</time></trkpt><trkpt lat="42.6044358" lon="12.2997444"><ele>391.0</ele><time>2026-05-01T09:29:05.915Z</time></trkpt><trkpt lat="42.6042252" lon="12.2996812"><ele>386.0</ele><time>2026-05-01T09:29:06.915Z</time></trkpt><trkpt lat="42.6040366" lon="12.2995938"><ele>381.0</ele><time>2026-05-01T09:29:07.914Z</time></trkpt><trkpt lat="42.6038473" lon="12.2994684"><ele>388.0</ele><time>2026-05-01T09:29:08.915Z</time></trkpt><trkpt lat="42.6036509" lon="12.2993129"><ele>395.0</ele><time>2026-05-01T09:29:09.914Z</time></trkpt><trkpt lat="42.6034422" lon="12.2991376"><ele>395.0</ele><time>2026-05-01T09:29:10.915Z</time></trkpt><trkpt lat="42.6032145" lon="12.2989569"><ele>395.0</ele><time>2026-05-01T09:29:11.915Z</time></trkpt><trkpt lat="42.6029829" lon="12.2987717"><ele>394.0</ele><time>2026-05-01T09:29:12.914Z</time></trkpt><trkpt lat="42.602764" lon="12.2985951"><ele>393.0</ele><time>2026-05-01T09:29:13.915Z</time></trkpt><trkpt lat="42.6025771" lon="12.2984378"><ele>393.0</ele><time>2026-05-01T09:29:14.915Z</time></trkpt><trkpt lat="42.6024001" lon="12.298316"><ele>393.0</ele><time>2026-05-01T09:29:15.914Z</time></trkpt><trkpt lat="42.6022232" lon="12.2982318"><ele>393.0</ele><time>2026-05-01T09:29:16.914Z</time></trkpt><trkpt lat="42.6020274" lon="12.2982209"><ele>392.0</ele><time>2026-05-01T09:29:17.914Z</time></trkpt><trkpt lat="42.6018076" lon="12.2982525"><ele>391.0</ele><time>2026-05-01T09:29:18.915Z</time></trkpt><trkpt lat="42.6015775" lon="12.2983085"><ele>391.0</ele><time>2026-05-01T09:29:19.914Z</time></trkpt><trkpt lat="42.6013379" lon="12.2983896"><ele>391.0</ele><time>2026-05-01T09:29:20.914Z</time></trkpt><trkpt lat="42.6010971" lon="12.2984914"><ele>385.5</ele><time>2026-05-01T09:29:21.914Z</time></trkpt><trkpt lat="42.6008599" lon="12.2986096"><ele>380.0</ele><time>2026-05-01T09:29:22.915Z</time></trkpt><trkpt lat="42.6006181" lon="12.2987271"><ele>380.0</ele><time>2026-05-01T09:29:23.915Z</time></trkpt><trkpt lat="42.6003729" lon="12.2988222"><ele>380.0</ele><time>2026-05-01T09:29:24.914Z</time></trkpt><trkpt lat="42.6001394" lon="12.2988906"><ele>385.33333333333337</ele><time>2026-05-01T09:29:25.915Z</time></trkpt><trkpt lat="42.5999237" lon="12.2989486"><ele>390.6666666666667</ele><time>2026-05-01T09:29:26.915Z</time></trkpt><trkpt lat="42.5997394" lon="12.2989985"><ele>396.0</ele><time>2026-05-01T09:29:27.914Z</time></trkpt><trkpt lat="42.5995843" lon="12.2990487"><ele>390.25</ele><time>2026-05-01T09:29:28.915Z</time></trkpt><trkpt lat="42.5994487" lon="12.2991171"><ele>384.5</ele><time>2026-05-01T09:29:29.915Z</time></trkpt><trkpt lat="42.599344" lon="12.2992201"><ele>378.75</ele><time>2026-05-01T09:29:30.915Z</time></trkpt><trkpt lat="42.5992941" lon="12.2993699"><ele>373.0</ele><time>2026-05-01T09:29:31.915Z</time></trkpt><trkpt lat="42.5992895" lon="12.2995384"><ele>373.0</ele><time>2026-05-01T09:29:32.915Z</time></trkpt><trkpt lat="42.5993451" lon="12.2997359"><ele>373.0</ele><time>2026-05-01T09:29:33.915Z</time></trkpt><trkpt lat="42.599397" lon="12.2999055"><ele>373.0</ele><time>2026-05-01T09:29:34.914Z</time></trkpt><trkpt lat="42.599425" lon="12.3000505"><ele>373.0</ele><time>2026-05-01T09:29:35.915Z</time></trkpt><trkpt lat="42.5994084" lon="12.3001802"><ele>377.3333333333333</ele><time>2026-05-01T09:29:36.915Z</time></trkpt><trkpt lat="42.599326" lon="12.300312"><ele>381.66666666666663</ele><time>2026-05-01T09:29:37.914Z</time></trkpt><trkpt lat="42.5991814" lon="12.3004112"><ele>386.0</ele><time>2026-05-01T09:29:38.915Z</time></trkpt><trkpt lat="42.5990144" lon="12.3004506"><ele>386.0</ele><time>2026-05-01T09:29:39.915Z</time></trkpt><trkpt lat="42.5988282" lon="12.3004587"><ele>386.0</ele><time>2026-05-01T09:29:40.914Z</time></trkpt><trkpt lat="42.598626" lon="12.3004455"><ele>386.0</ele><time>2026-05-01T09:29:41.915Z</time></trkpt><trkpt lat="42.5984279" lon="12.3004396"><ele>389.3333333333333</ele><time>2026-05-01T09:29:42.914Z</time></trkpt><trkpt lat="42.598241" lon="12.300466"><ele>392.66666666666663</ele><time>2026-05-01T09:29:43.915Z</time></trkpt><trkpt lat="42.5980585" lon="12.3005206"><ele>396.0</ele><time>2026-05-01T09:29:44.914Z</time></trkpt><trkpt lat="42.597897" lon="12.3006535"><ele>392.0</ele><time>2026-05-01T09:29:45.914Z</time></trkpt><trkpt lat="42.5977212" lon="12.3008203"><ele>388.0</ele><time>2026-05-01T09:29:46.914Z</time></trkpt><trkpt lat="42.5975339" lon="12.3009452"><ele>384.0</ele><time>2026-05-01T09:29:47.915Z</time></trkpt><trkpt lat="42.597327" lon="12.3010539"><ele>384.0</ele><time>2026-05-01T09:29:48.915Z</time></trkpt><trkpt lat="42.5971061" lon="12.3011388"><ele>384.0</ele><time>2026-05-01T09:29:49.915Z</time></trkpt><trkpt lat="42.5968652" lon="12.3012107"><ele>388.66666666666663</ele><time>2026-05-01T09:29:50.915Z</time></trkpt><trkpt lat="42.5966418" lon="12.3012857"><ele>393.3333333333333</ele><time>2026-05-01T09:29:51.915Z</time></trkpt><trkpt lat="42.5964396" lon="12.3013577"><ele>398.0</ele><time>2026-05-01T09:29:52.915Z</time></trkpt><trkpt lat="42.5962514" lon="12.301465"><ele>393.3333333333333</ele><time>2026-05-01T09:29:53.914Z</time></trkpt><trkpt lat="42.5960669" lon="12.3015911"><ele>388.66666666666663</ele><time>2026-05-01T09:29:54.914Z</time></trkpt><trkpt lat="42.5958964" lon="12.3017245"><ele>384.0</ele><time>2026-05-01T09:29:55.914Z</time></trkpt><trkpt lat="42.5957092" lon="12.3018334"><ele>384.0</ele><time>2026-05-01T09:29:56.915Z</time></trkpt><trkpt lat="42.5954959" lon="12.3018772"><ele>384.0</ele><time>2026-05-01T09:29:57.915Z</time></trkpt><trkpt lat="42.5952677" lon="12.3018911"><ele>384.0</ele><time>2026-05-01T09:29:58.915Z</time></trkpt><trkpt lat="42.5950347" lon="12.3019251"><ele>380.5</ele><time>2026-05-01T09:29:59.915Z</time></trkpt><trkpt lat="42.5947848" lon="12.3019801"><ele>377.0</ele><time>2026-05-01T09:30:00.914Z</time></trkpt><trkpt lat="42.5945314" lon="12.3020377"><ele>370.5</ele><time>2026-05-01T09:30:01.915Z</time></trkpt><trkpt lat="42.5942829" lon="12.3021139"><ele>364.0</ele><time>2026-05-01T09:30:02.915Z</time></trkpt><trkpt lat="42.5940354" lon="12.3021917"><ele>371.5</ele><time>2026-05-01T09:30:03.914Z</time></trkpt><trkpt lat="42.5937947" lon="12.3022693"><ele>379.0</ele><time>2026-05-01T09:30:04.914Z</time></trkpt><trkpt lat="42.5935525" lon="12.3023745"><ele>379.0</ele><time>2026-05-01T09:30:05.915Z</time></trkpt><trkpt lat="42.5933173" lon="12.302503"><ele>379.0</ele><time>2026-05-01T09:30:06.915Z</time></trkpt><trkpt lat="42.5930994" lon="12.3026142"><ele>379.0</ele><time>2026-05-01T09:30:07.915Z</time></trkpt><trkpt lat="42.5928959" lon="12.3027178"><ele>379.0</ele><time>2026-05-01T09:30:08.915Z</time></trkpt><trkpt lat="42.5927219" lon="12.3028321"><ele>379.0</ele><time>2026-05-01T09:30:09.915Z</time></trkpt><trkpt lat="42.5925553" lon="12.3029527"><ele>382.0</ele><time>2026-05-01T09:30:10.915Z</time></trkpt><trkpt lat="42.5924144" lon="12.3031032"><ele>385.0</ele><time>2026-05-01T09:30:11.915Z</time></trkpt><trkpt lat="42.5922783" lon="12.3032534"><ele>388.0</ele><time>2026-05-01T09:30:12.915Z</time></trkpt><trkpt lat="42.5921539" lon="12.3034103"><ele>388.0</ele><time>2026-05-01T09:30:13.915Z</time></trkpt><trkpt lat="42.5920334" lon="12.3035713"><ele>388.0</ele><time>2026-05-01T09:30:14.915Z</time></trkpt><trkpt lat="42.5919201" lon="12.3037288"><ele>388.0</ele><time>2026-05-01T09:30:15.914Z</time></trkpt><trkpt lat="42.5918262" lon="12.3038998"><ele>386.0</ele><time>2026-05-01T09:30:16.915Z</time></trkpt><trkpt lat="42.5917436" lon="12.304085"><ele>384.0</ele><time>2026-05-01T09:30:17.915Z</time></trkpt><trkpt lat="42.5916859" lon="12.3042869"><ele>382.0</ele><time>2026-05-01T09:30:18.915Z</time></trkpt><trkpt lat="42.591646" lon="12.3045184"><ele>382.0</ele><time>2026-05-01T09:30:19.914Z</time></trkpt><trkpt lat="42.591636" lon="12.3047362"><ele>382.0</ele><time>2026-05-01T09:30:20.914Z</time></trkpt><trkpt lat="42.5916418" lon="12.3049614"><ele>382.0</ele><time>2026-05-01T09:30:21.915Z</time></trkpt><trkpt lat="42.5916496" lon="12.3051835"><ele>382.0</ele><time>2026-05-01T09:30:22.915Z</time></trkpt><trkpt lat="42.5916663" lon="12.3053974"><ele>382.0</ele><time>2026-05-01T09:30:23.914Z</time></trkpt><trkpt lat="42.5917029" lon="12.3056138"><ele>382.0</ele><time>2026-05-01T09:30:24.914Z</time></trkpt><trkpt lat="42.5917422" lon="12.3058254"><ele>381.3333333333333</ele><time>2026-05-01T09:30:25.914Z</time></trkpt><trkpt lat="42.5917839" lon="12.306031"><ele>380.6666666666667</ele><time>2026-05-01T09:30:26.915Z</time></trkpt><trkpt lat="42.5918251" lon="12.3062366"><ele>380.0</ele><time>2026-05-01T09:30:27.915Z</time></trkpt><trkpt lat="42.5918629" lon="12.3064447"><ele>379.0</ele><time>2026-05-01T09:30:28.915Z</time></trkpt><trkpt lat="42.5919008" lon="12.3066552"><ele>378.0</ele><time>2026-05-01T09:30:29.915Z</time></trkpt><trkpt lat="42.591943" lon="12.3068639"><ele>377.0</ele><time>2026-05-01T09:30:30.915Z</time></trkpt><trkpt lat="42.5919852" lon="12.3070722"><ele>382.6666666666667</ele><time>2026-05-01T09:30:31.915Z</time></trkpt><trkpt lat="42.5920299" lon="12.307294"><ele>388.33333333333337</ele><time>2026-05-01T09:30:32.914Z</time></trkpt><trkpt lat="42.5920784" lon="12.3075433"><ele>394.0</ele><time>2026-05-01T09:30:33.915Z</time></trkpt><trkpt lat="42.5921237" lon="12.3078222"><ele>391.0</ele><time>2026-05-01T09:30:34.915Z</time></trkpt><trkpt lat="42.5921736" lon="12.3081199"><ele>388.0</ele><time>2026-05-01T09:30:35.914Z</time></trkpt><trkpt lat="42.5922221" lon="12.3084388"><ele>388.0</ele><time>2026-05-01T09:30:36.915Z</time></trkpt><trkpt lat="42.592273" lon="12.3087482"><ele>388.0</ele><time>2026-05-01T09:30:37.915Z</time></trkpt><trkpt lat="42.5923194" lon="12.3090401"><ele>387.33333333333337</ele><time>2026-05-01T09:30:38.915Z</time></trkpt><trkpt lat="42.592355" lon="12.3093074"><ele>386.66666666666663</ele><time>2026-05-01T09:30:39.914Z</time></trkpt><trkpt lat="42.5923901" lon="12.3095373"><ele>386.0</ele><time>2026-05-01T09:30:40.914Z</time></trkpt><trkpt lat="42.5924606" lon="12.3097368"><ele>385.25</ele><time>2026-05-01T09:30:41.914Z</time></trkpt><trkpt lat="42.5925506" lon="12.3098996"><ele>384.5</ele><time>2026-05-01T09:30:42.915Z</time></trkpt><trkpt lat="42.5926571" lon="12.3100373"><ele>383.75</ele><time>2026-05-01T09:30:43.914Z</time></trkpt><trkpt lat="42.5927454" lon="12.3101621"><ele>383.0</ele><time>2026-05-01T09:30:44.915Z</time></trkpt><trkpt lat="42.5928019" lon="12.3102728"><ele>383.0</ele><time>2026-05-01T09:30:45.914Z</time></trkpt><trkpt lat="42.5928124" lon="12.310384"><ele>383.0</ele><time>2026-05-01T09:30:46.915Z</time></trkpt><trkpt lat="42.592787" lon="12.3105121"><ele>383.0</ele><time>2026-05-01T09:30:47.915Z</time></trkpt><trkpt lat="42.5927256" lon="12.310641"><ele>383.0</ele><time>2026-05-01T09:30:48.914Z</time></trkpt><trkpt lat="42.5926185" lon="12.3107153"><ele>383.0</ele><time>2026-05-01T09:30:49.914Z</time></trkpt><trkpt lat="42.5924839" lon="12.310743"><ele>382.33333333333337</ele><time>2026-05-01T09:30:50.914Z</time></trkpt><trkpt lat="42.592334" lon="12.3107666"><ele>381.6666666666667</ele><time>2026-05-01T09:30:51.914Z</time></trkpt><trkpt lat="42.5921781" lon="12.3107944"><ele>381.0</ele><time>2026-05-01T09:30:52.914Z</time></trkpt><trkpt lat="42.5920114" lon="12.310813"><ele>381.0</ele><time>2026-05-01T09:30:53.914Z</time></trkpt><trkpt lat="42.5918436" lon="12.3108229"><ele>381.0</ele><time>2026-05-01T09:30:54.914Z</time></trkpt><trkpt lat="42.5916713" lon="12.3108312"><ele>381.0</ele><time>2026-05-01T09:30:55.915Z</time></trkpt><trkpt lat="42.591488" lon="12.3108557"><ele>381.0</ele><time>2026-05-01T09:30:56.914Z</time></trkpt><trkpt lat="42.5912996" lon="12.3108737"><ele>381.0</ele><time>2026-05-01T09:30:57.914Z</time></trkpt><trkpt lat="42.5911185" lon="12.3108687"><ele>381.0</ele><time>2026-05-01T09:30:58.915Z</time></trkpt><trkpt lat="42.590925" lon="12.3108766"><ele>380.3333333333333</ele><time>2026-05-01T09:30:59.914Z</time></trkpt><trkpt lat="42.5907545" lon="12.3109048"><ele>379.66666666666663</ele><time>2026-05-01T09:31:00.915Z</time></trkpt><trkpt lat="42.5905966" lon="12.3109292"><ele>379.0</ele><time>2026-05-01T09:31:01.915Z</time></trkpt><trkpt lat="42.5904561" lon="12.3109597"><ele>377.5</ele><time>2026-05-01T09:31:02.915Z</time></trkpt><trkpt lat="42.5903085" lon="12.3110033"><ele>376.0</ele><time>2026-05-01T09:31:03.915Z</time></trkpt><trkpt lat="42.5901712" lon="12.3110366"><ele>374.5</ele><time>2026-05-01T09:31:04.915Z</time></trkpt><trkpt lat="42.5900489" lon="12.3110914"><ele>373.0</ele><time>2026-05-01T09:31:05.915Z</time></trkpt><trkpt lat="42.5899224" lon="12.3111459"><ele>373.0</ele><time>2026-05-01T09:31:06.914Z</time></trkpt><trkpt lat="42.5897976" lon="12.3112148"><ele>373.0</ele><time>2026-05-01T09:31:07.915Z</time></trkpt><trkpt lat="42.5896748" lon="12.3112952"><ele>373.0</ele><time>2026-05-01T09:31:08.915Z</time></trkpt><trkpt lat="42.5895489" lon="12.3113871"><ele>373.0</ele><time>2026-05-01T09:31:09.915Z</time></trkpt><trkpt lat="42.5894276" lon="12.3115084"><ele>373.66666666666663</ele><time>2026-05-01T09:31:10.914Z</time></trkpt><trkpt lat="42.5892957" lon="12.3116622"><ele>374.3333333333333</ele><time>2026-05-01T09:31:11.915Z</time></trkpt><trkpt lat="42.5891401" lon="12.3118576"><ele>375.0</ele><time>2026-05-01T09:31:12.915Z</time></trkpt><trkpt lat="42.5889825" lon="12.3120741"><ele>381.5</ele><time>2026-05-01T09:31:13.915Z</time></trkpt><trkpt lat="42.588819" lon="12.3122951"><ele>388.0</ele><time>2026-05-01T09:31:14.914Z</time></trkpt><trkpt lat="42.5886942" lon="12.3125415"><ele>380.5</ele><time>2026-05-01T09:31:15.916Z</time></trkpt><trkpt lat="42.5885951" lon="12.3128224"><ele>373.0</ele><time>2026-05-01T09:31:16.915Z</time></trkpt><trkpt lat="42.5885063" lon="12.313125"><ele>373.0</ele><time>2026-05-01T09:31:17.916Z</time></trkpt><trkpt lat="42.5884151" lon="12.3134192"><ele>373.0</ele><time>2026-05-01T09:31:18.916Z</time></trkpt><trkpt lat="42.588314" lon="12.3136959"><ele>378.0</ele><time>2026-05-01T09:31:19.916Z</time></trkpt><trkpt lat="42.5881891" lon="12.3139525"><ele>383.0</ele><time>2026-05-01T09:31:20.916Z</time></trkpt><trkpt lat="42.5880447" lon="12.3141904"><ele>383.0</ele><time>2026-05-01T09:31:21.915Z</time></trkpt><trkpt lat="42.5878837" lon="12.3144074"><ele>383.0</ele><time>2026-05-01T09:31:22.915Z</time></trkpt><trkpt lat="42.5876977" lon="12.3146092"><ele>382.5</ele><time>2026-05-01T09:31:23.916Z</time></trkpt><trkpt lat="42.5875004" lon="12.3148107"><ele>382.0</ele><time>2026-05-01T09:31:24.916Z</time></trkpt><trkpt lat="42.5872962" lon="12.3149988"><ele>382.0</ele><time>2026-05-01T09:31:25.916Z</time></trkpt><trkpt lat="42.5870873" lon="12.3151929"><ele>382.0</ele><time>2026-05-01T09:31:26.916Z</time></trkpt><trkpt lat="42.5868815" lon="12.3153738"><ele>383.0</ele><time>2026-05-01T09:31:27.916Z</time></trkpt><trkpt lat="42.5866717" lon="12.3155297"><ele>384.0</ele><time>2026-05-01T09:31:28.916Z</time></trkpt><trkpt lat="42.5864488" lon="12.3156727"><ele>384.0</ele><time>2026-05-01T09:31:29.916Z</time></trkpt><trkpt lat="42.5862063" lon="12.3157895"><ele>384.0</ele><time>2026-05-01T09:31:30.915Z</time></trkpt><trkpt lat="42.585963" lon="12.3158753"><ele>377.0</ele><time>2026-05-01T09:31:31.916Z</time></trkpt><trkpt lat="42.5857372" lon="12.3159597"><ele>370.0</ele><time>2026-05-01T09:31:32.915Z</time></trkpt><trkpt lat="42.5855253" lon="12.3160405"><ele>366.0</ele><time>2026-05-01T09:31:33.916Z</time></trkpt><trkpt lat="42.5853319" lon="12.316114"><ele>362.0</ele><time>2026-05-01T09:31:34.916Z</time></trkpt><trkpt lat="42.5851647" lon="12.3161724"><ele>358.0</ele><time>2026-05-01T09:31:35.916Z</time></trkpt><trkpt lat="42.5850034" lon="12.3162448"><ele>358.0</ele><time>2026-05-01T09:31:36.916Z</time></trkpt><trkpt lat="42.5848585" lon="12.316338"><ele>358.0</ele><time>2026-05-01T09:31:37.916Z</time></trkpt><trkpt lat="42.5847401" lon="12.3164732"><ele>358.0</ele><time>2026-05-01T09:31:38.916Z</time></trkpt><trkpt lat="42.5846529" lon="12.3166317"><ele>355.3333333333333</ele><time>2026-05-01T09:31:39.916Z</time></trkpt><trkpt lat="42.5845883" lon="12.3168178"><ele>352.6666666666667</ele><time>2026-05-01T09:31:40.916Z</time></trkpt><trkpt lat="42.58454" lon="12.3170183"><ele>350.0</ele><time>2026-05-01T09:31:41.915Z</time></trkpt><trkpt lat="42.5845059" lon="12.317209"><ele>350.75</ele><time>2026-05-01T09:31:42.915Z</time></trkpt><trkpt lat="42.5844811" lon="12.3173685"><ele>351.5</ele><time>2026-05-01T09:31:43.916Z</time></trkpt><trkpt lat="42.5844752" lon="12.3175286"><ele>352.25</ele><time>2026-05-01T09:31:44.916Z</time></trkpt><trkpt lat="42.5845014" lon="12.31768"><ele>353.0</ele><time>2026-05-01T09:31:45.915Z</time></trkpt><trkpt lat="42.584558" lon="12.3178373"><ele>358.6666666666667</ele><time>2026-05-01T09:31:46.916Z</time></trkpt><trkpt lat="42.5846633" lon="12.3180182"><ele>364.3333333333333</ele><time>2026-05-01T09:31:47.916Z</time></trkpt><trkpt lat="42.5847821" lon="12.3182117"><ele>370.0</ele><time>2026-05-01T09:31:48.916Z</time></trkpt><trkpt lat="42.5849191" lon="12.3184162"><ele>370.0</ele><time>2026-05-01T09:31:49.916Z</time></trkpt><trkpt lat="42.5850699" lon="12.3186325"><ele>370.0</ele><time>2026-05-01T09:31:50.916Z</time></trkpt><trkpt lat="42.5852287" lon="12.3188699"><ele>375.0</ele><time>2026-05-01T09:31:51.916Z</time></trkpt><trkpt lat="42.5853902" lon="12.3191074"><ele>380.0</ele><time>2026-05-01T09:31:52.916Z</time></trkpt><trkpt lat="42.5855459" lon="12.3193376"><ele>380.0</ele><time>2026-05-01T09:31:53.915Z</time></trkpt><trkpt lat="42.5856883" lon="12.3195452"><ele>380.0</ele><time>2026-05-01T09:31:54.915Z</time></trkpt><trkpt lat="42.5858248" lon="12.3197235"><ele>380.0</ele><time>2026-05-01T09:31:55.916Z</time></trkpt><trkpt lat="42.5859583" lon="12.3198729"><ele>375.0</ele><time>2026-05-01T09:31:56.916Z</time></trkpt><trkpt lat="42.5861099" lon="12.3199615"><ele>370.0</ele><time>2026-05-01T09:31:57.916Z</time></trkpt><trkpt lat="42.5862891" lon="12.3199797"><ele>365.0</ele><time>2026-05-01T09:31:58.915Z</time></trkpt><trkpt lat="42.5864858" lon="12.3199422"><ele>365.0</ele><time>2026-05-01T09:31:59.916Z</time></trkpt><trkpt lat="42.586697" lon="12.3198829"><ele>365.0</ele><time>2026-05-01T09:32:00.916Z</time></trkpt><trkpt lat="42.5869156" lon="12.3198128"><ele>365.0</ele><time>2026-05-01T09:32:01.915Z</time></trkpt><trkpt lat="42.5871435" lon="12.3197329"><ele>375.5</ele><time>2026-05-01T09:32:02.916Z</time></trkpt><trkpt lat="42.5873804" lon="12.319634"><ele>386.0</ele><time>2026-05-01T09:32:03.916Z</time></trkpt><trkpt lat="42.5876115" lon="12.3195242"><ele>386.0</ele><time>2026-05-01T09:32:04.916Z</time></trkpt><trkpt lat="42.5878285" lon="12.319408"><ele>386.0</ele><time>2026-05-01T09:32:05.916Z</time></trkpt><trkpt lat="42.5880222" lon="12.3192783"><ele>386.0</ele><time>2026-05-01T09:32:06.916Z</time></trkpt><trkpt lat="42.5882092" lon="12.319159"><ele>381.3333333333333</ele><time>2026-05-01T09:32:07.916Z</time></trkpt><trkpt lat="42.5883997" lon="12.3190566"><ele>376.66666666666663</ele><time>2026-05-01T09:32:08.916Z</time></trkpt><trkpt lat="42.5885947" lon="12.3189909"><ele>372.0</ele><time>2026-05-01T09:32:09.915Z</time></trkpt><trkpt lat="42.5887817" lon="12.318961"><ele>371.25</ele><time>2026-05-01T09:32:10.915Z</time></trkpt><trkpt lat="42.5889394" lon="12.3189461"><ele>370.5</ele><time>2026-05-01T09:32:11.916Z</time></trkpt><trkpt lat="42.5890775" lon="12.318975"><ele>369.75</ele><time>2026-05-01T09:32:12.916Z</time></trkpt><trkpt lat="42.5891857" lon="12.319081"><ele>369.0</ele><time>2026-05-01T09:32:13.915Z</time></trkpt><trkpt lat="42.5892426" lon="12.319231"><ele>369.0</ele><time>2026-05-01T09:32:14.916Z</time></trkpt><trkpt lat="42.5892536" lon="12.3194219"><ele>369.0</ele><time>2026-05-01T09:32:15.916Z</time></trkpt><trkpt lat="42.5892106" lon="12.3196469"><ele>369.0</ele><time>2026-05-01T09:32:16.916Z</time></trkpt><trkpt lat="42.5891416" lon="12.3198709"><ele>368.5</ele><time>2026-05-01T09:32:17.915Z</time></trkpt><trkpt lat="42.5890233" lon="12.3201349"><ele>368.0</ele><time>2026-05-01T09:32:18.916Z</time></trkpt><trkpt lat="42.5888795" lon="12.3203821"><ele>367.0</ele><time>2026-05-01T09:32:19.915Z</time></trkpt><trkpt lat="42.5887208" lon="12.3206342"><ele>366.0</ele><time>2026-05-01T09:32:20.916Z</time></trkpt><trkpt lat="42.5885581" lon="12.3208697"><ele>366.0</ele><time>2026-05-01T09:32:21.916Z</time></trkpt><trkpt lat="42.5883823" lon="12.3211125"><ele>366.0</ele><time>2026-05-01T09:32:22.916Z</time></trkpt><trkpt lat="42.5882041" lon="12.3213729"><ele>370.5</ele><time>2026-05-01T09:32:23.916Z</time></trkpt><trkpt lat="42.5880317" lon="12.3216415"><ele>375.0</ele><time>2026-05-01T09:32:24.915Z</time></trkpt><trkpt lat="42.5878554" lon="12.321924"><ele>374.5</ele><time>2026-05-01T09:32:25.916Z</time></trkpt><trkpt lat="42.5876735" lon="12.3222065"><ele>374.0</ele><time>2026-05-01T09:32:26.916Z</time></trkpt><trkpt lat="42.5874953" lon="12.3224695"><ele>374.0</ele><time>2026-05-01T09:32:27.916Z</time></trkpt><trkpt lat="42.5872993" lon="12.3227194"><ele>374.0</ele><time>2026-05-01T09:32:28.916Z</time></trkpt><trkpt lat="42.587091" lon="12.3229416"><ele>374.0</ele><time>2026-05-01T09:32:29.915Z</time></trkpt><trkpt lat="42.5868883" lon="12.3231742"><ele>374.0</ele><time>2026-05-01T09:32:30.915Z</time></trkpt><trkpt lat="42.5866881" lon="12.3233641"><ele>374.0</ele><time>2026-05-01T09:32:31.915Z</time></trkpt><trkpt lat="42.5865035" lon="12.3235258"><ele>374.0</ele><time>2026-05-01T09:32:32.915Z</time></trkpt><trkpt lat="42.5863327" lon="12.3236859"><ele>374.0</ele><time>2026-05-01T09:32:33.916Z</time></trkpt><trkpt lat="42.5861826" lon="12.3238759"><ele>374.0</ele><time>2026-05-01T09:32:34.916Z</time></trkpt><trkpt lat="42.5860516" lon="12.3241094"><ele>374.0</ele><time>2026-05-01T09:32:35.916Z</time></trkpt><trkpt lat="42.5859301" lon="12.32439"><ele>374.0</ele><time>2026-05-01T09:32:36.916Z</time></trkpt><trkpt lat="42.585824" lon="12.3247022"><ele>374.0</ele><time>2026-05-01T09:32:37.915Z</time></trkpt><trkpt lat="42.5857318" lon="12.3250226"><ele>376.5</ele><time>2026-05-01T09:32:38.916Z</time></trkpt><trkpt lat="42.585645" lon="12.3253349"><ele>379.0</ele><time>2026-05-01T09:32:39.915Z</time></trkpt><trkpt lat="42.5855578" lon="12.3256412"><ele>382.5</ele><time>2026-05-01T09:32:40.916Z</time></trkpt><trkpt lat="42.5854491" lon="12.3259294"><ele>386.0</ele><time>2026-05-01T09:32:41.916Z</time></trkpt><trkpt lat="42.5853303" lon="12.32619"><ele>384.0</ele><time>2026-05-01T09:32:42.916Z</time></trkpt><trkpt lat="42.5852009" lon="12.3264343"><ele>382.0</ele><time>2026-05-01T09:32:43.916Z</time></trkpt><trkpt lat="42.5850625" lon="12.3266744"><ele>380.0</ele><time>2026-05-01T09:32:44.916Z</time></trkpt><trkpt lat="42.5849176" lon="12.3269263"><ele>380.0</ele><time>2026-05-01T09:32:45.915Z</time></trkpt><trkpt lat="42.5847665" lon="12.3271689"><ele>380.0</ele><time>2026-05-01T09:32:46.915Z</time></trkpt><trkpt lat="42.5845971" lon="12.3273868"><ele>378.5</ele><time>2026-05-01T09:32:47.916Z</time></trkpt><trkpt lat="42.5844066" lon="12.3275715"><ele>377.0</ele><time>2026-05-01T09:32:48.916Z</time></trkpt><trkpt lat="42.584199" lon="12.3277283"><ele>377.0</ele><time>2026-05-01T09:32:49.915Z</time></trkpt><trkpt lat="42.5839632" lon="12.3278475"><ele>377.0</ele><time>2026-05-01T09:32:50.916Z</time></trkpt><trkpt lat="42.5837255" lon="12.3279485"><ele>375.5</ele><time>2026-05-01T09:32:51.916Z</time></trkpt><trkpt lat="42.5834814" lon="12.3280369"><ele>374.0</ele><time>2026-05-01T09:32:52.916Z</time></trkpt><trkpt lat="42.5832524" lon="12.3280798"><ele>376.33333333333337</ele><time>2026-05-01T09:32:53.916Z</time></trkpt><trkpt lat="42.5830311" lon="12.3280869"><ele>378.6666666666667</ele><time>2026-05-01T09:32:54.916Z</time></trkpt><trkpt lat="42.5828217" lon="12.3280688"><ele>381.0</ele><time>2026-05-01T09:32:55.916Z</time></trkpt><trkpt lat="42.5826251" lon="12.3280359"><ele>381.0</ele><time>2026-05-01T09:32:56.915Z</time></trkpt><trkpt lat="42.5824585" lon="12.3279833"><ele>381.0</ele><time>2026-05-01T09:32:57.915Z</time></trkpt><trkpt lat="42.5823011" lon="12.3279673"><ele>381.0</ele><time>2026-05-01T09:32:58.916Z</time></trkpt><trkpt lat="42.5821599" lon="12.3279965"><ele>381.3333333333333</ele><time>2026-05-01T09:32:59.916Z</time></trkpt><trkpt lat="42.5820263" lon="12.3280822"><ele>381.66666666666663</ele><time>2026-05-01T09:33:00.916Z</time></trkpt><trkpt lat="42.5818945" lon="12.3281972"><ele>382.0</ele><time>2026-05-01T09:33:01.916Z</time></trkpt><trkpt lat="42.5817911" lon="12.3283686"><ele>382.0</ele><time>2026-05-01T09:33:02.915Z</time></trkpt><trkpt lat="42.5816901" lon="12.3285605"><ele>382.0</ele><time>2026-05-01T09:33:03.916Z</time></trkpt><trkpt lat="42.5816045" lon="12.3287868"><ele>382.0</ele><time>2026-05-01T09:33:04.915Z</time></trkpt><trkpt lat="42.5815248" lon="12.3290319"><ele>383.66666666666663</ele><time>2026-05-01T09:33:05.916Z</time></trkpt><trkpt lat="42.5814461" lon="12.3292847"><ele>385.3333333333333</ele><time>2026-05-01T09:33:06.916Z</time></trkpt><trkpt lat="42.5813622" lon="12.3295455"><ele>387.0</ele><time>2026-05-01T09:33:07.915Z</time></trkpt><trkpt lat="42.5812752" lon="12.3298091"><ele>385.6666666666667</ele><time>2026-05-01T09:33:08.916Z</time></trkpt><trkpt lat="42.5811949" lon="12.3300726"><ele>384.33333333333337</ele><time>2026-05-01T09:33:09.916Z</time></trkpt><trkpt lat="42.5811106" lon="12.3303344"><ele>383.0</ele><time>2026-05-01T09:33:10.916Z</time></trkpt><trkpt lat="42.5810216" lon="12.3305953"><ele>383.0</ele><time>2026-05-01T09:33:11.916Z</time></trkpt><trkpt lat="42.5809303" lon="12.3308482"><ele>383.0</ele><time>2026-05-01T09:33:12.915Z</time></trkpt><trkpt lat="42.5808216" lon="12.3310839"><ele>383.0</ele><time>2026-05-01T09:33:13.916Z</time></trkpt><trkpt lat="42.5806891" lon="12.3313132"><ele>382.6666666666667</ele><time>2026-05-01T09:33:14.916Z</time></trkpt><trkpt lat="42.5805386" lon="12.3315326"><ele>382.3333333333333</ele><time>2026-05-01T09:33:15.916Z</time></trkpt><trkpt lat="42.5803795" lon="12.3317388"><ele>382.0</ele><time>2026-05-01T09:33:16.916Z</time></trkpt><trkpt lat="42.5802267" lon="12.3319568"><ele>382.0</ele><time>2026-05-01T09:33:17.916Z</time></trkpt><trkpt lat="42.5800753" lon="12.3321726"><ele>382.0</ele><time>2026-05-01T09:33:18.915Z</time></trkpt><trkpt lat="42.5799173" lon="12.332379"><ele>382.0</ele><time>2026-05-01T09:33:19.916Z</time></trkpt><trkpt lat="42.5797865" lon="12.3325933"><ele>381.3333333333333</ele><time>2026-05-01T09:33:20.916Z</time></trkpt><trkpt lat="42.5796432" lon="12.3327986"><ele>380.6666666666667</ele><time>2026-05-01T09:33:21.915Z</time></trkpt><trkpt lat="42.5795047" lon="12.3329795"><ele>380.0</ele><time>2026-05-01T09:33:22.916Z</time></trkpt><trkpt lat="42.5793615" lon="12.333115"><ele>382.0</ele><time>2026-05-01T09:33:23.915Z</time></trkpt><trkpt lat="42.5792052" lon="12.3331907"><ele>384.0</ele><time>2026-05-01T09:33:24.916Z</time></trkpt><trkpt lat="42.5790523" lon="12.3332063"><ele>386.0</ele><time>2026-05-01T09:33:25.916Z</time></trkpt><trkpt lat="42.578906" lon="12.333191"><ele>386.0</ele><time>2026-05-01T09:33:26.916Z</time></trkpt><trkpt lat="42.5787582" lon="12.3331632"><ele>386.0</ele><time>2026-05-01T09:33:27.916Z</time></trkpt><trkpt lat="42.5785967" lon="12.3331322"><ele>386.0</ele><time>2026-05-01T09:33:28.916Z</time></trkpt><trkpt lat="42.5784406" lon="12.3331232"><ele>385.75</ele><time>2026-05-01T09:33:29.915Z</time></trkpt><trkpt lat="42.5782898" lon="12.3331198"><ele>385.5</ele><time>2026-05-01T09:33:30.916Z</time></trkpt><trkpt lat="42.5781478" lon="12.3331085"><ele>385.25</ele><time>2026-05-01T09:33:31.916Z</time></trkpt><trkpt lat="42.5780186" lon="12.3331039"><ele>385.0</ele><time>2026-05-01T09:33:32.916Z</time></trkpt><trkpt lat="42.5778953" lon="12.3330961"><ele>385.2</ele><time>2026-05-01T09:33:33.916Z</time></trkpt><trkpt lat="42.5777731" lon="12.3330939"><ele>385.4</ele><time>2026-05-01T09:33:34.915Z</time></trkpt><trkpt lat="42.5776588" lon="12.3330944"><ele>385.6</ele><time>2026-05-01T09:33:35.916Z</time></trkpt><trkpt lat="42.5775608" lon="12.3330913"><ele>385.8</ele><time>2026-05-01T09:33:36.916Z</time></trkpt><trkpt lat="42.5774635" lon="12.3330956"><ele>386.0</ele><time>2026-05-01T09:33:37.916Z</time></trkpt><trkpt lat="42.5773667" lon="12.3331203"><ele>386.0</ele><time>2026-05-01T09:33:38.916Z</time></trkpt><trkpt lat="42.577265" lon="12.3331271"><ele>386.0</ele><time>2026-05-01T09:33:39.916Z</time></trkpt><trkpt lat="42.5771578" lon="12.3331301"><ele>386.0</ele><time>2026-05-01T09:33:40.916Z</time></trkpt><trkpt lat="42.5770335" lon="12.3331242"><ele>386.0</ele><time>2026-05-01T09:33:41.915Z</time></trkpt><trkpt lat="42.5769033" lon="12.3331236"><ele>385.75</ele><time>2026-05-01T09:33:42.916Z</time></trkpt><trkpt lat="42.5767723" lon="12.3331251"><ele>385.5</ele><time>2026-05-01T09:33:43.916Z</time></trkpt><trkpt lat="42.5766375" lon="12.3331275"><ele>385.25</ele><time>2026-05-01T09:33:44.916Z</time></trkpt><trkpt lat="42.5765104" lon="12.3331255"><ele>385.0</ele><time>2026-05-01T09:33:45.916Z</time></trkpt><trkpt lat="42.5763791" lon="12.3331336"><ele>385.0</ele><time>2026-05-01T09:33:46.916Z</time></trkpt><trkpt lat="42.5762548" lon="12.3331647"><ele>385.0</ele><time>2026-05-01T09:33:47.916Z</time></trkpt><trkpt lat="42.5761339" lon="12.3332068"><ele>385.0</ele><time>2026-05-01T09:33:48.915Z</time></trkpt><trkpt lat="42.5760238" lon="12.3332599"><ele>385.0</ele><time>2026-05-01T09:33:49.916Z</time></trkpt><trkpt lat="42.575915" lon="12.3333339"><ele>384.5</ele><time>2026-05-01T09:33:50.916Z</time></trkpt><trkpt lat="42.575821" lon="12.3334238"><ele>384.0</ele><time>2026-05-01T09:33:51.916Z</time></trkpt><trkpt lat="42.5757513" lon="12.3335523"><ele>383.5</ele><time>2026-05-01T09:33:52.915Z</time></trkpt><trkpt lat="42.5756912" lon="12.3336953"><ele>383.0</ele><time>2026-05-01T09:33:53.916Z</time></trkpt><trkpt lat="42.5756356" lon="12.3338554"><ele>383.33333333333337</ele><time>2026-05-01T09:33:54.916Z</time></trkpt><trkpt lat="42.5755868" lon="12.3340411"><ele>383.6666666666667</ele><time>2026-05-01T09:33:55.916Z</time></trkpt><trkpt lat="42.575531" lon="12.3342521"><ele>384.0</ele><time>2026-05-01T09:33:56.915Z</time></trkpt><trkpt lat="42.5754737" lon="12.3344793"><ele>384.0</ele><time>2026-05-01T09:33:57.916Z</time></trkpt><trkpt lat="42.5754072" lon="12.3347198"><ele>384.0</ele><time>2026-05-01T09:33:58.916Z</time></trkpt><trkpt lat="42.5753414" lon="12.3349592"><ele>384.0</ele><time>2026-05-01T09:33:59.915Z</time></trkpt><trkpt lat="42.5752702" lon="12.3351985"><ele>382.0</ele><time>2026-05-01T09:34:00.916Z</time></trkpt><trkpt lat="42.5751968" lon="12.3354564"><ele>380.0</ele><time>2026-05-01T09:34:01.916Z</time></trkpt><trkpt lat="42.5751088" lon="12.3356859"><ele>378.0</ele><time>2026-05-01T09:34:02.915Z</time></trkpt><trkpt lat="42.574997" lon="12.3358967"><ele>378.0</ele><time>2026-05-01T09:34:03.916Z</time></trkpt><trkpt lat="42.574878" lon="12.3360964"><ele>378.0</ele><time>2026-05-01T09:34:04.916Z</time></trkpt><trkpt lat="42.5747516" lon="12.3362806"><ele>378.0</ele><time>2026-05-01T09:34:05.916Z</time></trkpt><trkpt lat="42.5746215" lon="12.3364707"><ele>376.6666666666667</ele><time>2026-05-01T09:34:06.915Z</time></trkpt><trkpt lat="42.5744998" lon="12.3366686"><ele>375.33333333333337</ele><time>2026-05-01T09:34:07.916Z</time></trkpt><trkpt lat="42.5743807" lon="12.3368807"><ele>374.0</ele><time>2026-05-01T09:34:08.914Z</time></trkpt><trkpt lat="42.5742545" lon="12.3371162"><ele>376.5</ele><time>2026-05-01T09:34:09.916Z</time></trkpt><trkpt lat="42.5741258" lon="12.3373741"><ele>379.0</ele><time>2026-05-01T09:34:10.916Z</time></trkpt><trkpt lat="42.5739857" lon="12.3376269"><ele>379.0</ele><time>2026-05-01T09:34:11.915Z</time></trkpt><trkpt lat="42.5738524" lon="12.3378783"><ele>379.0</ele><time>2026-05-01T09:34:12.915Z</time></trkpt><trkpt lat="42.5737313" lon="12.3380813"><ele>379.0</ele><time>2026-05-01T09:34:13.916Z</time></trkpt><trkpt lat="42.5736415" lon="12.3382667"><ele>378.0</ele><time>2026-05-01T09:34:14.916Z</time></trkpt><trkpt lat="42.5735852" lon="12.3384824"><ele>377.0</ele><time>2026-05-01T09:34:15.916Z</time></trkpt><trkpt lat="42.573548" lon="12.3387412"><ele>376.0</ele><time>2026-05-01T09:34:16.916Z</time></trkpt><trkpt lat="42.5735264" lon="12.3390144"><ele>376.0</ele><time>2026-05-01T09:34:17.916Z</time></trkpt><trkpt lat="42.5735093" lon="12.3393005"><ele>376.0</ele><time>2026-05-01T09:34:18.916Z</time></trkpt><trkpt lat="42.5734991" lon="12.3395537"><ele>376.0</ele><time>2026-05-01T09:34:19.916Z</time></trkpt><trkpt lat="42.5734914" lon="12.339777"><ele>377.3333333333333</ele><time>2026-05-01T09:34:20.916Z</time></trkpt><trkpt lat="42.5734542" lon="12.3399691"><ele>378.6666666666667</ele><time>2026-05-01T09:34:21.916Z</time></trkpt><trkpt lat="42.5733664" lon="12.3401497"><ele>380.0</ele><time>2026-05-01T09:34:22.916Z</time></trkpt><trkpt lat="42.5732429" lon="12.3402842"><ele>380.0</ele><time>2026-05-01T09:34:23.916Z</time></trkpt><trkpt lat="42.5730778" lon="12.3403846"><ele>380.0</ele><time>2026-05-01T09:34:24.915Z</time></trkpt><trkpt lat="42.5728905" lon="12.3404547"><ele>380.0</ele><time>2026-05-01T09:34:25.916Z</time></trkpt><trkpt lat="42.5727045" lon="12.3405211"><ele>380.33333333333337</ele><time>2026-05-01T09:34:26.916Z</time></trkpt><trkpt lat="42.5725405" lon="12.3405963"><ele>380.6666666666667</ele><time>2026-05-01T09:34:27.916Z</time></trkpt><trkpt lat="42.5723621" lon="12.3407246"><ele>381.0</ele><time>2026-05-01T09:34:28.916Z</time></trkpt><trkpt lat="42.5721912" lon="12.3409028"><ele>375.5</ele><time>2026-05-01T09:34:29.915Z</time></trkpt><trkpt lat="42.5720143" lon="12.3411144"><ele>370.0</ele><time>2026-05-01T09:34:30.916Z</time></trkpt><trkpt lat="42.5718323" lon="12.3413199"><ele>373.5</ele><time>2026-05-01T09:34:31.916Z</time></trkpt><trkpt lat="42.5716514" lon="12.341519"><ele>377.0</ele><time>2026-05-01T09:34:32.915Z</time></trkpt><trkpt lat="42.5714591" lon="12.3417059"><ele>377.0</ele><time>2026-05-01T09:34:33.916Z</time></trkpt><trkpt lat="42.5712705" lon="12.3418688"><ele>377.0</ele><time>2026-05-01T09:34:34.915Z</time></trkpt><trkpt lat="42.5710999" lon="12.3420016"><ele>377.0</ele><time>2026-05-01T09:34:35.916Z</time></trkpt><trkpt lat="42.5709395" lon="12.3421289"><ele>374.6666666666667</ele><time>2026-05-01T09:34:36.916Z</time></trkpt><trkpt lat="42.5708067" lon="12.3422918"><ele>372.3333333333333</ele><time>2026-05-01T09:34:37.916Z</time></trkpt><trkpt lat="42.5706866" lon="12.3425036"><ele>370.0</ele><time>2026-05-01T09:34:38.916Z</time></trkpt><trkpt lat="42.5705687" lon="12.3427552"><ele>370.0</ele><time>2026-05-01T09:34:39.916Z</time></trkpt><trkpt lat="42.5704367" lon="12.3430236"><ele>370.0</ele><time>2026-05-01T09:34:40.916Z</time></trkpt><trkpt lat="42.5703016" lon="12.3432935"><ele>365.5</ele><time>2026-05-01T09:34:41.916Z</time></trkpt><trkpt lat="42.5701745" lon="12.3435663"><ele>361.0</ele><time>2026-05-01T09:34:42.916Z</time></trkpt><trkpt lat="42.5700495" lon="12.3438364"><ele>363.0</ele><time>2026-05-01T09:34:43.916Z</time></trkpt><trkpt lat="42.5699167" lon="12.3440964"><ele>365.0</ele><time>2026-05-01T09:34:44.916Z</time></trkpt><trkpt lat="42.569793" lon="12.3443434"><ele>365.0</ele><time>2026-05-01T09:34:45.916Z</time></trkpt><trkpt lat="42.569674" lon="12.3445802"><ele>365.0</ele><time>2026-05-01T09:34:46.916Z</time></trkpt><trkpt lat="42.5695508" lon="12.3447998"><ele>365.0</ele><time>2026-05-01T09:34:47.916Z</time></trkpt><trkpt lat="42.5694092" lon="12.3450288"><ele>361.5</ele><time>2026-05-01T09:34:48.916Z</time></trkpt><trkpt lat="42.5692422" lon="12.3452485"><ele>358.0</ele><time>2026-05-01T09:34:49.916Z</time></trkpt><trkpt lat="42.569063" lon="12.3454583"><ele>358.5</ele><time>2026-05-01T09:34:50.916Z</time></trkpt><trkpt lat="42.5688691" lon="12.3456759"><ele>359.0</ele><time>2026-05-01T09:34:51.916Z</time></trkpt><trkpt lat="42.5686704" lon="12.3458844"><ele>359.0</ele><time>2026-05-01T09:34:52.916Z</time></trkpt><trkpt lat="42.5684865" lon="12.3460835"><ele>359.0</ele><time>2026-05-01T09:34:53.916Z</time></trkpt><trkpt lat="42.5683192" lon="12.3462667"><ele>360.6666666666667</ele><time>2026-05-01T09:34:54.916Z</time></trkpt><trkpt lat="42.568162" lon="12.3464265"><ele>362.3333333333333</ele><time>2026-05-01T09:34:55.916Z</time></trkpt><trkpt lat="42.5680033" lon="12.3465619"><ele>364.0</ele><time>2026-05-01T09:34:56.916Z</time></trkpt><trkpt lat="42.5678418" lon="12.3466589"><ele>364.0</ele><time>2026-05-01T09:34:57.915Z</time></trkpt><trkpt lat="42.5676396" lon="12.3467377"><ele>364.0</ele><time>2026-05-01T09:34:58.915Z</time></trkpt><trkpt lat="42.5674089" lon="12.3468034"><ele>364.0</ele><time>2026-05-01T09:34:59.916Z</time></trkpt><trkpt lat="42.5671728" lon="12.34689"><ele>367.5</ele><time>2026-05-01T09:35:00.916Z</time></trkpt><trkpt lat="42.5669276" lon="12.3469783"><ele>371.0</ele><time>2026-05-01T09:35:01.916Z</time></trkpt><trkpt lat="42.5666961" lon="12.3470729"><ele>371.0</ele><time>2026-05-01T09:35:02.916Z</time></trkpt><trkpt lat="42.5664699" lon="12.3471707"><ele>371.0</ele><time>2026-05-01T09:35:03.916Z</time></trkpt><trkpt lat="42.5662423" lon="12.3472884"><ele>372.5</ele><time>2026-05-01T09:35:04.915Z</time></trkpt><trkpt lat="42.5660203" lon="12.3474353"><ele>374.0</ele><time>2026-05-01T09:35:05.915Z</time></trkpt><trkpt lat="42.5657965" lon="12.3475899"><ele>374.0</ele><time>2026-05-01T09:35:06.915Z</time></trkpt><trkpt lat="42.5655629" lon="12.347756"><ele>374.0</ele><time>2026-05-01T09:35:07.916Z</time></trkpt><trkpt lat="42.5653228" lon="12.3479161"><ele>375.0</ele><time>2026-05-01T09:35:08.915Z</time></trkpt><trkpt lat="42.5650876" lon="12.3480894"><ele>376.0</ele><time>2026-05-01T09:35:09.916Z</time></trkpt><trkpt lat="42.5648601" lon="12.3482524"><ele>376.0</ele><time>2026-05-01T09:35:10.916Z</time></trkpt><trkpt lat="42.5646566" lon="12.3484042"><ele>376.0</ele><time>2026-05-01T09:35:11.916Z</time></trkpt><trkpt lat="42.5644895" lon="12.3485384"><ele>376.0</ele><time>2026-05-01T09:35:12.916Z</time></trkpt><trkpt lat="42.5643341" lon="12.3487045"><ele>377.3333333333333</ele><time>2026-05-01T09:35:13.916Z</time></trkpt><trkpt lat="42.5641804" lon="12.3489054"><ele>378.6666666666667</ele><time>2026-05-01T09:35:14.915Z</time></trkpt><trkpt lat="42.5640325" lon="12.3491224"><ele>380.0</ele><time>2026-05-01T09:35:15.916Z</time></trkpt><trkpt lat="42.5638903" lon="12.3493424"><ele>380.0</ele><time>2026-05-01T09:35:16.916Z</time></trkpt><trkpt lat="42.5637515" lon="12.3495457"><ele>380.0</ele><time>2026-05-01T09:35:17.916Z</time></trkpt><trkpt lat="42.5635864" lon="12.3496922"><ele>380.0</ele><time>2026-05-01T09:35:18.915Z</time></trkpt><trkpt lat="42.5633889" lon="12.3498204"><ele>383.0</ele><time>2026-05-01T09:35:19.916Z</time></trkpt><trkpt lat="42.5631752" lon="12.3499324"><ele>386.0</ele><time>2026-05-01T09:35:20.916Z</time></trkpt><trkpt lat="42.5629632" lon="12.3500649"><ele>383.5</ele><time>2026-05-01T09:35:21.916Z</time></trkpt><trkpt lat="42.5627571" lon="12.3502141"><ele>381.0</ele><time>2026-05-01T09:35:22.916Z</time></trkpt><trkpt lat="42.5625685" lon="12.3503884"><ele>387.0</ele><time>2026-05-01T09:35:23.916Z</time></trkpt><trkpt lat="42.5623988" lon="12.3505952"><ele>393.0</ele><time>2026-05-01T09:35:24.916Z</time></trkpt><trkpt lat="42.562224" lon="12.3508499"><ele>393.0</ele><time>2026-05-01T09:35:25.916Z</time></trkpt><trkpt lat="42.5620629" lon="12.3511194"><ele>393.0</ele><time>2026-05-01T09:35:26.915Z</time></trkpt><trkpt lat="42.5619065" lon="12.3514014"><ele>391.5</ele><time>2026-05-01T09:35:27.915Z</time></trkpt><trkpt lat="42.561742" lon="12.3516874"><ele>390.0</ele><time>2026-05-01T09:35:28.916Z</time></trkpt><trkpt lat="42.5615745" lon="12.351967"><ele>396.5</ele><time>2026-05-01T09:35:29.915Z</time></trkpt><trkpt lat="42.5614075" lon="12.3522597"><ele>403.0</ele><time>2026-05-01T09:35:30.916Z</time></trkpt><trkpt lat="42.561238" lon="12.3525535"><ele>401.0</ele><time>2026-05-01T09:35:31.915Z</time></trkpt><trkpt lat="42.5610639" lon="12.3528503"><ele>399.0</ele><time>2026-05-01T09:35:32.915Z</time></trkpt><trkpt lat="42.5608902" lon="12.353144"><ele>399.0</ele><time>2026-05-01T09:35:33.915Z</time></trkpt><trkpt lat="42.5607245" lon="12.3534256"><ele>399.0</ele><time>2026-05-01T09:35:34.916Z</time></trkpt><trkpt lat="42.5605554" lon="12.3537008"><ele>399.0</ele><time>2026-05-01T09:35:35.916Z</time></trkpt><trkpt lat="42.5603982" lon="12.3539523"><ele>399.0</ele><time>2026-05-01T09:35:36.916Z</time></trkpt><trkpt lat="42.5602563" lon="12.3541855"><ele>399.0</ele><time>2026-05-01T09:35:37.916Z</time></trkpt><trkpt lat="42.5601357" lon="12.3543939"><ele>399.0</ele><time>2026-05-01T09:35:38.916Z</time></trkpt><trkpt lat="42.5600211" lon="12.3545923"><ele>399.0</ele><time>2026-05-01T09:35:39.916Z</time></trkpt><trkpt lat="42.5599204" lon="12.3548013"><ele>403.0</ele><time>2026-05-01T09:35:40.916Z</time></trkpt><trkpt lat="42.5598341" lon="12.3550253"><ele>407.0</ele><time>2026-05-01T09:35:41.916Z</time></trkpt><trkpt lat="42.5597581" lon="12.3552639"><ele>411.0</ele><time>2026-05-01T09:35:42.916Z</time></trkpt><trkpt lat="42.5596923" lon="12.3555264"><ele>415.0</ele><time>2026-05-01T09:35:43.915Z</time></trkpt><trkpt lat="42.5596201" lon="12.3558153"><ele>419.0</ele><time>2026-05-01T09:35:44.916Z</time></trkpt><trkpt lat="42.5595465" lon="12.3561152"><ele>412.5</ele><time>2026-05-01T09:35:45.916Z</time></trkpt><trkpt lat="42.5594641" lon="12.3564183"><ele>406.0</ele><time>2026-05-01T09:35:46.916Z</time></trkpt><trkpt lat="42.5593937" lon="12.3567068"><ele>406.0</ele><time>2026-05-01T09:35:47.915Z</time></trkpt><trkpt lat="42.5593248" lon="12.3569558"><ele>406.0</ele><time>2026-05-01T09:35:48.916Z</time></trkpt><trkpt lat="42.5592597" lon="12.3571872"><ele>406.0</ele><time>2026-05-01T09:35:49.915Z</time></trkpt><trkpt lat="42.5592007" lon="12.3573929"><ele>408.0</ele><time>2026-05-01T09:35:50.915Z</time></trkpt><trkpt lat="42.5591386" lon="12.3575955"><ele>410.0</ele><time>2026-05-01T09:35:51.916Z</time></trkpt><trkpt lat="42.559082" lon="12.3578052"><ele>412.0</ele><time>2026-05-01T09:35:52.916Z</time></trkpt><trkpt lat="42.5590202" lon="12.3580295"><ele>414.33333333333337</ele><time>2026-05-01T09:35:53.916Z</time></trkpt><trkpt lat="42.5589689" lon="12.35827"><ele>416.66666666666663</ele><time>2026-05-01T09:35:54.915Z</time></trkpt><trkpt lat="42.5589265" lon="12.3585231"><ele>419.0</ele><time>2026-05-01T09:35:55.916Z</time></trkpt><trkpt lat="42.5588906" lon="12.3587865"><ele>420.0</ele><time>2026-05-01T09:35:56.915Z</time></trkpt><trkpt lat="42.558863" lon="12.3590612"><ele>421.0</ele><time>2026-05-01T09:35:57.916Z</time></trkpt><trkpt lat="42.5588409" lon="12.3593408"><ele>422.0</ele><time>2026-05-01T09:35:58.916Z</time></trkpt><trkpt lat="42.5588145" lon="12.3595983"><ele>421.3333333333333</ele><time>2026-05-01T09:35:59.916Z</time></trkpt><trkpt lat="42.5587879" lon="12.359846"><ele>420.66666666666663</ele><time>2026-05-01T09:36:00.916Z</time></trkpt><trkpt lat="42.558767" lon="12.3600818"><ele>420.0</ele><time>2026-05-01T09:36:01.916Z</time></trkpt><trkpt lat="42.5587415" lon="12.3603067"><ele>420.0</ele><time>2026-05-01T09:36:02.916Z</time></trkpt><trkpt lat="42.5587355" lon="12.3605001"><ele>420.0</ele><time>2026-05-01T09:36:03.916Z</time></trkpt><trkpt lat="42.5587627" lon="12.3606764"><ele>420.0</ele><time>2026-05-01T09:36:04.915Z</time></trkpt><trkpt lat="42.5587994" lon="12.3608485"><ele>420.0</ele><time>2026-05-01T09:36:05.915Z</time></trkpt><trkpt lat="42.5588635" lon="12.361047"><ele>417.66666666666663</ele><time>2026-05-01T09:36:06.916Z</time></trkpt><trkpt lat="42.5589347" lon="12.361257"><ele>415.3333333333333</ele><time>2026-05-01T09:36:07.915Z</time></trkpt><trkpt lat="42.5590071" lon="12.3614755"><ele>413.0</ele><time>2026-05-01T09:36:08.916Z</time></trkpt><trkpt lat="42.5590861" lon="12.3617229"><ele>410.3333333333333</ele><time>2026-05-01T09:36:09.916Z</time></trkpt><trkpt lat="42.5591613" lon="12.3619896"><ele>407.66666666666663</ele><time>2026-05-01T09:36:10.916Z</time></trkpt><trkpt lat="42.5592345" lon="12.3622546"><ele>405.0</ele><time>2026-05-01T09:36:11.916Z</time></trkpt><trkpt lat="42.559315" lon="12.3625169"><ele>402.66666666666663</ele><time>2026-05-01T09:36:12.916Z</time></trkpt><trkpt lat="42.5593988" lon="12.3627847"><ele>400.3333333333333</ele><time>2026-05-01T09:36:13.916Z</time></trkpt><trkpt lat="42.5594726" lon="12.3630405"><ele>398.0</ele><time>2026-05-01T09:36:14.916Z</time></trkpt><trkpt lat="42.5595416" lon="12.3632931"><ele>397.3333333333333</ele><time>2026-05-01T09:36:15.916Z</time></trkpt><trkpt lat="42.5596116" lon="12.3635409"><ele>396.66666666666663</ele><time>2026-05-01T09:36:16.916Z</time></trkpt><trkpt lat="42.5596752" lon="12.3637957"><ele>396.0</ele><time>2026-05-01T09:36:17.915Z</time></trkpt><trkpt lat="42.55973" lon="12.3640642"><ele>395.0</ele><time>2026-05-01T09:36:18.916Z</time></trkpt><trkpt lat="42.5597543" lon="12.3643384"><ele>394.0</ele><time>2026-05-01T09:36:19.916Z</time></trkpt><trkpt lat="42.5597723" lon="12.3646109"><ele>393.0</ele><time>2026-05-01T09:36:20.916Z</time></trkpt><trkpt lat="42.5598083" lon="12.3648858"><ele>392.0</ele><time>2026-05-01T09:36:21.916Z</time></trkpt><trkpt lat="42.5598769" lon="12.3651532"><ele>391.0</ele><time>2026-05-01T09:36:22.916Z</time></trkpt><trkpt lat="42.5599839" lon="12.3654013"><ele>390.0</ele><time>2026-05-01T09:36:23.916Z</time></trkpt><trkpt lat="42.5601033" lon="12.3656427"><ele>389.0</ele><time>2026-05-01T09:36:24.915Z</time></trkpt><trkpt lat="42.5602307" lon="12.3658972"><ele>388.0</ele><time>2026-05-01T09:36:25.916Z</time></trkpt><trkpt lat="42.5603563" lon="12.3661541"><ele>385.6666666666667</ele><time>2026-05-01T09:36:26.916Z</time></trkpt><trkpt lat="42.5604809" lon="12.3663952"><ele>383.33333333333337</ele><time>2026-05-01T09:36:27.915Z</time></trkpt><trkpt lat="42.5605918" lon="12.3666319"><ele>381.0</ele><time>2026-05-01T09:36:28.915Z</time></trkpt><trkpt lat="42.5606863" lon="12.3668568"><ele>381.0</ele><time>2026-05-01T09:36:29.916Z</time></trkpt><trkpt lat="42.5607602" lon="12.3670898"><ele>381.0</ele><time>2026-05-01T09:36:30.916Z</time></trkpt><trkpt lat="42.5608008" lon="12.3673599"><ele>381.0</ele><time>2026-05-01T09:36:31.916Z</time></trkpt><trkpt lat="42.5608181" lon="12.3676659"><ele>380.6666666666667</ele><time>2026-05-01T09:36:32.916Z</time></trkpt><trkpt lat="42.560812" lon="12.3679578"><ele>380.33333333333337</ele><time>2026-05-01T09:36:33.916Z</time></trkpt><trkpt lat="42.5607982" lon="12.3682048"><ele>380.0</ele><time>2026-05-01T09:36:34.916Z</time></trkpt><trkpt lat="42.5607875" lon="12.3684313"><ele>381.6666666666667</ele><time>2026-05-01T09:36:35.916Z</time></trkpt><trkpt lat="42.560723" lon="12.3686141"><ele>383.33333333333337</ele><time>2026-05-01T09:36:36.916Z</time></trkpt><trkpt lat="42.5606254" lon="12.3687741"><ele>385.0</ele><time>2026-05-01T09:36:37.916Z</time></trkpt><trkpt lat="42.5604731" lon="12.3688831"><ele>384.6666666666667</ele><time>2026-05-01T09:36:38.915Z</time></trkpt><trkpt lat="42.5602946" lon="12.3689763"><ele>384.33333333333337</ele><time>2026-05-01T09:36:39.916Z</time></trkpt><trkpt lat="42.5601012" lon="12.3690785"><ele>384.0</ele><time>2026-05-01T09:36:40.915Z</time></trkpt><trkpt lat="42.5599064" lon="12.3691918"><ele>384.0</ele><time>2026-05-01T09:36:41.916Z</time></trkpt><trkpt lat="42.5597324" lon="12.3692903"><ele>384.0</ele><time>2026-05-01T09:36:42.916Z</time></trkpt><trkpt lat="42.5595735" lon="12.3694158"><ele>384.0</ele><time>2026-05-01T09:36:43.916Z</time></trkpt><trkpt lat="42.5594363" lon="12.3695794"><ele>384.0</ele><time>2026-05-01T09:36:44.916Z</time></trkpt><trkpt lat="42.5593078" lon="12.3697889"><ele>384.0</ele><time>2026-05-01T09:36:45.915Z</time></trkpt><trkpt lat="42.5591928" lon="12.3700221"><ele>384.0</ele><time>2026-05-01T09:36:46.915Z</time></trkpt><trkpt lat="42.5590701" lon="12.3702711"><ele>388.5</ele><time>2026-05-01T09:36:47.915Z</time></trkpt><trkpt lat="42.558942" lon="12.3705468"><ele>393.0</ele><time>2026-05-01T09:36:48.916Z</time></trkpt><trkpt lat="42.5588184" lon="12.3708294"><ele>390.66666666666663</ele><time>2026-05-01T09:36:49.916Z</time></trkpt><trkpt lat="42.5586892" lon="12.3710903"><ele>388.3333333333333</ele><time>2026-05-01T09:36:50.916Z</time></trkpt><trkpt lat="42.5585777" lon="12.3713416"><ele>386.0</ele><time>2026-05-01T09:36:51.915Z</time></trkpt><trkpt lat="42.5584823" lon="12.3715466"><ele>386.0</ele><time>2026-05-01T09:36:52.916Z</time></trkpt><trkpt lat="42.558423" lon="12.3717265"><ele>386.0</ele><time>2026-05-01T09:36:53.916Z</time></trkpt><trkpt lat="42.558399" lon="12.3719089"><ele>386.0</ele><time>2026-05-01T09:36:54.916Z</time></trkpt><trkpt lat="42.5584229" lon="12.37211"><ele>386.0</ele><time>2026-05-01T09:36:55.916Z</time></trkpt><trkpt lat="42.5584819" lon="12.3723237"><ele>386.3333333333333</ele><time>2026-05-01T09:36:56.916Z</time></trkpt><trkpt lat="42.55855" lon="12.3725455"><ele>386.66666666666663</ele><time>2026-05-01T09:36:57.915Z</time></trkpt><trkpt lat="42.5586366" lon="12.3727819"><ele>387.0</ele><time>2026-05-01T09:36:58.915Z</time></trkpt><trkpt lat="42.5587282" lon="12.3730377"><ele>388.0</ele><time>2026-05-01T09:36:59.916Z</time></trkpt><trkpt lat="42.5588248" lon="12.373292"><ele>389.0</ele><time>2026-05-01T09:37:00.915Z</time></trkpt><trkpt lat="42.5589235" lon="12.3735741"><ele>390.0</ele><time>2026-05-01T09:37:01.916Z</time></trkpt><trkpt lat="42.5590309" lon="12.3738655"><ele>390.0</ele><time>2026-05-01T09:37:02.916Z</time></trkpt><trkpt lat="42.5591427" lon="12.3741718"><ele>390.0</ele><time>2026-05-01T09:37:03.916Z</time></trkpt><trkpt lat="42.5592577" lon="12.3744812"><ele>390.0</ele><time>2026-05-01T09:37:04.916Z</time></trkpt><trkpt lat="42.5593726" lon="12.3748005"><ele>390.0</ele><time>2026-05-01T09:37:05.916Z</time></trkpt><trkpt lat="42.5594911" lon="12.3751142"><ele>392.0</ele><time>2026-05-01T09:37:06.916Z</time></trkpt><trkpt lat="42.5596063" lon="12.3754303"><ele>394.0</ele><time>2026-05-01T09:37:07.915Z</time></trkpt><trkpt lat="42.5597157" lon="12.375727"><ele>394.0</ele><time>2026-05-01T09:37:08.915Z</time></trkpt><trkpt lat="42.5598223" lon="12.3760136"><ele>394.0</ele><time>2026-05-01T09:37:09.916Z</time></trkpt><trkpt lat="42.5599073" lon="12.3762902"><ele>393.0</ele><time>2026-05-01T09:37:10.916Z</time></trkpt><trkpt lat="42.5599712" lon="12.3765679"><ele>392.0</ele><time>2026-05-01T09:37:11.916Z</time></trkpt><trkpt lat="42.5599828" lon="12.3768304"><ele>391.0</ele><time>2026-05-01T09:37:12.915Z</time></trkpt><trkpt lat="42.5599798" lon="12.377128"><ele>390.0</ele><time>2026-05-01T09:37:13.916Z</time></trkpt><trkpt lat="42.5599737" lon="12.3774464"><ele>389.0</ele><time>2026-05-01T09:37:14.916Z</time></trkpt><trkpt lat="42.5599732" lon="12.3778052"><ele>388.0</ele><time>2026-05-01T09:37:15.916Z</time></trkpt><trkpt lat="42.5599769" lon="12.3781517"><ele>387.0</ele><time>2026-05-01T09:37:16.916Z</time></trkpt><trkpt lat="42.5599831" lon="12.3785058"><ele>385.5</ele><time>2026-05-01T09:37:17.916Z</time></trkpt><trkpt lat="42.5599829" lon="12.378877"><ele>384.0</ele><time>2026-05-01T09:37:18.915Z</time></trkpt><trkpt lat="42.5599829" lon="12.3792472"><ele>384.0</ele><time>2026-05-01T09:37:19.916Z</time></trkpt><trkpt lat="42.5599806" lon="12.3795973"><ele>384.0</ele><time>2026-05-01T09:37:20.916Z</time></trkpt><trkpt lat="42.5599791" lon="12.3799349"><ele>384.0</ele><time>2026-05-01T09:37:21.915Z</time></trkpt><trkpt lat="42.5599845" lon="12.3802457"><ele>384.0</ele><time>2026-05-01T09:37:22.916Z</time></trkpt><trkpt lat="42.5599862" lon="12.3805043"><ele>384.0</ele><time>2026-05-01T09:37:23.916Z</time></trkpt><trkpt lat="42.5599774" lon="12.3807653"><ele>384.0</ele><time>2026-05-01T09:37:24.916Z</time></trkpt><trkpt lat="42.5599334" lon="12.3810301"><ele>384.0</ele><time>2026-05-01T09:37:25.916Z</time></trkpt><trkpt lat="42.5598524" lon="12.3812839"><ele>384.0</ele><time>2026-05-01T09:37:26.916Z</time></trkpt><trkpt lat="42.5597174" lon="12.381543"><ele>384.0</ele><time>2026-05-01T09:37:27.916Z</time></trkpt><trkpt lat="42.5595612" lon="12.3818106"><ele>384.0</ele><time>2026-05-01T09:37:28.916Z</time></trkpt><trkpt lat="42.5594201" lon="12.3820601"><ele>386.0</ele><time>2026-05-01T09:37:29.916Z</time></trkpt><trkpt lat="42.5592761" lon="12.3823049"><ele>388.0</ele><time>2026-05-01T09:37:30.915Z</time></trkpt><trkpt lat="42.5591779" lon="12.3825234"><ele>390.0</ele><time>2026-05-01T09:37:31.916Z</time></trkpt><trkpt lat="42.5591312" lon="12.3827161"><ele>390.0</ele><time>2026-05-01T09:37:32.916Z</time></trkpt><trkpt lat="42.5591337" lon="12.3829351"><ele>390.0</ele><time>2026-05-01T09:37:33.916Z</time></trkpt><trkpt lat="42.5591688" lon="12.3831801"><ele>390.0</ele><time>2026-05-01T09:37:34.916Z</time></trkpt><trkpt lat="42.5592154" lon="12.3834458"><ele>393.5</ele><time>2026-05-01T09:37:35.916Z</time></trkpt><trkpt lat="42.5592609" lon="12.3837422"><ele>397.0</ele><time>2026-05-01T09:37:36.916Z</time></trkpt><trkpt lat="42.5593098" lon="12.3840588"><ele>398.0</ele><time>2026-05-01T09:37:37.916Z</time></trkpt><trkpt lat="42.5593655" lon="12.3844098"><ele>399.0</ele><time>2026-05-01T09:37:38.916Z</time></trkpt><trkpt lat="42.5594104" lon="12.3847799"><ele>399.0</ele><time>2026-05-01T09:37:39.916Z</time></trkpt><trkpt lat="42.559463" lon="12.3851492"><ele>399.0</ele><time>2026-05-01T09:37:40.916Z</time></trkpt><trkpt lat="42.5595139" lon="12.3855283"><ele>402.0</ele><time>2026-05-01T09:37:41.916Z</time></trkpt><trkpt lat="42.5595596" lon="12.3859229"><ele>405.0</ele><time>2026-05-01T09:37:42.915Z</time></trkpt><trkpt lat="42.559612" lon="12.3863217"><ele>403.5</ele><time>2026-05-01T09:37:43.915Z</time></trkpt><trkpt lat="42.5596619" lon="12.386715"><ele>402.0</ele><time>2026-05-01T09:37:44.916Z</time></trkpt><trkpt lat="42.5597108" lon="12.3870962"><ele>402.0</ele><time>2026-05-01T09:37:45.916Z</time></trkpt><trkpt lat="42.5597591" lon="12.3874781"><ele>402.0</ele><time>2026-05-01T09:37:46.916Z</time></trkpt><trkpt lat="42.5597939" lon="12.3878495"><ele>404.5</ele><time>2026-05-01T09:37:47.916Z</time></trkpt><trkpt lat="42.5598256" lon="12.3882365"><ele>407.0</ele><time>2026-05-01T09:37:48.916Z</time></trkpt><trkpt lat="42.5598661" lon="12.3885704"><ele>408.5</ele><time>2026-05-01T09:37:49.916Z</time></trkpt><trkpt lat="42.5599134" lon="12.3888898"><ele>410.0</ele><time>2026-05-01T09:37:50.915Z</time></trkpt><trkpt lat="42.5599539" lon="12.3891811"><ele>410.0</ele><time>2026-05-01T09:37:51.916Z</time></trkpt><trkpt lat="42.5599877" lon="12.3894554"><ele>410.0</ele><time>2026-05-01T09:37:52.916Z</time></trkpt><trkpt lat="42.560013" lon="12.3897024"><ele>410.0</ele><time>2026-05-01T09:37:53.916Z</time></trkpt><trkpt lat="42.5600516" lon="12.3899361"><ele>410.3333333333333</ele><time>2026-05-01T09:37:54.915Z</time></trkpt><trkpt lat="42.5600931" lon="12.3901523"><ele>410.66666666666663</ele><time>2026-05-01T09:37:55.915Z</time></trkpt><trkpt lat="42.5601413" lon="12.3903447"><ele>411.0</ele><time>2026-05-01T09:37:56.916Z</time></trkpt><trkpt lat="42.5602101" lon="12.390508"><ele>410.75</ele><time>2026-05-01T09:37:57.915Z</time></trkpt><trkpt lat="42.5602969" lon="12.390635"><ele>410.5</ele><time>2026-05-01T09:37:58.916Z</time></trkpt><trkpt lat="42.5603885" lon="12.3907546"><ele>410.25</ele><time>2026-05-01T09:37:59.915Z</time></trkpt><trkpt lat="42.5605085" lon="12.3908456"><ele>410.0</ele><time>2026-05-01T09:38:00.915Z</time></trkpt><trkpt lat="42.5606512" lon="12.3909185"><ele>410.0</ele><time>2026-05-01T09:38:01.916Z</time></trkpt><trkpt lat="42.5608385" lon="12.390998"><ele>410.0</ele><time>2026-05-01T09:38:02.916Z</time></trkpt><trkpt lat="42.561032" lon="12.3910931"><ele>410.0</ele><time>2026-05-01T09:38:03.916Z</time></trkpt><trkpt lat="42.5612369" lon="12.3912087"><ele>411.0</ele><time>2026-05-01T09:38:04.916Z</time></trkpt><trkpt lat="42.5614403" lon="12.3913392"><ele>412.0</ele><time>2026-05-01T09:38:05.916Z</time></trkpt><trkpt lat="42.5616571" lon="12.3914757"><ele>408.0</ele><time>2026-05-01T09:38:06.916Z</time></trkpt><trkpt lat="42.5618814" lon="12.3916124"><ele>404.0</ele><time>2026-05-01T09:38:07.916Z</time></trkpt><trkpt lat="42.5621102" lon="12.3917514"><ele>404.0</ele><time>2026-05-01T09:38:08.916Z</time></trkpt><trkpt lat="42.5623335" lon="12.3918854"><ele>404.0</ele><time>2026-05-01T09:38:09.916Z</time></trkpt><trkpt lat="42.5625388" lon="12.3920095"><ele>404.0</ele><time>2026-05-01T09:38:10.916Z</time></trkpt><trkpt lat="42.5627303" lon="12.3921189"><ele>404.0</ele><time>2026-05-01T09:38:11.915Z</time></trkpt><trkpt lat="42.5628928" lon="12.3921907"><ele>404.0</ele><time>2026-05-01T09:38:12.916Z</time></trkpt><trkpt lat="42.5630194" lon="12.3922719"><ele>402.25</ele><time>2026-05-01T09:38:13.916Z</time></trkpt><trkpt lat="42.563115" lon="12.3923425"><ele>400.5</ele><time>2026-05-01T09:38:14.916Z</time></trkpt><trkpt lat="42.563201" lon="12.392476"><ele>398.75</ele><time>2026-05-01T09:38:15.916Z</time></trkpt><trkpt lat="42.5632465" lon="12.392676"><ele>397.0</ele><time>2026-05-01T09:38:16.916Z</time></trkpt><trkpt lat="42.5632596" lon="12.3928929"><ele>397.25</ele><time>2026-05-01T09:38:17.916Z</time></trkpt><trkpt lat="42.5632367" lon="12.3930845"><ele>397.5</ele><time>2026-05-01T09:38:18.916Z</time></trkpt><trkpt lat="42.5631864" lon="12.3932402"><ele>397.75</ele><time>2026-05-01T09:38:19.916Z</time></trkpt><trkpt lat="42.5630824" lon="12.393371"><ele>398.0</ele><time>2026-05-01T09:38:20.915Z</time></trkpt><trkpt lat="42.5629547" lon="12.3934825"><ele>397.0</ele><time>2026-05-01T09:38:21.916Z</time></trkpt><trkpt lat="42.5628141" lon="12.3936158"><ele>396.0</ele><time>2026-05-01T09:38:22.916Z</time></trkpt><trkpt lat="42.5626691" lon="12.3937458"><ele>395.0</ele><time>2026-05-01T09:38:23.916Z</time></trkpt><trkpt lat="42.5625023" lon="12.3938656"><ele>395.0</ele><time>2026-05-01T09:38:24.916Z</time></trkpt><trkpt lat="42.5623023" lon="12.3939544"><ele>395.0</ele><time>2026-05-01T09:38:25.915Z</time></trkpt><trkpt lat="42.5621019" lon="12.3940199"><ele>395.0</ele><time>2026-05-01T09:38:26.916Z</time></trkpt><trkpt lat="42.5618945" lon="12.3941105"><ele>388.5</ele><time>2026-05-01T09:38:27.915Z</time></trkpt><trkpt lat="42.5616796" lon="12.3942114"><ele>382.0</ele><time>2026-05-01T09:38:28.916Z</time></trkpt><trkpt lat="42.5614509" lon="12.3943174"><ele>382.0</ele><time>2026-05-01T09:38:29.916Z</time></trkpt><trkpt lat="42.5612072" lon="12.3944318"><ele>382.0</ele><time>2026-05-01T09:38:30.915Z</time></trkpt><trkpt lat="42.5609649" lon="12.3945571"><ele>382.0</ele><time>2026-05-01T09:38:31.916Z</time></trkpt><trkpt lat="42.5607223" lon="12.3946767"><ele>382.0</ele><time>2026-05-01T09:38:32.916Z</time></trkpt><trkpt lat="42.5604908" lon="12.3948037"><ele>374.5</ele><time>2026-05-01T09:38:33.915Z</time></trkpt><trkpt lat="42.5602622" lon="12.3949543"><ele>367.0</ele><time>2026-05-01T09:38:34.916Z</time></trkpt><trkpt lat="42.560044" lon="12.3951572"><ele>367.0</ele><time>2026-05-01T09:38:35.916Z</time></trkpt><trkpt lat="42.5598344" lon="12.3953794"><ele>367.0</ele><time>2026-05-01T09:38:36.916Z</time></trkpt><trkpt lat="42.5596261" lon="12.3956011"><ele>364.5</ele><time>2026-05-01T09:38:37.916Z</time></trkpt><trkpt lat="42.5594134" lon="12.3958416"><ele>362.0</ele><time>2026-05-01T09:38:38.915Z</time></trkpt><trkpt lat="42.5592085" lon="12.3960709"><ele>362.0</ele><time>2026-05-01T09:38:39.916Z</time></trkpt><trkpt lat="42.5590194" lon="12.3962767"><ele>362.0</ele><time>2026-05-01T09:38:40.915Z</time></trkpt><trkpt lat="42.558853" lon="12.3964515"><ele>363.5</ele><time>2026-05-01T09:38:41.915Z</time></trkpt><trkpt lat="42.5587126" lon="12.3965821"><ele>365.0</ele><time>2026-05-01T09:38:42.916Z</time></trkpt><trkpt lat="42.5585929" lon="12.3966836"><ele>366.5</ele><time>2026-05-01T09:38:43.916Z</time></trkpt><trkpt lat="42.5584678" lon="12.3967442"><ele>368.0</ele><time>2026-05-01T09:38:44.916Z</time></trkpt><trkpt lat="42.5583423" lon="12.3967457"><ele>368.0</ele><time>2026-05-01T09:38:45.915Z</time></trkpt><trkpt lat="42.5582233" lon="12.3966789"><ele>368.0</ele><time>2026-05-01T09:38:46.916Z</time></trkpt><trkpt lat="42.5580912" lon="12.3965293"><ele>368.0</ele><time>2026-05-01T09:38:47.916Z</time></trkpt><trkpt lat="42.5579292" lon="12.3963527"><ele>362.6666666666667</ele><time>2026-05-01T09:38:48.915Z</time></trkpt><trkpt lat="42.5577495" lon="12.3961956"><ele>357.3333333333333</ele><time>2026-05-01T09:38:49.916Z</time></trkpt><trkpt lat="42.5575699" lon="12.3960941"><ele>352.0</ele><time>2026-05-01T09:38:50.916Z</time></trkpt><trkpt lat="42.5574059" lon="12.396045"><ele>352.0</ele><time>2026-05-01T09:38:51.916Z</time></trkpt><trkpt lat="42.557233" lon="12.3960562"><ele>352.0</ele><time>2026-05-01T09:38:52.916Z</time></trkpt><trkpt lat="42.5570733" lon="12.3961361"><ele>352.0</ele><time>2026-05-01T09:38:53.915Z</time></trkpt><trkpt lat="42.5569518" lon="12.3962797"><ele>347.3333333333333</ele><time>2026-05-01T09:38:54.915Z</time></trkpt><trkpt lat="42.5568696" lon="12.39647"><ele>342.6666666666667</ele><time>2026-05-01T09:38:55.916Z</time></trkpt><trkpt lat="42.5568247" lon="12.3967016"><ele>338.0</ele><time>2026-05-01T09:38:56.916Z</time></trkpt><trkpt lat="42.5568009" lon="12.3969228"><ele>338.0</ele><time>2026-05-01T09:38:57.915Z</time></trkpt><trkpt lat="42.5567698" lon="12.397128"><ele>338.0</ele><time>2026-05-01T09:38:58.916Z</time></trkpt><trkpt lat="42.5566881" lon="12.3973063"><ele>338.0</ele><time>2026-05-01T09:38:59.915Z</time></trkpt><trkpt lat="42.5565503" lon="12.3974462"><ele>344.0</ele><time>2026-05-01T09:39:00.916Z</time></trkpt><trkpt lat="42.5563844" lon="12.3975456"><ele>350.0</ele><time>2026-05-01T09:39:01.916Z</time></trkpt><trkpt lat="42.5562263" lon="12.3976236"><ele>356.0</ele><time>2026-05-01T09:39:02.915Z</time></trkpt><trkpt lat="42.556097" lon="12.397725"><ele>347.6666666666667</ele><time>2026-05-01T09:39:03.915Z</time></trkpt><trkpt lat="42.5560117" lon="12.3978809"><ele>339.3333333333333</ele><time>2026-05-01T09:39:04.916Z</time></trkpt><trkpt lat="42.555971" lon="12.3980874"><ele>331.0</ele><time>2026-05-01T09:39:05.916Z</time></trkpt><trkpt lat="42.5559491" lon="12.3983061"><ele>331.0</ele><time>2026-05-01T09:39:06.916Z</time></trkpt><trkpt lat="42.5559266" lon="12.3985483"><ele>331.0</ele><time>2026-05-01T09:39:07.916Z</time></trkpt><trkpt lat="42.5558642" lon="12.3987823"><ele>331.0</ele><time>2026-05-01T09:39:08.916Z</time></trkpt><trkpt lat="42.555752" lon="12.3989915"><ele>322.66666666666663</ele><time>2026-05-01T09:39:09.916Z</time></trkpt><trkpt lat="42.5556216" lon="12.3992031"><ele>314.3333333333333</ele><time>2026-05-01T09:39:10.916Z</time></trkpt><trkpt lat="42.5554696" lon="12.3994129"><ele>306.0</ele><time>2026-05-01T09:39:11.915Z</time></trkpt><trkpt lat="42.5553217" lon="12.3996248"><ele>316.3333333333333</ele><time>2026-05-01T09:39:12.916Z</time></trkpt><trkpt lat="42.5551734" lon="12.3998141"><ele>326.66666666666663</ele><time>2026-05-01T09:39:13.915Z</time></trkpt><trkpt lat="42.5550312" lon="12.3999632"><ele>337.0</ele><time>2026-05-01T09:39:14.916Z</time></trkpt><trkpt lat="42.5548903" lon="12.4000925"><ele>337.0</ele><time>2026-05-01T09:39:15.916Z</time></trkpt><trkpt lat="42.5547664" lon="12.4001946"><ele>337.0</ele><time>2026-05-01T09:39:16.916Z</time></trkpt><trkpt lat="42.554663" lon="12.4003145"><ele>337.0</ele><time>2026-05-01T09:39:17.916Z</time></trkpt><trkpt lat="42.5546064" lon="12.4004603"><ele>337.0</ele><time>2026-05-01T09:39:18.916Z</time></trkpt><trkpt lat="42.5545975" lon="12.400616"><ele>339.0</ele><time>2026-05-01T09:39:19.916Z</time></trkpt><trkpt lat="42.5546284" lon="12.4007915"><ele>341.0</ele><time>2026-05-01T09:39:20.915Z</time></trkpt><trkpt lat="42.5546819" lon="12.400982"><ele>343.0</ele><time>2026-05-01T09:39:21.916Z</time></trkpt><trkpt lat="42.5547451" lon="12.4011977"><ele>338.3333333333333</ele><time>2026-05-01T09:39:22.916Z</time></trkpt><trkpt lat="42.554807" lon="12.4014253"><ele>333.6666666666667</ele><time>2026-05-01T09:39:23.915Z</time></trkpt><trkpt lat="42.554877" lon="12.4016608"><ele>329.0</ele><time>2026-05-01T09:39:24.916Z</time></trkpt><trkpt lat="42.5549359" lon="12.401886"><ele>329.0</ele><time>2026-05-01T09:39:25.916Z</time></trkpt><trkpt lat="42.5549792" lon="12.4021115"><ele>329.0</ele><time>2026-05-01T09:39:26.915Z</time></trkpt><trkpt lat="42.5549962" lon="12.4023556"><ele>329.0</ele><time>2026-05-01T09:39:27.915Z</time></trkpt><trkpt lat="42.5550009" lon="12.4026248"><ele>326.0</ele><time>2026-05-01T09:39:28.915Z</time></trkpt><trkpt lat="42.5549983" lon="12.4029216"><ele>323.0</ele><time>2026-05-01T09:39:29.916Z</time></trkpt><trkpt lat="42.5549913" lon="12.403253"><ele>322.6666666666667</ele><time>2026-05-01T09:39:30.916Z</time></trkpt><trkpt lat="42.5549859" lon="12.4035623"><ele>322.3333333333333</ele><time>2026-05-01T09:39:31.916Z</time></trkpt><trkpt lat="42.5549755" lon="12.4038506"><ele>322.0</ele><time>2026-05-01T09:39:32.916Z</time></trkpt><trkpt lat="42.5549697" lon="12.40411"><ele>321.25</ele><time>2026-05-01T09:39:33.916Z</time></trkpt><trkpt lat="42.554966" lon="12.404325"><ele>320.5</ele><time>2026-05-01T09:39:34.916Z</time></trkpt><trkpt lat="42.5549676" lon="12.4045147"><ele>319.75</ele><time>2026-05-01T09:39:35.916Z</time></trkpt><trkpt lat="42.554997" lon="12.4046789"><ele>319.0</ele><time>2026-05-01T09:39:36.916Z</time></trkpt><trkpt lat="42.5550585" lon="12.4048346"><ele>319.25</ele><time>2026-05-01T09:39:37.916Z</time></trkpt><trkpt lat="42.5551247" lon="12.4049821"><ele>319.5</ele><time>2026-05-01T09:39:38.916Z</time></trkpt><trkpt lat="42.5551993" lon="12.4050978"><ele>319.75</ele><time>2026-05-01T09:39:39.916Z</time></trkpt><trkpt lat="42.5552898" lon="12.4051835"><ele>320.0</ele><time>2026-05-01T09:39:40.916Z</time></trkpt><trkpt lat="42.5553935" lon="12.4052434"><ele>320.0</ele><time>2026-05-01T09:39:41.915Z</time></trkpt><trkpt lat="42.5555237" lon="12.4052703"><ele>320.0</ele><time>2026-05-01T09:39:42.915Z</time></trkpt><trkpt lat="42.5556665" lon="12.4052578"><ele>320.0</ele><time>2026-05-01T09:39:43.916Z</time></trkpt><trkpt lat="42.5558075" lon="12.4052371"><ele>320.0</ele><time>2026-05-01T09:39:44.916Z</time></trkpt><trkpt lat="42.5559439" lon="12.4052168"><ele>320.0</ele><time>2026-05-01T09:39:45.916Z</time></trkpt><trkpt lat="42.5560734" lon="12.4052179"><ele>320.0</ele><time>2026-05-01T09:39:46.915Z</time></trkpt><trkpt lat="42.5561936" lon="12.4052255"><ele>320.0</ele><time>2026-05-01T09:39:47.915Z</time></trkpt><trkpt lat="42.5563066" lon="12.4052402"><ele>320.0</ele><time>2026-05-01T09:39:48.916Z</time></trkpt><trkpt lat="42.5564311" lon="12.4052677"><ele>320.5</ele><time>2026-05-01T09:39:49.915Z</time></trkpt><trkpt lat="42.5565486" lon="12.4053155"><ele>321.0</ele><time>2026-05-01T09:39:50.916Z</time></trkpt><trkpt lat="42.5566597" lon="12.4053816"><ele>321.5</ele><time>2026-05-01T09:39:51.915Z</time></trkpt><trkpt lat="42.5567664" lon="12.4054502"><ele>322.0</ele><time>2026-05-01T09:39:52.915Z</time></trkpt><trkpt lat="42.5568627" lon="12.4055266"><ele>319.8</ele><time>2026-05-01T09:39:53.916Z</time></trkpt><trkpt lat="42.5569595" lon="12.4055972"><ele>317.6</ele><time>2026-05-01T09:39:54.916Z</time></trkpt><trkpt lat="42.5570581" lon="12.4056655"><ele>315.40000000000003</ele><time>2026-05-01T09:39:55.916Z</time></trkpt><trkpt lat="42.5571629" lon="12.4057329"><ele>313.20000000000005</ele><time>2026-05-01T09:39:56.916Z</time></trkpt><trkpt lat="42.5572619" lon="12.4057986"><ele>311.0</ele><time>2026-05-01T09:39:57.916Z</time></trkpt><trkpt lat="42.5573586" lon="12.4058752"><ele>311.0</ele><time>2026-05-01T09:39:58.916Z</time></trkpt><trkpt lat="42.5574804" lon="12.4059422"><ele>311.0</ele><time>2026-05-01T09:39:59.916Z</time></trkpt><trkpt lat="42.5575977" lon="12.4060217"><ele>311.0</ele><time>2026-05-01T09:40:00.916Z</time></trkpt><trkpt lat="42.5577326" lon="12.4061177"><ele>311.0</ele><time>2026-05-01T09:40:01.916Z</time></trkpt><trkpt lat="42.5578945" lon="12.4062207"><ele>306.6666666666667</ele><time>2026-05-01T09:40:02.916Z</time></trkpt><trkpt lat="42.558055" lon="12.4063293"><ele>302.3333333333333</ele><time>2026-05-01T09:40:03.916Z</time></trkpt><trkpt lat="42.5581927" lon="12.4064133"><ele>298.0</ele><time>2026-05-01T09:40:04.916Z</time></trkpt><trkpt lat="42.5583241" lon="12.4064981"><ele>298.0</ele><time>2026-05-01T09:40:05.916Z</time></trkpt><trkpt lat="42.5584492" lon="12.4065684"><ele>298.0</ele><time>2026-05-01T09:40:06.915Z</time></trkpt><trkpt lat="42.558579" lon="12.4066356"><ele>298.0</ele><time>2026-05-01T09:40:07.916Z</time></trkpt><trkpt lat="42.5587224" lon="12.4067093"><ele>298.0</ele><time>2026-05-01T09:40:08.916Z</time></trkpt><trkpt lat="42.5588714" lon="12.4067969"><ele>304.66666666666663</ele><time>2026-05-01T09:40:09.916Z</time></trkpt><trkpt lat="42.559026" lon="12.4068876"><ele>311.3333333333333</ele><time>2026-05-01T09:40:10.916Z</time></trkpt><trkpt lat="42.5591872" lon="12.4069944"><ele>318.0</ele><time>2026-05-01T09:40:11.916Z</time></trkpt><trkpt lat="42.5593358" lon="12.407103"><ele>317.3333333333333</ele><time>2026-05-01T09:40:12.916Z</time></trkpt><trkpt lat="42.5594752" lon="12.4072431"><ele>316.66666666666663</ele><time>2026-05-01T09:40:13.916Z</time></trkpt><trkpt lat="42.5596038" lon="12.4073964"><ele>316.0</ele><time>2026-05-01T09:40:14.916Z</time></trkpt><trkpt lat="42.5597332" lon="12.4075702"><ele>316.0</ele><time>2026-05-01T09:40:15.916Z</time></trkpt><trkpt lat="42.5598633" lon="12.4077633"><ele>316.0</ele><time>2026-05-01T09:40:16.915Z</time></trkpt><trkpt lat="42.5599871" lon="12.4079556"><ele>316.0</ele><time>2026-05-01T09:40:17.915Z</time></trkpt><trkpt lat="42.5601074" lon="12.4081308"><ele>321.0</ele><time>2026-05-01T09:40:18.916Z</time></trkpt><trkpt lat="42.5602293" lon="12.4082845"><ele>326.0</ele><time>2026-05-01T09:40:19.916Z</time></trkpt><trkpt lat="42.5603543" lon="12.4084198"><ele>331.0</ele><time>2026-05-01T09:40:20.916Z</time></trkpt><trkpt lat="42.5604619" lon="12.4085629"><ele>331.0</ele><time>2026-05-01T09:40:21.915Z</time></trkpt><trkpt lat="42.5605576" lon="12.4087035"><ele>331.0</ele><time>2026-05-01T09:40:22.916Z</time></trkpt><trkpt lat="42.5606475" lon="12.4088523"><ele>331.0</ele><time>2026-05-01T09:40:23.915Z</time></trkpt><trkpt lat="42.5607277" lon="12.4089882"><ele>331.0</ele><time>2026-05-01T09:40:24.916Z</time></trkpt><trkpt lat="42.5607841" lon="12.4091395"><ele>319.66666666666663</ele><time>2026-05-01T09:40:25.915Z</time></trkpt><trkpt lat="42.560846" lon="12.409319"><ele>308.3333333333333</ele><time>2026-05-01T09:40:26.916Z</time></trkpt><trkpt lat="42.5609115" lon="12.409518"><ele>297.0</ele><time>2026-05-01T09:40:27.916Z</time></trkpt><trkpt lat="42.5609678" lon="12.4097462"><ele>289.6666666666667</ele><time>2026-05-01T09:40:28.916Z</time></trkpt><trkpt lat="42.561026" lon="12.4099799"><ele>282.33333333333337</ele><time>2026-05-01T09:40:29.915Z</time></trkpt><trkpt lat="42.5610761" lon="12.4102222"><ele>275.0</ele><time>2026-05-01T09:40:30.916Z</time></trkpt><trkpt lat="42.5611295" lon="12.4104524"><ele>272.33333333333337</ele><time>2026-05-01T09:40:31.915Z</time></trkpt><trkpt lat="42.561181" lon="12.4106628"><ele>269.6666666666667</ele><time>2026-05-01T09:40:32.916Z</time></trkpt><trkpt lat="42.5612389" lon="12.4108611"><ele>267.0</ele><time>2026-05-01T09:40:33.916Z</time></trkpt><trkpt lat="42.5613001" lon="12.4110304"><ele>268.6</ele><time>2026-05-01T09:40:34.915Z</time></trkpt><trkpt lat="42.5613644" lon="12.4111774"><ele>270.2</ele><time>2026-05-01T09:40:35.916Z</time></trkpt><trkpt lat="42.5614298" lon="12.4113063"><ele>271.8</ele><time>2026-05-01T09:40:36.916Z</time></trkpt><trkpt lat="42.5614908" lon="12.4114132"><ele>273.4</ele><time>2026-05-01T09:40:37.915Z</time></trkpt><trkpt lat="42.5615452" lon="12.4115049"><ele>275.0</ele><time>2026-05-01T09:40:38.916Z</time></trkpt><trkpt lat="42.5615871" lon="12.4115894"><ele>275.0</ele><time>2026-05-01T09:40:39.916Z</time></trkpt><trkpt lat="42.561632" lon="12.4116706"><ele>275.0</ele><time>2026-05-01T09:40:40.916Z</time></trkpt><trkpt lat="42.5616604" lon="12.4117542"><ele>275.0</ele><time>2026-05-01T09:40:41.915Z</time></trkpt><trkpt lat="42.5616656" lon="12.41184"><ele>275.0</ele><time>2026-05-01T09:40:42.916Z</time></trkpt><trkpt lat="42.5616363" lon="12.411929"><ele>275.0</ele><time>2026-05-01T09:40:43.916Z</time></trkpt><trkpt lat="42.5615923" lon="12.4120182"><ele>275.0</ele><time>2026-05-01T09:40:44.915Z</time></trkpt><trkpt lat="42.5615392" lon="12.4120988"><ele>275.0</ele><time>2026-05-01T09:40:45.916Z</time></trkpt><trkpt lat="42.5614913" lon="12.4121716"><ele>276.0</ele><time>2026-05-01T09:40:46.916Z</time></trkpt><trkpt lat="42.5614388" lon="12.4122406"><ele>277.0</ele><time>2026-05-01T09:40:47.915Z</time></trkpt><trkpt lat="42.5613707" lon="12.4122853"><ele>278.0</ele><time>2026-05-01T09:40:48.916Z</time></trkpt><trkpt lat="42.5613041" lon="12.4123287"><ele>279.0</ele><time>2026-05-01T09:40:49.916Z</time></trkpt><trkpt lat="42.5612278" lon="12.4123608"><ele>280.0</ele><time>2026-05-01T09:40:50.915Z</time></trkpt><trkpt lat="42.5611517" lon="12.4123924"><ele>281.0</ele><time>2026-05-01T09:40:51.916Z</time></trkpt><trkpt lat="42.5610746" lon="12.4124249"><ele>281.0</ele><time>2026-05-01T09:40:52.915Z</time></trkpt><trkpt lat="42.5609903" lon="12.4124374"><ele>281.0</ele><time>2026-05-01T09:40:53.916Z</time></trkpt><trkpt lat="42.5609064" lon="12.4124292"><ele>281.0</ele><time>2026-05-01T09:40:54.915Z</time></trkpt><trkpt lat="42.5608167" lon="12.4123836"><ele>281.0</ele><time>2026-05-01T09:40:55.915Z</time></trkpt><trkpt lat="42.5607127" lon="12.4122991"><ele>281.0</ele><time>2026-05-01T09:40:56.915Z</time></trkpt><trkpt lat="42.5606146" lon="12.4122047"><ele>276.25</ele><time>2026-05-01T09:40:57.916Z</time></trkpt><trkpt lat="42.5605171" lon="12.4121143"><ele>271.5</ele><time>2026-05-01T09:40:58.915Z</time></trkpt><trkpt lat="42.5604161" lon="12.4120298"><ele>266.75</ele><time>2026-05-01T09:40:59.915Z</time></trkpt><trkpt lat="42.560315" lon="12.411937"><ele>262.0</ele><time>2026-05-01T09:41:00.915Z</time></trkpt><trkpt lat="42.5602418" lon="12.4118034"><ele>269.3333333333333</ele><time>2026-05-01T09:41:01.916Z</time></trkpt><trkpt lat="42.5601662" lon="12.4116241"><ele>276.6666666666667</ele><time>2026-05-01T09:41:02.916Z</time></trkpt><trkpt lat="42.5600805" lon="12.4114169"><ele>284.0</ele><time>2026-05-01T09:41:03.915Z</time></trkpt><trkpt lat="42.5600202" lon="12.4112212"><ele>284.0</ele><time>2026-05-01T09:41:04.916Z</time></trkpt><trkpt lat="42.5599538" lon="12.4109803"><ele>284.0</ele><time>2026-05-01T09:41:05.916Z</time></trkpt><trkpt lat="42.5598834" lon="12.4107797"><ele>284.0</ele><time>2026-05-01T09:41:06.916Z</time></trkpt><trkpt lat="42.559811" lon="12.4105866"><ele>279.75</ele><time>2026-05-01T09:41:07.916Z</time></trkpt><trkpt lat="42.5597352" lon="12.4104185"><ele>275.5</ele><time>2026-05-01T09:41:08.916Z</time></trkpt><trkpt lat="42.5596505" lon="12.4102686"><ele>271.25</ele><time>2026-05-01T09:41:09.915Z</time></trkpt><trkpt lat="42.5595745" lon="12.4101218"><ele>267.0</ele><time>2026-05-01T09:41:10.916Z</time></trkpt><trkpt lat="42.5594816" lon="12.4099935"><ele>267.0</ele><time>2026-05-01T09:41:11.915Z</time></trkpt><trkpt lat="42.5593677" lon="12.4098881"><ele>267.0</ele><time>2026-05-01T09:41:12.916Z</time></trkpt><trkpt lat="42.559232" lon="12.409793"><ele>267.0</ele><time>2026-05-01T09:41:13.916Z</time></trkpt><trkpt lat="42.5590993" lon="12.409691"><ele>267.0</ele><time>2026-05-01T09:41:14.915Z</time></trkpt><trkpt lat="42.558966" lon="12.4095927"><ele>267.0</ele><time>2026-05-01T09:41:15.916Z</time></trkpt><trkpt lat="42.5588275" lon="12.4095027"><ele>267.0</ele><time>2026-05-01T09:41:16.916Z</time></trkpt><trkpt lat="42.5587011" lon="12.4094219"><ele>267.0</ele><time>2026-05-01T09:41:17.915Z</time></trkpt><trkpt lat="42.5585736" lon="12.4093514"><ele>267.0</ele><time>2026-05-01T09:41:18.916Z</time></trkpt><trkpt lat="42.5584418" lon="12.4093087"><ele>272.25</ele><time>2026-05-01T09:41:19.915Z</time></trkpt><trkpt lat="42.5583186" lon="12.4092706"><ele>277.5</ele><time>2026-05-01T09:41:20.915Z</time></trkpt><trkpt lat="42.5581903" lon="12.4092405"><ele>282.75</ele><time>2026-05-01T09:41:21.916Z</time></trkpt><trkpt lat="42.5580576" lon="12.4092015"><ele>288.0</ele><time>2026-05-01T09:41:22.916Z</time></trkpt><trkpt lat="42.5579139" lon="12.409166"><ele>290.0</ele><time>2026-05-01T09:41:23.916Z</time></trkpt><trkpt lat="42.5577743" lon="12.4091371"><ele>292.0</ele><time>2026-05-01T09:41:24.915Z</time></trkpt><trkpt lat="42.5576416" lon="12.4090923"><ele>294.0</ele><time>2026-05-01T09:41:25.916Z</time></trkpt><trkpt lat="42.5575226" lon="12.4090616"><ele>296.0</ele><time>2026-05-01T09:41:26.916Z</time></trkpt><trkpt lat="42.5574046" lon="12.4090347"><ele>296.0</ele><time>2026-05-01T09:41:27.916Z</time></trkpt><trkpt lat="42.5572869" lon="12.4090163"><ele>296.0</ele><time>2026-05-01T09:41:28.916Z</time></trkpt><trkpt lat="42.5571697" lon="12.4090113"><ele>296.0</ele><time>2026-05-01T09:41:29.916Z</time></trkpt><trkpt lat="42.5570587" lon="12.4090406"><ele>296.0</ele><time>2026-05-01T09:41:30.916Z</time></trkpt><trkpt lat="42.5569607" lon="12.4091113"><ele>296.2</ele><time>2026-05-01T09:41:31.916Z</time></trkpt><trkpt lat="42.5568783" lon="12.409204"><ele>296.40000000000003</ele><time>2026-05-01T09:41:32.915Z</time></trkpt><trkpt lat="42.5568193" lon="12.4093304"><ele>296.6</ele><time>2026-05-01T09:41:33.916Z</time></trkpt><trkpt lat="42.556772" lon="12.409466"><ele>296.8</ele><time>2026-05-01T09:41:34.916Z</time></trkpt><trkpt lat="42.5567464" lon="12.4096191"><ele>297.0</ele><time>2026-05-01T09:41:35.916Z</time></trkpt><trkpt lat="42.556737" lon="12.4097774"><ele>297.0</ele><time>2026-05-01T09:41:36.915Z</time></trkpt><trkpt lat="42.5567296" lon="12.4099417"><ele>297.0</ele><time>2026-05-01T09:41:37.915Z</time></trkpt><trkpt lat="42.5567246" lon="12.4101168"><ele>297.0</ele><time>2026-05-01T09:41:38.916Z</time></trkpt><trkpt lat="42.5567165" lon="12.4103009"><ele>297.0</ele><time>2026-05-01T09:41:39.916Z</time></trkpt><trkpt lat="42.5567154" lon="12.4104945"><ele>297.5</ele><time>2026-05-01T09:41:40.916Z</time></trkpt><trkpt lat="42.5567219" lon="12.410689"><ele>298.0</ele><time>2026-05-01T09:41:41.916Z</time></trkpt><trkpt lat="42.5567428" lon="12.4108701"><ele>298.5</ele><time>2026-05-01T09:41:42.915Z</time></trkpt><trkpt lat="42.5567629" lon="12.4110304"><ele>299.0</ele><time>2026-05-01T09:41:43.916Z</time></trkpt><trkpt lat="42.556776" lon="12.411183"><ele>302.75</ele><time>2026-05-01T09:41:44.916Z</time></trkpt><trkpt lat="42.5567691" lon="12.4113395"><ele>306.5</ele><time>2026-05-01T09:41:45.915Z</time></trkpt><trkpt lat="42.5567242" lon="12.4114861"><ele>310.25</ele><time>2026-05-01T09:41:46.916Z</time></trkpt><trkpt lat="42.5566419" lon="12.4116178"><ele>314.0</ele><time>2026-05-01T09:41:47.915Z</time></trkpt><trkpt lat="42.5565425" lon="12.4117211"><ele>314.0</ele><time>2026-05-01T09:41:48.915Z</time></trkpt><trkpt lat="42.5564553" lon="12.4118108"><ele>314.0</ele><time>2026-05-01T09:41:49.916Z</time></trkpt><trkpt lat="42.5563629" lon="12.4118994"><ele>314.0</ele><time>2026-05-01T09:41:50.915Z</time></trkpt><trkpt lat="42.5562719" lon="12.412"><ele>314.0</ele><time>2026-05-01T09:41:51.916Z</time></trkpt><trkpt lat="42.5561781" lon="12.4121017"><ele>314.75</ele><time>2026-05-01T09:41:52.916Z</time></trkpt><trkpt lat="42.5560838" lon="12.412202"><ele>315.5</ele><time>2026-05-01T09:41:53.916Z</time></trkpt><trkpt lat="42.5559923" lon="12.412298"><ele>316.25</ele><time>2026-05-01T09:41:54.916Z</time></trkpt><trkpt lat="42.5559012" lon="12.4124001"><ele>317.0</ele><time>2026-05-01T09:41:55.916Z</time></trkpt><trkpt lat="42.5557965" lon="12.4124924"><ele>317.0</ele><time>2026-05-01T09:41:56.916Z</time></trkpt><trkpt lat="42.5556837" lon="12.4125644"><ele>317.0</ele><time>2026-05-01T09:41:57.916Z</time></trkpt><trkpt lat="42.555568" lon="12.4125999"><ele>317.0</ele><time>2026-05-01T09:41:58.916Z</time></trkpt><trkpt lat="42.5554577" lon="12.4126016"><ele>317.0</ele><time>2026-05-01T09:41:59.915Z</time></trkpt><trkpt lat="42.5553513" lon="12.4125972"><ele>314.8</ele><time>2026-05-01T09:42:00.916Z</time></trkpt><trkpt lat="42.5552569" lon="12.4125875"><ele>312.6</ele><time>2026-05-01T09:42:01.915Z</time></trkpt><trkpt lat="42.5551587" lon="12.4125724"><ele>310.40000000000003</ele><time>2026-05-01T09:42:02.916Z</time></trkpt><trkpt lat="42.55506" lon="12.4125516"><ele>308.2</ele><time>2026-05-01T09:42:03.916Z</time></trkpt><trkpt lat="42.5549589" lon="12.4125268"><ele>306.0</ele><time>2026-05-01T09:42:04.915Z</time></trkpt><trkpt lat="42.5548556" lon="12.4125164"><ele>306.0</ele><time>2026-05-01T09:42:05.915Z</time></trkpt><trkpt lat="42.5547484" lon="12.4125262"><ele>306.0</ele><time>2026-05-01T09:42:06.916Z</time></trkpt><trkpt lat="42.5546481" lon="12.4125846"><ele>306.0</ele><time>2026-05-01T09:42:07.916Z</time></trkpt><trkpt lat="42.5545494" lon="12.412682"><ele>306.0</ele><time>2026-05-01T09:42:08.915Z</time></trkpt><trkpt lat="42.5544745" lon="12.4128182"><ele>305.25</ele><time>2026-05-01T09:42:09.915Z</time></trkpt><trkpt lat="42.5544114" lon="12.4129677"><ele>304.5</ele><time>2026-05-01T09:42:10.916Z</time></trkpt><trkpt lat="42.5543598" lon="12.4131119"><ele>303.75</ele><time>2026-05-01T09:42:11.915Z</time></trkpt><trkpt lat="42.55431" lon="12.4132481"><ele>303.0</ele><time>2026-05-01T09:42:12.916Z</time></trkpt><trkpt lat="42.5542653" lon="12.4133793"><ele>305.2</ele><time>2026-05-01T09:42:13.916Z</time></trkpt><trkpt lat="42.5542251" lon="12.4135124"><ele>307.4</ele><time>2026-05-01T09:42:14.916Z</time></trkpt><trkpt lat="42.554184" lon="12.4136409"><ele>309.59999999999997</ele><time>2026-05-01T09:42:15.916Z</time></trkpt><trkpt lat="42.5541431" lon="12.4137664"><ele>311.8</ele><time>2026-05-01T09:42:16.916Z</time></trkpt><trkpt lat="42.5541023" lon="12.4138947"><ele>314.0</ele><time>2026-05-01T09:42:17.916Z</time></trkpt><trkpt lat="42.5540646" lon="12.4140234"><ele>314.8</ele><time>2026-05-01T09:42:18.915Z</time></trkpt><trkpt lat="42.5540265" lon="12.4141603"><ele>315.59999999999997</ele><time>2026-05-01T09:42:19.915Z</time></trkpt><trkpt lat="42.5539847" lon="12.414297"><ele>316.4</ele><time>2026-05-01T09:42:20.916Z</time></trkpt><trkpt lat="42.5539458" lon="12.4144488"><ele>317.2</ele><time>2026-05-01T09:42:21.916Z</time></trkpt><trkpt lat="42.5539021" lon="12.414591"><ele>318.0</ele><time>2026-05-01T09:42:22.915Z</time></trkpt><trkpt lat="42.5538638" lon="12.414737"><ele>317.4</ele><time>2026-05-01T09:42:23.915Z</time></trkpt><trkpt lat="42.5538192" lon="12.4148796"><ele>316.8</ele><time>2026-05-01T09:42:24.916Z</time></trkpt><trkpt lat="42.5537759" lon="12.4150125"><ele>316.2</ele><time>2026-05-01T09:42:25.916Z</time></trkpt><trkpt lat="42.5537333" lon="12.4151416"><ele>315.6</ele><time>2026-05-01T09:42:26.916Z</time></trkpt><trkpt lat="42.553694" lon="12.4152642"><ele>315.0</ele><time>2026-05-01T09:42:27.916Z</time></trkpt><trkpt lat="42.553658" lon="12.4153719"><ele>315.0</ele><time>2026-05-01T09:42:28.915Z</time></trkpt><trkpt lat="42.5536191" lon="12.4154757"><ele>315.0</ele><time>2026-05-01T09:42:29.915Z</time></trkpt><trkpt lat="42.5535862" lon="12.4155816"><ele>315.0</ele><time>2026-05-01T09:42:30.915Z</time></trkpt><trkpt lat="42.5535486" lon="12.4156928"><ele>315.0</ele><time>2026-05-01T09:42:31.916Z</time></trkpt><trkpt lat="42.5535242" lon="12.4157957"><ele>315.0</ele><time>2026-05-01T09:42:32.916Z</time></trkpt><trkpt lat="42.5534953" lon="12.4158941"><ele>315.0</ele><time>2026-05-01T09:42:33.915Z</time></trkpt><trkpt lat="42.5534658" lon="12.4159791"><ele>316.8</ele><time>2026-05-01T09:42:34.915Z</time></trkpt><trkpt lat="42.5534256" lon="12.4161256"><ele>318.6</ele><time>2026-05-01T09:42:36.916Z</time></trkpt><trkpt lat="42.5534057" lon="12.4162485"><ele>320.4</ele><time>2026-05-01T09:42:38.916Z</time></trkpt><trkpt lat="42.5533899" lon="12.4163562"><ele>322.2</ele><time>2026-05-01T09:42:40.916Z</time></trkpt><trkpt lat="42.5533892" lon="12.4164892"><ele>324.0</ele><time>2026-05-01T09:42:42.916Z</time></trkpt><trkpt lat="42.553398" lon="12.4166159"><ele>325.0</ele><time>2026-05-01T09:42:44.916Z</time></trkpt><trkpt lat="42.553422" lon="12.4167333"><ele>326.0</ele><time>2026-05-01T09:42:47.916Z</time></trkpt><trkpt lat="42.5534557" lon="12.4168466"><ele>327.0</ele><time>2026-05-01T09:42:49.916Z</time></trkpt><trkpt lat="42.5534822" lon="12.4169717"><ele>328.0</ele><time>2026-05-01T09:42:51.916Z</time></trkpt><trkpt lat="42.5535016" lon="12.417105"><ele>329.0</ele><time>2026-05-01T09:42:53.916Z</time></trkpt><trkpt lat="42.5535324" lon="12.4172328"><ele>329.1666666666667</ele><time>2026-05-01T09:42:55.916Z</time></trkpt><trkpt lat="42.5535623" lon="12.4173511"><ele>329.33333333333337</ele><time>2026-05-01T09:42:57.916Z</time></trkpt><trkpt lat="42.5535826" lon="12.4174677"><ele>329.5</ele><time>2026-05-01T09:42:59.916Z</time></trkpt><trkpt lat="42.5536142" lon="12.4175824"><ele>329.6666666666667</ele><time>2026-05-01T09:43:01.916Z</time></trkpt><trkpt lat="42.5536388" lon="12.4176643"><ele>329.8333333333333</ele><time>2026-05-01T09:43:03.916Z</time></trkpt><trkpt lat="42.5537016" lon="12.4177716"><ele>330.0</ele><time>2026-05-01T09:43:05.916Z</time></trkpt><trkpt lat="42.5537681" lon="12.4179076"><ele>330.3333333333333</ele><time>2026-05-01T09:43:07.915Z</time></trkpt><trkpt lat="42.5538382" lon="12.4180198"><ele>330.6666666666667</ele><time>2026-05-01T09:43:09.915Z</time></trkpt><trkpt lat="42.5539133" lon="12.4181227"><ele>331.0</ele><time>2026-05-01T09:43:11.915Z</time></trkpt><trkpt lat="42.5539521" lon="12.4181963"><ele>331.33333333333337</ele><time>2026-05-01T09:43:12.916Z</time></trkpt><trkpt lat="42.5540004" lon="12.4182804"><ele>331.6666666666667</ele><time>2026-05-01T09:43:13.916Z</time></trkpt><trkpt lat="42.5540431" lon="12.418373"><ele>332.0</ele><time>2026-05-01T09:43:14.916Z</time></trkpt><trkpt lat="42.5540849" lon="12.4184713"><ele>332.0</ele><time>2026-05-01T09:43:15.916Z</time></trkpt><trkpt lat="42.554127" lon="12.4185799"><ele>332.0</ele><time>2026-05-01T09:43:16.915Z</time></trkpt><trkpt lat="42.5541639" lon="12.418697"><ele>332.0</ele><time>2026-05-01T09:43:17.916Z</time></trkpt><trkpt lat="42.5541976" lon="12.4188292"><ele>332.0</ele><time>2026-05-01T09:43:18.916Z</time></trkpt><trkpt lat="42.5542143" lon="12.4189675"><ele>332.0</ele><time>2026-05-01T09:43:19.915Z</time></trkpt><trkpt lat="42.5542229" lon="12.4191131"><ele>332.20000000000005</ele><time>2026-05-01T09:43:20.916Z</time></trkpt><trkpt lat="42.554229" lon="12.4192574"><ele>332.4</ele><time>2026-05-01T09:43:21.915Z</time></trkpt><trkpt lat="42.5542218" lon="12.4194139"><ele>332.6</ele><time>2026-05-01T09:43:22.915Z</time></trkpt><trkpt lat="42.5542144" lon="12.4195702"><ele>332.79999999999995</ele><time>2026-05-01T09:43:23.916Z</time></trkpt><trkpt lat="42.5542089" lon="12.4197176"><ele>333.0</ele><time>2026-05-01T09:43:24.916Z</time></trkpt><trkpt lat="42.5541934" lon="12.4198745"><ele>333.25</ele><time>2026-05-01T09:43:25.915Z</time></trkpt><trkpt lat="42.5541724" lon="12.4200421"><ele>333.5</ele><time>2026-05-01T09:43:26.916Z</time></trkpt><trkpt lat="42.5541488" lon="12.4202103"><ele>333.75</ele><time>2026-05-01T09:43:27.916Z</time></trkpt><trkpt lat="42.5541145" lon="12.4203752"><ele>334.0</ele><time>2026-05-01T09:43:28.916Z</time></trkpt><trkpt lat="42.5540832" lon="12.4205224"><ele>334.0</ele><time>2026-05-01T09:43:29.916Z</time></trkpt><trkpt lat="42.5540494" lon="12.4206666"><ele>334.0</ele><time>2026-05-01T09:43:30.916Z</time></trkpt><trkpt lat="42.5540172" lon="12.4207879"><ele>334.0</ele><time>2026-05-01T09:43:31.915Z</time></trkpt><trkpt lat="42.5539863" lon="12.4209149"><ele>334.0</ele><time>2026-05-01T09:43:32.916Z</time></trkpt><trkpt lat="42.5539511" lon="12.4209987"><ele>334.0</ele><time>2026-05-01T09:43:33.915Z</time></trkpt><trkpt lat="42.5539385" lon="12.4211084"><ele>334.0</ele><time>2026-05-01T09:43:40.916Z</time></trkpt><trkpt lat="42.5539112" lon="12.4211859"><ele>334.0</ele><time>2026-05-01T09:43:41.916Z</time></trkpt><trkpt lat="42.5538868" lon="12.4212938"><ele>334.0</ele><time>2026-05-01T09:43:42.915Z</time></trkpt><trkpt lat="42.5538727" lon="12.4214063"><ele>334.0</ele><time>2026-05-01T09:43:43.916Z</time></trkpt><trkpt lat="42.5538552" lon="12.4215333"><ele>334.0</ele><time>2026-05-01T09:43:44.915Z</time></trkpt><trkpt lat="42.5538343" lon="12.4216657"><ele>334.0</ele><time>2026-05-01T09:43:45.916Z</time></trkpt><trkpt lat="42.5538105" lon="12.4218081"><ele>334.0</ele><time>2026-05-01T09:43:46.915Z</time></trkpt><trkpt lat="42.5537833" lon="12.4219629"><ele>334.0</ele><time>2026-05-01T09:43:47.916Z</time></trkpt><trkpt lat="42.553763" lon="12.4221215"><ele>334.0</ele><time>2026-05-01T09:43:48.916Z</time></trkpt><trkpt lat="42.5537465" lon="12.4222859"><ele>334.0</ele><time>2026-05-01T09:43:49.916Z</time></trkpt><trkpt lat="42.5537494" lon="12.4224407"><ele>333.75</ele><time>2026-05-01T09:43:50.915Z</time></trkpt><trkpt lat="42.5537603" lon="12.4225913"><ele>333.5</ele><time>2026-05-01T09:43:51.916Z</time></trkpt><trkpt lat="42.5537812" lon="12.4227412"><ele>333.25</ele><time>2026-05-01T09:43:52.916Z</time></trkpt><trkpt lat="42.5538237" lon="12.4228842"><ele>333.0</ele><time>2026-05-01T09:43:53.916Z</time></trkpt><trkpt lat="42.5538794" lon="12.4230246"><ele>335.0</ele><time>2026-05-01T09:43:54.916Z</time></trkpt><trkpt lat="42.5539392" lon="12.4231538"><ele>337.0</ele><time>2026-05-01T09:43:55.916Z</time></trkpt><trkpt lat="42.5539863" lon="12.4233016"><ele>339.0</ele><time>2026-05-01T09:43:56.915Z</time></trkpt><trkpt lat="42.5540532" lon="12.4234406"><ele>341.0</ele><time>2026-05-01T09:43:57.916Z</time></trkpt><trkpt lat="42.5541501" lon="12.4235495"><ele>341.0</ele><time>2026-05-01T09:43:58.916Z</time></trkpt><trkpt lat="42.5542586" lon="12.4236382"><ele>341.0</ele><time>2026-05-01T09:43:59.916Z</time></trkpt><trkpt lat="42.5543759" lon="12.423715"><ele>341.0</ele><time>2026-05-01T09:44:00.915Z</time></trkpt><trkpt lat="42.5544974" lon="12.4237985"><ele>341.0</ele><time>2026-05-01T09:44:01.916Z</time></trkpt><trkpt lat="42.5546083" lon="12.4239105"><ele>341.5</ele><time>2026-05-01T09:44:02.916Z</time></trkpt><trkpt lat="42.5546993" lon="12.4240519"><ele>342.0</ele><time>2026-05-01T09:44:03.916Z</time></trkpt><trkpt lat="42.5547726" lon="12.424212"><ele>342.5</ele><time>2026-05-01T09:44:04.915Z</time></trkpt><trkpt lat="42.5548302" lon="12.4243734"><ele>343.0</ele><time>2026-05-01T09:44:05.916Z</time></trkpt><trkpt lat="42.5548894" lon="12.4245475"><ele>345.66666666666663</ele><time>2026-05-01T09:44:06.915Z</time></trkpt><trkpt lat="42.554955" lon="12.4247341"><ele>348.3333333333333</ele><time>2026-05-01T09:44:07.916Z</time></trkpt><trkpt lat="42.55502" lon="12.424923"><ele>351.0</ele><time>2026-05-01T09:44:08.915Z</time></trkpt><trkpt lat="42.5551023" lon="12.4251222"><ele>351.0</ele><time>2026-05-01T09:44:09.916Z</time></trkpt><trkpt lat="42.5551634" lon="12.42531"><ele>351.0</ele><time>2026-05-01T09:44:10.916Z</time></trkpt><trkpt lat="42.5552229" lon="12.4255073"><ele>351.0</ele><time>2026-05-01T09:44:11.915Z</time></trkpt><trkpt lat="42.5552659" lon="12.4257054"><ele>352.6666666666667</ele><time>2026-05-01T09:44:12.916Z</time></trkpt><trkpt lat="42.5552938" lon="12.4259073"><ele>354.33333333333337</ele><time>2026-05-01T09:44:13.915Z</time></trkpt><trkpt lat="42.5553076" lon="12.4261144"><ele>356.0</ele><time>2026-05-01T09:44:14.915Z</time></trkpt><trkpt lat="42.5553176" lon="12.4263203"><ele>356.0</ele><time>2026-05-01T09:44:15.916Z</time></trkpt><trkpt lat="42.555327" lon="12.4265321"><ele>356.0</ele><time>2026-05-01T09:44:16.915Z</time></trkpt><trkpt lat="42.5553462" lon="12.4267485"><ele>356.0</ele><time>2026-05-01T09:44:17.916Z</time></trkpt><trkpt lat="42.5553621" lon="12.4269645"><ele>354.0</ele><time>2026-05-01T09:44:18.916Z</time></trkpt><trkpt lat="42.55538" lon="12.4271807"><ele>352.0</ele><time>2026-05-01T09:44:19.915Z</time></trkpt><trkpt lat="42.5553917" lon="12.4273784"><ele>350.0</ele><time>2026-05-01T09:44:20.915Z</time></trkpt><trkpt lat="42.5554044" lon="12.4275593"><ele>348.0</ele><time>2026-05-01T09:44:21.916Z</time></trkpt><trkpt lat="42.5554129" lon="12.4277188"><ele>348.0</ele><time>2026-05-01T09:44:22.916Z</time></trkpt><trkpt lat="42.5554194" lon="12.4278772"><ele>348.0</ele><time>2026-05-01T09:44:23.916Z</time></trkpt><trkpt lat="42.5554239" lon="12.4280404"><ele>348.0</ele><time>2026-05-01T09:44:24.916Z</time></trkpt><trkpt lat="42.5554119" lon="12.4282093"><ele>348.0</ele><time>2026-05-01T09:44:25.916Z</time></trkpt><trkpt lat="42.5553894" lon="12.4283759"><ele>349.79999999999995</ele><time>2026-05-01T09:44:26.916Z</time></trkpt><trkpt lat="42.5553675" lon="12.4285259"><ele>351.6</ele><time>2026-05-01T09:44:27.916Z</time></trkpt><trkpt lat="42.5553518" lon="12.4286633"><ele>353.4</ele><time>2026-05-01T09:44:28.915Z</time></trkpt><trkpt lat="42.5553366" lon="12.4288024"><ele>355.20000000000005</ele><time>2026-05-01T09:44:29.916Z</time></trkpt><trkpt lat="42.5553189" lon="12.4289425"><ele>357.0</ele><time>2026-05-01T09:44:30.915Z</time></trkpt><trkpt lat="42.5553042" lon="12.4290868"><ele>357.0</ele><time>2026-05-01T09:44:31.915Z</time></trkpt><trkpt lat="42.5552962" lon="12.4292507"><ele>357.0</ele><time>2026-05-01T09:44:32.915Z</time></trkpt><trkpt lat="42.5552935" lon="12.4294313"><ele>357.0</ele><time>2026-05-01T09:44:33.916Z</time></trkpt><trkpt lat="42.5552947" lon="12.4296015"><ele>357.0</ele><time>2026-05-01T09:44:34.916Z</time></trkpt><trkpt lat="42.5553092" lon="12.4297733"><ele>356.5</ele><time>2026-05-01T09:44:35.916Z</time></trkpt><trkpt lat="42.5553374" lon="12.4299592"><ele>356.0</ele><time>2026-05-01T09:44:36.916Z</time></trkpt><trkpt lat="42.5553798" lon="12.4301395"><ele>355.5</ele><time>2026-05-01T09:44:37.916Z</time></trkpt><trkpt lat="42.5554068" lon="12.4303114"><ele>355.0</ele><time>2026-05-01T09:44:38.916Z</time></trkpt><trkpt lat="42.5554293" lon="12.4304819"><ele>354.5</ele><time>2026-05-01T09:44:39.916Z</time></trkpt><trkpt lat="42.5554611" lon="12.4306498"><ele>354.0</ele><time>2026-05-01T09:44:40.916Z</time></trkpt><trkpt lat="42.5555009" lon="12.4308071"><ele>353.5</ele><time>2026-05-01T09:44:41.916Z</time></trkpt><trkpt lat="42.5555561" lon="12.4309672"><ele>353.0</ele><time>2026-05-01T09:44:42.916Z</time></trkpt><trkpt lat="42.5556234" lon="12.4311257"><ele>353.0</ele><time>2026-05-01T09:44:43.916Z</time></trkpt><trkpt lat="42.555704" lon="12.4312832"><ele>353.0</ele><time>2026-05-01T09:44:44.915Z</time></trkpt><trkpt lat="42.5557966" lon="12.4314253"><ele>353.0</ele><time>2026-05-01T09:44:45.915Z</time></trkpt><trkpt lat="42.5559007" lon="12.4315495"><ele>353.0</ele><time>2026-05-01T09:44:46.916Z</time></trkpt><trkpt lat="42.5559904" lon="12.431676"><ele>353.5</ele><time>2026-05-01T09:44:47.915Z</time></trkpt><trkpt lat="42.5560941" lon="12.4318099"><ele>354.0</ele><time>2026-05-01T09:44:48.916Z</time></trkpt><trkpt lat="42.5561944" lon="12.4319467"><ele>354.5</ele><time>2026-05-01T09:44:49.915Z</time></trkpt><trkpt lat="42.5562967" lon="12.4320944"><ele>355.0</ele><time>2026-05-01T09:44:50.915Z</time></trkpt><trkpt lat="42.556402" lon="12.4322305"><ele>355.25</ele><time>2026-05-01T09:44:51.915Z</time></trkpt><trkpt lat="42.5565165" lon="12.4323383"><ele>355.5</ele><time>2026-05-01T09:44:52.916Z</time></trkpt><trkpt lat="42.5566425" lon="12.4324219"><ele>355.75</ele><time>2026-05-01T09:44:53.915Z</time></trkpt><trkpt lat="42.5567686" lon="12.4324952"><ele>356.0</ele><time>2026-05-01T09:44:54.915Z</time></trkpt><trkpt lat="42.5568939" lon="12.4325911"><ele>356.0</ele><time>2026-05-01T09:44:55.916Z</time></trkpt><trkpt lat="42.5570101" lon="12.4326927"><ele>356.0</ele><time>2026-05-01T09:44:56.916Z</time></trkpt><trkpt lat="42.5571173" lon="12.4327999"><ele>356.0</ele><time>2026-05-01T09:44:57.916Z</time></trkpt><trkpt lat="42.5572147" lon="12.4329008"><ele>356.0</ele><time>2026-05-01T09:44:58.916Z</time></trkpt><trkpt lat="42.5572922" lon="12.4330022"><ele>356.8</ele><time>2026-05-01T09:44:59.915Z</time></trkpt><trkpt lat="42.5573483" lon="12.4331147"><ele>357.6</ele><time>2026-05-01T09:45:00.916Z</time></trkpt><trkpt lat="42.5573909" lon="12.4332215"><ele>358.4</ele><time>2026-05-01T09:45:01.915Z</time></trkpt><trkpt lat="42.5574301" lon="12.4333339"><ele>359.2</ele><time>2026-05-01T09:45:02.916Z</time></trkpt><trkpt lat="42.5574744" lon="12.4334516"><ele>360.0</ele><time>2026-05-01T09:45:03.915Z</time></trkpt><trkpt lat="42.5575257" lon="12.4335769"><ele>360.0</ele><time>2026-05-01T09:45:04.916Z</time></trkpt><trkpt lat="42.5575806" lon="12.4337239"><ele>360.0</ele><time>2026-05-01T09:45:05.916Z</time></trkpt><trkpt lat="42.5576386" lon="12.4338686"><ele>360.0</ele><time>2026-05-01T09:45:06.915Z</time></trkpt><trkpt lat="42.5577137" lon="12.4340333"><ele>360.0</ele><time>2026-05-01T09:45:07.916Z</time></trkpt><trkpt lat="42.5578088" lon="12.4341923"><ele>360.6666666666667</ele><time>2026-05-01T09:45:08.916Z</time></trkpt><trkpt lat="42.5579033" lon="12.4343639"><ele>361.33333333333337</ele><time>2026-05-01T09:45:09.915Z</time></trkpt><trkpt lat="42.5579972" lon="12.4345506"><ele>362.0</ele><time>2026-05-01T09:45:10.915Z</time></trkpt><trkpt lat="42.5580741" lon="12.434757"><ele>362.0</ele><time>2026-05-01T09:45:11.916Z</time></trkpt><trkpt lat="42.5581363" lon="12.4349704"><ele>362.0</ele><time>2026-05-01T09:45:12.915Z</time></trkpt><trkpt lat="42.5581796" lon="12.4351974"><ele>362.0</ele><time>2026-05-01T09:45:13.916Z</time></trkpt><trkpt lat="42.558198" lon="12.4354309"><ele>362.0</ele><time>2026-05-01T09:45:14.916Z</time></trkpt><trkpt lat="42.5582137" lon="12.4356609"><ele>362.0</ele><time>2026-05-01T09:45:15.916Z</time></trkpt><trkpt lat="42.558232" lon="12.4359114"><ele>362.0</ele><time>2026-05-01T09:45:16.915Z</time></trkpt><trkpt lat="42.5582566" lon="12.4361608"><ele>359.6666666666667</ele><time>2026-05-01T09:45:17.916Z</time></trkpt><trkpt lat="42.5582811" lon="12.4364161"><ele>357.3333333333333</ele><time>2026-05-01T09:45:18.916Z</time></trkpt><trkpt lat="42.5583053" lon="12.4366663"><ele>355.0</ele><time>2026-05-01T09:45:19.916Z</time></trkpt><trkpt lat="42.5583189" lon="12.4369027"><ele>355.3333333333333</ele><time>2026-05-01T09:45:20.916Z</time></trkpt><trkpt lat="42.5583148" lon="12.437141"><ele>355.6666666666667</ele><time>2026-05-01T09:45:21.916Z</time></trkpt><trkpt lat="42.5582778" lon="12.4373988"><ele>356.0</ele><time>2026-05-01T09:45:22.916Z</time></trkpt><trkpt lat="42.5582296" lon="12.4376587"><ele>356.0</ele><time>2026-05-01T09:45:23.915Z</time></trkpt><trkpt lat="42.5581775" lon="12.4379184"><ele>356.0</ele><time>2026-05-01T09:45:24.915Z</time></trkpt><trkpt lat="42.5581265" lon="12.4381764"><ele>356.0</ele><time>2026-05-01T09:45:25.915Z</time></trkpt><trkpt lat="42.5580677" lon="12.4384405"><ele>356.33333333333337</ele><time>2026-05-01T09:45:26.916Z</time></trkpt><trkpt lat="42.5580196" lon="12.4386933"><ele>356.6666666666667</ele><time>2026-05-01T09:45:27.916Z</time></trkpt><trkpt lat="42.557965" lon="12.4389345"><ele>357.0</ele><time>2026-05-01T09:45:28.915Z</time></trkpt><trkpt lat="42.5578878" lon="12.4391441"><ele>356.3333333333333</ele><time>2026-05-01T09:45:29.916Z</time></trkpt><trkpt lat="42.5577904" lon="12.4393544"><ele>355.66666666666663</ele><time>2026-05-01T09:45:30.915Z</time></trkpt><trkpt lat="42.5576537" lon="12.4395298"><ele>355.0</ele><time>2026-05-01T09:45:31.916Z</time></trkpt><trkpt lat="42.5575002" lon="12.4397043"><ele>355.0</ele><time>2026-05-01T09:45:32.915Z</time></trkpt><trkpt lat="42.5573543" lon="12.4398778"><ele>355.0</ele><time>2026-05-01T09:45:33.916Z</time></trkpt><trkpt lat="42.557195" lon="12.4400664"><ele>355.0</ele><time>2026-05-01T09:45:34.916Z</time></trkpt><trkpt lat="42.5570306" lon="12.4402613"><ele>353.66666666666663</ele><time>2026-05-01T09:45:35.916Z</time></trkpt><trkpt lat="42.5568701" lon="12.4404501"><ele>352.3333333333333</ele><time>2026-05-01T09:45:36.915Z</time></trkpt><trkpt lat="42.5566972" lon="12.4406234"><ele>351.0</ele><time>2026-05-01T09:45:37.915Z</time></trkpt><trkpt lat="42.5565109" lon="12.440781"><ele>351.0</ele><time>2026-05-01T09:45:38.916Z</time></trkpt><trkpt lat="42.5563215" lon="12.4409324"><ele>351.0</ele><time>2026-05-01T09:45:39.916Z</time></trkpt><trkpt lat="42.5561289" lon="12.4410826"><ele>351.0</ele><time>2026-05-01T09:45:40.916Z</time></trkpt><trkpt lat="42.5559359" lon="12.441244"><ele>350.6666666666667</ele><time>2026-05-01T09:45:41.916Z</time></trkpt><trkpt lat="42.5557473" lon="12.4413968"><ele>350.33333333333337</ele><time>2026-05-01T09:45:42.916Z</time></trkpt><trkpt lat="42.5555564" lon="12.4415548"><ele>350.0</ele><time>2026-05-01T09:45:43.916Z</time></trkpt><trkpt lat="42.5553676" lon="12.4417097"><ele>350.6666666666667</ele><time>2026-05-01T09:45:44.915Z</time></trkpt><trkpt lat="42.5551736" lon="12.4418651"><ele>351.3333333333333</ele><time>2026-05-01T09:45:45.915Z</time></trkpt><trkpt lat="42.554986" lon="12.4420147"><ele>352.0</ele><time>2026-05-01T09:45:46.916Z</time></trkpt><trkpt lat="42.5548078" lon="12.4421621"><ele>352.0</ele><time>2026-05-01T09:45:47.916Z</time></trkpt><trkpt lat="42.5546373" lon="12.4422973"><ele>352.0</ele><time>2026-05-01T09:45:48.915Z</time></trkpt><trkpt lat="42.5544872" lon="12.4424132"><ele>352.0</ele><time>2026-05-01T09:45:49.915Z</time></trkpt><trkpt lat="42.5543113" lon="12.4424841"><ele>347.0</ele><time>2026-05-01T09:45:50.916Z</time></trkpt><trkpt lat="42.5541426" lon="12.4425231"><ele>342.0</ele><time>2026-05-01T09:45:51.916Z</time></trkpt><trkpt lat="42.5539625" lon="12.4425238"><ele>337.0</ele><time>2026-05-01T09:45:52.915Z</time></trkpt><trkpt lat="42.5537717" lon="12.4424704"><ele>335.0</ele><time>2026-05-01T09:45:53.916Z</time></trkpt><trkpt lat="42.5535942" lon="12.4423655"><ele>333.0</ele><time>2026-05-01T09:45:54.915Z</time></trkpt><trkpt lat="42.5534206" lon="12.4422575"><ele>331.0</ele><time>2026-05-01T09:45:55.915Z</time></trkpt><trkpt lat="42.55326" lon="12.442152"><ele>328.75</ele><time>2026-05-01T09:45:56.915Z</time></trkpt><trkpt lat="42.5531176" lon="12.4420568"><ele>326.5</ele><time>2026-05-01T09:45:57.916Z</time></trkpt><trkpt lat="42.5529981" lon="12.4419851"><ele>324.25</ele><time>2026-05-01T09:45:58.916Z</time></trkpt><trkpt lat="42.5528768" lon="12.4419273"><ele>322.0</ele><time>2026-05-01T09:45:59.915Z</time></trkpt><trkpt lat="42.5527623" lon="12.4419161"><ele>322.0</ele><time>2026-05-01T09:46:00.915Z</time></trkpt><trkpt lat="42.5526484" lon="12.4419531"><ele>322.0</ele><time>2026-05-01T09:46:01.915Z</time></trkpt><trkpt lat="42.5525392" lon="12.4420241"><ele>322.0</ele><time>2026-05-01T09:46:02.916Z</time></trkpt><trkpt lat="42.5524434" lon="12.4421445"><ele>322.0</ele><time>2026-05-01T09:46:03.915Z</time></trkpt><trkpt lat="42.5523627" lon="12.4422897"><ele>322.0</ele><time>2026-05-01T09:46:04.916Z</time></trkpt><trkpt lat="42.5522953" lon="12.4424749"><ele>322.0</ele><time>2026-05-01T09:46:05.915Z</time></trkpt><trkpt lat="42.5522218" lon="12.4426877"><ele>322.0</ele><time>2026-05-01T09:46:06.916Z</time></trkpt><trkpt lat="42.5521568" lon="12.4429001"><ele>323.5</ele><time>2026-05-01T09:46:07.916Z</time></trkpt><trkpt lat="42.5520806" lon="12.4430795"><ele>325.0</ele><time>2026-05-01T09:46:08.916Z</time></trkpt><trkpt lat="42.5520086" lon="12.4432425"><ele>326.5</ele><time>2026-05-01T09:46:09.916Z</time></trkpt><trkpt lat="42.5519338" lon="12.4433987"><ele>328.0</ele><time>2026-05-01T09:46:10.915Z</time></trkpt><trkpt lat="42.551859" lon="12.4435429"><ele>326.25</ele><time>2026-05-01T09:46:11.916Z</time></trkpt><trkpt lat="42.5517815" lon="12.4436808"><ele>324.5</ele><time>2026-05-01T09:46:12.916Z</time></trkpt><trkpt lat="42.551692" lon="12.4438158"><ele>322.75</ele><time>2026-05-01T09:46:13.916Z</time></trkpt><trkpt lat="42.5515892" lon="12.4439547"><ele>321.0</ele><time>2026-05-01T09:46:14.915Z</time></trkpt><trkpt lat="42.5514762" lon="12.4440912"><ele>321.0</ele><time>2026-05-01T09:46:15.916Z</time></trkpt><trkpt lat="42.5513741" lon="12.4442178"><ele>321.0</ele><time>2026-05-01T09:46:16.916Z</time></trkpt><trkpt lat="42.5512768" lon="12.4443272"><ele>321.0</ele><time>2026-05-01T09:46:17.916Z</time></trkpt><trkpt lat="42.5512072" lon="12.4444462"><ele>321.0</ele><time>2026-05-01T09:46:18.916Z</time></trkpt><trkpt lat="42.5511663" lon="12.4445699"><ele>322.5</ele><time>2026-05-01T09:46:19.916Z</time></trkpt><trkpt lat="42.551157" lon="12.4447092"><ele>324.0</ele><time>2026-05-01T09:46:20.916Z</time></trkpt><trkpt lat="42.5511818" lon="12.4448644"><ele>325.5</ele><time>2026-05-01T09:46:21.916Z</time></trkpt><trkpt lat="42.5512141" lon="12.4450355"><ele>327.0</ele><time>2026-05-01T09:46:22.916Z</time></trkpt><trkpt lat="42.5512337" lon="12.4452241"><ele>327.0</ele><time>2026-05-01T09:46:23.915Z</time></trkpt><trkpt lat="42.551249" lon="12.4454123"><ele>327.0</ele><time>2026-05-01T09:46:24.916Z</time></trkpt><trkpt lat="42.5512478" lon="12.4456108"><ele>327.0</ele><time>2026-05-01T09:46:25.916Z</time></trkpt><trkpt lat="42.5512315" lon="12.4458188"><ele>327.0</ele><time>2026-05-01T09:46:26.916Z</time></trkpt><trkpt lat="42.5512171" lon="12.4460289"><ele>324.5</ele><time>2026-05-01T09:46:27.915Z</time></trkpt><trkpt lat="42.5512142" lon="12.4462191"><ele>322.0</ele><time>2026-05-01T09:46:28.916Z</time></trkpt><trkpt lat="42.5512151" lon="12.4463987"><ele>319.5</ele><time>2026-05-01T09:46:29.916Z</time></trkpt><trkpt lat="42.551222" lon="12.4465703"><ele>317.0</ele><time>2026-05-01T09:46:30.916Z</time></trkpt><trkpt lat="42.55123" lon="12.4467333"><ele>314.0</ele><time>2026-05-01T09:46:31.916Z</time></trkpt><trkpt lat="42.5512241" lon="12.4468929"><ele>311.0</ele><time>2026-05-01T09:46:32.916Z</time></trkpt><trkpt lat="42.551199" lon="12.4470425"><ele>308.0</ele><time>2026-05-01T09:46:33.916Z</time></trkpt><trkpt lat="42.5511537" lon="12.4471782"><ele>305.0</ele><time>2026-05-01T09:46:34.916Z</time></trkpt><trkpt lat="42.551078" lon="12.4472888"><ele>303.0</ele><time>2026-05-01T09:46:35.916Z</time></trkpt><trkpt lat="42.5509666" lon="12.4473534"><ele>301.0</ele><time>2026-05-01T09:46:36.916Z</time></trkpt><trkpt lat="42.5508568" lon="12.4473726"><ele>299.0</ele><time>2026-05-01T09:46:37.916Z</time></trkpt><trkpt lat="42.550741" lon="12.4473555"><ele>297.0</ele><time>2026-05-01T09:46:38.916Z</time></trkpt><trkpt lat="42.5506118" lon="12.4473315"><ele>297.0</ele><time>2026-05-01T09:46:39.916Z</time></trkpt><trkpt lat="42.5504949" lon="12.4473113"><ele>297.0</ele><time>2026-05-01T09:46:40.916Z</time></trkpt><trkpt lat="42.5503765" lon="12.4472817"><ele>297.0</ele><time>2026-05-01T09:46:41.915Z</time></trkpt><trkpt lat="42.5502542" lon="12.4472591"><ele>297.0</ele><time>2026-05-01T09:46:42.916Z</time></trkpt><trkpt lat="42.5501274" lon="12.4472446"><ele>298.5</ele><time>2026-05-01T09:46:43.915Z</time></trkpt><trkpt lat="42.5499997" lon="12.4472413"><ele>300.0</ele><time>2026-05-01T09:46:44.916Z</time></trkpt><trkpt lat="42.549884" lon="12.4472473"><ele>301.5</ele><time>2026-05-01T09:46:45.915Z</time></trkpt><trkpt lat="42.5497478" lon="12.4472518"><ele>303.0</ele><time>2026-05-01T09:46:46.916Z</time></trkpt><trkpt lat="42.5496196" lon="12.4472793"><ele>302.75</ele><time>2026-05-01T09:46:47.916Z</time></trkpt><trkpt lat="42.5495029" lon="12.4473183"><ele>302.5</ele><time>2026-05-01T09:46:48.915Z</time></trkpt><trkpt lat="42.5493837" lon="12.447369"><ele>302.25</ele><time>2026-05-01T09:46:49.916Z</time></trkpt><trkpt lat="42.5492784" lon="12.4474369"><ele>302.0</ele><time>2026-05-01T09:46:50.916Z</time></trkpt><trkpt lat="42.5491801" lon="12.4475125"><ele>302.0</ele><time>2026-05-01T09:46:51.916Z</time></trkpt><trkpt lat="42.5490889" lon="12.4475974"><ele>302.0</ele><time>2026-05-01T09:46:52.916Z</time></trkpt><trkpt lat="42.5490054" lon="12.4476941"><ele>302.0</ele><time>2026-05-01T09:46:53.916Z</time></trkpt><trkpt lat="42.548922" lon="12.4477931"><ele>302.0</ele><time>2026-05-01T09:46:54.916Z</time></trkpt><trkpt lat="42.548843" lon="12.4478939"><ele>302.0</ele><time>2026-05-01T09:46:55.916Z</time></trkpt><trkpt lat="42.5487563" lon="12.4479963"><ele>303.0</ele><time>2026-05-01T09:46:56.916Z</time></trkpt><trkpt lat="42.5486703" lon="12.4480951"><ele>304.0</ele><time>2026-05-01T09:46:57.915Z</time></trkpt><trkpt lat="42.5485895" lon="12.4482109"><ele>305.0</ele><time>2026-05-01T09:46:58.916Z</time></trkpt><trkpt lat="42.5484996" lon="12.4483212"><ele>306.0</ele><time>2026-05-01T09:46:59.915Z</time></trkpt><trkpt lat="42.5484056" lon="12.4484338"><ele>306.0</ele><time>2026-05-01T09:47:00.915Z</time></trkpt><trkpt lat="42.5483054" lon="12.4485364"><ele>306.0</ele><time>2026-05-01T09:47:01.915Z</time></trkpt><trkpt lat="42.5481999" lon="12.4486269"><ele>306.0</ele><time>2026-05-01T09:47:02.915Z</time></trkpt><trkpt lat="42.5480856" lon="12.4486999"><ele>306.0</ele><time>2026-05-01T09:47:03.916Z</time></trkpt><trkpt lat="42.5479714" lon="12.4487538"><ele>306.75</ele><time>2026-05-01T09:47:04.916Z</time></trkpt><trkpt lat="42.5478567" lon="12.4487905"><ele>307.5</ele><time>2026-05-01T09:47:05.916Z</time></trkpt><trkpt lat="42.5477388" lon="12.4488148"><ele>308.25</ele><time>2026-05-01T09:47:06.916Z</time></trkpt><trkpt lat="42.5476089" lon="12.4488335"><ele>309.0</ele><time>2026-05-01T09:47:07.916Z</time></trkpt><trkpt lat="42.5474718" lon="12.4488174"><ele>309.0</ele><time>2026-05-01T09:47:08.915Z</time></trkpt><trkpt lat="42.5473364" lon="12.4487975"><ele>309.0</ele><time>2026-05-01T09:47:09.915Z</time></trkpt><trkpt lat="42.5472037" lon="12.4487796"><ele>309.0</ele><time>2026-05-01T09:47:10.916Z</time></trkpt><trkpt lat="42.5470822" lon="12.4487596"><ele>309.0</ele><time>2026-05-01T09:47:11.916Z</time></trkpt><trkpt lat="42.5469572" lon="12.448746"><ele>310.0</ele><time>2026-05-01T09:47:12.916Z</time></trkpt><trkpt lat="42.5468341" lon="12.4487336"><ele>311.0</ele><time>2026-05-01T09:47:13.916Z</time></trkpt><trkpt lat="42.546721" lon="12.4487453"><ele>312.0</ele><time>2026-05-01T09:47:14.915Z</time></trkpt><trkpt lat="42.5465918" lon="12.4487988"><ele>313.0</ele><time>2026-05-01T09:47:15.916Z</time></trkpt><trkpt lat="42.546485" lon="12.4488921"><ele>313.4</ele><time>2026-05-01T09:47:16.915Z</time></trkpt><trkpt lat="42.5463983" lon="12.4489983"><ele>313.8</ele><time>2026-05-01T09:47:17.916Z</time></trkpt><trkpt lat="42.5463069" lon="12.4491153"><ele>314.2</ele><time>2026-05-01T09:47:18.916Z</time></trkpt><trkpt lat="42.5462521" lon="12.4492416"><ele>314.6</ele><time>2026-05-01T09:47:19.915Z</time></trkpt><trkpt lat="42.5462012" lon="12.449355"><ele>315.0</ele><time>2026-05-01T09:47:20.916Z</time></trkpt><trkpt lat="42.5461515" lon="12.4494679"><ele>314.4</ele><time>2026-05-01T09:47:21.916Z</time></trkpt><trkpt lat="42.5461105" lon="12.4495699"><ele>313.8</ele><time>2026-05-01T09:47:22.916Z</time></trkpt><trkpt lat="42.5460422" lon="12.4496721"><ele>313.2</ele><time>2026-05-01T09:47:23.916Z</time></trkpt><trkpt lat="42.5459702" lon="12.4497881"><ele>312.6</ele><time>2026-05-01T09:47:24.916Z</time></trkpt><trkpt lat="42.5458933" lon="12.4499162"><ele>312.0</ele><time>2026-05-01T09:47:25.916Z</time></trkpt><trkpt lat="42.5458133" lon="12.4500519"><ele>312.0</ele><time>2026-05-01T09:47:26.916Z</time></trkpt><trkpt lat="42.545742" lon="12.4502044"><ele>312.0</ele><time>2026-05-01T09:47:27.916Z</time></trkpt><trkpt lat="42.5456753" lon="12.4503688"><ele>312.0</ele><time>2026-05-01T09:47:28.916Z</time></trkpt><trkpt lat="42.5456147" lon="12.4505427"><ele>312.0</ele><time>2026-05-01T09:47:29.915Z</time></trkpt><trkpt lat="42.5455596" lon="12.4507223"><ele>312.25</ele><time>2026-05-01T09:47:30.916Z</time></trkpt><trkpt lat="42.5455201" lon="12.4509115"><ele>312.5</ele><time>2026-05-01T09:47:31.915Z</time></trkpt><trkpt lat="42.5454886" lon="12.4510949"><ele>312.75</ele><time>2026-05-01T09:47:32.916Z</time></trkpt><trkpt lat="42.5454589" lon="12.451299"><ele>313.0</ele><time>2026-05-01T09:47:33.916Z</time></trkpt><trkpt lat="42.545426" lon="12.4515108"><ele>314.0</ele><time>2026-05-01T09:47:34.916Z</time></trkpt><trkpt lat="42.5453882" lon="12.4517337"><ele>315.0</ele><time>2026-05-01T09:47:35.915Z</time></trkpt><trkpt lat="42.5453454" lon="12.4519395"><ele>316.0</ele><time>2026-05-01T09:47:36.915Z</time></trkpt><trkpt lat="42.545268" lon="12.4521403"><ele>316.25</ele><time>2026-05-01T09:47:37.916Z</time></trkpt><trkpt lat="42.545196" lon="12.4523188"><ele>316.5</ele><time>2026-05-01T09:47:38.916Z</time></trkpt><trkpt lat="42.545116" lon="12.4524888"><ele>316.75</ele><time>2026-05-01T09:47:39.915Z</time></trkpt><trkpt lat="42.5450393" lon="12.452635"><ele>317.0</ele><time>2026-05-01T09:47:40.916Z</time></trkpt><trkpt lat="42.5449579" lon="12.4527548"><ele>317.0</ele><time>2026-05-01T09:47:41.915Z</time></trkpt><trkpt lat="42.5448616" lon="12.4528624"><ele>317.0</ele><time>2026-05-01T09:47:42.916Z</time></trkpt><trkpt lat="42.5447466" lon="12.4529702"><ele>317.0</ele><time>2026-05-01T09:47:43.916Z</time></trkpt><trkpt lat="42.5446008" lon="12.4530645"><ele>317.0</ele><time>2026-05-01T09:47:44.916Z</time></trkpt><trkpt lat="42.5444454" lon="12.4531317"><ele>318.0</ele><time>2026-05-01T09:47:45.915Z</time></trkpt><trkpt lat="42.5443089" lon="12.4532025"><ele>319.0</ele><time>2026-05-01T09:47:46.916Z</time></trkpt><trkpt lat="42.5441877" lon="12.4532686"><ele>320.0</ele><time>2026-05-01T09:47:47.916Z</time></trkpt><trkpt lat="42.5440722" lon="12.4533309"><ele>321.0</ele><time>2026-05-01T09:47:48.915Z</time></trkpt><trkpt lat="42.5439594" lon="12.4534004"><ele>321.0</ele><time>2026-05-01T09:47:49.916Z</time></trkpt><trkpt lat="42.5438487" lon="12.4534861"><ele>321.0</ele><time>2026-05-01T09:47:50.916Z</time></trkpt><trkpt lat="42.5437538" lon="12.4535999"><ele>321.0</ele><time>2026-05-01T09:47:51.916Z</time></trkpt><trkpt lat="42.5436843" lon="12.4537296"><ele>321.0</ele><time>2026-05-01T09:47:52.915Z</time></trkpt><trkpt lat="42.5436242" lon="12.45385"><ele>321.75</ele><time>2026-05-01T09:47:53.916Z</time></trkpt><trkpt lat="42.5435717" lon="12.4539603"><ele>322.5</ele><time>2026-05-01T09:47:54.916Z</time></trkpt><trkpt lat="42.5435132" lon="12.4540914"><ele>323.25</ele><time>2026-05-01T09:47:55.916Z</time></trkpt><trkpt lat="42.5434462" lon="12.4542375"><ele>324.0</ele><time>2026-05-01T09:47:56.916Z</time></trkpt><trkpt lat="42.543369" lon="12.4543797"><ele>324.0</ele><time>2026-05-01T09:47:57.916Z</time></trkpt><trkpt lat="42.543284" lon="12.4545176"><ele>324.0</ele><time>2026-05-01T09:47:58.915Z</time></trkpt><trkpt lat="42.5431924" lon="12.4546522"><ele>324.0</ele><time>2026-05-01T09:47:59.915Z</time></trkpt><trkpt lat="42.5430932" lon="12.4547744"><ele>324.0</ele><time>2026-05-01T09:48:00.916Z</time></trkpt><trkpt lat="42.5429945" lon="12.4548689"><ele>325.25</ele><time>2026-05-01T09:48:01.916Z</time></trkpt><trkpt lat="42.5428908" lon="12.4549603"><ele>326.5</ele><time>2026-05-01T09:48:02.916Z</time></trkpt><trkpt lat="42.5427822" lon="12.4550511"><ele>327.75</ele><time>2026-05-01T09:48:03.915Z</time></trkpt><trkpt lat="42.5426907" lon="12.455164"><ele>329.0</ele><time>2026-05-01T09:48:04.916Z</time></trkpt><trkpt lat="42.5426101" lon="12.455277"><ele>329.0</ele><time>2026-05-01T09:48:05.915Z</time></trkpt><trkpt lat="42.5425446" lon="12.4553937"><ele>329.0</ele><time>2026-05-01T09:48:06.916Z</time></trkpt><trkpt lat="42.5425009" lon="12.4555099"><ele>329.0</ele><time>2026-05-01T09:48:07.916Z</time></trkpt><trkpt lat="42.5424731" lon="12.4556364"><ele>329.0</ele><time>2026-05-01T09:48:08.916Z</time></trkpt><trkpt lat="42.5424609" lon="12.455772"><ele>329.0</ele><time>2026-05-01T09:48:09.916Z</time></trkpt><trkpt lat="42.5424506" lon="12.4559043"><ele>329.6</ele><time>2026-05-01T09:48:10.916Z</time></trkpt><trkpt lat="42.5424389" lon="12.4560489"><ele>330.2</ele><time>2026-05-01T09:48:11.916Z</time></trkpt><trkpt lat="42.5424245" lon="12.4561891"><ele>330.8</ele><time>2026-05-01T09:48:12.916Z</time></trkpt><trkpt lat="42.5424101" lon="12.4563413"><ele>331.40000000000003</ele><time>2026-05-01T09:48:13.916Z</time></trkpt><trkpt lat="42.5423967" lon="12.4564947"><ele>332.0</ele><time>2026-05-01T09:48:14.915Z</time></trkpt><trkpt lat="42.5423778" lon="12.4566318"><ele>332.20000000000005</ele><time>2026-05-01T09:48:15.916Z</time></trkpt><trkpt lat="42.5423637" lon="12.4567613"><ele>332.4</ele><time>2026-05-01T09:48:16.915Z</time></trkpt><trkpt lat="42.542354" lon="12.456882"><ele>332.6</ele><time>2026-05-01T09:48:17.916Z</time></trkpt><trkpt lat="42.5423598" lon="12.4569987"><ele>332.79999999999995</ele><time>2026-05-01T09:48:18.916Z</time></trkpt><trkpt lat="42.5423842" lon="12.457122"><ele>333.0</ele><time>2026-05-01T09:48:19.915Z</time></trkpt><trkpt lat="42.5424245" lon="12.4572536"><ele>332.0</ele><time>2026-05-01T09:48:20.916Z</time></trkpt><trkpt lat="42.5424872" lon="12.4573746"><ele>331.0</ele><time>2026-05-01T09:48:21.915Z</time></trkpt><trkpt lat="42.5425596" lon="12.4574969"><ele>330.0</ele><time>2026-05-01T09:48:22.916Z</time></trkpt><trkpt lat="42.5426444" lon="12.4576046"><ele>329.0</ele><time>2026-05-01T09:48:23.915Z</time></trkpt><trkpt lat="42.5427359" lon="12.4577025"><ele>329.0</ele><time>2026-05-01T09:48:24.915Z</time></trkpt><trkpt lat="42.5428384" lon="12.4578162"><ele>329.0</ele><time>2026-05-01T09:48:25.916Z</time></trkpt><trkpt lat="42.5429397" lon="12.4579408"><ele>329.0</ele><time>2026-05-01T09:48:26.915Z</time></trkpt><trkpt lat="42.5430312" lon="12.4580615"><ele>329.0</ele><time>2026-05-01T09:48:27.916Z</time></trkpt><trkpt lat="42.543107" lon="12.4581909"><ele>329.75</ele><time>2026-05-01T09:48:28.916Z</time></trkpt><trkpt lat="42.5431604" lon="12.4583386"><ele>330.5</ele><time>2026-05-01T09:48:29.915Z</time></trkpt><trkpt lat="42.5431694" lon="12.4585135"><ele>331.25</ele><time>2026-05-01T09:48:30.916Z</time></trkpt><trkpt lat="42.5431566" lon="12.4587253"><ele>332.0</ele><time>2026-05-01T09:48:31.916Z</time></trkpt><trkpt lat="42.543119" lon="12.4589722"><ele>332.33333333333337</ele><time>2026-05-01T09:48:32.916Z</time></trkpt><trkpt lat="42.5430797" lon="12.4592224"><ele>332.6666666666667</ele><time>2026-05-01T09:48:33.916Z</time></trkpt><trkpt lat="42.5430278" lon="12.4594822"><ele>333.0</ele><time>2026-05-01T09:48:34.916Z</time></trkpt><trkpt lat="42.5429892" lon="12.4597395"><ele>336.0</ele><time>2026-05-01T09:48:35.916Z</time></trkpt><trkpt lat="42.5429459" lon="12.4599834"><ele>339.0</ele><time>2026-05-01T09:48:36.916Z</time></trkpt><trkpt lat="42.5428896" lon="12.4602135"><ele>342.0</ele><time>2026-05-01T09:48:37.915Z</time></trkpt><trkpt lat="42.5428203" lon="12.4604294"><ele>334.6666666666667</ele><time>2026-05-01T09:48:38.915Z</time></trkpt><trkpt lat="42.542744" lon="12.46063"><ele>327.33333333333337</ele><time>2026-05-01T09:48:39.916Z</time></trkpt><trkpt lat="42.542651" lon="12.4608259"><ele>320.0</ele><time>2026-05-01T09:48:40.916Z</time></trkpt><trkpt lat="42.542569" lon="12.4610194"><ele>320.0</ele><time>2026-05-01T09:48:41.915Z</time></trkpt><trkpt lat="42.5424966" lon="12.4612086"><ele>320.0</ele><time>2026-05-01T09:48:42.916Z</time></trkpt><trkpt lat="42.5424188" lon="12.4613801"><ele>320.0</ele><time>2026-05-01T09:48:43.916Z</time></trkpt><trkpt lat="42.5423488" lon="12.4615506"><ele>320.0</ele><time>2026-05-01T09:48:44.915Z</time></trkpt><trkpt lat="42.5422886" lon="12.4617283"><ele>321.75</ele><time>2026-05-01T09:48:45.916Z</time></trkpt><trkpt lat="42.542242" lon="12.4619112"><ele>323.5</ele><time>2026-05-01T09:48:46.916Z</time></trkpt><trkpt lat="42.5422091" lon="12.4620802"><ele>325.25</ele><time>2026-05-01T09:48:47.915Z</time></trkpt><trkpt lat="42.5421646" lon="12.4622422"><ele>327.0</ele><time>2026-05-01T09:48:48.916Z</time></trkpt><trkpt lat="42.5421428" lon="12.4623992"><ele>328.25</ele><time>2026-05-01T09:48:49.915Z</time></trkpt><trkpt lat="42.5421166" lon="12.4625539"><ele>329.5</ele><time>2026-05-01T09:48:50.916Z</time></trkpt><trkpt lat="42.5420888" lon="12.4627223"><ele>330.75</ele><time>2026-05-01T09:48:51.917Z</time></trkpt><trkpt lat="42.5420522" lon="12.4629186"><ele>332.0</ele><time>2026-05-01T09:48:52.917Z</time></trkpt><trkpt lat="42.5419899" lon="12.4631367"><ele>324.6666666666667</ele><time>2026-05-01T09:48:53.917Z</time></trkpt><trkpt lat="42.5419194" lon="12.4633982"><ele>317.3333333333333</ele><time>2026-05-01T09:48:54.916Z</time></trkpt><trkpt lat="42.5418364" lon="12.4636609"><ele>310.0</ele><time>2026-05-01T09:48:55.917Z</time></trkpt><trkpt lat="42.541756" lon="12.4639306"><ele>310.0</ele><time>2026-05-01T09:48:56.917Z</time></trkpt><trkpt lat="42.5416666" lon="12.4642045"><ele>310.0</ele><time>2026-05-01T09:48:57.917Z</time></trkpt><trkpt lat="42.5415785" lon="12.4644872"><ele>310.0</ele><time>2026-05-01T09:48:58.917Z</time></trkpt><trkpt lat="42.5414684" lon="12.4647687"><ele>311.0</ele><time>2026-05-01T09:48:59.916Z</time></trkpt><trkpt lat="42.541355" lon="12.4650454"><ele>312.0</ele><time>2026-05-01T09:49:00.917Z</time></trkpt><trkpt lat="42.5412473" lon="12.4652841"><ele>313.0</ele><time>2026-05-01T09:49:01.917Z</time></trkpt><trkpt lat="42.5411475" lon="12.4655038"><ele>310.0</ele><time>2026-05-01T09:49:02.917Z</time></trkpt><trkpt lat="42.5410796" lon="12.4657061"><ele>307.0</ele><time>2026-05-01T09:49:03.917Z</time></trkpt><trkpt lat="42.5410382" lon="12.4659266"><ele>304.0</ele><time>2026-05-01T09:49:04.916Z</time></trkpt><trkpt lat="42.5410131" lon="12.4661599"><ele>307.66666666666663</ele><time>2026-05-01T09:49:05.917Z</time></trkpt><trkpt lat="42.5409734" lon="12.4663956"><ele>311.3333333333333</ele><time>2026-05-01T09:49:06.916Z</time></trkpt><trkpt lat="42.5409237" lon="12.4666108"><ele>315.0</ele><time>2026-05-01T09:49:07.916Z</time></trkpt><trkpt lat="42.5408459" lon="12.4667907"><ele>315.0</ele><time>2026-05-01T09:49:08.917Z</time></trkpt><trkpt lat="42.5407318" lon="12.4669663"><ele>315.0</ele><time>2026-05-01T09:49:09.917Z</time></trkpt><trkpt lat="42.5405998" lon="12.4671402"><ele>315.0</ele><time>2026-05-01T09:49:10.917Z</time></trkpt><trkpt lat="42.5404708" lon="12.4673195"><ele>314.6666666666667</ele><time>2026-05-01T09:49:11.917Z</time></trkpt><trkpt lat="42.5403359" lon="12.4674829"><ele>314.33333333333337</ele><time>2026-05-01T09:49:12.917Z</time></trkpt><trkpt lat="42.5402146" lon="12.4676455"><ele>314.0</ele><time>2026-05-01T09:49:13.917Z</time></trkpt><trkpt lat="42.5400967" lon="12.4677916"><ele>314.0</ele><time>2026-05-01T09:49:14.917Z</time></trkpt><trkpt lat="42.5399849" lon="12.467926"><ele>314.0</ele><time>2026-05-01T09:49:15.917Z</time></trkpt><trkpt lat="42.5398798" lon="12.4680811"><ele>314.0</ele><time>2026-05-01T09:49:16.917Z</time></trkpt><trkpt lat="42.5397692" lon="12.4682271"><ele>314.6666666666667</ele><time>2026-05-01T09:49:17.917Z</time></trkpt><trkpt lat="42.5396592" lon="12.4683854"><ele>315.3333333333333</ele><time>2026-05-01T09:49:18.917Z</time></trkpt><trkpt lat="42.539553" lon="12.4685556"><ele>316.0</ele><time>2026-05-01T09:49:19.917Z</time></trkpt><trkpt lat="42.5394697" lon="12.4687252"><ele>313.66666666666663</ele><time>2026-05-01T09:49:20.917Z</time></trkpt><trkpt lat="42.5394163" lon="12.468925"><ele>311.3333333333333</ele><time>2026-05-01T09:49:21.916Z</time></trkpt><trkpt lat="42.5393837" lon="12.4691597"><ele>309.0</ele><time>2026-05-01T09:49:22.916Z</time></trkpt><trkpt lat="42.5393681" lon="12.4694238"><ele>306.6666666666667</ele><time>2026-05-01T09:49:23.917Z</time></trkpt><trkpt lat="42.5393699" lon="12.4697076"><ele>304.33333333333337</ele><time>2026-05-01T09:49:24.916Z</time></trkpt><trkpt lat="42.5393751" lon="12.4700075"><ele>302.0</ele><time>2026-05-01T09:49:25.917Z</time></trkpt><trkpt lat="42.5393766" lon="12.470327"><ele>299.0</ele><time>2026-05-01T09:49:26.916Z</time></trkpt><trkpt lat="42.5393698" lon="12.47066"><ele>296.0</ele><time>2026-05-01T09:49:27.917Z</time></trkpt><trkpt lat="42.5393585" lon="12.4709998"><ele>296.0</ele><time>2026-05-01T09:49:28.916Z</time></trkpt><trkpt lat="42.5393401" lon="12.4713517"><ele>296.0</ele><time>2026-05-01T09:49:29.917Z</time></trkpt><trkpt lat="42.5393334" lon="12.4717027"><ele>296.0</ele><time>2026-05-01T09:49:30.916Z</time></trkpt><trkpt lat="42.5393315" lon="12.472048"><ele>296.0</ele><time>2026-05-01T09:49:31.916Z</time></trkpt><trkpt lat="42.5393355" lon="12.4724044"><ele>296.0</ele><time>2026-05-01T09:49:32.916Z</time></trkpt><trkpt lat="42.5393438" lon="12.4727526"><ele>296.0</ele><time>2026-05-01T09:49:33.916Z</time></trkpt><trkpt lat="42.5393583" lon="12.4731042"><ele>295.5</ele><time>2026-05-01T09:49:34.917Z</time></trkpt><trkpt lat="42.5393728" lon="12.4734538"><ele>295.0</ele><time>2026-05-01T09:49:35.917Z</time></trkpt><trkpt lat="42.5393922" lon="12.4738003"><ele>294.0</ele><time>2026-05-01T09:49:36.917Z</time></trkpt><trkpt lat="42.539407" lon="12.4741392"><ele>293.0</ele><time>2026-05-01T09:49:37.917Z</time></trkpt><trkpt lat="42.5394209" lon="12.4744714"><ele>293.33333333333337</ele><time>2026-05-01T09:49:38.917Z</time></trkpt><trkpt lat="42.5394373" lon="12.4747827"><ele>293.6666666666667</ele><time>2026-05-01T09:49:39.916Z</time></trkpt><trkpt lat="42.5394539" lon="12.4750717"><ele>294.0</ele><time>2026-05-01T09:49:40.916Z</time></trkpt><trkpt lat="42.5394647" lon="12.4753385"><ele>295.3333333333333</ele><time>2026-05-01T09:49:41.916Z</time></trkpt><trkpt lat="42.539479" lon="12.47559"><ele>296.66666666666663</ele><time>2026-05-01T09:49:42.917Z</time></trkpt><trkpt lat="42.5394863" lon="12.4758539"><ele>298.0</ele><time>2026-05-01T09:49:43.917Z</time></trkpt><trkpt lat="42.5394804" lon="12.4761088"><ele>299.66666666666663</ele><time>2026-05-01T09:49:44.917Z</time></trkpt><trkpt lat="42.5394515" lon="12.4763468"><ele>301.3333333333333</ele><time>2026-05-01T09:49:45.917Z</time></trkpt><trkpt lat="42.5393888" lon="12.4765715"><ele>303.0</ele><time>2026-05-01T09:49:46.917Z</time></trkpt><trkpt lat="42.5393058" lon="12.4767829"><ele>303.0</ele><time>2026-05-01T09:49:47.916Z</time></trkpt><trkpt lat="42.5392285" lon="12.4769893"><ele>303.0</ele><time>2026-05-01T09:49:48.917Z</time></trkpt><trkpt lat="42.5391532" lon="12.4771879"><ele>303.0</ele><time>2026-05-01T09:49:49.917Z</time></trkpt><trkpt lat="42.5390812" lon="12.4773778"><ele>305.75</ele><time>2026-05-01T09:49:50.917Z</time></trkpt><trkpt lat="42.5390137" lon="12.4775508"><ele>308.5</ele><time>2026-05-01T09:49:51.917Z</time></trkpt><trkpt lat="42.5389497" lon="12.4777283"><ele>311.25</ele><time>2026-05-01T09:49:52.917Z</time></trkpt><trkpt lat="42.5388897" lon="12.4778977"><ele>314.0</ele><time>2026-05-01T09:49:53.917Z</time></trkpt><trkpt lat="42.538824" lon="12.4780724"><ele>313.0</ele><time>2026-05-01T09:49:54.917Z</time></trkpt><trkpt lat="42.5387492" lon="12.4782419"><ele>312.0</ele><time>2026-05-01T09:49:55.917Z</time></trkpt><trkpt lat="42.5386432" lon="12.4784049"><ele>311.0</ele><time>2026-05-01T09:49:56.916Z</time></trkpt><trkpt lat="42.5385227" lon="12.478588"><ele>312.6666666666667</ele><time>2026-05-01T09:49:57.917Z</time></trkpt><trkpt lat="42.5383966" lon="12.4787811"><ele>314.3333333333333</ele><time>2026-05-01T09:49:58.917Z</time></trkpt><trkpt lat="42.5382828" lon="12.4790016"><ele>316.0</ele><time>2026-05-01T09:49:59.917Z</time></trkpt><trkpt lat="42.5381942" lon="12.4792276"><ele>316.0</ele><time>2026-05-01T09:50:00.917Z</time></trkpt><trkpt lat="42.5381306" lon="12.4794785"><ele>316.0</ele><time>2026-05-01T09:50:01.917Z</time></trkpt><trkpt lat="42.5380843" lon="12.4797458"><ele>316.0</ele><time>2026-05-01T09:50:02.917Z</time></trkpt><trkpt lat="42.5380461" lon="12.4800138"><ele>317.3333333333333</ele><time>2026-05-01T09:50:03.917Z</time></trkpt><trkpt lat="42.5380095" lon="12.4802795"><ele>318.6666666666667</ele><time>2026-05-01T09:50:04.917Z</time></trkpt><trkpt lat="42.5379806" lon="12.4805223"><ele>320.0</ele><time>2026-05-01T09:50:05.917Z</time></trkpt><trkpt lat="42.5379125" lon="12.4807548"><ele>318.33333333333337</ele><time>2026-05-01T09:50:06.916Z</time></trkpt><trkpt lat="42.5378119" lon="12.4809868"><ele>316.6666666666667</ele><time>2026-05-01T09:50:07.917Z</time></trkpt><trkpt lat="42.5376857" lon="12.4812242"><ele>315.0</ele><time>2026-05-01T09:50:08.917Z</time></trkpt><trkpt lat="42.5375618" lon="12.4814671"><ele>315.0</ele><time>2026-05-01T09:50:09.916Z</time></trkpt><trkpt lat="42.537429" lon="12.4816988"><ele>315.0</ele><time>2026-05-01T09:50:10.917Z</time></trkpt><trkpt lat="42.5373031" lon="12.4819175"><ele>315.0</ele><time>2026-05-01T09:50:11.916Z</time></trkpt><trkpt lat="42.5371959" lon="12.4821251"><ele>316.0</ele><time>2026-05-01T09:50:12.917Z</time></trkpt><trkpt lat="42.5371069" lon="12.482323"><ele>317.0</ele><time>2026-05-01T09:50:13.917Z</time></trkpt><trkpt lat="42.5370342" lon="12.4825097"><ele>318.0</ele><time>2026-05-01T09:50:14.917Z</time></trkpt><trkpt lat="42.5370054" lon="12.4827098"><ele>316.6666666666667</ele><time>2026-05-01T09:50:15.917Z</time></trkpt><trkpt lat="42.5370289" lon="12.482926"><ele>315.33333333333337</ele><time>2026-05-01T09:50:16.917Z</time></trkpt><trkpt lat="42.5371213" lon="12.4831646"><ele>314.0</ele><time>2026-05-01T09:50:17.917Z</time></trkpt><trkpt lat="42.5372534" lon="12.4834095"><ele>314.0</ele><time>2026-05-01T09:50:18.916Z</time></trkpt><trkpt lat="42.5373828" lon="12.4836706"><ele>314.0</ele><time>2026-05-01T09:50:19.917Z</time></trkpt><trkpt lat="42.5375041" lon="12.4839272"><ele>309.0</ele><time>2026-05-01T09:50:20.916Z</time></trkpt><trkpt lat="42.5376197" lon="12.4841831"><ele>304.0</ele><time>2026-05-01T09:50:21.916Z</time></trkpt><trkpt lat="42.5377352" lon="12.4844628"><ele>302.0</ele><time>2026-05-01T09:50:22.917Z</time></trkpt><trkpt lat="42.537848" lon="12.4847133"><ele>300.0</ele><time>2026-05-01T09:50:23.917Z</time></trkpt><trkpt lat="42.5379403" lon="12.4849869"><ele>298.0</ele><time>2026-05-01T09:50:24.917Z</time></trkpt><trkpt lat="42.5380191" lon="12.4852748"><ele>304.5</ele><time>2026-05-01T09:50:25.917Z</time></trkpt><trkpt lat="42.5380838" lon="12.4855667"><ele>311.0</ele><time>2026-05-01T09:50:26.916Z</time></trkpt><trkpt lat="42.5381548" lon="12.4858689"><ele>311.0</ele><time>2026-05-01T09:50:27.916Z</time></trkpt><trkpt lat="42.5382228" lon="12.4861653"><ele>311.0</ele><time>2026-05-01T09:50:28.917Z</time></trkpt><trkpt lat="42.5382944" lon="12.4864603"><ele>310.33333333333337</ele><time>2026-05-01T09:50:29.916Z</time></trkpt><trkpt lat="42.5383653" lon="12.4867589"><ele>309.6666666666667</ele><time>2026-05-01T09:50:30.917Z</time></trkpt><trkpt lat="42.5384261" lon="12.4870432"><ele>309.0</ele><time>2026-05-01T09:50:31.916Z</time></trkpt><trkpt lat="42.5384882" lon="12.4873121"><ele>308.3333333333333</ele><time>2026-05-01T09:50:32.917Z</time></trkpt><trkpt lat="42.538548" lon="12.4875564"><ele>307.66666666666663</ele><time>2026-05-01T09:50:33.916Z</time></trkpt><trkpt lat="42.5386254" lon="12.4877859"><ele>307.0</ele><time>2026-05-01T09:50:34.916Z</time></trkpt><trkpt lat="42.5387421" lon="12.4880043"><ele>309.3333333333333</ele><time>2026-05-01T09:50:35.917Z</time></trkpt><trkpt lat="42.5388777" lon="12.4882022"><ele>311.6666666666667</ele><time>2026-05-01T09:50:36.917Z</time></trkpt><trkpt lat="42.539023" lon="12.4883829"><ele>314.0</ele><time>2026-05-01T09:50:37.917Z</time></trkpt><trkpt lat="42.539164" lon="12.488538"><ele>314.0</ele><time>2026-05-01T09:50:38.917Z</time></trkpt><trkpt lat="42.5393061" lon="12.4886888"><ele>314.0</ele><time>2026-05-01T09:50:39.917Z</time></trkpt><trkpt lat="42.539429" lon="12.4888431"><ele>314.0</ele><time>2026-05-01T09:50:40.917Z</time></trkpt><trkpt lat="42.539548" lon="12.4889887"><ele>311.6666666666667</ele><time>2026-05-01T09:50:41.916Z</time></trkpt><trkpt lat="42.5396504" lon="12.4891563"><ele>309.3333333333333</ele><time>2026-05-01T09:50:42.917Z</time></trkpt><trkpt lat="42.5397426" lon="12.4893534"><ele>307.0</ele><time>2026-05-01T09:50:43.917Z</time></trkpt><trkpt lat="42.5398283" lon="12.4895719"><ele>303.5</ele><time>2026-05-01T09:50:44.917Z</time></trkpt><trkpt lat="42.539912" lon="12.4898462"><ele>300.0</ele><time>2026-05-01T09:50:45.917Z</time></trkpt><trkpt lat="42.5399901" lon="12.4901607"><ele>301.0</ele><time>2026-05-01T09:50:46.917Z</time></trkpt><trkpt lat="42.5400649" lon="12.4904836"><ele>302.0</ele><time>2026-05-01T09:50:47.917Z</time></trkpt><trkpt lat="42.5401508" lon="12.4908007"><ele>302.0</ele><time>2026-05-01T09:50:48.916Z</time></trkpt><trkpt lat="42.5402317" lon="12.49109"><ele>302.0</ele><time>2026-05-01T09:50:49.917Z</time></trkpt><trkpt lat="42.5402894" lon="12.4913416"><ele>302.0</ele><time>2026-05-01T09:50:50.917Z</time></trkpt><trkpt lat="42.5403423" lon="12.4915675"><ele>298.33333333333337</ele><time>2026-05-01T09:50:51.916Z</time></trkpt><trkpt lat="42.5403966" lon="12.491774"><ele>294.6666666666667</ele><time>2026-05-01T09:50:52.917Z</time></trkpt><trkpt lat="42.540468" lon="12.4919764"><ele>291.0</ele><time>2026-05-01T09:50:53.917Z</time></trkpt><trkpt lat="42.540559" lon="12.492168"><ele>291.0</ele><time>2026-05-01T09:50:54.916Z</time></trkpt><trkpt lat="42.5406777" lon="12.4923338"><ele>291.0</ele><time>2026-05-01T09:50:55.917Z</time></trkpt><trkpt lat="42.5408179" lon="12.4924519"><ele>291.0</ele><time>2026-05-01T09:50:56.917Z</time></trkpt><trkpt lat="42.5409804" lon="12.492535"><ele>291.0</ele><time>2026-05-01T09:50:57.916Z</time></trkpt><trkpt lat="42.5411335" lon="12.4925933"><ele>291.0</ele><time>2026-05-01T09:50:58.917Z</time></trkpt><trkpt lat="42.5412816" lon="12.4926372"><ele>291.0</ele><time>2026-05-01T09:50:59.917Z</time></trkpt><trkpt lat="42.5414271" lon="12.4927094"><ele>285.3333333333333</ele><time>2026-05-01T09:51:00.916Z</time></trkpt><trkpt lat="42.5415549" lon="12.4928295"><ele>279.66666666666663</ele><time>2026-05-01T09:51:01.917Z</time></trkpt><trkpt lat="42.5416437" lon="12.493021"><ele>274.0</ele><time>2026-05-01T09:51:02.916Z</time></trkpt><trkpt lat="42.5416675" lon="12.4932711"><ele>274.0</ele><time>2026-05-01T09:51:03.917Z</time></trkpt><trkpt lat="42.541671" lon="12.4935339"><ele>274.0</ele><time>2026-05-01T09:51:04.917Z</time></trkpt><trkpt lat="42.5416417" lon="12.4938105"><ele>274.0</ele><time>2026-05-01T09:51:05.917Z</time></trkpt><trkpt lat="42.5416107" lon="12.4941024"><ele>272.0</ele><time>2026-05-01T09:51:06.917Z</time></trkpt><trkpt lat="42.5415834" lon="12.4944218"><ele>270.0</ele><time>2026-05-01T09:51:07.917Z</time></trkpt><trkpt lat="42.5415707" lon="12.4947386"><ele>267.5</ele><time>2026-05-01T09:51:08.917Z</time></trkpt><trkpt lat="42.5415629" lon="12.4950555"><ele>265.0</ele><time>2026-05-01T09:51:09.916Z</time></trkpt><trkpt lat="42.5415513" lon="12.495361"><ele>264.66666666666663</ele><time>2026-05-01T09:51:10.916Z</time></trkpt><trkpt lat="42.5415523" lon="12.4956524"><ele>264.3333333333333</ele><time>2026-05-01T09:51:11.917Z</time></trkpt><trkpt lat="42.5415711" lon="12.4959141"><ele>264.0</ele><time>2026-05-01T09:51:12.916Z</time></trkpt><trkpt lat="42.5416032" lon="12.4961574"><ele>262.6666666666667</ele><time>2026-05-01T09:51:13.917Z</time></trkpt><trkpt lat="42.541647" lon="12.4963736"><ele>261.33333333333337</ele><time>2026-05-01T09:51:14.917Z</time></trkpt><trkpt lat="42.5416538" lon="12.4965852"><ele>260.0</ele><time>2026-05-01T09:51:15.917Z</time></trkpt><trkpt lat="42.54164" lon="12.4968467"><ele>256.5</ele><time>2026-05-01T09:51:16.917Z</time></trkpt><trkpt lat="42.5416169" lon="12.4971551"><ele>253.0</ele><time>2026-05-01T09:51:17.917Z</time></trkpt><trkpt lat="42.5416032" lon="12.49746"><ele>253.0</ele><time>2026-05-01T09:51:18.917Z</time></trkpt><trkpt lat="42.5415899" lon="12.4977656"><ele>253.0</ele><time>2026-05-01T09:51:19.917Z</time></trkpt><trkpt lat="42.5415806" lon="12.4980387"><ele>253.0</ele><time>2026-05-01T09:51:20.917Z</time></trkpt><trkpt lat="42.5415667" lon="12.4982773"><ele>249.33333333333331</ele><time>2026-05-01T09:51:21.917Z</time></trkpt><trkpt lat="42.5415526" lon="12.498494"><ele>245.66666666666669</ele><time>2026-05-01T09:51:22.917Z</time></trkpt><trkpt lat="42.5415221" lon="12.4986944"><ele>242.0</ele><time>2026-05-01T09:51:23.917Z</time></trkpt><trkpt lat="42.5414518" lon="12.4988728"><ele>244.0</ele><time>2026-05-01T09:51:24.917Z</time></trkpt><trkpt lat="42.5413593" lon="12.4990404"><ele>246.0</ele><time>2026-05-01T09:51:25.917Z</time></trkpt><trkpt lat="42.5412342" lon="12.4991672"><ele>248.0</ele><time>2026-05-01T09:51:26.917Z</time></trkpt><trkpt lat="42.5410833" lon="12.4992672"><ele>248.0</ele><time>2026-05-01T09:51:27.916Z</time></trkpt><trkpt lat="42.5409135" lon="12.4993577"><ele>248.0</ele><time>2026-05-01T09:51:28.916Z</time></trkpt><trkpt lat="42.540732" lon="12.4994513"><ele>248.0</ele><time>2026-05-01T09:51:29.917Z</time></trkpt><trkpt lat="42.5405423" lon="12.4995874"><ele>245.0</ele><time>2026-05-01T09:51:30.917Z</time></trkpt><trkpt lat="42.5403745" lon="12.4997517"><ele>242.0</ele><time>2026-05-01T09:51:31.916Z</time></trkpt><trkpt lat="42.5402221" lon="12.4999037"><ele>239.0</ele><time>2026-05-01T09:51:32.916Z</time></trkpt><trkpt lat="42.5400835" lon="12.5000479"><ele>239.0</ele><time>2026-05-01T09:51:33.917Z</time></trkpt><trkpt lat="42.5399611" lon="12.5001829"><ele>239.0</ele><time>2026-05-01T09:51:34.917Z</time></trkpt><trkpt lat="42.5398475" lon="12.5003041"><ele>239.0</ele><time>2026-05-01T09:51:35.917Z</time></trkpt><trkpt lat="42.5397384" lon="12.5004164"><ele>239.0</ele><time>2026-05-01T09:51:36.916Z</time></trkpt><trkpt lat="42.5396215" lon="12.5005432"><ele>236.33333333333334</ele><time>2026-05-01T09:51:37.917Z</time></trkpt><trkpt lat="42.5394949" lon="12.5006802"><ele>233.66666666666669</ele><time>2026-05-01T09:51:38.917Z</time></trkpt><trkpt lat="42.5393756" lon="12.5008511"><ele>231.0</ele><time>2026-05-01T09:51:39.917Z</time></trkpt><trkpt lat="42.5392735" lon="12.501026"><ele>231.0</ele><time>2026-05-01T09:51:40.917Z</time></trkpt><trkpt lat="42.5391886" lon="12.5012023"><ele>231.0</ele><time>2026-05-01T09:51:41.917Z</time></trkpt><trkpt lat="42.5391131" lon="12.5013798"><ele>231.0</ele><time>2026-05-01T09:51:42.917Z</time></trkpt><trkpt lat="42.5390589" lon="12.5015587"><ele>231.0</ele><time>2026-05-01T09:51:43.917Z</time></trkpt><trkpt lat="42.5390049" lon="12.5017424"><ele>228.25</ele><time>2026-05-01T09:51:44.917Z</time></trkpt><trkpt lat="42.5389547" lon="12.5019173"><ele>225.5</ele><time>2026-05-01T09:51:45.916Z</time></trkpt><trkpt lat="42.5389123" lon="12.5020916"><ele>222.75</ele><time>2026-05-01T09:51:46.917Z</time></trkpt><trkpt lat="42.5388701" lon="12.5022879"><ele>220.0</ele><time>2026-05-01T09:51:47.917Z</time></trkpt><trkpt lat="42.538832" lon="12.5024866"><ele>218.0</ele><time>2026-05-01T09:51:48.917Z</time></trkpt><trkpt lat="42.5387928" lon="12.5026826"><ele>216.0</ele><time>2026-05-01T09:51:49.917Z</time></trkpt><trkpt lat="42.5387562" lon="12.5028707"><ele>214.0</ele><time>2026-05-01T09:51:50.917Z</time></trkpt><trkpt lat="42.5387291" lon="12.5030613"><ele>212.0</ele><time>2026-05-01T09:51:51.917Z</time></trkpt><trkpt lat="42.5387025" lon="12.5032564"><ele>211.25</ele><time>2026-05-01T09:51:52.917Z</time></trkpt><trkpt lat="42.538683" lon="12.5034328"><ele>210.5</ele><time>2026-05-01T09:51:53.916Z</time></trkpt><trkpt lat="42.5386608" lon="12.5036128"><ele>209.75</ele><time>2026-05-01T09:51:54.917Z</time></trkpt><trkpt lat="42.5386413" lon="12.5037872"><ele>209.0</ele><time>2026-05-01T09:51:55.917Z</time></trkpt><trkpt lat="42.5386165" lon="12.5039501"><ele>207.6</ele><time>2026-05-01T09:51:56.916Z</time></trkpt><trkpt lat="42.5385844" lon="12.5040983"><ele>206.2</ele><time>2026-05-01T09:51:57.917Z</time></trkpt><trkpt lat="42.5385546" lon="12.504221"><ele>204.79999999999998</ele><time>2026-05-01T09:51:58.917Z</time></trkpt><trkpt lat="42.5384828" lon="12.5042847"><ele>203.39999999999998</ele><time>2026-05-01T09:51:59.917Z</time></trkpt><trkpt lat="42.5383919" lon="12.504277"><ele>202.0</ele><time>2026-05-01T09:52:00.917Z</time></trkpt><trkpt lat="42.5382835" lon="12.5042387"><ele>202.0</ele><time>2026-05-01T09:52:01.916Z</time></trkpt><trkpt lat="42.5382017" lon="12.5041391"><ele>202.0</ele><time>2026-05-01T09:52:02.917Z</time></trkpt><trkpt lat="42.5381455" lon="12.5039835"><ele>202.0</ele><time>2026-05-01T09:52:03.916Z</time></trkpt><trkpt lat="42.5380979" lon="12.5038071"><ele>202.0</ele><time>2026-05-01T09:52:04.917Z</time></trkpt><trkpt lat="42.5380497" lon="12.5036169"><ele>201.5</ele><time>2026-05-01T09:52:05.917Z</time></trkpt><trkpt lat="42.5379871" lon="12.5034352"><ele>201.0</ele><time>2026-05-01T09:52:06.917Z</time></trkpt><trkpt lat="42.5379072" lon="12.5033059"><ele>200.5</ele><time>2026-05-01T09:52:07.917Z</time></trkpt><trkpt lat="42.5378186" lon="12.5032185"><ele>200.0</ele><time>2026-05-01T09:52:08.917Z</time></trkpt><trkpt lat="42.5377206" lon="12.5031718"><ele>200.0</ele><time>2026-05-01T09:52:09.917Z</time></trkpt><trkpt lat="42.537621" lon="12.5031738"><ele>200.0</ele><time>2026-05-01T09:52:10.917Z</time></trkpt><trkpt lat="42.5375323" lon="12.5032088"><ele>200.0</ele><time>2026-05-01T09:52:11.917Z</time></trkpt><trkpt lat="42.5374416" lon="12.503257"><ele>200.0</ele><time>2026-05-01T09:52:12.917Z</time></trkpt><trkpt lat="42.5373587" lon="12.5033345"><ele>200.0</ele><time>2026-05-01T09:52:13.917Z</time></trkpt><trkpt lat="42.5372682" lon="12.5034067"><ele>200.0</ele><time>2026-05-01T09:52:14.916Z</time></trkpt><trkpt lat="42.53718" lon="12.5034841"><ele>200.0</ele><time>2026-05-01T09:52:15.917Z</time></trkpt><trkpt lat="42.5370794" lon="12.503561"><ele>200.0</ele><time>2026-05-01T09:52:16.917Z</time></trkpt><trkpt lat="42.5369802" lon="12.5036435"><ele>200.0</ele><time>2026-05-01T09:52:17.917Z</time></trkpt><trkpt lat="42.5368809" lon="12.5037295"><ele>198.25</ele><time>2026-05-01T09:52:18.917Z</time></trkpt><trkpt lat="42.5367763" lon="12.5038185"><ele>196.5</ele><time>2026-05-01T09:52:19.917Z</time></trkpt><trkpt lat="42.536659" lon="12.5039081"><ele>194.75</ele><time>2026-05-01T09:52:20.917Z</time></trkpt><trkpt lat="42.5365419" lon="12.5040014"><ele>193.0</ele><time>2026-05-01T09:52:21.917Z</time></trkpt><trkpt lat="42.5364185" lon="12.5040999"><ele>193.0</ele><time>2026-05-01T09:52:22.917Z</time></trkpt><trkpt lat="42.536294" lon="12.5042029"><ele>193.0</ele><time>2026-05-01T09:52:23.917Z</time></trkpt><trkpt lat="42.5361728" lon="12.5043123"><ele>193.0</ele><time>2026-05-01T09:52:24.917Z</time></trkpt><trkpt lat="42.5360488" lon="12.5044199"><ele>193.0</ele><time>2026-05-01T09:52:25.916Z</time></trkpt><trkpt lat="42.5359304" lon="12.5045429"><ele>191.25</ele><time>2026-05-01T09:52:26.916Z</time></trkpt><trkpt lat="42.535816" lon="12.5046629"><ele>189.5</ele><time>2026-05-01T09:52:27.916Z</time></trkpt><trkpt lat="42.5357159" lon="12.5048039"><ele>187.75</ele><time>2026-05-01T09:52:28.916Z</time></trkpt><trkpt lat="42.5356045" lon="12.5049458"><ele>186.0</ele><time>2026-05-01T09:52:29.917Z</time></trkpt><trkpt lat="42.535486" lon="12.5050927"><ele>185.25</ele><time>2026-05-01T09:52:30.917Z</time></trkpt><trkpt lat="42.53538" lon="12.5052286"><ele>184.5</ele><time>2026-05-01T09:52:31.917Z</time></trkpt><trkpt lat="42.5352708" lon="12.5053598"><ele>183.75</ele><time>2026-05-01T09:52:32.916Z</time></trkpt><trkpt lat="42.5351685" lon="12.5054922"><ele>183.0</ele><time>2026-05-01T09:52:33.917Z</time></trkpt><trkpt lat="42.5350684" lon="12.5056281"><ele>183.0</ele><time>2026-05-01T09:52:34.917Z</time></trkpt><trkpt lat="42.5349785" lon="12.5057659"><ele>183.0</ele><time>2026-05-01T09:52:35.917Z</time></trkpt><trkpt lat="42.5349007" lon="12.5059063"><ele>183.0</ele><time>2026-05-01T09:52:36.916Z</time></trkpt><trkpt lat="42.5348183" lon="12.5060491"><ele>183.0</ele><time>2026-05-01T09:52:37.916Z</time></trkpt><trkpt lat="42.5347354" lon="12.5061859"><ele>181.60000000000002</ele><time>2026-05-01T09:52:38.917Z</time></trkpt><trkpt lat="42.534651" lon="12.5062993"><ele>180.20000000000002</ele><time>2026-05-01T09:52:39.917Z</time></trkpt><trkpt lat="42.5345617" lon="12.5063858"><ele>178.8</ele><time>2026-05-01T09:52:40.917Z</time></trkpt><trkpt lat="42.5344733" lon="12.5064421"><ele>177.4</ele><time>2026-05-01T09:52:41.917Z</time></trkpt><trkpt lat="42.5343703" lon="12.5064739"><ele>176.0</ele><time>2026-05-01T09:52:42.917Z</time></trkpt><trkpt lat="42.534252" lon="12.5064861"><ele>176.0</ele><time>2026-05-01T09:52:43.916Z</time></trkpt><trkpt lat="42.5341249" lon="12.5064798"><ele>176.0</ele><time>2026-05-01T09:52:44.917Z</time></trkpt><trkpt lat="42.5340006" lon="12.5064782"><ele>176.0</ele><time>2026-05-01T09:52:45.917Z</time></trkpt><trkpt lat="42.5338802" lon="12.5064782"><ele>176.0</ele><time>2026-05-01T09:52:46.917Z</time></trkpt><trkpt lat="42.5337614" lon="12.5064905"><ele>176.0</ele><time>2026-05-01T09:52:47.917Z</time></trkpt><trkpt lat="42.5336597" lon="12.5065217"><ele>176.0</ele><time>2026-05-01T09:52:48.917Z</time></trkpt><trkpt lat="42.5335616" lon="12.5065831"><ele>176.0</ele><time>2026-05-01T09:52:49.917Z</time></trkpt><trkpt lat="42.5334764" lon="12.5066514"><ele>176.0</ele><time>2026-05-01T09:52:50.917Z</time></trkpt><trkpt lat="42.5334023" lon="12.5067427"><ele>176.0</ele><time>2026-05-01T09:52:51.917Z</time></trkpt><trkpt lat="42.5333261" lon="12.5068282"><ele>176.0</ele><time>2026-05-01T09:52:52.917Z</time></trkpt><trkpt lat="42.5332551" lon="12.506905"><ele>176.0</ele><time>2026-05-01T09:52:53.917Z</time></trkpt><trkpt lat="42.5331751" lon="12.5070038"><ele>176.0</ele><time>2026-05-01T09:52:54.916Z</time></trkpt><trkpt lat="42.5330887" lon="12.5070944"><ele>176.0</ele><time>2026-05-01T09:52:55.917Z</time></trkpt><trkpt lat="42.5329929" lon="12.5071755"><ele>176.0</ele><time>2026-05-01T09:52:56.916Z</time></trkpt><trkpt lat="42.5328911" lon="12.507222"><ele>175.4</ele><time>2026-05-01T09:52:57.917Z</time></trkpt><trkpt lat="42.5327928" lon="12.5072153"><ele>174.8</ele><time>2026-05-01T09:52:58.917Z</time></trkpt><trkpt lat="42.532693" lon="12.5071553"><ele>174.20000000000002</ele><time>2026-05-01T09:52:59.917Z</time></trkpt><trkpt lat="42.5326001" lon="12.5070625"><ele>173.60000000000002</ele><time>2026-05-01T09:53:00.917Z</time></trkpt><trkpt lat="42.5325247" lon="12.5069515"><ele>173.0</ele><time>2026-05-01T09:53:01.916Z</time></trkpt><trkpt lat="42.5324578" lon="12.5068406"><ele>173.0</ele><time>2026-05-01T09:53:02.917Z</time></trkpt><trkpt lat="42.5324056" lon="12.5067202"><ele>173.0</ele><time>2026-05-01T09:53:03.917Z</time></trkpt><trkpt lat="42.5323377" lon="12.5066184"><ele>173.0</ele><time>2026-05-01T09:53:04.917Z</time></trkpt><trkpt lat="42.5322546" lon="12.5065743"><ele>173.0</ele><time>2026-05-01T09:53:05.916Z</time></trkpt><trkpt lat="42.5321514" lon="12.5066241"><ele>173.0</ele><time>2026-05-01T09:53:06.917Z</time></trkpt><trkpt lat="42.5320777" lon="12.506724"><ele>173.0</ele><time>2026-05-01T09:53:07.917Z</time></trkpt><trkpt lat="42.5320712" lon="12.5068651"><ele>173.0</ele><time>2026-05-01T09:53:08.916Z</time></trkpt><trkpt lat="42.5320957" lon="12.5070415"><ele>173.0</ele><time>2026-05-01T09:53:09.916Z</time></trkpt><trkpt lat="42.5320913" lon="12.5072353"><ele>173.0</ele><time>2026-05-01T09:53:10.916Z</time></trkpt><trkpt lat="42.5320736" lon="12.5074201"><ele>170.5</ele><time>2026-05-01T09:53:11.916Z</time></trkpt><trkpt lat="42.5320439" lon="12.5075933"><ele>168.0</ele><time>2026-05-01T09:53:12.917Z</time></trkpt><trkpt lat="42.5319933" lon="12.5077526"><ele>165.5</ele><time>2026-05-01T09:53:13.917Z</time></trkpt><trkpt lat="42.5319329" lon="12.5079071"><ele>163.0</ele><time>2026-05-01T09:53:14.916Z</time></trkpt><trkpt lat="42.5318693" lon="12.5080522"><ele>161.20000000000002</ele><time>2026-05-01T09:53:15.917Z</time></trkpt><trkpt lat="42.5317787" lon="12.508147"><ele>159.4</ele><time>2026-05-01T09:53:16.916Z</time></trkpt><trkpt lat="42.5316775" lon="12.5081983"><ele>157.60000000000002</ele><time>2026-05-01T09:53:17.917Z</time></trkpt><trkpt lat="42.5315672" lon="12.508217"><ele>155.8</ele><time>2026-05-01T09:53:18.917Z</time></trkpt><trkpt lat="42.5314634" lon="12.5081859"><ele>154.0</ele><time>2026-05-01T09:53:19.917Z</time></trkpt><trkpt lat="42.5313593" lon="12.5081096"><ele>154.0</ele><time>2026-05-01T09:53:20.917Z</time></trkpt><trkpt lat="42.5312793" lon="12.5080206"><ele>154.0</ele><time>2026-05-01T09:53:21.917Z</time></trkpt><trkpt lat="42.5312145" lon="12.5079145"><ele>154.0</ele><time>2026-05-01T09:53:22.916Z</time></trkpt><trkpt lat="42.5311507" lon="12.5078196"><ele>154.0</ele><time>2026-05-01T09:53:23.916Z</time></trkpt><trkpt lat="42.5310689" lon="12.5077595"><ele>154.0</ele><time>2026-05-01T09:53:24.916Z</time></trkpt><trkpt lat="42.5309902" lon="12.5077404"><ele>155.0</ele><time>2026-05-01T09:53:25.916Z</time></trkpt><trkpt lat="42.5309173" lon="12.5077541"><ele>156.0</ele><time>2026-05-01T09:53:26.916Z</time></trkpt><trkpt lat="42.5308551" lon="12.5078133"><ele>157.0</ele><time>2026-05-01T09:53:27.917Z</time></trkpt><trkpt lat="42.5308087" lon="12.507892"><ele>158.0</ele><time>2026-05-01T09:53:28.917Z</time></trkpt><trkpt lat="42.5307669" lon="12.5079866"><ele>159.0</ele><time>2026-05-01T09:53:29.917Z</time></trkpt><trkpt lat="42.5307665" lon="12.5080854"><ele>160.0</ele><time>2026-05-01T09:53:30.917Z</time></trkpt><trkpt lat="42.5308224" lon="12.5081618"><ele>160.0</ele><time>2026-05-01T09:53:31.917Z</time></trkpt><trkpt lat="42.5309079" lon="12.5082637"><ele>160.0</ele><time>2026-05-01T09:53:32.917Z</time></trkpt><trkpt lat="42.5310179" lon="12.5083873"><ele>160.0</ele><time>2026-05-01T09:53:33.916Z</time></trkpt><trkpt lat="42.5311298" lon="12.5085229"><ele>160.0</ele><time>2026-05-01T09:53:34.917Z</time></trkpt><trkpt lat="42.5312374" lon="12.5086414"><ele>156.5</ele><time>2026-05-01T09:53:35.917Z</time></trkpt><trkpt lat="42.5313332" lon="12.5087592"><ele>153.0</ele><time>2026-05-01T09:53:36.916Z</time></trkpt><trkpt lat="42.5314126" lon="12.5088878"><ele>149.5</ele><time>2026-05-01T09:53:37.917Z</time></trkpt><trkpt lat="42.5314886" lon="12.5090165"><ele>146.0</ele><time>2026-05-01T09:53:38.917Z</time></trkpt><trkpt lat="42.5315477" lon="12.5091442"><ele>146.0</ele><time>2026-05-01T09:53:39.916Z</time></trkpt><trkpt lat="42.5315963" lon="12.5092681"><ele>146.0</ele><time>2026-05-01T09:53:40.917Z</time></trkpt><trkpt lat="42.5316306" lon="12.509382"><ele>146.0</ele><time>2026-05-01T09:53:41.917Z</time></trkpt><trkpt lat="42.5316457" lon="12.5094965"><ele>146.0</ele><time>2026-05-01T09:53:42.917Z</time></trkpt><trkpt lat="42.531649" lon="12.509616"><ele>146.0</ele><time>2026-05-01T09:53:43.917Z</time></trkpt><trkpt lat="42.5316493" lon="12.509764"><ele>144.75</ele><time>2026-05-01T09:53:44.916Z</time></trkpt><trkpt lat="42.5316263" lon="12.5099319"><ele>143.5</ele><time>2026-05-01T09:53:45.916Z</time></trkpt><trkpt lat="42.5315952" lon="12.5101049"><ele>142.25</ele><time>2026-05-01T09:53:46.916Z</time></trkpt><trkpt lat="42.5315639" lon="12.5102706"><ele>141.0</ele><time>2026-05-01T09:53:47.917Z</time></trkpt><trkpt lat="42.5315341" lon="12.5104312"><ele>139.0</ele><time>2026-05-01T09:53:48.916Z</time></trkpt><trkpt lat="42.5315036" lon="12.5105735"><ele>137.0</ele><time>2026-05-01T09:53:49.916Z</time></trkpt><trkpt lat="42.5314654" lon="12.5107143"><ele>135.0</ele><time>2026-05-01T09:53:50.916Z</time></trkpt><trkpt lat="42.5314187" lon="12.5108723"><ele>133.0</ele><time>2026-05-01T09:53:51.916Z</time></trkpt><trkpt lat="42.5313647" lon="12.5110398"><ele>133.0</ele><time>2026-05-01T09:53:52.917Z</time></trkpt><trkpt lat="42.5313059" lon="12.5111935"><ele>133.0</ele><time>2026-05-01T09:53:53.916Z</time></trkpt><trkpt lat="42.5312456" lon="12.5113438"><ele>133.0</ele><time>2026-05-01T09:53:54.916Z</time></trkpt><trkpt lat="42.5311854" lon="12.5114997"><ele>133.0</ele><time>2026-05-01T09:53:55.917Z</time></trkpt><trkpt lat="42.5311206" lon="12.511642"><ele>132.5</ele><time>2026-05-01T09:53:56.917Z</time></trkpt><trkpt lat="42.531033" lon="12.5117655"><ele>132.0</ele><time>2026-05-01T09:53:57.916Z</time></trkpt><trkpt lat="42.5309354" lon="12.5118656"><ele>131.5</ele><time>2026-05-01T09:53:58.916Z</time></trkpt><trkpt lat="42.5308246" lon="12.5119302"><ele>131.0</ele><time>2026-05-01T09:53:59.916Z</time></trkpt><trkpt lat="42.5306916" lon="12.5119336"><ele>131.0</ele><time>2026-05-01T09:54:00.916Z</time></trkpt><trkpt lat="42.5305397" lon="12.5118268"><ele>131.0</ele><time>2026-05-01T09:54:01.917Z</time></trkpt><trkpt lat="42.5304111" lon="12.5117322"><ele>131.0</ele><time>2026-05-01T09:54:02.916Z</time></trkpt><trkpt lat="42.5302849" lon="12.5116355"><ele>130.0</ele><time>2026-05-01T09:54:03.917Z</time></trkpt><trkpt lat="42.5301782" lon="12.5115441"><ele>129.0</ele><time>2026-05-01T09:54:04.917Z</time></trkpt><trkpt lat="42.5300778" lon="12.5114855"><ele>128.0</ele><time>2026-05-01T09:54:05.917Z</time></trkpt><trkpt lat="42.529997" lon="12.5114939"><ele>127.0</ele><time>2026-05-01T09:54:06.917Z</time></trkpt><trkpt lat="42.5299324" lon="12.5115962"><ele>126.0</ele><time>2026-05-01T09:54:07.917Z</time></trkpt><trkpt lat="42.5298678" lon="12.511717"><ele>126.0</ele><time>2026-05-01T09:54:08.917Z</time></trkpt><trkpt lat="42.5298147" lon="12.5118344"><ele>126.0</ele><time>2026-05-01T09:54:09.917Z</time></trkpt><trkpt lat="42.5297633" lon="12.5119456"><ele>126.0</ele><time>2026-05-01T09:54:10.917Z</time></trkpt><trkpt lat="42.5297162" lon="12.5120432"><ele>126.0</ele><time>2026-05-01T09:54:11.916Z</time></trkpt><trkpt lat="42.5296528" lon="12.5121287"><ele>126.0</ele><time>2026-05-01T09:54:12.917Z</time></trkpt><trkpt lat="42.5295783" lon="12.5121825"><ele>123.19999999999999</ele><time>2026-05-01T09:54:13.916Z</time></trkpt><trkpt lat="42.5294998" lon="12.5122362"><ele>120.39999999999999</ele><time>2026-05-01T09:54:14.916Z</time></trkpt><trkpt lat="42.5294092" lon="12.5122699"><ele>117.6</ele><time>2026-05-01T09:54:15.917Z</time></trkpt><trkpt lat="42.5293027" lon="12.5123013"><ele>114.8</ele><time>2026-05-01T09:54:16.917Z</time></trkpt><trkpt lat="42.5291859" lon="12.5123247"><ele>112.0</ele><time>2026-05-01T09:54:17.916Z</time></trkpt><trkpt lat="42.5290903" lon="12.5123567"><ele>112.0</ele><time>2026-05-01T09:54:18.917Z</time></trkpt><trkpt lat="42.5290067" lon="12.5123834"><ele>111.99999999999999</ele><time>2026-05-01T09:54:19.917Z</time></trkpt><trkpt lat="42.5288991" lon="12.5124124"><ele>111.99999999999999</ele><time>2026-05-01T09:54:21.916Z</time></trkpt><trkpt lat="42.5288146" lon="12.5124753"><ele>112.0</ele><time>2026-05-01T09:54:30.916Z</time></trkpt><trkpt lat="42.5287153" lon="12.5125454"><ele>112.0</ele><time>2026-05-01T09:54:32.916Z</time></trkpt><trkpt lat="42.5286136" lon="12.5125931"><ele>111.0</ele><time>2026-05-01T09:54:34.917Z</time></trkpt><trkpt lat="42.5285469" lon="12.5126223"><ele>109.99999999999999</ele><time>2026-05-01T09:54:36.916Z</time></trkpt><trkpt lat="42.5284264" lon="12.5127168"><ele>108.99999999999999</ele><time>2026-05-01T09:54:51.916Z</time></trkpt><trkpt lat="42.5283608" lon="12.5127946"><ele>108.0</ele><time>2026-05-01T09:54:54.917Z</time></trkpt><trkpt lat="42.5282994" lon="12.5128604"><ele>107.0</ele><time>2026-05-01T09:55:02.917Z</time></trkpt><trkpt lat="42.5282274" lon="12.5129685"><ele>107.0</ele><time>2026-05-01T09:55:04.916Z</time></trkpt><trkpt lat="42.5281676" lon="12.5130418"><ele>106.99999999999999</ele><time>2026-05-01T09:55:05.917Z</time></trkpt><trkpt lat="42.5280999" lon="12.5131197"><ele>106.99999999999999</ele><time>2026-05-01T09:55:06.916Z</time></trkpt><trkpt lat="42.5280234" lon="12.5131955"><ele>107.0</ele><time>2026-05-01T09:55:07.916Z</time></trkpt><trkpt lat="42.5279446" lon="12.5132857"><ele>107.0</ele><time>2026-05-01T09:55:08.917Z</time></trkpt><trkpt lat="42.5278629" lon="12.5133906"><ele>106.5</ele><time>2026-05-01T09:55:09.916Z</time></trkpt><trkpt lat="42.527779" lon="12.5135105"><ele>106.0</ele><time>2026-05-01T09:55:10.917Z</time></trkpt><trkpt lat="42.5276869" lon="12.5136177"><ele>105.5</ele><time>2026-05-01T09:55:11.917Z</time></trkpt><trkpt lat="42.5275792" lon="12.513714"><ele>105.0</ele><time>2026-05-01T09:55:12.917Z</time></trkpt><trkpt lat="42.5274546" lon="12.5137851"><ele>105.0</ele><time>2026-05-01T09:55:13.917Z</time></trkpt><trkpt lat="42.5273166" lon="12.5138013"><ele>105.0</ele><time>2026-05-01T09:55:14.917Z</time></trkpt><trkpt lat="42.5271836" lon="12.5138035"><ele>105.0</ele><time>2026-05-01T09:55:15.916Z</time></trkpt><trkpt lat="42.5270629" lon="12.5137815"><ele>105.0</ele><time>2026-05-01T09:55:16.917Z</time></trkpt><trkpt lat="42.5269587" lon="12.5137502"><ele>137.0</ele><time>2026-05-01T09:55:17.917Z</time></trkpt><trkpt lat="42.5262288" lon="12.5131251"><ele>125.33333333333333</ele><time>2026-05-01T09:55:23.917Z</time></trkpt><trkpt lat="42.526066" lon="12.5130685"><ele>113.66666666666666</ele><time>2026-05-01T09:55:24.917Z</time></trkpt><trkpt lat="42.5258991" lon="12.5130471"><ele>102.0</ele><time>2026-05-01T09:55:25.917Z</time></trkpt><trkpt lat="42.5257368" lon="12.5130381"><ele>102.0</ele><time>2026-05-01T09:55:26.916Z</time></trkpt><trkpt lat="42.525577" lon="12.5130324"><ele>102.0</ele><time>2026-05-01T09:55:27.916Z</time></trkpt><trkpt lat="42.5254444" lon="12.5130174"><ele>102.0</ele><time>2026-05-01T09:55:28.917Z</time></trkpt><trkpt lat="42.5252998" lon="12.5130024"><ele>102.0</ele><time>2026-05-01T09:55:29.916Z</time></trkpt><trkpt lat="42.5251566" lon="12.5129799"><ele>101.25</ele><time>2026-05-01T09:55:30.917Z</time></trkpt><trkpt lat="42.5250115" lon="12.5129547"><ele>100.5</ele><time>2026-05-01T09:55:31.917Z</time></trkpt><trkpt lat="42.5248815" lon="12.5129383"><ele>99.75</ele><time>2026-05-01T09:55:32.917Z</time></trkpt><trkpt lat="42.5247659" lon="12.5129138"><ele>99.0</ele><time>2026-05-01T09:55:33.917Z</time></trkpt><trkpt lat="42.524674" lon="12.5128891"><ele>98.66666666666667</ele><time>2026-05-01T09:55:34.916Z</time></trkpt><trkpt lat="42.5245989" lon="12.5128749"><ele>98.33333333333334</ele><time>2026-05-01T09:55:35.916Z</time></trkpt><trkpt lat="42.5244892" lon="12.5128529"><ele>98.0</ele><time>2026-05-01T09:55:37.916Z</time></trkpt><trkpt lat="42.5244218" lon="12.5128353"><ele>97.66666666666667</ele><time>2026-05-01T09:55:39.917Z</time></trkpt><trkpt lat="42.5243435" lon="12.5128273"><ele>97.33333333333334</ele><time>2026-05-01T09:55:42.917Z</time></trkpt><trkpt lat="42.5242957" lon="12.5129471"><ele>97.0</ele><time>2026-05-01T09:55:44.917Z</time></trkpt><trkpt lat="42.5243414" lon="12.5131024"><ele>104.50000000000001</ele><time>2026-05-01T09:55:46.917Z</time></trkpt><trkpt lat="42.5243752" lon="12.5131953"><ele>112.0</ele><time>2026-05-01T09:55:47.917Z</time></trkpt><trkpt lat="42.524419" lon="12.5132871"><ele>119.5</ele><time>2026-05-01T09:55:48.917Z</time></trkpt><trkpt lat="42.5244575" lon="12.5133954"><ele>127.0</ele><time>2026-05-01T09:55:49.916Z</time></trkpt><trkpt lat="42.5244899" lon="12.5134854"><ele>134.5</ele><time>2026-05-01T09:55:50.917Z</time></trkpt><trkpt lat="42.5245183" lon="12.513586"><ele>142.0</ele><time>2026-05-01T09:55:51.917Z</time></trkpt><trkpt lat="42.5245455" lon="12.5136852"><ele>143.2</ele><time>2026-05-01T09:55:52.916Z</time></trkpt><trkpt lat="42.524555" lon="12.5138022"><ele>144.39999999999998</ele><time>2026-05-01T09:55:53.917Z</time></trkpt><trkpt lat="42.5245677" lon="12.5139255"><ele>145.60000000000002</ele><time>2026-05-01T09:55:54.917Z</time></trkpt><trkpt lat="42.5245981" lon="12.5140457"><ele>146.8</ele><time>2026-05-01T09:55:55.917Z</time></trkpt><trkpt lat="42.5246198" lon="12.5141732"><ele>148.0</ele><time>2026-05-01T09:55:56.917Z</time></trkpt><trkpt lat="42.5246338" lon="12.5143142"><ele>138.6</ele><time>2026-05-01T09:55:57.917Z</time></trkpt><trkpt lat="42.5246365" lon="12.5144659"><ele>129.20000000000002</ele><time>2026-05-01T09:55:58.917Z</time></trkpt><trkpt lat="42.5246333" lon="12.5146079"><ele>119.8</ele><time>2026-05-01T09:55:59.916Z</time></trkpt><trkpt lat="42.5246185" lon="12.5147569"><ele>110.4</ele><time>2026-05-01T09:56:00.916Z</time></trkpt><trkpt lat="42.5245896" lon="12.5149061"><ele>101.0</ele><time>2026-05-01T09:56:01.917Z</time></trkpt><trkpt lat="42.5245687" lon="12.5150619"><ele>107.75</ele><time>2026-05-01T09:56:02.917Z</time></trkpt><trkpt lat="42.5245409" lon="12.5152089"><ele>114.5</ele><time>2026-05-01T09:56:03.916Z</time></trkpt><trkpt lat="42.5245202" lon="12.5153624"><ele>121.25</ele><time>2026-05-01T09:56:04.917Z</time></trkpt><trkpt lat="42.5244875" lon="12.5155281"><ele>128.0</ele><time>2026-05-01T09:56:05.917Z</time></trkpt><trkpt lat="42.5244494" lon="12.51568"><ele>128.0</ele><time>2026-05-01T09:56:06.917Z</time></trkpt><trkpt lat="42.5244131" lon="12.5158426"><ele>128.0</ele><time>2026-05-01T09:56:07.917Z</time></trkpt><trkpt lat="42.5243625" lon="12.5160024"><ele>128.0</ele><time>2026-05-01T09:56:08.917Z</time></trkpt><trkpt lat="42.5243092" lon="12.516157"><ele>128.0</ele><time>2026-05-01T09:56:09.917Z</time></trkpt><trkpt lat="42.524241" lon="12.5162938"><ele>124.5</ele><time>2026-05-01T09:56:10.917Z</time></trkpt><trkpt lat="42.5241668" lon="12.5164103"><ele>121.0</ele><time>2026-05-01T09:56:11.917Z</time></trkpt><trkpt lat="42.5240612" lon="12.5165107"><ele>117.5</ele><time>2026-05-01T09:56:12.916Z</time></trkpt><trkpt lat="42.5239495" lon="12.5165896"><ele>114.0</ele><time>2026-05-01T09:56:13.917Z</time></trkpt><trkpt lat="42.5238433" lon="12.5166721"><ele>114.0</ele><time>2026-05-01T09:56:14.916Z</time></trkpt><trkpt lat="42.52374" lon="12.5167502"><ele>114.0</ele><time>2026-05-01T09:56:15.917Z</time></trkpt><trkpt lat="42.5236399" lon="12.5168287"><ele>114.0</ele><time>2026-05-01T09:56:16.917Z</time></trkpt><trkpt lat="42.5235473" lon="12.5169058"><ele>114.0</ele><time>2026-05-01T09:56:17.917Z</time></trkpt><trkpt lat="42.5234498" lon="12.5169864"><ele>114.4</ele><time>2026-05-01T09:56:18.916Z</time></trkpt><trkpt lat="42.5233536" lon="12.5170578"><ele>114.80000000000001</ele><time>2026-05-01T09:56:19.917Z</time></trkpt><trkpt lat="42.5232567" lon="12.5171263"><ele>115.19999999999999</ele><time>2026-05-01T09:56:20.916Z</time></trkpt><trkpt lat="42.5231571" lon="12.5171961"><ele>115.6</ele><time>2026-05-01T09:56:21.917Z</time></trkpt><trkpt lat="42.5230599" lon="12.5172715"><ele>116.0</ele><time>2026-05-01T09:56:22.917Z</time></trkpt><trkpt lat="42.5229604" lon="12.5173504"><ele>118.75</ele><time>2026-05-01T09:56:23.917Z</time></trkpt><trkpt lat="42.5228546" lon="12.5174348"><ele>121.5</ele><time>2026-05-01T09:56:24.917Z</time></trkpt><trkpt lat="42.5227446" lon="12.5175067"><ele>124.25</ele><time>2026-05-01T09:56:25.916Z</time></trkpt><trkpt lat="42.5226377" lon="12.5175925"><ele>127.0</ele><time>2026-05-01T09:56:26.917Z</time></trkpt><trkpt lat="42.5225313" lon="12.5176815"><ele>127.0</ele><time>2026-05-01T09:56:27.917Z</time></trkpt><trkpt lat="42.5224184" lon="12.517773"><ele>127.0</ele><time>2026-05-01T09:56:28.917Z</time></trkpt><trkpt lat="42.5223102" lon="12.5178693"><ele>127.0</ele><time>2026-05-01T09:56:29.916Z</time></trkpt><trkpt lat="42.5222036" lon="12.5179772"><ele>127.0</ele><time>2026-05-01T09:56:30.917Z</time></trkpt><trkpt lat="42.522088" lon="12.5181015"><ele>127.0</ele><time>2026-05-01T09:56:31.917Z</time></trkpt><trkpt lat="42.5219656" lon="12.5182722"><ele>127.0</ele><time>2026-05-01T09:56:32.916Z</time></trkpt><trkpt lat="42.5218428" lon="12.5184629"><ele>127.0</ele><time>2026-05-01T09:56:33.917Z</time></trkpt><trkpt lat="42.5217146" lon="12.5186646"><ele>124.66666666666667</ele><time>2026-05-01T09:56:34.917Z</time></trkpt><trkpt lat="42.5215724" lon="12.518876"><ele>122.33333333333334</ele><time>2026-05-01T09:56:35.917Z</time></trkpt><trkpt lat="42.521429" lon="12.5190759"><ele>120.0</ele><time>2026-05-01T09:56:36.916Z</time></trkpt><trkpt lat="42.5212908" lon="12.5192323"><ele>123.0</ele><time>2026-05-01T09:56:37.916Z</time></trkpt><trkpt lat="42.5211717" lon="12.5193652"><ele>126.0</ele><time>2026-05-01T09:56:38.916Z</time></trkpt><trkpt lat="42.5210591" lon="12.519496"><ele>129.0</ele><time>2026-05-01T09:56:39.917Z</time></trkpt><trkpt lat="42.5209705" lon="12.5196409"><ele>132.0</ele><time>2026-05-01T09:56:40.917Z</time></trkpt><trkpt lat="42.5208882" lon="12.5197931"><ele>132.0</ele><time>2026-05-01T09:56:41.916Z</time></trkpt><trkpt lat="42.5208238" lon="12.5199465"><ele>132.0</ele><time>2026-05-01T09:56:42.917Z</time></trkpt><trkpt lat="42.5207613" lon="12.5201028"><ele>132.0</ele><time>2026-05-01T09:56:43.917Z</time></trkpt><trkpt lat="42.5207045" lon="12.5202592"><ele>132.0</ele><time>2026-05-01T09:56:44.917Z</time></trkpt><trkpt lat="42.5206519" lon="12.5204235"><ele>130.25</ele><time>2026-05-01T09:56:45.917Z</time></trkpt><trkpt lat="42.5205971" lon="12.5205737"><ele>128.5</ele><time>2026-05-01T09:56:46.917Z</time></trkpt><trkpt lat="42.5205402" lon="12.5207092"><ele>126.75</ele><time>2026-05-01T09:56:47.916Z</time></trkpt><trkpt lat="42.5204589" lon="12.5208447"><ele>125.0</ele><time>2026-05-01T09:56:48.916Z</time></trkpt><trkpt lat="42.5203416" lon="12.5209689"><ele>128.5</ele><time>2026-05-01T09:56:49.917Z</time></trkpt><trkpt lat="42.5201995" lon="12.5210774"><ele>132.0</ele><time>2026-05-01T09:56:50.917Z</time></trkpt><trkpt lat="42.5200771" lon="12.521159"><ele>135.5</ele><time>2026-05-01T09:56:51.917Z</time></trkpt><trkpt lat="42.5199585" lon="12.5212182"><ele>139.0</ele><time>2026-05-01T09:56:52.917Z</time></trkpt><trkpt lat="42.5198522" lon="12.5212651"><ele>139.4</ele><time>2026-05-01T09:56:53.916Z</time></trkpt><trkpt lat="42.5197642" lon="12.5213117"><ele>139.8</ele><time>2026-05-01T09:56:54.917Z</time></trkpt><trkpt lat="42.5196825" lon="12.521342"><ele>140.2</ele><time>2026-05-01T09:56:55.916Z</time></trkpt><trkpt lat="42.5195949" lon="12.5213704"><ele>140.6</ele><time>2026-05-01T09:56:56.917Z</time></trkpt><trkpt lat="42.5195191" lon="12.521391"><ele>141.0</ele><time>2026-05-01T09:56:57.916Z</time></trkpt><trkpt lat="42.5194448" lon="12.5215274"><ele>141.0</ele><time>2026-05-01T09:56:59.916Z</time></trkpt><trkpt lat="42.5194468" lon="12.5216196"><ele>141.0</ele><time>2026-05-01T09:57:00.917Z</time></trkpt><trkpt lat="42.5194894" lon="12.5217215"><ele>141.0</ele><time>2026-05-01T09:57:01.917Z</time></trkpt><trkpt lat="42.5195687" lon="12.5218011"><ele>141.0</ele><time>2026-05-01T09:57:02.917Z</time></trkpt><trkpt lat="42.519688" lon="12.5218298"><ele>141.0</ele><time>2026-05-01T09:57:03.917Z</time></trkpt><trkpt lat="42.51981" lon="12.5218256"><ele>141.0</ele><time>2026-05-01T09:57:04.916Z</time></trkpt><trkpt lat="42.5199292" lon="12.5218149"><ele>141.0</ele><time>2026-05-01T09:57:05.917Z</time></trkpt><trkpt lat="42.5200495" lon="12.5218016"><ele>141.0</ele><time>2026-05-01T09:57:06.917Z</time></trkpt><trkpt lat="42.5201676" lon="12.5217815"><ele>141.0</ele><time>2026-05-01T09:57:07.917Z</time></trkpt><trkpt lat="42.5202807" lon="12.5217693"><ele>141.0</ele><time>2026-05-01T09:57:08.916Z</time></trkpt><trkpt lat="42.5203727" lon="12.5217737"><ele>141.0</ele><time>2026-05-01T09:57:09.917Z</time></trkpt><trkpt lat="42.5204535" lon="12.5217881"><ele>141.0</ele><time>2026-05-01T09:57:10.916Z</time></trkpt><trkpt lat="42.5205297" lon="12.5218314"><ele>141.0</ele><time>2026-05-01T09:57:11.917Z</time></trkpt><trkpt lat="42.5205936" lon="12.5219059"><ele>141.0</ele><time>2026-05-01T09:57:12.917Z</time></trkpt><trkpt lat="42.5206398" lon="12.5220185"><ele>141.0</ele><time>2026-05-01T09:57:13.917Z</time></trkpt><trkpt lat="42.5206457" lon="12.5221597"><ele>138.75</ele><time>2026-05-01T09:57:14.917Z</time></trkpt><trkpt lat="42.520637" lon="12.5223009"><ele>136.5</ele><time>2026-05-01T09:57:15.916Z</time></trkpt><trkpt lat="42.5205976" lon="12.5224477"><ele>134.25</ele><time>2026-05-01T09:57:16.916Z</time></trkpt><trkpt lat="42.5205462" lon="12.522599"><ele>132.0</ele><time>2026-05-01T09:57:17.917Z</time></trkpt><trkpt lat="42.5204867" lon="12.5227665"><ele>131.5</ele><time>2026-05-01T09:57:18.917Z</time></trkpt><trkpt lat="42.5204288" lon="12.5229181"><ele>131.0</ele><time>2026-05-01T09:57:19.917Z</time></trkpt><trkpt lat="42.5203657" lon="12.5230707"><ele>130.5</ele><time>2026-05-01T09:57:20.917Z</time></trkpt><trkpt lat="42.5203054" lon="12.5232263"><ele>130.0</ele><time>2026-05-01T09:57:21.916Z</time></trkpt><trkpt lat="42.5202544" lon="12.5233682"><ele>132.83333333333334</ele><time>2026-05-01T09:57:22.916Z</time></trkpt><trkpt lat="42.5202083" lon="12.5234887"><ele>135.66666666666669</ele><time>2026-05-01T09:57:23.916Z</time></trkpt><trkpt lat="42.5201698" lon="12.5235915"><ele>138.5</ele><time>2026-05-01T09:57:24.916Z</time></trkpt><trkpt lat="42.5201274" lon="12.5236925"><ele>141.33333333333334</ele><time>2026-05-01T09:57:25.917Z</time></trkpt><trkpt lat="42.5200895" lon="12.5237868"><ele>144.16666666666666</ele><time>2026-05-01T09:57:26.917Z</time></trkpt><trkpt lat="42.5200525" lon="12.5238892"><ele>147.0</ele><time>2026-05-01T09:57:27.917Z</time></trkpt><trkpt lat="42.5200093" lon="12.5239786"><ele>147.0</ele><time>2026-05-01T09:57:28.917Z</time></trkpt><trkpt lat="42.5199702" lon="12.5240686"><ele>147.0</ele><time>2026-05-01T09:57:29.917Z</time></trkpt><trkpt lat="42.5199361" lon="12.5241586"><ele>147.0</ele><time>2026-05-01T09:57:30.917Z</time></trkpt><trkpt lat="42.5198969" lon="12.5242588"><ele>147.0</ele><time>2026-05-01T09:57:31.916Z</time></trkpt><trkpt lat="42.5198527" lon="12.5243731"><ele>147.0</ele><time>2026-05-01T09:57:32.917Z</time></trkpt><trkpt lat="42.5198078" lon="12.524487"><ele>147.0</ele><time>2026-05-01T09:57:33.916Z</time></trkpt><trkpt lat="42.5197535" lon="12.5245899"><ele>147.66666666666666</ele><time>2026-05-01T09:57:34.917Z</time></trkpt><trkpt lat="42.5196917" lon="12.5246773"><ele>148.33333333333334</ele><time>2026-05-01T09:57:35.917Z</time></trkpt><trkpt lat="42.5196234" lon="12.524753"><ele>149.0</ele><time>2026-05-01T09:57:36.917Z</time></trkpt><trkpt lat="42.519566" lon="12.5248035"><ele>149.66666666666669</ele><time>2026-05-01T09:57:37.916Z</time></trkpt><trkpt lat="42.5195123" lon="12.5248592"><ele>150.33333333333334</ele><time>2026-05-01T09:57:38.917Z</time></trkpt><trkpt lat="42.5194238" lon="12.5249492"><ele>151.0</ele><time>2026-05-01T09:57:40.916Z</time></trkpt><trkpt lat="42.5193472" lon="12.5250242"><ele>151.0</ele><time>2026-05-01T09:57:42.917Z</time></trkpt><trkpt lat="42.5192754" lon="12.5250906"><ele>151.0</ele><time>2026-05-01T09:57:44.917Z</time></trkpt><trkpt lat="42.5192116" lon="12.5251521"><ele>151.0</ele><time>2026-05-01T09:57:46.917Z</time></trkpt><trkpt lat="42.5191465" lon="12.5252125"><ele>151.0</ele><time>2026-05-01T09:57:48.917Z</time></trkpt><trkpt lat="42.5190425" lon="12.5253509"><ele>151.0</ele><time>2026-05-01T09:58:01.916Z</time></trkpt><trkpt lat="42.5190601" lon="12.5255161"><ele>150.2857142857143</ele><time>2026-05-01T09:58:03.917Z</time></trkpt><trkpt lat="42.5190937" lon="12.5255967"><ele>149.57142857142858</ele><time>2026-05-01T09:58:04.917Z</time></trkpt><trkpt lat="42.5191326" lon="12.5256708"><ele>148.85714285714286</ele><time>2026-05-01T09:58:05.917Z</time></trkpt><trkpt lat="42.5191705" lon="12.5257472"><ele>148.14285714285717</ele><time>2026-05-01T09:58:06.917Z</time></trkpt><trkpt lat="42.5192171" lon="12.525828"><ele>147.42857142857144</ele><time>2026-05-01T09:58:07.916Z</time></trkpt><trkpt lat="42.5192587" lon="12.5259106"><ele>146.71428571428572</ele><time>2026-05-01T09:58:08.917Z</time></trkpt><trkpt lat="42.5193043" lon="12.5259975"><ele>146.0</ele><time>2026-05-01T09:58:09.917Z</time></trkpt><trkpt lat="42.5193492" lon="12.5261023"><ele>146.0</ele><time>2026-05-01T09:58:10.916Z</time></trkpt><trkpt lat="42.5193908" lon="12.5262054"><ele>146.0</ele><time>2026-05-01T09:58:11.916Z</time></trkpt><trkpt lat="42.5194348" lon="12.5263116"><ele>146.0</ele><time>2026-05-01T09:58:12.917Z</time></trkpt><trkpt lat="42.5194787" lon="12.526422"><ele>146.0</ele><time>2026-05-01T09:58:13.917Z</time></trkpt><trkpt lat="42.5195146" lon="12.5265418"><ele>146.0</ele><time>2026-05-01T09:58:14.917Z</time></trkpt><trkpt lat="42.5195501" lon="12.5266723"><ele>146.0</ele><time>2026-05-01T09:58:15.917Z</time></trkpt><trkpt lat="42.5195731" lon="12.5268226"><ele>146.0</ele><time>2026-05-01T09:58:16.916Z</time></trkpt><trkpt lat="42.519582" lon="12.5269796"><ele>146.0</ele><time>2026-05-01T09:58:17.916Z</time></trkpt><trkpt lat="42.5195703" lon="12.5271333"><ele>146.0</ele><time>2026-05-01T09:58:18.917Z</time></trkpt><trkpt lat="42.5195649" lon="12.5272859"><ele>143.8</ele><time>2026-05-01T09:58:19.916Z</time></trkpt><trkpt lat="42.5195694" lon="12.5274295"><ele>141.6</ele><time>2026-05-01T09:58:20.917Z</time></trkpt><trkpt lat="42.5195743" lon="12.5275703"><ele>139.4</ele><time>2026-05-01T09:58:21.917Z</time></trkpt><trkpt lat="42.5195838" lon="12.5277225"><ele>137.2</ele><time>2026-05-01T09:58:22.917Z</time></trkpt><trkpt lat="42.5195928" lon="12.5278785"><ele>135.0</ele><time>2026-05-01T09:58:23.917Z</time></trkpt><trkpt lat="42.5195999" lon="12.5280472"><ele>134.25</ele><time>2026-05-01T09:58:24.916Z</time></trkpt><trkpt lat="42.519606" lon="12.5282349"><ele>133.5</ele><time>2026-05-01T09:58:25.917Z</time></trkpt><trkpt lat="42.5196107" lon="12.5284365"><ele>132.75</ele><time>2026-05-01T09:58:26.917Z</time></trkpt><trkpt lat="42.5196164" lon="12.5286455"><ele>132.0</ele><time>2026-05-01T09:58:27.917Z</time></trkpt><trkpt lat="42.5196227" lon="12.5288581"><ele>131.0</ele><time>2026-05-01T09:58:28.917Z</time></trkpt><trkpt lat="42.5196357" lon="12.5290644"><ele>130.0</ele><time>2026-05-01T09:58:29.916Z</time></trkpt><trkpt lat="42.5196736" lon="12.5292513"><ele>129.0</ele><time>2026-05-01T09:58:30.917Z</time></trkpt><trkpt lat="42.5197455" lon="12.5294143"><ele>128.0</ele><time>2026-05-01T09:58:31.916Z</time></trkpt><trkpt lat="42.519849" lon="12.5295516"><ele>128.5</ele><time>2026-05-01T09:58:32.917Z</time></trkpt><trkpt lat="42.5199712" lon="12.5296738"><ele>129.0</ele><time>2026-05-01T09:58:33.917Z</time></trkpt><trkpt lat="42.5200934" lon="12.5297968"><ele>129.5</ele><time>2026-05-01T09:58:34.917Z</time></trkpt><trkpt lat="42.5202014" lon="12.5299259"><ele>130.0</ele><time>2026-05-01T09:58:35.917Z</time></trkpt><trkpt lat="42.5202727" lon="12.5300807"><ele>130.0</ele><time>2026-05-01T09:58:36.917Z</time></trkpt><trkpt lat="42.5202926" lon="12.5302438"><ele>130.0</ele><time>2026-05-01T09:58:37.917Z</time></trkpt><trkpt lat="42.5202791" lon="12.5304185"><ele>130.0</ele><time>2026-05-01T09:58:38.916Z</time></trkpt><trkpt lat="42.5202462" lon="12.5306092"><ele>130.0</ele><time>2026-05-01T09:58:39.916Z</time></trkpt><trkpt lat="42.5201983" lon="12.5308258"><ele>130.0</ele><time>2026-05-01T09:58:40.917Z</time></trkpt><trkpt lat="42.5201498" lon="12.5310493"><ele>130.0</ele><time>2026-05-01T09:58:41.917Z</time></trkpt><trkpt lat="42.5201094" lon="12.5312747"><ele>130.0</ele><time>2026-05-01T09:58:42.917Z</time></trkpt><trkpt lat="42.5200632" lon="12.5314819"><ele>127.25</ele><time>2026-05-01T09:58:43.917Z</time></trkpt><trkpt lat="42.5200281" lon="12.5316881"><ele>124.5</ele><time>2026-05-01T09:58:44.917Z</time></trkpt><trkpt lat="42.5200033" lon="12.5318774"><ele>121.75</ele><time>2026-05-01T09:58:45.917Z</time></trkpt><trkpt lat="42.5199841" lon="12.5320504"><ele>119.0</ele><time>2026-05-01T09:58:46.916Z</time></trkpt><trkpt lat="42.5199732" lon="12.5322202"><ele>117.75</ele><time>2026-05-01T09:58:47.916Z</time></trkpt><trkpt lat="42.5199616" lon="12.5324061"><ele>116.5</ele><time>2026-05-01T09:58:48.917Z</time></trkpt><trkpt lat="42.5199469" lon="12.5325956"><ele>115.25</ele><time>2026-05-01T09:58:49.916Z</time></trkpt><trkpt lat="42.5199596" lon="12.5327891"><ele>114.0</ele><time>2026-05-01T09:58:50.916Z</time></trkpt><trkpt lat="42.519974" lon="12.5329721"><ele>113.25</ele><time>2026-05-01T09:58:51.916Z</time></trkpt><trkpt lat="42.5199944" lon="12.533152"><ele>112.5</ele><time>2026-05-01T09:58:52.916Z</time></trkpt><trkpt lat="42.5200123" lon="12.5333205"><ele>111.75</ele><time>2026-05-01T09:58:53.917Z</time></trkpt><trkpt lat="42.5200311" lon="12.5334955"><ele>111.0</ele><time>2026-05-01T09:58:54.916Z</time></trkpt><trkpt lat="42.52005" lon="12.5336588"><ele>110.6</ele><time>2026-05-01T09:58:55.917Z</time></trkpt><trkpt lat="42.5200683" lon="12.5338211"><ele>110.19999999999999</ele><time>2026-05-01T09:58:56.916Z</time></trkpt><trkpt lat="42.5200865" lon="12.5339748"><ele>109.80000000000001</ele><time>2026-05-01T09:58:57.917Z</time></trkpt><trkpt lat="42.5200967" lon="12.5341158"><ele>109.4</ele><time>2026-05-01T09:58:58.916Z</time></trkpt><trkpt lat="42.5201129" lon="12.534249"><ele>109.0</ele><time>2026-05-01T09:58:59.917Z</time></trkpt><trkpt lat="42.5201279" lon="12.5343967"><ele>109.0</ele><time>2026-05-01T09:59:00.917Z</time></trkpt><trkpt lat="42.520145" lon="12.5345402"><ele>109.0</ele><time>2026-05-01T09:59:01.917Z</time></trkpt><trkpt lat="42.5201705" lon="12.5346775"><ele>109.0</ele><time>2026-05-01T09:59:02.917Z</time></trkpt><trkpt lat="42.5201987" lon="12.5348043"><ele>109.0</ele><time>2026-05-01T09:59:03.917Z</time></trkpt><trkpt lat="42.5202423" lon="12.5349271"><ele>109.0</ele><time>2026-05-01T09:59:04.916Z</time></trkpt><trkpt lat="42.5202908" lon="12.5350315"><ele>108.80000000000001</ele><time>2026-05-01T09:59:05.917Z</time></trkpt><trkpt lat="42.5203564" lon="12.5351267"><ele>108.60000000000001</ele><time>2026-05-01T09:59:06.916Z</time></trkpt><trkpt lat="42.5204292" lon="12.5352003"><ele>108.4</ele><time>2026-05-01T09:59:07.917Z</time></trkpt><trkpt lat="42.5204966" lon="12.5352818"><ele>108.2</ele><time>2026-05-01T09:59:08.917Z</time></trkpt><trkpt lat="42.5205727" lon="12.5353619"><ele>108.0</ele><time>2026-05-01T09:59:09.917Z</time></trkpt><trkpt lat="42.5206558" lon="12.5354547"><ele>106.80000000000001</ele><time>2026-05-01T09:59:10.917Z</time></trkpt><trkpt lat="42.5207503" lon="12.535554"><ele>105.60000000000001</ele><time>2026-05-01T09:59:11.917Z</time></trkpt><trkpt lat="42.5208477" lon="12.5356384"><ele>104.4</ele><time>2026-05-01T09:59:12.917Z</time></trkpt><trkpt lat="42.5209473" lon="12.5357124"><ele>103.19999999999999</ele><time>2026-05-01T09:59:13.917Z</time></trkpt><trkpt lat="42.5210321" lon="12.535772"><ele>102.0</ele><time>2026-05-01T09:59:14.917Z</time></trkpt><trkpt lat="42.5211173" lon="12.5358295"><ele>102.0</ele><time>2026-05-01T09:59:15.917Z</time></trkpt><trkpt lat="42.5211998" lon="12.5358901"><ele>102.0</ele><time>2026-05-01T09:59:16.917Z</time></trkpt><trkpt lat="42.5212851" lon="12.5359516"><ele>102.0</ele><time>2026-05-01T09:59:17.916Z</time></trkpt><trkpt lat="42.5213782" lon="12.5360077"><ele>102.0</ele><time>2026-05-01T09:59:18.917Z</time></trkpt><trkpt lat="42.5214804" lon="12.5360642"><ele>102.0</ele><time>2026-05-01T09:59:19.916Z</time></trkpt><trkpt lat="42.5215847" lon="12.5361029"><ele>101.75</ele><time>2026-05-01T09:59:20.917Z</time></trkpt><trkpt lat="42.5217028" lon="12.5361405"><ele>101.5</ele><time>2026-05-01T09:59:21.916Z</time></trkpt><trkpt lat="42.5218187" lon="12.5361824"><ele>101.25</ele><time>2026-05-01T09:59:22.916Z</time></trkpt><trkpt lat="42.521949" lon="12.5362259"><ele>101.0</ele><time>2026-05-01T09:59:23.916Z</time></trkpt><trkpt lat="42.5220763" lon="12.5362581"><ele>100.4</ele><time>2026-05-01T09:59:24.917Z</time></trkpt><trkpt lat="42.5221972" lon="12.5362838"><ele>99.8</ele><time>2026-05-01T09:59:25.916Z</time></trkpt><trkpt lat="42.5223076" lon="12.5363172"><ele>99.2</ele><time>2026-05-01T09:59:26.917Z</time></trkpt><trkpt lat="42.5224048" lon="12.5363436"><ele>98.60000000000001</ele><time>2026-05-01T09:59:27.916Z</time></trkpt><trkpt lat="42.5224972" lon="12.5363735"><ele>98.0</ele><time>2026-05-01T09:59:28.917Z</time></trkpt><trkpt lat="42.5225791" lon="12.5363958"><ele>98.0</ele><time>2026-05-01T09:59:29.917Z</time></trkpt><trkpt lat="42.5226608" lon="12.5364105"><ele>98.0</ele><time>2026-05-01T09:59:30.917Z</time></trkpt><trkpt lat="42.5227467" lon="12.5364356"><ele>98.0</ele><time>2026-05-01T09:59:31.917Z</time></trkpt><trkpt lat="42.5228458" lon="12.5364757"><ele>98.0</ele><time>2026-05-01T09:59:32.917Z</time></trkpt><trkpt lat="42.5229618" lon="12.5365256"><ele>98.0</ele><time>2026-05-01T09:59:33.917Z</time></trkpt><trkpt lat="42.5230767" lon="12.5365843"><ele>98.0</ele><time>2026-05-01T09:59:34.917Z</time></trkpt><trkpt lat="42.5231991" lon="12.5366578"><ele>98.0</ele><time>2026-05-01T09:59:35.917Z</time></trkpt><trkpt lat="42.5233277" lon="12.5367447"><ele>98.0</ele><time>2026-05-01T09:59:36.917Z</time></trkpt><trkpt lat="42.5234617" lon="12.5368425"><ele>98.0</ele><time>2026-05-01T09:59:37.917Z</time></trkpt><trkpt lat="42.5235991" lon="12.5369463"><ele>98.0</ele><time>2026-05-01T09:59:38.917Z</time></trkpt><trkpt lat="42.523741" lon="12.5370603"><ele>98.0</ele><time>2026-05-01T09:59:39.916Z</time></trkpt><trkpt lat="42.5238803" lon="12.5371766"><ele>98.0</ele><time>2026-05-01T09:59:40.917Z</time></trkpt><trkpt lat="42.5240283" lon="12.5372868"><ele>98.0</ele><time>2026-05-01T09:59:41.917Z</time></trkpt><trkpt lat="42.5241581" lon="12.5373899"><ele>98.0</ele><time>2026-05-01T09:59:42.917Z</time></trkpt><trkpt lat="42.52428" lon="12.537494"><ele>98.0</ele><time>2026-05-01T09:59:43.917Z</time></trkpt><trkpt lat="42.5244014" lon="12.537591"><ele>98.0</ele><time>2026-05-01T09:59:44.917Z</time></trkpt><trkpt lat="42.5245124" lon="12.5376857"><ele>98.5</ele><time>2026-05-01T09:59:45.916Z</time></trkpt><trkpt lat="42.5246282" lon="12.5377825"><ele>99.0</ele><time>2026-05-01T09:59:46.917Z</time></trkpt><trkpt lat="42.5247457" lon="12.5378746"><ele>99.5</ele><time>2026-05-01T09:59:47.917Z</time></trkpt><trkpt lat="42.5248526" lon="12.5379639"><ele>100.0</ele><time>2026-05-01T09:59:48.917Z</time></trkpt><trkpt lat="42.5249549" lon="12.5380497"><ele>100.0</ele><time>2026-05-01T09:59:49.917Z</time></trkpt><trkpt lat="42.5250503" lon="12.5381309"><ele>100.0</ele><time>2026-05-01T09:59:50.917Z</time></trkpt><trkpt lat="42.5251416" lon="12.5382093"><ele>100.0</ele><time>2026-05-01T09:59:51.917Z</time></trkpt><trkpt lat="42.5252358" lon="12.5382896"><ele>100.0</ele><time>2026-05-01T09:59:52.917Z</time></trkpt><trkpt lat="42.5253212" lon="12.5383549"><ele>100.0</ele><time>2026-05-01T09:59:53.916Z</time></trkpt><trkpt lat="42.5254157" lon="12.5384491"><ele>100.0</ele><time>2026-05-01T09:59:54.917Z</time></trkpt><trkpt lat="42.5255122" lon="12.5385538"><ele>100.0</ele><time>2026-05-01T09:59:55.917Z</time></trkpt><trkpt lat="42.5256149" lon="12.5386651"><ele>100.0</ele><time>2026-05-01T09:59:56.916Z</time></trkpt><trkpt lat="42.5257277" lon="12.5387899"><ele>100.0</ele><time>2026-05-01T09:59:57.917Z</time></trkpt><trkpt lat="42.5258404" lon="12.5389161"><ele>102.0</ele><time>2026-05-01T09:59:58.917Z</time></trkpt><trkpt lat="42.5259563" lon="12.5390439"><ele>104.0</ele><time>2026-05-01T09:59:59.917Z</time></trkpt><trkpt lat="42.5260845" lon="12.5391643"><ele>106.0</ele><time>2026-05-01T10:00:00.916Z</time></trkpt><trkpt lat="42.5262127" lon="12.5392939"><ele>103.33333333333334</ele><time>2026-05-01T10:00:01.916Z</time></trkpt><trkpt lat="42.5263325" lon="12.5394219"><ele>100.66666666666666</ele><time>2026-05-01T10:00:02.916Z</time></trkpt><trkpt lat="42.5264469" lon="12.5395478"><ele>98.0</ele><time>2026-05-01T10:00:03.917Z</time></trkpt><trkpt lat="42.5265654" lon="12.5396735"><ele>98.0</ele><time>2026-05-01T10:00:04.917Z</time></trkpt><trkpt lat="42.5266809" lon="12.5398009"><ele>98.0</ele><time>2026-05-01T10:00:05.917Z</time></trkpt><trkpt lat="42.5267989" lon="12.5399186"><ele>98.0</ele><time>2026-05-01T10:00:06.917Z</time></trkpt><trkpt lat="42.5269146" lon="12.5400459"><ele>98.0</ele><time>2026-05-01T10:00:07.917Z</time></trkpt><trkpt lat="42.5270344" lon="12.5401694"><ele>97.5</ele><time>2026-05-01T10:00:08.917Z</time></trkpt><trkpt lat="42.5271499" lon="12.5402891"><ele>97.0</ele><time>2026-05-01T10:00:09.917Z</time></trkpt><trkpt lat="42.5272664" lon="12.5404049"><ele>96.5</ele><time>2026-05-01T10:00:10.917Z</time></trkpt><trkpt lat="42.5273853" lon="12.5405237"><ele>96.0</ele><time>2026-05-01T10:00:11.917Z</time></trkpt><trkpt lat="42.527496" lon="12.5406471"><ele>96.0</ele><time>2026-05-01T10:00:12.916Z</time></trkpt><trkpt lat="42.5276114" lon="12.5407653"><ele>96.0</ele><time>2026-05-01T10:00:13.916Z</time></trkpt><trkpt lat="42.5277199" lon="12.5408925"><ele>96.0</ele><time>2026-05-01T10:00:14.916Z</time></trkpt><trkpt lat="42.5278258" lon="12.5410154"><ele>96.0</ele><time>2026-05-01T10:00:15.917Z</time></trkpt><trkpt lat="42.5279335" lon="12.5411245"><ele>96.0</ele><time>2026-05-01T10:00:16.917Z</time></trkpt><trkpt lat="42.5280302" lon="12.541224"><ele>96.0</ele><time>2026-05-01T10:00:17.916Z</time></trkpt><trkpt lat="42.528118" lon="12.5413188"><ele>96.0</ele><time>2026-05-01T10:00:18.916Z</time></trkpt><trkpt lat="42.5282059" lon="12.5414252"><ele>96.0</ele><time>2026-05-01T10:00:19.916Z</time></trkpt><trkpt lat="42.5282983" lon="12.5415181"><ele>96.0</ele><time>2026-05-01T10:00:20.916Z</time></trkpt><trkpt lat="42.5283921" lon="12.541605"><ele>96.0</ele><time>2026-05-01T10:00:21.917Z</time></trkpt><trkpt lat="42.5284751" lon="12.5416899"><ele>96.0</ele><time>2026-05-01T10:00:22.917Z</time></trkpt><trkpt lat="42.528548" lon="12.5417678"><ele>96.0</ele><time>2026-05-01T10:00:23.917Z</time></trkpt><trkpt lat="42.5286097" lon="12.54185"><ele>96.0</ele><time>2026-05-01T10:00:24.917Z</time></trkpt><trkpt lat="42.5286665" lon="12.5419234"><ele>96.0</ele><time>2026-05-01T10:00:25.916Z</time></trkpt><trkpt lat="42.528719" lon="12.5419869"><ele>96.0</ele><time>2026-05-01T10:00:26.917Z</time></trkpt><trkpt lat="42.5287683" lon="12.5420741"><ele>96.0</ele><time>2026-05-01T10:00:27.917Z</time></trkpt><trkpt lat="42.5288216" lon="12.5421584"><ele>96.0</ele><time>2026-05-01T10:00:28.917Z</time></trkpt><trkpt lat="42.5288765" lon="12.5422524"><ele>96.0</ele><time>2026-05-01T10:00:29.917Z</time></trkpt><trkpt lat="42.5289174" lon="12.5423437"><ele>96.0</ele><time>2026-05-01T10:00:30.917Z</time></trkpt><trkpt lat="42.5289514" lon="12.5424458"><ele>96.0</ele><time>2026-05-01T10:00:31.917Z</time></trkpt><trkpt lat="42.5289912" lon="12.5425645"><ele>96.0</ele><time>2026-05-01T10:00:32.916Z</time></trkpt><trkpt lat="42.5290293" lon="12.5426953"><ele>96.0</ele><time>2026-05-01T10:00:33.917Z</time></trkpt><trkpt lat="42.5290774" lon="12.5428402"><ele>96.0</ele><time>2026-05-01T10:00:34.917Z</time></trkpt><trkpt lat="42.5291349" lon="12.5430077"><ele>96.0</ele><time>2026-05-01T10:00:35.916Z</time></trkpt><trkpt lat="42.5291974" lon="12.5431906"><ele>96.0</ele><time>2026-05-01T10:00:36.917Z</time></trkpt><trkpt lat="42.529262" lon="12.5433997"><ele>96.0</ele><time>2026-05-01T10:00:37.916Z</time></trkpt><trkpt lat="42.5293257" lon="12.5436178"><ele>96.0</ele><time>2026-05-01T10:00:38.916Z</time></trkpt><trkpt lat="42.5293952" lon="12.543841"><ele>96.0</ele><time>2026-05-01T10:00:39.917Z</time></trkpt><trkpt lat="42.5294634" lon="12.5440648"><ele>96.0</ele><time>2026-05-01T10:00:40.917Z</time></trkpt><trkpt lat="42.5295288" lon="12.5442871"><ele>95.66666666666667</ele><time>2026-05-01T10:00:41.916Z</time></trkpt><trkpt lat="42.5295929" lon="12.5445075"><ele>95.33333333333334</ele><time>2026-05-01T10:00:42.917Z</time></trkpt><trkpt lat="42.5296552" lon="12.5447227"><ele>95.0</ele><time>2026-05-01T10:00:43.916Z</time></trkpt><trkpt lat="42.5297133" lon="12.544928"><ele>95.0</ele><time>2026-05-01T10:00:44.917Z</time></trkpt><trkpt lat="42.5297659" lon="12.5451236"><ele>95.0</ele><time>2026-05-01T10:00:45.916Z</time></trkpt><trkpt lat="42.5298134" lon="12.545301"><ele>95.0</ele><time>2026-05-01T10:00:46.917Z</time></trkpt><trkpt lat="42.5298624" lon="12.5454714"><ele>95.0</ele><time>2026-05-01T10:00:47.917Z</time></trkpt><trkpt lat="42.5299145" lon="12.5456424"><ele>95.66666666666667</ele><time>2026-05-01T10:00:48.916Z</time></trkpt><trkpt lat="42.5299729" lon="12.5458265"><ele>96.33333333333334</ele><time>2026-05-01T10:00:49.916Z</time></trkpt><trkpt lat="42.5300404" lon="12.5460329"><ele>97.0</ele><time>2026-05-01T10:00:50.917Z</time></trkpt><trkpt lat="42.5301141" lon="12.5462603"><ele>97.33333333333334</ele><time>2026-05-01T10:00:51.916Z</time></trkpt><trkpt lat="42.5301941" lon="12.5465114"><ele>97.66666666666666</ele><time>2026-05-01T10:00:52.917Z</time></trkpt><trkpt lat="42.5302768" lon="12.5467921"><ele>98.0</ele><time>2026-05-01T10:00:53.917Z</time></trkpt><trkpt lat="42.530358" lon="12.5470964"><ele>97.0</ele><time>2026-05-01T10:00:54.917Z</time></trkpt><trkpt lat="42.5304416" lon="12.5474101"><ele>96.0</ele><time>2026-05-01T10:00:55.917Z</time></trkpt><trkpt lat="42.5305252" lon="12.5477312"><ele>95.0</ele><time>2026-05-01T10:00:56.916Z</time></trkpt><trkpt lat="42.5306138" lon="12.5480613"><ele>94.0</ele><time>2026-05-01T10:00:57.917Z</time></trkpt><trkpt lat="42.5307055" lon="12.5484002"><ele>95.0</ele><time>2026-05-01T10:00:58.916Z</time></trkpt><trkpt lat="42.5308" lon="12.5487375"><ele>96.0</ele><time>2026-05-01T10:00:59.917Z</time></trkpt><trkpt lat="42.5308977" lon="12.5490759"><ele>96.0</ele><time>2026-05-01T10:01:00.917Z</time></trkpt><trkpt lat="42.5309973" lon="12.5494104"><ele>96.0</ele><time>2026-05-01T10:01:01.917Z</time></trkpt><trkpt lat="42.5310949" lon="12.5497326"><ele>96.0</ele><time>2026-05-01T10:01:02.917Z</time></trkpt><trkpt lat="42.5311979" lon="12.5500695"><ele>96.0</ele><time>2026-05-01T10:01:03.916Z</time></trkpt><trkpt lat="42.5312876" lon="12.5503854"><ele>96.5</ele><time>2026-05-01T10:01:04.917Z</time></trkpt><trkpt lat="42.5313754" lon="12.5506988"><ele>97.0</ele><time>2026-05-01T10:01:05.917Z</time></trkpt><trkpt lat="42.5314612" lon="12.5510028"><ele>97.0</ele><time>2026-05-01T10:01:06.917Z</time></trkpt><trkpt lat="42.5315451" lon="12.5512936"><ele>97.0</ele><time>2026-05-01T10:01:07.916Z</time></trkpt><trkpt lat="42.5316316" lon="12.5515853"><ele>97.0</ele><time>2026-05-01T10:01:08.917Z</time></trkpt><trkpt lat="42.5317197" lon="12.5518811"><ele>97.0</ele><time>2026-05-01T10:01:09.917Z</time></trkpt><trkpt lat="42.5317958" lon="12.5521698"><ele>97.0</ele><time>2026-05-01T10:01:10.917Z</time></trkpt><trkpt lat="42.531885" lon="12.5524653"><ele>97.0</ele><time>2026-05-01T10:01:11.916Z</time></trkpt><trkpt lat="42.531968" lon="12.552758"><ele>97.0</ele><time>2026-05-01T10:01:12.917Z</time></trkpt><trkpt lat="42.5320552" lon="12.5530533"><ele>97.0</ele><time>2026-05-01T10:01:13.917Z</time></trkpt><trkpt lat="42.5321416" lon="12.5533471"><ele>97.0</ele><time>2026-05-01T10:01:14.917Z</time></trkpt><trkpt lat="42.5322289" lon="12.5536453"><ele>97.0</ele><time>2026-05-01T10:01:15.916Z</time></trkpt><trkpt lat="42.5323138" lon="12.5539421"><ele>97.0</ele><time>2026-05-01T10:01:16.917Z</time></trkpt><trkpt lat="42.5323955" lon="12.5542286"><ele>97.0</ele><time>2026-05-01T10:01:17.917Z</time></trkpt><trkpt lat="42.5324777" lon="12.55451"><ele>97.0</ele><time>2026-05-01T10:01:18.917Z</time></trkpt><trkpt lat="42.5325586" lon="12.5547835"><ele>97.33333333333334</ele><time>2026-05-01T10:01:19.916Z</time></trkpt><trkpt lat="42.5326336" lon="12.5550451"><ele>97.66666666666666</ele><time>2026-05-01T10:01:20.917Z</time></trkpt><trkpt lat="42.5327023" lon="12.5552911"><ele>98.0</ele><time>2026-05-01T10:01:21.916Z</time></trkpt><trkpt lat="42.5327702" lon="12.5555274"><ele>98.0</ele><time>2026-05-01T10:01:22.916Z</time></trkpt><trkpt lat="42.5328302" lon="12.5557421"><ele>98.0</ele><time>2026-05-01T10:01:23.917Z</time></trkpt><trkpt lat="42.53289" lon="12.5559467"><ele>98.0</ele><time>2026-05-01T10:01:24.917Z</time></trkpt><trkpt lat="42.5329488" lon="12.5561455"><ele>97.75</ele><time>2026-05-01T10:01:25.917Z</time></trkpt><trkpt lat="42.5330056" lon="12.556337"><ele>97.5</ele><time>2026-05-01T10:01:26.917Z</time></trkpt><trkpt lat="42.5330574" lon="12.5565167"><ele>97.25</ele><time>2026-05-01T10:01:27.917Z</time></trkpt><trkpt lat="42.5331049" lon="12.556682"><ele>97.0</ele><time>2026-05-01T10:01:28.916Z</time></trkpt><trkpt lat="42.5331437" lon="12.5568245"><ele>97.00000000000001</ele><time>2026-05-01T10:01:29.916Z</time></trkpt><trkpt lat="42.533173" lon="12.5569263"><ele>97.0</ele><time>2026-05-01T10:01:30.917Z</time></trkpt><trkpt lat="42.5332149" lon="12.5570602"><ele>97.0</ele><time>2026-05-01T10:01:32.916Z</time></trkpt><trkpt lat="42.5332652" lon="12.5571524"><ele>97.0</ele><time>2026-05-01T10:01:34.916Z</time></trkpt><trkpt lat="42.5333491" lon="12.5571376"><ele>97.00000000000001</ele><time>2026-05-01T10:01:36.917Z</time></trkpt><trkpt lat="42.533409" lon="12.5570887"><ele>97.0</ele><time>2026-05-01T10:01:39.917Z</time></trkpt><trkpt lat="42.5333729" lon="12.5570126"><ele>97.0</ele><time>2026-05-01T10:07:41.917Z</time></trkpt><trkpt lat="42.5333053" lon="12.5569955"><ele>97.0</ele><time>2026-05-01T10:07:45.917Z</time></trkpt><trkpt lat="42.5332538" lon="12.5570774"><ele>97.0</ele><time>2026-05-01T10:07:51.916Z</time></trkpt><trkpt lat="42.5332807" lon="12.5572565"><ele>97.0</ele><time>2026-05-01T10:07:53.916Z</time></trkpt><trkpt lat="42.5333108" lon="12.5573668"><ele>97.0</ele><time>2026-05-01T10:07:54.917Z</time></trkpt><trkpt lat="42.5333421" lon="12.5574873"><ele>97.0</ele><time>2026-05-01T10:07:55.917Z</time></trkpt><trkpt lat="42.5333813" lon="12.5576108"><ele>97.0</ele><time>2026-05-01T10:07:56.917Z</time></trkpt><trkpt lat="42.5334235" lon="12.5577495"><ele>97.0</ele><time>2026-05-01T10:07:57.917Z</time></trkpt><trkpt lat="42.5334684" lon="12.5578987"><ele>97.0</ele><time>2026-05-01T10:07:58.917Z</time></trkpt><trkpt lat="42.5335115" lon="12.5580598"><ele>97.25</ele><time>2026-05-01T10:07:59.917Z</time></trkpt><trkpt lat="42.5335617" lon="12.558234"><ele>97.5</ele><time>2026-05-01T10:08:00.917Z</time></trkpt><trkpt lat="42.5336146" lon="12.5584091"><ele>97.75</ele><time>2026-05-01T10:08:01.917Z</time></trkpt><trkpt lat="42.5336751" lon="12.5585972"><ele>98.0</ele><time>2026-05-01T10:08:02.917Z</time></trkpt><trkpt lat="42.5337343" lon="12.5587925"><ele>98.0</ele><time>2026-05-01T10:08:03.917Z</time></trkpt><trkpt lat="42.5337939" lon="12.5590122"><ele>98.0</ele><time>2026-05-01T10:08:04.917Z</time></trkpt><trkpt lat="42.5338635" lon="12.5592415"><ele>98.0</ele><time>2026-05-01T10:08:05.917Z</time></trkpt><trkpt lat="42.5339373" lon="12.5594725"><ele>98.33333333333333</ele><time>2026-05-01T10:08:06.916Z</time></trkpt><trkpt lat="42.5340116" lon="12.5597071"><ele>98.66666666666666</ele><time>2026-05-01T10:08:07.917Z</time></trkpt><trkpt lat="42.5340901" lon="12.559954"><ele>99.0</ele><time>2026-05-01T10:08:08.917Z</time></trkpt><trkpt lat="42.5341677" lon="12.5602055"><ele>99.0</ele><time>2026-05-01T10:08:09.917Z</time></trkpt><trkpt lat="42.5342424" lon="12.560468"><ele>99.0</ele><time>2026-05-01T10:08:10.917Z</time></trkpt><trkpt lat="42.534321" lon="12.5607327"><ele>99.0</ele><time>2026-05-01T10:08:11.917Z</time></trkpt><trkpt lat="42.5344039" lon="12.5610015"><ele>99.0</ele><time>2026-05-01T10:08:12.917Z</time></trkpt><trkpt lat="42.5344909" lon="12.5612718"><ele>99.0</ele><time>2026-05-01T10:08:13.916Z</time></trkpt><trkpt lat="42.5345757" lon="12.5615446"><ele>99.0</ele><time>2026-05-01T10:08:14.917Z</time></trkpt><trkpt lat="42.5346592" lon="12.5618196"><ele>99.66666666666666</ele><time>2026-05-01T10:08:15.917Z</time></trkpt><trkpt lat="42.5347411" lon="12.5620967"><ele>100.33333333333333</ele><time>2026-05-01T10:08:16.916Z</time></trkpt><trkpt lat="42.5348215" lon="12.5623678"><ele>101.0</ele><time>2026-05-01T10:08:17.917Z</time></trkpt><trkpt lat="42.5348979" lon="12.5626279"><ele>101.33333333333333</ele><time>2026-05-01T10:08:18.917Z</time></trkpt><trkpt lat="42.5349661" lon="12.562879"><ele>101.66666666666666</ele><time>2026-05-01T10:08:19.917Z</time></trkpt><trkpt lat="42.535034" lon="12.5631188"><ele>102.0</ele><time>2026-05-01T10:08:20.916Z</time></trkpt><trkpt lat="42.5350988" lon="12.5633467"><ele>102.0</ele><time>2026-05-01T10:08:21.917Z</time></trkpt><trkpt lat="42.5351624" lon="12.5635643"><ele>102.0</ele><time>2026-05-01T10:08:22.917Z</time></trkpt><trkpt lat="42.5352262" lon="12.5637834"><ele>102.0</ele><time>2026-05-01T10:08:23.917Z</time></trkpt><trkpt lat="42.5352888" lon="12.56401"><ele>102.0</ele><time>2026-05-01T10:08:24.917Z</time></trkpt><trkpt lat="42.5353535" lon="12.564257"><ele>102.0</ele><time>2026-05-01T10:08:25.917Z</time></trkpt><trkpt lat="42.5354221" lon="12.5645367"><ele>102.0</ele><time>2026-05-01T10:08:26.916Z</time></trkpt><trkpt lat="42.5354948" lon="12.5648295"><ele>102.0</ele><time>2026-05-01T10:08:27.917Z</time></trkpt><trkpt lat="42.5355736" lon="12.565124"><ele>102.0</ele><time>2026-05-01T10:08:28.917Z</time></trkpt><trkpt lat="42.5356564" lon="12.5654141"><ele>102.5</ele><time>2026-05-01T10:08:29.917Z</time></trkpt><trkpt lat="42.53574" lon="12.5657014"><ele>103.0</ele><time>2026-05-01T10:08:30.916Z</time></trkpt><trkpt lat="42.5358256" lon="12.5659862"><ele>102.33333333333334</ele><time>2026-05-01T10:08:31.917Z</time></trkpt><trkpt lat="42.5359154" lon="12.5662666"><ele>101.66666666666666</ele><time>2026-05-01T10:08:32.917Z</time></trkpt><trkpt lat="42.5360127" lon="12.5665407"><ele>101.0</ele><time>2026-05-01T10:08:33.917Z</time></trkpt><trkpt lat="42.5361092" lon="12.5668209"><ele>102.0</ele><time>2026-05-01T10:08:34.917Z</time></trkpt><trkpt lat="42.5361959" lon="12.567102"><ele>103.0</ele><time>2026-05-01T10:08:35.917Z</time></trkpt><trkpt lat="42.5362816" lon="12.5673864"><ele>103.0</ele><time>2026-05-01T10:08:36.917Z</time></trkpt><trkpt lat="42.5363613" lon="12.5676773"><ele>103.0</ele><time>2026-05-01T10:08:37.917Z</time></trkpt><trkpt lat="42.5364364" lon="12.5679674"><ele>104.0</ele><time>2026-05-01T10:08:38.917Z</time></trkpt><trkpt lat="42.5365069" lon="12.5682591"><ele>105.0</ele><time>2026-05-01T10:08:39.917Z</time></trkpt><trkpt lat="42.5365798" lon="12.5685473"><ele>105.66666666666666</ele><time>2026-05-01T10:08:40.917Z</time></trkpt><trkpt lat="42.5366636" lon="12.568819"><ele>106.33333333333333</ele><time>2026-05-01T10:08:41.917Z</time></trkpt><trkpt lat="42.5367579" lon="12.5690783"><ele>107.0</ele><time>2026-05-01T10:08:42.916Z</time></trkpt><trkpt lat="42.536863" lon="12.5693297"><ele>107.33333333333333</ele><time>2026-05-01T10:08:43.917Z</time></trkpt><trkpt lat="42.5369666" lon="12.5695799"><ele>107.66666666666666</ele><time>2026-05-01T10:08:44.916Z</time></trkpt><trkpt lat="42.5370627" lon="12.5698307"><ele>108.0</ele><time>2026-05-01T10:08:45.916Z</time></trkpt><trkpt lat="42.537153" lon="12.5700768"><ele>108.0</ele><time>2026-05-01T10:08:46.917Z</time></trkpt><trkpt lat="42.5372309" lon="12.5703194"><ele>108.0</ele><time>2026-05-01T10:08:47.917Z</time></trkpt><trkpt lat="42.5372871" lon="12.5705585"><ele>108.0</ele><time>2026-05-01T10:08:48.916Z</time></trkpt><trkpt lat="42.5373301" lon="12.5707912"><ele>109.33333333333334</ele><time>2026-05-01T10:08:49.917Z</time></trkpt><trkpt lat="42.5373654" lon="12.5710251"><ele>110.66666666666667</ele><time>2026-05-01T10:08:50.916Z</time></trkpt><trkpt lat="42.5374002" lon="12.5712502"><ele>112.0</ele><time>2026-05-01T10:08:51.917Z</time></trkpt><trkpt lat="42.5374424" lon="12.5714831"><ele>112.0</ele><time>2026-05-01T10:08:52.916Z</time></trkpt><trkpt lat="42.5374951" lon="12.5717253"><ele>112.0</ele><time>2026-05-01T10:08:53.916Z</time></trkpt><trkpt lat="42.5375543" lon="12.5719813"><ele>112.0</ele><time>2026-05-01T10:08:54.917Z</time></trkpt><trkpt lat="42.5376169" lon="12.5722503"><ele>112.0</ele><time>2026-05-01T10:08:55.917Z</time></trkpt><trkpt lat="42.5376779" lon="12.5725312"><ele>112.0</ele><time>2026-05-01T10:08:56.916Z</time></trkpt><trkpt lat="42.5377429" lon="12.572819"><ele>112.0</ele><time>2026-05-01T10:08:57.916Z</time></trkpt><trkpt lat="42.5378154" lon="12.5731086"><ele>111.0</ele><time>2026-05-01T10:08:58.917Z</time></trkpt><trkpt lat="42.5378894" lon="12.5733835"><ele>110.0</ele><time>2026-05-01T10:08:59.916Z</time></trkpt><trkpt lat="42.5379797" lon="12.5736608"><ele>109.0</ele><time>2026-05-01T10:09:00.917Z</time></trkpt><trkpt lat="42.5380934" lon="12.5739162"><ele>109.0</ele><time>2026-05-01T10:09:01.917Z</time></trkpt><trkpt lat="42.5382063" lon="12.5741566"><ele>109.0</ele><time>2026-05-01T10:09:02.917Z</time></trkpt><trkpt lat="42.5382957" lon="12.5743624"><ele>109.0</ele><time>2026-05-01T10:09:03.917Z</time></trkpt><trkpt lat="42.5383592" lon="12.5745388"><ele>109.0</ele><time>2026-05-01T10:09:04.917Z</time></trkpt><trkpt lat="42.5384244" lon="12.574701"><ele>109.0</ele><time>2026-05-01T10:09:05.917Z</time></trkpt><trkpt lat="42.5384791" lon="12.5748612"><ele>109.0</ele><time>2026-05-01T10:09:06.917Z</time></trkpt><trkpt lat="42.5385216" lon="12.5750037"><ele>109.0</ele><time>2026-05-01T10:09:07.917Z</time></trkpt><trkpt lat="42.5385616" lon="12.5751474"><ele>109.0</ele><time>2026-05-01T10:09:08.917Z</time></trkpt><trkpt lat="42.5385961" lon="12.5752921"><ele>109.0</ele><time>2026-05-01T10:09:09.916Z</time></trkpt><trkpt lat="42.5386288" lon="12.5754331"><ele>109.0</ele><time>2026-05-01T10:09:10.917Z</time></trkpt><trkpt lat="42.5386567" lon="12.5755677"><ele>109.0</ele><time>2026-05-01T10:09:11.917Z</time></trkpt><trkpt lat="42.5386854" lon="12.5756996"><ele>109.0</ele><time>2026-05-01T10:09:12.917Z</time></trkpt><trkpt lat="42.5387126" lon="12.5758477"><ele>109.25</ele><time>2026-05-01T10:09:13.917Z</time></trkpt><trkpt lat="42.5387372" lon="12.5760122"><ele>109.5</ele><time>2026-05-01T10:09:14.916Z</time></trkpt><trkpt lat="42.5387559" lon="12.5761909"><ele>109.75</ele><time>2026-05-01T10:09:15.917Z</time></trkpt><trkpt lat="42.5387779" lon="12.5763715"><ele>110.0</ele><time>2026-05-01T10:09:16.917Z</time></trkpt><trkpt lat="42.5388009" lon="12.5765627"><ele>111.0</ele><time>2026-05-01T10:09:17.917Z</time></trkpt><trkpt lat="42.538826" lon="12.576757"><ele>112.0</ele><time>2026-05-01T10:09:18.917Z</time></trkpt><trkpt lat="42.5388524" lon="12.5769491"><ele>113.0</ele><time>2026-05-01T10:09:19.917Z</time></trkpt><trkpt lat="42.5388783" lon="12.5771415"><ele>114.0</ele><time>2026-05-01T10:09:20.917Z</time></trkpt><trkpt lat="42.5389092" lon="12.577347"><ele>114.33333333333334</ele><time>2026-05-01T10:09:21.917Z</time></trkpt><trkpt lat="42.5389597" lon="12.5775627"><ele>114.66666666666667</ele><time>2026-05-01T10:09:22.916Z</time></trkpt><trkpt lat="42.5390338" lon="12.5777541"><ele>115.0</ele><time>2026-05-01T10:09:23.917Z</time></trkpt><trkpt lat="42.5391185" lon="12.5779464"><ele>115.0</ele><time>2026-05-01T10:09:24.917Z</time></trkpt><trkpt lat="42.5392084" lon="12.5781326"><ele>115.0</ele><time>2026-05-01T10:09:25.917Z</time></trkpt><trkpt lat="42.5393" lon="12.5783295"><ele>115.0</ele><time>2026-05-01T10:09:26.917Z</time></trkpt><trkpt lat="42.5393792" lon="12.5785376"><ele>116.33333333333334</ele><time>2026-05-01T10:09:27.917Z</time></trkpt><trkpt lat="42.5394525" lon="12.5787513"><ele>117.66666666666666</ele><time>2026-05-01T10:09:28.917Z</time></trkpt><trkpt lat="42.5395262" lon="12.578965"><ele>119.0</ele><time>2026-05-01T10:09:29.916Z</time></trkpt><trkpt lat="42.5395976" lon="12.5791693"><ele>119.33333333333333</ele><time>2026-05-01T10:09:30.917Z</time></trkpt><trkpt lat="42.5396723" lon="12.5793807"><ele>119.66666666666666</ele><time>2026-05-01T10:09:31.917Z</time></trkpt><trkpt lat="42.5397411" lon="12.5795809"><ele>120.0</ele><time>2026-05-01T10:09:32.917Z</time></trkpt><trkpt lat="42.5398014" lon="12.5797802"><ele>120.5</ele><time>2026-05-01T10:09:33.916Z</time></trkpt><trkpt lat="42.5398674" lon="12.5799792"><ele>121.0</ele><time>2026-05-01T10:09:34.917Z</time></trkpt><trkpt lat="42.5399245" lon="12.580165"><ele>121.5</ele><time>2026-05-01T10:09:35.916Z</time></trkpt><trkpt lat="42.5399778" lon="12.5803405"><ele>122.0</ele><time>2026-05-01T10:09:36.917Z</time></trkpt><trkpt lat="42.5400381" lon="12.5805131"><ele>122.33333333333333</ele><time>2026-05-01T10:09:37.916Z</time></trkpt><trkpt lat="42.5400972" lon="12.5807047"><ele>122.66666666666666</ele><time>2026-05-01T10:09:38.917Z</time></trkpt><trkpt lat="42.5401512" lon="12.5808955"><ele>123.0</ele><time>2026-05-01T10:09:39.917Z</time></trkpt><trkpt lat="42.5402195" lon="12.5810954"><ele>123.33333333333334</ele><time>2026-05-01T10:09:40.917Z</time></trkpt><trkpt lat="42.5402893" lon="12.5813073"><ele>123.66666666666667</ele><time>2026-05-01T10:09:41.917Z</time></trkpt><trkpt lat="42.5403609" lon="12.5815235"><ele>124.0</ele><time>2026-05-01T10:09:42.916Z</time></trkpt><trkpt lat="42.5404254" lon="12.5817293"><ele>124.0</ele><time>2026-05-01T10:09:43.917Z</time></trkpt><trkpt lat="42.5404861" lon="12.5819552"><ele>124.0</ele><time>2026-05-01T10:09:44.917Z</time></trkpt><trkpt lat="42.5405373" lon="12.5821583"><ele>124.0</ele><time>2026-05-01T10:09:45.917Z</time></trkpt><trkpt lat="42.5405855" lon="12.5823647"><ele>123.33333333333334</ele><time>2026-05-01T10:09:46.917Z</time></trkpt><trkpt lat="42.54063" lon="12.5825789"><ele>122.66666666666666</ele><time>2026-05-01T10:09:47.917Z</time></trkpt><trkpt lat="42.5406794" lon="12.5827949"><ele>122.0</ele><time>2026-05-01T10:09:48.916Z</time></trkpt><trkpt lat="42.5407344" lon="12.5830325"><ele>121.66666666666666</ele><time>2026-05-01T10:09:49.917Z</time></trkpt><trkpt lat="42.5407959" lon="12.5832873"><ele>121.33333333333334</ele><time>2026-05-01T10:09:50.916Z</time></trkpt><trkpt lat="42.5408612" lon="12.5835389"><ele>121.0</ele><time>2026-05-01T10:09:51.917Z</time></trkpt><trkpt lat="42.5409336" lon="12.5837866"><ele>121.0</ele><time>2026-05-01T10:09:52.916Z</time></trkpt><trkpt lat="42.5410091" lon="12.5840419"><ele>121.0</ele><time>2026-05-01T10:09:53.916Z</time></trkpt><trkpt lat="42.5410729" lon="12.5842957"><ele>121.0</ele><time>2026-05-01T10:09:54.917Z</time></trkpt><trkpt lat="42.5411358" lon="12.5845651"><ele>121.33333333333334</ele><time>2026-05-01T10:09:55.917Z</time></trkpt><trkpt lat="42.5412089" lon="12.5848224"><ele>121.66666666666666</ele><time>2026-05-01T10:09:56.917Z</time></trkpt><trkpt lat="42.5412724" lon="12.5850846"><ele>122.0</ele><time>2026-05-01T10:09:57.917Z</time></trkpt><trkpt lat="42.5413481" lon="12.5853435"><ele>118.0</ele><time>2026-05-01T10:09:58.917Z</time></trkpt><trkpt lat="42.5414256" lon="12.5856046"><ele>114.0</ele><time>2026-05-01T10:09:59.917Z</time></trkpt><trkpt lat="42.5414979" lon="12.585863"><ele>110.0</ele><time>2026-05-01T10:10:00.917Z</time></trkpt><trkpt lat="42.5415837" lon="12.5861163"><ele>110.33333333333333</ele><time>2026-05-01T10:10:01.917Z</time></trkpt><trkpt lat="42.5416683" lon="12.5863645"><ele>110.66666666666666</ele><time>2026-05-01T10:10:02.917Z</time></trkpt><trkpt lat="42.5417504" lon="12.5866155"><ele>111.0</ele><time>2026-05-01T10:10:03.916Z</time></trkpt><trkpt lat="42.5418295" lon="12.5868545"><ele>111.66666666666666</ele><time>2026-05-01T10:10:04.916Z</time></trkpt><trkpt lat="42.541907" lon="12.5870961"><ele>112.33333333333333</ele><time>2026-05-01T10:10:05.917Z</time></trkpt><trkpt lat="42.5419794" lon="12.5873373"><ele>113.0</ele><time>2026-05-01T10:10:06.917Z</time></trkpt><trkpt lat="42.5420484" lon="12.5875789"><ele>110.66666666666666</ele><time>2026-05-01T10:10:07.917Z</time></trkpt><trkpt lat="42.542118" lon="12.5878309"><ele>108.33333333333334</ele><time>2026-05-01T10:10:08.916Z</time></trkpt><trkpt lat="42.5421878" lon="12.5880899"><ele>106.0</ele><time>2026-05-01T10:10:09.917Z</time></trkpt><trkpt lat="42.542255" lon="12.5883353"><ele>106.0</ele><time>2026-05-01T10:10:10.917Z</time></trkpt><trkpt lat="42.5423237" lon="12.5885805"><ele>106.0</ele><time>2026-05-01T10:10:11.916Z</time></trkpt><trkpt lat="42.5423939" lon="12.5888284"><ele>106.0</ele><time>2026-05-01T10:10:12.917Z</time></trkpt><trkpt lat="42.5424691" lon="12.5890653"><ele>106.33333333333334</ele><time>2026-05-01T10:10:13.917Z</time></trkpt><trkpt lat="42.5425399" lon="12.5893033"><ele>106.66666666666666</ele><time>2026-05-01T10:10:14.916Z</time></trkpt><trkpt lat="42.5426042" lon="12.5895487"><ele>107.0</ele><time>2026-05-01T10:10:15.917Z</time></trkpt><trkpt lat="42.5426727" lon="12.5897948"><ele>107.33333333333333</ele><time>2026-05-01T10:10:16.917Z</time></trkpt><trkpt lat="42.5427342" lon="12.5900362"><ele>107.66666666666666</ele><time>2026-05-01T10:10:17.917Z</time></trkpt><trkpt lat="42.5428012" lon="12.5902887"><ele>108.0</ele><time>2026-05-01T10:10:18.917Z</time></trkpt><trkpt lat="42.5428733" lon="12.5905434"><ele>108.0</ele><time>2026-05-01T10:10:19.917Z</time></trkpt><trkpt lat="42.5429475" lon="12.5907949"><ele>108.0</ele><time>2026-05-01T10:10:20.917Z</time></trkpt><trkpt lat="42.5430193" lon="12.5910464"><ele>108.0</ele><time>2026-05-01T10:10:21.917Z</time></trkpt><trkpt lat="42.5430928" lon="12.5912985"><ele>108.0</ele><time>2026-05-01T10:10:22.916Z</time></trkpt><trkpt lat="42.5431657" lon="12.5915566"><ele>108.0</ele><time>2026-05-01T10:10:23.917Z</time></trkpt><trkpt lat="42.5432361" lon="12.5918083"><ele>108.0</ele><time>2026-05-01T10:10:24.917Z</time></trkpt><trkpt lat="42.5433097" lon="12.5920598"><ele>107.66666666666666</ele><time>2026-05-01T10:10:25.917Z</time></trkpt><trkpt lat="42.5433868" lon="12.5923131"><ele>107.33333333333333</ele><time>2026-05-01T10:10:26.917Z</time></trkpt><trkpt lat="42.5434605" lon="12.5925624"><ele>107.0</ele><time>2026-05-01T10:10:27.917Z</time></trkpt><trkpt lat="42.5435404" lon="12.5928168"><ele>107.0</ele><time>2026-05-01T10:10:28.916Z</time></trkpt><trkpt lat="42.5436246" lon="12.593077"><ele>107.0</ele><time>2026-05-01T10:10:29.917Z</time></trkpt><trkpt lat="42.5437007" lon="12.593328"><ele>107.0</ele><time>2026-05-01T10:10:30.916Z</time></trkpt><trkpt lat="42.5437715" lon="12.5935845"><ele>107.33333333333333</ele><time>2026-05-01T10:10:31.916Z</time></trkpt><trkpt lat="42.5438482" lon="12.5938402"><ele>107.66666666666666</ele><time>2026-05-01T10:10:32.917Z</time></trkpt><trkpt lat="42.5439235" lon="12.5940947"><ele>108.0</ele><time>2026-05-01T10:10:33.916Z</time></trkpt><trkpt lat="42.5440045" lon="12.5943536"><ele>108.33333333333334</ele><time>2026-05-01T10:10:34.916Z</time></trkpt><trkpt lat="42.5440757" lon="12.5946105"><ele>108.66666666666667</ele><time>2026-05-01T10:10:35.916Z</time></trkpt><trkpt lat="42.5441502" lon="12.5948739"><ele>109.0</ele><time>2026-05-01T10:10:36.917Z</time></trkpt><trkpt lat="42.5442291" lon="12.5951394"><ele>109.0</ele><time>2026-05-01T10:10:37.917Z</time></trkpt><trkpt lat="42.5443066" lon="12.5954089"><ele>109.0</ele><time>2026-05-01T10:10:38.916Z</time></trkpt><trkpt lat="42.5443795" lon="12.5956612"><ele>109.0</ele><time>2026-05-01T10:10:39.916Z</time></trkpt><trkpt lat="42.5444605" lon="12.5959239"><ele>109.0</ele><time>2026-05-01T10:10:40.917Z</time></trkpt><trkpt lat="42.5445319" lon="12.5961673"><ele>109.0</ele><time>2026-05-01T10:10:41.917Z</time></trkpt><trkpt lat="42.5446014" lon="12.596394"><ele>109.0</ele><time>2026-05-01T10:10:42.916Z</time></trkpt><trkpt lat="42.5446631" lon="12.5965959"><ele>108.75</ele><time>2026-05-01T10:10:43.916Z</time></trkpt><trkpt lat="42.5447207" lon="12.5967865"><ele>108.5</ele><time>2026-05-01T10:10:44.916Z</time></trkpt><trkpt lat="42.5447683" lon="12.596964"><ele>108.25</ele><time>2026-05-01T10:10:45.917Z</time></trkpt><trkpt lat="42.5448126" lon="12.597135"><ele>108.0</ele><time>2026-05-01T10:10:46.916Z</time></trkpt><trkpt lat="42.5448526" lon="12.5972843"><ele>108.4</ele><time>2026-05-01T10:10:47.917Z</time></trkpt><trkpt lat="42.5448939" lon="12.5974259"><ele>108.80000000000001</ele><time>2026-05-01T10:10:48.917Z</time></trkpt><trkpt lat="42.5449326" lon="12.5975534"><ele>109.2</ele><time>2026-05-01T10:10:49.917Z</time></trkpt><trkpt lat="42.5449649" lon="12.5976825"><ele>109.6</ele><time>2026-05-01T10:10:50.917Z</time></trkpt><trkpt lat="42.545002" lon="12.5978165"><ele>110.0</ele><time>2026-05-01T10:10:51.916Z</time></trkpt><trkpt lat="42.5450393" lon="12.5979581"><ele>110.0</ele><time>2026-05-01T10:10:52.917Z</time></trkpt><trkpt lat="42.5450829" lon="12.5981064"><ele>110.0</ele><time>2026-05-01T10:10:53.917Z</time></trkpt><trkpt lat="42.5451271" lon="12.5982603"><ele>110.0</ele><time>2026-05-01T10:10:54.917Z</time></trkpt><trkpt lat="42.5451737" lon="12.5984181"><ele>110.0</ele><time>2026-05-01T10:10:55.917Z</time></trkpt><trkpt lat="42.5452203" lon="12.5985806"><ele>110.0</ele><time>2026-05-01T10:10:56.917Z</time></trkpt><trkpt lat="42.545269" lon="12.598746"><ele>110.0</ele><time>2026-05-01T10:10:57.916Z</time></trkpt><trkpt lat="42.5453183" lon="12.5989174"><ele>110.0</ele><time>2026-05-01T10:10:58.917Z</time></trkpt><trkpt lat="42.5453663" lon="12.5991037"><ele>110.0</ele><time>2026-05-01T10:10:59.917Z</time></trkpt><trkpt lat="42.5454091" lon="12.5992946"><ele>110.33333333333333</ele><time>2026-05-01T10:11:00.916Z</time></trkpt><trkpt lat="42.5454537" lon="12.599493"><ele>110.66666666666666</ele><time>2026-05-01T10:11:01.917Z</time></trkpt><trkpt lat="42.5454925" lon="12.5997028"><ele>111.0</ele><time>2026-05-01T10:11:02.916Z</time></trkpt><trkpt lat="42.5455275" lon="12.5999175"><ele>111.0</ele><time>2026-05-01T10:11:03.917Z</time></trkpt><trkpt lat="42.5455534" lon="12.6001368"><ele>111.0</ele><time>2026-05-01T10:11:04.917Z</time></trkpt><trkpt lat="42.5455662" lon="12.60036"><ele>111.0</ele><time>2026-05-01T10:11:05.917Z</time></trkpt><trkpt lat="42.5455615" lon="12.6005835"><ele>111.66666666666666</ele><time>2026-05-01T10:11:06.917Z</time></trkpt><trkpt lat="42.5455523" lon="12.6008088"><ele>112.33333333333333</ele><time>2026-05-01T10:11:07.917Z</time></trkpt><trkpt lat="42.5455423" lon="12.6010355"><ele>113.0</ele><time>2026-05-01T10:11:08.916Z</time></trkpt><trkpt lat="42.5455308" lon="12.6012652"><ele>113.0</ele><time>2026-05-01T10:11:09.916Z</time></trkpt><trkpt lat="42.545522" lon="12.6014982"><ele>113.0</ele><time>2026-05-01T10:11:10.917Z</time></trkpt><trkpt lat="42.545515" lon="12.6017265"><ele>113.0</ele><time>2026-05-01T10:11:11.917Z</time></trkpt><trkpt lat="42.5455037" lon="12.6019508"><ele>113.33333333333333</ele><time>2026-05-01T10:11:12.917Z</time></trkpt><trkpt lat="42.5454958" lon="12.6021765"><ele>113.66666666666666</ele><time>2026-05-01T10:11:13.917Z</time></trkpt><trkpt lat="42.545488" lon="12.6024056"><ele>114.0</ele><time>2026-05-01T10:11:14.917Z</time></trkpt><trkpt lat="42.5454823" lon="12.6026415"><ele>114.0</ele><time>2026-05-01T10:11:15.917Z</time></trkpt><trkpt lat="42.5454747" lon="12.6028778"><ele>114.0</ele><time>2026-05-01T10:11:16.917Z</time></trkpt><trkpt lat="42.5454633" lon="12.6031176"><ele>114.0</ele><time>2026-05-01T10:11:17.916Z</time></trkpt><trkpt lat="42.5454513" lon="12.6033656"><ele>114.0</ele><time>2026-05-01T10:11:18.916Z</time></trkpt><trkpt lat="42.5454436" lon="12.6036251"><ele>114.0</ele><time>2026-05-01T10:11:19.916Z</time></trkpt><trkpt lat="42.5454343" lon="12.6038839"><ele>114.0</ele><time>2026-05-01T10:11:20.916Z</time></trkpt><trkpt lat="42.5454229" lon="12.6041404"><ele>113.66666666666666</ele><time>2026-05-01T10:11:21.916Z</time></trkpt><trkpt lat="42.5454109" lon="12.6043699"><ele>113.33333333333333</ele><time>2026-05-01T10:11:22.917Z</time></trkpt><trkpt lat="42.5454086" lon="12.6045966"><ele>113.0</ele><time>2026-05-01T10:11:23.916Z</time></trkpt><trkpt lat="42.5454074" lon="12.6048095"><ele>113.0</ele><time>2026-05-01T10:11:24.916Z</time></trkpt><trkpt lat="42.5454038" lon="12.6050202"><ele>113.0</ele><time>2026-05-01T10:11:25.917Z</time></trkpt><trkpt lat="42.5453967" lon="12.6052225"><ele>113.0</ele><time>2026-05-01T10:11:26.917Z</time></trkpt><trkpt lat="42.5453884" lon="12.6053966"><ele>113.0</ele><time>2026-05-01T10:11:27.916Z</time></trkpt><trkpt lat="42.5453791" lon="12.6055404"><ele>113.2</ele><time>2026-05-01T10:11:28.917Z</time></trkpt><trkpt lat="42.5453729" lon="12.6056705"><ele>113.4</ele><time>2026-05-01T10:11:29.917Z</time></trkpt><trkpt lat="42.5453692" lon="12.6057991"><ele>113.60000000000001</ele><time>2026-05-01T10:11:30.916Z</time></trkpt><trkpt lat="42.5453654" lon="12.6059212"><ele>113.80000000000001</ele><time>2026-05-01T10:11:31.916Z</time></trkpt><trkpt lat="42.5453607" lon="12.6060447"><ele>114.0</ele><time>2026-05-01T10:11:32.917Z</time></trkpt><trkpt lat="42.545357" lon="12.6061727"><ele>114.0</ele><time>2026-05-01T10:11:33.917Z</time></trkpt><trkpt lat="42.5453548" lon="12.6063022"><ele>114.0</ele><time>2026-05-01T10:11:34.916Z</time></trkpt><trkpt lat="42.5453496" lon="12.6064346"><ele>114.0</ele><time>2026-05-01T10:11:35.916Z</time></trkpt><trkpt lat="42.545348" lon="12.606577"><ele>114.0</ele><time>2026-05-01T10:11:36.917Z</time></trkpt><trkpt lat="42.5453453" lon="12.6067251"><ele>114.0</ele><time>2026-05-01T10:11:37.917Z</time></trkpt><trkpt lat="42.5453454" lon="12.6068782"><ele>114.25</ele><time>2026-05-01T10:11:38.917Z</time></trkpt><trkpt lat="42.5453524" lon="12.6070372"><ele>114.5</ele><time>2026-05-01T10:11:39.917Z</time></trkpt><trkpt lat="42.545361" lon="12.6072032"><ele>114.75</ele><time>2026-05-01T10:11:40.917Z</time></trkpt><trkpt lat="42.5453662" lon="12.6073635"><ele>115.0</ele><time>2026-05-01T10:11:41.917Z</time></trkpt><trkpt lat="42.5453762" lon="12.6075216"><ele>115.0</ele><time>2026-05-01T10:11:42.917Z</time></trkpt><trkpt lat="42.5453861" lon="12.6076784"><ele>115.0</ele><time>2026-05-01T10:11:43.916Z</time></trkpt><trkpt lat="42.5453933" lon="12.6078303"><ele>115.0</ele><time>2026-05-01T10:11:44.917Z</time></trkpt><trkpt lat="42.5453997" lon="12.6079779"><ele>115.0</ele><time>2026-05-01T10:11:45.916Z</time></trkpt><trkpt lat="42.5454079" lon="12.608137"><ele>115.0</ele><time>2026-05-01T10:11:46.917Z</time></trkpt><trkpt lat="42.5454124" lon="12.6083048"><ele>115.0</ele><time>2026-05-01T10:11:47.917Z</time></trkpt><trkpt lat="42.5454143" lon="12.6084717"><ele>115.0</ele><time>2026-05-01T10:11:48.916Z</time></trkpt><trkpt lat="42.5454259" lon="12.6086465"><ele>115.0</ele><time>2026-05-01T10:11:49.917Z</time></trkpt><trkpt lat="42.5454365" lon="12.6088133"><ele>115.25</ele><time>2026-05-01T10:11:50.917Z</time></trkpt><trkpt lat="42.5454531" lon="12.608983"><ele>115.5</ele><time>2026-05-01T10:11:51.916Z</time></trkpt><trkpt lat="42.545473" lon="12.6091486"><ele>115.75</ele><time>2026-05-01T10:11:52.917Z</time></trkpt><trkpt lat="42.5455023" lon="12.6092984"><ele>116.0</ele><time>2026-05-01T10:11:53.917Z</time></trkpt><trkpt lat="42.5455325" lon="12.6094449"><ele>116.19999999999999</ele><time>2026-05-01T10:11:54.917Z</time></trkpt><trkpt lat="42.5455635" lon="12.6095828"><ele>116.39999999999999</ele><time>2026-05-01T10:11:55.917Z</time></trkpt><trkpt lat="42.5455955" lon="12.6097248"><ele>116.6</ele><time>2026-05-01T10:11:56.916Z</time></trkpt><trkpt lat="42.5456319" lon="12.6098732"><ele>116.8</ele><time>2026-05-01T10:11:57.917Z</time></trkpt><trkpt lat="42.5456643" lon="12.6100218"><ele>117.0</ele><time>2026-05-01T10:11:58.917Z</time></trkpt><trkpt lat="42.5456992" lon="12.6101736"><ele>117.0</ele><time>2026-05-01T10:11:59.917Z</time></trkpt><trkpt lat="42.5457347" lon="12.6103244"><ele>117.0</ele><time>2026-05-01T10:12:00.916Z</time></trkpt><trkpt lat="42.5457705" lon="12.6104714"><ele>117.0</ele><time>2026-05-01T10:12:01.917Z</time></trkpt><trkpt lat="42.5458062" lon="12.6106137"><ele>117.0</ele><time>2026-05-01T10:12:02.917Z</time></trkpt><trkpt lat="42.5458382" lon="12.6107622"><ele>117.25</ele><time>2026-05-01T10:12:03.916Z</time></trkpt><trkpt lat="42.5458694" lon="12.6109135"><ele>117.5</ele><time>2026-05-01T10:12:04.917Z</time></trkpt><trkpt lat="42.5458999" lon="12.6110663"><ele>117.75</ele><time>2026-05-01T10:12:05.917Z</time></trkpt><trkpt lat="42.5459303" lon="12.611216"><ele>118.0</ele><time>2026-05-01T10:12:06.917Z</time></trkpt><trkpt lat="42.5459632" lon="12.6113693"><ele>118.4</ele><time>2026-05-01T10:12:07.917Z</time></trkpt><trkpt lat="42.5459942" lon="12.6115232"><ele>118.80000000000001</ele><time>2026-05-01T10:12:08.917Z</time></trkpt><trkpt lat="42.5460237" lon="12.6116659"><ele>119.2</ele><time>2026-05-01T10:12:09.917Z</time></trkpt><trkpt lat="42.5460509" lon="12.6118052"><ele>119.6</ele><time>2026-05-01T10:12:10.917Z</time></trkpt><trkpt lat="42.5460816" lon="12.6119428"><ele>120.0</ele><time>2026-05-01T10:12:11.916Z</time></trkpt><trkpt lat="42.5461145" lon="12.6120893"><ele>120.25</ele><time>2026-05-01T10:12:12.917Z</time></trkpt><trkpt lat="42.5461458" lon="12.612237"><ele>120.5</ele><time>2026-05-01T10:12:13.917Z</time></trkpt><trkpt lat="42.5461779" lon="12.6123837"><ele>120.75</ele><time>2026-05-01T10:12:14.916Z</time></trkpt><trkpt lat="42.5462059" lon="12.6125344"><ele>121.0</ele><time>2026-05-01T10:12:15.917Z</time></trkpt><trkpt lat="42.546241" lon="12.6126873"><ele>121.0</ele><time>2026-05-01T10:12:16.916Z</time></trkpt><trkpt lat="42.546273" lon="12.6128444"><ele>121.0</ele><time>2026-05-01T10:12:17.917Z</time></trkpt><trkpt lat="42.546304" lon="12.6129974"><ele>121.0</ele><time>2026-05-01T10:12:18.917Z</time></trkpt><trkpt lat="42.5463328" lon="12.6131508"><ele>121.0</ele><time>2026-05-01T10:12:19.917Z</time></trkpt><trkpt lat="42.5463597" lon="12.6133018"><ele>121.0</ele><time>2026-05-01T10:12:20.917Z</time></trkpt><trkpt lat="42.5463876" lon="12.6134436"><ele>121.0</ele><time>2026-05-01T10:12:21.917Z</time></trkpt><trkpt lat="42.5464127" lon="12.6135761"><ele>121.0</ele><time>2026-05-01T10:12:22.916Z</time></trkpt><trkpt lat="42.5464307" lon="12.6136913"><ele>121.0</ele><time>2026-05-01T10:12:23.917Z</time></trkpt><trkpt lat="42.5464456" lon="12.613777"><ele>121.0</ele><time>2026-05-01T10:12:24.917Z</time></trkpt><trkpt lat="42.5464671" lon="12.6138994"><ele>121.00000000000001</ele><time>2026-05-01T10:12:26.916Z</time></trkpt><trkpt lat="42.5464863" lon="12.6139938"><ele>121.0</ele><time>2026-05-01T10:12:28.917Z</time></trkpt><trkpt lat="42.5465131" lon="12.6141251"><ele>121.0</ele><time>2026-05-01T10:12:31.916Z</time></trkpt><trkpt lat="42.5465405" lon="12.6142671"><ele>121.0</ele><time>2026-05-01T10:12:33.917Z</time></trkpt><trkpt lat="42.5465615" lon="12.6143597"><ele>121.00000000000001</ele><time>2026-05-01T10:12:34.916Z</time></trkpt><trkpt lat="42.5465885" lon="12.6144666"><ele>121.0</ele><time>2026-05-01T10:12:35.917Z</time></trkpt><trkpt lat="42.5466242" lon="12.6145834"><ele>121.4</ele><time>2026-05-01T10:12:36.916Z</time></trkpt><trkpt lat="42.5466612" lon="12.6147068"><ele>121.8</ele><time>2026-05-01T10:12:37.917Z</time></trkpt><trkpt lat="42.5466965" lon="12.6148424"><ele>122.20000000000002</ele><time>2026-05-01T10:12:38.917Z</time></trkpt><trkpt lat="42.5467322" lon="12.6149779"><ele>122.60000000000001</ele><time>2026-05-01T10:12:39.916Z</time></trkpt><trkpt lat="42.5467706" lon="12.6151192"><ele>123.0</ele><time>2026-05-01T10:12:40.917Z</time></trkpt><trkpt lat="42.5468071" lon="12.6152488"><ele>123.0</ele><time>2026-05-01T10:12:41.916Z</time></trkpt><trkpt lat="42.5468446" lon="12.6153799"><ele>123.00000000000001</ele><time>2026-05-01T10:12:42.917Z</time></trkpt><trkpt lat="42.5468764" lon="12.6155077"><ele>123.00000000000001</ele><time>2026-05-01T10:12:43.916Z</time></trkpt><trkpt lat="42.5469094" lon="12.6156386"><ele>123.0</ele><time>2026-05-01T10:12:44.917Z</time></trkpt><trkpt lat="42.5469433" lon="12.6157714"><ele>123.0</ele><time>2026-05-01T10:12:45.917Z</time></trkpt><trkpt lat="42.546979" lon="12.6159056"><ele>123.0</ele><time>2026-05-01T10:12:46.917Z</time></trkpt><trkpt lat="42.547011" lon="12.6160405"><ele>123.00000000000001</ele><time>2026-05-01T10:12:47.917Z</time></trkpt><trkpt lat="42.5470399" lon="12.6161787"><ele>123.00000000000001</ele><time>2026-05-01T10:12:48.916Z</time></trkpt><trkpt lat="42.5470601" lon="12.6163172"><ele>123.0</ele><time>2026-05-01T10:12:49.917Z</time></trkpt><trkpt lat="42.5470845" lon="12.6164507"><ele>123.0</ele><time>2026-05-01T10:12:50.916Z</time></trkpt><trkpt lat="42.547111" lon="12.6165698"><ele>123.60000000000001</ele><time>2026-05-01T10:12:51.917Z</time></trkpt><trkpt lat="42.5471372" lon="12.616684"><ele>124.20000000000002</ele><time>2026-05-01T10:12:52.917Z</time></trkpt><trkpt lat="42.5471659" lon="12.6168089"><ele>124.8</ele><time>2026-05-01T10:12:53.917Z</time></trkpt><trkpt lat="42.5471953" lon="12.6169364"><ele>125.4</ele><time>2026-05-01T10:12:54.917Z</time></trkpt><trkpt lat="42.54723" lon="12.617059"><ele>126.0</ele><time>2026-05-01T10:12:55.916Z</time></trkpt><trkpt lat="42.5472619" lon="12.6171911"><ele>126.16666666666667</ele><time>2026-05-01T10:12:56.917Z</time></trkpt><trkpt lat="42.5472915" lon="12.6173175"><ele>126.33333333333334</ele><time>2026-05-01T10:12:57.917Z</time></trkpt><trkpt lat="42.547316" lon="12.6174364"><ele>126.5</ele><time>2026-05-01T10:12:58.917Z</time></trkpt><trkpt lat="42.547337" lon="12.6175544"><ele>126.66666666666667</ele><time>2026-05-01T10:12:59.917Z</time></trkpt><trkpt lat="42.5473553" lon="12.6176673"><ele>126.83333333333334</ele><time>2026-05-01T10:13:00.917Z</time></trkpt><trkpt lat="42.547375" lon="12.6177741"><ele>127.0</ele><time>2026-05-01T10:13:01.917Z</time></trkpt><trkpt lat="42.5473909" lon="12.6178744"><ele>127.0</ele><time>2026-05-01T10:13:02.917Z</time></trkpt><trkpt lat="42.5474087" lon="12.6179845"><ele>126.99999999999999</ele><time>2026-05-01T10:13:03.917Z</time></trkpt><trkpt lat="42.5474394" lon="12.6180948"><ele>126.99999999999999</ele><time>2026-05-01T10:13:04.917Z</time></trkpt><trkpt lat="42.5474673" lon="12.6182257"><ele>127.0</ele><time>2026-05-01T10:13:05.917Z</time></trkpt><trkpt lat="42.5474943" lon="12.618351"><ele>127.0</ele><time>2026-05-01T10:13:06.917Z</time></trkpt><trkpt lat="42.5475234" lon="12.6184853"><ele>127.0</ele><time>2026-05-01T10:13:07.917Z</time></trkpt><trkpt lat="42.5475587" lon="12.6186355"><ele>126.99999999999999</ele><time>2026-05-01T10:13:08.917Z</time></trkpt><trkpt lat="42.5475854" lon="12.6187701"><ele>126.99999999999999</ele><time>2026-05-01T10:13:09.916Z</time></trkpt><trkpt lat="42.5476364" lon="12.6189064"><ele>127.0</ele><time>2026-05-01T10:13:10.917Z</time></trkpt><trkpt lat="42.5476848" lon="12.6190311"><ele>127.0</ele><time>2026-05-01T10:13:11.916Z</time></trkpt><trkpt lat="42.5477263" lon="12.6191534"><ele>126.8</ele><time>2026-05-01T10:13:12.917Z</time></trkpt><trkpt lat="42.5477724" lon="12.619277"><ele>126.6</ele><time>2026-05-01T10:13:13.917Z</time></trkpt><trkpt lat="42.5478189" lon="12.6194012"><ele>126.39999999999999</ele><time>2026-05-01T10:13:14.917Z</time></trkpt><trkpt lat="42.5478633" lon="12.6195225"><ele>126.19999999999999</ele><time>2026-05-01T10:13:15.916Z</time></trkpt><trkpt lat="42.5479041" lon="12.6196399"><ele>126.0</ele><time>2026-05-01T10:13:16.917Z</time></trkpt><trkpt lat="42.5479452" lon="12.6197533"><ele>125.8</ele><time>2026-05-01T10:13:17.917Z</time></trkpt><trkpt lat="42.5479851" lon="12.6198657"><ele>125.6</ele><time>2026-05-01T10:13:18.917Z</time></trkpt><trkpt lat="42.5480251" lon="12.6199793"><ele>125.4</ele><time>2026-05-01T10:13:19.917Z</time></trkpt><trkpt lat="42.5480677" lon="12.6201018"><ele>125.2</ele><time>2026-05-01T10:13:20.917Z</time></trkpt><trkpt lat="42.5481096" lon="12.6202242"><ele>125.0</ele><time>2026-05-01T10:13:21.917Z</time></trkpt><trkpt lat="42.5481533" lon="12.6203447"><ele>125.0</ele><time>2026-05-01T10:13:22.916Z</time></trkpt><trkpt lat="42.5481994" lon="12.6204681"><ele>125.0</ele><time>2026-05-01T10:13:23.916Z</time></trkpt><trkpt lat="42.5482449" lon="12.6205958"><ele>125.0</ele><time>2026-05-01T10:13:24.917Z</time></trkpt><trkpt lat="42.5482911" lon="12.6207339"><ele>125.0</ele><time>2026-05-01T10:13:25.916Z</time></trkpt><trkpt lat="42.5483346" lon="12.6208837"><ele>125.0</ele><time>2026-05-01T10:13:26.917Z</time></trkpt><trkpt lat="42.5483788" lon="12.6210457"><ele>125.25</ele><time>2026-05-01T10:13:27.916Z</time></trkpt><trkpt lat="42.5484224" lon="12.6212066"><ele>125.5</ele><time>2026-05-01T10:13:28.916Z</time></trkpt><trkpt lat="42.5484675" lon="12.6213618"><ele>125.75</ele><time>2026-05-01T10:13:29.917Z</time></trkpt><trkpt lat="42.5485076" lon="12.6215188"><ele>126.0</ele><time>2026-05-01T10:13:30.917Z</time></trkpt><trkpt lat="42.5485511" lon="12.6216608"><ele>126.0</ele><time>2026-05-01T10:13:31.917Z</time></trkpt><trkpt lat="42.5485862" lon="12.6218008"><ele>126.0</ele><time>2026-05-01T10:13:32.916Z</time></trkpt><trkpt lat="42.548617" lon="12.6219421"><ele>126.0</ele><time>2026-05-01T10:13:33.916Z</time></trkpt><trkpt lat="42.5486551" lon="12.622081"><ele>126.0</ele><time>2026-05-01T10:13:34.917Z</time></trkpt><trkpt lat="42.5486988" lon="12.6222273"><ele>126.0</ele><time>2026-05-01T10:13:35.916Z</time></trkpt><trkpt lat="42.5487513" lon="12.622368"><ele>126.0</ele><time>2026-05-01T10:13:36.917Z</time></trkpt><trkpt lat="42.5488176" lon="12.6225047"><ele>126.0</ele><time>2026-05-01T10:13:37.917Z</time></trkpt><trkpt lat="42.5488922" lon="12.6226597"><ele>126.0</ele><time>2026-05-01T10:13:38.917Z</time></trkpt><trkpt lat="42.5489533" lon="12.6228239"><ele>126.0</ele><time>2026-05-01T10:13:39.917Z</time></trkpt><trkpt lat="42.5490196" lon="12.6229867"><ele>126.25</ele><time>2026-05-01T10:13:40.917Z</time></trkpt><trkpt lat="42.5490788" lon="12.6231532"><ele>126.5</ele><time>2026-05-01T10:13:41.916Z</time></trkpt><trkpt lat="42.5491362" lon="12.6233208"><ele>126.75</ele><time>2026-05-01T10:13:42.917Z</time></trkpt><trkpt lat="42.54919" lon="12.6234818"><ele>127.0</ele><time>2026-05-01T10:13:43.917Z</time></trkpt><trkpt lat="42.54924" lon="12.6236338"><ele>127.0</ele><time>2026-05-01T10:13:44.917Z</time></trkpt><trkpt lat="42.5492923" lon="12.6237827"><ele>127.0</ele><time>2026-05-01T10:13:45.917Z</time></trkpt><trkpt lat="42.549349" lon="12.623932"><ele>127.0</ele><time>2026-05-01T10:13:46.917Z</time></trkpt><trkpt lat="42.5494104" lon="12.6240818"><ele>127.0</ele><time>2026-05-01T10:13:47.917Z</time></trkpt><trkpt lat="42.5494733" lon="12.6242346"><ele>126.5</ele><time>2026-05-01T10:13:48.916Z</time></trkpt><trkpt lat="42.5495426" lon="12.6243847"><ele>126.0</ele><time>2026-05-01T10:13:49.916Z</time></trkpt><trkpt lat="42.5496126" lon="12.6245389"><ele>125.5</ele><time>2026-05-01T10:13:50.917Z</time></trkpt><trkpt lat="42.5496861" lon="12.6246939"><ele>125.0</ele><time>2026-05-01T10:13:51.917Z</time></trkpt><trkpt lat="42.5497523" lon="12.624854"><ele>125.0</ele><time>2026-05-01T10:13:52.917Z</time></trkpt><trkpt lat="42.5498242" lon="12.6250146"><ele>125.0</ele><time>2026-05-01T10:13:53.917Z</time></trkpt><trkpt lat="42.5498915" lon="12.6251779"><ele>125.0</ele><time>2026-05-01T10:13:54.916Z</time></trkpt><trkpt lat="42.5499614" lon="12.6253521"><ele>125.0</ele><time>2026-05-01T10:13:55.917Z</time></trkpt><trkpt lat="42.5500281" lon="12.6255216"><ele>125.0</ele><time>2026-05-01T10:13:56.917Z</time></trkpt><trkpt lat="42.5500935" lon="12.6256985"><ele>125.0</ele><time>2026-05-01T10:13:57.917Z</time></trkpt><trkpt lat="42.5501593" lon="12.6258711"><ele>125.0</ele><time>2026-05-01T10:13:58.916Z</time></trkpt><trkpt lat="42.5502185" lon="12.6260215"><ele>125.0</ele><time>2026-05-01T10:13:59.916Z</time></trkpt><trkpt lat="42.55028" lon="12.6261776"><ele>125.0</ele><time>2026-05-01T10:14:00.917Z</time></trkpt><trkpt lat="42.5503412" lon="12.6263158"><ele>125.0</ele><time>2026-05-01T10:14:01.917Z</time></trkpt><trkpt lat="42.5504054" lon="12.6264646"><ele>125.0</ele><time>2026-05-01T10:14:02.917Z</time></trkpt><trkpt lat="42.5504722" lon="12.6266121"><ele>125.0</ele><time>2026-05-01T10:14:03.917Z</time></trkpt><trkpt lat="42.5505468" lon="12.6267625"><ele>125.25</ele><time>2026-05-01T10:14:04.917Z</time></trkpt><trkpt lat="42.5506131" lon="12.6269201"><ele>125.5</ele><time>2026-05-01T10:14:05.917Z</time></trkpt><trkpt lat="42.5506827" lon="12.6270654"><ele>125.75</ele><time>2026-05-01T10:14:06.916Z</time></trkpt><trkpt lat="42.5507542" lon="12.6272104"><ele>126.0</ele><time>2026-05-01T10:14:07.917Z</time></trkpt><trkpt lat="42.5508288" lon="12.62735"><ele>126.25</ele><time>2026-05-01T10:14:08.916Z</time></trkpt><trkpt lat="42.5509154" lon="12.6275075"><ele>126.5</ele><time>2026-05-01T10:14:09.917Z</time></trkpt><trkpt lat="42.5510056" lon="12.6276631"><ele>126.75</ele><time>2026-05-01T10:14:10.917Z</time></trkpt><trkpt lat="42.551096" lon="12.6278115"><ele>127.0</ele><time>2026-05-01T10:14:11.917Z</time></trkpt><trkpt lat="42.5511879" lon="12.6279755"><ele>125.75</ele><time>2026-05-01T10:14:12.917Z</time></trkpt><trkpt lat="42.5512798" lon="12.6281352"><ele>124.5</ele><time>2026-05-01T10:14:13.916Z</time></trkpt><trkpt lat="42.5513651" lon="12.6282699"><ele>123.25</ele><time>2026-05-01T10:14:14.916Z</time></trkpt><trkpt lat="42.5514407" lon="12.6283974"><ele>122.0</ele><time>2026-05-01T10:14:15.917Z</time></trkpt><trkpt lat="42.5515179" lon="12.628532"><ele>122.6</ele><time>2026-05-01T10:14:16.916Z</time></trkpt><trkpt lat="42.5515825" lon="12.6286602"><ele>123.19999999999999</ele><time>2026-05-01T10:14:17.917Z</time></trkpt><trkpt lat="42.5516464" lon="12.6287818"><ele>123.8</ele><time>2026-05-01T10:14:18.917Z</time></trkpt><trkpt lat="42.5516937" lon="12.6288902"><ele>124.4</ele><time>2026-05-01T10:14:19.917Z</time></trkpt><trkpt lat="42.5517336" lon="12.6289961"><ele>125.0</ele><time>2026-05-01T10:14:20.916Z</time></trkpt><trkpt lat="42.5517688" lon="12.6291028"><ele>125.0</ele><time>2026-05-01T10:14:21.917Z</time></trkpt><trkpt lat="42.5517959" lon="12.6292153"><ele>125.0</ele><time>2026-05-01T10:14:22.917Z</time></trkpt><trkpt lat="42.5518105" lon="12.6293324"><ele>125.0</ele><time>2026-05-01T10:14:23.916Z</time></trkpt><trkpt lat="42.5518089" lon="12.6294679"><ele>125.0</ele><time>2026-05-01T10:14:24.917Z</time></trkpt><trkpt lat="42.551797" lon="12.6295976"><ele>125.0</ele><time>2026-05-01T10:14:25.917Z</time></trkpt><trkpt lat="42.5517698" lon="12.6297458"><ele>125.5</ele><time>2026-05-01T10:14:26.917Z</time></trkpt><trkpt lat="42.5517453" lon="12.6299039"><ele>126.0</ele><time>2026-05-01T10:14:27.917Z</time></trkpt><trkpt lat="42.5517243" lon="12.6300618"><ele>126.5</ele><time>2026-05-01T10:14:28.916Z</time></trkpt><trkpt lat="42.5517022" lon="12.6302473"><ele>127.0</ele><time>2026-05-01T10:14:29.917Z</time></trkpt><trkpt lat="42.5516794" lon="12.6304215"><ele>127.0</ele><time>2026-05-01T10:14:30.917Z</time></trkpt><trkpt lat="42.551648" lon="12.6305963"><ele>127.0</ele><time>2026-05-01T10:14:31.917Z</time></trkpt><trkpt lat="42.5516107" lon="12.6307709"><ele>127.0</ele><time>2026-05-01T10:14:32.917Z</time></trkpt><trkpt lat="42.5515807" lon="12.6309187"><ele>127.0</ele><time>2026-05-01T10:14:33.917Z</time></trkpt><trkpt lat="42.5515626" lon="12.6310599"><ele>127.0</ele><time>2026-05-01T10:14:34.917Z</time></trkpt><trkpt lat="42.5515447" lon="12.6311845"><ele>126.99999999999999</ele><time>2026-05-01T10:14:35.916Z</time></trkpt><trkpt lat="42.551521" lon="12.6313117"><ele>126.99999999999999</ele><time>2026-05-01T10:14:36.916Z</time></trkpt><trkpt lat="42.5514981" lon="12.6314352"><ele>127.0</ele><time>2026-05-01T10:14:37.917Z</time></trkpt><trkpt lat="42.5514733" lon="12.6315671"><ele>127.0</ele><time>2026-05-01T10:14:38.917Z</time></trkpt><trkpt lat="42.551448" lon="12.6316877"><ele>127.0</ele><time>2026-05-01T10:14:39.916Z</time></trkpt><trkpt lat="42.5514365" lon="12.6318194"><ele>126.99999999999999</ele><time>2026-05-01T10:14:40.917Z</time></trkpt><trkpt lat="42.5514334" lon="12.6319608"><ele>126.99999999999999</ele><time>2026-05-01T10:14:41.917Z</time></trkpt><trkpt lat="42.5514162" lon="12.6321066"><ele>127.0</ele><time>2026-05-01T10:14:42.917Z</time></trkpt><trkpt lat="42.5513964" lon="12.6322301"><ele>127.0</ele><time>2026-05-01T10:14:43.917Z</time></trkpt><trkpt lat="42.5513769" lon="12.6323476"><ele>126.83333333333334</ele><time>2026-05-01T10:14:44.917Z</time></trkpt><trkpt lat="42.5513624" lon="12.63246"><ele>126.66666666666667</ele><time>2026-05-01T10:14:45.916Z</time></trkpt><trkpt lat="42.5513453" lon="12.6325704"><ele>126.5</ele><time>2026-05-01T10:14:46.917Z</time></trkpt><trkpt lat="42.5513296" lon="12.6326767"><ele>126.33333333333334</ele><time>2026-05-01T10:14:47.916Z</time></trkpt><trkpt lat="42.5513133" lon="12.6327863"><ele>126.16666666666667</ele><time>2026-05-01T10:14:48.917Z</time></trkpt><trkpt lat="42.5513028" lon="12.6328993"><ele>126.0</ele><time>2026-05-01T10:14:49.917Z</time></trkpt><trkpt lat="42.551284" lon="12.6330229"><ele>125.8</ele><time>2026-05-01T10:14:50.917Z</time></trkpt><trkpt lat="42.551266" lon="12.633145"><ele>125.6</ele><time>2026-05-01T10:14:51.917Z</time></trkpt><trkpt lat="42.5512477" lon="12.6332693"><ele>125.4</ele><time>2026-05-01T10:14:52.917Z</time></trkpt><trkpt lat="42.5512363" lon="12.6333918"><ele>125.2</ele><time>2026-05-01T10:14:53.917Z</time></trkpt><trkpt lat="42.5512171" lon="12.6335333"><ele>125.0</ele><time>2026-05-01T10:14:54.917Z</time></trkpt><trkpt lat="42.5511878" lon="12.6337178"><ele>126.33333333333333</ele><time>2026-05-01T10:14:55.917Z</time></trkpt><trkpt lat="42.5511477" lon="12.6339292"><ele>127.66666666666666</ele><time>2026-05-01T10:14:56.917Z</time></trkpt><trkpt lat="42.5511096" lon="12.6341748"><ele>129.0</ele><time>2026-05-01T10:14:57.917Z</time></trkpt><trkpt lat="42.5510707" lon="12.6344037"><ele>128.0</ele><time>2026-05-01T10:14:58.917Z</time></trkpt><trkpt lat="42.5510437" lon="12.6346154"><ele>127.0</ele><time>2026-05-01T10:14:59.916Z</time></trkpt><trkpt lat="42.5510278" lon="12.6348135"><ele>126.0</ele><time>2026-05-01T10:15:00.917Z</time></trkpt><trkpt lat="42.5509986" lon="12.6350083"><ele>126.0</ele><time>2026-05-01T10:15:01.917Z</time></trkpt><trkpt lat="42.5509658" lon="12.6352034"><ele>126.0</ele><time>2026-05-01T10:15:02.916Z</time></trkpt><trkpt lat="42.55093" lon="12.6353934"><ele>126.0</ele><time>2026-05-01T10:15:03.916Z</time></trkpt><trkpt lat="42.5509031" lon="12.6355801"><ele>126.0</ele><time>2026-05-01T10:15:04.917Z</time></trkpt><trkpt lat="42.5508816" lon="12.6357539"><ele>126.4</ele><time>2026-05-01T10:15:05.917Z</time></trkpt><trkpt lat="42.5508677" lon="12.6359118"><ele>126.8</ele><time>2026-05-01T10:15:06.917Z</time></trkpt><trkpt lat="42.5508677" lon="12.6360607"><ele>127.20000000000002</ele><time>2026-05-01T10:15:07.917Z</time></trkpt><trkpt lat="42.5508691" lon="12.6361846"><ele>127.60000000000001</ele><time>2026-05-01T10:15:08.917Z</time></trkpt><trkpt lat="42.5508628" lon="12.636278"><ele>128.0</ele><time>2026-05-01T10:15:09.917Z</time></trkpt><trkpt lat="42.5508922" lon="12.636401"><ele>128.4</ele><time>2026-05-01T10:15:11.917Z</time></trkpt><trkpt lat="42.5509327" lon="12.6365436"><ele>128.8</ele><time>2026-05-01T10:15:13.917Z</time></trkpt><trkpt lat="42.5509764" lon="12.636633"><ele>129.2</ele><time>2026-05-01T10:15:14.917Z</time></trkpt><trkpt lat="42.5510402" lon="12.6367394"><ele>129.6</ele><time>2026-05-01T10:15:15.916Z</time></trkpt><trkpt lat="42.5511232" lon="12.6368545"><ele>130.0</ele><time>2026-05-01T10:15:16.916Z</time></trkpt><trkpt lat="42.5512047" lon="12.6369803"><ele>130.25</ele><time>2026-05-01T10:15:17.917Z</time></trkpt><trkpt lat="42.5512867" lon="12.6371249"><ele>130.5</ele><time>2026-05-01T10:15:18.917Z</time></trkpt><trkpt lat="42.5513564" lon="12.6372966"><ele>130.75</ele><time>2026-05-01T10:15:19.917Z</time></trkpt><trkpt lat="42.5514257" lon="12.6374707"><ele>131.0</ele><time>2026-05-01T10:15:20.917Z</time></trkpt><trkpt lat="42.5514859" lon="12.6376556"><ele>131.33333333333331</ele><time>2026-05-01T10:15:21.917Z</time></trkpt><trkpt lat="42.5515517" lon="12.6378539"><ele>131.66666666666666</ele><time>2026-05-01T10:15:22.916Z</time></trkpt><trkpt lat="42.5516189" lon="12.6380505"><ele>132.0</ele><time>2026-05-01T10:15:23.917Z</time></trkpt><trkpt lat="42.5516779" lon="12.6382405"><ele>132.0</ele><time>2026-05-01T10:15:24.917Z</time></trkpt><trkpt lat="42.55174" lon="12.6384225"><ele>132.0</ele><time>2026-05-01T10:15:25.917Z</time></trkpt><trkpt lat="42.5517911" lon="12.6385979"><ele>132.0</ele><time>2026-05-01T10:15:26.916Z</time></trkpt><trkpt lat="42.5518442" lon="12.638765"><ele>132.0</ele><time>2026-05-01T10:15:27.917Z</time></trkpt><trkpt lat="42.5518906" lon="12.6389072"><ele>131.75</ele><time>2026-05-01T10:15:28.916Z</time></trkpt><trkpt lat="42.5519256" lon="12.6390518"><ele>131.5</ele><time>2026-05-01T10:15:29.916Z</time></trkpt><trkpt lat="42.5519581" lon="12.6391993"><ele>131.25</ele><time>2026-05-01T10:15:30.917Z</time></trkpt><trkpt lat="42.5519868" lon="12.6393496"><ele>131.0</ele><time>2026-05-01T10:15:31.916Z</time></trkpt><trkpt lat="42.5520229" lon="12.6395182"><ele>130.75</ele><time>2026-05-01T10:15:32.917Z</time></trkpt><trkpt lat="42.5520616" lon="12.6396916"><ele>130.5</ele><time>2026-05-01T10:15:33.916Z</time></trkpt><trkpt lat="42.5520943" lon="12.6398621"><ele>130.25</ele><time>2026-05-01T10:15:34.917Z</time></trkpt><trkpt lat="42.5521222" lon="12.6400324"><ele>130.0</ele><time>2026-05-01T10:15:35.917Z</time></trkpt><trkpt lat="42.5521472" lon="12.6401924"><ele>129.25</ele><time>2026-05-01T10:15:36.916Z</time></trkpt><trkpt lat="42.5521658" lon="12.6403483"><ele>128.5</ele><time>2026-05-01T10:15:37.916Z</time></trkpt><trkpt lat="42.5521834" lon="12.6404819"><ele>127.75</ele><time>2026-05-01T10:15:38.917Z</time></trkpt><trkpt lat="42.5522035" lon="12.6406334"><ele>127.0</ele><time>2026-05-01T10:15:39.917Z</time></trkpt><trkpt lat="42.5522388" lon="12.6407976"><ele>127.0</ele><time>2026-05-01T10:15:40.917Z</time></trkpt><trkpt lat="42.5522648" lon="12.6409755"><ele>127.0</ele><time>2026-05-01T10:15:41.916Z</time></trkpt><trkpt lat="42.5522855" lon="12.6411594"><ele>127.0</ele><time>2026-05-01T10:15:42.916Z</time></trkpt><trkpt lat="42.5523011" lon="12.6413374"><ele>127.0</ele><time>2026-05-01T10:15:43.917Z</time></trkpt><trkpt lat="42.5523235" lon="12.6414906"><ele>127.39999999999999</ele><time>2026-05-01T10:15:44.916Z</time></trkpt><trkpt lat="42.5523482" lon="12.6416431"><ele>127.79999999999998</ele><time>2026-05-01T10:15:45.917Z</time></trkpt><trkpt lat="42.5523729" lon="12.6417916"><ele>128.2</ele><time>2026-05-01T10:15:46.917Z</time></trkpt><trkpt lat="42.5524039" lon="12.6419233"><ele>128.6</ele><time>2026-05-01T10:15:47.916Z</time></trkpt><trkpt lat="42.5524376" lon="12.6420647"><ele>129.0</ele><time>2026-05-01T10:15:48.917Z</time></trkpt><trkpt lat="42.5524668" lon="12.6422054"><ele>129.0</ele><time>2026-05-01T10:15:49.917Z</time></trkpt><trkpt lat="42.5524863" lon="12.6423256"><ele>129.0</ele><time>2026-05-01T10:15:50.917Z</time></trkpt><trkpt lat="42.5525118" lon="12.6424348"><ele>129.0</ele><time>2026-05-01T10:15:51.918Z</time></trkpt><trkpt lat="42.5525243" lon="12.6425384"><ele>129.0</ele><time>2026-05-01T10:15:52.918Z</time></trkpt><trkpt lat="42.5525444" lon="12.6426513"><ele>129.0</ele><time>2026-05-01T10:15:53.918Z</time></trkpt><trkpt lat="42.5525631" lon="12.64279"><ele>129.0</ele><time>2026-05-01T10:15:54.918Z</time></trkpt><trkpt lat="42.5525871" lon="12.6429322"><ele>129.0</ele><time>2026-05-01T10:15:55.918Z</time></trkpt><trkpt lat="42.5526054" lon="12.6430697"><ele>129.0</ele><time>2026-05-01T10:15:56.918Z</time></trkpt><trkpt lat="42.5526243" lon="12.6432068"><ele>129.0</ele><time>2026-05-01T10:15:57.918Z</time></trkpt><trkpt lat="42.5526472" lon="12.6433468"><ele>129.0</ele><time>2026-05-01T10:15:58.917Z</time></trkpt><trkpt lat="42.5526716" lon="12.6434689"><ele>129.0</ele><time>2026-05-01T10:15:59.918Z</time></trkpt><trkpt lat="42.5526845" lon="12.6435593"><ele>129.33333333333334</ele><time>2026-05-01T10:16:00.917Z</time></trkpt><trkpt lat="42.5527044" lon="12.6437086"><ele>129.66666666666666</ele><time>2026-05-01T10:16:02.917Z</time></trkpt><trkpt lat="42.5527279" lon="12.6438427"><ele>130.0</ele><time>2026-05-01T10:16:04.917Z</time></trkpt><trkpt lat="42.5527437" lon="12.6439263"><ele>130.33333333333331</ele><time>2026-05-01T10:16:06.917Z</time></trkpt><trkpt lat="42.5527664" lon="12.6440258"><ele>130.66666666666666</ele><time>2026-05-01T10:16:18.918Z</time></trkpt><trkpt lat="42.5527768" lon="12.6441167"><ele>131.0</ele><time>2026-05-01T10:16:31.918Z</time></trkpt><trkpt lat="42.5527581" lon="12.6442324"><ele>131.0</ele><time>2026-05-01T10:16:33.918Z</time></trkpt><trkpt lat="42.5527576" lon="12.644341"><ele>131.0</ele><time>2026-05-01T10:16:34.918Z</time></trkpt><trkpt lat="42.5527788" lon="12.6444585"><ele>131.0</ele><time>2026-05-01T10:16:35.917Z</time></trkpt><trkpt lat="42.5528187" lon="12.6445974"><ele>131.0</ele><time>2026-05-01T10:16:36.918Z</time></trkpt><trkpt lat="42.5528546" lon="12.6447643"><ele>131.0</ele><time>2026-05-01T10:16:37.917Z</time></trkpt><trkpt lat="42.552889" lon="12.6449328"><ele>130.75</ele><time>2026-05-01T10:16:38.918Z</time></trkpt><trkpt lat="42.5529129" lon="12.6451172"><ele>130.5</ele><time>2026-05-01T10:16:39.917Z</time></trkpt><trkpt lat="42.5529377" lon="12.6452956"><ele>130.25</ele><time>2026-05-01T10:16:40.917Z</time></trkpt><trkpt lat="42.5529588" lon="12.6454631"><ele>130.0</ele><time>2026-05-01T10:16:41.918Z</time></trkpt><trkpt lat="42.5529661" lon="12.6455892"><ele>130.2</ele><time>2026-05-01T10:16:42.917Z</time></trkpt><trkpt lat="42.5529799" lon="12.645678"><ele>130.4</ele><time>2026-05-01T10:16:43.918Z</time></trkpt><trkpt lat="42.5529915" lon="12.6458346"><ele>130.6</ele><time>2026-05-01T10:16:45.918Z</time></trkpt><trkpt lat="42.5529861" lon="12.6459559"><ele>130.8</ele><time>2026-05-01T10:16:47.918Z</time></trkpt><trkpt lat="42.5530117" lon="12.6460675"><ele>131.0</ele><time>2026-05-01T10:16:49.917Z</time></trkpt><trkpt lat="42.5530773" lon="12.6461778"><ele>131.0</ele><time>2026-05-01T10:16:51.918Z</time></trkpt><trkpt lat="42.5531529" lon="12.6463023"><ele>131.0</ele><time>2026-05-01T10:16:53.918Z</time></trkpt><trkpt lat="42.5531898" lon="12.6463875"><ele>131.0</ele><time>2026-05-01T10:16:54.918Z</time></trkpt><trkpt lat="42.5532237" lon="12.6464624"><ele>131.0</ele><time>2026-05-01T10:16:55.917Z</time></trkpt><trkpt lat="42.5532537" lon="12.6465383"><ele>131.0</ele><time>2026-05-01T10:16:56.918Z</time></trkpt><trkpt lat="42.5533083" lon="12.6466819"><ele>131.0</ele><time>2026-05-01T10:16:58.918Z</time></trkpt><trkpt lat="42.5533512" lon="12.6467952"><ele>131.0</ele><time>2026-05-01T10:17:00.918Z</time></trkpt><trkpt lat="42.5533933" lon="12.6469131"><ele>131.0</ele><time>2026-05-01T10:17:02.918Z</time></trkpt><trkpt lat="42.5534605" lon="12.6470406"><ele>131.0</ele><time>2026-05-01T10:17:04.918Z</time></trkpt><trkpt lat="42.5535114" lon="12.647126"><ele>131.0</ele><time>2026-05-01T10:17:05.918Z</time></trkpt><trkpt lat="42.5535502" lon="12.6472358"><ele>131.0</ele><time>2026-05-01T10:17:06.917Z</time></trkpt><trkpt lat="42.5535843" lon="12.6473635"><ele>130.8</ele><time>2026-05-01T10:17:07.918Z</time></trkpt><trkpt lat="42.5536291" lon="12.6474927"><ele>130.6</ele><time>2026-05-01T10:17:08.918Z</time></trkpt><trkpt lat="42.5536748" lon="12.647618"><ele>130.4</ele><time>2026-05-01T10:17:09.917Z</time></trkpt><trkpt lat="42.5537135" lon="12.6477425"><ele>130.2</ele><time>2026-05-01T10:17:10.918Z</time></trkpt><trkpt lat="42.5537597" lon="12.6478603"><ele>130.0</ele><time>2026-05-01T10:17:11.918Z</time></trkpt><trkpt lat="42.5538051" lon="12.6479671"><ele>129.6</ele><time>2026-05-01T10:17:12.918Z</time></trkpt><trkpt lat="42.5538505" lon="12.648069"><ele>129.2</ele><time>2026-05-01T10:17:13.918Z</time></trkpt><trkpt lat="42.5538913" lon="12.6481728"><ele>128.8</ele><time>2026-05-01T10:17:14.918Z</time></trkpt><trkpt lat="42.5539306" lon="12.6482791"><ele>128.4</ele><time>2026-05-01T10:17:15.918Z</time></trkpt><trkpt lat="42.5539739" lon="12.6483878"><ele>128.0</ele><time>2026-05-01T10:17:16.918Z</time></trkpt><trkpt lat="42.5540265" lon="12.6485172"><ele>129.0</ele><time>2026-05-01T10:17:17.918Z</time></trkpt><trkpt lat="42.5540776" lon="12.648651"><ele>130.0</ele><time>2026-05-01T10:17:18.918Z</time></trkpt><trkpt lat="42.5541319" lon="12.6487791"><ele>131.0</ele><time>2026-05-01T10:17:19.917Z</time></trkpt><trkpt lat="42.5541965" lon="12.6489277"><ele>132.0</ele><time>2026-05-01T10:17:20.918Z</time></trkpt><trkpt lat="42.5542704" lon="12.6490835"><ele>132.0</ele><time>2026-05-01T10:17:21.918Z</time></trkpt><trkpt lat="42.5543501" lon="12.6492234"><ele>132.0</ele><time>2026-05-01T10:17:22.918Z</time></trkpt><trkpt lat="42.5544379" lon="12.6493528"><ele>132.0</ele><time>2026-05-01T10:17:23.918Z</time></trkpt><trkpt lat="42.5545198" lon="12.6494786"><ele>132.0</ele><time>2026-05-01T10:17:24.918Z</time></trkpt><trkpt lat="42.5545997" lon="12.6495983"><ele>132.0</ele><time>2026-05-01T10:17:25.918Z</time></trkpt><trkpt lat="42.5546657" lon="12.649715"><ele>132.0</ele><time>2026-05-01T10:17:26.917Z</time></trkpt><trkpt lat="42.5547094" lon="12.6498539"><ele>132.0</ele><time>2026-05-01T10:17:27.918Z</time></trkpt><trkpt lat="42.5547448" lon="12.6499946"><ele>132.0</ele><time>2026-05-01T10:17:28.917Z</time></trkpt><trkpt lat="42.554781" lon="12.6501386"><ele>132.0</ele><time>2026-05-01T10:17:29.918Z</time></trkpt><trkpt lat="42.5548183" lon="12.6503221"><ele>132.33333333333334</ele><time>2026-05-01T10:17:30.918Z</time></trkpt><trkpt lat="42.5548758" lon="12.6505296"><ele>132.66666666666669</ele><time>2026-05-01T10:17:31.917Z</time></trkpt><trkpt lat="42.5549277" lon="12.6507387"><ele>133.0</ele><time>2026-05-01T10:17:32.918Z</time></trkpt><trkpt lat="42.5549784" lon="12.6509355"><ele>133.0</ele><time>2026-05-01T10:17:33.918Z</time></trkpt><trkpt lat="42.5550348" lon="12.6511291"><ele>133.0</ele><time>2026-05-01T10:17:34.917Z</time></trkpt><trkpt lat="42.5550878" lon="12.65131"><ele>133.0</ele><time>2026-05-01T10:17:35.918Z</time></trkpt><trkpt lat="42.5551387" lon="12.6514569"><ele>133.0</ele><time>2026-05-01T10:17:36.917Z</time></trkpt><trkpt lat="42.5551846" lon="12.6515935"><ele>133.0</ele><time>2026-05-01T10:17:37.918Z</time></trkpt><trkpt lat="42.555231" lon="12.6517317"><ele>133.0</ele><time>2026-05-01T10:17:38.918Z</time></trkpt><trkpt lat="42.5552806" lon="12.6518814"><ele>133.0</ele><time>2026-05-01T10:17:39.918Z</time></trkpt><trkpt lat="42.5553363" lon="12.6520379"><ele>133.0</ele><time>2026-05-01T10:17:40.917Z</time></trkpt><trkpt lat="42.5554071" lon="12.6522134"><ele>131.66666666666669</ele><time>2026-05-01T10:17:41.918Z</time></trkpt><trkpt lat="42.5555035" lon="12.6524158"><ele>130.33333333333334</ele><time>2026-05-01T10:17:42.918Z</time></trkpt><trkpt lat="42.5556121" lon="12.6526206"><ele>129.0</ele><time>2026-05-01T10:17:43.918Z</time></trkpt><trkpt lat="42.555738" lon="12.6528261"><ele>129.66666666666666</ele><time>2026-05-01T10:17:44.917Z</time></trkpt><trkpt lat="42.5558834" lon="12.6530236"><ele>130.33333333333331</ele><time>2026-05-01T10:17:45.918Z</time></trkpt><trkpt lat="42.5560463" lon="12.6532272"><ele>131.0</ele><time>2026-05-01T10:17:46.918Z</time></trkpt><trkpt lat="42.5562317" lon="12.6534336"><ele>136.5</ele><time>2026-05-01T10:17:47.918Z</time></trkpt><trkpt lat="42.5564261" lon="12.6536286"><ele>142.0</ele><time>2026-05-01T10:17:48.918Z</time></trkpt><trkpt lat="42.5566178" lon="12.6538001"><ele>142.0</ele><time>2026-05-01T10:17:49.917Z</time></trkpt><trkpt lat="42.5568005" lon="12.6539587"><ele>142.0</ele><time>2026-05-01T10:17:50.917Z</time></trkpt><trkpt lat="42.5569772" lon="12.6541144"><ele>142.0</ele><time>2026-05-01T10:17:51.918Z</time></trkpt><trkpt lat="42.5571496" lon="12.65428"><ele>141.0</ele><time>2026-05-01T10:17:52.918Z</time></trkpt><trkpt lat="42.5573234" lon="12.6544337"><ele>140.0</ele><time>2026-05-01T10:17:53.918Z</time></trkpt><trkpt lat="42.5574905" lon="12.6545812"><ele>139.0</ele><time>2026-05-01T10:17:54.918Z</time></trkpt><trkpt lat="42.5576479" lon="12.6547128"><ele>139.0</ele><time>2026-05-01T10:17:55.918Z</time></trkpt><trkpt lat="42.5577773" lon="12.6548433"><ele>139.0</ele><time>2026-05-01T10:17:56.917Z</time></trkpt><trkpt lat="42.5578914" lon="12.6549606"><ele>139.0</ele><time>2026-05-01T10:17:57.918Z</time></trkpt><trkpt lat="42.5580005" lon="12.6550801"><ele>139.0</ele><time>2026-05-01T10:17:58.917Z</time></trkpt><trkpt lat="42.5581071" lon="12.6552085"><ele>136.0</ele><time>2026-05-01T10:17:59.918Z</time></trkpt><trkpt lat="42.5582104" lon="12.6553491"><ele>133.0</ele><time>2026-05-01T10:18:00.918Z</time></trkpt><trkpt lat="42.5583071" lon="12.6554903"><ele>130.0</ele><time>2026-05-01T10:18:01.917Z</time></trkpt><trkpt lat="42.5583893" lon="12.6556349"><ele>127.0</ele><time>2026-05-01T10:18:02.918Z</time></trkpt><trkpt lat="42.5584521" lon="12.6557442"><ele>127.00000000000001</ele><time>2026-05-01T10:18:03.918Z</time></trkpt><trkpt lat="42.5585065" lon="12.6558306"><ele>127.0</ele><time>2026-05-01T10:18:04.917Z</time></trkpt><trkpt lat="42.5585456" lon="12.6559244"><ele>127.0</ele><time>2026-05-01T10:18:05.918Z</time></trkpt><trkpt lat="42.5585817" lon="12.6560086"><ele>127.0</ele><time>2026-05-01T10:18:06.918Z</time></trkpt><trkpt lat="42.5586116" lon="12.6561014"><ele>127.00000000000001</ele><time>2026-05-01T10:18:07.918Z</time></trkpt><trkpt lat="42.5586245" lon="12.6562093"><ele>127.0</ele><time>2026-05-01T10:18:08.917Z</time></trkpt><trkpt lat="42.5586111" lon="12.656336"><ele>127.0</ele><time>2026-05-01T10:18:09.917Z</time></trkpt><trkpt lat="42.5585993" lon="12.6564659"><ele>126.99999999999999</ele><time>2026-05-01T10:18:10.918Z</time></trkpt><trkpt lat="42.5585966" lon="12.6565887"><ele>126.99999999999999</ele><time>2026-05-01T10:18:11.917Z</time></trkpt><trkpt lat="42.5586164" lon="12.6567087"><ele>127.0</ele><time>2026-05-01T10:18:12.918Z</time></trkpt><trkpt lat="42.5586555" lon="12.6568268"><ele>127.0</ele><time>2026-05-01T10:18:13.918Z</time></trkpt><trkpt lat="42.5587184" lon="12.6569247"><ele>127.0</ele><time>2026-05-01T10:18:14.918Z</time></trkpt><trkpt lat="42.5588091" lon="12.6570051"><ele>127.0</ele><time>2026-05-01T10:18:15.918Z</time></trkpt><trkpt lat="42.5589162" lon="12.6570764"><ele>127.0</ele><time>2026-05-01T10:18:16.918Z</time></trkpt><trkpt lat="42.5590338" lon="12.6571251"><ele>127.0</ele><time>2026-05-01T10:18:17.918Z</time></trkpt><trkpt lat="42.5591499" lon="12.6571662"><ele>127.0</ele><time>2026-05-01T10:18:18.918Z</time></trkpt><trkpt lat="42.5592509" lon="12.6572066"><ele>126.99999999999999</ele><time>2026-05-01T10:18:19.917Z</time></trkpt><trkpt lat="42.5593452" lon="12.6572314"><ele>126.99999999999999</ele><time>2026-05-01T10:18:20.918Z</time></trkpt><trkpt lat="42.559435" lon="12.6572552"><ele>127.0</ele><time>2026-05-01T10:18:21.917Z</time></trkpt><trkpt lat="42.5595266" lon="12.6572813"><ele>127.0</ele><time>2026-05-01T10:18:22.918Z</time></trkpt><trkpt lat="42.5596211" lon="12.6573088"><ele>127.00000000000001</ele><time>2026-05-01T10:18:23.918Z</time></trkpt><trkpt lat="42.5597063" lon="12.6573366"><ele>127.0</ele><time>2026-05-01T10:18:24.917Z</time></trkpt><trkpt lat="42.5597814" lon="12.657365"><ele>127.0</ele><time>2026-05-01T10:18:25.917Z</time></trkpt><trkpt lat="42.5598475" lon="12.6573872"><ele>127.0</ele><time>2026-05-01T10:18:26.918Z</time></trkpt><trkpt lat="42.5599462" lon="12.6574187"><ele>127.00000000000001</ele><time>2026-05-01T10:18:28.917Z</time></trkpt><trkpt lat="42.560029" lon="12.6574452"><ele>127.0</ele><time>2026-05-01T10:18:30.917Z</time></trkpt><trkpt lat="42.5601149" lon="12.6574728"><ele>127.00000000000001</ele><time>2026-05-01T10:18:32.918Z</time></trkpt><trkpt lat="42.5602147" lon="12.6575044"><ele>127.0</ele><time>2026-05-01T10:18:34.918Z</time></trkpt><trkpt lat="42.5603115" lon="12.6575447"><ele>127.0</ele><time>2026-05-01T10:18:36.918Z</time></trkpt><trkpt lat="42.5604137" lon="12.6575809"><ele>127.0</ele><time>2026-05-01T10:18:38.917Z</time></trkpt><trkpt lat="42.5604774" lon="12.6576007"><ele>127.00000000000001</ele><time>2026-05-01T10:18:39.918Z</time></trkpt><trkpt lat="42.5605438" lon="12.6576166"><ele>127.0</ele><time>2026-05-01T10:18:40.917Z</time></trkpt><trkpt lat="42.5606526" lon="12.6576486"><ele>127.00000000000001</ele><time>2026-05-01T10:18:42.917Z</time></trkpt><trkpt lat="42.5607221" lon="12.6576661"><ele>127.0</ele><time>2026-05-01T10:18:44.918Z</time></trkpt><trkpt lat="42.560813" lon="12.6576999"><ele>127.0</ele><time>2026-05-01T10:18:47.918Z</time></trkpt><trkpt lat="42.5608815" lon="12.6577271"><ele>127.0</ele><time>2026-05-01T10:18:49.918Z</time></trkpt><trkpt lat="42.5610013" lon="12.65774"><ele>127.00000000000001</ele><time>2026-05-01T10:19:07.918Z</time></trkpt><trkpt lat="42.5610676" lon="12.6577506"><ele>127.0</ele><time>2026-05-01T10:19:08.918Z</time></trkpt><trkpt lat="42.5611529" lon="12.6577935"><ele>127.8</ele><time>2026-05-01T10:19:09.917Z</time></trkpt><trkpt lat="42.5612521" lon="12.6578307"><ele>128.6</ele><time>2026-05-01T10:19:10.917Z</time></trkpt><trkpt lat="42.5613639" lon="12.6578704"><ele>129.39999999999998</ele><time>2026-05-01T10:19:11.918Z</time></trkpt><trkpt lat="42.5614817" lon="12.6579142"><ele>130.2</ele><time>2026-05-01T10:19:12.917Z</time></trkpt><trkpt lat="42.5615773" lon="12.6579517"><ele>131.0</ele><time>2026-05-01T10:19:13.918Z</time></trkpt><trkpt lat="42.5616729" lon="12.6579789"><ele>131.0</ele><time>2026-05-01T10:19:15.917Z</time></trkpt><trkpt lat="42.5617681" lon="12.6580327"><ele>131.0</ele><time>2026-05-01T10:19:22.918Z</time></trkpt><trkpt lat="42.5618592" lon="12.6580681"><ele>131.0</ele><time>2026-05-01T10:19:24.918Z</time></trkpt><trkpt lat="42.5619678" lon="12.6581008"><ele>131.0</ele><time>2026-05-01T10:19:26.917Z</time></trkpt><trkpt lat="42.5620341" lon="12.6581212"><ele>131.0</ele><time>2026-05-01T10:19:27.917Z</time></trkpt><trkpt lat="42.5621115" lon="12.6581492"><ele>131.0</ele><time>2026-05-01T10:19:28.917Z</time></trkpt><trkpt lat="42.56218" lon="12.6581716"><ele>131.0</ele><time>2026-05-01T10:19:29.917Z</time></trkpt><trkpt lat="42.5623081" lon="12.6582091"><ele>131.0</ele><time>2026-05-01T10:19:31.917Z</time></trkpt><trkpt lat="42.5623942" lon="12.6582377"><ele>131.0</ele><time>2026-05-01T10:19:32.916Z</time></trkpt><trkpt lat="42.5624941" lon="12.6582731"><ele>131.0</ele><time>2026-05-01T10:19:33.917Z</time></trkpt><trkpt lat="42.5626074" lon="12.6583115"><ele>131.0</ele><time>2026-05-01T10:19:34.917Z</time></trkpt><trkpt lat="42.5627257" lon="12.6583569"><ele>131.0</ele><time>2026-05-01T10:19:35.917Z</time></trkpt><trkpt lat="42.562851" lon="12.6584078"><ele>131.0</ele><time>2026-05-01T10:19:36.917Z</time></trkpt><trkpt lat="42.5629775" lon="12.6584598"><ele>131.0</ele><time>2026-05-01T10:19:37.917Z</time></trkpt><trkpt lat="42.563097" lon="12.6585119"><ele>131.0</ele><time>2026-05-01T10:19:38.917Z</time></trkpt><trkpt lat="42.5632081" lon="12.658552"><ele>131.0</ele><time>2026-05-01T10:19:39.917Z</time></trkpt><trkpt lat="42.5633018" lon="12.6585935"><ele>131.0</ele><time>2026-05-01T10:19:40.917Z</time></trkpt><trkpt lat="42.5633847" lon="12.6586313"><ele>131.0</ele><time>2026-05-01T10:19:41.917Z</time></trkpt><trkpt lat="42.5634634" lon="12.6586641"><ele>131.0</ele><time>2026-05-01T10:19:42.917Z</time></trkpt><trkpt lat="42.5635296" lon="12.6586915"><ele>131.0</ele><time>2026-05-01T10:19:43.917Z</time></trkpt><trkpt lat="42.5636342" lon="12.6587503"><ele>131.0</ele><time>2026-05-01T10:19:45.917Z</time></trkpt><trkpt lat="42.5637264" lon="12.658795"><ele>131.0</ele><time>2026-05-01T10:19:47.917Z</time></trkpt><trkpt lat="42.5638032" lon="12.6588291"><ele>131.0</ele><time>2026-05-01T10:19:49.917Z</time></trkpt><trkpt lat="42.563871" lon="12.6588556"><ele>131.0</ele><time>2026-05-01T10:19:51.917Z</time></trkpt><trkpt lat="42.5639543" lon="12.658886"><ele>131.0</ele><time>2026-05-01T10:19:54.916Z</time></trkpt><trkpt lat="42.564039" lon="12.6589201"><ele>131.16666666666666</ele><time>2026-05-01T10:21:17.917Z</time></trkpt><trkpt lat="42.5641152" lon="12.6589426"><ele>131.33333333333331</ele><time>2026-05-01T10:21:20.916Z</time></trkpt><trkpt lat="42.5641808" lon="12.6589543"><ele>131.5</ele><time>2026-05-01T10:21:22.916Z</time></trkpt><trkpt lat="42.5642671" lon="12.6589133"><ele>131.66666666666666</ele><time>2026-05-01T10:21:24.916Z</time></trkpt><trkpt lat="42.5643365" lon="12.6587984"><ele>131.83333333333334</ele><time>2026-05-01T10:21:26.916Z</time></trkpt><trkpt lat="42.5643772" lon="12.6586725"><ele>132.0</ele><time>2026-05-01T10:21:28.917Z</time></trkpt><trkpt lat="42.5643997" lon="12.6585543"><ele>132.0</ele><time>2026-05-01T10:21:30.917Z</time></trkpt><trkpt lat="42.5644147" lon="12.6584079"><ele>132.0</ele><time>2026-05-01T10:21:32.916Z</time></trkpt><trkpt lat="42.5644296" lon="12.658257"><ele>132.0</ele><time>2026-05-01T10:21:34.916Z</time></trkpt><trkpt lat="42.5644525" lon="12.6581277"><ele>132.0</ele><time>2026-05-01T10:21:36.917Z</time></trkpt><trkpt lat="42.5644968" lon="12.6579846"><ele>132.0</ele><time>2026-05-01T10:21:38.917Z</time></trkpt><trkpt lat="42.564522" lon="12.6579054"><ele>132.0</ele><time>2026-05-01T10:21:39.917Z</time></trkpt><trkpt lat="42.5645542" lon="12.6578243"><ele>132.0</ele><time>2026-05-01T10:21:40.917Z</time></trkpt><trkpt lat="42.5645908" lon="12.6576779"><ele>132.0</ele><time>2026-05-01T10:21:42.916Z</time></trkpt><trkpt lat="42.5646076" lon="12.6575326"><ele>132.0</ele><time>2026-05-01T10:21:44.917Z</time></trkpt><trkpt lat="42.5646329" lon="12.6574116"><ele>132.0</ele><time>2026-05-01T10:21:46.917Z</time></trkpt><trkpt lat="42.5646512" lon="12.657258"><ele>132.0</ele><time>2026-05-01T10:21:48.917Z</time></trkpt><trkpt lat="42.5646796" lon="12.6571418"><ele>132.0</ele><time>2026-05-01T10:21:50.916Z</time></trkpt><trkpt lat="42.5646953" lon="12.6570154"><ele>132.0</ele><time>2026-05-01T10:21:52.917Z</time></trkpt><trkpt lat="42.5647304" lon="12.6568771"><ele>132.0</ele><time>2026-05-01T10:21:54.917Z</time></trkpt><trkpt lat="42.5647663" lon="12.6567557"><ele>132.0</ele><time>2026-05-01T10:21:56.917Z</time></trkpt><trkpt lat="42.5646979" lon="12.6569147"><ele>132.0</ele><time>2026-05-01T10:22:10.917Z</time></trkpt><trkpt lat="42.5646536" lon="12.657012"><ele>132.0</ele><time>2026-05-01T10:22:11.917Z</time></trkpt><trkpt lat="42.5646274" lon="12.6571386"><ele>132.0</ele><time>2026-05-01T10:22:12.916Z</time></trkpt><trkpt lat="42.564599" lon="12.6572532"><ele>132.0</ele><time>2026-05-01T10:22:13.916Z</time></trkpt><trkpt lat="42.5645763" lon="12.6573893"><ele>132.0</ele><time>2026-05-01T10:22:14.917Z</time></trkpt><trkpt lat="42.5645505" lon="12.6575066"><ele>132.0</ele><time>2026-05-01T10:22:15.917Z</time></trkpt><trkpt lat="42.5645205" lon="12.6576395"><ele>132.0</ele><time>2026-05-01T10:22:16.917Z</time></trkpt><trkpt lat="42.5644756" lon="12.6577668"><ele>132.0</ele><time>2026-05-01T10:22:17.917Z</time></trkpt><trkpt lat="42.5644427" lon="12.6578854"><ele>132.0</ele><time>2026-05-01T10:22:18.917Z</time></trkpt><trkpt lat="42.5644408" lon="12.6580048"><ele>132.0</ele><time>2026-05-01T10:22:19.917Z</time></trkpt><trkpt lat="42.5644224" lon="12.6581167"><ele>132.0</ele><time>2026-05-01T10:22:20.916Z</time></trkpt><trkpt lat="42.5644078" lon="12.6582239"><ele>132.0</ele><time>2026-05-01T10:22:21.917Z</time></trkpt><trkpt lat="42.5643789" lon="12.6583376"><ele>132.0</ele><time>2026-05-01T10:22:23.917Z</time></trkpt><trkpt lat="42.5643163" lon="12.6585173"><ele>132.0</ele><time>2026-05-01T10:23:09.917Z</time></trkpt><trkpt lat="42.5642973" lon="12.6586283"><ele>132.0</ele><time>2026-05-01T10:25:05.917Z</time></trkpt><trkpt lat="42.5642706" lon="12.6587148"><ele>132.0</ele><time>2026-05-01T10:25:06.918Z</time></trkpt><trkpt lat="42.5642472" lon="12.6588061"><ele>132.0</ele><time>2026-05-01T10:25:07.918Z</time></trkpt><trkpt lat="42.5642313" lon="12.6589115"><ele>132.0</ele><time>2026-05-01T10:25:08.918Z</time></trkpt><trkpt lat="42.5642018" lon="12.6590213"><ele>132.0</ele><time>2026-05-01T10:25:09.917Z</time></trkpt><trkpt lat="42.5641704" lon="12.65914"><ele>132.0</ele><time>2026-05-01T10:25:10.918Z</time></trkpt><trkpt lat="42.5641368" lon="12.6592818"><ele>132.0</ele><time>2026-05-01T10:25:11.917Z</time></trkpt><trkpt lat="42.5641033" lon="12.6594178"><ele>132.25</ele><time>2026-05-01T10:25:12.917Z</time></trkpt><trkpt lat="42.5640669" lon="12.659577"><ele>132.5</ele><time>2026-05-01T10:25:13.918Z</time></trkpt><trkpt lat="42.5640407" lon="12.6597331"><ele>132.75</ele><time>2026-05-01T10:25:14.918Z</time></trkpt><trkpt lat="42.564014" lon="12.6598914"><ele>133.0</ele><time>2026-05-01T10:25:15.918Z</time></trkpt><trkpt lat="42.5639834" lon="12.6600621"><ele>133.0</ele><time>2026-05-01T10:25:16.918Z</time></trkpt><trkpt lat="42.5639431" lon="12.6602421"><ele>133.0</ele><time>2026-05-01T10:25:17.918Z</time></trkpt><trkpt lat="42.5639045" lon="12.6604346"><ele>133.0</ele><time>2026-05-01T10:25:18.918Z</time></trkpt><trkpt lat="42.5638642" lon="12.660614"><ele>133.0</ele><time>2026-05-01T10:25:19.918Z</time></trkpt><trkpt lat="42.5638225" lon="12.6608108"><ele>133.33333333333334</ele><time>2026-05-01T10:25:20.917Z</time></trkpt><trkpt lat="42.5637781" lon="12.6610061"><ele>133.66666666666666</ele><time>2026-05-01T10:25:21.918Z</time></trkpt><trkpt lat="42.5637357" lon="12.6612008"><ele>134.0</ele><time>2026-05-01T10:25:22.918Z</time></trkpt><trkpt lat="42.563691" lon="12.661398"><ele>134.0</ele><time>2026-05-01T10:25:23.918Z</time></trkpt><trkpt lat="42.5636417" lon="12.6615962"><ele>134.0</ele><time>2026-05-01T10:25:24.918Z</time></trkpt><trkpt lat="42.5635985" lon="12.6617855"><ele>134.0</ele><time>2026-05-01T10:25:25.917Z</time></trkpt><trkpt lat="42.5635619" lon="12.6619708"><ele>134.0</ele><time>2026-05-01T10:25:26.918Z</time></trkpt><trkpt lat="42.5635161" lon="12.6621469"><ele>134.0</ele><time>2026-05-01T10:25:27.918Z</time></trkpt><trkpt lat="42.5634767" lon="12.66233"><ele>134.0</ele><time>2026-05-01T10:25:28.918Z</time></trkpt><trkpt lat="42.5634361" lon="12.6625142"><ele>134.0</ele><time>2026-05-01T10:25:29.918Z</time></trkpt><trkpt lat="42.5633945" lon="12.6627205"><ele>134.0</ele><time>2026-05-01T10:25:30.918Z</time></trkpt><trkpt lat="42.5633484" lon="12.6629233"><ele>134.33333333333331</ele><time>2026-05-01T10:25:31.918Z</time></trkpt><trkpt lat="42.5633012" lon="12.663132"><ele>134.66666666666666</ele><time>2026-05-01T10:25:32.918Z</time></trkpt><trkpt lat="42.5632597" lon="12.6633304"><ele>135.0</ele><time>2026-05-01T10:25:33.918Z</time></trkpt><trkpt lat="42.5632154" lon="12.6635242"><ele>135.0</ele><time>2026-05-01T10:25:34.918Z</time></trkpt><trkpt lat="42.5631696" lon="12.6637187"><ele>135.0</ele><time>2026-05-01T10:25:35.917Z</time></trkpt><trkpt lat="42.5631285" lon="12.66391"><ele>135.0</ele><time>2026-05-01T10:25:36.918Z</time></trkpt><trkpt lat="42.5631004" lon="12.6640945"><ele>135.0</ele><time>2026-05-01T10:25:37.917Z</time></trkpt><trkpt lat="42.5630617" lon="12.6642792"><ele>134.75</ele><time>2026-05-01T10:25:38.918Z</time></trkpt><trkpt lat="42.5630207" lon="12.6644629"><ele>134.5</ele><time>2026-05-01T10:25:39.917Z</time></trkpt><trkpt lat="42.5629838" lon="12.6646423"><ele>134.25</ele><time>2026-05-01T10:25:40.918Z</time></trkpt><trkpt lat="42.5629473" lon="12.6648186"><ele>134.0</ele><time>2026-05-01T10:25:41.918Z</time></trkpt><trkpt lat="42.5629052" lon="12.6650034"><ele>134.0</ele><time>2026-05-01T10:25:42.917Z</time></trkpt><trkpt lat="42.5628622" lon="12.665187"><ele>134.0</ele><time>2026-05-01T10:25:43.918Z</time></trkpt><trkpt lat="42.5628274" lon="12.6653821"><ele>134.0</ele><time>2026-05-01T10:25:44.918Z</time></trkpt><trkpt lat="42.5627817" lon="12.6655859"><ele>134.0</ele><time>2026-05-01T10:25:45.917Z</time></trkpt><trkpt lat="42.5627304" lon="12.6658039"><ele>134.0</ele><time>2026-05-01T10:25:46.918Z</time></trkpt><trkpt lat="42.5626774" lon="12.6660274"><ele>134.0</ele><time>2026-05-01T10:25:47.918Z</time></trkpt><trkpt lat="42.5626228" lon="12.6662416"><ele>134.0</ele><time>2026-05-01T10:25:48.917Z</time></trkpt><trkpt lat="42.5625851" lon="12.6664473"><ele>134.0</ele><time>2026-05-01T10:25:49.917Z</time></trkpt><trkpt lat="42.5625415" lon="12.6666554"><ele>134.0</ele><time>2026-05-01T10:25:50.917Z</time></trkpt><trkpt lat="42.5624955" lon="12.6668523"><ele>134.0</ele><time>2026-05-01T10:25:51.918Z</time></trkpt><trkpt lat="42.5624519" lon="12.6670455"><ele>134.66666666666666</ele><time>2026-05-01T10:25:52.918Z</time></trkpt><trkpt lat="42.5624082" lon="12.6672405"><ele>135.33333333333334</ele><time>2026-05-01T10:25:53.917Z</time></trkpt><trkpt lat="42.5623616" lon="12.6674407"><ele>136.0</ele><time>2026-05-01T10:25:54.918Z</time></trkpt><trkpt lat="42.5623149" lon="12.6676385"><ele>136.33333333333334</ele><time>2026-05-01T10:25:55.918Z</time></trkpt><trkpt lat="42.5622674" lon="12.6678247"><ele>136.66666666666666</ele><time>2026-05-01T10:25:56.918Z</time></trkpt><trkpt lat="42.5622175" lon="12.6680111"><ele>137.0</ele><time>2026-05-01T10:25:57.918Z</time></trkpt><trkpt lat="42.5621698" lon="12.6682165"><ele>137.0</ele><time>2026-05-01T10:25:58.918Z</time></trkpt><trkpt lat="42.5621191" lon="12.6684256"><ele>137.0</ele><time>2026-05-01T10:25:59.918Z</time></trkpt><trkpt lat="42.5620697" lon="12.6686341"><ele>137.0</ele><time>2026-05-01T10:26:00.917Z</time></trkpt><trkpt lat="42.5620191" lon="12.6688482"><ele>138.0</ele><time>2026-05-01T10:26:01.918Z</time></trkpt><trkpt lat="42.5619644" lon="12.6690978"><ele>139.0</ele><time>2026-05-01T10:26:02.918Z</time></trkpt><trkpt lat="42.5619007" lon="12.669359"><ele>140.0</ele><time>2026-05-01T10:26:03.918Z</time></trkpt><trkpt lat="42.5618395" lon="12.6696375"><ele>141.5</ele><time>2026-05-01T10:26:04.918Z</time></trkpt><trkpt lat="42.5617651" lon="12.669931"><ele>143.0</ele><time>2026-05-01T10:26:05.918Z</time></trkpt><trkpt lat="42.5617051" lon="12.670249"><ele>142.5</ele><time>2026-05-01T10:26:06.918Z</time></trkpt><trkpt lat="42.5616433" lon="12.6705861"><ele>142.0</ele><time>2026-05-01T10:26:07.918Z</time></trkpt><trkpt lat="42.5615725" lon="12.6709281"><ele>141.5</ele><time>2026-05-01T10:26:08.918Z</time></trkpt><trkpt lat="42.5614965" lon="12.6712731"><ele>141.0</ele><time>2026-05-01T10:26:09.917Z</time></trkpt><trkpt lat="42.5614149" lon="12.6716313"><ele>141.5</ele><time>2026-05-01T10:26:10.917Z</time></trkpt><trkpt lat="42.561336" lon="12.6719819"><ele>142.0</ele><time>2026-05-01T10:26:11.918Z</time></trkpt><trkpt lat="42.561266" lon="12.6723187"><ele>142.0</ele><time>2026-05-01T10:26:12.918Z</time></trkpt><trkpt lat="42.5611997" lon="12.6726308"><ele>142.0</ele><time>2026-05-01T10:26:13.918Z</time></trkpt><trkpt lat="42.5611325" lon="12.6729134"><ele>140.66666666666669</ele><time>2026-05-01T10:26:14.918Z</time></trkpt><trkpt lat="42.5610756" lon="12.6731626"><ele>139.33333333333334</ele><time>2026-05-01T10:26:15.918Z</time></trkpt><trkpt lat="42.5610046" lon="12.6733852"><ele>138.0</ele><time>2026-05-01T10:26:16.917Z</time></trkpt><trkpt lat="42.5609127" lon="12.6735751"><ele>139.33333333333334</ele><time>2026-05-01T10:26:17.918Z</time></trkpt><trkpt lat="42.5607972" lon="12.6737129"><ele>140.66666666666669</ele><time>2026-05-01T10:26:18.917Z</time></trkpt><trkpt lat="42.5606539" lon="12.6738036"><ele>142.0</ele><time>2026-05-01T10:26:19.918Z</time></trkpt><trkpt lat="42.5604913" lon="12.6738429"><ele>143.66666666666669</ele><time>2026-05-01T10:26:20.918Z</time></trkpt><trkpt lat="42.5603272" lon="12.6738293"><ele>145.33333333333334</ele><time>2026-05-01T10:26:21.918Z</time></trkpt><trkpt lat="42.5601578" lon="12.6737511"><ele>147.0</ele><time>2026-05-01T10:26:22.918Z</time></trkpt><trkpt lat="42.5600002" lon="12.673619"><ele>147.33333333333334</ele><time>2026-05-01T10:26:23.918Z</time></trkpt><trkpt lat="42.5598358" lon="12.6734437"><ele>147.66666666666669</ele><time>2026-05-01T10:26:24.918Z</time></trkpt><trkpt lat="42.5596681" lon="12.6732921"><ele>148.0</ele><time>2026-05-01T10:26:25.918Z</time></trkpt><trkpt lat="42.5594868" lon="12.6731557"><ele>148.0</ele><time>2026-05-01T10:26:26.918Z</time></trkpt><trkpt lat="42.5592817" lon="12.6730552"><ele>148.0</ele><time>2026-05-01T10:26:27.918Z</time></trkpt><trkpt lat="42.559068" lon="12.6729867"><ele>148.0</ele><time>2026-05-01T10:26:28.918Z</time></trkpt><trkpt lat="42.5588425" lon="12.6729153"><ele>150.0</ele><time>2026-05-01T10:26:29.918Z</time></trkpt><trkpt lat="42.558613" lon="12.6728509"><ele>152.0</ele><time>2026-05-01T10:26:30.918Z</time></trkpt><trkpt lat="42.5583845" lon="12.672789"><ele>152.0</ele><time>2026-05-01T10:26:31.918Z</time></trkpt><trkpt lat="42.5581671" lon="12.6727654"><ele>152.0</ele><time>2026-05-01T10:26:32.918Z</time></trkpt><trkpt lat="42.5579524" lon="12.6727976"><ele>152.0</ele><time>2026-05-01T10:26:33.917Z</time></trkpt><trkpt lat="42.5577389" lon="12.6728909"><ele>152.0</ele><time>2026-05-01T10:26:34.918Z</time></trkpt><trkpt lat="42.5575198" lon="12.6730206"><ele>152.0</ele><time>2026-05-01T10:26:35.917Z</time></trkpt><trkpt lat="42.5573007" lon="12.6731622"><ele>152.0</ele><time>2026-05-01T10:26:36.918Z</time></trkpt><trkpt lat="42.5570909" lon="12.6733378"><ele>152.0</ele><time>2026-05-01T10:26:37.918Z</time></trkpt><trkpt lat="42.556898" lon="12.6735323"><ele>151.66666666666666</ele><time>2026-05-01T10:26:38.917Z</time></trkpt><trkpt lat="42.5567385" lon="12.6737303"><ele>151.33333333333334</ele><time>2026-05-01T10:26:39.918Z</time></trkpt><trkpt lat="42.5566248" lon="12.6739454"><ele>151.0</ele><time>2026-05-01T10:26:40.918Z</time></trkpt><trkpt lat="42.5565578" lon="12.674194"><ele>153.0</ele><time>2026-05-01T10:26:41.918Z</time></trkpt><trkpt lat="42.556513" lon="12.6744497"><ele>155.0</ele><time>2026-05-01T10:26:42.917Z</time></trkpt><trkpt lat="42.5564982" lon="12.6747341"><ele>157.0</ele><time>2026-05-01T10:26:43.918Z</time></trkpt><trkpt lat="42.556516" lon="12.6750189"><ele>156.33333333333334</ele><time>2026-05-01T10:26:44.918Z</time></trkpt><trkpt lat="42.556544" lon="12.6753134"><ele>155.66666666666666</ele><time>2026-05-01T10:26:45.918Z</time></trkpt><trkpt lat="42.5565775" lon="12.6756176"><ele>155.0</ele><time>2026-05-01T10:26:46.918Z</time></trkpt><trkpt lat="42.5566132" lon="12.6759279"><ele>156.5</ele><time>2026-05-01T10:26:47.918Z</time></trkpt><trkpt lat="42.5566239" lon="12.6762395"><ele>158.0</ele><time>2026-05-01T10:26:48.918Z</time></trkpt><trkpt lat="42.5566119" lon="12.6765414"><ele>158.0</ele><time>2026-05-01T10:26:49.917Z</time></trkpt><trkpt lat="42.5565684" lon="12.6768336"><ele>158.0</ele><time>2026-05-01T10:26:50.918Z</time></trkpt><trkpt lat="42.5564759" lon="12.6771233"><ele>156.33333333333331</ele><time>2026-05-01T10:26:51.918Z</time></trkpt><trkpt lat="42.5563638" lon="12.6773965"><ele>154.66666666666666</ele><time>2026-05-01T10:26:52.918Z</time></trkpt><trkpt lat="42.5562433" lon="12.6776404"><ele>153.0</ele><time>2026-05-01T10:26:53.918Z</time></trkpt><trkpt lat="42.5561103" lon="12.6778579"><ele>153.0</ele><time>2026-05-01T10:26:54.918Z</time></trkpt><trkpt lat="42.5559767" lon="12.6780644"><ele>153.0</ele><time>2026-05-01T10:26:55.918Z</time></trkpt><trkpt lat="42.5558535" lon="12.6782709"><ele>153.0</ele><time>2026-05-01T10:26:56.917Z</time></trkpt><trkpt lat="42.5557524" lon="12.6784994"><ele>154.66666666666666</ele><time>2026-05-01T10:26:57.918Z</time></trkpt><trkpt lat="42.555695" lon="12.6787444"><ele>156.33333333333331</ele><time>2026-05-01T10:26:58.918Z</time></trkpt><trkpt lat="42.5556798" lon="12.6790122"><ele>158.0</ele><time>2026-05-01T10:26:59.918Z</time></trkpt><trkpt lat="42.5556977" lon="12.6792844"><ele>157.33333333333331</ele><time>2026-05-01T10:27:00.918Z</time></trkpt><trkpt lat="42.5557673" lon="12.6795386"><ele>156.66666666666666</ele><time>2026-05-01T10:27:01.918Z</time></trkpt><trkpt lat="42.5558793" lon="12.6797679"><ele>156.0</ele><time>2026-05-01T10:27:02.918Z</time></trkpt><trkpt lat="42.5560209" lon="12.6799762"><ele>156.0</ele><time>2026-05-01T10:27:03.918Z</time></trkpt><trkpt lat="42.5561861" lon="12.6801767"><ele>156.0</ele><time>2026-05-01T10:27:04.917Z</time></trkpt><trkpt lat="42.5563704" lon="12.6803688"><ele>156.0</ele><time>2026-05-01T10:27:05.917Z</time></trkpt><trkpt lat="42.5565533" lon="12.6805532"><ele>156.0</ele><time>2026-05-01T10:27:06.918Z</time></trkpt><trkpt lat="42.5567303" lon="12.6807263"><ele>156.0</ele><time>2026-05-01T10:27:07.917Z</time></trkpt><trkpt lat="42.5568946" lon="12.6809085"><ele>157.66666666666666</ele><time>2026-05-01T10:27:08.917Z</time></trkpt><trkpt lat="42.5570498" lon="12.681078"><ele>159.33333333333331</ele><time>2026-05-01T10:27:09.918Z</time></trkpt><trkpt lat="42.557191" lon="12.6812732"><ele>161.0</ele><time>2026-05-01T10:27:10.918Z</time></trkpt><trkpt lat="42.5573372" lon="12.6814592"><ele>161.0</ele><time>2026-05-01T10:27:11.918Z</time></trkpt><trkpt lat="42.5574853" lon="12.6816239"><ele>161.0</ele><time>2026-05-01T10:27:12.918Z</time></trkpt><trkpt lat="42.5576449" lon="12.6817679"><ele>161.0</ele><time>2026-05-01T10:27:13.918Z</time></trkpt><trkpt lat="42.5577931" lon="12.6818747"><ele>160.0</ele><time>2026-05-01T10:27:14.918Z</time></trkpt><trkpt lat="42.5579273" lon="12.6819691"><ele>159.0</ele><time>2026-05-01T10:27:15.917Z</time></trkpt><trkpt lat="42.5580417" lon="12.6820673"><ele>158.0</ele><time>2026-05-01T10:27:16.918Z</time></trkpt><trkpt lat="42.5581425" lon="12.6821771"><ele>157.0</ele><time>2026-05-01T10:27:17.918Z</time></trkpt><trkpt lat="42.5582299" lon="12.6823041"><ele>157.0</ele><time>2026-05-01T10:27:18.917Z</time></trkpt><trkpt lat="42.558295" lon="12.6824744"><ele>157.0</ele><time>2026-05-01T10:27:19.918Z</time></trkpt><trkpt lat="42.5583521" lon="12.6826332"><ele>157.0</ele><time>2026-05-01T10:27:20.918Z</time></trkpt><trkpt lat="42.558404" lon="12.6828146"><ele>157.0</ele><time>2026-05-01T10:27:21.918Z</time></trkpt><trkpt lat="42.5584578" lon="12.6829998"><ele>158.33333333333334</ele><time>2026-05-01T10:27:22.918Z</time></trkpt><trkpt lat="42.5585016" lon="12.6832086"><ele>159.66666666666666</ele><time>2026-05-01T10:27:23.917Z</time></trkpt><trkpt lat="42.5585456" lon="12.6834118"><ele>161.0</ele><time>2026-05-01T10:27:24.918Z</time></trkpt><trkpt lat="42.5585834" lon="12.6836156"><ele>161.0</ele><time>2026-05-01T10:27:25.917Z</time></trkpt><trkpt lat="42.5586279" lon="12.6838163"><ele>161.0</ele><time>2026-05-01T10:27:26.918Z</time></trkpt><trkpt lat="42.5586658" lon="12.6840216"><ele>161.0</ele><time>2026-05-01T10:27:27.918Z</time></trkpt><trkpt lat="42.5586969" lon="12.6842263"><ele>166.0</ele><time>2026-05-01T10:27:28.918Z</time></trkpt><trkpt lat="42.5587231" lon="12.6844373"><ele>171.0</ele><time>2026-05-01T10:27:29.918Z</time></trkpt><trkpt lat="42.558738" lon="12.6846285"><ele>176.0</ele><time>2026-05-01T10:27:30.918Z</time></trkpt><trkpt lat="42.5587408" lon="12.6848113"><ele>181.0</ele><time>2026-05-01T10:27:31.918Z</time></trkpt><trkpt lat="42.5587431" lon="12.6849685"><ele>181.0</ele><time>2026-05-01T10:27:32.918Z</time></trkpt><trkpt lat="42.5587343" lon="12.6851041"><ele>181.0</ele><time>2026-05-01T10:27:33.918Z</time></trkpt><trkpt lat="42.5587155" lon="12.6852145"><ele>181.0</ele><time>2026-05-01T10:27:34.917Z</time></trkpt><trkpt lat="42.5586777" lon="12.6853215"><ele>181.0</ele><time>2026-05-01T10:27:35.918Z</time></trkpt><trkpt lat="42.5586162" lon="12.6854401"><ele>181.0</ele><time>2026-05-01T10:27:36.917Z</time></trkpt><trkpt lat="42.558556" lon="12.6856033"><ele>177.0</ele><time>2026-05-01T10:27:37.918Z</time></trkpt><trkpt lat="42.5584857" lon="12.6857849"><ele>173.0</ele><time>2026-05-01T10:27:38.918Z</time></trkpt><trkpt lat="42.5583791" lon="12.6859888"><ele>169.0</ele><time>2026-05-01T10:27:39.918Z</time></trkpt><trkpt lat="42.5582432" lon="12.6861737"><ele>169.0</ele><time>2026-05-01T10:27:40.918Z</time></trkpt><trkpt lat="42.5580761" lon="12.6863406"><ele>169.0</ele><time>2026-05-01T10:27:41.918Z</time></trkpt><trkpt lat="42.5578755" lon="12.6864765"><ele>169.0</ele><time>2026-05-01T10:27:42.917Z</time></trkpt><trkpt lat="42.5576438" lon="12.6865753"><ele>166.0</ele><time>2026-05-01T10:27:43.917Z</time></trkpt><trkpt lat="42.5573846" lon="12.6866443"><ele>163.0</ele><time>2026-05-01T10:27:44.918Z</time></trkpt><trkpt lat="42.5571227" lon="12.6867041"><ele>163.0</ele><time>2026-05-01T10:27:45.918Z</time></trkpt><trkpt lat="42.5568616" lon="12.6867543"><ele>163.0</ele><time>2026-05-01T10:27:46.917Z</time></trkpt><trkpt lat="42.5566002" lon="12.686802"><ele>163.0</ele><time>2026-05-01T10:27:47.918Z</time></trkpt><trkpt lat="42.5563504" lon="12.6868341"><ele>163.0</ele><time>2026-05-01T10:27:48.917Z</time></trkpt><trkpt lat="42.5561147" lon="12.6868774"><ele>164.0</ele><time>2026-05-01T10:27:49.918Z</time></trkpt><trkpt lat="42.5558853" lon="12.686917"><ele>165.0</ele><time>2026-05-01T10:27:50.917Z</time></trkpt><trkpt lat="42.5556559" lon="12.6869693"><ele>165.0</ele><time>2026-05-01T10:27:51.917Z</time></trkpt><trkpt lat="42.555434" lon="12.6870327"><ele>165.0</ele><time>2026-05-01T10:27:52.918Z</time></trkpt><trkpt lat="42.5552141" lon="12.6871212"><ele>165.0</ele><time>2026-05-01T10:27:53.918Z</time></trkpt><trkpt lat="42.5549949" lon="12.6872163"><ele>165.0</ele><time>2026-05-01T10:27:54.917Z</time></trkpt><trkpt lat="42.5547784" lon="12.6873295"><ele>165.0</ele><time>2026-05-01T10:27:55.917Z</time></trkpt><trkpt lat="42.5545609" lon="12.6874541"><ele>165.0</ele><time>2026-05-01T10:27:56.918Z</time></trkpt><trkpt lat="42.5543485" lon="12.6875789"><ele>165.5</ele><time>2026-05-01T10:27:57.917Z</time></trkpt><trkpt lat="42.5541356" lon="12.6877116"><ele>166.0</ele><time>2026-05-01T10:27:58.918Z</time></trkpt><trkpt lat="42.5539275" lon="12.687852"><ele>166.5</ele><time>2026-05-01T10:27:59.918Z</time></trkpt><trkpt lat="42.5537284" lon="12.6880128"><ele>167.0</ele><time>2026-05-01T10:28:00.918Z</time></trkpt><trkpt lat="42.5535456" lon="12.6882066"><ele>167.0</ele><time>2026-05-01T10:28:01.918Z</time></trkpt><trkpt lat="42.5533769" lon="12.688426"><ele>167.0</ele><time>2026-05-01T10:28:02.918Z</time></trkpt><trkpt lat="42.5532339" lon="12.6886937"><ele>167.0</ele><time>2026-05-01T10:28:03.917Z</time></trkpt><trkpt lat="42.5531129" lon="12.6889828"><ele>167.0</ele><time>2026-05-01T10:28:04.918Z</time></trkpt><trkpt lat="42.5530289" lon="12.6892939"><ele>168.5</ele><time>2026-05-01T10:28:05.918Z</time></trkpt><trkpt lat="42.5529666" lon="12.6896098"><ele>170.0</ele><time>2026-05-01T10:28:06.918Z</time></trkpt><trkpt lat="42.5529354" lon="12.6899286"><ele>171.0</ele><time>2026-05-01T10:28:07.918Z</time></trkpt><trkpt lat="42.552904" lon="12.6902602"><ele>172.0</ele><time>2026-05-01T10:28:08.918Z</time></trkpt><trkpt lat="42.5528761" lon="12.6905846"><ele>169.5</ele><time>2026-05-01T10:28:09.918Z</time></trkpt><trkpt lat="42.5528539" lon="12.690902"><ele>167.0</ele><time>2026-05-01T10:28:10.918Z</time></trkpt><trkpt lat="42.5528328" lon="12.6912106"><ele>166.66666666666666</ele><time>2026-05-01T10:28:11.918Z</time></trkpt><trkpt lat="42.552805" lon="12.6915139"><ele>166.33333333333334</ele><time>2026-05-01T10:28:12.918Z</time></trkpt><trkpt lat="42.5527785" lon="12.6918094"><ele>166.0</ele><time>2026-05-01T10:28:13.918Z</time></trkpt><trkpt lat="42.55275" lon="12.6920918"><ele>166.0</ele><time>2026-05-01T10:28:14.918Z</time></trkpt><trkpt lat="42.552726" lon="12.6923688"><ele>166.0</ele><time>2026-05-01T10:28:15.918Z</time></trkpt><trkpt lat="42.5527032" lon="12.692626"><ele>166.0</ele><time>2026-05-01T10:28:16.918Z</time></trkpt><trkpt lat="42.552682" lon="12.6928656"><ele>168.0</ele><time>2026-05-01T10:28:17.918Z</time></trkpt><trkpt lat="42.552658" lon="12.6930992"><ele>170.0</ele><time>2026-05-01T10:28:18.918Z</time></trkpt><trkpt lat="42.5526367" lon="12.6933374"><ele>172.0</ele><time>2026-05-01T10:28:19.918Z</time></trkpt><trkpt lat="42.5526167" lon="12.693566"><ele>175.0</ele><time>2026-05-01T10:28:20.917Z</time></trkpt><trkpt lat="42.5525977" lon="12.6937937"><ele>178.0</ele><time>2026-05-01T10:28:21.918Z</time></trkpt><trkpt lat="42.5525792" lon="12.6940068"><ele>181.0</ele><time>2026-05-01T10:28:22.918Z</time></trkpt><trkpt lat="42.5525585" lon="12.6942139"><ele>181.0</ele><time>2026-05-01T10:28:23.917Z</time></trkpt><trkpt lat="42.5525373" lon="12.694421"><ele>181.0</ele><time>2026-05-01T10:28:24.918Z</time></trkpt><trkpt lat="42.5525183" lon="12.6946291"><ele>181.0</ele><time>2026-05-01T10:28:25.917Z</time></trkpt><trkpt lat="42.5525107" lon="12.6948416"><ele>181.33333333333334</ele><time>2026-05-01T10:28:26.918Z</time></trkpt><trkpt lat="42.5525098" lon="12.6950572"><ele>181.66666666666666</ele><time>2026-05-01T10:28:27.917Z</time></trkpt><trkpt lat="42.5525214" lon="12.695271"><ele>182.0</ele><time>2026-05-01T10:28:28.918Z</time></trkpt><trkpt lat="42.552552" lon="12.695484"><ele>182.0</ele><time>2026-05-01T10:28:29.918Z</time></trkpt><trkpt lat="42.5525948" lon="12.6956946"><ele>182.0</ele><time>2026-05-01T10:28:30.918Z</time></trkpt><trkpt lat="42.5526467" lon="12.6958994"><ele>182.0</ele><time>2026-05-01T10:28:31.917Z</time></trkpt><trkpt lat="42.5527025" lon="12.6960917"><ele>182.25</ele><time>2026-05-01T10:28:32.917Z</time></trkpt><trkpt lat="42.5527581" lon="12.6962685"><ele>182.5</ele><time>2026-05-01T10:28:33.918Z</time></trkpt><trkpt lat="42.5528115" lon="12.6964422"><ele>182.75</ele><time>2026-05-01T10:28:34.918Z</time></trkpt><trkpt lat="42.5528618" lon="12.6966094"><ele>183.0</ele><time>2026-05-01T10:28:35.918Z</time></trkpt><trkpt lat="42.5529099" lon="12.6967757"><ele>182.75</ele><time>2026-05-01T10:28:36.917Z</time></trkpt><trkpt lat="42.5529531" lon="12.6969233"><ele>182.5</ele><time>2026-05-01T10:28:37.918Z</time></trkpt><trkpt lat="42.5530007" lon="12.6970751"><ele>182.25</ele><time>2026-05-01T10:28:38.918Z</time></trkpt><trkpt lat="42.5530418" lon="12.6972272"><ele>182.0</ele><time>2026-05-01T10:28:39.918Z</time></trkpt><trkpt lat="42.5530853" lon="12.6973808"><ele>182.0</ele><time>2026-05-01T10:28:40.918Z</time></trkpt><trkpt lat="42.5531259" lon="12.6975349"><ele>182.0</ele><time>2026-05-01T10:28:41.918Z</time></trkpt><trkpt lat="42.5531598" lon="12.6976746"><ele>182.0</ele><time>2026-05-01T10:28:42.918Z</time></trkpt><trkpt lat="42.5532023" lon="12.6978175"><ele>182.0</ele><time>2026-05-01T10:28:43.918Z</time></trkpt><trkpt lat="42.5532429" lon="12.6979658"><ele>182.5</ele><time>2026-05-01T10:28:44.917Z</time></trkpt><trkpt lat="42.5532863" lon="12.698113"><ele>183.0</ele><time>2026-05-01T10:28:45.918Z</time></trkpt><trkpt lat="42.5533241" lon="12.6982698"><ele>183.5</ele><time>2026-05-01T10:28:46.917Z</time></trkpt><trkpt lat="42.5533538" lon="12.6984391"><ele>184.0</ele><time>2026-05-01T10:28:47.918Z</time></trkpt><trkpt lat="42.553392" lon="12.6986227"><ele>185.25</ele><time>2026-05-01T10:28:48.918Z</time></trkpt><trkpt lat="42.5534316" lon="12.6988195"><ele>186.5</ele><time>2026-05-01T10:28:49.917Z</time></trkpt><trkpt lat="42.5534671" lon="12.699018"><ele>187.75</ele><time>2026-05-01T10:28:50.918Z</time></trkpt><trkpt lat="42.5535025" lon="12.6992139"><ele>189.0</ele><time>2026-05-01T10:28:51.918Z</time></trkpt><trkpt lat="42.5535384" lon="12.6994233"><ele>189.0</ele><time>2026-05-01T10:28:52.918Z</time></trkpt><trkpt lat="42.553555" lon="12.6996408"><ele>189.0</ele><time>2026-05-01T10:28:53.918Z</time></trkpt><trkpt lat="42.5535643" lon="12.6998568"><ele>189.0</ele><time>2026-05-01T10:28:54.918Z</time></trkpt><trkpt lat="42.5535639" lon="12.7000773"><ele>188.66666666666666</ele><time>2026-05-01T10:28:55.917Z</time></trkpt><trkpt lat="42.5535693" lon="12.7002941"><ele>188.33333333333331</ele><time>2026-05-01T10:28:56.917Z</time></trkpt><trkpt lat="42.5535751" lon="12.7005123"><ele>188.0</ele><time>2026-05-01T10:28:57.918Z</time></trkpt><trkpt lat="42.5535871" lon="12.7007211"><ele>188.0</ele><time>2026-05-01T10:28:58.918Z</time></trkpt><trkpt lat="42.553615" lon="12.7009399"><ele>188.0</ele><time>2026-05-01T10:28:59.918Z</time></trkpt><trkpt lat="42.553643" lon="12.7011343"><ele>188.0</ele><time>2026-05-01T10:29:00.918Z</time></trkpt><trkpt lat="42.5536686" lon="12.7013232"><ele>188.75</ele><time>2026-05-01T10:29:01.918Z</time></trkpt><trkpt lat="42.5536844" lon="12.701484"><ele>189.5</ele><time>2026-05-01T10:29:02.918Z</time></trkpt><trkpt lat="42.5536986" lon="12.7016686"><ele>190.25</ele><time>2026-05-01T10:29:03.918Z</time></trkpt><trkpt lat="42.553711" lon="12.7018516"><ele>191.0</ele><time>2026-05-01T10:29:04.918Z</time></trkpt><trkpt lat="42.5537131" lon="12.7020323"><ele>199.75</ele><time>2026-05-01T10:29:05.918Z</time></trkpt><trkpt lat="42.5537157" lon="12.7022262"><ele>208.5</ele><time>2026-05-01T10:29:06.918Z</time></trkpt><trkpt lat="42.5537176" lon="12.7024306"><ele>217.25</ele><time>2026-05-01T10:29:07.918Z</time></trkpt><trkpt lat="42.5537098" lon="12.7026247"><ele>226.0</ele><time>2026-05-01T10:29:08.918Z</time></trkpt><trkpt lat="42.5537165" lon="12.7028102"><ele>227.0</ele><time>2026-05-01T10:29:09.917Z</time></trkpt><trkpt lat="42.5537246" lon="12.7029908"><ele>228.0</ele><time>2026-05-01T10:29:10.918Z</time></trkpt><trkpt lat="42.5537463" lon="12.7031622"><ele>229.0</ele><time>2026-05-01T10:29:11.917Z</time></trkpt><trkpt lat="42.5537666" lon="12.7033285"><ele>230.0</ele><time>2026-05-01T10:29:12.918Z</time></trkpt><trkpt lat="42.5537883" lon="12.7034998"><ele>227.2</ele><time>2026-05-01T10:29:13.918Z</time></trkpt><trkpt lat="42.5538106" lon="12.7036625"><ele>224.4</ele><time>2026-05-01T10:29:14.918Z</time></trkpt><trkpt lat="42.5538302" lon="12.7038199"><ele>221.60000000000002</ele><time>2026-05-01T10:29:15.918Z</time></trkpt><trkpt lat="42.55385" lon="12.7039612"><ele>218.8</ele><time>2026-05-01T10:29:16.918Z</time></trkpt><trkpt lat="42.5538665" lon="12.7040892"><ele>216.0</ele><time>2026-05-01T10:29:17.918Z</time></trkpt><trkpt lat="42.5538867" lon="12.7042149"><ele>216.0</ele><time>2026-05-01T10:29:18.917Z</time></trkpt><trkpt lat="42.5539144" lon="12.7043536"><ele>216.0</ele><time>2026-05-01T10:29:19.918Z</time></trkpt><trkpt lat="42.5539592" lon="12.7045044"><ele>216.0</ele><time>2026-05-01T10:29:20.918Z</time></trkpt><trkpt lat="42.5540363" lon="12.704649"><ele>216.0</ele><time>2026-05-01T10:29:21.918Z</time></trkpt><trkpt lat="42.554121" lon="12.7047916"><ele>209.66666666666669</ele><time>2026-05-01T10:29:22.918Z</time></trkpt><trkpt lat="42.5542267" lon="12.7049177"><ele>203.33333333333334</ele><time>2026-05-01T10:29:23.917Z</time></trkpt><trkpt lat="42.554359" lon="12.7050318"><ele>197.0</ele><time>2026-05-01T10:29:24.917Z</time></trkpt><trkpt lat="42.5545" lon="12.7051181"><ele>197.0</ele><time>2026-05-01T10:29:25.918Z</time></trkpt><trkpt lat="42.5546366" lon="12.7051956"><ele>197.0</ele><time>2026-05-01T10:29:26.918Z</time></trkpt><trkpt lat="42.5547673" lon="12.7052595"><ele>197.0</ele><time>2026-05-01T10:29:27.918Z</time></trkpt><trkpt lat="42.5548922" lon="12.7053301"><ele>197.0</ele><time>2026-05-01T10:29:28.918Z</time></trkpt><trkpt lat="42.5549979" lon="12.7053975"><ele>197.0</ele><time>2026-05-01T10:29:29.918Z</time></trkpt><trkpt lat="42.5550933" lon="12.7054841"><ele>197.0</ele><time>2026-05-01T10:29:30.917Z</time></trkpt><trkpt lat="42.5551733" lon="12.7055928"><ele>197.0</ele><time>2026-05-01T10:29:31.918Z</time></trkpt><trkpt lat="42.5552435" lon="12.7057176"><ele>197.0</ele><time>2026-05-01T10:29:32.918Z</time></trkpt><trkpt lat="42.5553074" lon="12.7058609"><ele>197.0</ele><time>2026-05-01T10:29:33.918Z</time></trkpt><trkpt lat="42.5553605" lon="12.7060196"><ele>197.0</ele><time>2026-05-01T10:29:34.917Z</time></trkpt><trkpt lat="42.5553989" lon="12.7062033"><ele>197.0</ele><time>2026-05-01T10:29:35.918Z</time></trkpt><trkpt lat="42.5554166" lon="12.7063866"><ele>197.0</ele><time>2026-05-01T10:29:36.918Z</time></trkpt><trkpt lat="42.5554178" lon="12.7065588"><ele>198.75</ele><time>2026-05-01T10:29:37.918Z</time></trkpt><trkpt lat="42.555397" lon="12.7067249"><ele>200.5</ele><time>2026-05-01T10:29:38.918Z</time></trkpt><trkpt lat="42.5553799" lon="12.7068837"><ele>202.25</ele><time>2026-05-01T10:29:39.918Z</time></trkpt><trkpt lat="42.5553663" lon="12.7070518"><ele>204.0</ele><time>2026-05-01T10:29:40.918Z</time></trkpt><trkpt lat="42.5553513" lon="12.7072329"><ele>204.0</ele><time>2026-05-01T10:29:41.918Z</time></trkpt><trkpt lat="42.5553478" lon="12.7074087"><ele>204.0</ele><time>2026-05-01T10:29:42.918Z</time></trkpt><trkpt lat="42.5553491" lon="12.7075888"><ele>204.0</ele><time>2026-05-01T10:29:43.918Z</time></trkpt><trkpt lat="42.555358" lon="12.7077847"><ele>204.0</ele><time>2026-05-01T10:29:44.918Z</time></trkpt><trkpt lat="42.5553678" lon="12.7079722"><ele>212.0</ele><time>2026-05-01T10:29:45.918Z</time></trkpt><trkpt lat="42.5553784" lon="12.7081569"><ele>220.0</ele><time>2026-05-01T10:29:46.917Z</time></trkpt><trkpt lat="42.555401" lon="12.7083305"><ele>228.0</ele><time>2026-05-01T10:29:47.917Z</time></trkpt><trkpt lat="42.5554144" lon="12.7084928"><ele>236.0</ele><time>2026-05-01T10:29:48.918Z</time></trkpt><trkpt lat="42.555427" lon="12.7086532"><ele>236.0</ele><time>2026-05-01T10:29:49.918Z</time></trkpt><trkpt lat="42.5554345" lon="12.7088367"><ele>236.0</ele><time>2026-05-01T10:29:50.918Z</time></trkpt><trkpt lat="42.5554303" lon="12.7090143"><ele>236.0</ele><time>2026-05-01T10:29:51.918Z</time></trkpt><trkpt lat="42.5554158" lon="12.7091945"><ele>236.0</ele><time>2026-05-01T10:29:52.917Z</time></trkpt><trkpt lat="42.5553885" lon="12.7093553"><ele>229.60000000000002</ele><time>2026-05-01T10:29:53.918Z</time></trkpt><trkpt lat="42.5553497" lon="12.7095051"><ele>223.20000000000002</ele><time>2026-05-01T10:29:54.918Z</time></trkpt><trkpt lat="42.5553259" lon="12.7096292"><ele>216.8</ele><time>2026-05-01T10:29:55.917Z</time></trkpt><trkpt lat="42.555296" lon="12.7097462"><ele>210.39999999999998</ele><time>2026-05-01T10:29:56.917Z</time></trkpt><trkpt lat="42.5552671" lon="12.7098664"><ele>204.0</ele><time>2026-05-01T10:29:57.917Z</time></trkpt><trkpt lat="42.5552361" lon="12.7099977"><ele>204.0</ele><time>2026-05-01T10:29:58.918Z</time></trkpt><trkpt lat="42.5552026" lon="12.7101399"><ele>204.0</ele><time>2026-05-01T10:29:59.918Z</time></trkpt><trkpt lat="42.5551573" lon="12.7102823"><ele>204.0</ele><time>2026-05-01T10:30:00.918Z</time></trkpt><trkpt lat="42.5551142" lon="12.710417"><ele>204.0</ele><time>2026-05-01T10:30:01.918Z</time></trkpt><trkpt lat="42.555083" lon="12.7105505"><ele>204.0</ele><time>2026-05-01T10:30:02.918Z</time></trkpt><trkpt lat="42.5550457" lon="12.7107095"><ele>205.0</ele><time>2026-05-01T10:30:03.918Z</time></trkpt><trkpt lat="42.5550035" lon="12.710876"><ele>206.0</ele><time>2026-05-01T10:30:04.918Z</time></trkpt><trkpt lat="42.5549525" lon="12.7110459"><ele>207.0</ele><time>2026-05-01T10:30:05.917Z</time></trkpt><trkpt lat="42.554905" lon="12.7112174"><ele>208.0</ele><time>2026-05-01T10:30:06.918Z</time></trkpt><trkpt lat="42.5548666" lon="12.7113772"><ele>210.5</ele><time>2026-05-01T10:30:07.917Z</time></trkpt><trkpt lat="42.5548292" lon="12.7115141"><ele>213.0</ele><time>2026-05-01T10:30:08.918Z</time></trkpt><trkpt lat="42.5547946" lon="12.7116557"><ele>215.5</ele><time>2026-05-01T10:30:09.918Z</time></trkpt><trkpt lat="42.5547582" lon="12.711811"><ele>218.0</ele><time>2026-05-01T10:30:10.918Z</time></trkpt><trkpt lat="42.5546992" lon="12.7119935"><ele>217.0</ele><time>2026-05-01T10:30:11.918Z</time></trkpt><trkpt lat="42.5546183" lon="12.7121761"><ele>216.0</ele><time>2026-05-01T10:30:12.918Z</time></trkpt><trkpt lat="42.5545222" lon="12.7123473"><ele>215.0</ele><time>2026-05-01T10:30:13.918Z</time></trkpt><trkpt lat="42.5544272" lon="12.7125141"><ele>215.0</ele><time>2026-05-01T10:30:14.917Z</time></trkpt><trkpt lat="42.5543404" lon="12.7126805"><ele>215.0</ele><time>2026-05-01T10:30:15.918Z</time></trkpt><trkpt lat="42.55425" lon="12.7128402"><ele>215.0</ele><time>2026-05-01T10:30:16.917Z</time></trkpt><trkpt lat="42.5541708" lon="12.7129837"><ele>215.0</ele><time>2026-05-01T10:30:17.917Z</time></trkpt><trkpt lat="42.5541055" lon="12.7131242"><ele>220.5</ele><time>2026-05-01T10:30:18.917Z</time></trkpt><trkpt lat="42.5540589" lon="12.7132735"><ele>226.0</ele><time>2026-05-01T10:30:19.917Z</time></trkpt><trkpt lat="42.5540373" lon="12.7134354"><ele>231.5</ele><time>2026-05-01T10:30:20.917Z</time></trkpt><trkpt lat="42.5540255" lon="12.7136001"><ele>237.0</ele><time>2026-05-01T10:30:21.918Z</time></trkpt><trkpt lat="42.5540029" lon="12.7137697"><ele>236.0</ele><time>2026-05-01T10:30:22.917Z</time></trkpt><trkpt lat="42.5539804" lon="12.7139597"><ele>235.0</ele><time>2026-05-01T10:30:23.917Z</time></trkpt><trkpt lat="42.5542044" lon="12.7152069"><ele>229.33333333333331</ele><time>2026-05-01T10:30:29.917Z</time></trkpt><trkpt lat="42.5542857" lon="12.7154254"><ele>223.66666666666669</ele><time>2026-05-01T10:30:30.918Z</time></trkpt><trkpt lat="42.5544053" lon="12.715577"><ele>218.0</ele><time>2026-05-01T10:30:31.918Z</time></trkpt><trkpt lat="42.5545318" lon="12.7157356"><ele>217.66666666666669</ele><time>2026-05-01T10:30:32.917Z</time></trkpt><trkpt lat="42.554659" lon="12.7158663"><ele>217.33333333333331</ele><time>2026-05-01T10:30:33.918Z</time></trkpt><trkpt lat="42.5547812" lon="12.7159831"><ele>217.0</ele><time>2026-05-01T10:30:34.917Z</time></trkpt><trkpt lat="42.5548948" lon="12.7160992"><ele>217.0</ele><time>2026-05-01T10:30:35.918Z</time></trkpt><trkpt lat="42.5550106" lon="12.7162124"><ele>217.0</ele><time>2026-05-01T10:30:36.917Z</time></trkpt><trkpt lat="42.5551262" lon="12.7163244"><ele>217.0</ele><time>2026-05-01T10:30:37.918Z</time></trkpt><trkpt lat="42.5552358" lon="12.7164296"><ele>217.0</ele><time>2026-05-01T10:30:38.917Z</time></trkpt><trkpt lat="42.5553402" lon="12.7165272"><ele>216.6</ele><time>2026-05-01T10:30:39.918Z</time></trkpt><trkpt lat="42.5554269" lon="12.7166177"><ele>216.2</ele><time>2026-05-01T10:30:40.918Z</time></trkpt><trkpt lat="42.5555046" lon="12.7166951"><ele>215.8</ele><time>2026-05-01T10:30:41.918Z</time></trkpt><trkpt lat="42.555585" lon="12.7167816"><ele>215.4</ele><time>2026-05-01T10:30:42.917Z</time></trkpt><trkpt lat="42.555674" lon="12.7168921"><ele>215.0</ele><time>2026-05-01T10:30:43.917Z</time></trkpt><trkpt lat="42.5557894" lon="12.7170164"><ele>215.0</ele><time>2026-05-01T10:30:44.917Z</time></trkpt><trkpt lat="42.555925" lon="12.7171571"><ele>215.0</ele><time>2026-05-01T10:30:45.918Z</time></trkpt><trkpt lat="42.5560534" lon="12.7173182"><ele>215.0</ele><time>2026-05-01T10:30:46.918Z</time></trkpt><trkpt lat="42.5561788" lon="12.7174774"><ele>218.0</ele><time>2026-05-01T10:30:47.918Z</time></trkpt><trkpt lat="42.5563026" lon="12.7176484"><ele>221.0</ele><time>2026-05-01T10:30:48.917Z</time></trkpt><trkpt lat="42.5564202" lon="12.7178297"><ele>224.0</ele><time>2026-05-01T10:30:49.918Z</time></trkpt><trkpt lat="42.5565292" lon="12.7180254"><ele>224.0</ele><time>2026-05-01T10:30:50.918Z</time></trkpt><trkpt lat="42.556628" lon="12.7182225"><ele>224.0</ele><time>2026-05-01T10:30:51.917Z</time></trkpt><trkpt lat="42.5567111" lon="12.7184192"><ele>224.0</ele><time>2026-05-01T10:30:52.918Z</time></trkpt><trkpt lat="42.5567911" lon="12.7186104"><ele>222.33333333333334</ele><time>2026-05-01T10:30:53.917Z</time></trkpt><trkpt lat="42.5568733" lon="12.7187968"><ele>220.66666666666669</ele><time>2026-05-01T10:30:54.917Z</time></trkpt><trkpt lat="42.5569654" lon="12.7189774"><ele>219.0</ele><time>2026-05-01T10:30:55.917Z</time></trkpt><trkpt lat="42.5570498" lon="12.7191643"><ele>220.33333333333331</ele><time>2026-05-01T10:30:56.917Z</time></trkpt><trkpt lat="42.5571325" lon="12.7193615"><ele>221.66666666666666</ele><time>2026-05-01T10:30:57.918Z</time></trkpt><trkpt lat="42.5572122" lon="12.7195414"><ele>223.0</ele><time>2026-05-01T10:30:58.918Z</time></trkpt><trkpt lat="42.5572944" lon="12.7197363"><ele>223.0</ele><time>2026-05-01T10:30:59.918Z</time></trkpt><trkpt lat="42.5573807" lon="12.7199287"><ele>223.0</ele><time>2026-05-01T10:31:00.918Z</time></trkpt><trkpt lat="42.5574537" lon="12.7201427"><ele>223.0</ele><time>2026-05-01T10:31:01.918Z</time></trkpt><trkpt lat="42.5575328" lon="12.7203305"><ele>221.66666666666666</ele><time>2026-05-01T10:31:02.917Z</time></trkpt><trkpt lat="42.5576161" lon="12.7205113"><ele>220.33333333333331</ele><time>2026-05-01T10:31:03.918Z</time></trkpt><trkpt lat="42.5576987" lon="12.7206909"><ele>219.0</ele><time>2026-05-01T10:31:04.918Z</time></trkpt><trkpt lat="42.5577861" lon="12.7208661"><ele>223.0</ele><time>2026-05-01T10:31:05.918Z</time></trkpt><trkpt lat="42.557869" lon="12.7210557"><ele>227.0</ele><time>2026-05-01T10:31:06.917Z</time></trkpt><trkpt lat="42.5579618" lon="12.7212248"><ele>231.0</ele><time>2026-05-01T10:31:07.918Z</time></trkpt><trkpt lat="42.5580395" lon="12.7213853"><ele>231.0</ele><time>2026-05-01T10:31:08.918Z</time></trkpt><trkpt lat="42.5581056" lon="12.7215344"><ele>231.0</ele><time>2026-05-01T10:31:09.918Z</time></trkpt><trkpt lat="42.5581717" lon="12.7216803"><ele>231.0</ele><time>2026-05-01T10:31:10.918Z</time></trkpt><trkpt lat="42.5582301" lon="12.7218072"><ele>231.0</ele><time>2026-05-01T10:31:11.918Z</time></trkpt><trkpt lat="42.5582828" lon="12.7219264"><ele>229.0</ele><time>2026-05-01T10:31:12.918Z</time></trkpt><trkpt lat="42.5583242" lon="12.7220323"><ele>227.00000000000003</ele><time>2026-05-01T10:31:13.918Z</time></trkpt><trkpt lat="42.5583802" lon="12.722176"><ele>225.00000000000003</ele><time>2026-05-01T10:31:15.917Z</time></trkpt><trkpt lat="42.5584462" lon="12.7222924"><ele>223.0</ele><time>2026-05-01T10:31:17.918Z</time></trkpt><trkpt lat="42.5585058" lon="12.7223866"><ele>221.0</ele><time>2026-05-01T10:31:19.918Z</time></trkpt><trkpt lat="42.558565" lon="12.7225026"><ele>221.0</ele><time>2026-05-01T10:31:22.918Z</time></trkpt><trkpt lat="42.5586303" lon="12.7226486"><ele>221.00000000000003</ele><time>2026-05-01T10:31:24.917Z</time></trkpt><trkpt lat="42.5586783" lon="12.7227399"><ele>221.00000000000003</ele><time>2026-05-01T10:31:25.917Z</time></trkpt><trkpt lat="42.5587454" lon="12.7228467"><ele>221.0</ele><time>2026-05-01T10:31:26.917Z</time></trkpt><trkpt lat="42.5588222" lon="12.7229832"><ele>221.0</ele><time>2026-05-01T10:31:27.917Z</time></trkpt><trkpt lat="42.5589" lon="12.723128"><ele>220.25</ele><time>2026-05-01T10:31:28.918Z</time></trkpt><trkpt lat="42.5589906" lon="12.7232689"><ele>219.5</ele><time>2026-05-01T10:31:29.918Z</time></trkpt><trkpt lat="42.5590882" lon="12.7233906"><ele>218.75</ele><time>2026-05-01T10:31:30.918Z</time></trkpt><trkpt lat="42.5591902" lon="12.7234823"><ele>218.0</ele><time>2026-05-01T10:31:31.918Z</time></trkpt><trkpt lat="42.5592809" lon="12.7235689"><ele>218.33333333333334</ele><time>2026-05-01T10:31:32.918Z</time></trkpt><trkpt lat="42.5593585" lon="12.7236398"><ele>218.66666666666669</ele><time>2026-05-01T10:31:33.918Z</time></trkpt><trkpt lat="42.5594265" lon="12.7237156"><ele>219.0</ele><time>2026-05-01T10:31:34.918Z</time></trkpt><trkpt lat="42.5594964" lon="12.7237741"><ele>219.33333333333331</ele><time>2026-05-01T10:31:35.917Z</time></trkpt><trkpt lat="42.5595615" lon="12.7238276"><ele>219.66666666666666</ele><time>2026-05-01T10:31:36.917Z</time></trkpt><trkpt lat="42.5596171" lon="12.7238806"><ele>220.0</ele><time>2026-05-01T10:31:37.918Z</time></trkpt><trkpt lat="42.5596756" lon="12.7239314"><ele>219.99999999999997</ele><time>2026-05-01T10:31:38.918Z</time></trkpt><trkpt lat="42.5597435" lon="12.723987"><ele>220.0</ele><time>2026-05-01T10:31:39.918Z</time></trkpt><trkpt lat="42.5598126" lon="12.7240444"><ele>220.0</ele><time>2026-05-01T10:31:40.918Z</time></trkpt><trkpt lat="42.5598857" lon="12.7241087"><ele>220.0</ele><time>2026-05-01T10:31:41.918Z</time></trkpt><trkpt lat="42.559955" lon="12.7241712"><ele>219.99999999999997</ele><time>2026-05-01T10:31:42.918Z</time></trkpt><trkpt lat="42.5600201" lon="12.7242241"><ele>220.0</ele><time>2026-05-01T10:31:43.918Z</time></trkpt><trkpt lat="42.5600805" lon="12.724277"><ele>220.0</ele><time>2026-05-01T10:31:44.918Z</time></trkpt><trkpt lat="42.560185" lon="12.7243604"><ele>220.0</ele><time>2026-05-01T10:31:46.918Z</time></trkpt><trkpt lat="42.5602894" lon="12.7244448"><ele>220.0</ele><time>2026-05-01T10:31:48.918Z</time></trkpt><trkpt lat="42.5603491" lon="12.7244882"><ele>220.0</ele><time>2026-05-01T10:31:49.918Z</time></trkpt><trkpt lat="42.5604244" lon="12.7245351"><ele>220.0</ele><time>2026-05-01T10:31:50.918Z</time></trkpt><trkpt lat="42.5605099" lon="12.7246156"><ele>219.0</ele><time>2026-05-01T10:31:51.918Z</time></trkpt><trkpt lat="42.5605975" lon="12.7247048"><ele>218.0</ele><time>2026-05-01T10:31:52.918Z</time></trkpt><trkpt lat="42.5606938" lon="12.7247906"><ele>217.0</ele><time>2026-05-01T10:31:53.918Z</time></trkpt><trkpt lat="42.5607926" lon="12.7248715"><ele>216.0</ele><time>2026-05-01T10:31:54.917Z</time></trkpt><trkpt lat="42.5608866" lon="12.7249576"><ele>216.0</ele><time>2026-05-01T10:31:55.918Z</time></trkpt><trkpt lat="42.5609694" lon="12.725043"><ele>216.0</ele><time>2026-05-01T10:31:56.918Z</time></trkpt><trkpt lat="42.5610334" lon="12.7251162"><ele>216.0</ele><time>2026-05-01T10:31:57.918Z</time></trkpt><trkpt lat="42.5610928" lon="12.7251758"><ele>216.0</ele><time>2026-05-01T10:31:58.918Z</time></trkpt><trkpt lat="42.5611574" lon="12.7252333"><ele>216.0</ele><time>2026-05-01T10:31:59.918Z</time></trkpt><trkpt lat="42.5612266" lon="12.725291"><ele>216.0</ele><time>2026-05-01T10:32:00.917Z</time></trkpt><trkpt lat="42.5613162" lon="12.7253543"><ele>217.25</ele><time>2026-05-01T10:32:01.918Z</time></trkpt><trkpt lat="42.561428" lon="12.7254372"><ele>218.5</ele><time>2026-05-01T10:32:02.918Z</time></trkpt><trkpt lat="42.5615422" lon="12.7255416"><ele>219.75</ele><time>2026-05-01T10:32:03.918Z</time></trkpt><trkpt lat="42.5616658" lon="12.7256645"><ele>221.0</ele><time>2026-05-01T10:32:04.918Z</time></trkpt><trkpt lat="42.5618044" lon="12.725805"><ele>221.0</ele><time>2026-05-01T10:32:05.918Z</time></trkpt><trkpt lat="42.5619483" lon="12.725945"><ele>221.0</ele><time>2026-05-01T10:32:06.918Z</time></trkpt><trkpt lat="42.5621067" lon="12.7260911"><ele>221.0</ele><time>2026-05-01T10:32:07.918Z</time></trkpt><trkpt lat="42.5622655" lon="12.7262383"><ele>221.0</ele><time>2026-05-01T10:32:08.918Z</time></trkpt><trkpt lat="42.562427" lon="12.7263852"><ele>221.0</ele><time>2026-05-01T10:32:09.918Z</time></trkpt><trkpt lat="42.5625905" lon="12.7265314"><ele>221.0</ele><time>2026-05-01T10:32:10.917Z</time></trkpt><trkpt lat="42.5627551" lon="12.7266719"><ele>220.33333333333334</ele><time>2026-05-01T10:32:11.918Z</time></trkpt><trkpt lat="42.5629209" lon="12.7268229"><ele>219.66666666666669</ele><time>2026-05-01T10:32:12.918Z</time></trkpt><trkpt lat="42.5630881" lon="12.7269709"><ele>219.0</ele><time>2026-05-01T10:32:13.918Z</time></trkpt><trkpt lat="42.5632559" lon="12.7271195"><ele>219.0</ele><time>2026-05-01T10:32:14.918Z</time></trkpt><trkpt lat="42.5634176" lon="12.7272698"><ele>219.0</ele><time>2026-05-01T10:32:15.918Z</time></trkpt><trkpt lat="42.5635765" lon="12.7274122"><ele>219.0</ele><time>2026-05-01T10:32:16.918Z</time></trkpt><trkpt lat="42.5637325" lon="12.7275505"><ele>219.33333333333331</ele><time>2026-05-01T10:32:17.918Z</time></trkpt><trkpt lat="42.5638852" lon="12.7276899"><ele>219.66666666666666</ele><time>2026-05-01T10:32:18.917Z</time></trkpt><trkpt lat="42.5640386" lon="12.7278329"><ele>220.0</ele><time>2026-05-01T10:32:19.918Z</time></trkpt><trkpt lat="42.5641961" lon="12.7279678"><ele>220.0</ele><time>2026-05-01T10:32:20.918Z</time></trkpt><trkpt lat="42.5643482" lon="12.7281003"><ele>220.0</ele><time>2026-05-01T10:32:21.917Z</time></trkpt><trkpt lat="42.5644914" lon="12.7282426"><ele>220.0</ele><time>2026-05-01T10:32:22.917Z</time></trkpt><trkpt lat="42.5646282" lon="12.7283983"><ele>223.0</ele><time>2026-05-01T10:32:23.917Z</time></trkpt><trkpt lat="42.5647576" lon="12.7285697"><ele>226.0</ele><time>2026-05-01T10:32:24.918Z</time></trkpt><trkpt lat="42.5648678" lon="12.7287656"><ele>229.0</ele><time>2026-05-01T10:32:25.918Z</time></trkpt><trkpt lat="42.5649474" lon="12.7289804"><ele>229.0</ele><time>2026-05-01T10:32:26.918Z</time></trkpt><trkpt lat="42.5649997" lon="12.7292205"><ele>229.0</ele><time>2026-05-01T10:32:27.918Z</time></trkpt><trkpt lat="42.5650194" lon="12.7294942"><ele>229.0</ele><time>2026-05-01T10:32:28.918Z</time></trkpt><trkpt lat="42.5650342" lon="12.7297938"><ele>227.5</ele><time>2026-05-01T10:32:29.917Z</time></trkpt><trkpt lat="42.5650391" lon="12.7301385"><ele>226.0</ele><time>2026-05-01T10:32:30.918Z</time></trkpt><trkpt lat="42.5650411" lon="12.7304875"><ele>226.0</ele><time>2026-05-01T10:32:31.918Z</time></trkpt><trkpt lat="42.5650319" lon="12.7308114"><ele>226.0</ele><time>2026-05-01T10:32:32.918Z</time></trkpt><trkpt lat="42.5650295" lon="12.7310959"><ele>226.0</ele><time>2026-05-01T10:32:33.917Z</time></trkpt><trkpt lat="42.5650342" lon="12.7313633"><ele>224.66666666666666</ele><time>2026-05-01T10:32:34.918Z</time></trkpt><trkpt lat="42.5650495" lon="12.7316099"><ele>223.33333333333331</ele><time>2026-05-01T10:32:35.918Z</time></trkpt><trkpt lat="42.5650851" lon="12.7318476"><ele>222.0</ele><time>2026-05-01T10:32:36.918Z</time></trkpt><trkpt lat="42.5651496" lon="12.7320596"><ele>221.66666666666669</ele><time>2026-05-01T10:32:37.917Z</time></trkpt><trkpt lat="42.5652748" lon="12.7322538"><ele>221.33333333333334</ele><time>2026-05-01T10:32:38.917Z</time></trkpt><trkpt lat="42.5654262" lon="12.7324381"><ele>221.0</ele><time>2026-05-01T10:32:39.918Z</time></trkpt><trkpt lat="42.565608" lon="12.7326163"><ele>218.0</ele><time>2026-05-01T10:32:40.918Z</time></trkpt><trkpt lat="42.5657988" lon="12.7328025"><ele>215.0</ele><time>2026-05-01T10:32:41.918Z</time></trkpt><trkpt lat="42.5659985" lon="12.7329975"><ele>216.0</ele><time>2026-05-01T10:32:42.918Z</time></trkpt><trkpt lat="42.5662002" lon="12.7332063"><ele>217.0</ele><time>2026-05-01T10:32:43.917Z</time></trkpt><trkpt lat="42.5664041" lon="12.7334144"><ele>216.0</ele><time>2026-05-01T10:32:44.918Z</time></trkpt><trkpt lat="42.5666101" lon="12.733622"><ele>215.0</ele><time>2026-05-01T10:32:45.917Z</time></trkpt><trkpt lat="42.5668021" lon="12.7338311"><ele>215.0</ele><time>2026-05-01T10:32:46.918Z</time></trkpt><trkpt lat="42.5669855" lon="12.7340307"><ele>215.0</ele><time>2026-05-01T10:32:47.918Z</time></trkpt><trkpt lat="42.5671628" lon="12.7342118"><ele>215.0</ele><time>2026-05-01T10:32:48.917Z</time></trkpt><trkpt lat="42.5673255" lon="12.7343832"><ele>215.0</ele><time>2026-05-01T10:32:49.918Z</time></trkpt><trkpt lat="42.5674765" lon="12.7345441"><ele>215.0</ele><time>2026-05-01T10:32:50.918Z</time></trkpt><trkpt lat="42.5676191" lon="12.7346979"><ele>215.0</ele><time>2026-05-01T10:32:51.918Z</time></trkpt><trkpt lat="42.5677575" lon="12.7348435"><ele>215.0</ele><time>2026-05-01T10:32:52.918Z</time></trkpt><trkpt lat="42.5678928" lon="12.7349902"><ele>215.0</ele><time>2026-05-01T10:32:53.917Z</time></trkpt><trkpt lat="42.5680328" lon="12.7351345"><ele>216.0</ele><time>2026-05-01T10:32:54.918Z</time></trkpt><trkpt lat="42.5681735" lon="12.7352842"><ele>217.0</ele><time>2026-05-01T10:32:55.917Z</time></trkpt><trkpt lat="42.5683196" lon="12.7354397"><ele>218.0</ele><time>2026-05-01T10:32:56.918Z</time></trkpt><trkpt lat="42.5684675" lon="12.7355976"><ele>218.0</ele><time>2026-05-01T10:32:57.917Z</time></trkpt><trkpt lat="42.5686165" lon="12.7357558"><ele>218.0</ele><time>2026-05-01T10:32:58.918Z</time></trkpt><trkpt lat="42.5687694" lon="12.7359105"><ele>218.0</ele><time>2026-05-01T10:32:59.917Z</time></trkpt><trkpt lat="42.5689209" lon="12.736073"><ele>218.66666666666669</ele><time>2026-05-01T10:33:00.918Z</time></trkpt><trkpt lat="42.5690736" lon="12.7362294"><ele>219.33333333333331</ele><time>2026-05-01T10:33:01.918Z</time></trkpt><trkpt lat="42.5692239" lon="12.7363824"><ele>220.0</ele><time>2026-05-01T10:33:02.918Z</time></trkpt><trkpt lat="42.5693739" lon="12.7365089"><ele>223.66666666666666</ele><time>2026-05-01T10:33:03.918Z</time></trkpt><trkpt lat="42.5695276" lon="12.7366117"><ele>227.33333333333331</ele><time>2026-05-01T10:33:04.918Z</time></trkpt><trkpt lat="42.5696817" lon="12.736697"><ele>231.0</ele><time>2026-05-01T10:33:05.918Z</time></trkpt><trkpt lat="42.5698317" lon="12.7367728"><ele>231.0</ele><time>2026-05-01T10:33:06.918Z</time></trkpt><trkpt lat="42.5699748" lon="12.7368461"><ele>231.0</ele><time>2026-05-01T10:33:07.918Z</time></trkpt><trkpt lat="42.5701158" lon="12.7369105"><ele>231.0</ele><time>2026-05-01T10:33:08.918Z</time></trkpt><trkpt lat="42.5702594" lon="12.7369767"><ele>228.5</ele><time>2026-05-01T10:33:09.918Z</time></trkpt><trkpt lat="42.5703922" lon="12.7370476"><ele>226.0</ele><time>2026-05-01T10:33:10.918Z</time></trkpt><trkpt lat="42.5705135" lon="12.7371261"><ele>223.5</ele><time>2026-05-01T10:33:11.918Z</time></trkpt><trkpt lat="42.5706281" lon="12.7372229"><ele>221.0</ele><time>2026-05-01T10:33:12.918Z</time></trkpt><trkpt lat="42.5707255" lon="12.7373603"><ele>221.0</ele><time>2026-05-01T10:33:13.918Z</time></trkpt><trkpt lat="42.5708254" lon="12.7375206"><ele>221.0</ele><time>2026-05-01T10:33:14.918Z</time></trkpt><trkpt lat="42.570934" lon="12.7376933"><ele>221.0</ele><time>2026-05-01T10:33:15.917Z</time></trkpt><trkpt lat="42.571048" lon="12.73787"><ele>220.0</ele><time>2026-05-01T10:33:16.918Z</time></trkpt><trkpt lat="42.5711753" lon="12.7380555"><ele>219.0</ele><time>2026-05-01T10:33:17.918Z</time></trkpt><trkpt lat="42.5713193" lon="12.7382507"><ele>218.0</ele><time>2026-05-01T10:33:18.918Z</time></trkpt><trkpt lat="42.5714655" lon="12.7384542"><ele>219.0</ele><time>2026-05-01T10:33:19.918Z</time></trkpt><trkpt lat="42.5715999" lon="12.7386664"><ele>220.0</ele><time>2026-05-01T10:33:20.917Z</time></trkpt><trkpt lat="42.5717275" lon="12.7388885"><ele>221.0</ele><time>2026-05-01T10:33:21.918Z</time></trkpt><trkpt lat="42.5718532" lon="12.7390998"><ele>221.0</ele><time>2026-05-01T10:33:22.918Z</time></trkpt><trkpt lat="42.5719702" lon="12.7393003"><ele>221.0</ele><time>2026-05-01T10:33:23.918Z</time></trkpt><trkpt lat="42.5720865" lon="12.7394834"><ele>221.0</ele><time>2026-05-01T10:33:24.918Z</time></trkpt><trkpt lat="42.5721902" lon="12.739651"><ele>223.0</ele><time>2026-05-01T10:33:25.918Z</time></trkpt><trkpt lat="42.5722959" lon="12.7398118"><ele>225.0</ele><time>2026-05-01T10:33:26.917Z</time></trkpt><trkpt lat="42.5724009" lon="12.7399536"><ele>227.0</ele><time>2026-05-01T10:33:27.918Z</time></trkpt><trkpt lat="42.5725197" lon="12.7400704"><ele>227.0</ele><time>2026-05-01T10:33:28.918Z</time></trkpt><trkpt lat="42.5726553" lon="12.7401579"><ele>227.0</ele><time>2026-05-01T10:33:29.918Z</time></trkpt><trkpt lat="42.5727879" lon="12.7402219"><ele>227.0</ele><time>2026-05-01T10:33:30.918Z</time></trkpt><trkpt lat="42.5729245" lon="12.7402764"><ele>227.0</ele><time>2026-05-01T10:33:31.918Z</time></trkpt><trkpt lat="42.5730652" lon="12.740314"><ele>225.5</ele><time>2026-05-01T10:33:32.917Z</time></trkpt><trkpt lat="42.5732092" lon="12.7403564"><ele>224.0</ele><time>2026-05-01T10:33:33.918Z</time></trkpt><trkpt lat="42.5733439" lon="12.7403996"><ele>222.5</ele><time>2026-05-01T10:33:34.917Z</time></trkpt><trkpt lat="42.573476" lon="12.7404357"><ele>221.0</ele><time>2026-05-01T10:33:35.918Z</time></trkpt><trkpt lat="42.5736078" lon="12.7404521"><ele>220.75</ele><time>2026-05-01T10:33:36.917Z</time></trkpt><trkpt lat="42.5737476" lon="12.7404524"><ele>220.5</ele><time>2026-05-01T10:33:37.918Z</time></trkpt><trkpt lat="42.5738825" lon="12.7404448"><ele>220.25</ele><time>2026-05-01T10:33:38.918Z</time></trkpt><trkpt lat="42.5740141" lon="12.7404276"><ele>220.0</ele><time>2026-05-01T10:33:39.917Z</time></trkpt><trkpt lat="42.5741488" lon="12.740402"><ele>220.0</ele><time>2026-05-01T10:33:40.918Z</time></trkpt><trkpt lat="42.574276" lon="12.7403703"><ele>220.0</ele><time>2026-05-01T10:33:41.918Z</time></trkpt><trkpt lat="42.5744003" lon="12.7403408"><ele>220.0</ele><time>2026-05-01T10:33:42.918Z</time></trkpt><trkpt lat="42.574527" lon="12.7403108"><ele>220.0</ele><time>2026-05-01T10:33:43.918Z</time></trkpt><trkpt lat="42.5746556" lon="12.7402795"><ele>219.75</ele><time>2026-05-01T10:33:44.918Z</time></trkpt><trkpt lat="42.5747833" lon="12.7402485"><ele>219.5</ele><time>2026-05-01T10:33:45.918Z</time></trkpt><trkpt lat="42.5749088" lon="12.7402222"><ele>219.25</ele><time>2026-05-01T10:33:46.918Z</time></trkpt><trkpt lat="42.5750358" lon="12.740195"><ele>219.0</ele><time>2026-05-01T10:33:47.917Z</time></trkpt><trkpt lat="42.575159" lon="12.7401656"><ele>219.0</ele><time>2026-05-01T10:33:48.917Z</time></trkpt><trkpt lat="42.5752876" lon="12.740136"><ele>219.0</ele><time>2026-05-01T10:33:49.918Z</time></trkpt><trkpt lat="42.5754251" lon="12.7401114"><ele>219.0</ele><time>2026-05-01T10:33:50.918Z</time></trkpt><trkpt lat="42.575565" lon="12.7400938"><ele>219.0</ele><time>2026-05-01T10:33:51.918Z</time></trkpt><trkpt lat="42.5757035" lon="12.740085"><ele>219.25</ele><time>2026-05-01T10:33:52.918Z</time></trkpt><trkpt lat="42.5758387" lon="12.74008"><ele>219.5</ele><time>2026-05-01T10:33:53.917Z</time></trkpt><trkpt lat="42.5759669" lon="12.7400907"><ele>219.75</ele><time>2026-05-01T10:33:54.918Z</time></trkpt><trkpt lat="42.5760875" lon="12.7401167"><ele>220.0</ele><time>2026-05-01T10:33:55.917Z</time></trkpt><trkpt lat="42.5762015" lon="12.7401542"><ele>220.0</ele><time>2026-05-01T10:33:56.917Z</time></trkpt><trkpt lat="42.5763145" lon="12.7402015"><ele>220.0</ele><time>2026-05-01T10:33:57.918Z</time></trkpt><trkpt lat="42.5764248" lon="12.7402638"><ele>220.0</ele><time>2026-05-01T10:33:58.918Z</time></trkpt><trkpt lat="42.5765247" lon="12.7403276"><ele>220.0</ele><time>2026-05-01T10:33:59.918Z</time></trkpt><trkpt lat="42.5766233" lon="12.7403864"><ele>219.5</ele><time>2026-05-01T10:34:00.918Z</time></trkpt><trkpt lat="42.5767249" lon="12.7404456"><ele>219.0</ele><time>2026-05-01T10:34:01.918Z</time></trkpt><trkpt lat="42.5768265" lon="12.7405078"><ele>218.5</ele><time>2026-05-01T10:34:02.918Z</time></trkpt><trkpt lat="42.5769349" lon="12.740576"><ele>218.0</ele><time>2026-05-01T10:34:03.917Z</time></trkpt><trkpt lat="42.5770401" lon="12.7406427"><ele>218.0</ele><time>2026-05-01T10:34:04.918Z</time></trkpt><trkpt lat="42.5771489" lon="12.7407041"><ele>218.0</ele><time>2026-05-01T10:34:05.918Z</time></trkpt><trkpt lat="42.577252" lon="12.7407617"><ele>218.0</ele><time>2026-05-01T10:34:06.917Z</time></trkpt><trkpt lat="42.577353" lon="12.7408221"><ele>218.0</ele><time>2026-05-01T10:34:07.918Z</time></trkpt><trkpt lat="42.5774566" lon="12.7408822"><ele>218.0</ele><time>2026-05-01T10:34:08.918Z</time></trkpt><trkpt lat="42.5775581" lon="12.7409459"><ele>218.0</ele><time>2026-05-01T10:34:09.918Z</time></trkpt><trkpt lat="42.5776612" lon="12.7410086"><ele>218.0</ele><time>2026-05-01T10:34:10.917Z</time></trkpt><trkpt lat="42.5777667" lon="12.7410693"><ele>218.0</ele><time>2026-05-01T10:34:11.918Z</time></trkpt><trkpt lat="42.5778718" lon="12.7411381"><ele>218.0</ele><time>2026-05-01T10:34:12.918Z</time></trkpt><trkpt lat="42.5779725" lon="12.7412174"><ele>218.0</ele><time>2026-05-01T10:34:13.918Z</time></trkpt><trkpt lat="42.5780688" lon="12.74132"><ele>218.0</ele><time>2026-05-01T10:34:14.918Z</time></trkpt><trkpt lat="42.5781607" lon="12.7414381"><ele>218.0</ele><time>2026-05-01T10:34:15.918Z</time></trkpt><trkpt lat="42.5782444" lon="12.7415722"><ele>218.0</ele><time>2026-05-01T10:34:16.918Z</time></trkpt><trkpt lat="42.5783185" lon="12.7417167"><ele>218.0</ele><time>2026-05-01T10:34:17.917Z</time></trkpt><trkpt lat="42.5783836" lon="12.7418827"><ele>218.0</ele><time>2026-05-01T10:34:18.917Z</time></trkpt><trkpt lat="42.5784386" lon="12.7420598"><ele>218.0</ele><time>2026-05-01T10:34:19.918Z</time></trkpt><trkpt lat="42.5784856" lon="12.7422421"><ele>218.0</ele><time>2026-05-01T10:34:20.918Z</time></trkpt><trkpt lat="42.5785284" lon="12.7424291"><ele>218.0</ele><time>2026-05-01T10:34:21.918Z</time></trkpt><trkpt lat="42.5785662" lon="12.7426209"><ele>218.0</ele><time>2026-05-01T10:34:22.917Z</time></trkpt><trkpt lat="42.5786066" lon="12.7428136"><ele>218.0</ele><time>2026-05-01T10:34:23.917Z</time></trkpt><trkpt lat="42.5786455" lon="12.743005"><ele>218.0</ele><time>2026-05-01T10:34:24.918Z</time></trkpt><trkpt lat="42.5786885" lon="12.743204"><ele>218.0</ele><time>2026-05-01T10:34:25.918Z</time></trkpt><trkpt lat="42.5787297" lon="12.7434009"><ele>218.0</ele><time>2026-05-01T10:34:26.918Z</time></trkpt><trkpt lat="42.578773" lon="12.7435971"><ele>218.0</ele><time>2026-05-01T10:34:27.918Z</time></trkpt><trkpt lat="42.5788151" lon="12.7437896"><ele>218.0</ele><time>2026-05-01T10:34:28.917Z</time></trkpt><trkpt lat="42.5788514" lon="12.7439736"><ele>218.0</ele><time>2026-05-01T10:34:29.918Z</time></trkpt><trkpt lat="42.5788872" lon="12.7441514"><ele>218.0</ele><time>2026-05-01T10:34:30.918Z</time></trkpt><trkpt lat="42.5789275" lon="12.744327"><ele>218.25</ele><time>2026-05-01T10:34:31.918Z</time></trkpt><trkpt lat="42.5789701" lon="12.7445073"><ele>218.5</ele><time>2026-05-01T10:34:32.918Z</time></trkpt><trkpt lat="42.5790116" lon="12.7446849"><ele>218.75</ele><time>2026-05-01T10:34:33.918Z</time></trkpt><trkpt lat="42.5790504" lon="12.744862"><ele>219.0</ele><time>2026-05-01T10:34:34.918Z</time></trkpt><trkpt lat="42.5790932" lon="12.7450398"><ele>219.0</ele><time>2026-05-01T10:34:35.917Z</time></trkpt><trkpt lat="42.5791327" lon="12.7452206"><ele>219.0</ele><time>2026-05-01T10:34:36.918Z</time></trkpt><trkpt lat="42.5791727" lon="12.7453998"><ele>219.0</ele><time>2026-05-01T10:34:37.917Z</time></trkpt><trkpt lat="42.5792173" lon="12.745587"><ele>219.0</ele><time>2026-05-01T10:34:38.918Z</time></trkpt><trkpt lat="42.5792636" lon="12.745787"><ele>219.0</ele><time>2026-05-01T10:34:39.917Z</time></trkpt><trkpt lat="42.5793121" lon="12.7459805"><ele>219.0</ele><time>2026-05-01T10:34:40.917Z</time></trkpt><trkpt lat="42.5793549" lon="12.7461666"><ele>219.0</ele><time>2026-05-01T10:34:41.918Z</time></trkpt><trkpt lat="42.579395" lon="12.7463528"><ele>219.0</ele><time>2026-05-01T10:34:42.918Z</time></trkpt><trkpt lat="42.5794363" lon="12.7465332"><ele>219.0</ele><time>2026-05-01T10:34:43.918Z</time></trkpt><trkpt lat="42.5794789" lon="12.7467132"><ele>219.0</ele><time>2026-05-01T10:34:44.917Z</time></trkpt><trkpt lat="42.5795205" lon="12.7468987"><ele>219.0</ele><time>2026-05-01T10:34:45.917Z</time></trkpt><trkpt lat="42.5795613" lon="12.7470833"><ele>219.0</ele><time>2026-05-01T10:34:46.918Z</time></trkpt><trkpt lat="42.5795995" lon="12.7472615"><ele>218.75</ele><time>2026-05-01T10:34:47.918Z</time></trkpt><trkpt lat="42.5796384" lon="12.747429"><ele>218.5</ele><time>2026-05-01T10:34:48.918Z</time></trkpt><trkpt lat="42.5796748" lon="12.747593"><ele>218.25</ele><time>2026-05-01T10:34:49.918Z</time></trkpt><trkpt lat="42.5797134" lon="12.7477583"><ele>218.0</ele><time>2026-05-01T10:34:50.917Z</time></trkpt><trkpt lat="42.579752" lon="12.7479254"><ele>218.0</ele><time>2026-05-01T10:34:51.918Z</time></trkpt><trkpt lat="42.57979" lon="12.7480958"><ele>218.0</ele><time>2026-05-01T10:34:52.918Z</time></trkpt><trkpt lat="42.5798322" lon="12.74827"><ele>218.0</ele><time>2026-05-01T10:34:53.918Z</time></trkpt><trkpt lat="42.5798734" lon="12.7484514"><ele>218.0</ele><time>2026-05-01T10:34:54.918Z</time></trkpt><trkpt lat="42.579913" lon="12.7486322"><ele>218.5</ele><time>2026-05-01T10:34:55.917Z</time></trkpt><trkpt lat="42.5799553" lon="12.7488093"><ele>219.0</ele><time>2026-05-01T10:34:56.918Z</time></trkpt><trkpt lat="42.5799985" lon="12.7489817"><ele>219.5</ele><time>2026-05-01T10:34:57.918Z</time></trkpt><trkpt lat="42.580036" lon="12.7491414"><ele>220.0</ele><time>2026-05-01T10:34:58.918Z</time></trkpt><trkpt lat="42.5800725" lon="12.7492971"><ele>220.25</ele><time>2026-05-01T10:34:59.918Z</time></trkpt><trkpt lat="42.5801076" lon="12.7494529"><ele>220.5</ele><time>2026-05-01T10:35:00.918Z</time></trkpt><trkpt lat="42.5801415" lon="12.7496008"><ele>220.75</ele><time>2026-05-01T10:35:01.918Z</time></trkpt><trkpt lat="42.5801725" lon="12.7497454"><ele>221.0</ele><time>2026-05-01T10:35:02.918Z</time></trkpt><trkpt lat="42.5802008" lon="12.7498892"><ele>221.0</ele><time>2026-05-01T10:35:03.918Z</time></trkpt><trkpt lat="42.5802267" lon="12.7500292"><ele>221.00000000000003</ele><time>2026-05-01T10:35:04.918Z</time></trkpt><trkpt lat="42.5802491" lon="12.7501617"><ele>221.00000000000003</ele><time>2026-05-01T10:35:05.918Z</time></trkpt><trkpt lat="42.5802672" lon="12.750289"><ele>221.0</ele><time>2026-05-01T10:35:06.918Z</time></trkpt><trkpt lat="42.580281" lon="12.7504021"><ele>221.0</ele><time>2026-05-01T10:35:07.918Z</time></trkpt><trkpt lat="42.5802891" lon="12.7505021"><ele>221.00000000000003</ele><time>2026-05-01T10:35:08.918Z</time></trkpt><trkpt lat="42.5802888" lon="12.7505978"><ele>221.0</ele><time>2026-05-01T10:35:09.918Z</time></trkpt><trkpt lat="42.5802931" lon="12.75069"><ele>221.0</ele><time>2026-05-01T10:35:10.918Z</time></trkpt><trkpt lat="42.5802932" lon="12.7507818"><ele>221.0</ele><time>2026-05-01T10:35:11.918Z</time></trkpt><trkpt lat="42.580294" lon="12.7508714"><ele>221.00000000000003</ele><time>2026-05-01T10:35:12.918Z</time></trkpt><trkpt lat="42.5802918" lon="12.7509589"><ele>221.0</ele><time>2026-05-01T10:35:13.917Z</time></trkpt><trkpt lat="42.5802932" lon="12.7511163"><ele>221.00000000000003</ele><time>2026-05-01T10:35:15.918Z</time></trkpt><trkpt lat="42.5803005" lon="12.7512687"><ele>221.0</ele><time>2026-05-01T10:35:17.918Z</time></trkpt><trkpt lat="42.5803065" lon="12.751359"><ele>221.0</ele><time>2026-05-01T10:35:18.918Z</time></trkpt><trkpt lat="42.580313" lon="12.7514534"><ele>221.0</ele><time>2026-05-01T10:35:19.918Z</time></trkpt><trkpt lat="42.5803182" lon="12.7515476"><ele>221.00000000000003</ele><time>2026-05-01T10:35:20.918Z</time></trkpt><trkpt lat="42.5803234" lon="12.7516418"><ele>221.0</ele><time>2026-05-01T10:35:21.918Z</time></trkpt><trkpt lat="42.580331" lon="12.751734"><ele>221.0</ele><time>2026-05-01T10:35:22.918Z</time></trkpt><trkpt lat="42.5803386" lon="12.7518376"><ele>221.00000000000003</ele><time>2026-05-01T10:35:23.918Z</time></trkpt><trkpt lat="42.5803476" lon="12.7519511"><ele>221.00000000000003</ele><time>2026-05-01T10:35:24.918Z</time></trkpt><trkpt lat="42.5803539" lon="12.7520718"><ele>221.0</ele><time>2026-05-01T10:35:25.918Z</time></trkpt><trkpt lat="42.5803585" lon="12.7522038"><ele>221.0</ele><time>2026-05-01T10:35:26.918Z</time></trkpt><trkpt lat="42.5803632" lon="12.7523435"><ele>221.0</ele><time>2026-05-01T10:35:27.918Z</time></trkpt><trkpt lat="42.5803694" lon="12.7524894"><ele>221.00000000000003</ele><time>2026-05-01T10:35:28.917Z</time></trkpt><trkpt lat="42.5803761" lon="12.7526431"><ele>221.00000000000003</ele><time>2026-05-01T10:35:29.918Z</time></trkpt><trkpt lat="42.5803791" lon="12.7527913"><ele>221.0</ele><time>2026-05-01T10:35:30.917Z</time></trkpt><trkpt lat="42.5803808" lon="12.7529469"><ele>221.0</ele><time>2026-05-01T10:35:31.917Z</time></trkpt><trkpt lat="42.5803858" lon="12.7531019"><ele>221.0</ele><time>2026-05-01T10:35:32.917Z</time></trkpt><trkpt lat="42.5803903" lon="12.753258"><ele>221.0</ele><time>2026-05-01T10:35:33.918Z</time></trkpt><trkpt lat="42.5803951" lon="12.7534114"><ele>221.0</ele><time>2026-05-01T10:35:34.918Z</time></trkpt><trkpt lat="42.5803985" lon="12.753564"><ele>221.0</ele><time>2026-05-01T10:35:35.918Z</time></trkpt><trkpt lat="42.5804001" lon="12.7537246"><ele>222.0</ele><time>2026-05-01T10:35:36.918Z</time></trkpt><trkpt lat="42.5804097" lon="12.7538846"><ele>223.00000000000003</ele><time>2026-05-01T10:35:37.918Z</time></trkpt><trkpt lat="42.5804162" lon="12.7540373"><ele>224.00000000000003</ele><time>2026-05-01T10:35:38.918Z</time></trkpt><trkpt lat="42.5804245" lon="12.7541785"><ele>225.0</ele><time>2026-05-01T10:35:39.918Z</time></trkpt><trkpt lat="42.5804348" lon="12.7543204"><ele>226.0</ele><time>2026-05-01T10:35:40.918Z</time></trkpt><trkpt lat="42.5804469" lon="12.7544588"><ele>227.20000000000002</ele><time>2026-05-01T10:35:41.918Z</time></trkpt><trkpt lat="42.5804669" lon="12.7545943"><ele>228.40000000000003</ele><time>2026-05-01T10:35:42.917Z</time></trkpt><trkpt lat="42.5804963" lon="12.7547237"><ele>229.6</ele><time>2026-05-01T10:35:43.918Z</time></trkpt><trkpt lat="42.5805396" lon="12.7548531"><ele>230.8</ele><time>2026-05-01T10:35:44.917Z</time></trkpt><trkpt lat="42.5805915" lon="12.7549779"><ele>232.0</ele><time>2026-05-01T10:35:45.917Z</time></trkpt><trkpt lat="42.5806481" lon="12.7551041"><ele>230.75</ele><time>2026-05-01T10:35:46.918Z</time></trkpt><trkpt lat="42.5807104" lon="12.7552367"><ele>229.5</ele><time>2026-05-01T10:35:47.917Z</time></trkpt><trkpt lat="42.5807783" lon="12.7553632"><ele>228.25</ele><time>2026-05-01T10:35:48.918Z</time></trkpt><trkpt lat="42.5808436" lon="12.7554924"><ele>227.0</ele><time>2026-05-01T10:35:49.917Z</time></trkpt><trkpt lat="42.5809034" lon="12.7556139"><ele>227.0</ele><time>2026-05-01T10:35:50.918Z</time></trkpt><trkpt lat="42.5809636" lon="12.7557259"><ele>227.0</ele><time>2026-05-01T10:35:51.918Z</time></trkpt><trkpt lat="42.5810254" lon="12.7558375"><ele>227.0</ele><time>2026-05-01T10:35:52.918Z</time></trkpt><trkpt lat="42.5810987" lon="12.7559404"><ele>227.0</ele><time>2026-05-01T10:35:53.918Z</time></trkpt><trkpt lat="42.5811657" lon="12.7560522"><ele>227.0</ele><time>2026-05-01T10:35:54.917Z</time></trkpt><trkpt lat="42.5812239" lon="12.7561827"><ele>228.0</ele><time>2026-05-01T10:35:55.918Z</time></trkpt><trkpt lat="42.5812927" lon="12.7563161"><ele>229.0</ele><time>2026-05-01T10:35:56.917Z</time></trkpt><trkpt lat="42.5813726" lon="12.7564634"><ele>230.0</ele><time>2026-05-01T10:35:57.918Z</time></trkpt><trkpt lat="42.5814509" lon="12.7566129"><ele>231.0</ele><time>2026-05-01T10:35:58.917Z</time></trkpt><trkpt lat="42.5815251" lon="12.756759"><ele>229.0</ele><time>2026-05-01T10:35:59.918Z</time></trkpt><trkpt lat="42.5815944" lon="12.7569027"><ele>227.0</ele><time>2026-05-01T10:36:00.918Z</time></trkpt><trkpt lat="42.5816694" lon="12.7570355"><ele>225.0</ele><time>2026-05-01T10:36:01.918Z</time></trkpt><trkpt lat="42.5817399" lon="12.757171"><ele>223.0</ele><time>2026-05-01T10:36:02.918Z</time></trkpt><trkpt lat="42.5818163" lon="12.7572933"><ele>223.0</ele><time>2026-05-01T10:36:03.918Z</time></trkpt><trkpt lat="42.5819012" lon="12.7574136"><ele>223.0</ele><time>2026-05-01T10:36:04.918Z</time></trkpt><trkpt lat="42.58199" lon="12.7575309"><ele>223.0</ele><time>2026-05-01T10:36:05.918Z</time></trkpt><trkpt lat="42.5820826" lon="12.7576426"><ele>223.0</ele><time>2026-05-01T10:36:06.918Z</time></trkpt><trkpt lat="42.5821782" lon="12.7577597"><ele>223.0</ele><time>2026-05-01T10:36:07.917Z</time></trkpt><trkpt lat="42.5822809" lon="12.7578748"><ele>223.0</ele><time>2026-05-01T10:36:08.917Z</time></trkpt><trkpt lat="42.5823853" lon="12.7579953"><ele>223.0</ele><time>2026-05-01T10:36:09.918Z</time></trkpt><trkpt lat="42.582494" lon="12.758115"><ele>223.0</ele><time>2026-05-01T10:36:10.918Z</time></trkpt><trkpt lat="42.5826036" lon="12.7582346"><ele>223.0</ele><time>2026-05-01T10:36:11.918Z</time></trkpt><trkpt lat="42.5827166" lon="12.7583496"><ele>223.0</ele><time>2026-05-01T10:36:12.917Z</time></trkpt><trkpt lat="42.5828231" lon="12.758462"><ele>223.0</ele><time>2026-05-01T10:36:13.918Z</time></trkpt><trkpt lat="42.5829183" lon="12.7585652"><ele>223.0</ele><time>2026-05-01T10:36:14.917Z</time></trkpt><trkpt lat="42.5830029" lon="12.758656"><ele>223.0</ele><time>2026-05-01T10:36:15.918Z</time></trkpt><trkpt lat="42.5830731" lon="12.7587504"><ele>223.0</ele><time>2026-05-01T10:36:16.918Z</time></trkpt><trkpt lat="42.5831259" lon="12.7588525"><ele>223.0</ele><time>2026-05-01T10:36:17.918Z</time></trkpt><trkpt lat="42.5831559" lon="12.7589758"><ele>223.0</ele><time>2026-05-01T10:36:18.918Z</time></trkpt><trkpt lat="42.5831565" lon="12.7591507"><ele>223.0</ele><time>2026-05-01T10:36:19.918Z</time></trkpt><trkpt lat="42.5831205" lon="12.7593726"><ele>223.0</ele><time>2026-05-01T10:36:20.918Z</time></trkpt><trkpt lat="42.5830529" lon="12.7596259"><ele>223.0</ele><time>2026-05-01T10:36:21.918Z</time></trkpt><trkpt lat="42.5829657" lon="12.7599002"><ele>223.0</ele><time>2026-05-01T10:36:22.918Z</time></trkpt><trkpt lat="42.5828592" lon="12.760199"><ele>222.0</ele><time>2026-05-01T10:36:23.917Z</time></trkpt><trkpt lat="42.5827425" lon="12.7605293"><ele>221.0</ele><time>2026-05-01T10:36:24.918Z</time></trkpt><trkpt lat="42.5826252" lon="12.7608512"><ele>221.0</ele><time>2026-05-01T10:36:25.918Z</time></trkpt><trkpt lat="42.5825159" lon="12.7611601"><ele>221.0</ele><time>2026-05-01T10:36:26.917Z</time></trkpt><trkpt lat="42.5824202" lon="12.7614539"><ele>221.0</ele><time>2026-05-01T10:36:27.918Z</time></trkpt><trkpt lat="42.5823411" lon="12.7617456"><ele>221.0</ele><time>2026-05-01T10:36:28.918Z</time></trkpt><trkpt lat="42.5822855" lon="12.7620403"><ele>221.5</ele><time>2026-05-01T10:36:29.917Z</time></trkpt><trkpt lat="42.5822647" lon="12.7623522"><ele>222.0</ele><time>2026-05-01T10:36:30.918Z</time></trkpt><trkpt lat="42.5822653" lon="12.762677"><ele>221.5</ele><time>2026-05-01T10:36:31.918Z</time></trkpt><trkpt lat="42.5822603" lon="12.7630157"><ele>221.0</ele><time>2026-05-01T10:36:32.918Z</time></trkpt><trkpt lat="42.5822542" lon="12.7633645"><ele>221.5</ele><time>2026-05-01T10:36:33.917Z</time></trkpt><trkpt lat="42.5822488" lon="12.7637185"><ele>222.0</ele><time>2026-05-01T10:36:34.918Z</time></trkpt><trkpt lat="42.5822486" lon="12.7640771"><ele>223.0</ele><time>2026-05-01T10:36:35.918Z</time></trkpt><trkpt lat="42.5822455" lon="12.7644356"><ele>224.0</ele><time>2026-05-01T10:36:36.917Z</time></trkpt><trkpt lat="42.5822373" lon="12.7648043"><ele>224.0</ele><time>2026-05-01T10:36:37.918Z</time></trkpt><trkpt lat="42.5822343" lon="12.7651738"><ele>224.0</ele><time>2026-05-01T10:36:38.918Z</time></trkpt><trkpt lat="42.5822289" lon="12.7655464"><ele>224.5</ele><time>2026-05-01T10:36:39.918Z</time></trkpt><trkpt lat="42.5822245" lon="12.7659184"><ele>225.0</ele><time>2026-05-01T10:36:40.918Z</time></trkpt><trkpt lat="42.5822193" lon="12.7662859"><ele>229.5</ele><time>2026-05-01T10:36:41.918Z</time></trkpt><trkpt lat="42.5822157" lon="12.7666402"><ele>234.0</ele><time>2026-05-01T10:36:42.918Z</time></trkpt><trkpt lat="42.5822108" lon="12.766979"><ele>241.0</ele><time>2026-05-01T10:36:43.917Z</time></trkpt><trkpt lat="42.582206" lon="12.7672973"><ele>248.0</ele><time>2026-05-01T10:36:44.918Z</time></trkpt><trkpt lat="42.5822032" lon="12.7676094"><ele>241.0</ele><time>2026-05-01T10:36:45.918Z</time></trkpt><trkpt lat="42.5821985" lon="12.7679286"><ele>234.0</ele><time>2026-05-01T10:36:46.918Z</time></trkpt><trkpt lat="42.5821952" lon="12.7682451"><ele>232.33333333333331</ele><time>2026-05-01T10:36:47.917Z</time></trkpt><trkpt lat="42.5821874" lon="12.7685527"><ele>230.66666666666666</ele><time>2026-05-01T10:36:48.918Z</time></trkpt><trkpt lat="42.5821818" lon="12.7688548"><ele>229.0</ele><time>2026-05-01T10:36:49.918Z</time></trkpt><trkpt lat="42.5821923" lon="12.7691581"><ele>230.5</ele><time>2026-05-01T10:36:50.918Z</time></trkpt><trkpt lat="42.5822206" lon="12.7694722"><ele>232.0</ele><time>2026-05-01T10:36:51.917Z</time></trkpt><trkpt lat="42.58227" lon="12.7697975"><ele>232.0</ele><time>2026-05-01T10:36:52.918Z</time></trkpt><trkpt lat="42.5823272" lon="12.7701353"><ele>232.0</ele><time>2026-05-01T10:36:53.917Z</time></trkpt><trkpt lat="42.5823881" lon="12.770477"><ele>235.5</ele><time>2026-05-01T10:36:54.918Z</time></trkpt><trkpt lat="42.582446" lon="12.7708108"><ele>239.0</ele><time>2026-05-01T10:36:55.918Z</time></trkpt><trkpt lat="42.5824971" lon="12.7711366"><ele>239.0</ele><time>2026-05-01T10:36:56.918Z</time></trkpt><trkpt lat="42.5825467" lon="12.7714508"><ele>239.0</ele><time>2026-05-01T10:36:57.918Z</time></trkpt><trkpt lat="42.5825932" lon="12.7717394"><ele>238.0</ele><time>2026-05-01T10:36:58.918Z</time></trkpt><trkpt lat="42.582637" lon="12.7720237"><ele>237.0</ele><time>2026-05-01T10:36:59.918Z</time></trkpt><trkpt lat="42.5826747" lon="12.7723043"><ele>236.0</ele><time>2026-05-01T10:37:00.918Z</time></trkpt><trkpt lat="42.5827015" lon="12.7725996"><ele>237.0</ele><time>2026-05-01T10:37:01.917Z</time></trkpt><trkpt lat="42.5827073" lon="12.7729098"><ele>238.0</ele><time>2026-05-01T10:37:02.918Z</time></trkpt><trkpt lat="42.5826761" lon="12.7732411"><ele>237.0</ele><time>2026-05-01T10:37:03.918Z</time></trkpt><trkpt lat="42.5826328" lon="12.7735889"><ele>236.0</ele><time>2026-05-01T10:37:04.918Z</time></trkpt><trkpt lat="42.5825833" lon="12.7739398"><ele>236.0</ele><time>2026-05-01T10:37:05.918Z</time></trkpt><trkpt lat="42.5825255" lon="12.774294"><ele>236.0</ele><time>2026-05-01T10:37:06.918Z</time></trkpt><trkpt lat="42.5824842" lon="12.7746458"><ele>236.5</ele><time>2026-05-01T10:37:07.918Z</time></trkpt><trkpt lat="42.5824478" lon="12.7749988"><ele>237.0</ele><time>2026-05-01T10:37:08.917Z</time></trkpt><trkpt lat="42.5824184" lon="12.7753561"><ele>237.0</ele><time>2026-05-01T10:37:09.917Z</time></trkpt><trkpt lat="42.58239" lon="12.7756934"><ele>237.0</ele><time>2026-05-01T10:37:10.918Z</time></trkpt><trkpt lat="42.5823613" lon="12.7760215"><ele>237.33333333333331</ele><time>2026-05-01T10:37:11.918Z</time></trkpt><trkpt lat="42.5823296" lon="12.776323"><ele>237.66666666666666</ele><time>2026-05-01T10:37:12.918Z</time></trkpt><trkpt lat="42.5823086" lon="12.7765959"><ele>238.0</ele><time>2026-05-01T10:37:13.917Z</time></trkpt><trkpt lat="42.5822927" lon="12.7768413"><ele>239.0</ele><time>2026-05-01T10:37:14.917Z</time></trkpt><trkpt lat="42.5822975" lon="12.7770507"><ele>240.0</ele><time>2026-05-01T10:37:15.917Z</time></trkpt><trkpt lat="42.5823117" lon="12.7772427"><ele>241.0</ele><time>2026-05-01T10:37:16.918Z</time></trkpt><trkpt lat="42.5823383" lon="12.7774071"><ele>242.0</ele><time>2026-05-01T10:37:17.918Z</time></trkpt><trkpt lat="42.5823613" lon="12.7775553"><ele>242.16666666666669</ele><time>2026-05-01T10:37:18.918Z</time></trkpt><trkpt lat="42.5823757" lon="12.7776864"><ele>242.33333333333334</ele><time>2026-05-01T10:37:19.918Z</time></trkpt><trkpt lat="42.5823769" lon="12.7778127"><ele>242.5</ele><time>2026-05-01T10:37:20.918Z</time></trkpt><trkpt lat="42.582362" lon="12.7779128"><ele>242.66666666666669</ele><time>2026-05-01T10:37:21.918Z</time></trkpt><trkpt lat="42.5823119" lon="12.7779729"><ele>242.83333333333334</ele><time>2026-05-01T10:37:22.917Z</time></trkpt><trkpt lat="42.5822426" lon="12.778"><ele>243.0</ele><time>2026-05-01T10:37:23.918Z</time></trkpt><trkpt lat="42.5821448" lon="12.7780142"><ele>243.33333333333331</ele><time>2026-05-01T10:37:24.918Z</time></trkpt><trkpt lat="42.5819896" lon="12.7780015"><ele>243.66666666666666</ele><time>2026-05-01T10:37:25.918Z</time></trkpt><trkpt lat="42.5818027" lon="12.777991"><ele>244.0</ele><time>2026-05-01T10:37:26.918Z</time></trkpt><trkpt lat="42.5815836" lon="12.7779873"><ele>244.0</ele><time>2026-05-01T10:37:27.918Z</time></trkpt><trkpt lat="42.5813471" lon="12.7779842"><ele>244.0</ele><time>2026-05-01T10:37:28.917Z</time></trkpt><trkpt lat="42.581131" lon="12.777975"><ele>245.0</ele><time>2026-05-01T10:37:29.918Z</time></trkpt><trkpt lat="42.5809452" lon="12.7779701"><ele>246.0</ele><time>2026-05-01T10:37:30.918Z</time></trkpt><trkpt lat="42.580798" lon="12.7780199"><ele>247.0</ele><time>2026-05-01T10:37:31.918Z</time></trkpt><trkpt lat="42.5806553" lon="12.7781175"><ele>247.0</ele><time>2026-05-01T10:37:32.918Z</time></trkpt><trkpt lat="42.5805433" lon="12.778303"><ele>247.0</ele><time>2026-05-01T10:37:33.918Z</time></trkpt><trkpt lat="42.5804502" lon="12.7785351"><ele>247.0</ele><time>2026-05-01T10:37:34.918Z</time></trkpt><trkpt lat="42.5803921" lon="12.7788057"><ele>250.0</ele><time>2026-05-01T10:37:35.918Z</time></trkpt><trkpt lat="42.5803269" lon="12.7790738"><ele>253.0</ele><time>2026-05-01T10:37:36.918Z</time></trkpt><trkpt lat="42.5802478" lon="12.7793218"><ele>256.0</ele><time>2026-05-01T10:37:37.918Z</time></trkpt><trkpt lat="42.5801452" lon="12.7795377"><ele>256.0</ele><time>2026-05-01T10:37:38.918Z</time></trkpt><trkpt lat="42.5800089" lon="12.7797305"><ele>256.0</ele><time>2026-05-01T10:37:39.917Z</time></trkpt><trkpt lat="42.5798487" lon="12.7799234"><ele>256.0</ele><time>2026-05-01T10:37:40.918Z</time></trkpt><trkpt lat="42.5796776" lon="12.7801246"><ele>263.5</ele><time>2026-05-01T10:37:41.918Z</time></trkpt><trkpt lat="42.5794933" lon="12.7803198"><ele>271.0</ele><time>2026-05-01T10:37:42.918Z</time></trkpt><trkpt lat="42.5793105" lon="12.7805177"><ele>271.0</ele><time>2026-05-01T10:37:43.918Z</time></trkpt><trkpt lat="42.5791592" lon="12.7807087"><ele>271.0</ele><time>2026-05-01T10:37:44.918Z</time></trkpt><trkpt lat="42.5790613" lon="12.7809352"><ele>271.0</ele><time>2026-05-01T10:37:45.918Z</time></trkpt><trkpt lat="42.5789962" lon="12.7811978"><ele>270.3333333333333</ele><time>2026-05-01T10:37:46.918Z</time></trkpt><trkpt lat="42.578955" lon="12.7814637"><ele>269.6666666666667</ele><time>2026-05-01T10:37:47.918Z</time></trkpt><trkpt lat="42.5789102" lon="12.7817205"><ele>269.0</ele><time>2026-05-01T10:37:48.918Z</time></trkpt><trkpt lat="42.5788378" lon="12.7819791"><ele>268.33333333333337</ele><time>2026-05-01T10:37:49.918Z</time></trkpt><trkpt lat="42.5787252" lon="12.782214"><ele>267.6666666666667</ele><time>2026-05-01T10:37:50.918Z</time></trkpt><trkpt lat="42.5785823" lon="12.782471"><ele>267.0</ele><time>2026-05-01T10:37:51.918Z</time></trkpt><trkpt lat="42.5784114" lon="12.7827538"><ele>270.5</ele><time>2026-05-01T10:37:52.918Z</time></trkpt><trkpt lat="42.5782528" lon="12.7830313"><ele>274.0</ele><time>2026-05-01T10:37:53.918Z</time></trkpt><trkpt lat="42.578099" lon="12.7832839"><ele>274.0</ele><time>2026-05-01T10:37:54.917Z</time></trkpt><trkpt lat="42.5779663" lon="12.7834913"><ele>274.0</ele><time>2026-05-01T10:37:55.918Z</time></trkpt><trkpt lat="42.5778447" lon="12.7836596"><ele>274.0</ele><time>2026-05-01T10:37:56.918Z</time></trkpt><trkpt lat="42.577741" lon="12.7838134"><ele>277.3333333333333</ele><time>2026-05-01T10:37:57.918Z</time></trkpt><trkpt lat="42.5776281" lon="12.7839404"><ele>280.6666666666667</ele><time>2026-05-01T10:37:58.918Z</time></trkpt><trkpt lat="42.5774955" lon="12.7840235"><ele>284.0</ele><time>2026-05-01T10:37:59.918Z</time></trkpt><trkpt lat="42.5773383" lon="12.7840946"><ele>284.0</ele><time>2026-05-01T10:38:00.918Z</time></trkpt><trkpt lat="42.577157" lon="12.7841439"><ele>284.0</ele><time>2026-05-01T10:38:01.917Z</time></trkpt><trkpt lat="42.5769714" lon="12.784189"><ele>284.0</ele><time>2026-05-01T10:38:02.917Z</time></trkpt><trkpt lat="42.5767945" lon="12.7842619"><ele>285.6666666666667</ele><time>2026-05-01T10:38:03.918Z</time></trkpt><trkpt lat="42.5766136" lon="12.7843721"><ele>287.3333333333333</ele><time>2026-05-01T10:38:04.918Z</time></trkpt><trkpt lat="42.5764205" lon="12.7845256"><ele>289.0</ele><time>2026-05-01T10:38:05.918Z</time></trkpt><trkpt lat="42.5762471" lon="12.7846977"><ele>291.3333333333333</ele><time>2026-05-01T10:38:06.918Z</time></trkpt><trkpt lat="42.5760693" lon="12.784863"><ele>293.6666666666667</ele><time>2026-05-01T10:38:07.918Z</time></trkpt><trkpt lat="42.5759181" lon="12.7850096"><ele>296.0</ele><time>2026-05-01T10:38:08.917Z</time></trkpt><trkpt lat="42.5757638" lon="12.7851125"><ele>298.0</ele><time>2026-05-01T10:38:09.917Z</time></trkpt><trkpt lat="42.5756038" lon="12.7851801"><ele>300.0</ele><time>2026-05-01T10:38:10.918Z</time></trkpt><trkpt lat="42.5754448" lon="12.7852345"><ele>302.0</ele><time>2026-05-01T10:38:11.918Z</time></trkpt><trkpt lat="42.5753046" lon="12.7852468"><ele>302.0</ele><time>2026-05-01T10:38:12.918Z</time></trkpt><trkpt lat="42.5752013" lon="12.7852395"><ele>302.0</ele><time>2026-05-01T10:38:13.918Z</time></trkpt><trkpt lat="42.5751215" lon="12.785212"><ele>302.0</ele><time>2026-05-01T10:38:14.918Z</time></trkpt><trkpt lat="42.5750704" lon="12.7851314"><ele>302.0</ele><time>2026-05-01T10:38:15.918Z</time></trkpt><trkpt lat="42.5750756" lon="12.7850088"><ele>302.0</ele><time>2026-05-01T10:38:16.918Z</time></trkpt><trkpt lat="42.5751503" lon="12.7848881"><ele>303.0</ele><time>2026-05-01T10:38:17.917Z</time></trkpt><trkpt lat="42.5752675" lon="12.7847964"><ele>304.0</ele><time>2026-05-01T10:38:18.917Z</time></trkpt><trkpt lat="42.575418" lon="12.7847395"><ele>305.0</ele><time>2026-05-01T10:38:19.918Z</time></trkpt><trkpt lat="42.5755976" lon="12.7846751"><ele>302.0</ele><time>2026-05-01T10:38:20.917Z</time></trkpt><trkpt lat="42.5757731" lon="12.7846133"><ele>299.0</ele><time>2026-05-01T10:38:21.918Z</time></trkpt><trkpt lat="42.5759522" lon="12.7845067"><ele>296.0</ele><time>2026-05-01T10:38:22.918Z</time></trkpt><trkpt lat="42.5761278" lon="12.7843504"><ele>299.5</ele><time>2026-05-01T10:38:23.918Z</time></trkpt><trkpt lat="42.576311" lon="12.7841534"><ele>303.0</ele><time>2026-05-01T10:38:24.918Z</time></trkpt><trkpt lat="42.5765043" lon="12.7839749"><ele>303.0</ele><time>2026-05-01T10:38:25.918Z</time></trkpt><trkpt lat="42.5767048" lon="12.7838133"><ele>303.0</ele><time>2026-05-01T10:38:26.917Z</time></trkpt><trkpt lat="42.5769087" lon="12.7836673"><ele>305.5</ele><time>2026-05-01T10:38:27.918Z</time></trkpt><trkpt lat="42.5771115" lon="12.7835117"><ele>308.0</ele><time>2026-05-01T10:38:28.918Z</time></trkpt><trkpt lat="42.5773048" lon="12.7833326"><ele>308.0</ele><time>2026-05-01T10:38:29.918Z</time></trkpt><trkpt lat="42.5774981" lon="12.783149"><ele>308.0</ele><time>2026-05-01T10:38:30.918Z</time></trkpt><trkpt lat="42.5776767" lon="12.7829641"><ele>308.0</ele><time>2026-05-01T10:38:31.917Z</time></trkpt><trkpt lat="42.5778265" lon="12.7827354"><ele>308.0</ele><time>2026-05-01T10:38:32.918Z</time></trkpt><trkpt lat="42.577952" lon="12.7824535"><ele>300.5</ele><time>2026-05-01T10:38:33.917Z</time></trkpt><trkpt lat="42.5780759" lon="12.7821694"><ele>293.0</ele><time>2026-05-01T10:38:34.918Z</time></trkpt><trkpt lat="42.5782083" lon="12.7819064"><ele>300.0</ele><time>2026-05-01T10:38:35.918Z</time></trkpt><trkpt lat="42.5783218" lon="12.7816833"><ele>307.0</ele><time>2026-05-01T10:38:36.918Z</time></trkpt><trkpt lat="42.5784039" lon="12.781508"><ele>314.0</ele><time>2026-05-01T10:38:37.917Z</time></trkpt><trkpt lat="42.5784531" lon="12.7813663"><ele>314.0</ele><time>2026-05-01T10:38:38.918Z</time></trkpt><trkpt lat="42.5784535" lon="12.7812114"><ele>314.0</ele><time>2026-05-01T10:38:39.918Z</time></trkpt><trkpt lat="42.5783886" lon="12.7810148"><ele>314.0</ele><time>2026-05-01T10:38:40.918Z</time></trkpt><trkpt lat="42.5783039" lon="12.7807792"><ele>315.0</ele><time>2026-05-01T10:38:41.918Z</time></trkpt><trkpt lat="42.5782316" lon="12.7805124"><ele>316.0</ele><time>2026-05-01T10:38:42.918Z</time></trkpt><trkpt lat="42.578176" lon="12.7802646"><ele>317.0</ele><time>2026-05-01T10:38:43.918Z</time></trkpt><trkpt lat="42.5781407" lon="12.7800262"><ele>317.33333333333337</ele><time>2026-05-01T10:38:44.918Z</time></trkpt><trkpt lat="42.5781309" lon="12.7797751"><ele>317.6666666666667</ele><time>2026-05-01T10:38:45.917Z</time></trkpt><trkpt lat="42.5781344" lon="12.7795293"><ele>318.0</ele><time>2026-05-01T10:38:46.918Z</time></trkpt><trkpt lat="42.5781743" lon="12.7792688"><ele>324.0</ele><time>2026-05-01T10:38:47.918Z</time></trkpt><trkpt lat="42.5782743" lon="12.7790045"><ele>330.0</ele><time>2026-05-01T10:38:48.918Z</time></trkpt><trkpt lat="42.5784139" lon="12.7787225"><ele>319.0</ele><time>2026-05-01T10:38:49.918Z</time></trkpt><trkpt lat="42.5785672" lon="12.7784353"><ele>308.0</ele><time>2026-05-01T10:38:50.918Z</time></trkpt><trkpt lat="42.5787436" lon="12.7781183"><ele>308.0</ele><time>2026-05-01T10:38:51.917Z</time></trkpt><trkpt lat="42.5789251" lon="12.7778141"><ele>308.0</ele><time>2026-05-01T10:38:52.918Z</time></trkpt><trkpt lat="42.5790996" lon="12.7775109"><ele>324.0</ele><time>2026-05-01T10:38:53.917Z</time></trkpt><trkpt lat="42.5792411" lon="12.7772315"><ele>340.0</ele><time>2026-05-01T10:38:54.918Z</time></trkpt><trkpt lat="42.5793581" lon="12.7770018"><ele>342.5</ele><time>2026-05-01T10:38:55.917Z</time></trkpt><trkpt lat="42.5794649" lon="12.7768313"><ele>345.0</ele><time>2026-05-01T10:38:56.918Z</time></trkpt><trkpt lat="42.5795385" lon="12.7766948"><ele>347.5</ele><time>2026-05-01T10:38:57.917Z</time></trkpt><trkpt lat="42.5795796" lon="12.7765558"><ele>350.0</ele><time>2026-05-01T10:38:58.918Z</time></trkpt><trkpt lat="42.5795686" lon="12.7764483"><ele>350.0</ele><time>2026-05-01T10:38:59.918Z</time></trkpt><trkpt lat="42.5794919" lon="12.7763753"><ele>350.0</ele><time>2026-05-01T10:39:00.918Z</time></trkpt><trkpt lat="42.5793727" lon="12.7763188"><ele>350.0</ele><time>2026-05-01T10:39:01.918Z</time></trkpt><trkpt lat="42.5792281" lon="12.7762692"><ele>350.0</ele><time>2026-05-01T10:39:02.918Z</time></trkpt><trkpt lat="42.5790717" lon="12.7761961"><ele>350.0</ele><time>2026-05-01T10:39:03.918Z</time></trkpt><trkpt lat="42.5789498" lon="12.7760873"><ele>350.0</ele><time>2026-05-01T10:39:04.917Z</time></trkpt><trkpt lat="42.5788708" lon="12.7759319"><ele>350.0</ele><time>2026-05-01T10:39:05.917Z</time></trkpt><trkpt lat="42.5788203" lon="12.7757454"><ele>350.0</ele><time>2026-05-01T10:39:06.918Z</time></trkpt><trkpt lat="42.5787803" lon="12.7755607"><ele>352.0</ele><time>2026-05-01T10:39:07.918Z</time></trkpt><trkpt lat="42.5787035" lon="12.7754136"><ele>354.0</ele><time>2026-05-01T10:39:08.918Z</time></trkpt><trkpt lat="42.5785538" lon="12.7753294"><ele>356.0</ele><time>2026-05-01T10:39:09.918Z</time></trkpt><trkpt lat="42.5783726" lon="12.7753081"><ele>356.0</ele><time>2026-05-01T10:39:10.918Z</time></trkpt><trkpt lat="42.5781802" lon="12.7753273"><ele>356.0</ele><time>2026-05-01T10:39:11.918Z</time></trkpt><trkpt lat="42.5779707" lon="12.7753552"><ele>356.0</ele><time>2026-05-01T10:39:12.918Z</time></trkpt><trkpt lat="42.577763" lon="12.7753656"><ele>357.6666666666667</ele><time>2026-05-01T10:39:13.918Z</time></trkpt><trkpt lat="42.5775672" lon="12.7753292"><ele>359.3333333333333</ele><time>2026-05-01T10:39:14.917Z</time></trkpt><trkpt lat="42.5773775" lon="12.7752599"><ele>361.0</ele><time>2026-05-01T10:39:15.917Z</time></trkpt><trkpt lat="42.5771787" lon="12.7751147"><ele>363.0</ele><time>2026-05-01T10:39:16.918Z</time></trkpt><trkpt lat="42.5769805" lon="12.77494"><ele>365.0</ele><time>2026-05-01T10:39:17.918Z</time></trkpt><trkpt lat="42.5767761" lon="12.7747838"><ele>365.0</ele><time>2026-05-01T10:39:18.918Z</time></trkpt><trkpt lat="42.5765983" lon="12.7746455"><ele>365.0</ele><time>2026-05-01T10:39:19.918Z</time></trkpt><trkpt lat="42.5764579" lon="12.7745304"><ele>365.0</ele><time>2026-05-01T10:39:20.918Z</time></trkpt><trkpt lat="42.5763292" lon="12.7744387"><ele>365.0</ele><time>2026-05-01T10:39:21.917Z</time></trkpt><trkpt lat="42.5762093" lon="12.7743961"><ele>365.0</ele><time>2026-05-01T10:39:22.918Z</time></trkpt><trkpt lat="42.5761051" lon="12.774423"><ele>365.0</ele><time>2026-05-01T10:39:23.918Z</time></trkpt><trkpt lat="42.5760344" lon="12.7745239"><ele>365.0</ele><time>2026-05-01T10:39:24.918Z</time></trkpt><trkpt lat="42.5760181" lon="12.7746574"><ele>365.0</ele><time>2026-05-01T10:39:25.917Z</time></trkpt><trkpt lat="42.5760585" lon="12.7747932"><ele>365.0</ele><time>2026-05-01T10:39:26.918Z</time></trkpt><trkpt lat="42.576156" lon="12.7748869"><ele>365.0</ele><time>2026-05-01T10:39:27.918Z</time></trkpt><trkpt lat="42.5763016" lon="12.774938"><ele>365.0</ele><time>2026-05-01T10:39:28.917Z</time></trkpt><trkpt lat="42.5764601" lon="12.7749784"><ele>365.0</ele><time>2026-05-01T10:39:29.918Z</time></trkpt><trkpt lat="42.5766294" lon="12.7750362"><ele>365.0</ele><time>2026-05-01T10:39:30.917Z</time></trkpt><trkpt lat="42.5768056" lon="12.7751354"><ele>365.0</ele><time>2026-05-01T10:39:31.917Z</time></trkpt><trkpt lat="42.5769735" lon="12.7752836"><ele>365.0</ele><time>2026-05-01T10:39:32.918Z</time></trkpt><trkpt lat="42.5771103" lon="12.7754941"><ele>363.6666666666667</ele><time>2026-05-01T10:39:33.918Z</time></trkpt><trkpt lat="42.5772452" lon="12.7757245"><ele>362.3333333333333</ele><time>2026-05-01T10:39:34.918Z</time></trkpt><trkpt lat="42.577413" lon="12.7759143"><ele>361.0</ele><time>2026-05-01T10:39:35.918Z</time></trkpt><trkpt lat="42.5776078" lon="12.7760805"><ele>368.0</ele><time>2026-05-01T10:39:36.918Z</time></trkpt><trkpt lat="42.5778237" lon="12.7762346"><ele>375.0</ele><time>2026-05-01T10:39:37.917Z</time></trkpt><trkpt lat="42.5780493" lon="12.7763768"><ele>375.0</ele><time>2026-05-01T10:39:38.918Z</time></trkpt><trkpt lat="42.5782662" lon="12.7765225"><ele>375.0</ele><time>2026-05-01T10:39:39.917Z</time></trkpt><trkpt lat="42.57846" lon="12.7766453"><ele>375.0</ele><time>2026-05-01T10:39:40.918Z</time></trkpt><trkpt lat="42.578624" lon="12.7767426"><ele>375.0</ele><time>2026-05-01T10:39:41.918Z</time></trkpt><trkpt lat="42.578739" lon="12.7768017"><ele>375.0</ele><time>2026-05-01T10:39:42.917Z</time></trkpt><trkpt lat="42.5788246" lon="12.7768835"><ele>375.0</ele><time>2026-05-01T10:39:43.918Z</time></trkpt><trkpt lat="42.5788783" lon="12.7769756"><ele>377.25</ele><time>2026-05-01T10:39:44.918Z</time></trkpt><trkpt lat="42.5788931" lon="12.7770963"><ele>379.5</ele><time>2026-05-01T10:39:45.918Z</time></trkpt><trkpt lat="42.5788536" lon="12.7772234"><ele>381.75</ele><time>2026-05-01T10:39:46.918Z</time></trkpt><trkpt lat="42.5787519" lon="12.7773903"><ele>384.0</ele><time>2026-05-01T10:39:47.917Z</time></trkpt><trkpt lat="42.5785771" lon="12.7775609"><ele>370.5</ele><time>2026-05-01T10:39:48.918Z</time></trkpt><trkpt lat="42.5783782" lon="12.7777522"><ele>357.0</ele><time>2026-05-01T10:39:49.917Z</time></trkpt><trkpt lat="42.5781888" lon="12.7779522"><ele>357.0</ele><time>2026-05-01T10:39:50.918Z</time></trkpt><trkpt lat="42.5780105" lon="12.7781797"><ele>357.0</ele><time>2026-05-01T10:39:51.918Z</time></trkpt><trkpt lat="42.577855" lon="12.7784113"><ele>368.0</ele><time>2026-05-01T10:39:52.917Z</time></trkpt><trkpt lat="42.577715" lon="12.7786406"><ele>379.0</ele><time>2026-05-01T10:39:53.918Z</time></trkpt><trkpt lat="42.5776006" lon="12.7788438"><ele>390.0</ele><time>2026-05-01T10:39:54.918Z</time></trkpt><trkpt lat="42.5775064" lon="12.7790636"><ele>390.0</ele><time>2026-05-01T10:39:55.918Z</time></trkpt><trkpt lat="42.5774443" lon="12.7793118"><ele>390.0</ele><time>2026-05-01T10:39:56.918Z</time></trkpt><trkpt lat="42.5773872" lon="12.7795965"><ele>390.0</ele><time>2026-05-01T10:39:57.918Z</time></trkpt><trkpt lat="42.5773325" lon="12.7798992"><ele>381.5</ele><time>2026-05-01T10:39:58.918Z</time></trkpt><trkpt lat="42.5772613" lon="12.7802233"><ele>373.0</ele><time>2026-05-01T10:39:59.918Z</time></trkpt><trkpt lat="42.5771901" lon="12.7805422"><ele>373.0</ele><time>2026-05-01T10:40:00.918Z</time></trkpt><trkpt lat="42.5771285" lon="12.780845"><ele>373.0</ele><time>2026-05-01T10:40:01.917Z</time></trkpt><trkpt lat="42.5770857" lon="12.7811102"><ele>373.0</ele><time>2026-05-01T10:40:02.917Z</time></trkpt><trkpt lat="42.5770552" lon="12.7813177"><ele>381.3333333333333</ele><time>2026-05-01T10:40:03.917Z</time></trkpt><trkpt lat="42.5770103" lon="12.7815077"><ele>389.66666666666663</ele><time>2026-05-01T10:40:04.918Z</time></trkpt><trkpt lat="42.5768995" lon="12.7816396"><ele>398.0</ele><time>2026-05-01T10:40:05.918Z</time></trkpt><trkpt lat="42.5766933" lon="12.7817171"><ele>398.0</ele><time>2026-05-01T10:40:06.918Z</time></trkpt><trkpt lat="42.5764845" lon="12.7818252"><ele>398.0</ele><time>2026-05-01T10:40:07.917Z</time></trkpt><trkpt lat="42.5762672" lon="12.7819647"><ele>394.5</ele><time>2026-05-01T10:40:08.918Z</time></trkpt><trkpt lat="42.5760401" lon="12.7821094"><ele>391.0</ele><time>2026-05-01T10:40:09.918Z</time></trkpt><trkpt lat="42.5758181" lon="12.7822676"><ele>391.0</ele><time>2026-05-01T10:40:10.918Z</time></trkpt><trkpt lat="42.5756179" lon="12.7824001"><ele>391.0</ele><time>2026-05-01T10:40:11.918Z</time></trkpt><trkpt lat="42.5754426" lon="12.7825126"><ele>391.0</ele><time>2026-05-01T10:40:12.918Z</time></trkpt><trkpt lat="42.5752862" lon="12.7825879"><ele>397.6666666666667</ele><time>2026-05-01T10:40:13.918Z</time></trkpt><trkpt lat="42.5751418" lon="12.7826189"><ele>404.33333333333337</ele><time>2026-05-01T10:40:14.918Z</time></trkpt><trkpt lat="42.5749769" lon="12.782621"><ele>411.0</ele><time>2026-05-01T10:40:15.917Z</time></trkpt><trkpt lat="42.5747534" lon="12.7825951"><ele>411.0</ele><time>2026-05-01T10:40:16.918Z</time></trkpt><trkpt lat="42.5745256" lon="12.782539"><ele>411.0</ele><time>2026-05-01T10:40:17.918Z</time></trkpt><trkpt lat="42.5742992" lon="12.7824683"><ele>406.0</ele><time>2026-05-01T10:40:18.918Z</time></trkpt><trkpt lat="42.5740851" lon="12.7823681"><ele>401.0</ele><time>2026-05-01T10:40:19.918Z</time></trkpt><trkpt lat="42.5738751" lon="12.7822756"><ele>396.0</ele><time>2026-05-01T10:40:20.918Z</time></trkpt><trkpt lat="42.5737027" lon="12.782165"><ele>394.0</ele><time>2026-05-01T10:40:21.918Z</time></trkpt><trkpt lat="42.5735531" lon="12.7820744"><ele>392.0</ele><time>2026-05-01T10:40:22.917Z</time></trkpt><trkpt lat="42.5734251" lon="12.7819605"><ele>390.0</ele><time>2026-05-01T10:40:23.917Z</time></trkpt><trkpt lat="42.5733118" lon="12.7818307"><ele>397.25</ele><time>2026-05-01T10:40:24.918Z</time></trkpt><trkpt lat="42.5732108" lon="12.7816902"><ele>404.5</ele><time>2026-05-01T10:40:25.918Z</time></trkpt><trkpt lat="42.5731193" lon="12.7815717"><ele>411.75</ele><time>2026-05-01T10:40:26.918Z</time></trkpt><trkpt lat="42.5730287" lon="12.7814771"><ele>419.0</ele><time>2026-05-01T10:40:27.917Z</time></trkpt><trkpt lat="42.5729142" lon="12.7814285"><ele>418.0</ele><time>2026-05-01T10:40:28.918Z</time></trkpt><trkpt lat="42.572788" lon="12.7814477"><ele>417.0</ele><time>2026-05-01T10:40:29.918Z</time></trkpt><trkpt lat="42.5726692" lon="12.7815083"><ele>416.0</ele><time>2026-05-01T10:40:30.918Z</time></trkpt><trkpt lat="42.5725664" lon="12.7815579"><ele>415.0</ele><time>2026-05-01T10:40:31.917Z</time></trkpt><trkpt lat="42.5724705" lon="12.7816064"><ele>415.0</ele><time>2026-05-01T10:40:32.918Z</time></trkpt><trkpt lat="42.5723732" lon="12.7816506"><ele>415.0</ele><time>2026-05-01T10:40:33.918Z</time></trkpt><trkpt lat="42.572259" lon="12.78165"><ele>415.0</ele><time>2026-05-01T10:40:34.918Z</time></trkpt><trkpt lat="42.5721335" lon="12.7815975"><ele>415.0</ele><time>2026-05-01T10:40:35.917Z</time></trkpt><trkpt lat="42.5719907" lon="12.7815244"><ele>412.33333333333337</ele><time>2026-05-01T10:40:36.918Z</time></trkpt><trkpt lat="42.5718426" lon="12.7814397"><ele>409.66666666666663</ele><time>2026-05-01T10:40:37.918Z</time></trkpt><trkpt lat="42.5716766" lon="12.7813142"><ele>407.0</ele><time>2026-05-01T10:40:38.918Z</time></trkpt><trkpt lat="42.5715065" lon="12.7811795"><ele>407.0</ele><time>2026-05-01T10:40:39.918Z</time></trkpt><trkpt lat="42.5713651" lon="12.7810549"><ele>407.0</ele><time>2026-05-01T10:40:40.917Z</time></trkpt><trkpt lat="42.5712376" lon="12.7809186"><ele>407.0</ele><time>2026-05-01T10:40:41.918Z</time></trkpt><trkpt lat="42.5711267" lon="12.7807389"><ele>413.66666666666663</ele><time>2026-05-01T10:40:42.918Z</time></trkpt><trkpt lat="42.5710516" lon="12.7805155"><ele>420.33333333333337</ele><time>2026-05-01T10:40:43.917Z</time></trkpt><trkpt lat="42.5709937" lon="12.7802884"><ele>427.0</ele><time>2026-05-01T10:40:44.918Z</time></trkpt><trkpt lat="42.5709512" lon="12.780131"><ele>427.0</ele><time>2026-05-01T10:40:45.918Z</time></trkpt><trkpt lat="42.5708799" lon="12.7800278"><ele>427.00000000000006</ele><time>2026-05-01T10:40:46.918Z</time></trkpt><trkpt lat="42.5708" lon="12.7799941"><ele>427.00000000000006</ele><time>2026-05-01T10:40:47.917Z</time></trkpt><trkpt lat="42.5707258" lon="12.7800369"><ele>427.0</ele><time>2026-05-01T10:40:48.918Z</time></trkpt><trkpt lat="42.5706621" lon="12.7801437"><ele>427.0</ele><time>2026-05-01T10:40:49.917Z</time></trkpt><trkpt lat="42.5705913" lon="12.7803104"><ele>427.0</ele><time>2026-05-01T10:40:50.918Z</time></trkpt><trkpt lat="42.5705036" lon="12.78052"><ele>427.0</ele><time>2026-05-01T10:40:51.918Z</time></trkpt><trkpt lat="42.570403" lon="12.7807087"><ele>427.0</ele><time>2026-05-01T10:40:52.918Z</time></trkpt><trkpt lat="42.5703112" lon="12.7808718"><ele>421.75</ele><time>2026-05-01T10:40:53.918Z</time></trkpt><trkpt lat="42.5702373" lon="12.780986"><ele>416.5</ele><time>2026-05-01T10:40:54.918Z</time></trkpt><trkpt lat="42.5701377" lon="12.7810736"><ele>411.25</ele><time>2026-05-01T10:40:55.917Z</time></trkpt><trkpt lat="42.5700024" lon="12.781111"><ele>406.0</ele><time>2026-05-01T10:40:56.917Z</time></trkpt><trkpt lat="42.5698226" lon="12.7811148"><ele>406.0</ele><time>2026-05-01T10:40:57.918Z</time></trkpt><trkpt lat="42.5696203" lon="12.7811014"><ele>406.0</ele><time>2026-05-01T10:40:58.918Z</time></trkpt><trkpt lat="42.5694037" lon="12.7810642"><ele>406.0</ele><time>2026-05-01T10:40:59.918Z</time></trkpt><trkpt lat="42.5692055" lon="12.7810119"><ele>415.0</ele><time>2026-05-01T10:41:00.918Z</time></trkpt><trkpt lat="42.5690134" lon="12.7809192"><ele>424.0</ele><time>2026-05-01T10:41:01.918Z</time></trkpt><trkpt lat="42.5688211" lon="12.7808159"><ele>433.0</ele><time>2026-05-01T10:41:02.917Z</time></trkpt><trkpt lat="42.5686211" lon="12.7806638"><ele>433.0</ele><time>2026-05-01T10:41:03.918Z</time></trkpt><trkpt lat="42.5684282" lon="12.7805064"><ele>433.0</ele><time>2026-05-01T10:41:04.918Z</time></trkpt><trkpt lat="42.5682536" lon="12.7803447"><ele>433.0</ele><time>2026-05-01T10:41:05.918Z</time></trkpt><trkpt lat="42.5680775" lon="12.7801577"><ele>438.0</ele><time>2026-05-01T10:41:06.918Z</time></trkpt><trkpt lat="42.5679218" lon="12.7799542"><ele>443.0</ele><time>2026-05-01T10:41:07.918Z</time></trkpt><trkpt lat="42.5677873" lon="12.7797826"><ele>448.0</ele><time>2026-05-01T10:41:08.917Z</time></trkpt><trkpt lat="42.5676588" lon="12.7796304"><ele>448.0</ele><time>2026-05-01T10:41:09.918Z</time></trkpt><trkpt lat="42.5675153" lon="12.7795265"><ele>448.0</ele><time>2026-05-01T10:41:10.917Z</time></trkpt><trkpt lat="42.5673584" lon="12.7794422"><ele>448.0</ele><time>2026-05-01T10:41:11.918Z</time></trkpt><trkpt lat="42.567198" lon="12.7793754"><ele>450.0</ele><time>2026-05-01T10:41:12.918Z</time></trkpt><trkpt lat="42.567024" lon="12.7792874"><ele>452.0</ele><time>2026-05-01T10:41:13.918Z</time></trkpt><trkpt lat="42.566856" lon="12.7791684"><ele>454.0</ele><time>2026-05-01T10:41:14.918Z</time></trkpt><trkpt lat="42.5667029" lon="12.7789926"><ele>454.0</ele><time>2026-05-01T10:41:15.918Z</time></trkpt><trkpt lat="42.5665913" lon="12.7788064"><ele>454.0</ele><time>2026-05-01T10:41:16.918Z</time></trkpt><trkpt lat="42.5665023" lon="12.7785634"><ele>454.0</ele><time>2026-05-01T10:41:17.918Z</time></trkpt><trkpt lat="42.5664162" lon="12.7783192"><ele>453.6666666666667</ele><time>2026-05-01T10:41:18.918Z</time></trkpt><trkpt lat="42.5663093" lon="12.7780875"><ele>453.33333333333337</ele><time>2026-05-01T10:41:19.917Z</time></trkpt><trkpt lat="42.5661529" lon="12.777909"><ele>453.0</ele><time>2026-05-01T10:41:20.918Z</time></trkpt><trkpt lat="42.5659549" lon="12.777758"><ele>470.0</ele><time>2026-05-01T10:41:21.918Z</time></trkpt><trkpt lat="42.5657338" lon="12.7776164"><ele>487.0</ele><time>2026-05-01T10:41:22.918Z</time></trkpt><trkpt lat="42.5654927" lon="12.7774515"><ele>480.5</ele><time>2026-05-01T10:41:23.918Z</time></trkpt><trkpt lat="42.5652615" lon="12.7772892"><ele>474.0</ele><time>2026-05-01T10:41:24.918Z</time></trkpt><trkpt lat="42.5650475" lon="12.7771424"><ele>474.0</ele><time>2026-05-01T10:41:25.918Z</time></trkpt><trkpt lat="42.5648506" lon="12.7770383"><ele>474.0</ele><time>2026-05-01T10:41:26.918Z</time></trkpt><trkpt lat="42.564634" lon="12.7769777"><ele>474.0</ele><time>2026-05-01T10:41:27.918Z</time></trkpt><trkpt lat="42.5644168" lon="12.776973"><ele>473.66666666666663</ele><time>2026-05-01T10:41:28.917Z</time></trkpt><trkpt lat="42.56422" lon="12.7770184"><ele>473.3333333333333</ele><time>2026-05-01T10:41:29.918Z</time></trkpt><trkpt lat="42.564055" lon="12.777061"><ele>473.0</ele><time>2026-05-01T10:41:30.918Z</time></trkpt><trkpt lat="42.563904" lon="12.7770975"><ele>473.0</ele><time>2026-05-01T10:41:31.917Z</time></trkpt><trkpt lat="42.5637572" lon="12.7770898"><ele>473.0</ele><time>2026-05-01T10:41:32.917Z</time></trkpt><trkpt lat="42.5635979" lon="12.7770075"><ele>473.0</ele><time>2026-05-01T10:41:33.918Z</time></trkpt><trkpt lat="42.5634251" lon="12.7768785"><ele>480.3333333333333</ele><time>2026-05-01T10:41:34.917Z</time></trkpt><trkpt lat="42.5632496" lon="12.7767334"><ele>487.66666666666663</ele><time>2026-05-01T10:41:35.918Z</time></trkpt><trkpt lat="42.5630701" lon="12.7765845"><ele>495.0</ele><time>2026-05-01T10:41:36.917Z</time></trkpt><trkpt lat="42.5628729" lon="12.7764911"><ele>492.66666666666663</ele><time>2026-05-01T10:41:37.917Z</time></trkpt><trkpt lat="42.5626623" lon="12.7764428"><ele>490.3333333333333</ele><time>2026-05-01T10:41:38.917Z</time></trkpt><trkpt lat="42.5624275" lon="12.7764115"><ele>488.0</ele><time>2026-05-01T10:41:39.918Z</time></trkpt><trkpt lat="42.5621915" lon="12.7763913"><ele>490.5</ele><time>2026-05-01T10:41:40.917Z</time></trkpt><trkpt lat="42.5619445" lon="12.7763499"><ele>493.0</ele><time>2026-05-01T10:41:41.918Z</time></trkpt><trkpt lat="42.5617265" lon="12.7763255"><ele>493.0</ele><time>2026-05-01T10:41:42.918Z</time></trkpt><trkpt lat="42.5615399" lon="12.7763104"><ele>493.0</ele><time>2026-05-01T10:41:43.918Z</time></trkpt><trkpt lat="42.561383" lon="12.7763441"><ele>493.0</ele><time>2026-05-01T10:41:44.918Z</time></trkpt><trkpt lat="42.5612345" lon="12.7764477"><ele>497.0</ele><time>2026-05-01T10:41:45.918Z</time></trkpt><trkpt lat="42.5610693" lon="12.7766008"><ele>501.0</ele><time>2026-05-01T10:41:46.918Z</time></trkpt><trkpt lat="42.560914" lon="12.7767702"><ele>505.0</ele><time>2026-05-01T10:41:47.918Z</time></trkpt><trkpt lat="42.5607723" lon="12.776921"><ele>505.4</ele><time>2026-05-01T10:41:48.918Z</time></trkpt><trkpt lat="42.5606556" lon="12.7770372"><ele>505.8</ele><time>2026-05-01T10:41:49.918Z</time></trkpt><trkpt lat="42.5605574" lon="12.7771138"><ele>506.20000000000005</ele><time>2026-05-01T10:41:50.918Z</time></trkpt><trkpt lat="42.5604655" lon="12.7771438"><ele>506.6</ele><time>2026-05-01T10:41:51.918Z</time></trkpt><trkpt lat="42.5603749" lon="12.777104"><ele>507.0</ele><time>2026-05-01T10:41:52.918Z</time></trkpt><trkpt lat="42.5602856" lon="12.7769758"><ele>510.0</ele><time>2026-05-01T10:41:53.918Z</time></trkpt><trkpt lat="42.5602039" lon="12.7767838"><ele>513.0</ele><time>2026-05-01T10:41:54.918Z</time></trkpt><trkpt lat="42.5601174" lon="12.7765603"><ele>516.0</ele><time>2026-05-01T10:41:55.918Z</time></trkpt><trkpt lat="42.5600364" lon="12.7763669"><ele>516.0</ele><time>2026-05-01T10:41:56.918Z</time></trkpt><trkpt lat="42.5599459" lon="12.776196"><ele>516.0</ele><time>2026-05-01T10:41:57.918Z</time></trkpt><trkpt lat="42.559833" lon="12.7760787"><ele>516.0</ele><time>2026-05-01T10:41:58.917Z</time></trkpt><trkpt lat="42.559697" lon="12.7760164"><ele>516.0</ele><time>2026-05-01T10:41:59.917Z</time></trkpt><trkpt lat="42.5595427" lon="12.7760075"><ele>515.0</ele><time>2026-05-01T10:42:00.918Z</time></trkpt><trkpt lat="42.559392" lon="12.7760475"><ele>514.0</ele><time>2026-05-01T10:42:01.917Z</time></trkpt><trkpt lat="42.5592412" lon="12.7761496"><ele>513.0</ele><time>2026-05-01T10:42:02.918Z</time></trkpt><trkpt lat="42.5590846" lon="12.7762767"><ele>513.0</ele><time>2026-05-01T10:42:03.918Z</time></trkpt><trkpt lat="42.5589251" lon="12.7764472"><ele>513.0</ele><time>2026-05-01T10:42:04.918Z</time></trkpt><trkpt lat="42.5587625" lon="12.7766461"><ele>513.0</ele><time>2026-05-01T10:42:05.917Z</time></trkpt><trkpt lat="42.5585959" lon="12.7768787"><ele>513.5</ele><time>2026-05-01T10:42:06.918Z</time></trkpt><trkpt lat="42.5584261" lon="12.7771269"><ele>514.0</ele><time>2026-05-01T10:42:07.918Z</time></trkpt><trkpt lat="42.5582455" lon="12.7773672"><ele>514.0</ele><time>2026-05-01T10:42:08.918Z</time></trkpt><trkpt lat="42.5580927" lon="12.7775728"><ele>514.0</ele><time>2026-05-01T10:42:09.918Z</time></trkpt><trkpt lat="42.557955" lon="12.7777369"><ele>514.0</ele><time>2026-05-01T10:42:10.917Z</time></trkpt><trkpt lat="42.5578267" lon="12.7778674"><ele>517.6666666666667</ele><time>2026-05-01T10:42:11.917Z</time></trkpt><trkpt lat="42.557687" lon="12.7779491"><ele>521.3333333333334</ele><time>2026-05-01T10:42:12.918Z</time></trkpt><trkpt lat="42.5575335" lon="12.7779499"><ele>525.0</ele><time>2026-05-01T10:42:13.918Z</time></trkpt><trkpt lat="42.5573454" lon="12.7778963"><ele>525.0</ele><time>2026-05-01T10:42:14.918Z</time></trkpt><trkpt lat="42.5571345" lon="12.77781"><ele>525.0</ele><time>2026-05-01T10:42:15.917Z</time></trkpt><trkpt lat="42.5569158" lon="12.7777104"><ele>515.0</ele><time>2026-05-01T10:42:16.918Z</time></trkpt><trkpt lat="42.5566818" lon="12.7776055"><ele>505.0</ele><time>2026-05-01T10:42:17.917Z</time></trkpt><trkpt lat="42.5564522" lon="12.7775161"><ele>505.0</ele><time>2026-05-01T10:42:18.918Z</time></trkpt><trkpt lat="42.5562532" lon="12.7774618"><ele>505.0</ele><time>2026-05-01T10:42:19.918Z</time></trkpt><trkpt lat="42.5560857" lon="12.7774247"><ele>505.0</ele><time>2026-05-01T10:42:20.917Z</time></trkpt><trkpt lat="42.5559285" lon="12.7774454"><ele>504.0</ele><time>2026-05-01T10:42:21.917Z</time></trkpt><trkpt lat="42.555774" lon="12.7775285"><ele>503.0</ele><time>2026-05-01T10:42:22.917Z</time></trkpt><trkpt lat="42.5556254" lon="12.7776778"><ele>502.0</ele><time>2026-05-01T10:42:23.918Z</time></trkpt><trkpt lat="42.5554901" lon="12.7778764"><ele>500.33333333333337</ele><time>2026-05-01T10:42:24.918Z</time></trkpt><trkpt lat="42.5553607" lon="12.7781043"><ele>498.66666666666663</ele><time>2026-05-01T10:42:25.917Z</time></trkpt><trkpt lat="42.5552533" lon="12.77835"><ele>497.0</ele><time>2026-05-01T10:42:26.918Z</time></trkpt><trkpt lat="42.5551675" lon="12.778566"><ele>501.25</ele><time>2026-05-01T10:42:27.918Z</time></trkpt><trkpt lat="42.5550908" lon="12.7787232"><ele>505.5</ele><time>2026-05-01T10:42:28.917Z</time></trkpt><trkpt lat="42.5549934" lon="12.7788391"><ele>509.75</ele><time>2026-05-01T10:42:29.918Z</time></trkpt><trkpt lat="42.5548661" lon="12.7789135"><ele>514.0</ele><time>2026-05-01T10:42:30.917Z</time></trkpt><trkpt lat="42.5547173" lon="12.7789011"><ele>514.0</ele><time>2026-05-01T10:42:31.918Z</time></trkpt><trkpt lat="42.5545448" lon="12.7787967"><ele>514.0</ele><time>2026-05-01T10:42:32.917Z</time></trkpt><trkpt lat="42.5543648" lon="12.7786459"><ele>514.0</ele><time>2026-05-01T10:42:33.918Z</time></trkpt><trkpt lat="42.5541576" lon="12.7784868"><ele>510.0</ele><time>2026-05-01T10:42:34.918Z</time></trkpt><trkpt lat="42.5539335" lon="12.7783228"><ele>506.0</ele><time>2026-05-01T10:42:35.918Z</time></trkpt><trkpt lat="42.553703" lon="12.7781466"><ele>506.0</ele><time>2026-05-01T10:42:36.918Z</time></trkpt><trkpt lat="42.5534823" lon="12.7779847"><ele>506.0</ele><time>2026-05-01T10:42:37.918Z</time></trkpt><trkpt lat="42.553265" lon="12.7778371"><ele>506.0</ele><time>2026-05-01T10:42:38.918Z</time></trkpt><trkpt lat="42.5530435" lon="12.7777121"><ele>506.0</ele><time>2026-05-01T10:42:39.918Z</time></trkpt><trkpt lat="42.5528019" lon="12.7776"><ele>503.5</ele><time>2026-05-01T10:42:40.918Z</time></trkpt><trkpt lat="42.552543" lon="12.7774979"><ele>501.0</ele><time>2026-05-01T10:42:41.918Z</time></trkpt><trkpt lat="42.5522948" lon="12.7774115"><ele>501.0</ele><time>2026-05-01T10:42:42.918Z</time></trkpt><trkpt lat="42.5520475" lon="12.7773332"><ele>501.0</ele><time>2026-05-01T10:42:43.918Z</time></trkpt><trkpt lat="42.5518186" lon="12.7772735"><ele>505.0</ele><time>2026-05-01T10:42:44.918Z</time></trkpt><trkpt lat="42.5516079" lon="12.7772059"><ele>509.0</ele><time>2026-05-01T10:42:45.918Z</time></trkpt><trkpt lat="42.55142" lon="12.7771115"><ele>513.0</ele><time>2026-05-01T10:42:46.918Z</time></trkpt><trkpt lat="42.5512598" lon="12.7769975"><ele>514.3333333333334</ele><time>2026-05-01T10:42:47.918Z</time></trkpt><trkpt lat="42.5511088" lon="12.7768829"><ele>515.6666666666667</ele><time>2026-05-01T10:42:48.918Z</time></trkpt><trkpt lat="42.5509543" lon="12.7767887"><ele>517.0</ele><time>2026-05-01T10:42:49.918Z</time></trkpt><trkpt lat="42.5507849" lon="12.7767306"><ele>516.0</ele><time>2026-05-01T10:42:50.918Z</time></trkpt><trkpt lat="42.5505976" lon="12.7767348"><ele>515.0</ele><time>2026-05-01T10:42:51.918Z</time></trkpt><trkpt lat="42.5503939" lon="12.7768108"><ele>514.0</ele><time>2026-05-01T10:42:52.918Z</time></trkpt><trkpt lat="42.5501785" lon="12.7768967"><ele>514.0</ele><time>2026-05-01T10:42:53.918Z</time></trkpt><trkpt lat="42.5499893" lon="12.7769759"><ele>514.0</ele><time>2026-05-01T10:42:54.918Z</time></trkpt><trkpt lat="42.5497978" lon="12.7770157"><ele>514.0</ele><time>2026-05-01T10:42:55.917Z</time></trkpt><trkpt lat="42.5496145" lon="12.7770062"><ele>513.6666666666667</ele><time>2026-05-01T10:42:56.918Z</time></trkpt><trkpt lat="42.5494376" lon="12.7769684"><ele>513.3333333333334</ele><time>2026-05-01T10:42:57.918Z</time></trkpt><trkpt lat="42.5492556" lon="12.7769186"><ele>513.0</ele><time>2026-05-01T10:42:58.918Z</time></trkpt><trkpt lat="42.5490639" lon="12.7768522"><ele>507.66666666666663</ele><time>2026-05-01T10:42:59.917Z</time></trkpt><trkpt lat="42.5488763" lon="12.7767669"><ele>502.3333333333333</ele><time>2026-05-01T10:43:00.918Z</time></trkpt><trkpt lat="42.5486776" lon="12.7766742"><ele>497.0</ele><time>2026-05-01T10:43:01.918Z</time></trkpt><trkpt lat="42.5484781" lon="12.7765762"><ele>497.0</ele><time>2026-05-01T10:43:02.918Z</time></trkpt><trkpt lat="42.5483079" lon="12.7764788"><ele>497.0</ele><time>2026-05-01T10:43:03.918Z</time></trkpt><trkpt lat="42.5481572" lon="12.7763664"><ele>497.0</ele><time>2026-05-01T10:43:04.918Z</time></trkpt><trkpt lat="42.54803" lon="12.7762425"><ele>497.0</ele><time>2026-05-01T10:43:05.918Z</time></trkpt><trkpt lat="42.5479269" lon="12.7760801"><ele>497.0</ele><time>2026-05-01T10:43:06.917Z</time></trkpt><trkpt lat="42.5478442" lon="12.7758835"><ele>497.0</ele><time>2026-05-01T10:43:07.917Z</time></trkpt><trkpt lat="42.547789" lon="12.7756602"><ele>499.0</ele><time>2026-05-01T10:43:08.918Z</time></trkpt><trkpt lat="42.5477438" lon="12.7754224"><ele>501.0</ele><time>2026-05-01T10:43:09.918Z</time></trkpt><trkpt lat="42.5476947" lon="12.775196"><ele>503.0</ele><time>2026-05-01T10:43:10.918Z</time></trkpt><trkpt lat="42.5476064" lon="12.775018"><ele>497.66666666666663</ele><time>2026-05-01T10:43:11.918Z</time></trkpt><trkpt lat="42.5474682" lon="12.7748756"><ele>492.33333333333337</ele><time>2026-05-01T10:43:12.917Z</time></trkpt><trkpt lat="42.5473081" lon="12.7747505"><ele>487.0</ele><time>2026-05-01T10:43:13.918Z</time></trkpt><trkpt lat="42.5471428" lon="12.7746732"><ele>487.0</ele><time>2026-05-01T10:43:14.917Z</time></trkpt><trkpt lat="42.5469459" lon="12.7746664"><ele>487.0</ele><time>2026-05-01T10:43:15.918Z</time></trkpt><trkpt lat="42.5467286" lon="12.7747419"><ele>487.0</ele><time>2026-05-01T10:43:16.918Z</time></trkpt><trkpt lat="42.5465184" lon="12.7748569"><ele>487.0</ele><time>2026-05-01T10:43:17.918Z</time></trkpt><trkpt lat="42.5463241" lon="12.7749793"><ele>487.0</ele><time>2026-05-01T10:43:18.918Z</time></trkpt><trkpt lat="42.54616" lon="12.775097"><ele>487.0</ele><time>2026-05-01T10:43:19.918Z</time></trkpt><trkpt lat="42.5459965" lon="12.7751776"><ele>484.33333333333337</ele><time>2026-05-01T10:43:20.918Z</time></trkpt><trkpt lat="42.5458354" lon="12.7752054"><ele>481.66666666666663</ele><time>2026-05-01T10:43:21.918Z</time></trkpt><trkpt lat="42.5456679" lon="12.7751511"><ele>479.0</ele><time>2026-05-01T10:43:22.918Z</time></trkpt><trkpt lat="42.545479" lon="12.7750173"><ele>481.0</ele><time>2026-05-01T10:43:23.918Z</time></trkpt><trkpt lat="42.5452922" lon="12.7748542"><ele>483.0</ele><time>2026-05-01T10:43:24.918Z</time></trkpt><trkpt lat="42.5451036" lon="12.7747126"><ele>485.0</ele><time>2026-05-01T10:43:25.917Z</time></trkpt><trkpt lat="42.5449483" lon="12.7745897"><ele>485.0</ele><time>2026-05-01T10:43:26.918Z</time></trkpt><trkpt lat="42.5447858" lon="12.7745035"><ele>485.0</ele><time>2026-05-01T10:43:27.918Z</time></trkpt><trkpt lat="42.5446389" lon="12.7744635"><ele>485.0</ele><time>2026-05-01T10:43:28.918Z</time></trkpt><trkpt lat="42.5444987" lon="12.7744844"><ele>480.0</ele><time>2026-05-01T10:43:29.918Z</time></trkpt><trkpt lat="42.5443626" lon="12.7745679"><ele>475.0</ele><time>2026-05-01T10:43:30.918Z</time></trkpt><trkpt lat="42.5442349" lon="12.7747257"><ele>470.0</ele><time>2026-05-01T10:43:31.918Z</time></trkpt><trkpt lat="42.5441038" lon="12.774932"><ele>470.0</ele><time>2026-05-01T10:43:32.918Z</time></trkpt><trkpt lat="42.5439649" lon="12.7751693"><ele>470.0</ele><time>2026-05-01T10:43:33.917Z</time></trkpt><trkpt lat="42.5438249" lon="12.7754179"><ele>470.3333333333333</ele><time>2026-05-01T10:43:34.917Z</time></trkpt><trkpt lat="42.5436918" lon="12.7756568"><ele>470.66666666666663</ele><time>2026-05-01T10:43:35.917Z</time></trkpt><trkpt lat="42.5435613" lon="12.7758872"><ele>471.0</ele><time>2026-05-01T10:43:36.918Z</time></trkpt><trkpt lat="42.5434319" lon="12.7761012"><ele>471.0</ele><time>2026-05-01T10:43:37.918Z</time></trkpt><trkpt lat="42.5432904" lon="12.7762972"><ele>471.0</ele><time>2026-05-01T10:43:38.917Z</time></trkpt><trkpt lat="42.543147" lon="12.7764663"><ele>471.0</ele><time>2026-05-01T10:43:39.918Z</time></trkpt><trkpt lat="42.5430121" lon="12.7765832"><ele>471.0</ele><time>2026-05-01T10:43:40.918Z</time></trkpt><trkpt lat="42.5428948" lon="12.7766985"><ele>471.0</ele><time>2026-05-01T10:43:41.917Z</time></trkpt><trkpt lat="42.542813" lon="12.7768558"><ele>471.0</ele><time>2026-05-01T10:43:42.918Z</time></trkpt><trkpt lat="42.5427653" lon="12.777058"><ele>471.0</ele><time>2026-05-01T10:43:43.917Z</time></trkpt><trkpt lat="42.542742" lon="12.7772924"><ele>465.33333333333337</ele><time>2026-05-01T10:43:44.918Z</time></trkpt><trkpt lat="42.5427296" lon="12.777543"><ele>459.6666666666667</ele><time>2026-05-01T10:43:45.918Z</time></trkpt><trkpt lat="42.542731" lon="12.7777961"><ele>454.0</ele><time>2026-05-01T10:43:46.918Z</time></trkpt><trkpt lat="42.5427133" lon="12.7780442"><ele>454.0</ele><time>2026-05-01T10:43:47.918Z</time></trkpt><trkpt lat="42.5426769" lon="12.7782851"><ele>454.0</ele><time>2026-05-01T10:43:48.918Z</time></trkpt><trkpt lat="42.542615" lon="12.7785193"><ele>454.0</ele><time>2026-05-01T10:43:49.917Z</time></trkpt><trkpt lat="42.5425116" lon="12.778735"><ele>457.0</ele><time>2026-05-01T10:43:50.918Z</time></trkpt><trkpt lat="42.5423941" lon="12.7789421"><ele>460.0</ele><time>2026-05-01T10:43:51.918Z</time></trkpt><trkpt lat="42.5422571" lon="12.7791077"><ele>463.0</ele><time>2026-05-01T10:43:52.918Z</time></trkpt><trkpt lat="42.5421136" lon="12.7792248"><ele>460.0</ele><time>2026-05-01T10:43:53.918Z</time></trkpt><trkpt lat="42.5419685" lon="12.7792923"><ele>457.0</ele><time>2026-05-01T10:43:54.918Z</time></trkpt><trkpt lat="42.5418155" lon="12.7793025"><ele>454.0</ele><time>2026-05-01T10:43:55.918Z</time></trkpt><trkpt lat="42.5416857" lon="12.7792655"><ele>451.0</ele><time>2026-05-01T10:43:56.917Z</time></trkpt><trkpt lat="42.5415402" lon="12.7791654"><ele>451.0</ele><time>2026-05-01T10:43:57.918Z</time></trkpt><trkpt lat="42.5413923" lon="12.7790197"><ele>451.0</ele><time>2026-05-01T10:43:58.918Z</time></trkpt><trkpt lat="42.5412477" lon="12.7788533"><ele>451.0</ele><time>2026-05-01T10:43:59.917Z</time></trkpt><trkpt lat="42.5411073" lon="12.7786979"><ele>451.6666666666667</ele><time>2026-05-01T10:44:00.918Z</time></trkpt><trkpt lat="42.5409425" lon="12.7785509"><ele>452.33333333333337</ele><time>2026-05-01T10:44:01.918Z</time></trkpt><trkpt lat="42.5407528" lon="12.7784255"><ele>453.0</ele><time>2026-05-01T10:44:02.918Z</time></trkpt><trkpt lat="42.5405513" lon="12.7783343"><ele>448.66666666666663</ele><time>2026-05-01T10:44:03.918Z</time></trkpt><trkpt lat="42.5403418" lon="12.7782631"><ele>444.3333333333333</ele><time>2026-05-01T10:44:04.918Z</time></trkpt><trkpt lat="42.5401366" lon="12.778223"><ele>440.0</ele><time>2026-05-01T10:44:05.918Z</time></trkpt><trkpt lat="42.5399431" lon="12.7782173"><ele>440.0</ele><time>2026-05-01T10:44:06.918Z</time></trkpt><trkpt lat="42.5397822" lon="12.7782582"><ele>440.0</ele><time>2026-05-01T10:44:07.917Z</time></trkpt><trkpt lat="42.5396226" lon="12.7783605"><ele>440.0</ele><time>2026-05-01T10:44:08.918Z</time></trkpt><trkpt lat="42.5394712" lon="12.7785112"><ele>437.3333333333333</ele><time>2026-05-01T10:44:09.917Z</time></trkpt><trkpt lat="42.5393368" lon="12.7786658"><ele>434.66666666666663</ele><time>2026-05-01T10:44:10.918Z</time></trkpt><trkpt lat="42.5391996" lon="12.7788057"><ele>432.0</ele><time>2026-05-01T10:44:11.918Z</time></trkpt><trkpt lat="42.539068" lon="12.7788991"><ele>432.0</ele><time>2026-05-01T10:44:12.918Z</time></trkpt><trkpt lat="42.5389309" lon="12.7789314"><ele>432.0</ele><time>2026-05-01T10:44:13.917Z</time></trkpt><trkpt lat="42.5387845" lon="12.7789188"><ele>432.0</ele><time>2026-05-01T10:44:14.918Z</time></trkpt><trkpt lat="42.5386308" lon="12.7788775"><ele>432.0</ele><time>2026-05-01T10:44:15.918Z</time></trkpt><trkpt lat="42.5384757" lon="12.7788161"><ele>432.25</ele><time>2026-05-01T10:44:16.918Z</time></trkpt><trkpt lat="42.5383528" lon="12.7787497"><ele>432.5</ele><time>2026-05-01T10:44:17.918Z</time></trkpt><trkpt lat="42.5382345" lon="12.7786779"><ele>432.75</ele><time>2026-05-01T10:44:18.917Z</time></trkpt><trkpt lat="42.538114" lon="12.7786086"><ele>433.0</ele><time>2026-05-01T10:44:19.917Z</time></trkpt><trkpt lat="42.5379845" lon="12.7785681"><ele>430.0</ele><time>2026-05-01T10:44:20.917Z</time></trkpt><trkpt lat="42.537839" lon="12.7785668"><ele>427.0</ele><time>2026-05-01T10:44:21.918Z</time></trkpt><trkpt lat="42.5376972" lon="12.7786003"><ele>424.0</ele><time>2026-05-01T10:44:22.918Z</time></trkpt><trkpt lat="42.5375699" lon="12.7786746"><ele>421.0</ele><time>2026-05-01T10:44:23.918Z</time></trkpt><trkpt lat="42.5374652" lon="12.778785"><ele>421.0</ele><time>2026-05-01T10:44:24.917Z</time></trkpt><trkpt lat="42.5373856" lon="12.7789193"><ele>421.0</ele><time>2026-05-01T10:44:25.917Z</time></trkpt><trkpt lat="42.5373469" lon="12.7790724"><ele>421.0</ele><time>2026-05-01T10:44:26.918Z</time></trkpt><trkpt lat="42.5373353" lon="12.779253"><ele>421.0</ele><time>2026-05-01T10:44:27.917Z</time></trkpt><trkpt lat="42.5373602" lon="12.7794466"><ele>419.75</ele><time>2026-05-01T10:44:28.918Z</time></trkpt><trkpt lat="42.5374248" lon="12.7796374"><ele>418.5</ele><time>2026-05-01T10:44:29.918Z</time></trkpt><trkpt lat="42.5375155" lon="12.7797994"><ele>417.25</ele><time>2026-05-01T10:44:30.918Z</time></trkpt><trkpt lat="42.5376096" lon="12.7799319"><ele>416.0</ele><time>2026-05-01T10:44:31.917Z</time></trkpt><trkpt lat="42.5377056" lon="12.7800458"><ele>416.0</ele><time>2026-05-01T10:44:32.917Z</time></trkpt><trkpt lat="42.537807" lon="12.7801484"><ele>416.0</ele><time>2026-05-01T10:44:33.918Z</time></trkpt><trkpt lat="42.5379033" lon="12.7802535"><ele>416.0</ele><time>2026-05-01T10:44:34.917Z</time></trkpt><trkpt lat="42.5379959" lon="12.7803686"><ele>416.0</ele><time>2026-05-01T10:44:35.917Z</time></trkpt><trkpt lat="42.5380806" lon="12.7804873"><ele>416.25</ele><time>2026-05-01T10:44:36.918Z</time></trkpt><trkpt lat="42.5381309" lon="12.7806222"><ele>416.5</ele><time>2026-05-01T10:44:37.917Z</time></trkpt><trkpt lat="42.5381537" lon="12.7807738"><ele>416.75</ele><time>2026-05-01T10:44:38.917Z</time></trkpt><trkpt lat="42.5381258" lon="12.780928"><ele>417.0</ele><time>2026-05-01T10:44:39.917Z</time></trkpt><trkpt lat="42.5380563" lon="12.7810742"><ele>422.0</ele><time>2026-05-01T10:44:40.917Z</time></trkpt><trkpt lat="42.5379482" lon="12.7811907"><ele>427.0</ele><time>2026-05-01T10:44:41.917Z</time></trkpt><trkpt lat="42.537804" lon="12.7812325"><ele>432.0</ele><time>2026-05-01T10:44:42.917Z</time></trkpt><trkpt lat="42.5376494" lon="12.78123"><ele>437.0</ele><time>2026-05-01T10:44:43.918Z</time></trkpt><trkpt lat="42.5374967" lon="12.7811757"><ele>437.0</ele><time>2026-05-01T10:44:44.917Z</time></trkpt><trkpt lat="42.5373602" lon="12.7811069"><ele>437.0</ele><time>2026-05-01T10:44:45.918Z</time></trkpt><trkpt lat="42.537237" lon="12.7810258"><ele>437.0</ele><time>2026-05-01T10:44:46.918Z</time></trkpt><trkpt lat="42.5371214" lon="12.7809453"><ele>437.0</ele><time>2026-05-01T10:44:47.918Z</time></trkpt><trkpt lat="42.5370184" lon="12.7808304"><ele>429.0</ele><time>2026-05-01T10:44:48.917Z</time></trkpt><trkpt lat="42.5369333" lon="12.7806734"><ele>421.0</ele><time>2026-05-01T10:44:49.918Z</time></trkpt><trkpt lat="42.5368654" lon="12.7804455"><ele>413.0</ele><time>2026-05-01T10:44:50.918Z</time></trkpt><trkpt lat="42.5368125" lon="12.7802002"><ele>410.3333333333333</ele><time>2026-05-01T10:44:51.918Z</time></trkpt><trkpt lat="42.5367615" lon="12.7799277"><ele>407.66666666666663</ele><time>2026-05-01T10:44:52.917Z</time></trkpt><trkpt lat="42.5367124" lon="12.7796784"><ele>405.0</ele><time>2026-05-01T10:44:53.918Z</time></trkpt><trkpt lat="42.5366521" lon="12.7794652"><ele>404.33333333333337</ele><time>2026-05-01T10:44:54.918Z</time></trkpt><trkpt lat="42.5365498" lon="12.7793004"><ele>403.6666666666667</ele><time>2026-05-01T10:44:55.918Z</time></trkpt><trkpt lat="42.536401" lon="12.7791572"><ele>403.0</ele><time>2026-05-01T10:44:56.918Z</time></trkpt><trkpt lat="42.5362217" lon="12.779025"><ele>398.0</ele><time>2026-05-01T10:44:57.918Z</time></trkpt><trkpt lat="42.5360205" lon="12.7788814"><ele>393.0</ele><time>2026-05-01T10:44:58.918Z</time></trkpt><trkpt lat="42.5358182" lon="12.7787321"><ele>393.0</ele><time>2026-05-01T10:44:59.918Z</time></trkpt><trkpt lat="42.5356327" lon="12.7785862"><ele>393.0</ele><time>2026-05-01T10:45:00.917Z</time></trkpt><trkpt lat="42.5354521" lon="12.7784549"><ele>393.0</ele><time>2026-05-01T10:45:01.917Z</time></trkpt><trkpt lat="42.5352828" lon="12.7783309"><ele>391.25</ele><time>2026-05-01T10:45:02.918Z</time></trkpt><trkpt lat="42.5351347" lon="12.7782135"><ele>389.5</ele><time>2026-05-01T10:45:03.918Z</time></trkpt><trkpt lat="42.5350167" lon="12.7781126"><ele>387.75</ele><time>2026-05-01T10:45:04.918Z</time></trkpt><trkpt lat="42.5349121" lon="12.778016"><ele>386.0</ele><time>2026-05-01T10:45:05.918Z</time></trkpt><trkpt lat="42.5348252" lon="12.7779291"><ele>385.99999999999994</ele><time>2026-05-01T10:45:06.918Z</time></trkpt><trkpt lat="42.5347609" lon="12.7778774"><ele>386.0</ele><time>2026-05-01T10:45:07.918Z</time></trkpt><trkpt lat="42.5346659" lon="12.777851"><ele>386.0</ele><time>2026-05-01T10:45:09.917Z</time></trkpt><trkpt lat="42.5346053" lon="12.7778884"><ele>386.0</ele><time>2026-05-01T10:45:14.918Z</time></trkpt><trkpt lat="42.5345513" lon="12.7779576"><ele>385.99999999999994</ele><time>2026-05-01T10:45:15.918Z</time></trkpt><trkpt lat="42.5345107" lon="12.7780654"><ele>386.0</ele><time>2026-05-01T10:45:16.918Z</time></trkpt><trkpt lat="42.5344858" lon="12.7782033"><ele>385.0</ele><time>2026-05-01T10:45:17.918Z</time></trkpt><trkpt lat="42.5344475" lon="12.7783861"><ele>384.0</ele><time>2026-05-01T10:45:18.918Z</time></trkpt><trkpt lat="42.5344055" lon="12.7785761"><ele>383.0</ele><time>2026-05-01T10:45:19.918Z</time></trkpt><trkpt lat="42.5343571" lon="12.7787962"><ele>383.0</ele><time>2026-05-01T10:45:20.918Z</time></trkpt><trkpt lat="42.5343061" lon="12.7790458"><ele>383.0</ele><time>2026-05-01T10:45:21.918Z</time></trkpt><trkpt lat="42.5342511" lon="12.7793196"><ele>383.0</ele><time>2026-05-01T10:45:22.918Z</time></trkpt><trkpt lat="42.534179" lon="12.7795949"><ele>384.0</ele><time>2026-05-01T10:45:23.917Z</time></trkpt><trkpt lat="42.534102" lon="12.7798708"><ele>385.0</ele><time>2026-05-01T10:45:24.917Z</time></trkpt><trkpt lat="42.5340177" lon="12.7801122"><ele>386.0</ele><time>2026-05-01T10:45:25.918Z</time></trkpt><trkpt lat="42.5339338" lon="12.7803492"><ele>388.3333333333333</ele><time>2026-05-01T10:45:26.917Z</time></trkpt><trkpt lat="42.533859" lon="12.7805676"><ele>390.66666666666663</ele><time>2026-05-01T10:45:27.918Z</time></trkpt><trkpt lat="42.5337954" lon="12.7807673"><ele>393.0</ele><time>2026-05-01T10:45:28.918Z</time></trkpt><trkpt lat="42.5337374" lon="12.7809496"><ele>391.0</ele><time>2026-05-01T10:45:29.917Z</time></trkpt><trkpt lat="42.5336891" lon="12.7811173"><ele>389.0</ele><time>2026-05-01T10:45:30.917Z</time></trkpt><trkpt lat="42.5336375" lon="12.781283"><ele>387.0</ele><time>2026-05-01T10:45:31.918Z</time></trkpt><trkpt lat="42.533588" lon="12.7814422"><ele>385.0</ele><time>2026-05-01T10:45:32.918Z</time></trkpt><trkpt lat="42.5335418" lon="12.7815999"><ele>385.0</ele><time>2026-05-01T10:45:33.918Z</time></trkpt><trkpt lat="42.53349" lon="12.7817516"><ele>385.0</ele><time>2026-05-01T10:45:34.918Z</time></trkpt><trkpt lat="42.5334244" lon="12.7818716"><ele>385.0</ele><time>2026-05-01T10:45:35.918Z</time></trkpt><trkpt lat="42.5333545" lon="12.7819768"><ele>385.0</ele><time>2026-05-01T10:45:36.917Z</time></trkpt><trkpt lat="42.5332649" lon="12.7820544"><ele>385.0</ele><time>2026-05-01T10:45:37.918Z</time></trkpt><trkpt lat="42.5331679" lon="12.7821174"><ele>385.25</ele><time>2026-05-01T10:45:38.918Z</time></trkpt><trkpt lat="42.533056" lon="12.7821498"><ele>385.5</ele><time>2026-05-01T10:45:39.918Z</time></trkpt><trkpt lat="42.53295" lon="12.7821723"><ele>385.75</ele><time>2026-05-01T10:45:40.918Z</time></trkpt><trkpt lat="42.5328336" lon="12.7821798"><ele>386.0</ele><time>2026-05-01T10:45:41.917Z</time></trkpt><trkpt lat="42.5327091" lon="12.7821855"><ele>385.5</ele><time>2026-05-01T10:45:42.918Z</time></trkpt><trkpt lat="42.5325912" lon="12.7821964"><ele>385.0</ele><time>2026-05-01T10:45:43.918Z</time></trkpt><trkpt lat="42.532461" lon="12.782194"><ele>384.5</ele><time>2026-05-01T10:45:44.918Z</time></trkpt><trkpt lat="42.5323346" lon="12.7821992"><ele>384.0</ele><time>2026-05-01T10:45:45.918Z</time></trkpt><trkpt lat="42.5322157" lon="12.7822082"><ele>384.0</ele><time>2026-05-01T10:45:46.918Z</time></trkpt><trkpt lat="42.532099" lon="12.7822129"><ele>384.0</ele><time>2026-05-01T10:45:47.918Z</time></trkpt><trkpt lat="42.5319887" lon="12.7822189"><ele>384.0</ele><time>2026-05-01T10:45:48.918Z</time></trkpt><trkpt lat="42.5318915" lon="12.7822274"><ele>384.0</ele><time>2026-05-01T10:45:49.918Z</time></trkpt><trkpt lat="42.5317995" lon="12.7822235"><ele>384.0</ele><time>2026-05-01T10:45:50.917Z</time></trkpt><trkpt lat="42.5317038" lon="12.7822041"><ele>384.4</ele><time>2026-05-01T10:45:51.918Z</time></trkpt><trkpt lat="42.5316113" lon="12.7821714"><ele>384.79999999999995</ele><time>2026-05-01T10:45:52.917Z</time></trkpt><trkpt lat="42.5315294" lon="12.7821066"><ele>385.20000000000005</ele><time>2026-05-01T10:45:53.917Z</time></trkpt><trkpt lat="42.5314643" lon="12.7820191"><ele>385.6</ele><time>2026-05-01T10:45:54.917Z</time></trkpt><trkpt lat="42.5314052" lon="12.7819024"><ele>386.0</ele><time>2026-05-01T10:45:55.917Z</time></trkpt><trkpt lat="42.5313463" lon="12.7817466"><ele>386.0</ele><time>2026-05-01T10:45:56.918Z</time></trkpt><trkpt lat="42.5312753" lon="12.7815307"><ele>386.0</ele><time>2026-05-01T10:45:57.918Z</time></trkpt><trkpt lat="42.5312097" lon="12.7812842"><ele>386.0</ele><time>2026-05-01T10:45:58.918Z</time></trkpt><trkpt lat="42.5311473" lon="12.7810186"><ele>390.5</ele><time>2026-05-01T10:45:59.918Z</time></trkpt><trkpt lat="42.53108" lon="12.7807274"><ele>395.0</ele><time>2026-05-01T10:46:00.918Z</time></trkpt><trkpt lat="42.5310149" lon="12.780413"><ele>395.0</ele><time>2026-05-01T10:46:01.918Z</time></trkpt><trkpt lat="42.5309429" lon="12.7801162"><ele>395.0</ele><time>2026-05-01T10:46:02.918Z</time></trkpt><trkpt lat="42.5308878" lon="12.7798507"><ele>395.0</ele><time>2026-05-01T10:46:03.918Z</time></trkpt><trkpt lat="42.5308468" lon="12.7796207"><ele>395.0</ele><time>2026-05-01T10:46:04.918Z</time></trkpt><trkpt lat="42.5307816" lon="12.7794273"><ele>395.0</ele><time>2026-05-01T10:46:05.917Z</time></trkpt><trkpt lat="42.5306731" lon="12.7792743"><ele>395.0</ele><time>2026-05-01T10:46:06.917Z</time></trkpt><trkpt lat="42.530524" lon="12.7791634"><ele>395.0</ele><time>2026-05-01T10:46:07.918Z</time></trkpt><trkpt lat="42.5303331" lon="12.7791029"><ele>395.0</ele><time>2026-05-01T10:46:08.918Z</time></trkpt><trkpt lat="42.5301167" lon="12.7790621"><ele>395.0</ele><time>2026-05-01T10:46:09.917Z</time></trkpt><trkpt lat="42.5298795" lon="12.7790276"><ele>395.0</ele><time>2026-05-01T10:46:10.918Z</time></trkpt><trkpt lat="42.5296348" lon="12.7789896"><ele>395.0</ele><time>2026-05-01T10:46:11.917Z</time></trkpt><trkpt lat="42.5293752" lon="12.7789501"><ele>394.0</ele><time>2026-05-01T10:46:12.918Z</time></trkpt><trkpt lat="42.5290952" lon="12.7788996"><ele>393.0</ele><time>2026-05-01T10:46:13.918Z</time></trkpt><trkpt lat="42.5288088" lon="12.7788461"><ele>393.0</ele><time>2026-05-01T10:46:14.918Z</time></trkpt><trkpt lat="42.5285107" lon="12.778789"><ele>393.0</ele><time>2026-05-01T10:46:15.918Z</time></trkpt><trkpt lat="42.5282154" lon="12.7787332"><ele>393.0</ele><time>2026-05-01T10:46:16.918Z</time></trkpt><trkpt lat="42.5279172" lon="12.7786798"><ele>393.0</ele><time>2026-05-01T10:46:17.918Z</time></trkpt><trkpt lat="42.5276225" lon="12.7786327"><ele>395.0</ele><time>2026-05-01T10:46:18.918Z</time></trkpt><trkpt lat="42.5273306" lon="12.7785819"><ele>397.0</ele><time>2026-05-01T10:46:19.917Z</time></trkpt><trkpt lat="42.5270278" lon="12.778525"><ele>392.0</ele><time>2026-05-01T10:46:20.917Z</time></trkpt><trkpt lat="42.5267415" lon="12.7784747"><ele>387.0</ele><time>2026-05-01T10:46:21.918Z</time></trkpt><trkpt lat="42.5264557" lon="12.7784198"><ele>387.0</ele><time>2026-05-01T10:46:22.918Z</time></trkpt><trkpt lat="42.5261858" lon="12.7783688"><ele>387.0</ele><time>2026-05-01T10:46:23.918Z</time></trkpt><trkpt lat="42.5259455" lon="12.7783177"><ele>387.0</ele><time>2026-05-01T10:46:24.918Z</time></trkpt><trkpt lat="42.5257309" lon="12.7782596"><ele>387.0</ele><time>2026-05-01T10:46:25.918Z</time></trkpt><trkpt lat="42.5255382" lon="12.7781729"><ele>387.0</ele><time>2026-05-01T10:46:26.917Z</time></trkpt><trkpt lat="42.5253536" lon="12.7780619"><ele>389.0</ele><time>2026-05-01T10:46:27.918Z</time></trkpt><trkpt lat="42.5251814" lon="12.7779481"><ele>391.0</ele><time>2026-05-01T10:46:28.918Z</time></trkpt><trkpt lat="42.5250055" lon="12.77785"><ele>393.0</ele><time>2026-05-01T10:46:29.918Z</time></trkpt><trkpt lat="42.5248043" lon="12.7778013"><ele>393.0</ele><time>2026-05-01T10:46:30.918Z</time></trkpt><trkpt lat="42.5245927" lon="12.7778082"><ele>393.0</ele><time>2026-05-01T10:46:31.917Z</time></trkpt><trkpt lat="42.5243598" lon="12.7778339"><ele>393.0</ele><time>2026-05-01T10:46:32.917Z</time></trkpt><trkpt lat="42.5241136" lon="12.7778542"><ele>392.0</ele><time>2026-05-01T10:46:33.917Z</time></trkpt><trkpt lat="42.5238544" lon="12.7778723"><ele>391.0</ele><time>2026-05-01T10:46:34.917Z</time></trkpt><trkpt lat="42.523592" lon="12.7778821"><ele>390.33333333333337</ele><time>2026-05-01T10:46:35.918Z</time></trkpt><trkpt lat="42.5233633" lon="12.7779047"><ele>389.66666666666663</ele><time>2026-05-01T10:46:36.918Z</time></trkpt><trkpt lat="42.5231734" lon="12.7779265"><ele>389.0</ele><time>2026-05-01T10:46:37.918Z</time></trkpt><trkpt lat="42.5230216" lon="12.7779758"><ele>387.3333333333333</ele><time>2026-05-01T10:46:38.918Z</time></trkpt><trkpt lat="42.5228744" lon="12.7780694"><ele>385.66666666666663</ele><time>2026-05-01T10:46:39.918Z</time></trkpt><trkpt lat="42.5227171" lon="12.7781925"><ele>384.0</ele><time>2026-05-01T10:46:40.918Z</time></trkpt><trkpt lat="42.5225582" lon="12.778342"><ele>384.0</ele><time>2026-05-01T10:46:41.918Z</time></trkpt><trkpt lat="42.52238" lon="12.7784888"><ele>384.0</ele><time>2026-05-01T10:46:42.918Z</time></trkpt><trkpt lat="42.5221963" lon="12.7786287"><ele>384.0</ele><time>2026-05-01T10:46:43.918Z</time></trkpt><trkpt lat="42.5220109" lon="12.7787755"><ele>385.0</ele><time>2026-05-01T10:46:44.918Z</time></trkpt><trkpt lat="42.5218248" lon="12.778924"><ele>386.0</ele><time>2026-05-01T10:46:45.917Z</time></trkpt><trkpt lat="42.5216467" lon="12.7790741"><ele>387.0</ele><time>2026-05-01T10:46:46.918Z</time></trkpt><trkpt lat="42.5214694" lon="12.779223"><ele>386.0</ele><time>2026-05-01T10:46:47.918Z</time></trkpt><trkpt lat="42.5213082" lon="12.7793745"><ele>385.0</ele><time>2026-05-01T10:46:48.918Z</time></trkpt><trkpt lat="42.5211609" lon="12.7795154"><ele>384.0</ele><time>2026-05-01T10:46:49.917Z</time></trkpt><trkpt lat="42.5210241" lon="12.7796425"><ele>384.0</ele><time>2026-05-01T10:46:50.918Z</time></trkpt><trkpt lat="42.5208855" lon="12.7797553"><ele>384.0</ele><time>2026-05-01T10:46:51.918Z</time></trkpt><trkpt lat="42.5207533" lon="12.7798656"><ele>384.0</ele><time>2026-05-01T10:46:52.918Z</time></trkpt><trkpt lat="42.520619" lon="12.7799738"><ele>384.0</ele><time>2026-05-01T10:46:53.917Z</time></trkpt><trkpt lat="42.520485" lon="12.7800763"><ele>384.0</ele><time>2026-05-01T10:46:54.918Z</time></trkpt><trkpt lat="42.5203542" lon="12.7801748"><ele>384.0</ele><time>2026-05-01T10:46:55.918Z</time></trkpt><trkpt lat="42.5202186" lon="12.7802654"><ele>383.75</ele><time>2026-05-01T10:46:56.918Z</time></trkpt><trkpt lat="42.5200822" lon="12.7803464"><ele>383.5</ele><time>2026-05-01T10:46:57.917Z</time></trkpt><trkpt lat="42.5199483" lon="12.7804266"><ele>383.25</ele><time>2026-05-01T10:46:58.918Z</time></trkpt><trkpt lat="42.5198133" lon="12.7804958"><ele>383.0</ele><time>2026-05-01T10:46:59.918Z</time></trkpt><trkpt lat="42.5196871" lon="12.7805607"><ele>383.0</ele><time>2026-05-01T10:47:00.918Z</time></trkpt><trkpt lat="42.5195697" lon="12.7806176"><ele>383.0</ele><time>2026-05-01T10:47:01.918Z</time></trkpt><trkpt lat="42.5194603" lon="12.7806782"><ele>383.0</ele><time>2026-05-01T10:47:02.917Z</time></trkpt><trkpt lat="42.5193571" lon="12.7807267"><ele>383.0</ele><time>2026-05-01T10:47:03.917Z</time></trkpt><trkpt lat="42.519259" lon="12.7807741"><ele>382.83333333333337</ele><time>2026-05-01T10:47:04.918Z</time></trkpt><trkpt lat="42.5191701" lon="12.7808067"><ele>382.6666666666667</ele><time>2026-05-01T10:47:05.918Z</time></trkpt><trkpt lat="42.5191027" lon="12.7808229"><ele>382.5</ele><time>2026-05-01T10:47:06.918Z</time></trkpt><trkpt lat="42.5190126" lon="12.7808465"><ele>382.3333333333333</ele><time>2026-05-01T10:47:08.918Z</time></trkpt><trkpt lat="42.5189626" lon="12.7809106"><ele>382.16666666666663</ele><time>2026-05-01T10:47:10.918Z</time></trkpt><trkpt lat="42.5190033" lon="12.7810528"><ele>382.0</ele><time>2026-05-01T10:47:13.918Z</time></trkpt><trkpt lat="42.5190665" lon="12.7811894"><ele>385.0</ele><time>2026-05-01T10:47:14.918Z</time></trkpt><trkpt lat="42.5191338" lon="12.7813391"><ele>388.0</ele><time>2026-05-01T10:47:15.918Z</time></trkpt><trkpt lat="42.5192007" lon="12.7814968"><ele>391.0</ele><time>2026-05-01T10:47:16.918Z</time></trkpt><trkpt lat="42.5192798" lon="12.7816714"><ele>394.0</ele><time>2026-05-01T10:47:17.918Z</time></trkpt><trkpt lat="42.5193597" lon="12.781858"><ele>394.5</ele><time>2026-05-01T10:47:18.918Z</time></trkpt><trkpt lat="42.5194431" lon="12.7820459"><ele>395.0</ele><time>2026-05-01T10:47:19.918Z</time></trkpt><trkpt lat="42.5195136" lon="12.7822187"><ele>395.5</ele><time>2026-05-01T10:47:20.918Z</time></trkpt><trkpt lat="42.5195847" lon="12.7823498"><ele>396.0</ele><time>2026-05-01T10:47:21.918Z</time></trkpt><trkpt lat="42.5196853" lon="12.782423"><ele>396.0</ele><time>2026-05-01T10:47:22.918Z</time></trkpt><trkpt lat="42.5198092" lon="12.7824157"><ele>396.0</ele><time>2026-05-01T10:47:23.917Z</time></trkpt><trkpt lat="42.5199267" lon="12.7823567"><ele>396.0</ele><time>2026-05-01T10:47:24.917Z</time></trkpt><trkpt lat="42.5200502" lon="12.7822603"><ele>396.0</ele><time>2026-05-01T10:47:25.917Z</time></trkpt><trkpt lat="42.5201626" lon="12.78218"><ele>396.0</ele><time>2026-05-01T10:47:26.918Z</time></trkpt><trkpt lat="42.5202572" lon="12.7821319"><ele>396.0</ele><time>2026-05-01T10:47:27.918Z</time></trkpt><trkpt lat="42.5203699" lon="12.7821347"><ele>396.0</ele><time>2026-05-01T10:47:28.918Z</time></trkpt><trkpt lat="42.5204659" lon="12.782205"><ele>396.0</ele><time>2026-05-01T10:47:29.917Z</time></trkpt><trkpt lat="42.5205618" lon="12.7823565"><ele>397.5</ele><time>2026-05-01T10:47:30.918Z</time></trkpt><trkpt lat="42.5206488" lon="12.7825263"><ele>399.0</ele><time>2026-05-01T10:47:31.918Z</time></trkpt><trkpt lat="42.5207283" lon="12.7826739"><ele>400.5</ele><time>2026-05-01T10:47:32.918Z</time></trkpt><trkpt lat="42.5208099" lon="12.7827906"><ele>402.0</ele><time>2026-05-01T10:47:33.917Z</time></trkpt><trkpt lat="42.5209118" lon="12.7828908"><ele>405.0</ele><time>2026-05-01T10:47:34.917Z</time></trkpt><trkpt lat="42.5210727" lon="12.7828923"><ele>408.0</ele><time>2026-05-01T10:47:35.918Z</time></trkpt><trkpt lat="42.5212394" lon="12.7828654"><ele>411.0</ele><time>2026-05-01T10:47:36.918Z</time></trkpt><trkpt lat="42.5213904" lon="12.7828217"><ele>411.0</ele><time>2026-05-01T10:47:37.918Z</time></trkpt><trkpt lat="42.5215029" lon="12.7827299"><ele>411.0</ele><time>2026-05-01T10:47:38.918Z</time></trkpt><trkpt lat="42.5215817" lon="12.7825799"><ele>411.0</ele><time>2026-05-01T10:47:39.918Z</time></trkpt><trkpt lat="42.5216297" lon="12.7823752"><ele>411.0</ele><time>2026-05-01T10:47:40.918Z</time></trkpt><trkpt lat="42.5216557" lon="12.7821609"><ele>410.33333333333337</ele><time>2026-05-01T10:47:41.918Z</time></trkpt><trkpt lat="42.5216484" lon="12.7819312"><ele>409.6666666666667</ele><time>2026-05-01T10:47:42.918Z</time></trkpt><trkpt lat="42.5216155" lon="12.7816829"><ele>409.0</ele><time>2026-05-01T10:47:43.918Z</time></trkpt><trkpt lat="42.5215969" lon="12.7814373"><ele>409.0</ele><time>2026-05-01T10:47:44.918Z</time></trkpt><trkpt lat="42.521611" lon="12.7811968"><ele>409.0</ele><time>2026-05-01T10:47:45.918Z</time></trkpt><trkpt lat="42.5216239" lon="12.780958"><ele>409.0</ele><time>2026-05-01T10:47:46.918Z</time></trkpt><trkpt lat="42.5216433" lon="12.7807373"><ele>408.5</ele><time>2026-05-01T10:47:47.918Z</time></trkpt><trkpt lat="42.5216766" lon="12.7805577"><ele>408.0</ele><time>2026-05-01T10:47:48.918Z</time></trkpt><trkpt lat="42.5217375" lon="12.7804096"><ele>407.5</ele><time>2026-05-01T10:47:49.918Z</time></trkpt><trkpt lat="42.521839" lon="12.78032"><ele>407.0</ele><time>2026-05-01T10:47:50.917Z</time></trkpt><trkpt lat="42.521968" lon="12.780267"><ele>411.66666666666663</ele><time>2026-05-01T10:47:51.918Z</time></trkpt><trkpt lat="42.5221035" lon="12.7802673"><ele>416.33333333333337</ele><time>2026-05-01T10:47:52.918Z</time></trkpt><trkpt lat="42.522254" lon="12.7803195"><ele>421.0</ele><time>2026-05-01T10:47:53.917Z</time></trkpt><trkpt lat="42.5224124" lon="12.7804204"><ele>421.0</ele><time>2026-05-01T10:47:54.918Z</time></trkpt><trkpt lat="42.5225662" lon="12.7805613"><ele>421.0</ele><time>2026-05-01T10:47:55.917Z</time></trkpt><trkpt lat="42.5227245" lon="12.7806746"><ele>421.0</ele><time>2026-05-01T10:47:56.918Z</time></trkpt><trkpt lat="42.5228667" lon="12.7807219"><ele>425.6666666666667</ele><time>2026-05-01T10:47:57.918Z</time></trkpt><trkpt lat="42.5229973" lon="12.7806601"><ele>430.33333333333337</ele><time>2026-05-01T10:47:58.917Z</time></trkpt><trkpt lat="42.5231221" lon="12.7805277"><ele>435.0</ele><time>2026-05-01T10:47:59.918Z</time></trkpt><trkpt lat="42.5232533" lon="12.7803667"><ele>435.0</ele><time>2026-05-01T10:48:00.918Z</time></trkpt><trkpt lat="42.523386" lon="12.7802212"><ele>435.0</ele><time>2026-05-01T10:48:01.918Z</time></trkpt><trkpt lat="42.5235266" lon="12.7801436"><ele>435.0</ele><time>2026-05-01T10:48:02.918Z</time></trkpt><trkpt lat="42.523669" lon="12.7801301"><ele>437.66666666666663</ele><time>2026-05-01T10:48:03.917Z</time></trkpt><trkpt lat="42.523821" lon="12.7801766"><ele>440.3333333333333</ele><time>2026-05-01T10:48:04.918Z</time></trkpt><trkpt lat="42.5239907" lon="12.7802352"><ele>443.0</ele><time>2026-05-01T10:48:05.918Z</time></trkpt><trkpt lat="42.5241736" lon="12.7802516"><ele>443.0</ele><time>2026-05-01T10:48:06.918Z</time></trkpt><trkpt lat="42.5243679" lon="12.780222"><ele>443.0</ele><time>2026-05-01T10:48:07.917Z</time></trkpt><trkpt lat="42.5245378" lon="12.7801997"><ele>443.0</ele><time>2026-05-01T10:48:08.918Z</time></trkpt><trkpt lat="42.5246719" lon="12.780183"><ele>442.25</ele><time>2026-05-01T10:48:09.918Z</time></trkpt><trkpt lat="42.5247652" lon="12.7801848"><ele>441.5</ele><time>2026-05-01T10:48:10.918Z</time></trkpt><trkpt lat="42.5248446" lon="12.7802839"><ele>440.75</ele><time>2026-05-01T10:48:11.918Z</time></trkpt><trkpt lat="42.5249294" lon="12.7803986"><ele>440.0</ele><time>2026-05-01T10:48:12.917Z</time></trkpt><trkpt lat="42.5250189" lon="12.7805756"><ele>440.0</ele><time>2026-05-01T10:48:13.917Z</time></trkpt><trkpt lat="42.5251126" lon="12.7807828"><ele>440.0</ele><time>2026-05-01T10:48:14.917Z</time></trkpt><trkpt lat="42.5252195" lon="12.78098"><ele>440.0</ele><time>2026-05-01T10:48:15.918Z</time></trkpt><trkpt lat="42.5253343" lon="12.781135"><ele>446.66666666666663</ele><time>2026-05-01T10:48:16.918Z</time></trkpt><trkpt lat="42.5254709" lon="12.7812388"><ele>453.33333333333337</ele><time>2026-05-01T10:48:17.917Z</time></trkpt><trkpt lat="42.5256236" lon="12.7812555"><ele>460.0</ele><time>2026-05-01T10:48:18.917Z</time></trkpt><trkpt lat="42.5257974" lon="12.781228"><ele>460.0</ele><time>2026-05-01T10:48:19.917Z</time></trkpt><trkpt lat="42.5259695" lon="12.7811587"><ele>460.0</ele><time>2026-05-01T10:48:20.917Z</time></trkpt><trkpt lat="42.5261237" lon="12.7810759"><ele>460.0</ele><time>2026-05-01T10:48:21.918Z</time></trkpt><trkpt lat="42.5262475" lon="12.7810319"><ele>459.75</ele><time>2026-05-01T10:48:22.918Z</time></trkpt><trkpt lat="42.5263562" lon="12.7810781"><ele>459.5</ele><time>2026-05-01T10:48:23.918Z</time></trkpt><trkpt lat="42.5264572" lon="12.7812086"><ele>459.25</ele><time>2026-05-01T10:48:24.918Z</time></trkpt><trkpt lat="42.5266005" lon="12.7813512"><ele>459.0</ele><time>2026-05-01T10:48:25.918Z</time></trkpt><trkpt lat="42.5267749" lon="12.7814662"><ele>459.0</ele><time>2026-05-01T10:48:26.917Z</time></trkpt><trkpt lat="42.5269819" lon="12.7815361"><ele>459.0</ele><time>2026-05-01T10:48:27.918Z</time></trkpt><trkpt lat="42.5272044" lon="12.7815614"><ele>459.0</ele><time>2026-05-01T10:48:28.918Z</time></trkpt><trkpt lat="42.5274174" lon="12.7815811"><ele>456.66666666666663</ele><time>2026-05-01T10:48:29.918Z</time></trkpt><trkpt lat="42.5276298" lon="12.7816002"><ele>454.3333333333333</ele><time>2026-05-01T10:48:30.918Z</time></trkpt><trkpt lat="42.5278541" lon="12.7816945"><ele>452.0</ele><time>2026-05-01T10:48:31.918Z</time></trkpt><trkpt lat="42.5280656" lon="12.7818253"><ele>453.3333333333333</ele><time>2026-05-01T10:48:32.918Z</time></trkpt><trkpt lat="42.5282518" lon="12.7819413"><ele>454.66666666666663</ele><time>2026-05-01T10:48:33.917Z</time></trkpt><trkpt lat="42.528394" lon="12.7820617"><ele>456.0</ele><time>2026-05-01T10:48:34.918Z</time></trkpt><trkpt lat="42.5285058" lon="12.7821317"><ele>456.0</ele><time>2026-05-01T10:48:35.918Z</time></trkpt><trkpt lat="42.528585" lon="12.7821971"><ele>456.0</ele><time>2026-05-01T10:48:36.917Z</time></trkpt><trkpt lat="42.5286104" lon="12.7823003"><ele>456.0</ele><time>2026-05-01T10:48:37.918Z</time></trkpt><trkpt lat="42.5285642" lon="12.7824006"><ele>456.0</ele><time>2026-05-01T10:48:38.918Z</time></trkpt><trkpt lat="42.5284643" lon="12.7824621"><ele>456.0</ele><time>2026-05-01T10:48:39.917Z</time></trkpt><trkpt lat="42.5283164" lon="12.7825118"><ele>456.0</ele><time>2026-05-01T10:48:40.918Z</time></trkpt><trkpt lat="42.5281278" lon="12.7825428"><ele>456.0</ele><time>2026-05-01T10:48:41.918Z</time></trkpt><trkpt lat="42.5279254" lon="12.7825878"><ele>456.0</ele><time>2026-05-01T10:48:42.918Z</time></trkpt><trkpt lat="42.5277028" lon="12.7826349"><ele>460.0</ele><time>2026-05-01T10:48:43.918Z</time></trkpt><trkpt lat="42.5274625" lon="12.78271"><ele>464.0</ele><time>2026-05-01T10:48:44.917Z</time></trkpt><trkpt lat="42.5272207" lon="12.7828222"><ele>473.0</ele><time>2026-05-01T10:48:45.918Z</time></trkpt><trkpt lat="42.5270013" lon="12.7829502"><ele>482.0</ele><time>2026-05-01T10:48:46.918Z</time></trkpt><trkpt lat="42.5268036" lon="12.7830897"><ele>482.0</ele><time>2026-05-01T10:48:47.917Z</time></trkpt><trkpt lat="42.5266314" lon="12.7832209"><ele>482.0</ele><time>2026-05-01T10:48:48.917Z</time></trkpt><trkpt lat="42.5265007" lon="12.7833562"><ele>482.0</ele><time>2026-05-01T10:48:49.917Z</time></trkpt><trkpt lat="42.5264023" lon="12.7835099"><ele>482.5</ele><time>2026-05-01T10:48:50.918Z</time></trkpt><trkpt lat="42.5263266" lon="12.7837"><ele>483.0</ele><time>2026-05-01T10:48:51.918Z</time></trkpt><trkpt lat="42.5263062" lon="12.7838921"><ele>483.5</ele><time>2026-05-01T10:48:52.918Z</time></trkpt><trkpt lat="42.5263225" lon="12.7840776"><ele>484.0</ele><time>2026-05-01T10:48:53.917Z</time></trkpt><trkpt lat="42.5263836" lon="12.7842019"><ele>484.0</ele><time>2026-05-01T10:48:54.918Z</time></trkpt><trkpt lat="42.5264968" lon="12.7842836"><ele>484.0</ele><time>2026-05-01T10:48:55.918Z</time></trkpt><trkpt lat="42.5266546" lon="12.7843073"><ele>484.0</ele><time>2026-05-01T10:48:56.918Z</time></trkpt><trkpt lat="42.5268528" lon="12.7843308"><ele>487.0</ele><time>2026-05-01T10:48:57.918Z</time></trkpt><trkpt lat="42.5270438" lon="12.7843743"><ele>490.0</ele><time>2026-05-01T10:48:58.917Z</time></trkpt><trkpt lat="42.5272524" lon="12.7844336"><ele>493.0</ele><time>2026-05-01T10:48:59.918Z</time></trkpt><trkpt lat="42.5274677" lon="12.7845012"><ele>493.0</ele><time>2026-05-01T10:49:00.918Z</time></trkpt><trkpt lat="42.5276876" lon="12.7845589"><ele>493.0</ele><time>2026-05-01T10:49:01.918Z</time></trkpt><trkpt lat="42.5278865" lon="12.784625"><ele>493.0</ele><time>2026-05-01T10:49:02.918Z</time></trkpt><trkpt lat="42.5280457" lon="12.7847129"><ele>490.0</ele><time>2026-05-01T10:49:03.918Z</time></trkpt><trkpt lat="42.5281711" lon="12.7847846"><ele>487.0</ele><time>2026-05-01T10:49:04.918Z</time></trkpt><trkpt lat="42.5282542" lon="12.7848734"><ele>484.0</ele><time>2026-05-01T10:49:05.918Z</time></trkpt><trkpt lat="42.5282781" lon="12.7849975"><ele>481.0</ele><time>2026-05-01T10:49:06.918Z</time></trkpt><trkpt lat="42.5282307" lon="12.7851546"><ele>480.6666666666667</ele><time>2026-05-01T10:49:07.918Z</time></trkpt><trkpt lat="42.528142" lon="12.7853398"><ele>480.33333333333337</ele><time>2026-05-01T10:49:08.917Z</time></trkpt><trkpt lat="42.5280659" lon="12.7855289"><ele>480.0</ele><time>2026-05-01T10:49:09.918Z</time></trkpt><trkpt lat="42.5280508" lon="12.785751"><ele>480.0</ele><time>2026-05-01T10:49:10.918Z</time></trkpt><trkpt lat="42.5280742" lon="12.7859859"><ele>480.0</ele><time>2026-05-01T10:49:11.918Z</time></trkpt><trkpt lat="42.5280843" lon="12.7862169"><ele>480.0</ele><time>2026-05-01T10:49:12.918Z</time></trkpt><trkpt lat="42.5280649" lon="12.7864598"><ele>478.33333333333337</ele><time>2026-05-01T10:49:13.917Z</time></trkpt><trkpt lat="42.5280117" lon="12.786721"><ele>476.6666666666667</ele><time>2026-05-01T10:49:14.918Z</time></trkpt><trkpt lat="42.5279593" lon="12.7869964"><ele>475.0</ele><time>2026-05-01T10:49:15.918Z</time></trkpt><trkpt lat="42.5279127" lon="12.7872319"><ele>483.0</ele><time>2026-05-01T10:49:16.917Z</time></trkpt><trkpt lat="42.527857" lon="12.7874134"><ele>491.0</ele><time>2026-05-01T10:49:17.918Z</time></trkpt><trkpt lat="42.5277805" lon="12.7875422"><ele>499.0</ele><time>2026-05-01T10:49:18.918Z</time></trkpt><trkpt lat="42.5276898" lon="12.7876158"><ele>507.0</ele><time>2026-05-01T10:49:19.917Z</time></trkpt><trkpt lat="42.5275614" lon="12.7876651"><ele>504.75</ele><time>2026-05-01T10:49:20.918Z</time></trkpt><trkpt lat="42.5274303" lon="12.7877219"><ele>502.5</ele><time>2026-05-01T10:49:21.917Z</time></trkpt><trkpt lat="42.5273294" lon="12.7878204"><ele>500.25</ele><time>2026-05-01T10:49:22.917Z</time></trkpt><trkpt lat="42.527294" lon="12.7880044"><ele>498.0</ele><time>2026-05-01T10:49:23.918Z</time></trkpt><trkpt lat="42.5272951" lon="12.7882401"><ele>498.0</ele><time>2026-05-01T10:49:24.917Z</time></trkpt><trkpt lat="42.5273046" lon="12.7884575"><ele>498.0</ele><time>2026-05-01T10:49:25.918Z</time></trkpt><trkpt lat="42.5273241" lon="12.7886647"><ele>498.0</ele><time>2026-05-01T10:49:26.918Z</time></trkpt><trkpt lat="42.5273179" lon="12.7888527"><ele>495.0</ele><time>2026-05-01T10:49:27.918Z</time></trkpt><trkpt lat="42.5272504" lon="12.7890389"><ele>492.0</ele><time>2026-05-01T10:49:28.918Z</time></trkpt><trkpt lat="42.5271482" lon="12.7892359"><ele>489.0</ele><time>2026-05-01T10:49:29.918Z</time></trkpt><trkpt lat="42.5269903" lon="12.7894296"><ele>495.0</ele><time>2026-05-01T10:49:30.917Z</time></trkpt><trkpt lat="42.5268064" lon="12.7896127"><ele>501.0</ele><time>2026-05-01T10:49:31.918Z</time></trkpt><trkpt lat="42.5266365" lon="12.7897927"><ele>507.0</ele><time>2026-05-01T10:49:32.918Z</time></trkpt><trkpt lat="42.5264879" lon="12.7899516"><ele>507.0</ele><time>2026-05-01T10:49:33.918Z</time></trkpt><trkpt lat="42.5263507" lon="12.7901393"><ele>507.0</ele><time>2026-05-01T10:49:34.918Z</time></trkpt><trkpt lat="42.5262318" lon="12.790376"><ele>507.0</ele><time>2026-05-01T10:49:35.918Z</time></trkpt><trkpt lat="42.5261289" lon="12.7906416"><ele>512.5</ele><time>2026-05-01T10:49:36.918Z</time></trkpt><trkpt lat="42.526022" lon="12.7909323"><ele>518.0</ele><time>2026-05-01T10:49:37.917Z</time></trkpt><trkpt lat="42.5258903" lon="12.7912319"><ele>518.0</ele><time>2026-05-01T10:49:38.918Z</time></trkpt><trkpt lat="42.5257406" lon="12.7915468"><ele>518.0</ele><time>2026-05-01T10:49:39.918Z</time></trkpt><trkpt lat="42.5255774" lon="12.7918604"><ele>509.5</ele><time>2026-05-01T10:49:40.918Z</time></trkpt><trkpt lat="42.5254059" lon="12.7921901"><ele>501.0</ele><time>2026-05-01T10:49:41.918Z</time></trkpt><trkpt lat="42.5252399" lon="12.7924993"><ele>511.0</ele><time>2026-05-01T10:49:42.917Z</time></trkpt><trkpt lat="42.5250878" lon="12.7927782"><ele>521.0</ele><time>2026-05-01T10:49:43.918Z</time></trkpt><trkpt lat="42.5249357" lon="12.7930442"><ele>521.0</ele><time>2026-05-01T10:49:44.917Z</time></trkpt><trkpt lat="42.5247844" lon="12.7932944"><ele>521.0</ele><time>2026-05-01T10:49:45.918Z</time></trkpt><trkpt lat="42.5246428" lon="12.7935448"><ele>529.3333333333333</ele><time>2026-05-01T10:49:46.917Z</time></trkpt><trkpt lat="42.5245147" lon="12.7937772"><ele>537.6666666666666</ele><time>2026-05-01T10:49:47.917Z</time></trkpt><trkpt lat="42.5244098" lon="12.793962"><ele>546.0</ele><time>2026-05-01T10:49:48.918Z</time></trkpt><trkpt lat="42.5243284" lon="12.7941289"><ele>546.0</ele><time>2026-05-01T10:49:49.918Z</time></trkpt><trkpt lat="42.5242711" lon="12.7942491"><ele>546.0</ele><time>2026-05-01T10:49:50.918Z</time></trkpt><trkpt lat="42.5242534" lon="12.7943918"><ele>546.0</ele><time>2026-05-01T10:49:51.918Z</time></trkpt><trkpt lat="42.5242815" lon="12.7945522"><ele>546.0</ele><time>2026-05-01T10:49:52.917Z</time></trkpt><trkpt lat="42.5243648" lon="12.7947334"><ele>545.6666666666666</ele><time>2026-05-01T10:49:53.918Z</time></trkpt><trkpt lat="42.5244672" lon="12.7949298"><ele>545.3333333333333</ele><time>2026-05-01T10:49:54.918Z</time></trkpt><trkpt lat="42.5245619" lon="12.7951526"><ele>545.0</ele><time>2026-05-01T10:49:55.918Z</time></trkpt><trkpt lat="42.5246356" lon="12.7953681"><ele>546.25</ele><time>2026-05-01T10:49:56.917Z</time></trkpt><trkpt lat="42.5246644" lon="12.795545"><ele>547.5</ele><time>2026-05-01T10:49:57.918Z</time></trkpt><trkpt lat="42.5246621" lon="12.7956966"><ele>548.75</ele><time>2026-05-01T10:49:58.918Z</time></trkpt><trkpt lat="42.5246158" lon="12.7958326"><ele>550.0</ele><time>2026-05-01T10:49:59.918Z</time></trkpt><trkpt lat="42.5245151" lon="12.7959597"><ele>544.0</ele><time>2026-05-01T10:50:00.917Z</time></trkpt><trkpt lat="42.5243799" lon="12.7960954"><ele>538.0</ele><time>2026-05-01T10:50:01.917Z</time></trkpt><trkpt lat="42.5242347" lon="12.7962412"><ele>532.0</ele><time>2026-05-01T10:50:02.918Z</time></trkpt><trkpt lat="42.5240754" lon="12.796386"><ele>532.0</ele><time>2026-05-01T10:50:03.917Z</time></trkpt><trkpt lat="42.5239206" lon="12.7965243"><ele>532.0</ele><time>2026-05-01T10:50:04.918Z</time></trkpt><trkpt lat="42.5237836" lon="12.7966203"><ele>532.0</ele><time>2026-05-01T10:50:05.918Z</time></trkpt><trkpt lat="42.5236602" lon="12.7967166"><ele>536.75</ele><time>2026-05-01T10:50:06.918Z</time></trkpt><trkpt lat="42.5235577" lon="12.7967781"><ele>541.5</ele><time>2026-05-01T10:50:07.918Z</time></trkpt><trkpt lat="42.5234473" lon="12.7967902"><ele>546.25</ele><time>2026-05-01T10:50:08.918Z</time></trkpt><trkpt lat="42.5233021" lon="12.7967356"><ele>551.0</ele><time>2026-05-01T10:50:09.918Z</time></trkpt><trkpt lat="42.5231462" lon="12.7966676"><ele>551.0</ele><time>2026-05-01T10:50:10.917Z</time></trkpt><trkpt lat="42.5229845" lon="12.796604"><ele>551.0</ele><time>2026-05-01T10:50:11.918Z</time></trkpt><trkpt lat="42.5228488" lon="12.7966059"><ele>551.0</ele><time>2026-05-01T10:50:12.917Z</time></trkpt><trkpt lat="42.5227347" lon="12.7966992"><ele>551.0</ele><time>2026-05-01T10:50:13.918Z</time></trkpt><trkpt lat="42.5226064" lon="12.7968601"><ele>550.3333333333333</ele><time>2026-05-01T10:50:14.918Z</time></trkpt><trkpt lat="42.5224732" lon="12.7970313"><ele>549.6666666666666</ele><time>2026-05-01T10:50:15.918Z</time></trkpt><trkpt lat="42.5223424" lon="12.7972016"><ele>549.0</ele><time>2026-05-01T10:50:16.918Z</time></trkpt><trkpt lat="42.5222339" lon="12.7973667"><ele>549.0</ele><time>2026-05-01T10:50:17.918Z</time></trkpt><trkpt lat="42.522158" lon="12.7975241"><ele>549.0</ele><time>2026-05-01T10:50:18.918Z</time></trkpt><trkpt lat="42.5221235" lon="12.7977227"><ele>549.0</ele><time>2026-05-01T10:50:19.917Z</time></trkpt><trkpt lat="42.5221298" lon="12.7979284"><ele>549.0</ele><time>2026-05-01T10:50:20.918Z</time></trkpt><trkpt lat="42.5221437" lon="12.7981503"><ele>549.0</ele><time>2026-05-01T10:50:21.918Z</time></trkpt><trkpt lat="42.5221401" lon="12.7983693"><ele>549.0</ele><time>2026-05-01T10:50:22.917Z</time></trkpt><trkpt lat="42.5221266" lon="12.7985936"><ele>549.0</ele><time>2026-05-01T10:50:23.918Z</time></trkpt><trkpt lat="42.5220971" lon="12.7988333"><ele>556.3333333333334</ele><time>2026-05-01T10:50:24.918Z</time></trkpt><trkpt lat="42.5220515" lon="12.7990905"><ele>563.6666666666667</ele><time>2026-05-01T10:50:25.918Z</time></trkpt><trkpt lat="42.5220064" lon="12.7993472"><ele>571.0</ele><time>2026-05-01T10:50:26.918Z</time></trkpt><trkpt lat="42.5219558" lon="12.7995676"><ele>572.75</ele><time>2026-05-01T10:50:27.918Z</time></trkpt><trkpt lat="42.5219203" lon="12.7997406"><ele>574.5</ele><time>2026-05-01T10:50:28.918Z</time></trkpt><trkpt lat="42.5219058" lon="12.7999175"><ele>576.25</ele><time>2026-05-01T10:50:29.918Z</time></trkpt><trkpt lat="42.5219112" lon="12.8000876"><ele>578.0</ele><time>2026-05-01T10:50:30.918Z</time></trkpt><trkpt lat="42.5219405" lon="12.8002642"><ele>580.6666666666666</ele><time>2026-05-01T10:50:31.918Z</time></trkpt><trkpt lat="42.5219959" lon="12.8004439"><ele>583.3333333333334</ele><time>2026-05-01T10:50:32.918Z</time></trkpt><trkpt lat="42.5220964" lon="12.8006435"><ele>586.0</ele><time>2026-05-01T10:50:33.918Z</time></trkpt><trkpt lat="42.5222324" lon="12.8008677"><ele>583.6666666666667</ele><time>2026-05-01T10:50:34.918Z</time></trkpt><trkpt lat="42.5223818" lon="12.8010882"><ele>581.3333333333334</ele><time>2026-05-01T10:50:35.918Z</time></trkpt><trkpt lat="42.5225308" lon="12.8013098"><ele>579.0</ele><time>2026-05-01T10:50:36.918Z</time></trkpt><trkpt lat="42.522661" lon="12.8015112"><ele>579.0</ele><time>2026-05-01T10:50:37.918Z</time></trkpt><trkpt lat="42.5227666" lon="12.8017344"><ele>579.0</ele><time>2026-05-01T10:50:38.918Z</time></trkpt><trkpt lat="42.5228374" lon="12.8019795"><ele>579.0</ele><time>2026-05-01T10:50:39.917Z</time></trkpt><trkpt lat="42.5228931" lon="12.8022605"><ele>575.6666666666666</ele><time>2026-05-01T10:50:40.918Z</time></trkpt><trkpt lat="42.522941" lon="12.8025458"><ele>572.3333333333333</ele><time>2026-05-01T10:50:41.918Z</time></trkpt><trkpt lat="42.5229835" lon="12.8028359"><ele>569.0</ele><time>2026-05-01T10:50:42.918Z</time></trkpt><trkpt lat="42.5230003" lon="12.8031158"><ele>569.0</ele><time>2026-05-01T10:50:43.918Z</time></trkpt><trkpt lat="42.5230127" lon="12.8033553"><ele>569.0</ele><time>2026-05-01T10:50:44.918Z</time></trkpt><trkpt lat="42.5230462" lon="12.8035725"><ele>569.0</ele><time>2026-05-01T10:50:45.917Z</time></trkpt><trkpt lat="42.5230875" lon="12.8037896"><ele>572.0</ele><time>2026-05-01T10:50:46.918Z</time></trkpt><trkpt lat="42.5231574" lon="12.8040005"><ele>575.0</ele><time>2026-05-01T10:50:47.917Z</time></trkpt><trkpt lat="42.5232347" lon="12.8042131"><ele>578.0</ele><time>2026-05-01T10:50:48.917Z</time></trkpt><trkpt lat="42.5233128" lon="12.8044217"><ele>580.0</ele><time>2026-05-01T10:50:49.918Z</time></trkpt><trkpt lat="42.5233797" lon="12.8046111"><ele>582.0</ele><time>2026-05-01T10:50:50.918Z</time></trkpt><trkpt lat="42.5234642" lon="12.8047642"><ele>584.0</ele><time>2026-05-01T10:50:51.918Z</time></trkpt><trkpt lat="42.5235532" lon="12.8049176"><ele>586.0</ele><time>2026-05-01T10:50:52.917Z</time></trkpt><trkpt lat="42.5236432" lon="12.8050228"><ele>586.0</ele><time>2026-05-01T10:50:53.917Z</time></trkpt><trkpt lat="42.5237206" lon="12.8051089"><ele>586.0</ele><time>2026-05-01T10:50:54.918Z</time></trkpt><trkpt lat="42.5237651" lon="12.8051905"><ele>586.0</ele><time>2026-05-01T10:50:55.918Z</time></trkpt><trkpt lat="42.5237378" lon="12.8053593"><ele>586.0</ele><time>2026-05-01T10:50:57.918Z</time></trkpt><trkpt lat="42.523681" lon="12.8054639"><ele>586.0</ele><time>2026-05-01T10:50:58.918Z</time></trkpt><trkpt lat="42.5235845" lon="12.8055939"><ele>586.3333333333334</ele><time>2026-05-01T10:50:59.918Z</time></trkpt><trkpt lat="42.5234645" lon="12.8057355"><ele>586.6666666666666</ele><time>2026-05-01T10:51:00.917Z</time></trkpt><trkpt lat="42.5233391" lon="12.8058894"><ele>587.0</ele><time>2026-05-01T10:51:01.917Z</time></trkpt><trkpt lat="42.523202" lon="12.8060598"><ele>584.6666666666666</ele><time>2026-05-01T10:51:02.917Z</time></trkpt><trkpt lat="42.5230689" lon="12.8062342"><ele>582.3333333333334</ele><time>2026-05-01T10:51:03.918Z</time></trkpt><trkpt lat="42.5229307" lon="12.8064245"><ele>580.0</ele><time>2026-05-01T10:51:04.918Z</time></trkpt><trkpt lat="42.5227829" lon="12.8066115"><ele>580.6666666666667</ele><time>2026-05-01T10:51:05.918Z</time></trkpt><trkpt lat="42.5226245" lon="12.8067812"><ele>581.3333333333334</ele><time>2026-05-01T10:51:06.918Z</time></trkpt><trkpt lat="42.5224507" lon="12.8069442"><ele>582.0</ele><time>2026-05-01T10:51:07.917Z</time></trkpt><trkpt lat="42.5222613" lon="12.8070815"><ele>582.0</ele><time>2026-05-01T10:51:08.918Z</time></trkpt><trkpt lat="42.5220789" lon="12.807215"><ele>582.0</ele><time>2026-05-01T10:51:09.918Z</time></trkpt><trkpt lat="42.521918" lon="12.8073263"><ele>582.0</ele><time>2026-05-01T10:51:10.918Z</time></trkpt><trkpt lat="42.5217851" lon="12.8074518"><ele>589.6666666666666</ele><time>2026-05-01T10:51:11.917Z</time></trkpt><trkpt lat="42.5216738" lon="12.8076082"><ele>597.3333333333333</ele><time>2026-05-01T10:51:12.918Z</time></trkpt><trkpt lat="42.5215999" lon="12.8077951"><ele>605.0</ele><time>2026-05-01T10:51:13.918Z</time></trkpt><trkpt lat="42.521583" lon="12.8079752"><ele>605.25</ele><time>2026-05-01T10:51:14.918Z</time></trkpt><trkpt lat="42.5216123" lon="12.8081623"><ele>605.5</ele><time>2026-05-01T10:51:15.918Z</time></trkpt><trkpt lat="42.5216971" lon="12.8083199"><ele>605.75</ele><time>2026-05-01T10:51:16.918Z</time></trkpt><trkpt lat="42.5218056" lon="12.8084523"><ele>606.0</ele><time>2026-05-01T10:51:17.918Z</time></trkpt><trkpt lat="42.5219239" lon="12.8085711"><ele>608.5</ele><time>2026-05-01T10:51:18.918Z</time></trkpt><trkpt lat="42.5220183" lon="12.8086822"><ele>611.0</ele><time>2026-05-01T10:51:19.918Z</time></trkpt><trkpt lat="42.5220895" lon="12.8088059"><ele>613.5</ele><time>2026-05-01T10:51:20.917Z</time></trkpt><trkpt lat="42.5221232" lon="12.8089404"><ele>616.0</ele><time>2026-05-01T10:51:21.917Z</time></trkpt><trkpt lat="42.5221134" lon="12.8091116"><ele>613.25</ele><time>2026-05-01T10:51:22.918Z</time></trkpt><trkpt lat="42.5220863" lon="12.8093255"><ele>610.5</ele><time>2026-05-01T10:51:23.918Z</time></trkpt><trkpt lat="42.5220531" lon="12.8095268"><ele>607.75</ele><time>2026-05-01T10:51:24.917Z</time></trkpt><trkpt lat="42.5220213" lon="12.8096957"><ele>605.0</ele><time>2026-05-01T10:51:25.918Z</time></trkpt><trkpt lat="42.5219747" lon="12.8098192"><ele>605.0</ele><time>2026-05-01T10:51:26.918Z</time></trkpt><trkpt lat="42.5218903" lon="12.8099065"><ele>605.0</ele><time>2026-05-01T10:51:27.917Z</time></trkpt><trkpt lat="42.521767" lon="12.8099397"><ele>605.0</ele><time>2026-05-01T10:51:28.918Z</time></trkpt><trkpt lat="42.521608" lon="12.8099491"><ele>605.0</ele><time>2026-05-01T10:51:29.918Z</time></trkpt><trkpt lat="42.5214344" lon="12.8099518"><ele>605.0</ele><time>2026-05-01T10:51:30.918Z</time></trkpt><trkpt lat="42.5212411" lon="12.8099397"><ele>605.0</ele><time>2026-05-01T10:51:31.918Z</time></trkpt><trkpt lat="42.5210567" lon="12.8099233"><ele>605.0</ele><time>2026-05-01T10:51:32.918Z</time></trkpt><trkpt lat="42.5208918" lon="12.8098955"><ele>607.75</ele><time>2026-05-01T10:51:33.918Z</time></trkpt><trkpt lat="42.5207505" lon="12.809871"><ele>610.5</ele><time>2026-05-01T10:51:34.918Z</time></trkpt><trkpt lat="42.5206356" lon="12.8098632"><ele>613.25</ele><time>2026-05-01T10:51:35.918Z</time></trkpt><trkpt lat="42.5205395" lon="12.8098807"><ele>616.0</ele><time>2026-05-01T10:51:36.918Z</time></trkpt><trkpt lat="42.5204575" lon="12.8099635"><ele>616.0</ele><time>2026-05-01T10:51:37.917Z</time></trkpt><trkpt lat="42.5204105" lon="12.8100949"><ele>616.0</ele><time>2026-05-01T10:51:38.918Z</time></trkpt><trkpt lat="42.5204007" lon="12.8102613"><ele>616.0</ele><time>2026-05-01T10:51:39.918Z</time></trkpt><trkpt lat="42.5204139" lon="12.8104666"><ele>616.0</ele><time>2026-05-01T10:51:40.918Z</time></trkpt><trkpt lat="42.5204594" lon="12.8106711"><ele>614.75</ele><time>2026-05-01T10:51:41.918Z</time></trkpt><trkpt lat="42.520512" lon="12.8108695"><ele>613.5</ele><time>2026-05-01T10:51:42.918Z</time></trkpt><trkpt lat="42.5205367" lon="12.811039"><ele>612.25</ele><time>2026-05-01T10:51:43.917Z</time></trkpt><trkpt lat="42.5205349" lon="12.8111914"><ele>611.0</ele><time>2026-05-01T10:51:44.918Z</time></trkpt><trkpt lat="42.5204771" lon="12.8113374"><ele>616.0</ele><time>2026-05-01T10:51:45.917Z</time></trkpt><trkpt lat="42.5203742" lon="12.8114892"><ele>621.0</ele><time>2026-05-01T10:51:46.917Z</time></trkpt><trkpt lat="42.5202639" lon="12.811657"><ele>626.0</ele><time>2026-05-01T10:51:47.918Z</time></trkpt><trkpt lat="42.5201411" lon="12.8117969"><ele>623.3333333333333</ele><time>2026-05-01T10:51:48.917Z</time></trkpt><trkpt lat="42.5200005" lon="12.8119325"><ele>620.6666666666666</ele><time>2026-05-01T10:51:49.918Z</time></trkpt><trkpt lat="42.5198655" lon="12.8120765"><ele>618.0</ele><time>2026-05-01T10:51:50.918Z</time></trkpt><trkpt lat="42.5197343" lon="12.8121963"><ele>618.0</ele><time>2026-05-01T10:51:51.917Z</time></trkpt><trkpt lat="42.5195749" lon="12.8122993"><ele>618.0</ele><time>2026-05-01T10:51:52.918Z</time></trkpt><trkpt lat="42.5194195" lon="12.8123599"><ele>618.0</ele><time>2026-05-01T10:51:53.917Z</time></trkpt><trkpt lat="42.5192576" lon="12.8124127"><ele>621.3333333333334</ele><time>2026-05-01T10:51:54.917Z</time></trkpt><trkpt lat="42.5191151" lon="12.8124723"><ele>624.6666666666667</ele><time>2026-05-01T10:51:55.918Z</time></trkpt><trkpt lat="42.5189701" lon="12.8125306"><ele>628.0</ele><time>2026-05-01T10:51:56.918Z</time></trkpt><trkpt lat="42.5188288" lon="12.8126097"><ele>627.3333333333334</ele><time>2026-05-01T10:51:57.918Z</time></trkpt><trkpt lat="42.5187055" lon="12.8127281"><ele>626.6666666666666</ele><time>2026-05-01T10:51:58.918Z</time></trkpt><trkpt lat="42.5185977" lon="12.8128812"><ele>626.0</ele><time>2026-05-01T10:51:59.918Z</time></trkpt><trkpt lat="42.5185073" lon="12.8130551"><ele>626.0</ele><time>2026-05-01T10:52:00.918Z</time></trkpt><trkpt lat="42.5184535" lon="12.8132848"><ele>626.0</ele><time>2026-05-01T10:52:01.918Z</time></trkpt><trkpt lat="42.5184249" lon="12.813544"><ele>626.0</ele><time>2026-05-01T10:52:02.917Z</time></trkpt><trkpt lat="42.5184015" lon="12.8138082"><ele>627.3333333333333</ele><time>2026-05-01T10:52:03.918Z</time></trkpt><trkpt lat="42.5183881" lon="12.8140871"><ele>628.6666666666666</ele><time>2026-05-01T10:52:04.918Z</time></trkpt><trkpt lat="42.5183767" lon="12.8143858"><ele>630.0</ele><time>2026-05-01T10:52:05.918Z</time></trkpt><trkpt lat="42.5183598" lon="12.814703"><ele>631.5</ele><time>2026-05-01T10:52:06.918Z</time></trkpt><trkpt lat="42.5183504" lon="12.8150196"><ele>633.0</ele><time>2026-05-01T10:52:07.918Z</time></trkpt><trkpt lat="42.5183387" lon="12.8153228"><ele>633.3333333333334</ele><time>2026-05-01T10:52:08.918Z</time></trkpt><trkpt lat="42.518341" lon="12.8156013"><ele>633.6666666666667</ele><time>2026-05-01T10:52:09.917Z</time></trkpt><trkpt lat="42.5183711" lon="12.8158859"><ele>634.0</ele><time>2026-05-01T10:52:10.917Z</time></trkpt><trkpt lat="42.5184295" lon="12.8161734"><ele>634.3333333333334</ele><time>2026-05-01T10:52:11.917Z</time></trkpt><trkpt lat="42.518503" lon="12.8164551"><ele>634.6666666666666</ele><time>2026-05-01T10:52:12.917Z</time></trkpt><trkpt lat="42.5185742" lon="12.8167422"><ele>635.0</ele><time>2026-05-01T10:52:13.918Z</time></trkpt><trkpt lat="42.5186327" lon="12.8170034"><ele>636.0</ele><time>2026-05-01T10:52:14.918Z</time></trkpt><trkpt lat="42.5186741" lon="12.8172396"><ele>637.0</ele><time>2026-05-01T10:52:15.917Z</time></trkpt><trkpt lat="42.5186973" lon="12.8174669"><ele>638.0</ele><time>2026-05-01T10:52:16.917Z</time></trkpt><trkpt lat="42.5186887" lon="12.8177208"><ele>638.0</ele><time>2026-05-01T10:52:17.918Z</time></trkpt><trkpt lat="42.5186534" lon="12.8179911"><ele>638.0</ele><time>2026-05-01T10:52:18.918Z</time></trkpt><trkpt lat="42.5186288" lon="12.8182624"><ele>638.0</ele><time>2026-05-01T10:52:19.917Z</time></trkpt><trkpt lat="42.5186286" lon="12.8185127"><ele>637.3333333333333</ele><time>2026-05-01T10:52:20.917Z</time></trkpt><trkpt lat="42.5186422" lon="12.8187316"><ele>636.6666666666666</ele><time>2026-05-01T10:52:21.917Z</time></trkpt><trkpt lat="42.5186774" lon="12.8189243"><ele>636.0</ele><time>2026-05-01T10:52:22.918Z</time></trkpt><trkpt lat="42.5187574" lon="12.8190999"><ele>640.6666666666666</ele><time>2026-05-01T10:52:23.918Z</time></trkpt><trkpt lat="42.5188684" lon="12.8192602"><ele>645.3333333333333</ele><time>2026-05-01T10:52:24.918Z</time></trkpt><trkpt lat="42.5190076" lon="12.8193971"><ele>650.0</ele><time>2026-05-01T10:52:25.918Z</time></trkpt><trkpt lat="42.5191764" lon="12.8195063"><ele>650.0</ele><time>2026-05-01T10:52:26.917Z</time></trkpt><trkpt lat="42.519374" lon="12.8196016"><ele>650.0</ele><time>2026-05-01T10:52:27.918Z</time></trkpt><trkpt lat="42.5195659" lon="12.8196895"><ele>650.0</ele><time>2026-05-01T10:52:28.917Z</time></trkpt><trkpt lat="42.5197454" lon="12.8197676"><ele>658.3333333333333</ele><time>2026-05-01T10:52:29.918Z</time></trkpt><trkpt lat="42.5199048" lon="12.8198611"><ele>666.6666666666666</ele><time>2026-05-01T10:52:30.918Z</time></trkpt><trkpt lat="42.5200541" lon="12.8199929"><ele>675.0</ele><time>2026-05-01T10:52:31.918Z</time></trkpt><trkpt lat="42.5201629" lon="12.8201497"><ele>676.2</ele><time>2026-05-01T10:52:32.918Z</time></trkpt><trkpt lat="42.520251" lon="12.8202764"><ele>677.4</ele><time>2026-05-01T10:52:33.918Z</time></trkpt><trkpt lat="42.520318" lon="12.8203873"><ele>678.5999999999999</ele><time>2026-05-01T10:52:34.917Z</time></trkpt><trkpt lat="42.5203384" lon="12.8204971"><ele>679.8</ele><time>2026-05-01T10:52:35.918Z</time></trkpt><trkpt lat="42.5203167" lon="12.8206029"><ele>681.0</ele><time>2026-05-01T10:52:36.917Z</time></trkpt><trkpt lat="42.5202585" lon="12.8206901"><ele>681.0</ele><time>2026-05-01T10:52:37.918Z</time></trkpt><trkpt lat="42.5201718" lon="12.820723"><ele>681.0</ele><time>2026-05-01T10:52:38.917Z</time></trkpt><trkpt lat="42.5200479" lon="12.820718"><ele>681.0</ele><time>2026-05-01T10:52:39.918Z</time></trkpt><trkpt lat="42.5199007" lon="12.8207153"><ele>681.0</ele><time>2026-05-01T10:52:40.918Z</time></trkpt><trkpt lat="42.5197455" lon="12.8207543"><ele>681.0</ele><time>2026-05-01T10:52:41.918Z</time></trkpt><trkpt lat="42.5196081" lon="12.8208583"><ele>681.0</ele><time>2026-05-01T10:52:42.918Z</time></trkpt><trkpt lat="42.5194815" lon="12.8210087"><ele>681.0</ele><time>2026-05-01T10:52:43.918Z</time></trkpt><trkpt lat="42.5193494" lon="12.8211872"><ele>680.0</ele><time>2026-05-01T10:52:44.917Z</time></trkpt><trkpt lat="42.519237" lon="12.8213485"><ele>679.0</ele><time>2026-05-01T10:52:45.917Z</time></trkpt><trkpt lat="42.519146" lon="12.8215124"><ele>678.0</ele><time>2026-05-01T10:52:46.917Z</time></trkpt><trkpt lat="42.5190993" lon="12.8216996"><ele>678.6666666666666</ele><time>2026-05-01T10:52:47.918Z</time></trkpt><trkpt lat="42.5190979" lon="12.821917"><ele>679.3333333333333</ele><time>2026-05-01T10:52:48.918Z</time></trkpt><trkpt lat="42.5191133" lon="12.8221724"><ele>680.0</ele><time>2026-05-01T10:52:49.919Z</time></trkpt><trkpt lat="42.5191413" lon="12.8224268"><ele>676.3333333333333</ele><time>2026-05-01T10:52:50.918Z</time></trkpt><trkpt lat="42.5191757" lon="12.822675"><ele>672.6666666666666</ele><time>2026-05-01T10:52:51.919Z</time></trkpt><trkpt lat="42.5192139" lon="12.8228842"><ele>669.0</ele><time>2026-05-01T10:52:52.919Z</time></trkpt><trkpt lat="42.5192738" lon="12.8230583"><ele>669.0</ele><time>2026-05-01T10:52:53.919Z</time></trkpt><trkpt lat="42.5193589" lon="12.8231958"><ele>669.0</ele><time>2026-05-01T10:52:54.919Z</time></trkpt><trkpt lat="42.5194765" lon="12.8233251"><ele>669.0</ele><time>2026-05-01T10:52:55.919Z</time></trkpt><trkpt lat="42.5195999" lon="12.8234387"><ele>669.0</ele><time>2026-05-01T10:52:56.919Z</time></trkpt><trkpt lat="42.5197427" lon="12.8235633"><ele>673.6666666666666</ele><time>2026-05-01T10:52:57.919Z</time></trkpt><trkpt lat="42.5199109" lon="12.823696"><ele>678.3333333333333</ele><time>2026-05-01T10:52:58.919Z</time></trkpt><trkpt lat="42.5200834" lon="12.8238773"><ele>683.0</ele><time>2026-05-01T10:52:59.919Z</time></trkpt><trkpt lat="42.5202577" lon="12.8240867"><ele>683.0</ele><time>2026-05-01T10:53:00.919Z</time></trkpt><trkpt lat="42.5203941" lon="12.8242679"><ele>683.0</ele><time>2026-05-01T10:53:01.918Z</time></trkpt><trkpt lat="42.5205017" lon="12.8244213"><ele>683.0</ele><time>2026-05-01T10:53:02.918Z</time></trkpt><trkpt lat="42.5205879" lon="12.8245547"><ele>687.5</ele><time>2026-05-01T10:53:03.919Z</time></trkpt><trkpt lat="42.5206441" lon="12.8246897"><ele>692.0</ele><time>2026-05-01T10:53:04.919Z</time></trkpt><trkpt lat="42.5206583" lon="12.8248454"><ele>696.5</ele><time>2026-05-01T10:53:05.918Z</time></trkpt><trkpt lat="42.5206493" lon="12.8250474"><ele>701.0</ele><time>2026-05-01T10:53:06.919Z</time></trkpt><trkpt lat="42.5206665" lon="12.8252763"><ele>702.6666666666666</ele><time>2026-05-01T10:53:07.919Z</time></trkpt><trkpt lat="42.5207154" lon="12.8255193"><ele>704.3333333333334</ele><time>2026-05-01T10:53:08.919Z</time></trkpt><trkpt lat="42.5207689" lon="12.8257566"><ele>706.0</ele><time>2026-05-01T10:53:09.919Z</time></trkpt><trkpt lat="42.5208054" lon="12.825953"><ele>707.1999999999999</ele><time>2026-05-01T10:53:10.918Z</time></trkpt><trkpt lat="42.5208173" lon="12.8261043"><ele>708.4</ele><time>2026-05-01T10:53:11.919Z</time></trkpt><trkpt lat="42.5207825" lon="12.8262218"><ele>709.6</ele><time>2026-05-01T10:53:12.918Z</time></trkpt><trkpt lat="42.5207102" lon="12.8263151"><ele>710.8</ele><time>2026-05-01T10:53:13.919Z</time></trkpt><trkpt lat="42.5205999" lon="12.8263693"><ele>712.0</ele><time>2026-05-01T10:53:14.919Z</time></trkpt><trkpt lat="42.5204657" lon="12.8264122"><ele>708.0</ele><time>2026-05-01T10:53:15.918Z</time></trkpt><trkpt lat="42.5203343" lon="12.8264545"><ele>704.0</ele><time>2026-05-01T10:53:16.919Z</time></trkpt><trkpt lat="42.5202415" lon="12.8265248"><ele>700.0</ele><time>2026-05-01T10:53:17.918Z</time></trkpt><trkpt lat="42.5202043" lon="12.8266571"><ele>696.0</ele><time>2026-05-01T10:53:18.919Z</time></trkpt><trkpt lat="42.5202061" lon="12.8268153"><ele>695.0</ele><time>2026-05-01T10:53:19.919Z</time></trkpt><trkpt lat="42.5202315" lon="12.8270046"><ele>694.0</ele><time>2026-05-01T10:53:20.919Z</time></trkpt><trkpt lat="42.5202991" lon="12.8271759"><ele>693.0</ele><time>2026-05-01T10:53:21.918Z</time></trkpt><trkpt lat="42.5203963" lon="12.8273219"><ele>692.0</ele><time>2026-05-01T10:53:22.918Z</time></trkpt><trkpt lat="42.5205228" lon="12.8274303"><ele>698.0</ele><time>2026-05-01T10:53:23.919Z</time></trkpt><trkpt lat="42.520664" lon="12.8275052"><ele>704.0</ele><time>2026-05-01T10:53:24.919Z</time></trkpt><trkpt lat="42.5207961" lon="12.8275718"><ele>710.0</ele><time>2026-05-01T10:53:25.919Z</time></trkpt><trkpt lat="42.520895" lon="12.8276608"><ele>716.0</ele><time>2026-05-01T10:53:26.919Z</time></trkpt><trkpt lat="42.5209686" lon="12.8278053"><ele>716.0</ele><time>2026-05-01T10:53:27.918Z</time></trkpt><trkpt lat="42.5210237" lon="12.8279914"><ele>716.0</ele><time>2026-05-01T10:53:28.919Z</time></trkpt><trkpt lat="42.5210625" lon="12.8282168"><ele>716.0</ele><time>2026-05-01T10:53:29.919Z</time></trkpt><trkpt lat="42.5210985" lon="12.8284694"><ele>717.6666666666666</ele><time>2026-05-01T10:53:30.919Z</time></trkpt><trkpt lat="42.5211398" lon="12.8287262"><ele>719.3333333333334</ele><time>2026-05-01T10:53:31.919Z</time></trkpt><trkpt lat="42.5211793" lon="12.828995"><ele>721.0</ele><time>2026-05-01T10:53:32.919Z</time></trkpt><trkpt lat="42.5212131" lon="12.8292474"><ele>724.3333333333334</ele><time>2026-05-01T10:53:33.919Z</time></trkpt><trkpt lat="42.5212358" lon="12.8294728"><ele>727.6666666666666</ele><time>2026-05-01T10:53:34.918Z</time></trkpt><trkpt lat="42.5212293" lon="12.8296924"><ele>731.0</ele><time>2026-05-01T10:53:35.918Z</time></trkpt><trkpt lat="42.5211926" lon="12.8299271"><ele>734.0</ele><time>2026-05-01T10:53:36.919Z</time></trkpt><trkpt lat="42.5211569" lon="12.8301549"><ele>737.0</ele><time>2026-05-01T10:53:37.919Z</time></trkpt><trkpt lat="42.5211077" lon="12.830346"><ele>740.0</ele><time>2026-05-01T10:53:38.919Z</time></trkpt><trkpt lat="42.521068" lon="12.8304666"><ele>743.0</ele><time>2026-05-01T10:53:39.919Z</time></trkpt><trkpt lat="42.5210095" lon="12.8305411"><ele>743.0</ele><time>2026-05-01T10:53:40.919Z</time></trkpt><trkpt lat="42.5209285" lon="12.830578"><ele>743.0</ele><time>2026-05-01T10:53:41.919Z</time></trkpt><trkpt lat="42.5208361" lon="12.83055"><ele>743.0</ele><time>2026-05-01T10:53:42.919Z</time></trkpt><trkpt lat="42.5207309" lon="12.8304538"><ele>743.0</ele><time>2026-05-01T10:53:43.919Z</time></trkpt><trkpt lat="42.5206154" lon="12.8302997"><ele>740.75</ele><time>2026-05-01T10:53:44.918Z</time></trkpt><trkpt lat="42.5204972" lon="12.8301369"><ele>738.5</ele><time>2026-05-01T10:53:45.919Z</time></trkpt><trkpt lat="42.5203897" lon="12.8299856"><ele>736.25</ele><time>2026-05-01T10:53:46.919Z</time></trkpt><trkpt lat="42.5202973" lon="12.829874"><ele>734.0</ele><time>2026-05-01T10:53:47.919Z</time></trkpt><trkpt lat="42.5202049" lon="12.8298108"><ele>734.0</ele><time>2026-05-01T10:53:48.919Z</time></trkpt><trkpt lat="42.5201059" lon="12.8298073"><ele>734.0</ele><time>2026-05-01T10:53:49.919Z</time></trkpt><trkpt lat="42.5200186" lon="12.8298691"><ele>734.0</ele><time>2026-05-01T10:53:50.918Z</time></trkpt><trkpt lat="42.5199644" lon="12.8299833"><ele>734.0</ele><time>2026-05-01T10:53:51.919Z</time></trkpt><trkpt lat="42.5199537" lon="12.8301149"><ele>734.0</ele><time>2026-05-01T10:53:52.919Z</time></trkpt><trkpt lat="42.5199769" lon="12.8302351"><ele>734.1666666666666</ele><time>2026-05-01T10:53:53.918Z</time></trkpt><trkpt lat="42.5200137" lon="12.8303477"><ele>734.3333333333333</ele><time>2026-05-01T10:53:54.919Z</time></trkpt><trkpt lat="42.5200447" lon="12.8304379"><ele>734.5</ele><time>2026-05-01T10:53:55.919Z</time></trkpt><trkpt lat="42.5200935" lon="12.8305465"><ele>734.6666666666666</ele><time>2026-05-01T10:53:57.919Z</time></trkpt><trkpt lat="42.5201702" lon="12.8306189"><ele>734.8333333333334</ele><time>2026-05-01T10:53:59.919Z</time></trkpt><trkpt lat="42.5202387" lon="12.8306536"><ele>735.0</ele><time>2026-05-01T10:54:00.918Z</time></trkpt><trkpt lat="42.5203294" lon="12.8307029"><ele>737.0</ele><time>2026-05-01T10:54:01.919Z</time></trkpt><trkpt lat="42.5204299" lon="12.8308102"><ele>739.0</ele><time>2026-05-01T10:54:02.919Z</time></trkpt><trkpt lat="42.5205343" lon="12.8309494"><ele>741.0</ele><time>2026-05-01T10:54:03.919Z</time></trkpt><trkpt lat="42.5206533" lon="12.8311102"><ele>743.0</ele><time>2026-05-01T10:54:04.919Z</time></trkpt><trkpt lat="42.5207871" lon="12.8312805"><ele>744.6666666666666</ele><time>2026-05-01T10:54:05.919Z</time></trkpt><trkpt lat="42.5209331" lon="12.831467"><ele>746.3333333333334</ele><time>2026-05-01T10:54:06.919Z</time></trkpt><trkpt lat="42.52107" lon="12.8316479"><ele>748.0</ele><time>2026-05-01T10:54:07.919Z</time></trkpt><trkpt lat="42.5211943" lon="12.8318087"><ele>750.0</ele><time>2026-05-01T10:54:08.919Z</time></trkpt><trkpt lat="42.5213005" lon="12.8319633"><ele>752.0</ele><time>2026-05-01T10:54:09.918Z</time></trkpt><trkpt lat="42.5213859" lon="12.8321251"><ele>754.0</ele><time>2026-05-01T10:54:10.919Z</time></trkpt><trkpt lat="42.5214446" lon="12.832307"><ele>756.0</ele><time>2026-05-01T10:54:11.919Z</time></trkpt><trkpt lat="42.5214711" lon="12.8325191"><ele>757.0</ele><time>2026-05-01T10:54:12.919Z</time></trkpt><trkpt lat="42.5214711" lon="12.8327534"><ele>758.0</ele><time>2026-05-01T10:54:13.918Z</time></trkpt><trkpt lat="42.521452" lon="12.8329747"><ele>759.0</ele><time>2026-05-01T10:54:14.919Z</time></trkpt><trkpt lat="42.521431" lon="12.8331717"><ele>759.0</ele><time>2026-05-01T10:54:15.919Z</time></trkpt><trkpt lat="42.5214276" lon="12.8333424"><ele>759.0</ele><time>2026-05-01T10:54:16.919Z</time></trkpt><trkpt lat="42.521466" lon="12.8334933"><ele>759.0</ele><time>2026-05-01T10:54:17.919Z</time></trkpt><trkpt lat="42.521554" lon="12.8336282"><ele>759.0</ele><time>2026-05-01T10:54:18.919Z</time></trkpt><trkpt lat="42.5216711" lon="12.8337304"><ele>761.3333333333334</ele><time>2026-05-01T10:54:19.919Z</time></trkpt><trkpt lat="42.5218267" lon="12.8337622"><ele>763.6666666666667</ele><time>2026-05-01T10:54:20.919Z</time></trkpt><trkpt lat="42.5219881" lon="12.833721"><ele>766.0</ele><time>2026-05-01T10:54:21.918Z</time></trkpt><trkpt lat="42.5221503" lon="12.8336462"><ele>767.0</ele><time>2026-05-01T10:54:22.918Z</time></trkpt><trkpt lat="42.5223165" lon="12.8335769"><ele>768.0</ele><time>2026-05-01T10:54:23.918Z</time></trkpt><trkpt lat="42.5224771" lon="12.833521"><ele>769.0</ele><time>2026-05-01T10:54:24.919Z</time></trkpt><trkpt lat="42.5226332" lon="12.8334928"><ele>769.0</ele><time>2026-05-01T10:54:25.919Z</time></trkpt><trkpt lat="42.5227852" lon="12.8334959"><ele>769.0</ele><time>2026-05-01T10:54:26.919Z</time></trkpt><trkpt lat="42.5229421" lon="12.83352"><ele>769.0</ele><time>2026-05-01T10:54:27.919Z</time></trkpt><trkpt lat="42.5230688" lon="12.8335394"><ele>769.0</ele><time>2026-05-01T10:54:28.918Z</time></trkpt><trkpt lat="42.523182" lon="12.8335032"><ele>767.25</ele><time>2026-05-01T10:54:29.919Z</time></trkpt><trkpt lat="42.5232871" lon="12.8334029"><ele>765.5</ele><time>2026-05-01T10:54:30.919Z</time></trkpt><trkpt lat="42.5233895" lon="12.8332541"><ele>763.75</ele><time>2026-05-01T10:54:31.919Z</time></trkpt><trkpt lat="42.523488" lon="12.8330999"><ele>762.0</ele><time>2026-05-01T10:54:32.919Z</time></trkpt><trkpt lat="42.5235856" lon="12.8329614"><ele>762.0</ele><time>2026-05-01T10:54:33.919Z</time></trkpt><trkpt lat="42.5236944" lon="12.8328439"><ele>762.0</ele><time>2026-05-01T10:54:34.919Z</time></trkpt><trkpt lat="42.5238063" lon="12.8327606"><ele>762.0</ele><time>2026-05-01T10:54:35.919Z</time></trkpt><trkpt lat="42.5239219" lon="12.832698"><ele>762.0</ele><time>2026-05-01T10:54:36.919Z</time></trkpt><trkpt lat="42.5240399" lon="12.8326741"><ele>762.25</ele><time>2026-05-01T10:54:37.919Z</time></trkpt><trkpt lat="42.5241549" lon="12.8326921"><ele>762.5</ele><time>2026-05-01T10:54:38.919Z</time></trkpt><trkpt lat="42.5242516" lon="12.832769"><ele>762.75</ele><time>2026-05-01T10:54:39.918Z</time></trkpt><trkpt lat="42.5243752" lon="12.8328798"><ele>763.0</ele><time>2026-05-01T10:54:40.919Z</time></trkpt><trkpt lat="42.5245168" lon="12.8329715"><ele>761.6666666666667</ele><time>2026-05-01T10:54:41.918Z</time></trkpt><trkpt lat="42.5246838" lon="12.8329912"><ele>760.3333333333334</ele><time>2026-05-01T10:54:42.919Z</time></trkpt><trkpt lat="42.5248627" lon="12.8329676"><ele>759.0</ele><time>2026-05-01T10:54:43.919Z</time></trkpt><trkpt lat="42.5250414" lon="12.8329113"><ele>759.0</ele><time>2026-05-01T10:54:44.919Z</time></trkpt><trkpt lat="42.5252165" lon="12.8328383"><ele>759.0</ele><time>2026-05-01T10:54:45.919Z</time></trkpt><trkpt lat="42.5253608" lon="12.8327676"><ele>759.0</ele><time>2026-05-01T10:54:46.919Z</time></trkpt><trkpt lat="42.5254926" lon="12.8326686"><ele>756.0</ele><time>2026-05-01T10:54:47.919Z</time></trkpt><trkpt lat="42.5255964" lon="12.8325425"><ele>753.0</ele><time>2026-05-01T10:54:48.919Z</time></trkpt><trkpt lat="42.5256838" lon="12.8324125"><ele>750.0</ele><time>2026-05-01T10:54:49.919Z</time></trkpt><trkpt lat="42.5257535" lon="12.8322892"><ele>747.0</ele><time>2026-05-01T10:54:50.918Z</time></trkpt><trkpt lat="42.5258191" lon="12.8321846"><ele>747.0</ele><time>2026-05-01T10:54:51.919Z</time></trkpt><trkpt lat="42.5259124" lon="12.8321308"><ele>747.0</ele><time>2026-05-01T10:54:52.918Z</time></trkpt><trkpt lat="42.5260127" lon="12.8321277"><ele>747.0</ele><time>2026-05-01T10:54:53.919Z</time></trkpt><trkpt lat="42.5261015" lon="12.8321571"><ele>747.0</ele><time>2026-05-01T10:54:54.919Z</time></trkpt><trkpt lat="42.526205" lon="12.8322257"><ele>747.0</ele><time>2026-05-01T10:54:56.919Z</time></trkpt><trkpt lat="42.5262705" lon="12.8322856"><ele>745.2</ele><time>2026-05-01T10:54:57.919Z</time></trkpt><trkpt lat="42.5263442" lon="12.8323539"><ele>743.4000000000001</ele><time>2026-05-01T10:54:58.919Z</time></trkpt><trkpt lat="42.5264249" lon="12.8324494"><ele>741.5999999999999</ele><time>2026-05-01T10:54:59.918Z</time></trkpt><trkpt lat="42.5264979" lon="12.8325264"><ele>739.8</ele><time>2026-05-01T10:55:00.918Z</time></trkpt><trkpt lat="42.5265274" lon="12.8326426"><ele>738.0</ele><time>2026-05-01T10:55:01.919Z</time></trkpt><trkpt lat="42.5265077" lon="12.8327784"><ele>739.75</ele><time>2026-05-01T10:55:02.918Z</time></trkpt><trkpt lat="42.5264484" lon="12.8329124"><ele>741.5</ele><time>2026-05-01T10:55:03.919Z</time></trkpt><trkpt lat="42.5263503" lon="12.8330491"><ele>743.25</ele><time>2026-05-01T10:55:04.919Z</time></trkpt><trkpt lat="42.5262405" lon="12.8331953"><ele>745.0</ele><time>2026-05-01T10:55:05.919Z</time></trkpt><trkpt lat="42.5261201" lon="12.8333418"><ele>739.0</ele><time>2026-05-01T10:55:06.919Z</time></trkpt><trkpt lat="42.5259773" lon="12.8334924"><ele>733.0</ele><time>2026-05-01T10:55:07.919Z</time></trkpt><trkpt lat="42.5258322" lon="12.8336499"><ele>727.0</ele><time>2026-05-01T10:55:08.919Z</time></trkpt><trkpt lat="42.5256808" lon="12.8338028"><ele>727.0</ele><time>2026-05-01T10:55:09.919Z</time></trkpt><trkpt lat="42.5255345" lon="12.8339411"><ele>727.0</ele><time>2026-05-01T10:55:10.919Z</time></trkpt><trkpt lat="42.5254091" lon="12.8340548"><ele>727.0</ele><time>2026-05-01T10:55:11.919Z</time></trkpt><trkpt lat="42.5253121" lon="12.8341839"><ele>732.25</ele><time>2026-05-01T10:55:12.919Z</time></trkpt><trkpt lat="42.5252536" lon="12.8343166"><ele>737.5</ele><time>2026-05-01T10:55:13.919Z</time></trkpt><trkpt lat="42.5252234" lon="12.8344788"><ele>742.75</ele><time>2026-05-01T10:55:14.918Z</time></trkpt><trkpt lat="42.5252275" lon="12.8346837"><ele>748.0</ele><time>2026-05-01T10:55:15.918Z</time></trkpt><trkpt lat="42.5252418" lon="12.8349339"><ele>747.3333333333334</ele><time>2026-05-01T10:55:16.918Z</time></trkpt><trkpt lat="42.5252247" lon="12.8351963"><ele>746.6666666666666</ele><time>2026-05-01T10:55:17.919Z</time></trkpt><trkpt lat="42.5251985" lon="12.8354662"><ele>746.0</ele><time>2026-05-01T10:55:18.919Z</time></trkpt><trkpt lat="42.5251638" lon="12.835732"><ele>746.0</ele><time>2026-05-01T10:55:19.919Z</time></trkpt><trkpt lat="42.5251165" lon="12.8359655"><ele>746.0</ele><time>2026-05-01T10:55:20.919Z</time></trkpt><trkpt lat="42.5250433" lon="12.8361664"><ele>746.0</ele><time>2026-05-01T10:55:21.918Z</time></trkpt><trkpt lat="42.5249349" lon="12.8363562"><ele>745.0</ele><time>2026-05-01T10:55:22.918Z</time></trkpt><trkpt lat="42.5247905" lon="12.8365102"><ele>744.0</ele><time>2026-05-01T10:55:23.919Z</time></trkpt><trkpt lat="42.5246591" lon="12.8366344"><ele>743.0</ele><time>2026-05-01T10:55:24.919Z</time></trkpt><trkpt lat="42.5245387" lon="12.8367337"><ele>743.0</ele><time>2026-05-01T10:55:25.919Z</time></trkpt><trkpt lat="42.5244307" lon="12.8368017"><ele>743.0</ele><time>2026-05-01T10:55:26.918Z</time></trkpt><trkpt lat="42.5243115" lon="12.8367718"><ele>743.0</ele><time>2026-05-01T10:55:27.919Z</time></trkpt><trkpt lat="42.5241639" lon="12.8366736"><ele>743.0</ele><time>2026-05-01T10:55:28.918Z</time></trkpt><trkpt lat="42.5240314" lon="12.8365813"><ele>743.0</ele><time>2026-05-01T10:55:29.918Z</time></trkpt><trkpt lat="42.5239107" lon="12.836515"><ele>743.0</ele><time>2026-05-01T10:55:30.919Z</time></trkpt><trkpt lat="42.5238028" lon="12.8365682"><ele>743.0</ele><time>2026-05-01T10:55:31.919Z</time></trkpt><trkpt lat="42.523701" lon="12.8367378"><ele>743.0</ele><time>2026-05-01T10:55:32.919Z</time></trkpt><trkpt lat="42.5236108" lon="12.8369233"><ele>742.25</ele><time>2026-05-01T10:55:33.919Z</time></trkpt><trkpt lat="42.523529" lon="12.8370989"><ele>741.5</ele><time>2026-05-01T10:55:34.918Z</time></trkpt><trkpt lat="42.5234313" lon="12.8372344"><ele>740.75</ele><time>2026-05-01T10:55:35.919Z</time></trkpt><trkpt lat="42.5233028" lon="12.8373226"><ele>740.0</ele><time>2026-05-01T10:55:36.918Z</time></trkpt><trkpt lat="42.5231435" lon="12.8373452"><ele>740.0</ele><time>2026-05-01T10:55:37.919Z</time></trkpt><trkpt lat="42.5229477" lon="12.837353"><ele>740.0</ele><time>2026-05-01T10:55:38.919Z</time></trkpt><trkpt lat="42.5227581" lon="12.8373621"><ele>740.0</ele><time>2026-05-01T10:55:39.918Z</time></trkpt><trkpt lat="42.5226114" lon="12.8374003"><ele>741.25</ele><time>2026-05-01T10:55:40.918Z</time></trkpt><trkpt lat="42.5225116" lon="12.8374823"><ele>742.5</ele><time>2026-05-01T10:55:41.919Z</time></trkpt><trkpt lat="42.5224186" lon="12.8376377"><ele>743.75</ele><time>2026-05-01T10:55:42.919Z</time></trkpt><trkpt lat="42.5223451" lon="12.8378535"><ele>745.0</ele><time>2026-05-01T10:55:43.918Z</time></trkpt><trkpt lat="42.5223078" lon="12.8380972"><ele>745.0</ele><time>2026-05-01T10:55:44.919Z</time></trkpt><trkpt lat="42.5222984" lon="12.8383394"><ele>745.0</ele><time>2026-05-01T10:55:45.918Z</time></trkpt><trkpt lat="42.5223111" lon="12.8385559"><ele>745.0</ele><time>2026-05-01T10:55:46.918Z</time></trkpt><trkpt lat="42.5223287" lon="12.8387363"><ele>745.0</ele><time>2026-05-01T10:55:47.919Z</time></trkpt><trkpt lat="42.5223188" lon="12.8388774"><ele>745.0</ele><time>2026-05-01T10:55:48.919Z</time></trkpt><trkpt lat="42.5222685" lon="12.8390137"><ele>745.0</ele><time>2026-05-01T10:55:49.918Z</time></trkpt><trkpt lat="42.522164" lon="12.8391617"><ele>745.0</ele><time>2026-05-01T10:55:50.919Z</time></trkpt><trkpt lat="42.5220418" lon="12.8393283"><ele>745.0</ele><time>2026-05-01T10:55:51.919Z</time></trkpt><trkpt lat="42.5219473" lon="12.8395141"><ele>745.0</ele><time>2026-05-01T10:55:52.919Z</time></trkpt><trkpt lat="42.521887" lon="12.8396988"><ele>745.0</ele><time>2026-05-01T10:55:53.919Z</time></trkpt><trkpt lat="42.5218613" lon="12.8398921"><ele>745.0</ele><time>2026-05-01T10:55:54.919Z</time></trkpt><trkpt lat="42.5218722" lon="12.8400806"><ele>745.0</ele><time>2026-05-01T10:55:55.919Z</time></trkpt><trkpt lat="42.5219185" lon="12.8402797"><ele>745.0</ele><time>2026-05-01T10:55:56.919Z</time></trkpt><trkpt lat="42.5219964" lon="12.8404764"><ele>745.3333333333334</ele><time>2026-05-01T10:55:57.918Z</time></trkpt><trkpt lat="42.5220889" lon="12.8406705"><ele>745.6666666666666</ele><time>2026-05-01T10:55:58.919Z</time></trkpt><trkpt lat="42.5222122" lon="12.8408514"><ele>746.0</ele><time>2026-05-01T10:55:59.919Z</time></trkpt><trkpt lat="42.5223699" lon="12.8410019"><ele>748.6666666666666</ele><time>2026-05-01T10:56:00.919Z</time></trkpt><trkpt lat="42.5225322" lon="12.8411252"><ele>751.3333333333334</ele><time>2026-05-01T10:56:01.919Z</time></trkpt><trkpt lat="42.5227159" lon="12.8412223"><ele>754.0</ele><time>2026-05-01T10:56:02.919Z</time></trkpt><trkpt lat="42.5229018" lon="12.8412842"><ele>754.0</ele><time>2026-05-01T10:56:03.919Z</time></trkpt><trkpt lat="42.5230953" lon="12.8413279"><ele>754.0</ele><time>2026-05-01T10:56:04.919Z</time></trkpt><trkpt lat="42.523281" lon="12.8413332"><ele>754.0</ele><time>2026-05-01T10:56:05.918Z</time></trkpt><trkpt lat="42.5234713" lon="12.8413013"><ele>754.0</ele><time>2026-05-01T10:56:06.919Z</time></trkpt><trkpt lat="42.5236817" lon="12.8412368"><ele>754.0</ele><time>2026-05-01T10:56:07.919Z</time></trkpt><trkpt lat="42.523894" lon="12.8411818"><ele>754.0</ele><time>2026-05-01T10:56:08.918Z</time></trkpt><trkpt lat="42.524123" lon="12.8411228"><ele>756.5</ele><time>2026-05-01T10:56:09.919Z</time></trkpt><trkpt lat="42.5243562" lon="12.8410587"><ele>759.0</ele><time>2026-05-01T10:56:10.918Z</time></trkpt><trkpt lat="42.5245909" lon="12.8409979"><ele>755.6666666666666</ele><time>2026-05-01T10:56:11.918Z</time></trkpt><trkpt lat="42.5248053" lon="12.8409429"><ele>752.3333333333333</ele><time>2026-05-01T10:56:12.919Z</time></trkpt><trkpt lat="42.5249798" lon="12.8408952"><ele>749.0</ele><time>2026-05-01T10:56:13.919Z</time></trkpt><trkpt lat="42.5251364" lon="12.8408659"><ele>749.0</ele><time>2026-05-01T10:56:14.918Z</time></trkpt><trkpt lat="42.5252682" lon="12.8408533"><ele>749.0</ele><time>2026-05-01T10:56:15.919Z</time></trkpt><trkpt lat="42.5253971" lon="12.8408597"><ele>749.0</ele><time>2026-05-01T10:56:16.919Z</time></trkpt><trkpt lat="42.5255115" lon="12.840938"><ele>749.0</ele><time>2026-05-01T10:56:17.918Z</time></trkpt><trkpt lat="42.5256089" lon="12.8410979"><ele>750.3333333333333</ele><time>2026-05-01T10:56:18.919Z</time></trkpt><trkpt lat="42.5256951" lon="12.8413161"><ele>751.6666666666666</ele><time>2026-05-01T10:56:19.919Z</time></trkpt><trkpt lat="42.5257993" lon="12.8415647"><ele>753.0</ele><time>2026-05-01T10:56:20.918Z</time></trkpt><trkpt lat="42.5259294" lon="12.8418037"><ele>750.6666666666666</ele><time>2026-05-01T10:56:21.919Z</time></trkpt><trkpt lat="42.5260638" lon="12.8420475"><ele>748.3333333333333</ele><time>2026-05-01T10:56:22.918Z</time></trkpt><trkpt lat="42.5261684" lon="12.8422785"><ele>746.0</ele><time>2026-05-01T10:56:23.919Z</time></trkpt><trkpt lat="42.5262577" lon="12.8425056"><ele>752.3333333333333</ele><time>2026-05-01T10:56:24.918Z</time></trkpt><trkpt lat="42.5263283" lon="12.8427279"><ele>758.6666666666666</ele><time>2026-05-01T10:56:25.919Z</time></trkpt><trkpt lat="42.5263903" lon="12.8429291"><ele>765.0</ele><time>2026-05-01T10:56:26.918Z</time></trkpt><trkpt lat="42.5264581" lon="12.8430811"><ele>765.0</ele><time>2026-05-01T10:56:27.918Z</time></trkpt><trkpt lat="42.5265186" lon="12.8432044"><ele>765.0</ele><time>2026-05-01T10:56:28.919Z</time></trkpt><trkpt lat="42.5266059" lon="12.8432815"><ele>765.0</ele><time>2026-05-01T10:56:29.919Z</time></trkpt><trkpt lat="42.526756" lon="12.8432643"><ele>765.0</ele><time>2026-05-01T10:56:30.918Z</time></trkpt><trkpt lat="42.5269197" lon="12.8431868"><ele>769.3333333333333</ele><time>2026-05-01T10:56:31.919Z</time></trkpt><trkpt lat="42.5270772" lon="12.8430641"><ele>773.6666666666666</ele><time>2026-05-01T10:56:32.919Z</time></trkpt><trkpt lat="42.527219" lon="12.8428942"><ele>778.0</ele><time>2026-05-01T10:56:33.919Z</time></trkpt><trkpt lat="42.5273339" lon="12.8426914"><ele>773.3333333333333</ele><time>2026-05-01T10:56:34.919Z</time></trkpt><trkpt lat="42.527436" lon="12.8424769"><ele>768.6666666666666</ele><time>2026-05-01T10:56:35.919Z</time></trkpt><trkpt lat="42.527521" lon="12.8422492"><ele>764.0</ele><time>2026-05-01T10:56:36.919Z</time></trkpt><trkpt lat="42.5275852" lon="12.8419702"><ele>760.3333333333333</ele><time>2026-05-01T10:56:37.918Z</time></trkpt><trkpt lat="42.5275974" lon="12.8416719"><ele>756.6666666666666</ele><time>2026-05-01T10:56:38.918Z</time></trkpt><trkpt lat="42.5276133" lon="12.8413851"><ele>753.0</ele><time>2026-05-01T10:56:39.918Z</time></trkpt><trkpt lat="42.5276352" lon="12.841164"><ele>753.0</ele><time>2026-05-01T10:56:40.918Z</time></trkpt><trkpt lat="42.527679" lon="12.841006"><ele>753.0</ele><time>2026-05-01T10:56:41.919Z</time></trkpt><trkpt lat="42.5277437" lon="12.8408997"><ele>753.0</ele><time>2026-05-01T10:56:42.919Z</time></trkpt><trkpt lat="42.5278106" lon="12.8408423"><ele>753.0</ele><time>2026-05-01T10:56:43.919Z</time></trkpt><trkpt lat="42.5279" lon="12.8408406"><ele>753.0</ele><time>2026-05-01T10:56:44.919Z</time></trkpt><trkpt lat="42.5279918" lon="12.8408815"><ele>749.5</ele><time>2026-05-01T10:56:45.919Z</time></trkpt><trkpt lat="42.5280895" lon="12.8409409"><ele>746.0</ele><time>2026-05-01T10:56:46.919Z</time></trkpt><trkpt lat="42.5281817" lon="12.8410203"><ele>742.5</ele><time>2026-05-01T10:56:47.918Z</time></trkpt><trkpt lat="42.5282768" lon="12.8411292"><ele>739.0</ele><time>2026-05-01T10:56:48.919Z</time></trkpt><trkpt lat="42.5283741" lon="12.8412534"><ele>747.0</ele><time>2026-05-01T10:56:49.919Z</time></trkpt><trkpt lat="42.528462" lon="12.8413858"><ele>755.0</ele><time>2026-05-01T10:56:50.919Z</time></trkpt><trkpt lat="42.5285481" lon="12.8415214"><ele>763.0</ele><time>2026-05-01T10:56:51.919Z</time></trkpt><trkpt lat="42.5286242" lon="12.8416693"><ele>771.0</ele><time>2026-05-01T10:56:52.919Z</time></trkpt><trkpt lat="42.528687" lon="12.8418155"><ele>764.25</ele><time>2026-05-01T10:56:53.919Z</time></trkpt><trkpt lat="42.5287422" lon="12.8419737"><ele>757.5</ele><time>2026-05-01T10:56:54.919Z</time></trkpt><trkpt lat="42.5287937" lon="12.8421246"><ele>750.75</ele><time>2026-05-01T10:56:55.919Z</time></trkpt><trkpt lat="42.5288341" lon="12.8422921"><ele>744.0</ele><time>2026-05-01T10:56:56.918Z</time></trkpt><trkpt lat="42.5288625" lon="12.842464"><ele>748.6666666666666</ele><time>2026-05-01T10:56:57.919Z</time></trkpt><trkpt lat="42.5288786" lon="12.8426555"><ele>753.3333333333333</ele><time>2026-05-01T10:56:58.918Z</time></trkpt><trkpt lat="42.528882" lon="12.8428888"><ele>758.0</ele><time>2026-05-01T10:56:59.919Z</time></trkpt><trkpt lat="42.5288733" lon="12.8431368"><ele>758.0</ele><time>2026-05-01T10:57:00.919Z</time></trkpt><trkpt lat="42.5288518" lon="12.8433638"><ele>758.0</ele><time>2026-05-01T10:57:01.919Z</time></trkpt><trkpt lat="42.5288385" lon="12.8435522"><ele>758.0</ele><time>2026-05-01T10:57:02.919Z</time></trkpt><trkpt lat="42.5288095" lon="12.8437004"><ele>758.0</ele><time>2026-05-01T10:57:03.919Z</time></trkpt><trkpt lat="42.5287835" lon="12.8438122"><ele>761.5999999999999</ele><time>2026-05-01T10:57:04.919Z</time></trkpt><trkpt lat="42.5287599" lon="12.8439051"><ele>765.1999999999999</ele><time>2026-05-01T10:57:05.919Z</time></trkpt><trkpt lat="42.5287843" lon="12.8440497"><ele>768.8</ele><time>2026-05-01T10:57:07.919Z</time></trkpt><trkpt lat="42.5288489" lon="12.8440975"><ele>772.4</ele><time>2026-05-01T10:57:08.919Z</time></trkpt><trkpt lat="42.5289764" lon="12.8440612"><ele>776.0</ele><time>2026-05-01T10:57:10.919Z</time></trkpt><trkpt lat="42.5290397" lon="12.8439499"><ele>776.0</ele><time>2026-05-01T10:57:11.919Z</time></trkpt><trkpt lat="42.5291247" lon="12.8437665"><ele>776.0</ele><time>2026-05-01T10:57:12.919Z</time></trkpt><trkpt lat="42.5292135" lon="12.8435642"><ele>776.0</ele><time>2026-05-01T10:57:13.919Z</time></trkpt><trkpt lat="42.5293281" lon="12.8433647"><ele>775.6666666666667</ele><time>2026-05-01T10:57:14.919Z</time></trkpt><trkpt lat="42.5294527" lon="12.8431759"><ele>775.3333333333333</ele><time>2026-05-01T10:57:15.919Z</time></trkpt><trkpt lat="42.5295906" lon="12.8430125"><ele>775.0</ele><time>2026-05-01T10:57:16.919Z</time></trkpt><trkpt lat="42.5297439" lon="12.8428872"><ele>775.0</ele><time>2026-05-01T10:57:17.918Z</time></trkpt><trkpt lat="42.5298911" lon="12.8428224"><ele>775.0</ele><time>2026-05-01T10:57:18.919Z</time></trkpt><trkpt lat="42.5300507" lon="12.8428184"><ele>775.0</ele><time>2026-05-01T10:57:19.919Z</time></trkpt><trkpt lat="42.5302172" lon="12.842861"><ele>775.0</ele><time>2026-05-01T10:57:20.919Z</time></trkpt><trkpt lat="42.5303913" lon="12.8429287"><ele>775.0</ele><time>2026-05-01T10:57:21.918Z</time></trkpt><trkpt lat="42.5305895" lon="12.8429394"><ele>775.0</ele><time>2026-05-01T10:57:22.919Z</time></trkpt><trkpt lat="42.5307841" lon="12.8428737"><ele>776.6666666666666</ele><time>2026-05-01T10:57:23.918Z</time></trkpt><trkpt lat="42.530965" lon="12.8427773"><ele>778.3333333333333</ele><time>2026-05-01T10:57:24.919Z</time></trkpt><trkpt lat="42.53114" lon="12.8426991"><ele>780.0</ele><time>2026-05-01T10:57:25.919Z</time></trkpt><trkpt lat="42.5313202" lon="12.8426404"><ele>775.6666666666666</ele><time>2026-05-01T10:57:26.918Z</time></trkpt><trkpt lat="42.5315057" lon="12.8426445"><ele>771.3333333333333</ele><time>2026-05-01T10:57:27.919Z</time></trkpt><trkpt lat="42.5316669" lon="12.842697"><ele>767.0</ele><time>2026-05-01T10:57:28.918Z</time></trkpt><trkpt lat="42.5318086" lon="12.8428298"><ele>767.0</ele><time>2026-05-01T10:57:29.919Z</time></trkpt><trkpt lat="42.5319433" lon="12.8430139"><ele>767.0</ele><time>2026-05-01T10:57:30.919Z</time></trkpt><trkpt lat="42.5320385" lon="12.843228"><ele>767.0</ele><time>2026-05-01T10:57:31.919Z</time></trkpt><trkpt lat="42.5321059" lon="12.8434756"><ele>767.6666666666666</ele><time>2026-05-01T10:57:32.919Z</time></trkpt><trkpt lat="42.5321388" lon="12.8437445"><ele>768.3333333333333</ele><time>2026-05-01T10:57:33.919Z</time></trkpt><trkpt lat="42.5321924" lon="12.8440263"><ele>769.0</ele><time>2026-05-01T10:57:34.918Z</time></trkpt><trkpt lat="42.5322843" lon="12.8442972"><ele>769.0</ele><time>2026-05-01T10:57:35.919Z</time></trkpt><trkpt lat="42.5324153" lon="12.8445467"><ele>769.0</ele><time>2026-05-01T10:57:36.918Z</time></trkpt><trkpt lat="42.5325594" lon="12.8447841"><ele>769.0</ele><time>2026-05-01T10:57:37.919Z</time></trkpt><trkpt lat="42.5327064" lon="12.8449999"><ele>769.0</ele><time>2026-05-01T10:57:38.919Z</time></trkpt><trkpt lat="42.5328526" lon="12.8452101"><ele>769.0</ele><time>2026-05-01T10:57:39.919Z</time></trkpt><trkpt lat="42.5330121" lon="12.8453897"><ele>767.0</ele><time>2026-05-01T10:57:40.919Z</time></trkpt><trkpt lat="42.5331967" lon="12.8455342"><ele>765.0</ele><time>2026-05-01T10:57:41.919Z</time></trkpt><trkpt lat="42.533374" lon="12.8456585"><ele>763.0</ele><time>2026-05-01T10:57:42.919Z</time></trkpt><trkpt lat="42.5335298" lon="12.8457368"><ele>763.0</ele><time>2026-05-01T10:57:43.918Z</time></trkpt><trkpt lat="42.5336802" lon="12.8457888"><ele>763.0</ele><time>2026-05-01T10:57:44.919Z</time></trkpt><trkpt lat="42.5338344" lon="12.8457498"><ele>763.0</ele><time>2026-05-01T10:57:45.919Z</time></trkpt><trkpt lat="42.534015" lon="12.8456614"><ele>763.6666666666667</ele><time>2026-05-01T10:57:46.918Z</time></trkpt><trkpt lat="42.5342121" lon="12.8455549"><ele>764.3333333333334</ele><time>2026-05-01T10:57:47.919Z</time></trkpt><trkpt lat="42.534417" lon="12.845435"><ele>765.0</ele><time>2026-05-01T10:57:48.919Z</time></trkpt><trkpt lat="42.5346139" lon="12.8453027"><ele>769.6666666666667</ele><time>2026-05-01T10:57:49.919Z</time></trkpt><trkpt lat="42.5348001" lon="12.8451857"><ele>774.3333333333334</ele><time>2026-05-01T10:57:50.919Z</time></trkpt><trkpt lat="42.5349764" lon="12.8450721"><ele>779.0</ele><time>2026-05-01T10:57:51.919Z</time></trkpt><trkpt lat="42.5351541" lon="12.8449843"><ele>770.75</ele><time>2026-05-01T10:57:52.919Z</time></trkpt><trkpt lat="42.5353281" lon="12.8449432"><ele>762.5</ele><time>2026-05-01T10:57:53.919Z</time></trkpt><trkpt lat="42.5354614" lon="12.8449379"><ele>754.25</ele><time>2026-05-01T10:57:54.919Z</time></trkpt><trkpt lat="42.5355641" lon="12.8449668"><ele>746.0</ele><time>2026-05-01T10:57:55.919Z</time></trkpt><trkpt lat="42.5356484" lon="12.8450551"><ele>743.3333333333333</ele><time>2026-05-01T10:57:56.918Z</time></trkpt><trkpt lat="42.535681" lon="12.8451981"><ele>740.6666666666666</ele><time>2026-05-01T10:57:57.919Z</time></trkpt><trkpt lat="42.535662" lon="12.8454083"><ele>738.0</ele><time>2026-05-01T10:57:58.919Z</time></trkpt><trkpt lat="42.5356251" lon="12.8456652"><ele>738.0</ele><time>2026-05-01T10:57:59.918Z</time></trkpt><trkpt lat="42.535609" lon="12.8459515"><ele>738.0</ele><time>2026-05-01T10:58:00.919Z</time></trkpt><trkpt lat="42.5355947" lon="12.8462278"><ele>738.0</ele><time>2026-05-01T10:58:01.919Z</time></trkpt><trkpt lat="42.5356005" lon="12.8464801"><ele>738.6666666666666</ele><time>2026-05-01T10:58:02.919Z</time></trkpt><trkpt lat="42.5356111" lon="12.8467132"><ele>739.3333333333333</ele><time>2026-05-01T10:58:03.919Z</time></trkpt><trkpt lat="42.5356026" lon="12.8469586"><ele>740.0</ele><time>2026-05-01T10:58:04.919Z</time></trkpt><trkpt lat="42.5355667" lon="12.8472204"><ele>737.6666666666666</ele><time>2026-05-01T10:58:05.919Z</time></trkpt><trkpt lat="42.5355289" lon="12.8475085"><ele>735.3333333333334</ele><time>2026-05-01T10:58:06.918Z</time></trkpt><trkpt lat="42.5355001" lon="12.847778"><ele>733.0</ele><time>2026-05-01T10:58:07.918Z</time></trkpt><trkpt lat="42.5354727" lon="12.8480499"><ele>732.6666666666667</ele><time>2026-05-01T10:58:08.918Z</time></trkpt><trkpt lat="42.5354551" lon="12.8483315"><ele>732.3333333333334</ele><time>2026-05-01T10:58:09.919Z</time></trkpt><trkpt lat="42.5354696" lon="12.8486356"><ele>732.0</ele><time>2026-05-01T10:58:10.919Z</time></trkpt><trkpt lat="42.5355175" lon="12.8489473"><ele>734.0</ele><time>2026-05-01T10:58:11.919Z</time></trkpt><trkpt lat="42.5355699" lon="12.8492285"><ele>736.0</ele><time>2026-05-01T10:58:12.919Z</time></trkpt><trkpt lat="42.5356093" lon="12.849493"><ele>738.0</ele><time>2026-05-01T10:58:13.919Z</time></trkpt><trkpt lat="42.5356367" lon="12.8497684"><ele>740.6666666666666</ele><time>2026-05-01T10:58:14.918Z</time></trkpt><trkpt lat="42.5356434" lon="12.8500651"><ele>743.3333333333333</ele><time>2026-05-01T10:58:15.919Z</time></trkpt><trkpt lat="42.5356553" lon="12.8503709"><ele>746.0</ele><time>2026-05-01T10:58:16.919Z</time></trkpt><trkpt lat="42.5356741" lon="12.8506745"><ele>749.0</ele><time>2026-05-01T10:58:17.919Z</time></trkpt><trkpt lat="42.5357014" lon="12.8509678"><ele>752.0</ele><time>2026-05-01T10:58:18.919Z</time></trkpt><trkpt lat="42.5357398" lon="12.8512402"><ele>755.0</ele><time>2026-05-01T10:58:19.919Z</time></trkpt><trkpt lat="42.5357899" lon="12.8514727"><ele>755.0</ele><time>2026-05-01T10:58:20.919Z</time></trkpt><trkpt lat="42.5358304" lon="12.8516963"><ele>755.0</ele><time>2026-05-01T10:58:21.919Z</time></trkpt><trkpt lat="42.5358499" lon="12.851949"><ele>755.0</ele><time>2026-05-01T10:58:22.918Z</time></trkpt><trkpt lat="42.5358504" lon="12.8522547"><ele>756.0</ele><time>2026-05-01T10:58:23.919Z</time></trkpt><trkpt lat="42.5358541" lon="12.8525621"><ele>757.0</ele><time>2026-05-01T10:58:24.919Z</time></trkpt><trkpt lat="42.5358766" lon="12.852864"><ele>759.0</ele><time>2026-05-01T10:58:25.919Z</time></trkpt><trkpt lat="42.5358889" lon="12.8531448"><ele>761.0</ele><time>2026-05-01T10:58:26.919Z</time></trkpt><trkpt lat="42.5358824" lon="12.8534287"><ele>763.0</ele><time>2026-05-01T10:58:27.919Z</time></trkpt><trkpt lat="42.5358729" lon="12.8537294"><ele>764.0</ele><time>2026-05-01T10:58:28.919Z</time></trkpt><trkpt lat="42.5358755" lon="12.8540489"><ele>765.0</ele><time>2026-05-01T10:58:29.918Z</time></trkpt><trkpt lat="42.5358889" lon="12.8543691"><ele>763.3333333333334</ele><time>2026-05-01T10:58:30.918Z</time></trkpt><trkpt lat="42.5358882" lon="12.8546589"><ele>761.6666666666667</ele><time>2026-05-01T10:58:31.919Z</time></trkpt><trkpt lat="42.53588" lon="12.8549475"><ele>760.0</ele><time>2026-05-01T10:58:32.918Z</time></trkpt><trkpt lat="42.5358592" lon="12.8552271"><ele>760.0</ele><time>2026-05-01T10:58:33.919Z</time></trkpt><trkpt lat="42.5358268" lon="12.8554841"><ele>760.0</ele><time>2026-05-01T10:58:34.919Z</time></trkpt><trkpt lat="42.5358041" lon="12.8557228"><ele>760.0</ele><time>2026-05-01T10:58:35.919Z</time></trkpt><trkpt lat="42.5358071" lon="12.8559908"><ele>760.0</ele><time>2026-05-01T10:58:36.919Z</time></trkpt><trkpt lat="42.535829" lon="12.8562634"><ele>760.0</ele><time>2026-05-01T10:58:37.919Z</time></trkpt><trkpt lat="42.5358722" lon="12.8565234"><ele>760.0</ele><time>2026-05-01T10:58:38.919Z</time></trkpt><trkpt lat="42.5358919" lon="12.8567242"><ele>760.8</ele><time>2026-05-01T10:58:39.919Z</time></trkpt><trkpt lat="42.5358809" lon="12.8568984"><ele>761.6</ele><time>2026-05-01T10:58:40.919Z</time></trkpt><trkpt lat="42.5358524" lon="12.8570518"><ele>762.4000000000001</ele><time>2026-05-01T10:58:41.919Z</time></trkpt><trkpt lat="42.5358214" lon="12.8571818"><ele>763.2</ele><time>2026-05-01T10:58:42.919Z</time></trkpt><trkpt lat="42.5357997" lon="12.8572981"><ele>764.0</ele><time>2026-05-01T10:58:43.919Z</time></trkpt><trkpt lat="42.5358095" lon="12.8574206"><ele>764.0</ele><time>2026-05-01T10:58:44.918Z</time></trkpt><trkpt lat="42.5358684" lon="12.8574847"><ele>764.0</ele><time>2026-05-01T10:58:45.918Z</time></trkpt><trkpt lat="42.5360764" lon="12.8574649"><ele>764.0</ele><time>2026-05-01T10:58:46.919Z</time></trkpt><trkpt lat="42.5362543" lon="12.8573816"><ele>767.0</ele><time>2026-05-01T10:58:47.919Z</time></trkpt><trkpt lat="42.5363939" lon="12.8572466"><ele>770.0</ele><time>2026-05-01T10:58:48.918Z</time></trkpt><trkpt lat="42.5365345" lon="12.8570666"><ele>773.0</ele><time>2026-05-01T10:58:49.919Z</time></trkpt><trkpt lat="42.5366599" lon="12.8568641"><ele>766.0</ele><time>2026-05-01T10:58:50.919Z</time></trkpt><trkpt lat="42.536757" lon="12.8566336"><ele>759.0</ele><time>2026-05-01T10:58:51.918Z</time></trkpt><trkpt lat="42.5368087" lon="12.8563944"><ele>752.0</ele><time>2026-05-01T10:58:52.918Z</time></trkpt><trkpt lat="42.536858" lon="12.8561793"><ele>752.0</ele><time>2026-05-01T10:58:53.919Z</time></trkpt><trkpt lat="42.5369107" lon="12.8559623"><ele>752.0</ele><time>2026-05-01T10:58:54.918Z</time></trkpt><trkpt lat="42.5370052" lon="12.8557598"><ele>752.0</ele><time>2026-05-01T10:58:55.919Z</time></trkpt><trkpt lat="42.5371391" lon="12.8555603"><ele>753.3333333333333</ele><time>2026-05-01T10:58:56.919Z</time></trkpt><trkpt lat="42.5372823" lon="12.8553588"><ele>754.6666666666666</ele><time>2026-05-01T10:58:57.919Z</time></trkpt><trkpt lat="42.5374013" lon="12.8551821"><ele>756.0</ele><time>2026-05-01T10:58:58.919Z</time></trkpt><trkpt lat="42.53751" lon="12.8550358"><ele>756.0</ele><time>2026-05-01T10:58:59.918Z</time></trkpt><trkpt lat="42.5375916" lon="12.8548665"><ele>756.0</ele><time>2026-05-01T10:59:00.919Z</time></trkpt><trkpt lat="42.537643" lon="12.8546429"><ele>756.0</ele><time>2026-05-01T10:59:01.918Z</time></trkpt><trkpt lat="42.5377045" lon="12.8544129"><ele>749.0</ele><time>2026-05-01T10:59:02.919Z</time></trkpt><trkpt lat="42.5377855" lon="12.8541842"><ele>742.0</ele><time>2026-05-01T10:59:03.918Z</time></trkpt><trkpt lat="42.5378813" lon="12.853967"><ele>735.0</ele><time>2026-05-01T10:59:04.919Z</time></trkpt><trkpt lat="42.5379902" lon="12.8537847"><ele>745.6666666666666</ele><time>2026-05-01T10:59:05.919Z</time></trkpt><trkpt lat="42.538124" lon="12.853659"><ele>756.3333333333333</ele><time>2026-05-01T10:59:06.919Z</time></trkpt><trkpt lat="42.5382515" lon="12.8535509"><ele>767.0</ele><time>2026-05-01T10:59:07.918Z</time></trkpt><trkpt lat="42.5383419" lon="12.8533817"><ele>767.0</ele><time>2026-05-01T10:59:08.919Z</time></trkpt><trkpt lat="42.5383787" lon="12.8531523"><ele>767.0</ele><time>2026-05-01T10:59:09.919Z</time></trkpt><trkpt lat="42.5384212" lon="12.8528904"><ele>767.0</ele><time>2026-05-01T10:59:10.919Z</time></trkpt><trkpt lat="42.5384768" lon="12.8526174"><ele>761.6666666666666</ele><time>2026-05-01T10:59:11.918Z</time></trkpt><trkpt lat="42.5385431" lon="12.8523326"><ele>756.3333333333334</ele><time>2026-05-01T10:59:12.919Z</time></trkpt><trkpt lat="42.5386167" lon="12.852046"><ele>751.0</ele><time>2026-05-01T10:59:13.919Z</time></trkpt><trkpt lat="42.5387103" lon="12.8517524"><ele>773.0</ele><time>2026-05-01T10:59:14.919Z</time></trkpt><trkpt lat="42.5388137" lon="12.8514479"><ele>795.0</ele><time>2026-05-01T10:59:15.918Z</time></trkpt><trkpt lat="42.5389313" lon="12.8511359"><ele>787.5</ele><time>2026-05-01T10:59:16.919Z</time></trkpt><trkpt lat="42.5390468" lon="12.8508145"><ele>780.0</ele><time>2026-05-01T10:59:17.919Z</time></trkpt><trkpt lat="42.5391278" lon="12.8504854"><ele>780.0</ele><time>2026-05-01T10:59:18.918Z</time></trkpt><trkpt lat="42.5392006" lon="12.8501946"><ele>780.0</ele><time>2026-05-01T10:59:19.919Z</time></trkpt><trkpt lat="42.5392713" lon="12.849929"><ele>780.0</ele><time>2026-05-01T10:59:20.919Z</time></trkpt><trkpt lat="42.5393364" lon="12.8496784"><ele>776.5</ele><time>2026-05-01T10:59:21.919Z</time></trkpt><trkpt lat="42.5394186" lon="12.8494895"><ele>773.0</ele><time>2026-05-01T10:59:22.918Z</time></trkpt><trkpt lat="42.5395095" lon="12.8493529"><ele>769.5</ele><time>2026-05-01T10:59:23.919Z</time></trkpt><trkpt lat="42.5396265" lon="12.8492957"><ele>766.0</ele><time>2026-05-01T10:59:24.918Z</time></trkpt><trkpt lat="42.5397971" lon="12.849309"><ele>776.6666666666667</ele><time>2026-05-01T10:59:25.918Z</time></trkpt><trkpt lat="42.5399701" lon="12.8493468"><ele>787.3333333333334</ele><time>2026-05-01T10:59:26.919Z</time></trkpt><trkpt lat="42.5401345" lon="12.8494246"><ele>798.0</ele><time>2026-05-01T10:59:27.919Z</time></trkpt><trkpt lat="42.5402885" lon="12.8495126"><ele>793.3333333333333</ele><time>2026-05-01T10:59:28.919Z</time></trkpt><trkpt lat="42.5404345" lon="12.8496564"><ele>788.6666666666666</ele><time>2026-05-01T10:59:29.919Z</time></trkpt><trkpt lat="42.5405938" lon="12.8498642"><ele>784.0</ele><time>2026-05-01T10:59:30.918Z</time></trkpt><trkpt lat="42.5407712" lon="12.850075"><ele>795.0</ele><time>2026-05-01T10:59:31.919Z</time></trkpt><trkpt lat="42.5409642" lon="12.8502518"><ele>806.0</ele><time>2026-05-01T10:59:32.919Z</time></trkpt><trkpt lat="42.5411873" lon="12.850383"><ele>801.0</ele><time>2026-05-01T10:59:33.918Z</time></trkpt><trkpt lat="42.5413976" lon="12.8505008"><ele>796.0</ele><time>2026-05-01T10:59:34.919Z</time></trkpt><trkpt lat="42.5415978" lon="12.8506124"><ele>791.0</ele><time>2026-05-01T10:59:35.919Z</time></trkpt><trkpt lat="42.5417844" lon="12.8507283"><ele>791.0</ele><time>2026-05-01T10:59:36.918Z</time></trkpt><trkpt lat="42.5419756" lon="12.8508744"><ele>791.0</ele><time>2026-05-01T10:59:37.918Z</time></trkpt><trkpt lat="42.5421595" lon="12.8510872"><ele>791.5</ele><time>2026-05-01T10:59:38.919Z</time></trkpt><trkpt lat="42.542326" lon="12.8513546"><ele>792.0</ele><time>2026-05-01T10:59:39.919Z</time></trkpt><trkpt lat="42.5424676" lon="12.8516513"><ele>803.5</ele><time>2026-05-01T10:59:40.918Z</time></trkpt><trkpt lat="42.5426059" lon="12.8519698"><ele>815.0</ele><time>2026-05-01T10:59:41.919Z</time></trkpt><trkpt lat="42.5427527" lon="12.8522882"><ele>816.5</ele><time>2026-05-01T10:59:42.919Z</time></trkpt><trkpt lat="42.542908" lon="12.8526048"><ele>818.0</ele><time>2026-05-01T10:59:43.919Z</time></trkpt><trkpt lat="42.5430794" lon="12.8528611"><ele>818.0</ele><time>2026-05-01T10:59:44.919Z</time></trkpt><trkpt lat="42.5432382" lon="12.853069"><ele>818.0</ele><time>2026-05-01T10:59:45.919Z</time></trkpt><trkpt lat="42.5433849" lon="12.8532177"><ele>818.0</ele><time>2026-05-01T10:59:46.919Z</time></trkpt><trkpt lat="42.5435298" lon="12.8533013"><ele>818.0</ele><time>2026-05-01T10:59:47.919Z</time></trkpt><trkpt lat="42.5437055" lon="12.8533441"><ele>818.0</ele><time>2026-05-01T10:59:48.918Z</time></trkpt><trkpt lat="42.5439164" lon="12.8534"><ele>818.0</ele><time>2026-05-01T10:59:49.919Z</time></trkpt><trkpt lat="42.5441425" lon="12.8534423"><ele>824.0</ele><time>2026-05-01T10:59:50.919Z</time></trkpt><trkpt lat="42.5444032" lon="12.8534949"><ele>830.0</ele><time>2026-05-01T10:59:51.919Z</time></trkpt><trkpt lat="42.544657" lon="12.8535483"><ele>830.0</ele><time>2026-05-01T10:59:52.919Z</time></trkpt><trkpt lat="42.5448667" lon="12.853595"><ele>830.0</ele><time>2026-05-01T10:59:53.919Z</time></trkpt><trkpt lat="42.5450202" lon="12.8536457"><ele>830.0</ele><time>2026-05-01T10:59:54.918Z</time></trkpt><trkpt lat="42.5451472" lon="12.8537188"><ele>830.0</ele><time>2026-05-01T10:59:55.919Z</time></trkpt><trkpt lat="42.5452426" lon="12.8538538"><ele>830.0</ele><time>2026-05-01T10:59:56.919Z</time></trkpt><trkpt lat="42.5453576" lon="12.8540375"><ele>830.0</ele><time>2026-05-01T10:59:57.919Z</time></trkpt><trkpt lat="42.5454974" lon="12.8542336"><ele>827.6666666666667</ele><time>2026-05-01T10:59:58.918Z</time></trkpt><trkpt lat="42.5456507" lon="12.8544357"><ele>825.3333333333333</ele><time>2026-05-01T10:59:59.919Z</time></trkpt><trkpt lat="42.545789" lon="12.8546615"><ele>823.0</ele><time>2026-05-01T11:00:00.918Z</time></trkpt><trkpt lat="42.545905" lon="12.854932"><ele>832.5</ele><time>2026-05-01T11:00:01.918Z</time></trkpt><trkpt lat="42.5460372" lon="12.8551954"><ele>842.0</ele><time>2026-05-01T11:00:02.918Z</time></trkpt><trkpt lat="42.5461797" lon="12.8554506"><ele>832.5</ele><time>2026-05-01T11:00:03.919Z</time></trkpt><trkpt lat="42.5463482" lon="12.855679"><ele>823.0</ele><time>2026-05-01T11:00:04.919Z</time></trkpt><trkpt lat="42.5465297" lon="12.855885"><ele>833.0</ele><time>2026-05-01T11:00:05.919Z</time></trkpt><trkpt lat="42.5466971" lon="12.8560682"><ele>843.0</ele><time>2026-05-01T11:00:06.918Z</time></trkpt><trkpt lat="42.5468641" lon="12.8561708"><ele>853.0</ele><time>2026-05-01T11:00:07.919Z</time></trkpt><trkpt lat="42.5470335" lon="12.8561936"><ele>849.6666666666666</ele><time>2026-05-01T11:00:08.918Z</time></trkpt><trkpt lat="42.5472055" lon="12.8561128"><ele>846.3333333333333</ele><time>2026-05-01T11:00:09.919Z</time></trkpt><trkpt lat="42.5473499" lon="12.8560161"><ele>843.0</ele><time>2026-05-01T11:00:10.919Z</time></trkpt><trkpt lat="42.547476" lon="12.8559489"><ele>843.0</ele><time>2026-05-01T11:00:11.919Z</time></trkpt><trkpt lat="42.5475893" lon="12.8559098"><ele>843.0</ele><time>2026-05-01T11:00:12.919Z</time></trkpt><trkpt lat="42.547691" lon="12.8559554"><ele>843.0</ele><time>2026-05-01T11:00:13.919Z</time></trkpt><trkpt lat="42.5477955" lon="12.8560608"><ele>843.0</ele><time>2026-05-01T11:00:14.918Z</time></trkpt><trkpt lat="42.5479001" lon="12.8562559"><ele>841.6666666666667</ele><time>2026-05-01T11:00:15.919Z</time></trkpt><trkpt lat="42.5480004" lon="12.8564864"><ele>840.3333333333334</ele><time>2026-05-01T11:00:16.918Z</time></trkpt><trkpt lat="42.5480516" lon="12.8567113"><ele>839.0</ele><time>2026-05-01T11:00:17.918Z</time></trkpt><trkpt lat="42.5480815" lon="12.8569535"><ele>839.0</ele><time>2026-05-01T11:00:18.919Z</time></trkpt><trkpt lat="42.5481192" lon="12.8571611"><ele>839.0</ele><time>2026-05-01T11:00:19.919Z</time></trkpt><trkpt lat="42.5482171" lon="12.8573461"><ele>839.0</ele><time>2026-05-01T11:00:20.919Z</time></trkpt><trkpt lat="42.5483568" lon="12.857509"><ele>845.0</ele><time>2026-05-01T11:00:21.918Z</time></trkpt><trkpt lat="42.5485038" lon="12.8576524"><ele>851.0</ele><time>2026-05-01T11:00:22.919Z</time></trkpt><trkpt lat="42.5486294" lon="12.8577706"><ele>857.0</ele><time>2026-05-01T11:00:23.919Z</time></trkpt><trkpt lat="42.5487296" lon="12.8578845"><ele>857.0</ele><time>2026-05-01T11:00:24.919Z</time></trkpt><trkpt lat="42.5487818" lon="12.8580057"><ele>857.0</ele><time>2026-05-01T11:00:25.919Z</time></trkpt><trkpt lat="42.5487765" lon="12.8581871"><ele>857.0</ele><time>2026-05-01T11:00:26.919Z</time></trkpt><trkpt lat="42.5486968" lon="12.8584158"><ele>857.0</ele><time>2026-05-01T11:00:27.918Z</time></trkpt><trkpt lat="42.5486283" lon="12.8586481"><ele>858.4000000000001</ele><time>2026-05-01T11:00:28.919Z</time></trkpt><trkpt lat="42.5485739" lon="12.85885"><ele>859.8000000000001</ele><time>2026-05-01T11:00:29.919Z</time></trkpt><trkpt lat="42.5485407" lon="12.8589799"><ele>861.2</ele><time>2026-05-01T11:00:30.918Z</time></trkpt><trkpt lat="42.5484924" lon="12.8590491"><ele>862.6</ele><time>2026-05-01T11:00:32.919Z</time></trkpt><trkpt lat="42.5484361" lon="12.859124"><ele>864.0</ele><time>2026-05-01T11:01:19.919Z</time></trkpt><trkpt lat="42.5484608" lon="12.8592636"><ele>866.5</ele><time>2026-05-01T11:01:20.919Z</time></trkpt><trkpt lat="42.5485258" lon="12.8593817"><ele>869.0</ele><time>2026-05-01T11:01:21.919Z</time></trkpt><trkpt lat="42.5486243" lon="12.8594714"><ele>871.5</ele><time>2026-05-01T11:01:22.918Z</time></trkpt><trkpt lat="42.5487806" lon="12.8595086"><ele>874.0</ele><time>2026-05-01T11:01:23.918Z</time></trkpt><trkpt lat="42.5489416" lon="12.8595223"><ele>874.0</ele><time>2026-05-01T11:01:24.919Z</time></trkpt><trkpt lat="42.5491303" lon="12.8595226"><ele>874.0</ele><time>2026-05-01T11:01:25.919Z</time></trkpt><trkpt lat="42.5493186" lon="12.8595071"><ele>874.0</ele><time>2026-05-01T11:01:26.919Z</time></trkpt><trkpt lat="42.5495145" lon="12.8594718"><ele>872.3333333333333</ele><time>2026-05-01T11:01:27.919Z</time></trkpt><trkpt lat="42.549691" lon="12.8594444"><ele>870.6666666666667</ele><time>2026-05-01T11:01:28.919Z</time></trkpt><trkpt lat="42.5498584" lon="12.8594369"><ele>869.0</ele><time>2026-05-01T11:01:29.919Z</time></trkpt><trkpt lat="42.5500103" lon="12.859448"><ele>869.0</ele><time>2026-05-01T11:01:30.918Z</time></trkpt><trkpt lat="42.5501303" lon="12.8594604"><ele>869.0</ele><time>2026-05-01T11:01:31.919Z</time></trkpt><trkpt lat="42.5502289" lon="12.8594913"><ele>869.0</ele><time>2026-05-01T11:01:32.919Z</time></trkpt><trkpt lat="42.5503353" lon="12.859565"><ele>869.0</ele><time>2026-05-01T11:01:33.918Z</time></trkpt><trkpt lat="42.5504566" lon="12.8596922"><ele>869.0</ele><time>2026-05-01T11:01:34.919Z</time></trkpt><trkpt lat="42.550581" lon="12.8598315"><ele>869.0</ele><time>2026-05-01T11:01:35.919Z</time></trkpt><trkpt lat="42.5507076" lon="12.860006"><ele>869.0</ele><time>2026-05-01T11:01:36.919Z</time></trkpt><trkpt lat="42.5508317" lon="12.8601939"><ele>869.0</ele><time>2026-05-01T11:01:37.919Z</time></trkpt><trkpt lat="42.5509481" lon="12.8603954"><ele>869.0</ele><time>2026-05-01T11:01:38.918Z</time></trkpt><trkpt lat="42.5510439" lon="12.8605746"><ele>869.0</ele><time>2026-05-01T11:01:39.918Z</time></trkpt><trkpt lat="42.5510987" lon="12.8607577"><ele>870.3333333333334</ele><time>2026-05-01T11:01:40.919Z</time></trkpt><trkpt lat="42.5511128" lon="12.8609496"><ele>871.6666666666667</ele><time>2026-05-01T11:01:41.918Z</time></trkpt><trkpt lat="42.5510847" lon="12.8611521"><ele>873.0</ele><time>2026-05-01T11:01:42.919Z</time></trkpt><trkpt lat="42.5510275" lon="12.861377"><ele>873.0</ele><time>2026-05-01T11:01:43.918Z</time></trkpt><trkpt lat="42.5509625" lon="12.8616366"><ele>873.0</ele><time>2026-05-01T11:01:44.919Z</time></trkpt><trkpt lat="42.5508926" lon="12.8619065"><ele>873.0</ele><time>2026-05-01T11:01:45.919Z</time></trkpt><trkpt lat="42.5508358" lon="12.8621556"><ele>874.0</ele><time>2026-05-01T11:01:46.919Z</time></trkpt><trkpt lat="42.550791" lon="12.8623499"><ele>875.0</ele><time>2026-05-01T11:01:47.919Z</time></trkpt><trkpt lat="42.5507534" lon="12.8625154"><ele>876.0</ele><time>2026-05-01T11:01:48.919Z</time></trkpt><trkpt lat="42.550747" lon="12.8626509"><ele>877.0</ele><time>2026-05-01T11:01:49.919Z</time></trkpt><trkpt lat="42.5508071" lon="12.8627433"><ele>877.0</ele><time>2026-05-01T11:01:50.919Z</time></trkpt><trkpt lat="42.5508863" lon="12.8628066"><ele>877.0</ele><time>2026-05-01T11:01:51.918Z</time></trkpt><trkpt lat="42.5510218" lon="12.8628032"><ele>877.0</ele><time>2026-05-01T11:01:52.919Z</time></trkpt><trkpt lat="42.5511948" lon="12.8627102"><ele>877.0</ele><time>2026-05-01T11:01:53.919Z</time></trkpt><trkpt lat="42.5513735" lon="12.8625713"><ele>877.0</ele><time>2026-05-01T11:01:54.918Z</time></trkpt><trkpt lat="42.55154" lon="12.8624284"><ele>877.0</ele><time>2026-05-01T11:01:55.919Z</time></trkpt><trkpt lat="42.5516917" lon="12.8622971"><ele>877.0</ele><time>2026-05-01T11:01:56.919Z</time></trkpt><trkpt lat="42.5518188" lon="12.8621859"><ele>877.0</ele><time>2026-05-01T11:01:57.918Z</time></trkpt><trkpt lat="42.5519268" lon="12.8621261"><ele>877.0</ele><time>2026-05-01T11:01:58.919Z</time></trkpt><trkpt lat="42.5520483" lon="12.8621363"><ele>877.0</ele><time>2026-05-01T11:01:59.919Z</time></trkpt><trkpt lat="42.5521484" lon="12.862218"><ele>877.0</ele><time>2026-05-01T11:02:00.918Z</time></trkpt><trkpt lat="42.5522237" lon="12.8623449"><ele>880.6666666666666</ele><time>2026-05-01T11:02:01.919Z</time></trkpt><trkpt lat="42.5522596" lon="12.862524"><ele>884.3333333333333</ele><time>2026-05-01T11:02:02.918Z</time></trkpt><trkpt lat="42.5522873" lon="12.8627601"><ele>888.0</ele><time>2026-05-01T11:02:03.918Z</time></trkpt><trkpt lat="42.5523499" lon="12.8629992"><ele>888.0</ele><time>2026-05-01T11:02:04.919Z</time></trkpt><trkpt lat="42.552444" lon="12.8632496"><ele>888.0</ele><time>2026-05-01T11:02:05.919Z</time></trkpt><trkpt lat="42.5525401" lon="12.8634796"><ele>888.0</ele><time>2026-05-01T11:02:06.918Z</time></trkpt><trkpt lat="42.5526352" lon="12.8636889"><ele>885.3333333333333</ele><time>2026-05-01T11:02:07.919Z</time></trkpt><trkpt lat="42.5527681" lon="12.8638534"><ele>882.6666666666666</ele><time>2026-05-01T11:02:08.918Z</time></trkpt><trkpt lat="42.5529498" lon="12.8639943"><ele>880.0</ele><time>2026-05-01T11:02:09.919Z</time></trkpt><trkpt lat="42.5531456" lon="12.8641329"><ele>880.0</ele><time>2026-05-01T11:02:10.918Z</time></trkpt><trkpt lat="42.5533066" lon="12.8642733"><ele>880.0</ele><time>2026-05-01T11:02:11.919Z</time></trkpt><trkpt lat="42.5534504" lon="12.8644344"><ele>880.0</ele><time>2026-05-01T11:02:12.919Z</time></trkpt><trkpt lat="42.553555" lon="12.864583"><ele>886.0</ele><time>2026-05-01T11:02:13.919Z</time></trkpt><trkpt lat="42.5536253" lon="12.8647133"><ele>892.0</ele><time>2026-05-01T11:02:14.919Z</time></trkpt><trkpt lat="42.5536657" lon="12.8648356"><ele>898.0</ele><time>2026-05-01T11:02:15.919Z</time></trkpt><trkpt lat="42.5536369" lon="12.8650155"><ele>904.0</ele><time>2026-05-01T11:02:16.919Z</time></trkpt><trkpt lat="42.5535742" lon="12.8652126"><ele>906.0</ele><time>2026-05-01T11:02:17.918Z</time></trkpt><trkpt lat="42.5535081" lon="12.8654186"><ele>908.0</ele><time>2026-05-01T11:02:18.919Z</time></trkpt><trkpt lat="42.5534486" lon="12.8656164"><ele>910.0</ele><time>2026-05-01T11:02:19.919Z</time></trkpt><trkpt lat="42.5534158" lon="12.8657817"><ele>912.0</ele><time>2026-05-01T11:02:20.919Z</time></trkpt><trkpt lat="42.5534105" lon="12.8659237"><ele>913.75</ele><time>2026-05-01T11:02:21.919Z</time></trkpt><trkpt lat="42.5534728" lon="12.8660378"><ele>915.5</ele><time>2026-05-01T11:02:22.919Z</time></trkpt><trkpt lat="42.5535832" lon="12.8661273"><ele>917.25</ele><time>2026-05-01T11:02:23.918Z</time></trkpt><trkpt lat="42.5537243" lon="12.8661795"><ele>919.0</ele><time>2026-05-01T11:02:24.919Z</time></trkpt><trkpt lat="42.5539152" lon="12.8661976"><ele>919.0</ele><time>2026-05-01T11:02:25.919Z</time></trkpt><trkpt lat="42.5541469" lon="12.8661945"><ele>919.0</ele><time>2026-05-01T11:02:26.919Z</time></trkpt><trkpt lat="42.5543769" lon="12.8661796"><ele>910.6666666666666</ele><time>2026-05-01T11:02:27.919Z</time></trkpt><trkpt lat="42.5545739" lon="12.8661464"><ele>902.3333333333333</ele><time>2026-05-01T11:02:28.919Z</time></trkpt><trkpt lat="42.5547384" lon="12.8661002"><ele>894.0</ele><time>2026-05-01T11:02:29.918Z</time></trkpt><trkpt lat="42.5548468" lon="12.8660906"><ele>894.0</ele><time>2026-05-01T11:02:30.919Z</time></trkpt><trkpt lat="42.5549476" lon="12.8660894"><ele>894.0</ele><time>2026-05-01T11:02:31.919Z</time></trkpt><trkpt lat="42.5550252" lon="12.866162"><ele>894.0</ele><time>2026-05-01T11:02:32.919Z</time></trkpt><trkpt lat="42.5550714" lon="12.8662994"><ele>894.0</ele><time>2026-05-01T11:02:33.918Z</time></trkpt><trkpt lat="42.555064" lon="12.8664983"><ele>894.0</ele><time>2026-05-01T11:02:34.918Z</time></trkpt><trkpt lat="42.5550282" lon="12.8667061"><ele>894.0</ele><time>2026-05-01T11:02:35.919Z</time></trkpt><trkpt lat="42.5549242" lon="12.8669496"><ele>894.0</ele><time>2026-05-01T11:02:36.918Z</time></trkpt><trkpt lat="42.5548171" lon="12.867153"><ele>898.5</ele><time>2026-05-01T11:02:37.919Z</time></trkpt><trkpt lat="42.554726" lon="12.867316"><ele>903.0</ele><time>2026-05-01T11:02:38.918Z</time></trkpt><trkpt lat="42.5547429" lon="12.8674533"><ele>907.5</ele><time>2026-05-01T11:02:39.919Z</time></trkpt><trkpt lat="42.5548206" lon="12.867532"><ele>912.0</ele><time>2026-05-01T11:02:40.919Z</time></trkpt><trkpt lat="42.5549477" lon="12.8675548"><ele>912.0</ele><time>2026-05-01T11:02:41.919Z</time></trkpt><trkpt lat="42.5551018" lon="12.86754"><ele>912.0</ele><time>2026-05-01T11:02:42.919Z</time></trkpt><trkpt lat="42.5552858" lon="12.8675185"><ele>912.0</ele><time>2026-05-01T11:02:43.918Z</time></trkpt><trkpt lat="42.5554908" lon="12.8675004"><ele>912.3333333333333</ele><time>2026-05-01T11:02:44.919Z</time></trkpt><trkpt lat="42.555694" lon="12.8674673"><ele>912.6666666666666</ele><time>2026-05-01T11:02:45.918Z</time></trkpt><trkpt lat="42.5558812" lon="12.8673932"><ele>913.0</ele><time>2026-05-01T11:02:46.919Z</time></trkpt><trkpt lat="42.5560499" lon="12.8673247"><ele>913.0</ele><time>2026-05-01T11:02:47.919Z</time></trkpt><trkpt lat="42.5561767" lon="12.8672816"><ele>913.0</ele><time>2026-05-01T11:02:48.919Z</time></trkpt><trkpt lat="42.5563138" lon="12.8672793"><ele>913.0</ele><time>2026-05-01T11:02:49.918Z</time></trkpt><trkpt lat="42.556438" lon="12.8673301"><ele>913.0</ele><time>2026-05-01T11:02:50.919Z</time></trkpt><trkpt lat="42.5565397" lon="12.8674429"><ele>920.0</ele><time>2026-05-01T11:02:51.918Z</time></trkpt><trkpt lat="42.5566207" lon="12.8676205"><ele>927.0</ele><time>2026-05-01T11:02:52.918Z</time></trkpt><trkpt lat="42.556701" lon="12.8678152"><ele>934.0</ele><time>2026-05-01T11:02:53.919Z</time></trkpt><trkpt lat="42.5568106" lon="12.8679826"><ele>934.0</ele><time>2026-05-01T11:02:54.918Z</time></trkpt><trkpt lat="42.5569538" lon="12.8680879"><ele>934.0</ele><time>2026-05-01T11:02:55.918Z</time></trkpt><trkpt lat="42.5571009" lon="12.8681634"><ele>934.0</ele><time>2026-05-01T11:02:56.919Z</time></trkpt><trkpt lat="42.5572383" lon="12.8682413"><ele>929.75</ele><time>2026-05-01T11:02:57.918Z</time></trkpt><trkpt lat="42.5573431" lon="12.8683359"><ele>925.5</ele><time>2026-05-01T11:02:58.919Z</time></trkpt><trkpt lat="42.5573718" lon="12.8684941"><ele>921.25</ele><time>2026-05-01T11:02:59.919Z</time></trkpt><trkpt lat="42.5573467" lon="12.8686953"><ele>917.0</ele><time>2026-05-01T11:03:00.919Z</time></trkpt><trkpt lat="42.5573159" lon="12.8688969"><ele>917.0</ele><time>2026-05-01T11:03:01.919Z</time></trkpt><trkpt lat="42.5572641" lon="12.8691024"><ele>917.0</ele><time>2026-05-01T11:03:02.919Z</time></trkpt><trkpt lat="42.557245" lon="12.8692798"><ele>917.0</ele><time>2026-05-01T11:03:03.919Z</time></trkpt><trkpt lat="42.557266" lon="12.8694265"><ele>917.0</ele><time>2026-05-01T11:03:04.919Z</time></trkpt><trkpt lat="42.5573335" lon="12.8695419"><ele>924.5</ele><time>2026-05-01T11:03:05.919Z</time></trkpt><trkpt lat="42.5574392" lon="12.8696548"><ele>932.0</ele><time>2026-05-01T11:03:06.919Z</time></trkpt><trkpt lat="42.5575495" lon="12.8697775"><ele>939.5</ele><time>2026-05-01T11:03:07.918Z</time></trkpt><trkpt lat="42.5576566" lon="12.8699247"><ele>947.0</ele><time>2026-05-01T11:03:08.919Z</time></trkpt><trkpt lat="42.5577481" lon="12.8701515"><ele>936.5</ele><time>2026-05-01T11:03:09.918Z</time></trkpt><trkpt lat="42.5578378" lon="12.8704532"><ele>926.0</ele><time>2026-05-01T11:03:10.919Z</time></trkpt><trkpt lat="42.5579364" lon="12.8707312"><ele>936.6666666666667</ele><time>2026-05-01T11:03:11.919Z</time></trkpt><trkpt lat="42.5580367" lon="12.8709903"><ele>947.3333333333333</ele><time>2026-05-01T11:03:12.919Z</time></trkpt><trkpt lat="42.5581288" lon="12.8712273"><ele>958.0</ele><time>2026-05-01T11:03:13.919Z</time></trkpt><trkpt lat="42.5582596" lon="12.8714243"><ele>958.0</ele><time>2026-05-01T11:03:14.918Z</time></trkpt><trkpt lat="42.5584006" lon="12.8715599"><ele>958.0</ele><time>2026-05-01T11:03:15.918Z</time></trkpt><trkpt lat="42.5585368" lon="12.8716746"><ele>958.0</ele><time>2026-05-01T11:03:16.919Z</time></trkpt><trkpt lat="42.5586585" lon="12.8717926"><ele>960.75</ele><time>2026-05-01T11:03:17.919Z</time></trkpt><trkpt lat="42.5587624" lon="12.8719159"><ele>963.5</ele><time>2026-05-01T11:03:18.919Z</time></trkpt><trkpt lat="42.5587941" lon="12.8720553"><ele>966.25</ele><time>2026-05-01T11:03:19.918Z</time></trkpt><trkpt lat="42.5587542" lon="12.872206"><ele>969.0</ele><time>2026-05-01T11:03:20.919Z</time></trkpt><trkpt lat="42.5586693" lon="12.872389"><ele>969.0</ele><time>2026-05-01T11:03:21.919Z</time></trkpt><trkpt lat="42.5586024" lon="12.8725817"><ele>969.0</ele><time>2026-05-01T11:03:22.919Z</time></trkpt><trkpt lat="42.5585363" lon="12.8728329"><ele>969.0</ele><time>2026-05-01T11:03:23.919Z</time></trkpt><trkpt lat="42.5584794" lon="12.8731066"><ele>964.6666666666667</ele><time>2026-05-01T11:03:24.919Z</time></trkpt><trkpt lat="42.5584235" lon="12.8733674"><ele>960.3333333333334</ele><time>2026-05-01T11:03:25.918Z</time></trkpt><trkpt lat="42.558359" lon="12.8736139"><ele>956.0</ele><time>2026-05-01T11:03:26.919Z</time></trkpt><trkpt lat="42.558283" lon="12.8738266"><ele>952.0</ele><time>2026-05-01T11:03:27.919Z</time></trkpt><trkpt lat="42.5582141" lon="12.8740008"><ele>948.0</ele><time>2026-05-01T11:03:28.919Z</time></trkpt><trkpt lat="42.5581413" lon="12.8741365"><ele>944.0</ele><time>2026-05-01T11:03:29.918Z</time></trkpt><trkpt lat="42.5580737" lon="12.8742508"><ele>940.0</ele><time>2026-05-01T11:03:30.919Z</time></trkpt><trkpt lat="42.5579514" lon="12.8743283"><ele>943.0</ele><time>2026-05-01T11:03:31.918Z</time></trkpt><trkpt lat="42.5577884" lon="12.8743663"><ele>946.0</ele><time>2026-05-01T11:03:32.919Z</time></trkpt><trkpt lat="42.5575923" lon="12.8744422"><ele>949.0</ele><time>2026-05-01T11:03:33.919Z</time></trkpt><trkpt lat="42.5574016" lon="12.8745555"><ele>949.0</ele><time>2026-05-01T11:03:34.919Z</time></trkpt><trkpt lat="42.5572109" lon="12.8746921"><ele>949.0</ele><time>2026-05-01T11:03:35.918Z</time></trkpt><trkpt lat="42.5570086" lon="12.8748449"><ele>949.0</ele><time>2026-05-01T11:03:36.919Z</time></trkpt><trkpt lat="42.5568083" lon="12.8750339"><ele>953.5</ele><time>2026-05-01T11:03:37.919Z</time></trkpt><trkpt lat="42.5566003" lon="12.8752305"><ele>958.0</ele><time>2026-05-01T11:03:38.919Z</time></trkpt><trkpt lat="42.556407" lon="12.875454"><ele>958.0</ele><time>2026-05-01T11:03:39.918Z</time></trkpt><trkpt lat="42.5562104" lon="12.8756769"><ele>958.0</ele><time>2026-05-01T11:03:40.918Z</time></trkpt><trkpt lat="42.5560517" lon="12.8759"><ele>964.3333333333333</ele><time>2026-05-01T11:03:41.919Z</time></trkpt><trkpt lat="42.5559001" lon="12.8760985"><ele>970.6666666666667</ele><time>2026-05-01T11:03:42.919Z</time></trkpt><trkpt lat="42.5557758" lon="12.8762627"><ele>977.0</ele><time>2026-05-01T11:03:43.919Z</time></trkpt><trkpt lat="42.5556729" lon="12.8764244"><ele>977.0</ele><time>2026-05-01T11:03:44.918Z</time></trkpt><trkpt lat="42.5555963" lon="12.8765739"><ele>977.0</ele><time>2026-05-01T11:03:45.919Z</time></trkpt><trkpt lat="42.5584006" lon="12.8715599"><ele>975.0</ele><time>2026-05-01T11:03:15.918Z</time></trkpt><trkpt lat="42.5585368" lon="12.8716746"><ele>973.0</ele><time>2026-05-01T11:03:16.919Z</time></trkpt><trkpt lat="42.5586585" lon="12.8717926"><ele>971.0</ele><time>2026-05-01T11:03:17.919Z</time></trkpt><trkpt lat="42.5587624" lon="12.8719159"><ele>969.0</ele><time>2026-05-01T11:03:18.919Z</time></trkpt><trkpt lat="42.5587941" lon="12.8720553"><ele>969.0</ele><time>2026-05-01T11:03:19.918Z</time></trkpt><trkpt lat="42.5587542" lon="12.872206"><ele>969.0</ele><time>2026-05-01T11:03:20.919Z</time></trkpt><trkpt lat="42.5586693" lon="12.872389"><ele>969.0</ele><time>2026-05-01T11:03:21.919Z</time></trkpt><trkpt lat="42.5586024" lon="12.8725817"><ele>969.0</ele><time>2026-05-01T11:03:22.919Z</time></trkpt><trkpt lat="42.5585363" lon="12.8728329"><ele>964.6666666666667</ele><time>2026-05-01T11:03:23.919Z</time></trkpt><trkpt lat="42.5584794" lon="12.8731066"><ele>960.3333333333334</ele><time>2026-05-01T11:03:24.919Z</time></trkpt><trkpt lat="42.5584235" lon="12.8733674"><ele>956.0</ele><time>2026-05-01T11:03:25.918Z</time></trkpt><trkpt lat="42.558359" lon="12.8736139"><ele>952.0</ele><time>2026-05-01T11:03:26.919Z</time></trkpt><trkpt lat="42.558283" lon="12.8738266"><ele>948.0</ele><time>2026-05-01T11:03:27.919Z</time></trkpt><trkpt lat="42.5582141" lon="12.8740008"><ele>944.0</ele><time>2026-05-01T11:03:28.919Z</time></trkpt><trkpt lat="42.5581413" lon="12.8741365"><ele>940.0</ele><time>2026-05-01T11:03:29.918Z</time></trkpt><trkpt lat="42.5580737" lon="12.8742508"><ele>943.0</ele><time>2026-05-01T11:03:30.919Z</time></trkpt><trkpt lat="42.5579514" lon="12.8743283"><ele>946.0</ele><time>2026-05-01T11:03:31.918Z</time></trkpt><trkpt lat="42.5577884" lon="12.8743663"><ele>949.0</ele><time>2026-05-01T11:03:32.919Z</time></trkpt><trkpt lat="42.5575923" lon="12.8744422"><ele>949.0</ele><time>2026-05-01T11:03:33.919Z</time></trkpt><trkpt lat="42.5574016" lon="12.8745555"><ele>949.0</ele><time>2026-05-01T11:03:34.919Z</time></trkpt><trkpt lat="42.5572109" lon="12.8746921"><ele>949.0</ele><time>2026-05-01T11:03:35.918Z</time></trkpt><trkpt lat="42.5570086" lon="12.8748449"><ele>953.5</ele><time>2026-05-01T11:03:36.919Z</time></trkpt><trkpt lat="42.5568083" lon="12.8750339"><ele>958.0</ele><time>2026-05-01T11:03:37.919Z</time></trkpt><trkpt lat="42.5566003" lon="12.8752305"><ele>958.0</ele><time>2026-05-01T11:03:38.919Z</time></trkpt><trkpt lat="42.556407" lon="12.875454"><ele>958.0</ele><time>2026-05-01T11:03:39.918Z</time></trkpt><trkpt lat="42.5562104" lon="12.8756769"><ele>964.3333333333333</ele><time>2026-05-01T11:03:40.918Z</time></trkpt><trkpt lat="42.5560517" lon="12.8759"><ele>970.6666666666667</ele><time>2026-05-01T11:03:41.919Z</time></trkpt><trkpt lat="42.5559001" lon="12.8760985"><ele>977.0</ele><time>2026-05-01T11:03:42.919Z</time></trkpt><trkpt lat="42.5557758" lon="12.8762627"><ele>977.0</ele><time>2026-05-01T11:03:43.919Z</time></trkpt><trkpt lat="42.5556729" lon="12.8764244"><ele>977.0</ele><time>2026-05-01T11:03:44.918Z</time></trkpt><trkpt lat="42.5555963" lon="12.8765739"><ele>977.0</ele><time>2026-05-01T11:03:45.919Z</time></trkpt><trkpt lat="42.555555" lon="12.8767546"><ele>977.0</ele><time>2026-05-01T11:03:46.918Z</time></trkpt><trkpt lat="42.5555505" lon="12.8769534"><ele>981.0</ele><time>2026-05-01T11:03:47.918Z</time></trkpt><trkpt lat="42.5555743" lon="12.8771464"><ele>985.0</ele><time>2026-05-01T11:03:48.919Z</time></trkpt><trkpt lat="42.5556991" lon="12.8772565"><ele>989.0</ele><time>2026-05-01T11:03:49.919Z</time></trkpt><trkpt lat="42.555883" lon="12.8772383"><ele>989.0</ele><time>2026-05-01T11:03:50.919Z</time></trkpt><trkpt lat="42.5560772" lon="12.8771461"><ele>989.0</ele><time>2026-05-01T11:03:51.919Z</time></trkpt><trkpt lat="42.5562671" lon="12.8770229"><ele>989.0</ele><time>2026-05-01T11:03:52.918Z</time></trkpt><trkpt lat="42.5564444" lon="12.876916"><ele>987.0</ele><time>2026-05-01T11:03:53.918Z</time></trkpt><trkpt lat="42.5566346" lon="12.8768417"><ele>985.0</ele><time>2026-05-01T11:03:54.919Z</time></trkpt><trkpt lat="42.5568401" lon="12.8767941"><ele>983.0</ele><time>2026-05-01T11:03:55.919Z</time></trkpt><trkpt lat="42.5570623" lon="12.8767547"><ele>983.0</ele><time>2026-05-01T11:03:56.919Z</time></trkpt><trkpt lat="42.5573073" lon="12.876718"><ele>983.0</ele><time>2026-05-01T11:03:57.919Z</time></trkpt><trkpt lat="42.5575593" lon="12.8766781"><ele>983.0</ele><time>2026-05-01T11:03:58.919Z</time></trkpt><trkpt lat="42.5578061" lon="12.8766465"><ele>983.0</ele><time>2026-05-01T11:03:59.919Z</time></trkpt><trkpt lat="42.5580336" lon="12.8766103"><ele>985.3333333333334</ele><time>2026-05-01T11:04:00.919Z</time></trkpt><trkpt lat="42.5582527" lon="12.8765696"><ele>987.6666666666667</ele><time>2026-05-01T11:04:01.919Z</time></trkpt><trkpt lat="42.5584154" lon="12.8765743"><ele>990.0</ele><time>2026-05-01T11:04:02.918Z</time></trkpt><trkpt lat="42.5585364" lon="12.8766214"><ele>990.0</ele><time>2026-05-01T11:04:03.919Z</time></trkpt><trkpt lat="42.5586384" lon="12.8767326"><ele>990.0</ele><time>2026-05-01T11:04:04.919Z</time></trkpt><trkpt lat="42.5587202" lon="12.8769413"><ele>990.0</ele><time>2026-05-01T11:04:05.919Z</time></trkpt><trkpt lat="42.5588031" lon="12.877177"><ele>987.6666666666667</ele><time>2026-05-01T11:04:06.919Z</time></trkpt><trkpt lat="42.5588699" lon="12.8774266"><ele>985.3333333333334</ele><time>2026-05-01T11:04:07.919Z</time></trkpt><trkpt lat="42.5589385" lon="12.8776895"><ele>983.0</ele><time>2026-05-01T11:04:08.918Z</time></trkpt><trkpt lat="42.5590253" lon="12.8779302"><ele>988.0</ele><time>2026-05-01T11:04:09.919Z</time></trkpt><trkpt lat="42.5590997" lon="12.8781777"><ele>993.0</ele><time>2026-05-01T11:04:10.919Z</time></trkpt><trkpt lat="42.5591415" lon="12.8784607"><ele>998.0</ele><time>2026-05-01T11:04:11.918Z</time></trkpt><trkpt lat="42.5591839" lon="12.8787706"><ele>1007.5</ele><time>2026-05-01T11:04:12.919Z</time></trkpt><trkpt lat="42.5592351" lon="12.8790769"><ele>1017.0</ele><time>2026-05-01T11:04:13.918Z</time></trkpt><trkpt lat="42.559295" lon="12.879374"><ele>1020.6666666666667</ele><time>2026-05-01T11:04:14.919Z</time></trkpt><trkpt lat="42.5593419" lon="12.8796198"><ele>1024.3333333333335</ele><time>2026-05-01T11:04:15.918Z</time></trkpt><trkpt lat="42.559358" lon="12.8798642"><ele>1028.0</ele><time>2026-05-01T11:04:16.919Z</time></trkpt><trkpt lat="42.5593626" lon="12.8801104"><ele>1030.0</ele><time>2026-05-01T11:04:17.918Z</time></trkpt><trkpt lat="42.559343" lon="12.8803855"><ele>1032.0</ele><time>2026-05-01T11:04:18.918Z</time></trkpt><trkpt lat="42.5593183" lon="12.8806767"><ele>1034.0</ele><time>2026-05-01T11:04:19.919Z</time></trkpt><trkpt lat="42.559307" lon="12.8809796"><ele>1036.5</ele><time>2026-05-01T11:04:20.918Z</time></trkpt><trkpt lat="42.5593109" lon="12.8812938"><ele>1039.0</ele><time>2026-05-01T11:04:21.918Z</time></trkpt><trkpt lat="42.5593358" lon="12.8816127"><ele>1046.5</ele><time>2026-05-01T11:04:22.919Z</time></trkpt><trkpt lat="42.5593737" lon="12.8819371"><ele>1054.0</ele><time>2026-05-01T11:04:23.918Z</time></trkpt><trkpt lat="42.5594174" lon="12.882255"><ele>1054.0</ele><time>2026-05-01T11:04:24.919Z</time></trkpt><trkpt lat="42.5594714" lon="12.882551"><ele>1054.0</ele><time>2026-05-01T11:04:25.919Z</time></trkpt><trkpt lat="42.559522" lon="12.8828359"><ele>1054.0</ele><time>2026-05-01T11:04:26.919Z</time></trkpt><trkpt lat="42.5595847" lon="12.8830899"><ele>1037.0</ele><time>2026-05-01T11:04:27.919Z</time></trkpt><trkpt lat="42.5596525" lon="12.8833076"><ele>1020.0</ele><time>2026-05-01T11:04:28.919Z</time></trkpt><trkpt lat="42.5597285" lon="12.883486"><ele>1003.0</ele><time>2026-05-01T11:04:29.919Z</time></trkpt><trkpt lat="42.5597657" lon="12.883668"><ele>1003.0</ele><time>2026-05-01T11:04:30.918Z</time></trkpt><trkpt lat="42.5597601" lon="12.8838395"><ele>1003.0</ele><time>2026-05-01T11:04:31.918Z</time></trkpt><trkpt lat="42.559662" lon="12.8840053"><ele>1003.0</ele><time>2026-05-01T11:04:32.919Z</time></trkpt><trkpt lat="42.5595554" lon="12.8841607"><ele>1003.0</ele><time>2026-05-01T11:04:33.919Z</time></trkpt><trkpt lat="42.559468" lon="12.8843272"><ele>1008.25</ele><time>2026-05-01T11:04:34.919Z</time></trkpt><trkpt lat="42.5594494" lon="12.8844965"><ele>1013.5</ele><time>2026-05-01T11:04:35.919Z</time></trkpt><trkpt lat="42.5594886" lon="12.8846641"><ele>1018.75</ele><time>2026-05-01T11:04:36.919Z</time></trkpt><trkpt lat="42.5595787" lon="12.8848187"><ele>1024.0</ele><time>2026-05-01T11:04:37.919Z</time></trkpt><trkpt lat="42.559704" lon="12.8849711"><ele>1033.3333333333333</ele><time>2026-05-01T11:04:38.918Z</time></trkpt><trkpt lat="42.5598523" lon="12.885119"><ele>1042.6666666666667</ele><time>2026-05-01T11:04:39.919Z</time></trkpt><trkpt lat="42.5600015" lon="12.8852962"><ele>1052.0</ele><time>2026-05-01T11:04:40.919Z</time></trkpt><trkpt lat="42.5601678" lon="12.8854974"><ele>1052.0</ele><time>2026-05-01T11:04:41.919Z</time></trkpt><trkpt lat="42.5603396" lon="12.8856836"><ele>1052.0</ele><time>2026-05-01T11:04:42.918Z</time></trkpt><trkpt lat="42.5605128" lon="12.8858465"><ele>1052.0</ele><time>2026-05-01T11:04:43.919Z</time></trkpt><trkpt lat="42.5606957" lon="12.8860305"><ele>1048.0</ele><time>2026-05-01T11:04:44.919Z</time></trkpt><trkpt lat="42.5608593" lon="12.8862379"><ele>1044.0</ele><time>2026-05-01T11:04:45.919Z</time></trkpt><trkpt lat="42.5610041" lon="12.8864528"><ele>1040.0</ele><time>2026-05-01T11:04:46.919Z</time></trkpt><trkpt lat="42.561117" lon="12.8866621"><ele>1035.3333333333335</ele><time>2026-05-01T11:04:47.919Z</time></trkpt><trkpt lat="42.5612059" lon="12.886879"><ele>1030.6666666666667</ele><time>2026-05-01T11:04:48.918Z</time></trkpt><trkpt lat="42.5612633" lon="12.8870945"><ele>1026.0</ele><time>2026-05-01T11:04:49.919Z</time></trkpt><trkpt lat="42.5613118" lon="12.887294"><ele>1026.0</ele><time>2026-05-01T11:04:50.919Z</time></trkpt><trkpt lat="42.5613494" lon="12.8875184"><ele>1026.0</ele><time>2026-05-01T11:04:51.919Z</time></trkpt><trkpt lat="42.5613814" lon="12.8877502"><ele>1026.0</ele><time>2026-05-01T11:04:52.919Z</time></trkpt><trkpt lat="42.5614203" lon="12.8879796"><ele>1028.3333333333333</ele><time>2026-05-01T11:04:53.918Z</time></trkpt><trkpt lat="42.5614495" lon="12.8882043"><ele>1030.6666666666665</ele><time>2026-05-01T11:04:54.919Z</time></trkpt><trkpt lat="42.5614751" lon="12.888411"><ele>1033.0</ele><time>2026-05-01T11:04:55.919Z</time></trkpt><trkpt lat="42.5615041" lon="12.8886176"><ele>1035.6666666666665</ele><time>2026-05-01T11:04:56.919Z</time></trkpt><trkpt lat="42.5615326" lon="12.8888364"><ele>1038.3333333333333</ele><time>2026-05-01T11:04:57.919Z</time></trkpt><trkpt lat="42.5615542" lon="12.8890659"><ele>1041.0</ele><time>2026-05-01T11:04:58.919Z</time></trkpt><trkpt lat="42.5615825" lon="12.8893149"><ele>1042.6666666666667</ele><time>2026-05-01T11:04:59.918Z</time></trkpt><trkpt lat="42.5616322" lon="12.8895833"><ele>1044.3333333333335</ele><time>2026-05-01T11:05:00.919Z</time></trkpt><trkpt lat="42.5616758" lon="12.8898681"><ele>1046.0</ele><time>2026-05-01T11:05:01.919Z</time></trkpt><trkpt lat="42.5617124" lon="12.8901551"><ele>1048.3333333333335</ele><time>2026-05-01T11:05:02.919Z</time></trkpt><trkpt lat="42.5617356" lon="12.8904233"><ele>1050.6666666666667</ele><time>2026-05-01T11:05:03.919Z</time></trkpt><trkpt lat="42.5617633" lon="12.890643"><ele>1053.0</ele><time>2026-05-01T11:05:04.919Z</time></trkpt><trkpt lat="42.5618366" lon="12.8908313"><ele>1057.3333333333333</ele><time>2026-05-01T11:05:05.919Z</time></trkpt><trkpt lat="42.5619503" lon="12.8909994"><ele>1061.6666666666665</ele><time>2026-05-01T11:05:06.919Z</time></trkpt><trkpt lat="42.5620811" lon="12.8911593"><ele>1066.0</ele><time>2026-05-01T11:05:07.918Z</time></trkpt><trkpt lat="42.5621857" lon="12.891333"><ele>1057.0</ele><time>2026-05-01T11:05:08.919Z</time></trkpt><trkpt lat="42.562265" lon="12.8915136"><ele>1048.0</ele><time>2026-05-01T11:05:09.919Z</time></trkpt><trkpt lat="42.5623137" lon="12.8917283"><ele>1039.0</ele><time>2026-05-01T11:05:10.918Z</time></trkpt><trkpt lat="42.5623418" lon="12.8919311"><ele>1039.0</ele><time>2026-05-01T11:05:11.918Z</time></trkpt><trkpt lat="42.5623481" lon="12.8921132"><ele>1039.0</ele><time>2026-05-01T11:05:12.918Z</time></trkpt><trkpt lat="42.5622935" lon="12.8922836"><ele>1039.0</ele><time>2026-05-01T11:05:13.919Z</time></trkpt><trkpt lat="42.5622017" lon="12.8924365"><ele>1039.0</ele><time>2026-05-01T11:05:14.918Z</time></trkpt><trkpt lat="42.5620902" lon="12.8925774"><ele>1042.0</ele><time>2026-05-01T11:05:15.919Z</time></trkpt><trkpt lat="42.5620171" lon="12.8927247"><ele>1045.0</ele><time>2026-05-01T11:05:16.919Z</time></trkpt><trkpt lat="42.5620096" lon="12.8928787"><ele>1048.0</ele><time>2026-05-01T11:05:17.918Z</time></trkpt><trkpt lat="42.5620483" lon="12.8930132"><ele>1051.0</ele><time>2026-05-01T11:05:18.919Z</time></trkpt><trkpt lat="42.5621388" lon="12.8931155"><ele>1051.0</ele><time>2026-05-01T11:05:19.919Z</time></trkpt><trkpt lat="42.5622846" lon="12.8931771"><ele>1051.0</ele><time>2026-05-01T11:05:20.918Z</time></trkpt><trkpt lat="42.5624497" lon="12.8932169"><ele>1051.0</ele><time>2026-05-01T11:05:21.919Z</time></trkpt><trkpt lat="42.5625932" lon="12.8932308"><ele>1051.0</ele><time>2026-05-01T11:05:22.919Z</time></trkpt><trkpt lat="42.5626904" lon="12.8932628"><ele>1051.0</ele><time>2026-05-01T11:05:23.919Z</time></trkpt><trkpt lat="42.5627197" lon="12.8933826"><ele>1051.0</ele><time>2026-05-01T11:05:24.919Z</time></trkpt><trkpt lat="42.5626869" lon="12.8935725"><ele>1051.0</ele><time>2026-05-01T11:05:25.918Z</time></trkpt><trkpt lat="42.5626446" lon="12.8937976"><ele>1052.0</ele><time>2026-05-01T11:05:26.918Z</time></trkpt><trkpt lat="42.5626175" lon="12.8940319"><ele>1053.0</ele><time>2026-05-01T11:05:27.919Z</time></trkpt><trkpt lat="42.5625908" lon="12.8942622"><ele>1054.0</ele><time>2026-05-01T11:05:28.919Z</time></trkpt><trkpt lat="42.5625405" lon="12.8944775"><ele>1054.3333333333333</ele><time>2026-05-01T11:05:29.918Z</time></trkpt><trkpt lat="42.5624604" lon="12.8946671"><ele>1054.6666666666667</ele><time>2026-05-01T11:05:30.919Z</time></trkpt><trkpt lat="42.5623994" lon="12.8948451"><ele>1055.0</ele><time>2026-05-01T11:05:31.919Z</time></trkpt><trkpt lat="42.5623713" lon="12.8950489"><ele>1054.6666666666667</ele><time>2026-05-01T11:05:32.918Z</time></trkpt><trkpt lat="42.5623732" lon="12.8952745"><ele>1054.3333333333333</ele><time>2026-05-01T11:05:33.918Z</time></trkpt><trkpt lat="42.5623946" lon="12.8955196"><ele>1054.0</ele><time>2026-05-01T11:05:34.919Z</time></trkpt><trkpt lat="42.5624185" lon="12.895755"><ele>1054.6666666666665</ele><time>2026-05-01T11:05:35.919Z</time></trkpt><trkpt lat="42.5624199" lon="12.8959978"><ele>1055.3333333333333</ele><time>2026-05-01T11:05:36.918Z</time></trkpt><trkpt lat="42.5624029" lon="12.8962519"><ele>1056.0</ele><time>2026-05-01T11:05:37.919Z</time></trkpt><trkpt lat="42.5623756" lon="12.896501"><ele>1056.0</ele><time>2026-05-01T11:05:38.919Z</time></trkpt><trkpt lat="42.562363" lon="12.8967131"><ele>1056.0</ele><time>2026-05-01T11:05:39.919Z</time></trkpt><trkpt lat="42.5623914" lon="12.8969094"><ele>1056.0</ele><time>2026-05-01T11:05:40.918Z</time></trkpt><trkpt lat="42.5624459" lon="12.8970808"><ele>1056.0</ele><time>2026-05-01T11:05:41.919Z</time></trkpt><trkpt lat="42.5625276" lon="12.8972246"><ele>1053.0</ele><time>2026-05-01T11:05:42.918Z</time></trkpt><trkpt lat="42.5626474" lon="12.8973652"><ele>1050.0</ele><time>2026-05-01T11:05:43.918Z</time></trkpt><trkpt lat="42.5627804" lon="12.8975215"><ele>1047.0</ele><time>2026-05-01T11:05:44.919Z</time></trkpt><trkpt lat="42.5629047" lon="12.897692"><ele>1047.0</ele><time>2026-05-01T11:05:45.919Z</time></trkpt><trkpt lat="42.5630218" lon="12.8978874"><ele>1047.0</ele><time>2026-05-01T11:05:46.918Z</time></trkpt><trkpt lat="42.5631222" lon="12.8981064"><ele>1047.0</ele><time>2026-05-01T11:05:47.919Z</time></trkpt><trkpt lat="42.563203" lon="12.8983471"><ele>1047.3333333333333</ele><time>2026-05-01T11:05:48.918Z</time></trkpt><trkpt lat="42.5632665" lon="12.898584"><ele>1047.6666666666665</ele><time>2026-05-01T11:05:49.918Z</time></trkpt><trkpt lat="42.5633049" lon="12.8987908"><ele>1048.0</ele><time>2026-05-01T11:05:50.918Z</time></trkpt><trkpt lat="42.5633078" lon="12.8989877"><ele>1048.0</ele><time>2026-05-01T11:05:51.919Z</time></trkpt><trkpt lat="42.5632799" lon="12.8991912"><ele>1048.0</ele><time>2026-05-01T11:05:52.919Z</time></trkpt><trkpt lat="42.5632264" lon="12.8993825"><ele>1048.0</ele><time>2026-05-01T11:05:53.919Z</time></trkpt><trkpt lat="42.5631683" lon="12.899576"><ele>1049.25</ele><time>2026-05-01T11:05:54.919Z</time></trkpt><trkpt lat="42.5631466" lon="12.8997605"><ele>1050.5</ele><time>2026-05-01T11:05:55.919Z</time></trkpt><trkpt lat="42.5631613" lon="12.8999531"><ele>1051.75</ele><time>2026-05-01T11:05:56.919Z</time></trkpt><trkpt lat="42.5632181" lon="12.900145"><ele>1053.0</ele><time>2026-05-01T11:05:57.919Z</time></trkpt><trkpt lat="42.5633209" lon="12.9003595"><ele>1058.6666666666667</ele><time>2026-05-01T11:05:58.919Z</time></trkpt><trkpt lat="42.5634371" lon="12.9005811"><ele>1064.3333333333335</ele><time>2026-05-01T11:05:59.919Z</time></trkpt><trkpt lat="42.5635649" lon="12.9007797"><ele>1070.0</ele><time>2026-05-01T11:06:00.919Z</time></trkpt><trkpt lat="42.5636884" lon="12.9009463"><ele>1061.3333333333335</ele><time>2026-05-01T11:06:01.919Z</time></trkpt><trkpt lat="42.5637933" lon="12.9011259"><ele>1052.6666666666667</ele><time>2026-05-01T11:06:02.919Z</time></trkpt><trkpt lat="42.5638828" lon="12.9013077"><ele>1044.0</ele><time>2026-05-01T11:06:03.919Z</time></trkpt><trkpt lat="42.5639395" lon="12.9014815"><ele>1044.0</ele><time>2026-05-01T11:06:04.919Z</time></trkpt><trkpt lat="42.5639572" lon="12.9016644"><ele>1044.0</ele><time>2026-05-01T11:06:05.918Z</time></trkpt><trkpt lat="42.5639274" lon="12.9018616"><ele>1044.0</ele><time>2026-05-01T11:06:06.919Z</time></trkpt><trkpt lat="42.5638859" lon="12.9020424"><ele>1044.0</ele><time>2026-05-01T11:06:07.919Z</time></trkpt><trkpt lat="42.5638467" lon="12.9022072"><ele>1045.25</ele><time>2026-05-01T11:06:08.918Z</time></trkpt><trkpt lat="42.5638351" lon="12.9023511"><ele>1046.5</ele><time>2026-05-01T11:06:09.919Z</time></trkpt><trkpt lat="42.563869" lon="12.9024854"><ele>1047.75</ele><time>2026-05-01T11:06:10.919Z</time></trkpt><trkpt lat="42.5639567" lon="12.9025956"><ele>1049.0</ele><time>2026-05-01T11:06:11.919Z</time></trkpt><trkpt lat="42.5640751" lon="12.9026806"><ele>1049.25</ele><time>2026-05-01T11:06:12.919Z</time></trkpt><trkpt lat="42.5641932" lon="12.9027752"><ele>1049.5</ele><time>2026-05-01T11:06:13.919Z</time></trkpt><trkpt lat="42.5642842" lon="12.9029013"><ele>1049.75</ele><time>2026-05-01T11:06:14.918Z</time></trkpt><trkpt lat="42.5643274" lon="12.9030981"><ele>1050.0</ele><time>2026-05-01T11:06:15.919Z</time></trkpt><trkpt lat="42.564369" lon="12.9033286"><ele>1048.6666666666667</ele><time>2026-05-01T11:06:16.919Z</time></trkpt><trkpt lat="42.5644274" lon="12.9035591"><ele>1047.3333333333335</ele><time>2026-05-01T11:06:17.919Z</time></trkpt><trkpt lat="42.5645065" lon="12.9037831"><ele>1046.0</ele><time>2026-05-01T11:06:18.919Z</time></trkpt><trkpt lat="42.5645931" lon="12.9039932"><ele>1052.3333333333335</ele><time>2026-05-01T11:06:19.919Z</time></trkpt><trkpt lat="42.5646732" lon="12.9042149"><ele>1058.6666666666667</ele><time>2026-05-01T11:06:20.919Z</time></trkpt><trkpt lat="42.5647344" lon="12.9044675"><ele>1065.0</ele><time>2026-05-01T11:06:21.919Z</time></trkpt><trkpt lat="42.5647863" lon="12.9047334"><ele>1066.0</ele><time>2026-05-01T11:06:22.919Z</time></trkpt><trkpt lat="42.5648342" lon="12.9050049"><ele>1067.0</ele><time>2026-05-01T11:06:23.918Z</time></trkpt><trkpt lat="42.5648843" lon="12.9052901"><ele>1068.0</ele><time>2026-05-01T11:06:24.918Z</time></trkpt><trkpt lat="42.5649311" lon="12.9055643"><ele>1068.6666666666667</ele><time>2026-05-01T11:06:25.918Z</time></trkpt><trkpt lat="42.5649681" lon="12.9058255"><ele>1069.3333333333335</ele><time>2026-05-01T11:06:26.918Z</time></trkpt><trkpt lat="42.5650065" lon="12.9060533"><ele>1070.0</ele><time>2026-05-01T11:06:27.919Z</time></trkpt><trkpt lat="42.5650256" lon="12.9062796"><ele>1070.3333333333335</ele><time>2026-05-01T11:06:28.919Z</time></trkpt><trkpt lat="42.5650262" lon="12.9065024"><ele>1070.6666666666667</ele><time>2026-05-01T11:06:29.919Z</time></trkpt><trkpt lat="42.565014" lon="12.9067435"><ele>1071.0</ele><time>2026-05-01T11:06:30.918Z</time></trkpt><trkpt lat="42.5650135" lon="12.9069867"><ele>1071.0</ele><time>2026-05-01T11:06:31.918Z</time></trkpt><trkpt lat="42.5650225" lon="12.9072359"><ele>1071.0</ele><time>2026-05-01T11:06:32.919Z</time></trkpt><trkpt lat="42.5650327" lon="12.9074867"><ele>1071.0</ele><time>2026-05-01T11:06:33.918Z</time></trkpt><trkpt lat="42.5650472" lon="12.9077362"><ele>1071.0</ele><time>2026-05-01T11:06:34.919Z</time></trkpt><trkpt lat="42.5650605" lon="12.9079798"><ele>1071.0</ele><time>2026-05-01T11:06:35.919Z</time></trkpt><trkpt lat="42.565082" lon="12.9081845"><ele>1071.0</ele><time>2026-05-01T11:06:36.919Z</time></trkpt><trkpt lat="42.5651308" lon="12.9083682"><ele>1071.5</ele><time>2026-05-01T11:06:37.919Z</time></trkpt><trkpt lat="42.5652094" lon="12.9085136"><ele>1072.0</ele><time>2026-05-01T11:06:38.919Z</time></trkpt><trkpt lat="42.5653076" lon="12.9086266"><ele>1072.5</ele><time>2026-05-01T11:06:39.918Z</time></trkpt><trkpt lat="42.5653999" lon="12.9087136"><ele>1073.0</ele><time>2026-05-01T11:06:40.919Z</time></trkpt><trkpt lat="42.5654652" lon="12.9088218"><ele>1074.25</ele><time>2026-05-01T11:06:41.919Z</time></trkpt><trkpt lat="42.5654785" lon="12.9089676"><ele>1075.5</ele><time>2026-05-01T11:06:42.919Z</time></trkpt><trkpt lat="42.5654506" lon="12.9091341"><ele>1076.75</ele><time>2026-05-01T11:06:43.919Z</time></trkpt><trkpt lat="42.5653992" lon="12.9093305"><ele>1078.0</ele><time>2026-05-01T11:06:44.919Z</time></trkpt><trkpt lat="42.5653515" lon="12.9095406"><ele>1078.0</ele><time>2026-05-01T11:06:45.919Z</time></trkpt><trkpt lat="42.5653053" lon="12.9097741"><ele>1078.0</ele><time>2026-05-01T11:06:46.919Z</time></trkpt><trkpt lat="42.5652456" lon="12.9100178"><ele>1078.0</ele><time>2026-05-01T11:06:47.918Z</time></trkpt><trkpt lat="42.5651718" lon="12.9102664"><ele>1082.3333333333333</ele><time>2026-05-01T11:06:48.918Z</time></trkpt><trkpt lat="42.5650837" lon="12.9105201"><ele>1086.6666666666667</ele><time>2026-05-01T11:06:49.919Z</time></trkpt><trkpt lat="42.5650021" lon="12.9107727"><ele>1091.0</ele><time>2026-05-01T11:06:50.919Z</time></trkpt><trkpt lat="42.5649274" lon="12.9110479"><ele>1095.3333333333335</ele><time>2026-05-01T11:06:51.919Z</time></trkpt><trkpt lat="42.5648653" lon="12.9113322"><ele>1099.6666666666667</ele><time>2026-05-01T11:06:52.919Z</time></trkpt><trkpt lat="42.5648056" lon="12.9116225"><ele>1104.0</ele><time>2026-05-01T11:06:53.919Z</time></trkpt><trkpt lat="42.5647441" lon="12.9119182"><ele>1111.0</ele><time>2026-05-01T11:06:54.919Z</time></trkpt><trkpt lat="42.5646785" lon="12.9122149"><ele>1118.0</ele><time>2026-05-01T11:06:55.918Z</time></trkpt><trkpt lat="42.5646129" lon="12.9125108"><ele>1121.6666666666667</ele><time>2026-05-01T11:06:56.919Z</time></trkpt><trkpt lat="42.5645434" lon="12.9127991"><ele>1125.3333333333333</ele><time>2026-05-01T11:06:57.919Z</time></trkpt><trkpt lat="42.5644794" lon="12.9130713"><ele>1129.0</ele><time>2026-05-01T11:06:58.919Z</time></trkpt><trkpt lat="42.5644281" lon="12.9133006"><ele>1121.3333333333333</ele><time>2026-05-01T11:06:59.919Z</time></trkpt><trkpt lat="42.564392" lon="12.9135108"><ele>1113.6666666666667</ele><time>2026-05-01T11:07:00.918Z</time></trkpt><trkpt lat="42.5643706" lon="12.9137147"><ele>1106.0</ele><time>2026-05-01T11:07:01.919Z</time></trkpt><trkpt lat="42.5643677" lon="12.9139172"><ele>1106.0</ele><time>2026-05-01T11:07:02.919Z</time></trkpt><trkpt lat="42.5643719" lon="12.9141283"><ele>1106.0</ele><time>2026-05-01T11:07:03.918Z</time></trkpt><trkpt lat="42.5643761" lon="12.9143463"><ele>1106.0</ele><time>2026-05-01T11:07:04.918Z</time></trkpt><trkpt lat="42.5647454" lon="12.9150413"><ele>1108.0</ele><time>2026-05-01T11:07:08.919Z</time></trkpt><trkpt lat="42.564875" lon="12.9152431"><ele>1110.0</ele><time>2026-05-01T11:07:09.919Z</time></trkpt><trkpt lat="42.565026" lon="12.9154086"><ele>1112.0</ele><time>2026-05-01T11:07:10.918Z</time></trkpt><trkpt lat="42.5652109" lon="12.9155495"><ele>1110.0</ele><time>2026-05-01T11:07:11.919Z</time></trkpt><trkpt lat="42.565392" lon="12.9156938"><ele>1108.0</ele><time>2026-05-01T11:07:12.919Z</time></trkpt><trkpt lat="42.5655662" lon="12.9158432"><ele>1106.0</ele><time>2026-05-01T11:07:13.919Z</time></trkpt><trkpt lat="42.5657527" lon="12.9159941"><ele>1106.0</ele><time>2026-05-01T11:07:14.919Z</time></trkpt><trkpt lat="42.5659572" lon="12.9161363"><ele>1106.0</ele><time>2026-05-01T11:07:15.919Z</time></trkpt><trkpt lat="42.5661595" lon="12.9162815"><ele>1098.5</ele><time>2026-05-01T11:07:16.918Z</time></trkpt><trkpt lat="42.5663674" lon="12.9164173"><ele>1091.0</ele><time>2026-05-01T11:07:17.919Z</time></trkpt><trkpt lat="42.5665695" lon="12.9165469"><ele>1091.0</ele><time>2026-05-01T11:07:18.919Z</time></trkpt><trkpt lat="42.5667733" lon="12.9166552"><ele>1091.0</ele><time>2026-05-01T11:07:19.918Z</time></trkpt><trkpt lat="42.5669793" lon="12.9167609"><ele>1091.0</ele><time>2026-05-01T11:07:20.919Z</time></trkpt><trkpt lat="42.5671965" lon="12.9168507"><ele>1087.5</ele><time>2026-05-01T11:07:21.919Z</time></trkpt><trkpt lat="42.5674233" lon="12.9169245"><ele>1084.0</ele><time>2026-05-01T11:07:22.919Z</time></trkpt><trkpt lat="42.5676626" lon="12.9169916"><ele>1081.0</ele><time>2026-05-01T11:07:23.919Z</time></trkpt><trkpt lat="42.5679012" lon="12.9170497"><ele>1078.0</ele><time>2026-05-01T11:07:24.919Z</time></trkpt><trkpt lat="42.5681485" lon="12.9171065"><ele>1078.0</ele><time>2026-05-01T11:07:25.919Z</time></trkpt><trkpt lat="42.5683973" lon="12.9171615"><ele>1078.0</ele><time>2026-05-01T11:07:26.919Z</time></trkpt><trkpt lat="42.5686492" lon="12.9172185"><ele>1076.5</ele><time>2026-05-01T11:07:27.918Z</time></trkpt><trkpt lat="42.5689048" lon="12.917277"><ele>1075.0</ele><time>2026-05-01T11:07:28.919Z</time></trkpt><trkpt lat="42.5691641" lon="12.9173347"><ele>1075.0</ele><time>2026-05-01T11:07:29.919Z</time></trkpt><trkpt lat="42.56943" lon="12.9173941"><ele>1075.0</ele><time>2026-05-01T11:07:30.919Z</time></trkpt><trkpt lat="42.5696983" lon="12.9174526"><ele>1076.5</ele><time>2026-05-01T11:07:31.919Z</time></trkpt><trkpt lat="42.5699663" lon="12.9175106"><ele>1078.0</ele><time>2026-05-01T11:07:32.919Z</time></trkpt><trkpt lat="42.5702351" lon="12.917574"><ele>1068.5</ele><time>2026-05-01T11:07:33.919Z</time></trkpt><trkpt lat="42.5705035" lon="12.917643"><ele>1059.0</ele><time>2026-05-01T11:07:34.918Z</time></trkpt><trkpt lat="42.570774" lon="12.9177193"><ele>1059.0</ele><time>2026-05-01T11:07:35.919Z</time></trkpt><trkpt lat="42.571046" lon="12.9178142"><ele>1059.0</ele><time>2026-05-01T11:07:36.919Z</time></trkpt><trkpt lat="42.5713174" lon="12.9179228"><ele>1061.0</ele><time>2026-05-01T11:07:37.919Z</time></trkpt><trkpt lat="42.571576" lon="12.918041"><ele>1063.0</ele><time>2026-05-01T11:07:38.918Z</time></trkpt><trkpt lat="42.5718308" lon="12.9181492"><ele>1064.0</ele><time>2026-05-01T11:07:39.918Z</time></trkpt><trkpt lat="42.5720723" lon="12.9182598"><ele>1065.0</ele><time>2026-05-01T11:07:40.919Z</time></trkpt><trkpt lat="42.5723115" lon="12.9183622"><ele>1054.5</ele><time>2026-05-01T11:07:41.919Z</time></trkpt><trkpt lat="42.5725385" lon="12.9184628"><ele>1044.0</ele><time>2026-05-01T11:07:42.919Z</time></trkpt><trkpt lat="42.5727621" lon="12.9185524"><ele>1045.0</ele><time>2026-05-01T11:07:43.919Z</time></trkpt><trkpt lat="42.5729924" lon="12.9186511"><ele>1046.0</ele><time>2026-05-01T11:07:44.919Z</time></trkpt><trkpt lat="42.5732284" lon="12.9187378"><ele>1046.0</ele><time>2026-05-01T11:07:45.919Z</time></trkpt><trkpt lat="42.5734666" lon="12.918801"><ele>1046.0</ele><time>2026-05-01T11:07:46.919Z</time></trkpt><trkpt lat="42.5737114" lon="12.9188388"><ele>1045.0</ele><time>2026-05-01T11:07:47.919Z</time></trkpt><trkpt lat="42.573961" lon="12.918848"><ele>1044.0</ele><time>2026-05-01T11:07:48.919Z</time></trkpt><trkpt lat="42.5742179" lon="12.9188243"><ele>1044.0</ele><time>2026-05-01T11:07:49.919Z</time></trkpt><trkpt lat="42.5744747" lon="12.9187776"><ele>1044.0</ele><time>2026-05-01T11:07:50.918Z</time></trkpt><trkpt lat="42.5747355" lon="12.9187203"><ele>1038.0</ele><time>2026-05-01T11:07:51.919Z</time></trkpt><trkpt lat="42.5749963" lon="12.9186518"><ele>1032.0</ele><time>2026-05-01T11:07:52.919Z</time></trkpt><trkpt lat="42.5752564" lon="12.9185788"><ele>1027.0</ele><time>2026-05-01T11:07:53.918Z</time></trkpt><trkpt lat="42.5754994" lon="12.9185029"><ele>1022.0</ele><time>2026-05-01T11:07:54.919Z</time></trkpt><trkpt lat="42.5757243" lon="12.9184381"><ele>1026.0</ele><time>2026-05-01T11:07:55.918Z</time></trkpt><trkpt lat="42.575929" lon="12.9183756"><ele>1030.0</ele><time>2026-05-01T11:07:56.918Z</time></trkpt><trkpt lat="42.5761191" lon="12.9183198"><ele>1034.0</ele><time>2026-05-01T11:07:57.918Z</time></trkpt><trkpt lat="42.5762843" lon="12.9182836"><ele>1034.0</ele><time>2026-05-01T11:07:58.919Z</time></trkpt><trkpt lat="42.5764448" lon="12.9182456"><ele>1034.0</ele><time>2026-05-01T11:07:59.919Z</time></trkpt><trkpt lat="42.5765879" lon="12.91821"><ele>1034.0</ele><time>2026-05-01T11:08:00.919Z</time></trkpt><trkpt lat="42.5767203" lon="12.9181845"><ele>1034.0</ele><time>2026-05-01T11:08:01.919Z</time></trkpt><trkpt lat="42.576842" lon="12.9181457"><ele>1034.0</ele><time>2026-05-01T11:08:02.919Z</time></trkpt><trkpt lat="42.5769648" lon="12.9181266"><ele>1034.0</ele><time>2026-05-01T11:08:03.918Z</time></trkpt><trkpt lat="42.5770611" lon="12.9180966"><ele>1034.0</ele><time>2026-05-01T11:08:04.918Z</time></trkpt><trkpt lat="42.5771458" lon="12.9180731"><ele>1034.0</ele><time>2026-05-01T11:08:05.919Z</time></trkpt><trkpt lat="42.5772219" lon="12.9180473"><ele>1034.0</ele><time>2026-05-01T11:08:06.919Z</time></trkpt><trkpt lat="42.5772854" lon="12.9180219"><ele>1032.0</ele><time>2026-05-01T11:08:07.918Z</time></trkpt><trkpt lat="42.5773882" lon="12.9179986"><ele>1030.0</ele><time>2026-05-01T11:08:09.919Z</time></trkpt><trkpt lat="42.5774756" lon="12.9179793"><ele>1028.0</ele><time>2026-05-01T11:08:11.919Z</time></trkpt><trkpt lat="42.5775554" lon="12.9179709"><ele>1026.0</ele><time>2026-05-01T11:08:14.919Z</time></trkpt><trkpt lat="42.5776687" lon="12.9179209"><ele>1024.0</ele><time>2026-05-01T11:08:34.919Z</time></trkpt><trkpt lat="42.5777661" lon="12.9178966"><ele>1022.25</ele><time>2026-05-01T11:08:35.919Z</time></trkpt><trkpt lat="42.577893" lon="12.9178904"><ele>1020.5</ele><time>2026-05-01T11:08:36.918Z</time></trkpt><trkpt lat="42.5780459" lon="12.9178895"><ele>1018.75</ele><time>2026-05-01T11:08:37.919Z</time></trkpt><trkpt lat="42.578207" lon="12.9178907"><ele>1017.0</ele><time>2026-05-01T11:08:38.919Z</time></trkpt><trkpt lat="42.5783948" lon="12.9179199"><ele>1017.0</ele><time>2026-05-01T11:08:39.918Z</time></trkpt><trkpt lat="42.5786063" lon="12.9179868"><ele>1017.0</ele><time>2026-05-01T11:08:40.918Z</time></trkpt><trkpt lat="42.5788258" lon="12.9180655"><ele>1017.0</ele><time>2026-05-01T11:08:41.919Z</time></trkpt><trkpt lat="42.5790542" lon="12.9181452"><ele>1018.5</ele><time>2026-05-01T11:08:42.918Z</time></trkpt><trkpt lat="42.5792735" lon="12.9182503"><ele>1020.0</ele><time>2026-05-01T11:08:43.919Z</time></trkpt><trkpt lat="42.579485" lon="12.9183529"><ele>1013.3333333333333</ele><time>2026-05-01T11:08:44.919Z</time></trkpt><trkpt lat="42.5796882" lon="12.9184803"><ele>1006.6666666666666</ele><time>2026-05-01T11:08:45.919Z</time></trkpt><trkpt lat="42.5798791" lon="12.9186114"><ele>1000.0</ele><time>2026-05-01T11:08:46.919Z</time></trkpt><trkpt lat="42.5800521" lon="12.9187631"><ele>1000.0</ele><time>2026-05-01T11:08:47.918Z</time></trkpt><trkpt lat="42.580219" lon="12.9189264"><ele>1000.0</ele><time>2026-05-01T11:08:48.919Z</time></trkpt><trkpt lat="42.580379" lon="12.9191012"><ele>1000.0</ele><time>2026-05-01T11:08:49.919Z</time></trkpt><trkpt lat="42.5805388" lon="12.9192856"><ele>993.0</ele><time>2026-05-01T11:08:50.919Z</time></trkpt><trkpt lat="42.5806894" lon="12.9194862"><ele>986.0</ele><time>2026-05-01T11:08:51.919Z</time></trkpt><trkpt lat="42.5808334" lon="12.9196988"><ele>979.0</ele><time>2026-05-01T11:08:52.919Z</time></trkpt><trkpt lat="42.5809584" lon="12.9199361"><ele>976.3333333333333</ele><time>2026-05-01T11:08:53.919Z</time></trkpt><trkpt lat="42.581078" lon="12.9201831"><ele>973.6666666666667</ele><time>2026-05-01T11:08:54.92Z</time></trkpt><trkpt lat="42.5811919" lon="12.9204447"><ele>971.0</ele><time>2026-05-01T11:08:55.92Z</time></trkpt><trkpt lat="42.5812995" lon="12.9207184"><ele>961.0</ele><time>2026-05-01T11:08:56.92Z</time></trkpt><trkpt lat="42.5813923" lon="12.921001"><ele>951.0</ele><time>2026-05-01T11:08:57.919Z</time></trkpt><trkpt lat="42.5814711" lon="12.9212902"><ele>951.0</ele><time>2026-05-01T11:08:58.92Z</time></trkpt><trkpt lat="42.5815429" lon="12.9215931"><ele>951.0</ele><time>2026-05-01T11:08:59.92Z</time></trkpt><trkpt lat="42.5815942" lon="12.9219101"><ele>950.0</ele><time>2026-05-01T11:09:00.92Z</time></trkpt><trkpt lat="42.5816279" lon="12.9222322"><ele>949.0</ele><time>2026-05-01T11:09:01.919Z</time></trkpt><trkpt lat="42.5816472" lon="12.9225609"><ele>944.0</ele><time>2026-05-01T11:09:02.919Z</time></trkpt><trkpt lat="42.5816494" lon="12.922892"><ele>939.0</ele><time>2026-05-01T11:09:03.92Z</time></trkpt><trkpt lat="42.5816377" lon="12.92322"><ele>930.5</ele><time>2026-05-01T11:09:04.92Z</time></trkpt><trkpt lat="42.5816076" lon="12.9235457"><ele>922.0</ele><time>2026-05-01T11:09:05.92Z</time></trkpt><trkpt lat="42.5815608" lon="12.9238706"><ele>922.0</ele><time>2026-05-01T11:09:06.92Z</time></trkpt><trkpt lat="42.5814981" lon="12.9241991"><ele>922.0</ele><time>2026-05-01T11:09:07.919Z</time></trkpt><trkpt lat="42.5814199" lon="12.9245179"><ele>914.5</ele><time>2026-05-01T11:09:08.919Z</time></trkpt><trkpt lat="42.5813181" lon="12.9248298"><ele>907.0</ele><time>2026-05-01T11:09:09.92Z</time></trkpt><trkpt lat="42.5811999" lon="12.9251323"><ele>911.0</ele><time>2026-05-01T11:09:10.92Z</time></trkpt><trkpt lat="42.5810652" lon="12.9254278"><ele>915.0</ele><time>2026-05-01T11:09:11.919Z</time></trkpt><trkpt lat="42.5809166" lon="12.9257066"><ele>912.5</ele><time>2026-05-01T11:09:12.92Z</time></trkpt><trkpt lat="42.5807556" lon="12.9259719"><ele>910.0</ele><time>2026-05-01T11:09:13.92Z</time></trkpt><trkpt lat="42.5805802" lon="12.9262277"><ele>910.0</ele><time>2026-05-01T11:09:14.92Z</time></trkpt><trkpt lat="42.5803966" lon="12.9264801"><ele>910.0</ele><time>2026-05-01T11:09:15.919Z</time></trkpt><trkpt lat="42.5801993" lon="12.9267261"><ele>915.0</ele><time>2026-05-01T11:09:16.919Z</time></trkpt><trkpt lat="42.5800068" lon="12.9269701"><ele>920.0</ele><time>2026-05-01T11:09:17.92Z</time></trkpt><trkpt lat="42.5798065" lon="12.9272131"><ele>920.0</ele><time>2026-05-01T11:09:18.919Z</time></trkpt><trkpt lat="42.5796079" lon="12.9274556"><ele>920.0</ele><time>2026-05-01T11:09:19.92Z</time></trkpt><trkpt lat="42.5794104" lon="12.927696"><ele>923.5</ele><time>2026-05-01T11:09:20.919Z</time></trkpt><trkpt lat="42.5792111" lon="12.927936"><ele>927.0</ele><time>2026-05-01T11:09:21.92Z</time></trkpt><trkpt lat="42.579012" lon="12.9281813"><ele>928.5</ele><time>2026-05-01T11:09:22.919Z</time></trkpt><trkpt lat="42.5788176" lon="12.9284189"><ele>930.0</ele><time>2026-05-01T11:09:23.919Z</time></trkpt><trkpt lat="42.5786312" lon="12.9286501"><ele>930.0</ele><time>2026-05-01T11:09:24.92Z</time></trkpt><trkpt lat="42.5784535" lon="12.92888"><ele>930.0</ele><time>2026-05-01T11:09:25.92Z</time></trkpt><trkpt lat="42.5782856" lon="12.929112"><ele>929.0</ele><time>2026-05-01T11:09:26.92Z</time></trkpt><trkpt lat="42.5781268" lon="12.9293545"><ele>928.0</ele><time>2026-05-01T11:09:27.92Z</time></trkpt><trkpt lat="42.5779764" lon="12.9296083"><ele>937.0</ele><time>2026-05-01T11:09:28.92Z</time></trkpt><trkpt lat="42.5778334" lon="12.9298723"><ele>946.0</ele><time>2026-05-01T11:09:29.92Z</time></trkpt><trkpt lat="42.5777069" lon="12.9301472"><ele>946.0</ele><time>2026-05-01T11:09:30.92Z</time></trkpt><trkpt lat="42.577603" lon="12.9304364"><ele>946.0</ele><time>2026-05-01T11:09:31.92Z</time></trkpt><trkpt lat="42.577508" lon="12.9307387"><ele>946.0</ele><time>2026-05-01T11:09:32.92Z</time></trkpt><trkpt lat="42.5774284" lon="12.9310467"><ele>946.0</ele><time>2026-05-01T11:09:33.92Z</time></trkpt><trkpt lat="42.5773635" lon="12.931368"><ele>946.0</ele><time>2026-05-01T11:09:34.92Z</time></trkpt><trkpt lat="42.577313" lon="12.9317021"><ele>946.0</ele><time>2026-05-01T11:09:35.919Z</time></trkpt><trkpt lat="42.5772759" lon="12.9320497"><ele>947.0</ele><time>2026-05-01T11:09:36.92Z</time></trkpt><trkpt lat="42.5772594" lon="12.9324092"><ele>948.0</ele><time>2026-05-01T11:09:37.92Z</time></trkpt><trkpt lat="42.5772585" lon="12.9327707"><ele>948.0</ele><time>2026-05-01T11:09:38.92Z</time></trkpt><trkpt lat="42.5772692" lon="12.9331372"><ele>948.0</ele><time>2026-05-01T11:09:39.92Z</time></trkpt><trkpt lat="42.5772929" lon="12.9334975"><ele>949.5</ele><time>2026-05-01T11:09:40.92Z</time></trkpt><trkpt lat="42.5773202" lon="12.9338512"><ele>951.0</ele><time>2026-05-01T11:09:41.92Z</time></trkpt><trkpt lat="42.577352" lon="12.9342077"><ele>949.5</ele><time>2026-05-01T11:09:42.92Z</time></trkpt><trkpt lat="42.5773849" lon="12.9345627"><ele>948.0</ele><time>2026-05-01T11:09:43.92Z</time></trkpt><trkpt lat="42.5774158" lon="12.9349124"><ele>947.0</ele><time>2026-05-01T11:09:44.919Z</time></trkpt><trkpt lat="42.5774459" lon="12.9352542"><ele>946.0</ele><time>2026-05-01T11:09:45.92Z</time></trkpt><trkpt lat="42.5774814" lon="12.9355996"><ele>944.0</ele><time>2026-05-01T11:09:46.919Z</time></trkpt><trkpt lat="42.5775159" lon="12.9359417"><ele>942.0</ele><time>2026-05-01T11:09:47.919Z</time></trkpt><trkpt lat="42.5775427" lon="12.9362911"><ele>942.0</ele><time>2026-05-01T11:09:48.92Z</time></trkpt><trkpt lat="42.5775688" lon="12.9366318"><ele>942.0</ele><time>2026-05-01T11:09:49.919Z</time></trkpt><trkpt lat="42.577599" lon="12.9369759"><ele>940.5</ele><time>2026-05-01T11:09:50.92Z</time></trkpt><trkpt lat="42.5776261" lon="12.9373194"><ele>939.0</ele><time>2026-05-01T11:09:51.92Z</time></trkpt><trkpt lat="42.5776546" lon="12.93766"><ele>937.5</ele><time>2026-05-01T11:09:52.92Z</time></trkpt><trkpt lat="42.577679" lon="12.9380053"><ele>936.0</ele><time>2026-05-01T11:09:53.919Z</time></trkpt><trkpt lat="42.5776947" lon="12.938348"><ele>933.5</ele><time>2026-05-01T11:09:54.92Z</time></trkpt><trkpt lat="42.5776979" lon="12.9386957"><ele>931.0</ele><time>2026-05-01T11:09:55.92Z</time></trkpt><trkpt lat="42.577688" lon="12.9390506"><ele>930.5</ele><time>2026-05-01T11:09:56.919Z</time></trkpt><trkpt lat="42.5776623" lon="12.9393999"><ele>930.0</ele><time>2026-05-01T11:09:57.919Z</time></trkpt><trkpt lat="42.5776123" lon="12.9397519"><ele>927.5</ele><time>2026-05-01T11:09:58.92Z</time></trkpt><trkpt lat="42.5775439" lon="12.9401033"><ele>925.0</ele><time>2026-05-01T11:09:59.92Z</time></trkpt><trkpt lat="42.5774569" lon="12.9404408"><ele>925.0</ele><time>2026-05-01T11:10:00.92Z</time></trkpt><trkpt lat="42.5773553" lon="12.9407786"><ele>925.0</ele><time>2026-05-01T11:10:01.92Z</time></trkpt><trkpt lat="42.5772352" lon="12.9411173"><ele>925.5</ele><time>2026-05-01T11:10:02.92Z</time></trkpt><trkpt lat="42.5771106" lon="12.9414485"><ele>926.0</ele><time>2026-05-01T11:10:03.92Z</time></trkpt><trkpt lat="42.5769813" lon="12.9417804"><ele>926.5</ele><time>2026-05-01T11:10:04.92Z</time></trkpt><trkpt lat="42.5768534" lon="12.942112"><ele>927.0</ele><time>2026-05-01T11:10:05.919Z</time></trkpt><trkpt lat="42.5767228" lon="12.9424461"><ele>925.0</ele><time>2026-05-01T11:10:06.92Z</time></trkpt><trkpt lat="42.576594" lon="12.9427777"><ele>923.0</ele><time>2026-05-01T11:10:07.919Z</time></trkpt><trkpt lat="42.5764666" lon="12.9431118"><ele>923.0</ele><time>2026-05-01T11:10:08.92Z</time></trkpt><trkpt lat="42.5763391" lon="12.9434402"><ele>923.0</ele><time>2026-05-01T11:10:09.92Z</time></trkpt><trkpt lat="42.5762129" lon="12.9437658"><ele>924.5</ele><time>2026-05-01T11:10:10.92Z</time></trkpt><trkpt lat="42.576086" lon="12.9440932"><ele>926.0</ele><time>2026-05-01T11:10:11.92Z</time></trkpt><trkpt lat="42.5759622" lon="12.9444187"><ele>926.5</ele><time>2026-05-01T11:10:12.919Z</time></trkpt><trkpt lat="42.575842" lon="12.9447372"><ele>927.0</ele><time>2026-05-01T11:10:13.92Z</time></trkpt><trkpt lat="42.5757254" lon="12.9450538"><ele>928.0</ele><time>2026-05-01T11:10:14.92Z</time></trkpt><trkpt lat="42.5756043" lon="12.9453685"><ele>929.0</ele><time>2026-05-01T11:10:15.92Z</time></trkpt><trkpt lat="42.5754825" lon="12.9456816"><ele>929.0</ele><time>2026-05-01T11:10:16.92Z</time></trkpt><trkpt lat="42.5753635" lon="12.9459888"><ele>929.0</ele><time>2026-05-01T11:10:17.92Z</time></trkpt><trkpt lat="42.575244" lon="12.9462967"><ele>929.0</ele><time>2026-05-01T11:10:18.92Z</time></trkpt><trkpt lat="42.5751261" lon="12.9466024"><ele>929.0</ele><time>2026-05-01T11:10:19.92Z</time></trkpt><trkpt lat="42.5750085" lon="12.9469039"><ele>928.5</ele><time>2026-05-01T11:10:20.92Z</time></trkpt><trkpt lat="42.5748917" lon="12.947206"><ele>928.0</ele><time>2026-05-01T11:10:21.919Z</time></trkpt><trkpt lat="42.5747752" lon="12.9475123"><ele>928.5</ele><time>2026-05-01T11:10:22.92Z</time></trkpt><trkpt lat="42.5746609" lon="12.9478158"><ele>929.0</ele><time>2026-05-01T11:10:23.92Z</time></trkpt><trkpt lat="42.574548" lon="12.9481183"><ele>931.0</ele><time>2026-05-01T11:10:24.92Z</time></trkpt><trkpt lat="42.5744334" lon="12.9484227"><ele>933.0</ele><time>2026-05-01T11:10:25.92Z</time></trkpt><trkpt lat="42.5743146" lon="12.9487255"><ele>933.0</ele><time>2026-05-01T11:10:26.92Z</time></trkpt><trkpt lat="42.5742017" lon="12.9490295"><ele>933.0</ele><time>2026-05-01T11:10:27.92Z</time></trkpt><trkpt lat="42.5740901" lon="12.9493414"><ele>933.0</ele><time>2026-05-01T11:10:28.92Z</time></trkpt><trkpt lat="42.5739727" lon="12.9496573"><ele>933.0</ele><time>2026-05-01T11:10:29.919Z</time></trkpt><trkpt lat="42.5738568" lon="12.9499733"><ele>933.0</ele><time>2026-05-01T11:10:30.92Z</time></trkpt><trkpt lat="42.5737331" lon="12.9502829"><ele>933.0</ele><time>2026-05-01T11:10:31.92Z</time></trkpt><trkpt lat="42.573613" lon="12.9506005"><ele>933.0</ele><time>2026-05-01T11:10:32.92Z</time></trkpt><trkpt lat="42.5734945" lon="12.9509244"><ele>933.0</ele><time>2026-05-01T11:10:33.92Z</time></trkpt><trkpt lat="42.5733849" lon="12.9512563"><ele>933.0</ele><time>2026-05-01T11:10:34.92Z</time></trkpt><trkpt lat="42.5732917" lon="12.9515981"><ele>933.0</ele><time>2026-05-01T11:10:35.92Z</time></trkpt><trkpt lat="42.5732023" lon="12.9519419"><ele>931.5</ele><time>2026-05-01T11:10:36.92Z</time></trkpt><trkpt lat="42.5731229" lon="12.9522962"><ele>930.0</ele><time>2026-05-01T11:10:37.92Z</time></trkpt><trkpt lat="42.5730529" lon="12.952657"><ele>930.0</ele><time>2026-05-01T11:10:38.92Z</time></trkpt><trkpt lat="42.5729937" lon="12.9530194"><ele>930.0</ele><time>2026-05-01T11:10:39.92Z</time></trkpt><trkpt lat="42.5729395" lon="12.9533838"><ele>931.5</ele><time>2026-05-01T11:10:40.92Z</time></trkpt><trkpt lat="42.572882" lon="12.9537454"><ele>933.0</ele><time>2026-05-01T11:10:41.919Z</time></trkpt><trkpt lat="42.5728292" lon="12.9541048"><ele>934.0</ele><time>2026-05-01T11:10:42.92Z</time></trkpt><trkpt lat="42.572772" lon="12.9544632"><ele>935.0</ele><time>2026-05-01T11:10:43.92Z</time></trkpt><trkpt lat="42.5727174" lon="12.9548153"><ele>937.5</ele><time>2026-05-01T11:10:44.919Z</time></trkpt><trkpt lat="42.5726627" lon="12.955157"><ele>940.0</ele><time>2026-05-01T11:10:45.92Z</time></trkpt><trkpt lat="42.5726123" lon="12.9554932"><ele>940.0</ele><time>2026-05-01T11:10:46.92Z</time></trkpt><trkpt lat="42.5725613" lon="12.9558114"><ele>940.0</ele><time>2026-05-01T11:10:47.919Z</time></trkpt><trkpt lat="42.572513" lon="12.956124"><ele>940.3333333333333</ele><time>2026-05-01T11:10:48.92Z</time></trkpt><trkpt lat="42.5724717" lon="12.9564217"><ele>940.6666666666667</ele><time>2026-05-01T11:10:49.92Z</time></trkpt><trkpt lat="42.5724263" lon="12.956717"><ele>941.0</ele><time>2026-05-01T11:10:50.92Z</time></trkpt><trkpt lat="42.5723766" lon="12.957008"><ele>941.6666666666667</ele><time>2026-05-01T11:10:51.92Z</time></trkpt><trkpt lat="42.5723294" lon="12.9572953"><ele>942.3333333333333</ele><time>2026-05-01T11:10:52.919Z</time></trkpt><trkpt lat="42.5722864" lon="12.9575777"><ele>943.0</ele><time>2026-05-01T11:10:53.92Z</time></trkpt><trkpt lat="42.57224" lon="12.9578623"><ele>943.6666666666666</ele><time>2026-05-01T11:10:54.92Z</time></trkpt><trkpt lat="42.5721921" lon="12.9581398"><ele>944.3333333333333</ele><time>2026-05-01T11:10:55.919Z</time></trkpt><trkpt lat="42.5721437" lon="12.9584162"><ele>945.0</ele><time>2026-05-01T11:10:56.919Z</time></trkpt><trkpt lat="42.5720978" lon="12.9586951"><ele>945.0</ele><time>2026-05-01T11:10:57.92Z</time></trkpt><trkpt lat="42.5720578" lon="12.9589613"><ele>945.0</ele><time>2026-05-01T11:10:58.919Z</time></trkpt><trkpt lat="42.5720165" lon="12.9592134"><ele>945.0</ele><time>2026-05-01T11:10:59.92Z</time></trkpt><trkpt lat="42.5719778" lon="12.9594392"><ele>945.6666666666667</ele><time>2026-05-01T11:11:00.919Z</time></trkpt><trkpt lat="42.5719439" lon="12.9596547"><ele>946.3333333333334</ele><time>2026-05-01T11:11:01.92Z</time></trkpt><trkpt lat="42.5719165" lon="12.959855"><ele>947.0</ele><time>2026-05-01T11:11:02.92Z</time></trkpt><trkpt lat="42.5718875" lon="12.9600467"><ele>947.75</ele><time>2026-05-01T11:11:03.92Z</time></trkpt><trkpt lat="42.5718576" lon="12.9602264"><ele>948.5</ele><time>2026-05-01T11:11:04.919Z</time></trkpt><trkpt lat="42.5718231" lon="12.9604014"><ele>949.25</ele><time>2026-05-01T11:11:05.92Z</time></trkpt><trkpt lat="42.5717955" lon="12.9605734"><ele>950.0</ele><time>2026-05-01T11:11:06.919Z</time></trkpt><trkpt lat="42.5717697" lon="12.9607361"><ele>950.2</ele><time>2026-05-01T11:11:07.919Z</time></trkpt><trkpt lat="42.5717465" lon="12.9609006"><ele>950.4</ele><time>2026-05-01T11:11:08.92Z</time></trkpt><trkpt lat="42.5717233" lon="12.9610479"><ele>950.5999999999999</ele><time>2026-05-01T11:11:09.92Z</time></trkpt><trkpt lat="42.5716948" lon="12.9611679"><ele>950.8</ele><time>2026-05-01T11:11:10.919Z</time></trkpt><trkpt lat="42.5716655" lon="12.9612765"><ele>951.0</ele><time>2026-05-01T11:11:11.92Z</time></trkpt><trkpt lat="42.5716176" lon="12.9613617"><ele>951.0</ele><time>2026-05-01T11:11:12.919Z</time></trkpt><trkpt lat="42.5715471" lon="12.9614371"><ele>951.0</ele><time>2026-05-01T11:11:13.919Z</time></trkpt><trkpt lat="42.5714809" lon="12.9615073"><ele>951.0</ele><time>2026-05-01T11:11:14.919Z</time></trkpt><trkpt lat="42.5714341" lon="12.9616034"><ele>951.0</ele><time>2026-05-01T11:11:15.919Z</time></trkpt><trkpt lat="42.5714143" lon="12.9617155"><ele>951.0</ele><time>2026-05-01T11:11:16.92Z</time></trkpt><trkpt lat="42.5714193" lon="12.9618266"><ele>951.0</ele><time>2026-05-01T11:11:17.92Z</time></trkpt><trkpt lat="42.5714629" lon="12.9619321"><ele>950.8</ele><time>2026-05-01T11:11:18.92Z</time></trkpt><trkpt lat="42.5715347" lon="12.9620108"><ele>950.5999999999999</ele><time>2026-05-01T11:11:19.92Z</time></trkpt><trkpt lat="42.5716288" lon="12.962035"><ele>950.4</ele><time>2026-05-01T11:11:20.92Z</time></trkpt><trkpt lat="42.571727" lon="12.9620136"><ele>950.2</ele><time>2026-05-01T11:11:21.92Z</time></trkpt><trkpt lat="42.5718108" lon="12.9619434"><ele>950.0</ele><time>2026-05-01T11:11:22.92Z</time></trkpt><trkpt lat="42.5718857" lon="12.9618354"><ele>950.0</ele><time>2026-05-01T11:11:23.919Z</time></trkpt><trkpt lat="42.5719724" lon="12.9617292"><ele>950.0</ele><time>2026-05-01T11:11:24.92Z</time></trkpt><trkpt lat="42.5720745" lon="12.961654"><ele>950.0</ele><time>2026-05-01T11:11:25.92Z</time></trkpt><trkpt lat="42.5722157" lon="12.961599"><ele>950.0</ele><time>2026-05-01T11:11:26.919Z</time></trkpt><trkpt lat="42.5723731" lon="12.9615509"><ele>950.0</ele><time>2026-05-01T11:11:27.92Z</time></trkpt><trkpt lat="42.5725595" lon="12.9614986"><ele>950.0</ele><time>2026-05-01T11:11:28.92Z</time></trkpt><trkpt lat="42.5727576" lon="12.9614581"><ele>950.0</ele><time>2026-05-01T11:11:29.92Z</time></trkpt><trkpt lat="42.5729648" lon="12.961399"><ele>948.6666666666667</ele><time>2026-05-01T11:11:30.92Z</time></trkpt><trkpt lat="42.5731843" lon="12.961333"><ele>947.3333333333333</ele><time>2026-05-01T11:11:31.92Z</time></trkpt><trkpt lat="42.5733994" lon="12.9612713"><ele>946.0</ele><time>2026-05-01T11:11:32.92Z</time></trkpt><trkpt lat="42.5736182" lon="12.9612197"><ele>945.5</ele><time>2026-05-01T11:11:33.919Z</time></trkpt><trkpt lat="42.5738418" lon="12.9611629"><ele>945.0</ele><time>2026-05-01T11:11:34.92Z</time></trkpt><trkpt lat="42.574067" lon="12.9610964"><ele>945.0</ele><time>2026-05-01T11:11:35.92Z</time></trkpt><trkpt lat="42.5742936" lon="12.9610295"><ele>945.0</ele><time>2026-05-01T11:11:36.92Z</time></trkpt><trkpt lat="42.5745229" lon="12.9609648"><ele>944.5</ele><time>2026-05-01T11:11:37.92Z</time></trkpt><trkpt lat="42.5747563" lon="12.9609049"><ele>944.0</ele><time>2026-05-01T11:11:38.919Z</time></trkpt><trkpt lat="42.5749904" lon="12.9608408"><ele>944.0</ele><time>2026-05-01T11:11:39.92Z</time></trkpt><trkpt lat="42.5752294" lon="12.9607703"><ele>944.0</ele><time>2026-05-01T11:11:40.92Z</time></trkpt><trkpt lat="42.5754675" lon="12.9607008"><ele>943.0</ele><time>2026-05-01T11:11:41.919Z</time></trkpt><trkpt lat="42.5757034" lon="12.960636"><ele>942.0</ele><time>2026-05-01T11:11:42.92Z</time></trkpt><trkpt lat="42.5759373" lon="12.9605736"><ele>942.0</ele><time>2026-05-01T11:11:43.92Z</time></trkpt><trkpt lat="42.5761707" lon="12.9605071"><ele>942.0</ele><time>2026-05-01T11:11:44.919Z</time></trkpt><trkpt lat="42.5763917" lon="12.9604443"><ele>941.6666666666667</ele><time>2026-05-01T11:11:45.92Z</time></trkpt><trkpt lat="42.5766063" lon="12.9603832"><ele>941.3333333333334</ele><time>2026-05-01T11:11:46.92Z</time></trkpt><trkpt lat="42.5768191" lon="12.9603249"><ele>941.0</ele><time>2026-05-01T11:11:47.92Z</time></trkpt><trkpt lat="42.5770286" lon="12.9602635"><ele>939.6666666666667</ele><time>2026-05-01T11:11:48.919Z</time></trkpt><trkpt lat="42.5772406" lon="12.9602045"><ele>938.3333333333333</ele><time>2026-05-01T11:11:49.92Z</time></trkpt><trkpt lat="42.5774569" lon="12.9601417"><ele>937.0</ele><time>2026-05-01T11:11:50.92Z</time></trkpt><trkpt lat="42.5776748" lon="12.9600824"><ele>936.6666666666666</ele><time>2026-05-01T11:11:51.919Z</time></trkpt><trkpt lat="42.5778916" lon="12.9600206"><ele>936.3333333333333</ele><time>2026-05-01T11:11:52.92Z</time></trkpt><trkpt lat="42.57811" lon="12.9599611"><ele>936.0</ele><time>2026-05-01T11:11:53.92Z</time></trkpt><trkpt lat="42.5783254" lon="12.959898"><ele>936.0</ele><time>2026-05-01T11:11:54.92Z</time></trkpt><trkpt lat="42.5785436" lon="12.9598373"><ele>936.0</ele><time>2026-05-01T11:11:55.92Z</time></trkpt><trkpt lat="42.5787607" lon="12.9597747"><ele>936.0</ele><time>2026-05-01T11:11:56.92Z</time></trkpt><trkpt lat="42.5789821" lon="12.9597104"><ele>935.5</ele><time>2026-05-01T11:11:57.92Z</time></trkpt><trkpt lat="42.5792072" lon="12.9596426"><ele>935.0</ele><time>2026-05-01T11:11:58.92Z</time></trkpt><trkpt lat="42.5794348" lon="12.9595757"><ele>934.5</ele><time>2026-05-01T11:11:59.919Z</time></trkpt><trkpt lat="42.5796644" lon="12.9595083"><ele>934.0</ele><time>2026-05-01T11:12:00.92Z</time></trkpt><trkpt lat="42.5798985" lon="12.9594424"><ele>934.0</ele><time>2026-05-01T11:12:01.92Z</time></trkpt><trkpt lat="42.5801293" lon="12.9593847"><ele>934.0</ele><time>2026-05-01T11:12:02.919Z</time></trkpt><trkpt lat="42.5803706" lon="12.9593253"><ele>933.5</ele><time>2026-05-01T11:12:03.92Z</time></trkpt><trkpt lat="42.5806075" lon="12.959263"><ele>933.0</ele><time>2026-05-01T11:12:04.919Z</time></trkpt><trkpt lat="42.5808444" lon="12.9592006"><ele>933.0</ele><time>2026-05-01T11:12:05.92Z</time></trkpt><trkpt lat="42.5810794" lon="12.95913"><ele>933.0</ele><time>2026-05-01T11:12:06.92Z</time></trkpt><trkpt lat="42.5813205" lon="12.959054"><ele>932.0</ele><time>2026-05-01T11:12:07.92Z</time></trkpt><trkpt lat="42.5815651" lon="12.9589805"><ele>931.0</ele><time>2026-05-01T11:12:08.919Z</time></trkpt><trkpt lat="42.581812" lon="12.958909"><ele>930.0</ele><time>2026-05-01T11:12:09.92Z</time></trkpt><trkpt lat="42.5820554" lon="12.9588355"><ele>929.0</ele><time>2026-05-01T11:12:10.92Z</time></trkpt><trkpt lat="42.5823044" lon="12.9587597"><ele>929.0</ele><time>2026-05-01T11:12:11.919Z</time></trkpt><trkpt lat="42.5825551" lon="12.9586875"><ele>929.0</ele><time>2026-05-01T11:12:12.92Z</time></trkpt><trkpt lat="42.5828046" lon="12.9586166"><ele>928.0</ele><time>2026-05-01T11:12:13.92Z</time></trkpt><trkpt lat="42.5830543" lon="12.9585503"><ele>927.0</ele><time>2026-05-01T11:12:14.92Z</time></trkpt><trkpt lat="42.5833081" lon="12.9584842"><ele>927.0</ele><time>2026-05-01T11:12:15.919Z</time></trkpt><trkpt lat="42.5835692" lon="12.95841"><ele>927.0</ele><time>2026-05-01T11:12:16.92Z</time></trkpt><trkpt lat="42.5838276" lon="12.9583362"><ele>927.0</ele><time>2026-05-01T11:12:17.92Z</time></trkpt><trkpt lat="42.5840904" lon="12.9582602"><ele>927.0</ele><time>2026-05-01T11:12:18.92Z</time></trkpt><trkpt lat="42.5843503" lon="12.9581887"><ele>926.0</ele><time>2026-05-01T11:12:19.92Z</time></trkpt><trkpt lat="42.5846082" lon="12.9581173"><ele>925.0</ele><time>2026-05-01T11:12:20.919Z</time></trkpt><trkpt lat="42.584866" lon="12.9580447"><ele>925.0</ele><time>2026-05-01T11:12:21.92Z</time></trkpt><trkpt lat="42.5851259" lon="12.9579725"><ele>925.0</ele><time>2026-05-01T11:12:22.92Z</time></trkpt><trkpt lat="42.5853862" lon="12.9578995"><ele>924.5</ele><time>2026-05-01T11:12:23.919Z</time></trkpt><trkpt lat="42.5856509" lon="12.9578248"><ele>924.0</ele><time>2026-05-01T11:12:24.92Z</time></trkpt><trkpt lat="42.5859074" lon="12.9577535"><ele>924.0</ele><time>2026-05-01T11:12:25.92Z</time></trkpt><trkpt lat="42.586165" lon="12.9576826"><ele>924.0</ele><time>2026-05-01T11:12:26.92Z</time></trkpt><trkpt lat="42.5864174" lon="12.9576123"><ele>922.5</ele><time>2026-05-01T11:12:27.92Z</time></trkpt><trkpt lat="42.5866663" lon="12.9575453"><ele>921.0</ele><time>2026-05-01T11:12:28.92Z</time></trkpt><trkpt lat="42.5869127" lon="12.9574774"><ele>919.5</ele><time>2026-05-01T11:12:29.92Z</time></trkpt><trkpt lat="42.5871587" lon="12.9574115"><ele>918.0</ele><time>2026-05-01T11:12:30.92Z</time></trkpt><trkpt lat="42.5874064" lon="12.9573423"><ele>918.0</ele><time>2026-05-01T11:12:31.92Z</time></trkpt><trkpt lat="42.5876615" lon="12.9572685"><ele>918.0</ele><time>2026-05-01T11:12:32.919Z</time></trkpt><trkpt lat="42.5879111" lon="12.9572023"><ele>917.0</ele><time>2026-05-01T11:12:33.92Z</time></trkpt><trkpt lat="42.5881658" lon="12.9571279"><ele>916.0</ele><time>2026-05-01T11:12:34.919Z</time></trkpt><trkpt lat="42.5884205" lon="12.9570557"><ele>915.0</ele><time>2026-05-01T11:12:35.92Z</time></trkpt><trkpt lat="42.5886809" lon="12.9569789"><ele>914.0</ele><time>2026-05-01T11:12:36.919Z</time></trkpt><trkpt lat="42.5889391" lon="12.9569068"><ele>914.0</ele><time>2026-05-01T11:12:37.92Z</time></trkpt><trkpt lat="42.5891987" lon="12.9568307"><ele>914.0</ele><time>2026-05-01T11:12:38.92Z</time></trkpt><trkpt lat="42.5894563" lon="12.9567547"><ele>913.5</ele><time>2026-05-01T11:12:39.92Z</time></trkpt><trkpt lat="42.5897099" lon="12.9566821"><ele>913.0</ele><time>2026-05-01T11:12:40.92Z</time></trkpt><trkpt lat="42.5899562" lon="12.9566168"><ele>913.0</ele><time>2026-05-01T11:12:41.92Z</time></trkpt><trkpt lat="42.590187" lon="12.9565536"><ele>913.0</ele><time>2026-05-01T11:12:42.92Z</time></trkpt><trkpt lat="42.5904136" lon="12.9564944"><ele>912.0</ele><time>2026-05-01T11:12:43.92Z</time></trkpt><trkpt lat="42.5906469" lon="12.9564388"><ele>911.0</ele><time>2026-05-01T11:12:44.92Z</time></trkpt><trkpt lat="42.5908822" lon="12.9563783"><ele>911.0</ele><time>2026-05-01T11:12:45.92Z</time></trkpt><trkpt lat="42.5911233" lon="12.9563122"><ele>911.0</ele><time>2026-05-01T11:12:46.919Z</time></trkpt><trkpt lat="42.5913771" lon="12.9562297"><ele>910.0</ele><time>2026-05-01T11:12:47.919Z</time></trkpt><trkpt lat="42.5916398" lon="12.9561533"><ele>909.0</ele><time>2026-05-01T11:12:48.919Z</time></trkpt><trkpt lat="42.5919027" lon="12.956079"><ele>907.5</ele><time>2026-05-01T11:12:49.92Z</time></trkpt><trkpt lat="42.5921559" lon="12.9560075"><ele>906.0</ele><time>2026-05-01T11:12:50.92Z</time></trkpt><trkpt lat="42.592417" lon="12.9559314"><ele>906.0</ele><time>2026-05-01T11:12:51.92Z</time></trkpt><trkpt lat="42.5926731" lon="12.9558522"><ele>906.0</ele><time>2026-05-01T11:12:52.92Z</time></trkpt><trkpt lat="42.5929317" lon="12.9557795"><ele>906.0</ele><time>2026-05-01T11:12:53.92Z</time></trkpt><trkpt lat="42.5931935" lon="12.9557063"><ele>906.0</ele><time>2026-05-01T11:12:54.92Z</time></trkpt><trkpt lat="42.5934534" lon="12.9556352"><ele>906.0</ele><time>2026-05-01T11:12:55.92Z</time></trkpt><trkpt lat="42.5937036" lon="12.9555673"><ele>906.0</ele><time>2026-05-01T11:12:56.919Z</time></trkpt><trkpt lat="42.5939513" lon="12.9555013"><ele>906.0</ele><time>2026-05-01T11:12:57.92Z</time></trkpt><trkpt lat="42.5941896" lon="12.9554309"><ele>906.0</ele><time>2026-05-01T11:12:58.92Z</time></trkpt><trkpt lat="42.5944251" lon="12.9553709"><ele>905.5</ele><time>2026-05-01T11:12:59.92Z</time></trkpt><trkpt lat="42.5946479" lon="12.9553109"><ele>905.0</ele><time>2026-05-01T11:13:00.919Z</time></trkpt><trkpt lat="42.5948681" lon="12.9552478"><ele>905.0</ele><time>2026-05-01T11:13:01.919Z</time></trkpt><trkpt lat="42.5950892" lon="12.9551818"><ele>905.0</ele><time>2026-05-01T11:13:02.92Z</time></trkpt><trkpt lat="42.5953109" lon="12.9551131"><ele>904.5</ele><time>2026-05-01T11:13:03.919Z</time></trkpt><trkpt lat="42.5955334" lon="12.9550499"><ele>904.0</ele><time>2026-05-01T11:13:04.92Z</time></trkpt><trkpt lat="42.5957519" lon="12.9549905"><ele>904.0</ele><time>2026-05-01T11:13:05.919Z</time></trkpt><trkpt lat="42.5959564" lon="12.954935"><ele>904.0</ele><time>2026-05-01T11:13:06.92Z</time></trkpt><trkpt lat="42.5961496" lon="12.95487"><ele>904.0</ele><time>2026-05-01T11:13:07.919Z</time></trkpt><trkpt lat="42.59633" lon="12.9548152"><ele>903.3333333333333</ele><time>2026-05-01T11:13:08.92Z</time></trkpt><trkpt lat="42.5965049" lon="12.9547703"><ele>902.6666666666667</ele><time>2026-05-01T11:13:09.92Z</time></trkpt><trkpt lat="42.5966787" lon="12.9547256"><ele>902.0</ele><time>2026-05-01T11:13:10.92Z</time></trkpt><trkpt lat="42.5968538" lon="12.9546809"><ele>901.6666666666667</ele><time>2026-05-01T11:13:11.919Z</time></trkpt><trkpt lat="42.5970412" lon="12.9546481"><ele>901.3333333333333</ele><time>2026-05-01T11:13:12.92Z</time></trkpt><trkpt lat="42.5972425" lon="12.9546416"><ele>901.0</ele><time>2026-05-01T11:13:13.919Z</time></trkpt><trkpt lat="42.597465" lon="12.9546639"><ele>901.0</ele><time>2026-05-01T11:13:14.92Z</time></trkpt><trkpt lat="42.5976815" lon="12.9547046"><ele>901.0</ele><time>2026-05-01T11:13:15.92Z</time></trkpt><trkpt lat="42.5978879" lon="12.954744"><ele>901.0</ele><time>2026-05-01T11:13:16.919Z</time></trkpt><trkpt lat="42.5980864" lon="12.9547689"><ele>900.6666666666666</ele><time>2026-05-01T11:13:17.92Z</time></trkpt><trkpt lat="42.5982848" lon="12.954784"><ele>900.3333333333333</ele><time>2026-05-01T11:13:18.92Z</time></trkpt><trkpt lat="42.598487" lon="12.9547723"><ele>900.0</ele><time>2026-05-01T11:13:19.92Z</time></trkpt><trkpt lat="42.5986845" lon="12.9547484"><ele>901.0</ele><time>2026-05-01T11:13:20.92Z</time></trkpt><trkpt lat="42.5988804" lon="12.9547102"><ele>902.0</ele><time>2026-05-01T11:13:21.92Z</time></trkpt><trkpt lat="42.5990753" lon="12.9546385"><ele>903.0</ele><time>2026-05-01T11:13:22.92Z</time></trkpt><trkpt lat="42.5992591" lon="12.9544955"><ele>903.0</ele><time>2026-05-01T11:13:23.92Z</time></trkpt><trkpt lat="42.5994207" lon="12.9543123"><ele>903.0</ele><time>2026-05-01T11:13:24.92Z</time></trkpt><trkpt lat="42.5995812" lon="12.9541077"><ele>903.0</ele><time>2026-05-01T11:13:25.92Z</time></trkpt><trkpt lat="42.5997422" lon="12.9538968"><ele>909.5</ele><time>2026-05-01T11:13:26.919Z</time></trkpt><trkpt lat="42.5999084" lon="12.9536952"><ele>916.0</ele><time>2026-05-01T11:13:27.92Z</time></trkpt><trkpt lat="42.6000826" lon="12.9534896"><ele>917.5</ele><time>2026-05-01T11:13:28.919Z</time></trkpt><trkpt lat="42.6002576" lon="12.9532772"><ele>919.0</ele><time>2026-05-01T11:13:29.92Z</time></trkpt><trkpt lat="42.6004267" lon="12.9530586"><ele>919.0</ele><time>2026-05-01T11:13:30.919Z</time></trkpt><trkpt lat="42.6006085" lon="12.952845"><ele>919.0</ele><time>2026-05-01T11:13:31.92Z</time></trkpt><trkpt lat="42.6008215" lon="12.9526715"><ele>916.0</ele><time>2026-05-01T11:13:32.919Z</time></trkpt><trkpt lat="42.6010312" lon="12.9524936"><ele>913.0</ele><time>2026-05-01T11:13:33.92Z</time></trkpt><trkpt lat="42.6012404" lon="12.9523204"><ele>913.0</ele><time>2026-05-01T11:13:34.919Z</time></trkpt><trkpt lat="42.601447" lon="12.9521501"><ele>913.0</ele><time>2026-05-01T11:13:35.92Z</time></trkpt><trkpt lat="42.6016543" lon="12.9519671"><ele>913.0</ele><time>2026-05-01T11:13:36.919Z</time></trkpt><trkpt lat="42.6018465" lon="12.9517725"><ele>913.0</ele><time>2026-05-01T11:13:37.92Z</time></trkpt><trkpt lat="42.6020284" lon="12.9515669"><ele>913.5</ele><time>2026-05-01T11:13:38.92Z</time></trkpt><trkpt lat="42.602201" lon="12.9513385"><ele>914.0</ele><time>2026-05-01T11:13:39.919Z</time></trkpt><trkpt lat="42.6023554" lon="12.9511102"><ele>914.0</ele><time>2026-05-01T11:13:40.92Z</time></trkpt><trkpt lat="42.6025209" lon="12.9508835"><ele>914.0</ele><time>2026-05-01T11:13:41.92Z</time></trkpt><trkpt lat="42.602685" lon="12.9506689"><ele>913.5</ele><time>2026-05-01T11:13:42.92Z</time></trkpt><trkpt lat="42.6028833" lon="12.9504853"><ele>913.0</ele><time>2026-05-01T11:13:43.92Z</time></trkpt><trkpt lat="42.6030832" lon="12.9503096"><ele>913.0</ele><time>2026-05-01T11:13:44.919Z</time></trkpt><trkpt lat="42.6032903" lon="12.9501458"><ele>913.0</ele><time>2026-05-01T11:13:45.92Z</time></trkpt><trkpt lat="42.6034998" lon="12.9499883"><ele>905.5</ele><time>2026-05-01T11:13:46.92Z</time></trkpt><trkpt lat="42.6037225" lon="12.9498295"><ele>898.0</ele><time>2026-05-01T11:13:47.92Z</time></trkpt><trkpt lat="42.6039435" lon="12.9496993"><ele>898.0</ele><time>2026-05-01T11:13:48.919Z</time></trkpt><trkpt lat="42.6041619" lon="12.9495777"><ele>898.0</ele><time>2026-05-01T11:13:49.92Z</time></trkpt><trkpt lat="42.604387" lon="12.9494765"><ele>900.0</ele><time>2026-05-01T11:13:50.919Z</time></trkpt><trkpt lat="42.6046233" lon="12.9494004"><ele>902.0</ele><time>2026-05-01T11:13:51.92Z</time></trkpt><trkpt lat="42.6048652" lon="12.9493635"><ele>902.0</ele><time>2026-05-01T11:13:52.92Z</time></trkpt><trkpt lat="42.6051127" lon="12.9493672"><ele>902.0</ele><time>2026-05-01T11:13:53.919Z</time></trkpt><trkpt lat="42.6053522" lon="12.9493844"><ele>902.6666666666667</ele><time>2026-05-01T11:13:54.92Z</time></trkpt><trkpt lat="42.6055809" lon="12.9493835"><ele>903.3333333333333</ele><time>2026-05-01T11:13:55.92Z</time></trkpt><trkpt lat="42.6057966" lon="12.9493528"><ele>904.0</ele><time>2026-05-01T11:13:56.919Z</time></trkpt><trkpt lat="42.6060021" lon="12.9493035"><ele>903.6666666666666</ele><time>2026-05-01T11:13:57.919Z</time></trkpt><trkpt lat="42.6062095" lon="12.949288"><ele>903.3333333333333</ele><time>2026-05-01T11:13:58.92Z</time></trkpt><trkpt lat="42.6064123" lon="12.9493035"><ele>903.0</ele><time>2026-05-01T11:13:59.92Z</time></trkpt><trkpt lat="42.6066034" lon="12.9493338"><ele>903.0</ele><time>2026-05-01T11:14:00.919Z</time></trkpt><trkpt lat="42.606795" lon="12.9493171"><ele>903.0</ele><time>2026-05-01T11:14:01.919Z</time></trkpt><trkpt lat="42.6069979" lon="12.9492711"><ele>903.0</ele><time>2026-05-01T11:14:02.919Z</time></trkpt><trkpt lat="42.6072085" lon="12.9492157"><ele>896.6666666666667</ele><time>2026-05-01T11:14:03.92Z</time></trkpt><trkpt lat="42.6074148" lon="12.9491583"><ele>890.3333333333334</ele><time>2026-05-01T11:14:04.92Z</time></trkpt><trkpt lat="42.6075906" lon="12.9491286"><ele>884.0</ele><time>2026-05-01T11:14:05.92Z</time></trkpt><trkpt lat="42.6077462" lon="12.949116"><ele>882.3333333333334</ele><time>2026-05-01T11:14:06.92Z</time></trkpt><trkpt lat="42.6078876" lon="12.9491633"><ele>880.6666666666667</ele><time>2026-05-01T11:14:07.92Z</time></trkpt><trkpt lat="42.6080319" lon="12.9492582"><ele>879.0</ele><time>2026-05-01T11:14:08.92Z</time></trkpt><trkpt lat="42.6081681" lon="12.9493616"><ele>885.6666666666667</ele><time>2026-05-01T11:14:09.92Z</time></trkpt><trkpt lat="42.6082993" lon="12.9494078"><ele>892.3333333333334</ele><time>2026-05-01T11:14:10.919Z</time></trkpt><trkpt lat="42.6084735" lon="12.9493902"><ele>899.0</ele><time>2026-05-01T11:14:11.919Z</time></trkpt><trkpt lat="42.6086595" lon="12.9493355"><ele>900.3333333333334</ele><time>2026-05-01T11:14:12.92Z</time></trkpt><trkpt lat="42.6088484" lon="12.9492564"><ele>901.6666666666667</ele><time>2026-05-01T11:14:13.919Z</time></trkpt><trkpt lat="42.6090475" lon="12.9491703"><ele>903.0</ele><time>2026-05-01T11:14:14.919Z</time></trkpt><trkpt lat="42.6092503" lon="12.9490681"><ele>895.6666666666667</ele><time>2026-05-01T11:14:15.919Z</time></trkpt><trkpt lat="42.6094501" lon="12.9489685"><ele>888.3333333333334</ele><time>2026-05-01T11:14:16.92Z</time></trkpt><trkpt lat="42.6096347" lon="12.9488749"><ele>881.0</ele><time>2026-05-01T11:14:17.92Z</time></trkpt><trkpt lat="42.6097814" lon="12.948805"><ele>881.0</ele><time>2026-05-01T11:14:18.92Z</time></trkpt><trkpt lat="42.6099115" lon="12.9487763"><ele>881.0</ele><time>2026-05-01T11:14:19.92Z</time></trkpt><trkpt lat="42.6100534" lon="12.9488315"><ele>881.0</ele><time>2026-05-01T11:14:20.919Z</time></trkpt><trkpt lat="42.6102014" lon="12.9489648"><ele>881.3333333333334</ele><time>2026-05-01T11:14:21.92Z</time></trkpt><trkpt lat="42.6103689" lon="12.9491401"><ele>881.6666666666667</ele><time>2026-05-01T11:14:22.919Z</time></trkpt><trkpt lat="42.6105472" lon="12.9493189"><ele>882.0</ele><time>2026-05-01T11:14:23.919Z</time></trkpt><trkpt lat="42.6107214" lon="12.9494676"><ele>882.0</ele><time>2026-05-01T11:14:24.92Z</time></trkpt><trkpt lat="42.6108985" lon="12.9495872"><ele>882.0</ele><time>2026-05-01T11:14:25.92Z</time></trkpt><trkpt lat="42.6110908" lon="12.9496664"><ele>882.0</ele><time>2026-05-01T11:14:26.92Z</time></trkpt><trkpt lat="42.6112794" lon="12.9497097"><ele>880.6666666666667</ele><time>2026-05-01T11:14:27.92Z</time></trkpt><trkpt lat="42.6114578" lon="12.9497474"><ele>879.3333333333334</ele><time>2026-05-01T11:14:28.92Z</time></trkpt><trkpt lat="42.6116166" lon="12.94982"><ele>878.0</ele><time>2026-05-01T11:14:29.92Z</time></trkpt><trkpt lat="42.6117706" lon="12.9499525"><ele>879.0</ele><time>2026-05-01T11:14:30.919Z</time></trkpt><trkpt lat="42.6119454" lon="12.9501213"><ele>880.0</ele><time>2026-05-01T11:14:31.92Z</time></trkpt><trkpt lat="42.6121246" lon="12.9502942"><ele>881.0</ele><time>2026-05-01T11:14:32.919Z</time></trkpt><trkpt lat="42.6123234" lon="12.9504332"><ele>881.0</ele><time>2026-05-01T11:14:33.92Z</time></trkpt><trkpt lat="42.6125389" lon="12.9505233"><ele>881.0</ele><time>2026-05-01T11:14:34.92Z</time></trkpt><trkpt lat="42.6127662" lon="12.9505705"><ele>881.0</ele><time>2026-05-01T11:14:35.92Z</time></trkpt><trkpt lat="42.6130164" lon="12.9505817"><ele>881.0</ele><time>2026-05-01T11:14:36.92Z</time></trkpt><trkpt lat="42.6132763" lon="12.9505539"><ele>881.0</ele><time>2026-05-01T11:14:37.919Z</time></trkpt><trkpt lat="42.6135397" lon="12.9505156"><ele>881.0</ele><time>2026-05-01T11:14:38.92Z</time></trkpt><trkpt lat="42.6138061" lon="12.9504789"><ele>882.0</ele><time>2026-05-01T11:14:39.92Z</time></trkpt><trkpt lat="42.6140778" lon="12.9504309"><ele>883.0</ele><time>2026-05-01T11:14:40.92Z</time></trkpt><trkpt lat="42.6143502" lon="12.9503813"><ele>883.5</ele><time>2026-05-01T11:14:41.92Z</time></trkpt><trkpt lat="42.6146154" lon="12.9503331"><ele>884.0</ele><time>2026-05-01T11:14:42.92Z</time></trkpt><trkpt lat="42.6148918" lon="12.9502722"><ele>884.0</ele><time>2026-05-01T11:14:43.92Z</time></trkpt><trkpt lat="42.6151478" lon="12.9502168"><ele>884.0</ele><time>2026-05-01T11:14:44.92Z</time></trkpt><trkpt lat="42.6153826" lon="12.950175"><ele>882.6666666666667</ele><time>2026-05-01T11:14:45.92Z</time></trkpt><trkpt lat="42.6156023" lon="12.9501433"><ele>881.3333333333333</ele><time>2026-05-01T11:14:46.92Z</time></trkpt><trkpt lat="42.6158044" lon="12.9501329"><ele>880.0</ele><time>2026-05-01T11:14:47.92Z</time></trkpt><trkpt lat="42.6160055" lon="12.9501213"><ele>879.3333333333333</ele><time>2026-05-01T11:14:48.92Z</time></trkpt><trkpt lat="42.6162035" lon="12.9500725"><ele>878.6666666666667</ele><time>2026-05-01T11:14:49.919Z</time></trkpt><trkpt lat="42.6163976" lon="12.9499842"><ele>878.0</ele><time>2026-05-01T11:14:50.92Z</time></trkpt><trkpt lat="42.6165891" lon="12.949879"><ele>870.6666666666667</ele><time>2026-05-01T11:14:51.92Z</time></trkpt><trkpt lat="42.6167978" lon="12.9497997"><ele>863.3333333333333</ele><time>2026-05-01T11:14:52.92Z</time></trkpt><trkpt lat="42.6170189" lon="12.9497725"><ele>856.0</ele><time>2026-05-01T11:14:53.919Z</time></trkpt><trkpt lat="42.6172508" lon="12.9497624"><ele>855.6666666666666</ele><time>2026-05-01T11:14:54.919Z</time></trkpt><trkpt lat="42.6174789" lon="12.949762"><ele>855.3333333333333</ele><time>2026-05-01T11:14:55.92Z</time></trkpt><trkpt lat="42.6176928" lon="12.9497746"><ele>855.0</ele><time>2026-05-01T11:14:56.92Z</time></trkpt><trkpt lat="42.6178919" lon="12.9497687"><ele>857.0</ele><time>2026-05-01T11:14:57.92Z</time></trkpt><trkpt lat="42.618073" lon="12.949718"><ele>859.0</ele><time>2026-05-01T11:14:58.92Z</time></trkpt><trkpt lat="42.6182692" lon="12.9496055"><ele>861.0</ele><time>2026-05-01T11:14:59.919Z</time></trkpt><trkpt lat="42.6184626" lon="12.9494501"><ele>859.0</ele><time>2026-05-01T11:15:00.92Z</time></trkpt><trkpt lat="42.6186638" lon="12.949282"><ele>857.0</ele><time>2026-05-01T11:15:01.92Z</time></trkpt><trkpt lat="42.6188551" lon="12.949119"><ele>857.0</ele><time>2026-05-01T11:15:02.92Z</time></trkpt><trkpt lat="42.6190308" lon="12.9489682"><ele>857.0</ele><time>2026-05-01T11:15:03.919Z</time></trkpt><trkpt lat="42.619214" lon="12.9488316"><ele>857.0</ele><time>2026-05-01T11:15:04.919Z</time></trkpt><trkpt lat="42.6194087" lon="12.9487219"><ele>860.5</ele><time>2026-05-01T11:15:05.92Z</time></trkpt><trkpt lat="42.6196251" lon="12.9486541"><ele>864.0</ele><time>2026-05-01T11:15:06.919Z</time></trkpt><trkpt lat="42.6198743" lon="12.9486311"><ele>864.0</ele><time>2026-05-01T11:15:07.92Z</time></trkpt><trkpt lat="42.6201363" lon="12.9486073"><ele>864.0</ele><time>2026-05-01T11:15:08.919Z</time></trkpt><trkpt lat="42.6203945" lon="12.9485716"><ele>864.5</ele><time>2026-05-01T11:15:09.92Z</time></trkpt><trkpt lat="42.6206587" lon="12.9485198"><ele>865.0</ele><time>2026-05-01T11:15:10.92Z</time></trkpt><trkpt lat="42.6209181" lon="12.9484189"><ele>857.0</ele><time>2026-05-01T11:15:11.92Z</time></trkpt><trkpt lat="42.6211768" lon="12.9483144"><ele>849.0</ele><time>2026-05-01T11:15:12.92Z</time></trkpt><trkpt lat="42.6214233" lon="12.9481927"><ele>849.0</ele><time>2026-05-01T11:15:13.92Z</time></trkpt><trkpt lat="42.6216598" lon="12.9480781"><ele>849.0</ele><time>2026-05-01T11:15:14.919Z</time></trkpt><trkpt lat="42.621871" lon="12.9479793"><ele>849.5</ele><time>2026-05-01T11:15:15.92Z</time></trkpt><trkpt lat="42.6220808" lon="12.9479008"><ele>850.0</ele><time>2026-05-01T11:15:16.92Z</time></trkpt><trkpt lat="42.6223112" lon="12.9478588"><ele>850.0</ele><time>2026-05-01T11:15:17.92Z</time></trkpt><trkpt lat="42.6225731" lon="12.9478715"><ele>850.0</ele><time>2026-05-01T11:15:18.92Z</time></trkpt><trkpt lat="42.6228419" lon="12.9478646"><ele>850.0</ele><time>2026-05-01T11:15:19.92Z</time></trkpt><trkpt lat="42.6231028" lon="12.9478689"><ele>850.0</ele><time>2026-05-01T11:15:20.92Z</time></trkpt><trkpt lat="42.623345" lon="12.9478637"><ele>850.0</ele><time>2026-05-01T11:15:21.92Z</time></trkpt><trkpt lat="42.6235864" lon="12.947873"><ele>850.0</ele><time>2026-05-01T11:15:22.92Z</time></trkpt><trkpt lat="42.6238437" lon="12.9479169"><ele>847.0</ele><time>2026-05-01T11:15:23.92Z</time></trkpt><trkpt lat="42.6241056" lon="12.9479829"><ele>844.0</ele><time>2026-05-01T11:15:24.919Z</time></trkpt><trkpt lat="42.624367" lon="12.9480703"><ele>841.5</ele><time>2026-05-01T11:15:25.919Z</time></trkpt><trkpt lat="42.6246248" lon="12.9481394"><ele>839.0</ele><time>2026-05-01T11:15:26.92Z</time></trkpt><trkpt lat="42.6248813" lon="12.9481996"><ele>839.0</ele><time>2026-05-01T11:15:27.92Z</time></trkpt><trkpt lat="42.6251294" lon="12.9482551"><ele>839.0</ele><time>2026-05-01T11:15:28.92Z</time></trkpt><trkpt lat="42.6253943" lon="12.9482769"><ele>839.0</ele><time>2026-05-01T11:15:29.92Z</time></trkpt><trkpt lat="42.6256673" lon="12.9482575"><ele>839.0</ele><time>2026-05-01T11:15:30.92Z</time></trkpt><trkpt lat="42.6259343" lon="12.9482159"><ele>835.5</ele><time>2026-05-01T11:15:31.92Z</time></trkpt><trkpt lat="42.626187" lon="12.9481704"><ele>832.0</ele><time>2026-05-01T11:15:32.92Z</time></trkpt><trkpt lat="42.6264129" lon="12.9481326"><ele>832.0</ele><time>2026-05-01T11:15:33.919Z</time></trkpt><trkpt lat="42.6266163" lon="12.9481188"><ele>832.0</ele><time>2026-05-01T11:15:34.92Z</time></trkpt><trkpt lat="42.6268223" lon="12.948127"><ele>832.0</ele><time>2026-05-01T11:15:35.92Z</time></trkpt><trkpt lat="42.6270208" lon="12.9481988"><ele>829.3333333333333</ele><time>2026-05-01T11:15:36.919Z</time></trkpt><trkpt lat="42.6272234" lon="12.9483108"><ele>826.6666666666667</ele><time>2026-05-01T11:15:37.919Z</time></trkpt><trkpt lat="42.6274296" lon="12.9484385"><ele>824.0</ele><time>2026-05-01T11:15:38.92Z</time></trkpt><trkpt lat="42.6276585" lon="12.9485224"><ele>828.3333333333334</ele><time>2026-05-01T11:15:39.92Z</time></trkpt><trkpt lat="42.6278665" lon="12.9485509"><ele>832.6666666666667</ele><time>2026-05-01T11:15:40.92Z</time></trkpt><trkpt lat="42.6280699" lon="12.9485195"><ele>837.0</ele><time>2026-05-01T11:15:41.919Z</time></trkpt><trkpt lat="42.6282721" lon="12.9484234"><ele>830.3333333333333</ele><time>2026-05-01T11:15:42.92Z</time></trkpt><trkpt lat="42.6284782" lon="12.9483095"><ele>823.6666666666666</ele><time>2026-05-01T11:15:43.92Z</time></trkpt><trkpt lat="42.6286764" lon="12.948211"><ele>817.0</ele><time>2026-05-01T11:15:44.92Z</time></trkpt><trkpt lat="42.6288448" lon="12.9481349"><ele>817.0</ele><time>2026-05-01T11:15:45.92Z</time></trkpt><trkpt lat="42.6290038" lon="12.9480945"><ele>817.0</ele><time>2026-05-01T11:15:46.92Z</time></trkpt><trkpt lat="42.6291741" lon="12.9480975"><ele>817.0</ele><time>2026-05-01T11:15:47.919Z</time></trkpt><trkpt lat="42.6293676" lon="12.948153"><ele>817.3333333333333</ele><time>2026-05-01T11:15:48.92Z</time></trkpt><trkpt lat="42.6295728" lon="12.9482478"><ele>817.6666666666667</ele><time>2026-05-01T11:15:49.92Z</time></trkpt><trkpt lat="42.6297384" lon="12.9483728"><ele>818.0</ele><time>2026-05-01T11:15:50.919Z</time></trkpt><trkpt lat="42.6298805" lon="12.9485203"><ele>818.0</ele><time>2026-05-01T11:15:51.92Z</time></trkpt><trkpt lat="42.6300047" lon="12.9486953"><ele>818.0</ele><time>2026-05-01T11:15:52.919Z</time></trkpt><trkpt lat="42.6301054" lon="12.948893"><ele>818.0</ele><time>2026-05-01T11:15:53.92Z</time></trkpt><trkpt lat="42.6301992" lon="12.9491381"><ele>821.6666666666667</ele><time>2026-05-01T11:15:54.92Z</time></trkpt><trkpt lat="42.6302877" lon="12.9494066"><ele>825.3333333333333</ele><time>2026-05-01T11:15:55.92Z</time></trkpt><trkpt lat="42.630379" lon="12.9496708"><ele>829.0</ele><time>2026-05-01T11:15:56.92Z</time></trkpt><trkpt lat="42.6304756" lon="12.9499206"><ele>825.3333333333333</ele><time>2026-05-01T11:15:57.92Z</time></trkpt><trkpt lat="42.6306078" lon="12.9501295"><ele>821.6666666666667</ele><time>2026-05-01T11:15:58.919Z</time></trkpt><trkpt lat="42.6307488" lon="12.9503059"><ele>818.0</ele><time>2026-05-01T11:15:59.92Z</time></trkpt><trkpt lat="42.6308678" lon="12.9504701"><ele>818.0</ele><time>2026-05-01T11:16:00.92Z</time></trkpt><trkpt lat="42.6309544" lon="12.9506625"><ele>818.0</ele><time>2026-05-01T11:16:01.919Z</time></trkpt><trkpt lat="42.6310126" lon="12.9509004"><ele>818.0</ele><time>2026-05-01T11:16:02.919Z</time></trkpt><trkpt lat="42.6310495" lon="12.9511766"><ele>815.6666666666667</ele><time>2026-05-01T11:16:03.92Z</time></trkpt><trkpt lat="42.6310865" lon="12.9514223"><ele>813.3333333333333</ele><time>2026-05-01T11:16:04.919Z</time></trkpt><trkpt lat="42.6311369" lon="12.9516456"><ele>811.0</ele><time>2026-05-01T11:16:05.919Z</time></trkpt><trkpt lat="42.6312147" lon="12.9518516"><ele>811.0</ele><time>2026-05-01T11:16:06.919Z</time></trkpt><trkpt lat="42.6313405" lon="12.9520197"><ele>811.0</ele><time>2026-05-01T11:16:07.92Z</time></trkpt><trkpt lat="42.6314843" lon="12.9521647"><ele>811.0</ele><time>2026-05-01T11:16:08.92Z</time></trkpt><trkpt lat="42.6316294" lon="12.9522728"><ele>811.0</ele><time>2026-05-01T11:16:09.92Z</time></trkpt><trkpt lat="42.6317843" lon="12.9523204"><ele>811.0</ele><time>2026-05-01T11:16:10.919Z</time></trkpt><trkpt lat="42.6319407" lon="12.9522816"><ele>811.0</ele><time>2026-05-01T11:16:11.919Z</time></trkpt><trkpt lat="42.6320947" lon="12.9521931"><ele>811.5</ele><time>2026-05-01T11:16:12.92Z</time></trkpt><trkpt lat="42.6322439" lon="12.9520975"><ele>812.0</ele><time>2026-05-01T11:16:13.919Z</time></trkpt><trkpt lat="42.6323759" lon="12.9520189"><ele>812.5</ele><time>2026-05-01T11:16:14.92Z</time></trkpt><trkpt lat="42.6324996" lon="12.9519811"><ele>813.0</ele><time>2026-05-01T11:16:15.92Z</time></trkpt><trkpt lat="42.6326263" lon="12.9520199"><ele>813.0</ele><time>2026-05-01T11:16:16.919Z</time></trkpt><trkpt lat="42.6327514" lon="12.9521415"><ele>813.0</ele><time>2026-05-01T11:16:17.92Z</time></trkpt><trkpt lat="42.6328775" lon="12.952333"><ele>813.0</ele><time>2026-05-01T11:16:18.92Z</time></trkpt><trkpt lat="42.6330124" lon="12.9525362"><ele>814.3333333333333</ele><time>2026-05-01T11:16:19.92Z</time></trkpt><trkpt lat="42.6331716" lon="12.9527192"><ele>815.6666666666666</ele><time>2026-05-01T11:16:20.92Z</time></trkpt><trkpt lat="42.6333609" lon="12.9528727"><ele>817.0</ele><time>2026-05-01T11:16:21.92Z</time></trkpt><trkpt lat="42.6335763" lon="12.9529855"><ele>808.5</ele><time>2026-05-01T11:16:22.92Z</time></trkpt><trkpt lat="42.6338057" lon="12.9530944"><ele>800.0</ele><time>2026-05-01T11:16:23.92Z</time></trkpt><trkpt lat="42.6340446" lon="12.9532151"><ele>800.0</ele><time>2026-05-01T11:16:24.92Z</time></trkpt><trkpt lat="42.6342817" lon="12.9533438"><ele>800.0</ele><time>2026-05-01T11:16:25.92Z</time></trkpt><trkpt lat="42.6345149" lon="12.9534642"><ele>805.0</ele><time>2026-05-01T11:16:26.92Z</time></trkpt><trkpt lat="42.634743" lon="12.9535766"><ele>810.0</ele><time>2026-05-01T11:16:27.92Z</time></trkpt><trkpt lat="42.6349582" lon="12.9536822"><ele>810.0</ele><time>2026-05-01T11:16:28.919Z</time></trkpt><trkpt lat="42.6351753" lon="12.9537517"><ele>810.0</ele><time>2026-05-01T11:16:29.92Z</time></trkpt><trkpt lat="42.6354037" lon="12.9538019"><ele>808.0</ele><time>2026-05-01T11:16:30.92Z</time></trkpt><trkpt lat="42.6356382" lon="12.9538157"><ele>806.0</ele><time>2026-05-01T11:16:31.919Z</time></trkpt><trkpt lat="42.6358777" lon="12.9538123"><ele>806.0</ele><time>2026-05-01T11:16:32.919Z</time></trkpt><trkpt lat="42.6361149" lon="12.9538092"><ele>806.0</ele><time>2026-05-01T11:16:33.92Z</time></trkpt><trkpt lat="42.6363497" lon="12.9538418"><ele>802.5</ele><time>2026-05-01T11:16:34.92Z</time></trkpt><trkpt lat="42.6365938" lon="12.9538812"><ele>799.0</ele><time>2026-05-01T11:16:35.92Z</time></trkpt><trkpt lat="42.6368432" lon="12.9539253"><ele>797.5</ele><time>2026-05-01T11:16:36.919Z</time></trkpt><trkpt lat="42.637105" lon="12.9539625"><ele>796.0</ele><time>2026-05-01T11:16:37.919Z</time></trkpt><trkpt lat="42.6373556" lon="12.9539924"><ele>796.0</ele><time>2026-05-01T11:16:38.92Z</time></trkpt><trkpt lat="42.6375888" lon="12.9540052"><ele>796.0</ele><time>2026-05-01T11:16:39.92Z</time></trkpt><trkpt lat="42.6377685" lon="12.9539782"><ele>796.0</ele><time>2026-05-01T11:16:40.92Z</time></trkpt><trkpt lat="42.6379139" lon="12.9539276"><ele>792.0</ele><time>2026-05-01T11:16:41.92Z</time></trkpt><trkpt lat="42.6380382" lon="12.9538438"><ele>788.0</ele><time>2026-05-01T11:16:42.92Z</time></trkpt><trkpt lat="42.6381636" lon="12.9537113"><ele>784.0</ele><time>2026-05-01T11:16:43.919Z</time></trkpt><trkpt lat="42.6382561" lon="12.9535036"><ele>782.0</ele><time>2026-05-01T11:16:44.92Z</time></trkpt><trkpt lat="42.638353" lon="12.9532948"><ele>780.0</ele><time>2026-05-01T11:16:45.92Z</time></trkpt><trkpt lat="42.6384628" lon="12.9530889"><ele>778.0</ele><time>2026-05-01T11:16:46.92Z</time></trkpt><trkpt lat="42.6385766" lon="12.9528835"><ele>777.0</ele><time>2026-05-01T11:16:47.92Z</time></trkpt><trkpt lat="42.6386806" lon="12.9526938"><ele>776.0</ele><time>2026-05-01T11:16:48.919Z</time></trkpt><trkpt lat="42.6387761" lon="12.9525412"><ele>775.0</ele><time>2026-05-01T11:16:49.919Z</time></trkpt><trkpt lat="42.6388713" lon="12.9524248"><ele>774.0</ele><time>2026-05-01T11:16:50.92Z</time></trkpt><trkpt lat="42.6389944" lon="12.9523502"><ele>775.3333333333333</ele><time>2026-05-01T11:16:51.92Z</time></trkpt><trkpt lat="42.6391343" lon="12.9523701"><ele>776.6666666666666</ele><time>2026-05-01T11:16:52.92Z</time></trkpt><trkpt lat="42.6393097" lon="12.9524598"><ele>778.0</ele><time>2026-05-01T11:16:53.919Z</time></trkpt><trkpt lat="42.6394841" lon="12.9525734"><ele>778.0</ele><time>2026-05-01T11:16:54.919Z</time></trkpt><trkpt lat="42.6396641" lon="12.952683"><ele>778.0</ele><time>2026-05-01T11:16:55.92Z</time></trkpt><trkpt lat="42.6398395" lon="12.9527895"><ele>778.0</ele><time>2026-05-01T11:16:56.92Z</time></trkpt><trkpt lat="42.6400081" lon="12.9528964"><ele>778.0</ele><time>2026-05-01T11:16:57.92Z</time></trkpt><trkpt lat="42.6401724" lon="12.9529747"><ele>778.0</ele><time>2026-05-01T11:16:58.919Z</time></trkpt><trkpt lat="42.6403272" lon="12.9529907"><ele>778.0</ele><time>2026-05-01T11:16:59.92Z</time></trkpt><trkpt lat="42.6405032" lon="12.9529403"><ele>779.0</ele><time>2026-05-01T11:17:00.92Z</time></trkpt><trkpt lat="42.6406607" lon="12.9528815"><ele>780.0</ele><time>2026-05-01T11:17:01.92Z</time></trkpt><trkpt lat="42.6408111" lon="12.9528317"><ele>781.0</ele><time>2026-05-01T11:17:02.92Z</time></trkpt><trkpt lat="42.6409499" lon="12.9528068"><ele>781.0</ele><time>2026-05-01T11:17:03.92Z</time></trkpt><trkpt lat="42.6410946" lon="12.952829"><ele>781.0</ele><time>2026-05-01T11:17:04.92Z</time></trkpt><trkpt lat="42.6412399" lon="12.9529146"><ele>781.0</ele><time>2026-05-01T11:17:05.92Z</time></trkpt><trkpt lat="42.6413741" lon="12.9530538"><ele>781.3333333333333</ele><time>2026-05-01T11:17:06.92Z</time></trkpt><trkpt lat="42.641498" lon="12.9532364"><ele>781.6666666666667</ele><time>2026-05-01T11:17:07.92Z</time></trkpt><trkpt lat="42.6416166" lon="12.9534259"><ele>782.0</ele><time>2026-05-01T11:17:08.92Z</time></trkpt><trkpt lat="42.6417294" lon="12.9536205"><ele>782.0</ele><time>2026-05-01T11:17:09.919Z</time></trkpt><trkpt lat="42.6418297" lon="12.9537972"><ele>782.0</ele><time>2026-05-01T11:17:10.92Z</time></trkpt><trkpt lat="42.6419174" lon="12.9539532"><ele>782.0</ele><time>2026-05-01T11:17:11.92Z</time></trkpt><trkpt lat="42.6420057" lon="12.9540801"><ele>782.0</ele><time>2026-05-01T11:17:12.92Z</time></trkpt><trkpt lat="42.6421006" lon="12.9541917"><ele>781.25</ele><time>2026-05-01T11:17:13.92Z</time></trkpt><trkpt lat="42.6422186" lon="12.9542623"><ele>780.5</ele><time>2026-05-01T11:17:14.92Z</time></trkpt><trkpt lat="42.6423438" lon="12.9542937"><ele>779.75</ele><time>2026-05-01T11:17:15.92Z</time></trkpt><trkpt lat="42.642478" lon="12.9543177"><ele>779.0</ele><time>2026-05-01T11:17:16.919Z</time></trkpt><trkpt lat="42.642619" lon="12.9543526"><ele>779.0</ele><time>2026-05-01T11:17:17.919Z</time></trkpt><trkpt lat="42.6427658" lon="12.9543866"><ele>779.0</ele><time>2026-05-01T11:17:18.92Z</time></trkpt><trkpt lat="42.6429056" lon="12.9544228"><ele>779.0</ele><time>2026-05-01T11:17:19.92Z</time></trkpt><trkpt lat="42.6430483" lon="12.9544608"><ele>779.0</ele><time>2026-05-01T11:17:20.919Z</time></trkpt><trkpt lat="42.6431906" lon="12.9545086"><ele>779.3333333333334</ele><time>2026-05-01T11:17:21.92Z</time></trkpt><trkpt lat="42.6433385" lon="12.9545554"><ele>779.6666666666667</ele><time>2026-05-01T11:17:22.92Z</time></trkpt><trkpt lat="42.6434923" lon="12.9546026"><ele>780.0</ele><time>2026-05-01T11:17:23.92Z</time></trkpt><trkpt lat="42.6436428" lon="12.9546546"><ele>781.5</ele><time>2026-05-01T11:17:24.919Z</time></trkpt><trkpt lat="42.6437821" lon="12.9547115"><ele>783.0</ele><time>2026-05-01T11:17:25.92Z</time></trkpt><trkpt lat="42.6439153" lon="12.9547758"><ele>784.5</ele><time>2026-05-01T11:17:26.92Z</time></trkpt><trkpt lat="42.6440382" lon="12.9548487"><ele>786.0</ele><time>2026-05-01T11:17:27.92Z</time></trkpt><trkpt lat="42.6441439" lon="12.9549228"><ele>786.0</ele><time>2026-05-01T11:17:28.919Z</time></trkpt><trkpt lat="42.6442396" lon="12.9549855"><ele>786.0</ele><time>2026-05-01T11:17:29.919Z</time></trkpt><trkpt lat="42.6443262" lon="12.9550485"><ele>786.0</ele><time>2026-05-01T11:17:30.92Z</time></trkpt><trkpt lat="42.6444007" lon="12.9551103"><ele>786.0</ele><time>2026-05-01T11:17:31.92Z</time></trkpt><trkpt lat="42.6444869" lon="12.9551707"><ele>786.0</ele><time>2026-05-01T11:17:32.919Z</time></trkpt><trkpt lat="42.6445767" lon="12.9552378"><ele>784.0</ele><time>2026-05-01T11:17:33.919Z</time></trkpt><trkpt lat="42.6446788" lon="12.9553098"><ele>782.0</ele><time>2026-05-01T11:17:34.92Z</time></trkpt><trkpt lat="42.6447904" lon="12.9553878"><ele>780.0</ele><time>2026-05-01T11:17:35.92Z</time></trkpt><trkpt lat="42.6449182" lon="12.9554613"><ele>778.0</ele><time>2026-05-01T11:17:36.919Z</time></trkpt><trkpt lat="42.6450592" lon="12.9555252"><ele>778.0</ele><time>2026-05-01T11:17:37.92Z</time></trkpt><trkpt lat="42.645205" lon="12.9555821"><ele>778.0</ele><time>2026-05-01T11:17:38.92Z</time></trkpt><trkpt lat="42.6453543" lon="12.9556131"><ele>778.0</ele><time>2026-05-01T11:17:39.919Z</time></trkpt><trkpt lat="42.6455112" lon="12.9556547"><ele>778.0</ele><time>2026-05-01T11:17:40.919Z</time></trkpt><trkpt lat="42.6456833" lon="12.9556903"><ele>778.0</ele><time>2026-05-01T11:17:41.92Z</time></trkpt><trkpt lat="42.6458549" lon="12.9557319"><ele>778.0</ele><time>2026-05-01T11:17:42.92Z</time></trkpt><trkpt lat="42.6460333" lon="12.9557751"><ele>778.6666666666666</ele><time>2026-05-01T11:17:43.92Z</time></trkpt><trkpt lat="42.6462106" lon="12.9558296"><ele>779.3333333333333</ele><time>2026-05-01T11:17:44.92Z</time></trkpt><trkpt lat="42.6464012" lon="12.9558865"><ele>780.0</ele><time>2026-05-01T11:17:45.919Z</time></trkpt><trkpt lat="42.6465993" lon="12.9559423"><ele>776.0</ele><time>2026-05-01T11:17:46.92Z</time></trkpt><trkpt lat="42.6468026" lon="12.9559988"><ele>772.0</ele><time>2026-05-01T11:17:47.919Z</time></trkpt><trkpt lat="42.6470111" lon="12.9560556"><ele>768.0</ele><time>2026-05-01T11:17:48.92Z</time></trkpt><trkpt lat="42.6472191" lon="12.9561197"><ele>767.3333333333334</ele><time>2026-05-01T11:17:49.919Z</time></trkpt><trkpt lat="42.647432" lon="12.9561766"><ele>766.6666666666667</ele><time>2026-05-01T11:17:50.92Z</time></trkpt><trkpt lat="42.6476444" lon="12.9562398"><ele>766.0</ele><time>2026-05-01T11:17:51.92Z</time></trkpt><trkpt lat="42.6478636" lon="12.9562972"><ele>765.0</ele><time>2026-05-01T11:17:52.919Z</time></trkpt><trkpt lat="42.6480766" lon="12.9563614"><ele>764.0</ele><time>2026-05-01T11:17:53.92Z</time></trkpt><trkpt lat="42.6482872" lon="12.9564229"><ele>763.0</ele><time>2026-05-01T11:17:54.92Z</time></trkpt><trkpt lat="42.648498" lon="12.9564828"><ele>764.6666666666667</ele><time>2026-05-01T11:17:55.92Z</time></trkpt><trkpt lat="42.6487106" lon="12.9565436"><ele>766.3333333333334</ele><time>2026-05-01T11:17:56.92Z</time></trkpt><trkpt lat="42.6489231" lon="12.9566066"><ele>768.0</ele><time>2026-05-01T11:17:57.919Z</time></trkpt><trkpt lat="42.6491384" lon="12.9566652"><ele>767.0</ele><time>2026-05-01T11:17:58.92Z</time></trkpt><trkpt lat="42.6493587" lon="12.956726"><ele>766.0</ele><time>2026-05-01T11:17:59.919Z</time></trkpt><trkpt lat="42.6495775" lon="12.9567944"><ele>765.0</ele><time>2026-05-01T11:18:00.92Z</time></trkpt><trkpt lat="42.6498002" lon="12.9568629"><ele>764.0</ele><time>2026-05-01T11:18:01.92Z</time></trkpt><trkpt lat="42.6500256" lon="12.9569248"><ele>763.0</ele><time>2026-05-01T11:18:02.92Z</time></trkpt><trkpt lat="42.6502542" lon="12.9569896"><ele>763.5</ele><time>2026-05-01T11:18:03.919Z</time></trkpt><trkpt lat="42.6504834" lon="12.9570569"><ele>764.0</ele><time>2026-05-01T11:18:04.919Z</time></trkpt><trkpt lat="42.6507165" lon="12.9571164"><ele>764.0</ele><time>2026-05-01T11:18:05.919Z</time></trkpt><trkpt lat="42.6509477" lon="12.9571819"><ele>764.0</ele><time>2026-05-01T11:18:06.92Z</time></trkpt><trkpt lat="42.6511761" lon="12.9572529"><ele>767.5</ele><time>2026-05-01T11:18:07.919Z</time></trkpt><trkpt lat="42.6514022" lon="12.9573197"><ele>771.0</ele><time>2026-05-01T11:18:08.919Z</time></trkpt><trkpt lat="42.6516253" lon="12.9573767"><ele>771.0</ele><time>2026-05-01T11:18:09.919Z</time></trkpt><trkpt lat="42.6518433" lon="12.9574248"><ele>771.0</ele><time>2026-05-01T11:18:10.92Z</time></trkpt><trkpt lat="42.6520638" lon="12.9574565"><ele>771.0</ele><time>2026-05-01T11:18:11.92Z</time></trkpt><trkpt lat="42.6522827" lon="12.9574782"><ele>771.0</ele><time>2026-05-01T11:18:12.92Z</time></trkpt><trkpt lat="42.6524992" lon="12.9574963"><ele>771.0</ele><time>2026-05-01T11:18:13.92Z</time></trkpt><trkpt lat="42.6526908" lon="12.9575124"><ele>771.0</ele><time>2026-05-01T11:18:14.919Z</time></trkpt><trkpt lat="42.6528617" lon="12.9575274"><ele>769.3333333333334</ele><time>2026-05-01T11:18:15.919Z</time></trkpt><trkpt lat="42.6530188" lon="12.9575525"><ele>767.6666666666667</ele><time>2026-05-01T11:18:16.92Z</time></trkpt><trkpt lat="42.6531691" lon="12.9576245"><ele>766.0</ele><time>2026-05-01T11:18:17.919Z</time></trkpt><trkpt lat="42.6533276" lon="12.9577606"><ele>766.0</ele><time>2026-05-01T11:18:18.919Z</time></trkpt><trkpt lat="42.653467" lon="12.9579489"><ele>766.0</ele><time>2026-05-01T11:18:19.919Z</time></trkpt><trkpt lat="42.65359" lon="12.9581658"><ele>766.0</ele><time>2026-05-01T11:18:20.92Z</time></trkpt><trkpt lat="42.6536996" lon="12.9583814"><ele>770.3333333333334</ele><time>2026-05-01T11:18:21.92Z</time></trkpt><trkpt lat="42.653796" lon="12.9586045"><ele>774.6666666666667</ele><time>2026-05-01T11:18:22.92Z</time></trkpt><trkpt lat="42.6538512" lon="12.9588537"><ele>779.0</ele><time>2026-05-01T11:18:23.92Z</time></trkpt><trkpt lat="42.6538786" lon="12.9591033"><ele>775.3333333333334</ele><time>2026-05-01T11:18:24.92Z</time></trkpt><trkpt lat="42.6538764" lon="12.9593605"><ele>771.6666666666667</ele><time>2026-05-01T11:18:25.92Z</time></trkpt><trkpt lat="42.653879" lon="12.9595819"><ele>768.0</ele><time>2026-05-01T11:18:26.919Z</time></trkpt><trkpt lat="42.6539119" lon="12.959785"><ele>768.0</ele><time>2026-05-01T11:18:27.92Z</time></trkpt><trkpt lat="42.6539798" lon="12.959973"><ele>768.0</ele><time>2026-05-01T11:18:28.919Z</time></trkpt><trkpt lat="42.6540921" lon="12.9601337"><ele>768.0</ele><time>2026-05-01T11:18:29.919Z</time></trkpt><trkpt lat="42.6542306" lon="12.9602605"><ele>764.6666666666666</ele><time>2026-05-01T11:18:30.92Z</time></trkpt><trkpt lat="42.6543975" lon="12.9603446"><ele>761.3333333333333</ele><time>2026-05-01T11:18:31.919Z</time></trkpt><trkpt lat="42.6545637" lon="12.9603785"><ele>758.0</ele><time>2026-05-01T11:18:32.92Z</time></trkpt><trkpt lat="42.6547322" lon="12.9603596"><ele>758.0</ele><time>2026-05-01T11:18:33.919Z</time></trkpt><trkpt lat="42.6548802" lon="12.960281"><ele>758.0</ele><time>2026-05-01T11:18:34.919Z</time></trkpt><trkpt lat="42.6550111" lon="12.9601867"><ele>758.0</ele><time>2026-05-01T11:18:35.92Z</time></trkpt><trkpt lat="42.6551239" lon="12.9600449"><ele>760.6666666666666</ele><time>2026-05-01T11:18:36.919Z</time></trkpt><trkpt lat="42.6552265" lon="12.9598808"><ele>763.3333333333334</ele><time>2026-05-01T11:18:37.92Z</time></trkpt><trkpt lat="42.6553255" lon="12.9597177"><ele>766.0</ele><time>2026-05-01T11:18:38.92Z</time></trkpt><trkpt lat="42.6554098" lon="12.959572"><ele>766.0</ele><time>2026-05-01T11:18:39.92Z</time></trkpt><trkpt lat="42.6554913" lon="12.9594639"><ele>766.0</ele><time>2026-05-01T11:18:40.92Z</time></trkpt><trkpt lat="42.6555596" lon="12.9593701"><ele>766.0</ele><time>2026-05-01T11:18:41.919Z</time></trkpt><trkpt lat="42.6556211" lon="12.9593119"><ele>766.0</ele><time>2026-05-01T11:18:42.92Z</time></trkpt><trkpt lat="42.6556981" lon="12.9592856"><ele>766.0</ele><time>2026-05-01T11:18:43.92Z</time></trkpt><trkpt lat="42.6557767" lon="12.9593238"><ele>766.0</ele><time>2026-05-01T11:18:44.919Z</time></trkpt><trkpt lat="42.6558671" lon="12.9594264"><ele>766.0</ele><time>2026-05-01T11:18:45.919Z</time></trkpt><trkpt lat="42.6559519" lon="12.9595693"><ele>766.0</ele><time>2026-05-01T11:18:46.92Z</time></trkpt><trkpt lat="42.6560494" lon="12.9597352"><ele>766.0</ele><time>2026-05-01T11:18:47.92Z</time></trkpt><trkpt lat="42.6561478" lon="12.9599206"><ele>770.6666666666667</ele><time>2026-05-01T11:18:48.92Z</time></trkpt><trkpt lat="42.656253" lon="12.9601281"><ele>775.3333333333334</ele><time>2026-05-01T11:18:49.92Z</time></trkpt><trkpt lat="42.65637" lon="12.9603537"><ele>780.0</ele><time>2026-05-01T11:18:50.92Z</time></trkpt><trkpt lat="42.6564988" lon="12.9605827"><ele>780.0</ele><time>2026-05-01T11:18:51.919Z</time></trkpt><trkpt lat="42.656624" lon="12.9607993"><ele>780.0</ele><time>2026-05-01T11:18:52.92Z</time></trkpt><trkpt lat="42.6567409" lon="12.9609937"><ele>780.0</ele><time>2026-05-01T11:18:53.92Z</time></trkpt><trkpt lat="42.6568478" lon="12.9611595"><ele>779.75</ele><time>2026-05-01T11:18:54.919Z</time></trkpt><trkpt lat="42.6569453" lon="12.9613136"><ele>779.5</ele><time>2026-05-01T11:18:55.92Z</time></trkpt><trkpt lat="42.6570447" lon="12.9614503"><ele>779.25</ele><time>2026-05-01T11:18:56.92Z</time></trkpt><trkpt lat="42.6571715" lon="12.9615457"><ele>779.0</ele><time>2026-05-01T11:18:57.92Z</time></trkpt><trkpt lat="42.657329" lon="12.9616042"><ele>779.0</ele><time>2026-05-01T11:18:58.919Z</time></trkpt><trkpt lat="42.657513" lon="12.9616235"><ele>779.0</ele><time>2026-05-01T11:18:59.92Z</time></trkpt><trkpt lat="42.6576947" lon="12.9616461"><ele>779.0</ele><time>2026-05-01T11:19:00.92Z</time></trkpt><trkpt lat="42.6578715" lon="12.9616684"><ele>779.0</ele><time>2026-05-01T11:19:01.92Z</time></trkpt><trkpt lat="42.6580339" lon="12.96169"><ele>779.0</ele><time>2026-05-01T11:19:02.919Z</time></trkpt><trkpt lat="42.6581843" lon="12.9617153"><ele>779.0</ele><time>2026-05-01T11:19:03.92Z</time></trkpt><trkpt lat="42.6583067" lon="12.9617525"><ele>779.0</ele><time>2026-05-01T11:19:04.92Z</time></trkpt><trkpt lat="42.6584038" lon="12.9618107"><ele>781.4000000000001</ele><time>2026-05-01T11:19:05.92Z</time></trkpt><trkpt lat="42.65847" lon="12.9619269"><ele>783.8</ele><time>2026-05-01T11:19:06.92Z</time></trkpt><trkpt lat="42.6585122" lon="12.9620459"><ele>786.2</ele><time>2026-05-01T11:19:07.92Z</time></trkpt><trkpt lat="42.6585734" lon="12.9621554"><ele>788.5999999999999</ele><time>2026-05-01T11:19:08.92Z</time></trkpt><trkpt lat="42.6586918" lon="12.9622141"><ele>791.0</ele><time>2026-05-01T11:19:09.92Z</time></trkpt><trkpt lat="42.6588312" lon="12.9622082"><ele>791.0</ele><time>2026-05-01T11:19:10.919Z</time></trkpt><trkpt lat="42.6589797" lon="12.9621812"><ele>791.0</ele><time>2026-05-01T11:19:11.92Z</time></trkpt><trkpt lat="42.6591173" lon="12.9621532"><ele>791.0</ele><time>2026-05-01T11:19:12.919Z</time></trkpt><trkpt lat="42.659236" lon="12.9621569"><ele>791.0</ele><time>2026-05-01T11:19:13.92Z</time></trkpt><trkpt lat="42.6593546" lon="12.9622242"><ele>793.3333333333334</ele><time>2026-05-01T11:19:14.919Z</time></trkpt><trkpt lat="42.6594538" lon="12.9623418"><ele>795.6666666666667</ele><time>2026-05-01T11:19:15.92Z</time></trkpt><trkpt lat="42.6595384" lon="12.9625352"><ele>798.0</ele><time>2026-05-01T11:19:16.92Z</time></trkpt><trkpt lat="42.6596275" lon="12.9627378"><ele>798.0</ele><time>2026-05-01T11:19:17.92Z</time></trkpt><trkpt lat="42.6597083" lon="12.9629489"><ele>798.0</ele><time>2026-05-01T11:19:18.92Z</time></trkpt><trkpt lat="42.659787" lon="12.9631372"><ele>798.0</ele><time>2026-05-01T11:19:19.919Z</time></trkpt><trkpt lat="42.6599127" lon="12.9632722"><ele>798.0</ele><time>2026-05-01T11:19:20.919Z</time></trkpt><trkpt lat="42.6600676" lon="12.9633398"><ele>798.0</ele><time>2026-05-01T11:19:21.92Z</time></trkpt><trkpt lat="42.6602339" lon="12.9633872"><ele>798.0</ele><time>2026-05-01T11:19:22.92Z</time></trkpt><trkpt lat="42.6604192" lon="12.9634149"><ele>812.6666666666667</ele><time>2026-05-01T11:19:23.92Z</time></trkpt><trkpt lat="42.6606191" lon="12.9634625"><ele>827.3333333333334</ele><time>2026-05-01T11:19:24.92Z</time></trkpt><trkpt lat="42.6608215" lon="12.9635096"><ele>842.0</ele><time>2026-05-01T11:19:25.919Z</time></trkpt><trkpt lat="42.6610347" lon="12.9635641"><ele>832.6666666666667</ele><time>2026-05-01T11:19:26.919Z</time></trkpt><trkpt lat="42.6612481" lon="12.9636398"><ele>823.3333333333333</ele><time>2026-05-01T11:19:27.92Z</time></trkpt><trkpt lat="42.6614667" lon="12.963709"><ele>814.0</ele><time>2026-05-01T11:19:28.92Z</time></trkpt><trkpt lat="42.6616942" lon="12.9637973"><ele>814.0</ele><time>2026-05-01T11:19:29.92Z</time></trkpt><trkpt lat="42.6619249" lon="12.9638776"><ele>814.0</ele><time>2026-05-01T11:19:30.919Z</time></trkpt><trkpt lat="42.6621502" lon="12.9639578"><ele>809.6666666666666</ele><time>2026-05-01T11:19:31.921Z</time></trkpt><trkpt lat="42.6623615" lon="12.9640392"><ele>805.3333333333333</ele><time>2026-05-01T11:19:32.921Z</time></trkpt><trkpt lat="42.6625665" lon="12.9641085"><ele>801.0</ele><time>2026-05-01T11:19:33.92Z</time></trkpt><trkpt lat="42.6627473" lon="12.9641772"><ele>805.0</ele><time>2026-05-01T11:19:34.92Z</time></trkpt><trkpt lat="42.6629122" lon="12.96424"><ele>809.0</ele><time>2026-05-01T11:19:35.92Z</time></trkpt><trkpt lat="42.6630425" lon="12.9643089"><ele>813.0</ele><time>2026-05-01T11:19:36.921Z</time></trkpt><trkpt lat="42.6631596" lon="12.9643973"><ele>817.0</ele><time>2026-05-01T11:19:37.921Z</time></trkpt><trkpt lat="42.6632727" lon="12.964531"><ele>817.0</ele><time>2026-05-01T11:19:38.921Z</time></trkpt><trkpt lat="42.663379" lon="12.9647065"><ele>817.0</ele><time>2026-05-01T11:19:39.92Z</time></trkpt><trkpt lat="42.6634921" lon="12.964887"><ele>817.0</ele><time>2026-05-01T11:19:40.921Z</time></trkpt><trkpt lat="42.6636082" lon="12.9650697"><ele>821.25</ele><time>2026-05-01T11:19:41.921Z</time></trkpt><trkpt lat="42.6637133" lon="12.9652136"><ele>825.5</ele><time>2026-05-01T11:19:42.921Z</time></trkpt><trkpt lat="42.6638111" lon="12.965324"><ele>829.75</ele><time>2026-05-01T11:19:43.92Z</time></trkpt><trkpt lat="42.6639201" lon="12.9653855"><ele>834.0</ele><time>2026-05-01T11:19:44.921Z</time></trkpt><trkpt lat="42.6640541" lon="12.9653717"><ele>834.0</ele><time>2026-05-01T11:19:45.921Z</time></trkpt><trkpt lat="42.6641851" lon="12.9652971"><ele>834.0</ele><time>2026-05-01T11:19:46.921Z</time></trkpt><trkpt lat="42.664338" lon="12.9652494"><ele>834.0</ele><time>2026-05-01T11:19:47.921Z</time></trkpt><trkpt lat="42.6644917" lon="12.9652416"><ele>828.0</ele><time>2026-05-01T11:19:48.921Z</time></trkpt><trkpt lat="42.6646371" lon="12.9652767"><ele>822.0</ele><time>2026-05-01T11:19:49.921Z</time></trkpt><trkpt lat="42.6647714" lon="12.9653571"><ele>816.0</ele><time>2026-05-01T11:19:50.921Z</time></trkpt><trkpt lat="42.664889" lon="12.9655268"><ele>816.0</ele><time>2026-05-01T11:19:51.921Z</time></trkpt><trkpt lat="42.6649729" lon="12.9657188"><ele>816.0</ele><time>2026-05-01T11:19:52.92Z</time></trkpt><trkpt lat="42.6650647" lon="12.9659001"><ele>816.0</ele><time>2026-05-01T11:19:53.92Z</time></trkpt><trkpt lat="42.6651794" lon="12.9660464"><ele>822.6666666666667</ele><time>2026-05-01T11:19:54.921Z</time></trkpt><trkpt lat="42.6653395" lon="12.9661013"><ele>829.3333333333334</ele><time>2026-05-01T11:19:55.921Z</time></trkpt><trkpt lat="42.6655355" lon="12.9660617"><ele>836.0</ele><time>2026-05-01T11:19:56.921Z</time></trkpt><trkpt lat="42.665734" lon="12.9660151"><ele>836.0</ele><time>2026-05-01T11:19:57.921Z</time></trkpt><trkpt lat="42.6659385" lon="12.9659957"><ele>836.0</ele><time>2026-05-01T11:19:58.92Z</time></trkpt><trkpt lat="42.6661375" lon="12.9659812"><ele>836.0</ele><time>2026-05-01T11:19:59.921Z</time></trkpt><trkpt lat="42.6663051" lon="12.9659998"><ele>836.6666666666667</ele><time>2026-05-01T11:20:00.921Z</time></trkpt><trkpt lat="42.6664754" lon="12.9660281"><ele>837.3333333333333</ele><time>2026-05-01T11:20:01.921Z</time></trkpt><trkpt lat="42.6666527" lon="12.9660664"><ele>838.0</ele><time>2026-05-01T11:20:02.921Z</time></trkpt><trkpt lat="42.6668505" lon="12.966111"><ele>838.3333333333333</ele><time>2026-05-01T11:20:03.92Z</time></trkpt><trkpt lat="42.6670629" lon="12.9661578"><ele>838.6666666666667</ele><time>2026-05-01T11:20:04.921Z</time></trkpt><trkpt lat="42.667294" lon="12.9662053"><ele>839.0</ele><time>2026-05-01T11:20:05.92Z</time></trkpt><trkpt lat="42.6675269" lon="12.9662553"><ele>839.0</ele><time>2026-05-01T11:20:06.921Z</time></trkpt><trkpt lat="42.6677476" lon="12.9662963"><ele>839.0</ele><time>2026-05-01T11:20:07.921Z</time></trkpt><trkpt lat="42.6679353" lon="12.9663414"><ele>839.0</ele><time>2026-05-01T11:20:08.921Z</time></trkpt><trkpt lat="42.6680878" lon="12.9663853"><ele>838.5</ele><time>2026-05-01T11:20:09.92Z</time></trkpt><trkpt lat="42.6681965" lon="12.9664466"><ele>838.0</ele><time>2026-05-01T11:20:10.921Z</time></trkpt><trkpt lat="42.6682915" lon="12.966542"><ele>837.5</ele><time>2026-05-01T11:20:11.921Z</time></trkpt><trkpt lat="42.668369" lon="12.9666668"><ele>837.0</ele><time>2026-05-01T11:20:12.92Z</time></trkpt><trkpt lat="42.6684389" lon="12.966813"><ele>842.25</ele><time>2026-05-01T11:20:13.921Z</time></trkpt><trkpt lat="42.6685261" lon="12.9669154"><ele>847.5</ele><time>2026-05-01T11:20:14.921Z</time></trkpt><trkpt lat="42.6686634" lon="12.9669476"><ele>852.75</ele><time>2026-05-01T11:20:15.921Z</time></trkpt><trkpt lat="42.6688319" lon="12.9669124"><ele>858.0</ele><time>2026-05-01T11:20:16.921Z</time></trkpt><trkpt lat="42.6690032" lon="12.9668252"><ele>856.6666666666667</ele><time>2026-05-01T11:20:17.921Z</time></trkpt><trkpt lat="42.6691805" lon="12.9667257"><ele>855.3333333333334</ele><time>2026-05-01T11:20:18.921Z</time></trkpt><trkpt lat="42.6693648" lon="12.9666196"><ele>854.0</ele><time>2026-05-01T11:20:19.92Z</time></trkpt><trkpt lat="42.6695567" lon="12.9665197"><ele>854.0</ele><time>2026-05-01T11:20:20.921Z</time></trkpt><trkpt lat="42.6697445" lon="12.966432"><ele>854.0</ele><time>2026-05-01T11:20:21.92Z</time></trkpt><trkpt lat="42.6699187" lon="12.9663721"><ele>854.0</ele><time>2026-05-01T11:20:22.921Z</time></trkpt><trkpt lat="42.670066" lon="12.9663535"><ele>854.0</ele><time>2026-05-01T11:20:23.921Z</time></trkpt><trkpt lat="42.670218" lon="12.9663984"><ele>854.0</ele><time>2026-05-01T11:20:24.921Z</time></trkpt><trkpt lat="42.6703914" lon="12.9664837"><ele>854.0</ele><time>2026-05-01T11:20:25.921Z</time></trkpt><trkpt lat="42.6705734" lon="12.9665503"><ele>852.5</ele><time>2026-05-01T11:20:26.921Z</time></trkpt><trkpt lat="42.6707254" lon="12.9666214"><ele>851.0</ele><time>2026-05-01T11:20:27.921Z</time></trkpt><trkpt lat="42.6708674" lon="12.9666966"><ele>849.5</ele><time>2026-05-01T11:20:28.921Z</time></trkpt><trkpt lat="42.6709835" lon="12.9667696"><ele>848.0</ele><time>2026-05-01T11:20:29.921Z</time></trkpt><trkpt lat="42.6710753" lon="12.9668804"><ele>851.25</ele><time>2026-05-01T11:20:30.92Z</time></trkpt><trkpt lat="42.671117" lon="12.9670362"><ele>854.5</ele><time>2026-05-01T11:20:31.921Z</time></trkpt><trkpt lat="42.6711219" lon="12.9672446"><ele>857.75</ele><time>2026-05-01T11:20:32.921Z</time></trkpt><trkpt lat="42.6711359" lon="12.967437"><ele>861.0</ele><time>2026-05-01T11:20:33.92Z</time></trkpt><trkpt lat="42.671176" lon="12.9675961"><ele>861.0</ele><time>2026-05-01T11:20:34.921Z</time></trkpt><trkpt lat="42.6712582" lon="12.9676829"><ele>861.0</ele><time>2026-05-01T11:20:35.921Z</time></trkpt><trkpt lat="42.671376" lon="12.9676887"><ele>861.0</ele><time>2026-05-01T11:20:36.921Z</time></trkpt><trkpt lat="42.6715005" lon="12.9676174"><ele>861.0</ele><time>2026-05-01T11:20:37.921Z</time></trkpt><trkpt lat="42.671606" lon="12.9675168"><ele>861.0</ele><time>2026-05-01T11:20:38.921Z</time></trkpt><trkpt lat="42.6717313" lon="12.9674369"><ele>861.0</ele><time>2026-05-01T11:20:39.921Z</time></trkpt><trkpt lat="42.671866" lon="12.9674032"><ele>861.0</ele><time>2026-05-01T11:20:40.921Z</time></trkpt><trkpt lat="42.6720213" lon="12.9673977"><ele>861.0</ele><time>2026-05-01T11:20:41.921Z</time></trkpt><trkpt lat="42.6721868" lon="12.967438"><ele>862.0</ele><time>2026-05-01T11:20:42.921Z</time></trkpt><trkpt lat="42.6723572" lon="12.9674665"><ele>863.0</ele><time>2026-05-01T11:20:43.921Z</time></trkpt><trkpt lat="42.6725301" lon="12.9674997"><ele>864.0</ele><time>2026-05-01T11:20:44.921Z</time></trkpt><trkpt lat="42.6727126" lon="12.9675418"><ele>877.0</ele><time>2026-05-01T11:20:45.921Z</time></trkpt><trkpt lat="42.6728913" lon="12.9675792"><ele>890.0</ele><time>2026-05-01T11:20:46.921Z</time></trkpt><trkpt lat="42.673062" lon="12.9675963"><ele>903.0</ele><time>2026-05-01T11:20:47.921Z</time></trkpt><trkpt lat="42.6732193" lon="12.9676328"><ele>903.0</ele><time>2026-05-01T11:20:48.921Z</time></trkpt><trkpt lat="42.6733408" lon="12.9676955"><ele>903.0</ele><time>2026-05-01T11:20:49.921Z</time></trkpt><trkpt lat="42.673433" lon="12.9678032"><ele>903.0</ele><time>2026-05-01T11:20:50.92Z</time></trkpt><trkpt lat="42.673521" lon="12.9679469"><ele>903.0</ele><time>2026-05-01T11:20:51.921Z</time></trkpt><trkpt lat="42.6736269" lon="12.9680806"><ele>899.3333333333333</ele><time>2026-05-01T11:20:52.921Z</time></trkpt><trkpt lat="42.6737585" lon="12.9681488"><ele>895.6666666666666</ele><time>2026-05-01T11:20:53.921Z</time></trkpt><trkpt lat="42.6739203" lon="12.9681363"><ele>892.0</ele><time>2026-05-01T11:20:54.921Z</time></trkpt><trkpt lat="42.6740875" lon="12.9681073"><ele>892.0</ele><time>2026-05-01T11:20:55.921Z</time></trkpt><trkpt lat="42.6742822" lon="12.9681014"><ele>892.0</ele><time>2026-05-01T11:20:56.921Z</time></trkpt><trkpt lat="42.6744677" lon="12.9681177"><ele>892.0</ele><time>2026-05-01T11:20:57.921Z</time></trkpt><trkpt lat="42.6746184" lon="12.9681511"><ele>889.5</ele><time>2026-05-01T11:20:58.921Z</time></trkpt><trkpt lat="42.6747464" lon="12.9682218"><ele>887.0</ele><time>2026-05-01T11:20:59.92Z</time></trkpt><trkpt lat="42.6748571" lon="12.9683313"><ele>884.5</ele><time>2026-05-01T11:21:00.92Z</time></trkpt><trkpt lat="42.6749557" lon="12.968454"><ele>882.0</ele><time>2026-05-01T11:21:01.921Z</time></trkpt><trkpt lat="42.6750788" lon="12.9684953"><ele>889.25</ele><time>2026-05-01T11:21:02.921Z</time></trkpt><trkpt lat="42.6752187" lon="12.9684671"><ele>896.5</ele><time>2026-05-01T11:21:03.921Z</time></trkpt><trkpt lat="42.6753491" lon="12.9684393"><ele>903.75</ele><time>2026-05-01T11:21:04.92Z</time></trkpt><trkpt lat="42.6754949" lon="12.9684513"><ele>911.0</ele><time>2026-05-01T11:21:05.921Z</time></trkpt><trkpt lat="42.6756563" lon="12.9685302"><ele>911.0</ele><time>2026-05-01T11:21:06.921Z</time></trkpt><trkpt lat="42.6758156" lon="12.9686201"><ele>911.0</ele><time>2026-05-01T11:21:07.921Z</time></trkpt><trkpt lat="42.6759327" lon="12.9687217"><ele>911.0</ele><time>2026-05-01T11:21:08.921Z</time></trkpt><trkpt lat="42.6760077" lon="12.9688638"><ele>911.0</ele><time>2026-05-01T11:21:09.92Z</time></trkpt><trkpt lat="42.6760435" lon="12.9690325"><ele>911.0</ele><time>2026-05-01T11:21:10.92Z</time></trkpt><trkpt lat="42.6760968" lon="12.9691907"><ele>911.0</ele><time>2026-05-01T11:21:11.921Z</time></trkpt><trkpt lat="42.6761684" lon="12.969304"><ele>911.0</ele><time>2026-05-01T11:21:12.921Z</time></trkpt><trkpt lat="42.67627" lon="12.9693946"><ele>911.0</ele><time>2026-05-01T11:21:13.921Z</time></trkpt><trkpt lat="42.67641" lon="12.9694425"><ele>916.5</ele><time>2026-05-01T11:21:14.921Z</time></trkpt><trkpt lat="42.6766176" lon="12.969481"><ele>922.0</ele><time>2026-05-01T11:21:15.921Z</time></trkpt><trkpt lat="42.676856" lon="12.9695279"><ele>913.6666666666666</ele><time>2026-05-01T11:21:16.92Z</time></trkpt><trkpt lat="42.6770692" lon="12.9696186"><ele>905.3333333333333</ele><time>2026-05-01T11:21:17.921Z</time></trkpt><trkpt lat="42.6772831" lon="12.969697"><ele>897.0</ele><time>2026-05-01T11:21:18.921Z</time></trkpt><trkpt lat="42.67747" lon="12.9697706"><ele>897.0</ele><time>2026-05-01T11:21:19.921Z</time></trkpt><trkpt lat="42.6776242" lon="12.9698382"><ele>897.0</ele><time>2026-05-01T11:21:20.921Z</time></trkpt><trkpt lat="42.6777561" lon="12.969935"><ele>897.0</ele><time>2026-05-01T11:21:21.92Z</time></trkpt><trkpt lat="42.677856" lon="12.9700889"><ele>898.3333333333333</ele><time>2026-05-01T11:21:22.921Z</time></trkpt><trkpt lat="42.6779144" lon="12.9703033"><ele>899.6666666666666</ele><time>2026-05-01T11:21:23.921Z</time></trkpt><trkpt lat="42.6779723" lon="12.9705234"><ele>901.0</ele><time>2026-05-01T11:21:24.921Z</time></trkpt><trkpt lat="42.6780296" lon="12.9706744"><ele>901.0</ele><time>2026-05-01T11:21:25.921Z</time></trkpt><trkpt lat="42.6781229" lon="12.9708043"><ele>901.0</ele><time>2026-05-01T11:21:26.921Z</time></trkpt><trkpt lat="42.678263" lon="12.9708584"><ele>901.0</ele><time>2026-05-01T11:21:27.921Z</time></trkpt><trkpt lat="42.6784152" lon="12.9708722"><ele>901.0</ele><time>2026-05-01T11:21:28.92Z</time></trkpt><trkpt lat="42.6785682" lon="12.9708304"><ele>898.6666666666666</ele><time>2026-05-01T11:21:29.92Z</time></trkpt><trkpt lat="42.6787083" lon="12.9707803"><ele>896.3333333333333</ele><time>2026-05-01T11:21:30.92Z</time></trkpt><trkpt lat="42.6788546" lon="12.9707869"><ele>894.0</ele><time>2026-05-01T11:21:31.92Z</time></trkpt><trkpt lat="42.6790068" lon="12.9708699"><ele>896.3333333333333</ele><time>2026-05-01T11:21:32.92Z</time></trkpt><trkpt lat="42.679153" lon="12.971003"><ele>898.6666666666666</ele><time>2026-05-01T11:21:33.92Z</time></trkpt><trkpt lat="42.6793132" lon="12.9711646"><ele>901.0</ele><time>2026-05-01T11:21:34.92Z</time></trkpt><trkpt lat="42.6794833" lon="12.9713244"><ele>901.0</ele><time>2026-05-01T11:21:35.92Z</time></trkpt><trkpt lat="42.6796779" lon="12.9714873"><ele>901.0</ele><time>2026-05-01T11:21:36.921Z</time></trkpt><trkpt lat="42.6798771" lon="12.9716447"><ele>907.3333333333333</ele><time>2026-05-01T11:21:37.921Z</time></trkpt><trkpt lat="42.680057" lon="12.9717769"><ele>913.6666666666667</ele><time>2026-05-01T11:21:38.921Z</time></trkpt><trkpt lat="42.6802175" lon="12.9718889"><ele>920.0</ele><time>2026-05-01T11:21:39.92Z</time></trkpt><trkpt lat="42.6803806" lon="12.9719341"><ele>920.0</ele><time>2026-05-01T11:21:40.921Z</time></trkpt><trkpt lat="42.6805435" lon="12.9719357"><ele>920.0</ele><time>2026-05-01T11:21:41.921Z</time></trkpt><trkpt lat="42.6806809" lon="12.9719383"><ele>920.0</ele><time>2026-05-01T11:21:42.921Z</time></trkpt><trkpt lat="42.6808271" lon="12.9719991"><ele>920.0</ele><time>2026-05-01T11:21:43.92Z</time></trkpt><trkpt lat="42.6809899" lon="12.9721246"><ele>920.0</ele><time>2026-05-01T11:21:44.921Z</time></trkpt><trkpt lat="42.6811787" lon="12.972239"><ele>920.0</ele><time>2026-05-01T11:21:45.92Z</time></trkpt><trkpt lat="42.6813913" lon="12.9722672"><ele>916.0</ele><time>2026-05-01T11:21:46.921Z</time></trkpt><trkpt lat="42.6816149" lon="12.9722872"><ele>912.0</ele><time>2026-05-01T11:21:47.921Z</time></trkpt><trkpt lat="42.6818581" lon="12.9722919"><ele>910.5</ele><time>2026-05-01T11:21:48.921Z</time></trkpt><trkpt lat="42.6820963" lon="12.9723044"><ele>909.0</ele><time>2026-05-01T11:21:49.921Z</time></trkpt><trkpt lat="42.6823469" lon="12.9723146"><ele>909.0</ele><time>2026-05-01T11:21:50.921Z</time></trkpt><trkpt lat="42.6825821" lon="12.9723152"><ele>909.0</ele><time>2026-05-01T11:21:51.921Z</time></trkpt><trkpt lat="42.6827963" lon="12.9723267"><ele>907.0</ele><time>2026-05-01T11:21:52.921Z</time></trkpt><trkpt lat="42.682979" lon="12.9723594"><ele>905.0</ele><time>2026-05-01T11:21:53.921Z</time></trkpt><trkpt lat="42.6831323" lon="12.9723833"><ele>903.0</ele><time>2026-05-01T11:21:54.921Z</time></trkpt><trkpt lat="42.6833039" lon="12.9724705"><ele>904.0</ele><time>2026-05-01T11:21:55.921Z</time></trkpt><trkpt lat="42.6834814" lon="12.9726096"><ele>905.0</ele><time>2026-05-01T11:21:56.921Z</time></trkpt><trkpt lat="42.6836551" lon="12.9727948"><ele>906.0</ele><time>2026-05-01T11:21:57.921Z</time></trkpt><trkpt lat="42.6838373" lon="12.9729662"><ele>906.0</ele><time>2026-05-01T11:21:58.921Z</time></trkpt><trkpt lat="42.6840088" lon="12.9731169"><ele>906.0</ele><time>2026-05-01T11:21:59.921Z</time></trkpt><trkpt lat="42.6841505" lon="12.9732479"><ele>906.0</ele><time>2026-05-01T11:22:00.921Z</time></trkpt><trkpt lat="42.684259" lon="12.9733794"><ele>909.75</ele><time>2026-05-01T11:22:01.921Z</time></trkpt><trkpt lat="42.684328" lon="12.9735498"><ele>913.5</ele><time>2026-05-01T11:22:02.921Z</time></trkpt><trkpt lat="42.684356" lon="12.9737302"><ele>917.25</ele><time>2026-05-01T11:22:03.921Z</time></trkpt><trkpt lat="42.6843972" lon="12.9738795"><ele>921.0</ele><time>2026-05-01T11:22:04.92Z</time></trkpt><trkpt lat="42.6844588" lon="12.9739819"><ele>921.25</ele><time>2026-05-01T11:22:05.921Z</time></trkpt><trkpt lat="42.6845593" lon="12.974025"><ele>921.5</ele><time>2026-05-01T11:22:06.921Z</time></trkpt><trkpt lat="42.6846896" lon="12.9739795"><ele>921.75</ele><time>2026-05-01T11:22:07.921Z</time></trkpt><trkpt lat="42.6848332" lon="12.973895"><ele>922.0</ele><time>2026-05-01T11:22:08.921Z</time></trkpt><trkpt lat="42.6849955" lon="12.9737896"><ele>922.0</ele><time>2026-05-01T11:22:09.921Z</time></trkpt><trkpt lat="42.6851766" lon="12.9736844"><ele>922.0</ele><time>2026-05-01T11:22:10.921Z</time></trkpt><trkpt lat="42.6853589" lon="12.973563"><ele>922.0</ele><time>2026-05-01T11:22:11.92Z</time></trkpt><trkpt lat="42.6855297" lon="12.973464"><ele>915.6666666666666</ele><time>2026-05-01T11:22:12.92Z</time></trkpt><trkpt lat="42.685692" lon="12.9733923"><ele>909.3333333333333</ele><time>2026-05-01T11:22:13.92Z</time></trkpt><trkpt lat="42.6858548" lon="12.9733462"><ele>903.0</ele><time>2026-05-01T11:22:14.921Z</time></trkpt><trkpt lat="42.6860131" lon="12.973336"><ele>902.75</ele><time>2026-05-01T11:22:15.921Z</time></trkpt><trkpt lat="42.6861581" lon="12.973342"><ele>902.5</ele><time>2026-05-01T11:22:16.921Z</time></trkpt><trkpt lat="42.6862902" lon="12.9733659"><ele>902.25</ele><time>2026-05-01T11:22:17.921Z</time></trkpt><trkpt lat="42.68642" lon="12.9733987"><ele>902.0</ele><time>2026-05-01T11:22:18.921Z</time></trkpt><trkpt lat="42.6865366" lon="12.9734409"><ele>910.75</ele><time>2026-05-01T11:22:19.921Z</time></trkpt><trkpt lat="42.6866595" lon="12.9734994"><ele>919.5</ele><time>2026-05-01T11:22:20.921Z</time></trkpt><trkpt lat="42.6867716" lon="12.9735821"><ele>928.25</ele><time>2026-05-01T11:22:21.92Z</time></trkpt><trkpt lat="42.6868735" lon="12.9736795"><ele>937.0</ele><time>2026-05-01T11:22:22.921Z</time></trkpt><trkpt lat="42.686973" lon="12.9737635"><ele>938.25</ele><time>2026-05-01T11:22:23.921Z</time></trkpt><trkpt lat="42.6870737" lon="12.9738028"><ele>939.5</ele><time>2026-05-01T11:22:24.921Z</time></trkpt><trkpt lat="42.6871896" lon="12.9737531"><ele>940.75</ele><time>2026-05-01T11:22:25.921Z</time></trkpt><trkpt lat="42.6873229" lon="12.9736303"><ele>942.0</ele><time>2026-05-01T11:22:26.921Z</time></trkpt><trkpt lat="42.6874698" lon="12.9734722"><ele>941.0</ele><time>2026-05-01T11:22:27.921Z</time></trkpt><trkpt lat="42.6876454" lon="12.973307"><ele>940.0</ele><time>2026-05-01T11:22:28.921Z</time></trkpt><trkpt lat="42.6878366" lon="12.9731476"><ele>939.0</ele><time>2026-05-01T11:22:29.921Z</time></trkpt><trkpt lat="42.6880407" lon="12.9730063"><ele>939.0</ele><time>2026-05-01T11:22:30.921Z</time></trkpt><trkpt lat="42.6882437" lon="12.9728725"><ele>939.0</ele><time>2026-05-01T11:22:31.921Z</time></trkpt><trkpt lat="42.6884524" lon="12.972741"><ele>931.5</ele><time>2026-05-01T11:22:32.921Z</time></trkpt><trkpt lat="42.6886677" lon="12.9726274"><ele>924.0</ele><time>2026-05-01T11:22:33.921Z</time></trkpt><trkpt lat="42.6888808" lon="12.9725104"><ele>924.0</ele><time>2026-05-01T11:22:34.92Z</time></trkpt><trkpt lat="42.6890944" lon="12.9723996"><ele>924.0</ele><time>2026-05-01T11:22:35.921Z</time></trkpt><trkpt lat="42.689301" lon="12.9723018"><ele>924.0</ele><time>2026-05-01T11:22:36.921Z</time></trkpt><trkpt lat="42.6895053" lon="12.9722232"><ele>926.6666666666667</ele><time>2026-05-01T11:22:37.921Z</time></trkpt><trkpt lat="42.6896969" lon="12.9722091"><ele>929.3333333333334</ele><time>2026-05-01T11:22:38.921Z</time></trkpt><trkpt lat="42.6898724" lon="12.9722489"><ele>932.0</ele><time>2026-05-01T11:22:39.921Z</time></trkpt><trkpt lat="42.6900402" lon="12.9722711"><ele>932.0</ele><time>2026-05-01T11:22:40.921Z</time></trkpt><trkpt lat="42.6901872" lon="12.9722044"><ele>932.0</ele><time>2026-05-01T11:22:41.921Z</time></trkpt><trkpt lat="42.6903297" lon="12.9720469"><ele>932.0</ele><time>2026-05-01T11:22:42.921Z</time></trkpt><trkpt lat="42.6904775" lon="12.9718963"><ele>928.6666666666667</ele><time>2026-05-01T11:22:43.921Z</time></trkpt><trkpt lat="42.6906514" lon="12.9717645"><ele>925.3333333333333</ele><time>2026-05-01T11:22:44.921Z</time></trkpt><trkpt lat="42.6908458" lon="12.9716699"><ele>922.0</ele><time>2026-05-01T11:22:45.921Z</time></trkpt><trkpt lat="42.6910573" lon="12.9716043"><ele>923.6666666666666</ele><time>2026-05-01T11:22:46.921Z</time></trkpt><trkpt lat="42.6912722" lon="12.9715791"><ele>925.3333333333333</ele><time>2026-05-01T11:22:47.921Z</time></trkpt><trkpt lat="42.6914678" lon="12.9715813"><ele>927.0</ele><time>2026-05-01T11:22:48.921Z</time></trkpt><trkpt lat="42.6916457" lon="12.9716239"><ele>931.6666666666667</ele><time>2026-05-01T11:22:49.921Z</time></trkpt><trkpt lat="42.6917947" lon="12.9717174"><ele>936.3333333333334</ele><time>2026-05-01T11:22:50.921Z</time></trkpt><trkpt lat="42.6919126" lon="12.9718926"><ele>941.0</ele><time>2026-05-01T11:22:51.92Z</time></trkpt><trkpt lat="42.6920071" lon="12.972097"><ele>941.0</ele><time>2026-05-01T11:22:52.921Z</time></trkpt><trkpt lat="42.6921248" lon="12.9722755"><ele>941.0</ele><time>2026-05-01T11:22:53.921Z</time></trkpt><trkpt lat="42.6922678" lon="12.9723808"><ele>941.0</ele><time>2026-05-01T11:22:54.921Z</time></trkpt><trkpt lat="42.6924462" lon="12.9724255"><ele>941.0</ele><time>2026-05-01T11:22:55.921Z</time></trkpt><trkpt lat="42.6926527" lon="12.9724177"><ele>941.0</ele><time>2026-05-01T11:22:56.92Z</time></trkpt><trkpt lat="42.6928702" lon="12.9723793"><ele>941.0</ele><time>2026-05-01T11:22:57.921Z</time></trkpt><trkpt lat="42.6930967" lon="12.9723753"><ele>942.5</ele><time>2026-05-01T11:22:58.92Z</time></trkpt><trkpt lat="42.693334" lon="12.9723928"><ele>944.0</ele><time>2026-05-01T11:22:59.921Z</time></trkpt><trkpt lat="42.69358" lon="12.9724039"><ele>942.0</ele><time>2026-05-01T11:23:00.921Z</time></trkpt><trkpt lat="42.6938306" lon="12.9724356"><ele>940.0</ele><time>2026-05-01T11:23:01.92Z</time></trkpt><trkpt lat="42.6940675" lon="12.9724667"><ele>940.0</ele><time>2026-05-01T11:23:02.921Z</time></trkpt><trkpt lat="42.6942839" lon="12.9724956"><ele>940.0</ele><time>2026-05-01T11:23:03.921Z</time></trkpt><trkpt lat="42.6944889" lon="12.9725362"><ele>940.0</ele><time>2026-05-01T11:23:04.921Z</time></trkpt><trkpt lat="42.6946559" lon="12.9725999"><ele>943.75</ele><time>2026-05-01T11:23:05.921Z</time></trkpt><trkpt lat="42.694809" lon="12.9726508"><ele>947.5</ele><time>2026-05-01T11:23:06.92Z</time></trkpt><trkpt lat="42.6949333" lon="12.9727276"><ele>951.25</ele><time>2026-05-01T11:23:07.92Z</time></trkpt><trkpt lat="42.6950342" lon="12.9728656"><ele>955.0</ele><time>2026-05-01T11:23:08.921Z</time></trkpt><trkpt lat="42.6951132" lon="12.9730524"><ele>955.0</ele><time>2026-05-01T11:23:09.92Z</time></trkpt><trkpt lat="42.6951868" lon="12.9732888"><ele>955.0</ele><time>2026-05-01T11:23:10.92Z</time></trkpt><trkpt lat="42.695284" lon="12.9735344"><ele>955.0</ele><time>2026-05-01T11:23:11.921Z</time></trkpt><trkpt lat="42.695411" lon="12.9737754"><ele>951.0</ele><time>2026-05-01T11:23:12.921Z</time></trkpt><trkpt lat="42.695568" lon="12.9740147"><ele>947.0</ele><time>2026-05-01T11:23:13.921Z</time></trkpt><trkpt lat="42.695732" lon="12.9742733"><ele>953.5</ele><time>2026-05-01T11:23:14.92Z</time></trkpt><trkpt lat="42.695911" lon="12.9745271"><ele>960.0</ele><time>2026-05-01T11:23:15.92Z</time></trkpt><trkpt lat="42.6960928" lon="12.9747852"><ele>961.0</ele><time>2026-05-01T11:23:16.92Z</time></trkpt><trkpt lat="42.6962643" lon="12.9750362"><ele>962.0</ele><time>2026-05-01T11:23:17.92Z</time></trkpt><trkpt lat="42.696411" lon="12.9752442"><ele>962.0</ele><time>2026-05-01T11:23:18.92Z</time></trkpt><trkpt lat="42.6965383" lon="12.9754245"><ele>962.0</ele><time>2026-05-01T11:23:19.921Z</time></trkpt><trkpt lat="42.6966359" lon="12.9755908"><ele>962.0</ele><time>2026-05-01T11:23:20.92Z</time></trkpt><trkpt lat="42.6967148" lon="12.9757559"><ele>961.0</ele><time>2026-05-01T11:23:21.921Z</time></trkpt><trkpt lat="42.6967681" lon="12.9759319"><ele>960.0</ele><time>2026-05-01T11:23:22.921Z</time></trkpt><trkpt lat="42.6967895" lon="12.9761357"><ele>959.0</ele><time>2026-05-01T11:23:23.921Z</time></trkpt><trkpt lat="42.6967818" lon="12.9763533"><ele>959.0</ele><time>2026-05-01T11:23:24.92Z</time></trkpt><trkpt lat="42.6967351" lon="12.9765894"><ele>959.0</ele><time>2026-05-01T11:23:25.921Z</time></trkpt><trkpt lat="42.6966773" lon="12.9768412"><ele>959.0</ele><time>2026-05-01T11:23:26.921Z</time></trkpt><trkpt lat="42.6966357" lon="12.9770883"><ele>958.0</ele><time>2026-05-01T11:23:27.921Z</time></trkpt><trkpt lat="42.6966075" lon="12.9773096"><ele>957.0</ele><time>2026-05-01T11:23:28.921Z</time></trkpt><trkpt lat="42.6966132" lon="12.97753"><ele>956.0</ele><time>2026-05-01T11:23:29.921Z</time></trkpt><trkpt lat="42.6966518" lon="12.97774"><ele>954.3333333333334</ele><time>2026-05-01T11:23:30.921Z</time></trkpt><trkpt lat="42.6967271" lon="12.977935"><ele>952.6666666666667</ele><time>2026-05-01T11:23:31.921Z</time></trkpt><trkpt lat="42.69684" lon="12.9781178"><ele>951.0</ele><time>2026-05-01T11:23:32.921Z</time></trkpt><trkpt lat="42.6969888" lon="12.9782542"><ele>952.3333333333333</ele><time>2026-05-01T11:23:33.921Z</time></trkpt><trkpt lat="42.6971542" lon="12.9783569"><ele>953.6666666666666</ele><time>2026-05-01T11:23:34.921Z</time></trkpt><trkpt lat="42.6973386" lon="12.9783924"><ele>955.0</ele><time>2026-05-01T11:23:35.921Z</time></trkpt><trkpt lat="42.6975454" lon="12.9783496"><ele>955.0</ele><time>2026-05-01T11:23:36.921Z</time></trkpt><trkpt lat="42.6977624" lon="12.9782819"><ele>955.0</ele><time>2026-05-01T11:23:37.92Z</time></trkpt><trkpt lat="42.6946559" lon="12.9725999"><ele>955.0</ele><time>2026-05-01T11:23:05.921Z</time></trkpt><trkpt lat="42.694809" lon="12.9726508"><ele>955.0</ele><time>2026-05-01T11:23:06.92Z</time></trkpt><trkpt lat="42.6949333" lon="12.9727276"><ele>955.0</ele><time>2026-05-01T11:23:07.92Z</time></trkpt><trkpt lat="42.6950342" lon="12.9728656"><ele>955.0</ele><time>2026-05-01T11:23:08.921Z</time></trkpt><trkpt lat="42.6951132" lon="12.9730524"><ele>955.0</ele><time>2026-05-01T11:23:09.92Z</time></trkpt><trkpt lat="42.6951868" lon="12.9732888"><ele>955.0</ele><time>2026-05-01T11:23:10.92Z</time></trkpt><trkpt lat="42.695284" lon="12.9735344"><ele>955.0</ele><time>2026-05-01T11:23:11.921Z</time></trkpt><trkpt lat="42.695411" lon="12.9737754"><ele>951.0</ele><time>2026-05-01T11:23:12.921Z</time></trkpt><trkpt lat="42.695568" lon="12.9740147"><ele>947.0</ele><time>2026-05-01T11:23:13.921Z</time></trkpt><trkpt lat="42.695732" lon="12.9742733"><ele>953.5</ele><time>2026-05-01T11:23:14.92Z</time></trkpt><trkpt lat="42.695911" lon="12.9745271"><ele>960.0</ele><time>2026-05-01T11:23:15.92Z</time></trkpt><trkpt lat="42.6960928" lon="12.9747852"><ele>961.0</ele><time>2026-05-01T11:23:16.92Z</time></trkpt><trkpt lat="42.6962643" lon="12.9750362"><ele>962.0</ele><time>2026-05-01T11:23:17.92Z</time></trkpt><trkpt lat="42.696411" lon="12.9752442"><ele>962.0</ele><time>2026-05-01T11:23:18.92Z</time></trkpt><trkpt lat="42.6965383" lon="12.9754245"><ele>962.0</ele><time>2026-05-01T11:23:19.921Z</time></trkpt><trkpt lat="42.6966359" lon="12.9755908"><ele>962.0</ele><time>2026-05-01T11:23:20.92Z</time></trkpt><trkpt lat="42.6967148" lon="12.9757559"><ele>961.0</ele><time>2026-05-01T11:23:21.921Z</time></trkpt><trkpt lat="42.6967681" lon="12.9759319"><ele>960.0</ele><time>2026-05-01T11:23:22.921Z</time></trkpt><trkpt lat="42.6967895" lon="12.9761357"><ele>959.0</ele><time>2026-05-01T11:23:23.921Z</time></trkpt><trkpt lat="42.6967818" lon="12.9763533"><ele>959.0</ele><time>2026-05-01T11:23:24.92Z</time></trkpt><trkpt lat="42.6967351" lon="12.9765894"><ele>959.0</ele><time>2026-05-01T11:23:25.921Z</time></trkpt><trkpt lat="42.6966773" lon="12.9768412"><ele>959.0</ele><time>2026-05-01T11:23:26.921Z</time></trkpt><trkpt lat="42.6966357" lon="12.9770883"><ele>958.0</ele><time>2026-05-01T11:23:27.921Z</time></trkpt><trkpt lat="42.6966075" lon="12.9773096"><ele>957.0</ele><time>2026-05-01T11:23:28.921Z</time></trkpt><trkpt lat="42.6966132" lon="12.97753"><ele>956.0</ele><time>2026-05-01T11:23:29.921Z</time></trkpt><trkpt lat="42.6966518" lon="12.97774"><ele>954.3333333333334</ele><time>2026-05-01T11:23:30.921Z</time></trkpt><trkpt lat="42.6967271" lon="12.977935"><ele>952.6666666666667</ele><time>2026-05-01T11:23:31.921Z</time></trkpt><trkpt lat="42.69684" lon="12.9781178"><ele>951.0</ele><time>2026-05-01T11:23:32.921Z</time></trkpt><trkpt lat="42.6969888" lon="12.9782542"><ele>952.3333333333333</ele><time>2026-05-01T11:23:33.921Z</time></trkpt><trkpt lat="42.6971542" lon="12.9783569"><ele>953.6666666666666</ele><time>2026-05-01T11:23:34.921Z</time></trkpt><trkpt lat="42.6973386" lon="12.9783924"><ele>955.0</ele><time>2026-05-01T11:23:35.921Z</time></trkpt><trkpt lat="42.6975454" lon="12.9783496"><ele>950.5</ele><time>2026-05-01T11:23:36.921Z</time></trkpt><trkpt lat="42.6977624" lon="12.9782819"><ele>946.0</ele><time>2026-05-01T11:23:37.92Z</time></trkpt><trkpt lat="42.6979876" lon="12.9782052"><ele>946.0</ele><time>2026-05-01T11:23:38.921Z</time></trkpt><trkpt lat="42.6982306" lon="12.9781456"><ele>946.0</ele><time>2026-05-01T11:23:39.921Z</time></trkpt><trkpt lat="42.6984765" lon="12.9780903"><ele>949.5</ele><time>2026-05-01T11:23:40.921Z</time></trkpt><trkpt lat="42.698736" lon="12.9780298"><ele>953.0</ele><time>2026-05-01T11:23:41.92Z</time></trkpt><trkpt lat="42.6989923" lon="12.977957"><ele>953.0</ele><time>2026-05-01T11:23:42.921Z</time></trkpt><trkpt lat="42.6992567" lon="12.9778894"><ele>953.0</ele><time>2026-05-01T11:23:43.921Z</time></trkpt><trkpt lat="42.6995148" lon="12.9778132"><ele>953.5</ele><time>2026-05-01T11:23:44.92Z</time></trkpt><trkpt lat="42.6997789" lon="12.9777298"><ele>954.0</ele><time>2026-05-01T11:23:45.921Z</time></trkpt><trkpt lat="42.7000362" lon="12.9776349"><ele>952.5</ele><time>2026-05-01T11:23:46.921Z</time></trkpt><trkpt lat="42.700297" lon="12.9775306"><ele>951.0</ele><time>2026-05-01T11:23:47.921Z</time></trkpt><trkpt lat="42.7005557" lon="12.9774288"><ele>943.0</ele><time>2026-05-01T11:23:48.921Z</time></trkpt><trkpt lat="42.7008052" lon="12.9773258"><ele>935.0</ele><time>2026-05-01T11:23:49.92Z</time></trkpt><trkpt lat="42.7010483" lon="12.9772283"><ele>934.6666666666667</ele><time>2026-05-01T11:23:50.92Z</time></trkpt><trkpt lat="42.7012645" lon="12.9771331"><ele>934.3333333333333</ele><time>2026-05-01T11:23:51.921Z</time></trkpt><trkpt lat="42.7014744" lon="12.9770436"><ele>934.0</ele><time>2026-05-01T11:23:52.921Z</time></trkpt><trkpt lat="42.7016679" lon="12.976968"><ele>934.0</ele><time>2026-05-01T11:23:53.921Z</time></trkpt><trkpt lat="42.7018305" lon="12.9769061"><ele>934.0</ele><time>2026-05-01T11:23:54.921Z</time></trkpt><trkpt lat="42.7019629" lon="12.9768981"><ele>934.0</ele><time>2026-05-01T11:23:55.921Z</time></trkpt><trkpt lat="42.7021113" lon="12.9769417"><ele>931.6666666666666</ele><time>2026-05-01T11:23:56.921Z</time></trkpt><trkpt lat="42.7022619" lon="12.9770488"><ele>929.3333333333333</ele><time>2026-05-01T11:23:57.921Z</time></trkpt><trkpt lat="42.702435" lon="12.9771806"><ele>927.0</ele><time>2026-05-01T11:23:58.921Z</time></trkpt><trkpt lat="42.70262" lon="12.9773284"><ele>926.5</ele><time>2026-05-01T11:23:59.921Z</time></trkpt><trkpt lat="42.7028133" lon="12.9774853"><ele>926.0</ele><time>2026-05-01T11:24:00.921Z</time></trkpt><trkpt lat="42.7030212" lon="12.9776528"><ele>926.0</ele><time>2026-05-01T11:24:01.92Z</time></trkpt><trkpt lat="42.7032351" lon="12.9778244"><ele>926.0</ele><time>2026-05-01T11:24:02.921Z</time></trkpt><trkpt lat="42.7034268" lon="12.9779859"><ele>922.0</ele><time>2026-05-01T11:24:03.921Z</time></trkpt><trkpt lat="42.7035976" lon="12.9781303"><ele>918.0</ele><time>2026-05-01T11:24:04.921Z</time></trkpt><trkpt lat="42.7037438" lon="12.9782785"><ele>914.0</ele><time>2026-05-01T11:24:05.921Z</time></trkpt><trkpt lat="42.7038823" lon="12.9784583"><ele>914.0</ele><time>2026-05-01T11:24:06.92Z</time></trkpt><trkpt lat="42.7040006" lon="12.9786675"><ele>914.0</ele><time>2026-05-01T11:24:07.92Z</time></trkpt><trkpt lat="42.7041028" lon="12.9788913"><ele>914.0</ele><time>2026-05-01T11:24:08.921Z</time></trkpt><trkpt lat="42.7041784" lon="12.9791343"><ele>912.6666666666667</ele><time>2026-05-01T11:24:09.921Z</time></trkpt><trkpt lat="42.704235" lon="12.979389"><ele>911.3333333333333</ele><time>2026-05-01T11:24:10.921Z</time></trkpt><trkpt lat="42.7042597" lon="12.9796527"><ele>910.0</ele><time>2026-05-01T11:24:11.921Z</time></trkpt><trkpt lat="42.7042477" lon="12.9799222"><ele>907.6666666666666</ele><time>2026-05-01T11:24:12.921Z</time></trkpt><trkpt lat="42.7042085" lon="12.9801901"><ele>905.3333333333333</ele><time>2026-05-01T11:24:13.921Z</time></trkpt><trkpt lat="42.7041572" lon="12.9804637"><ele>903.0</ele><time>2026-05-01T11:24:14.921Z</time></trkpt><trkpt lat="42.7040869" lon="12.9807125"><ele>904.3333333333333</ele><time>2026-05-01T11:24:15.921Z</time></trkpt><trkpt lat="42.7040372" lon="12.9809424"><ele>905.6666666666666</ele><time>2026-05-01T11:24:16.921Z</time></trkpt><trkpt lat="42.7040618" lon="12.9811802"><ele>907.0</ele><time>2026-05-01T11:24:17.921Z</time></trkpt><trkpt lat="42.7041319" lon="12.9814067"><ele>907.0</ele><time>2026-05-01T11:24:18.921Z</time></trkpt><trkpt lat="42.7042461" lon="12.9816288"><ele>907.0</ele><time>2026-05-01T11:24:19.921Z</time></trkpt><trkpt lat="42.7043675" lon="12.981856"><ele>907.0</ele><time>2026-05-01T11:24:20.921Z</time></trkpt><trkpt lat="42.704481" lon="12.9820911"><ele>904.0</ele><time>2026-05-01T11:24:21.921Z</time></trkpt><trkpt lat="42.7045589" lon="12.9823577"><ele>901.0</ele><time>2026-05-01T11:24:22.92Z</time></trkpt><trkpt lat="42.7046171" lon="12.9826522"><ele>898.0</ele><time>2026-05-01T11:24:23.921Z</time></trkpt><trkpt lat="42.7046726" lon="12.9829518"><ele>898.0</ele><time>2026-05-01T11:24:24.92Z</time></trkpt><trkpt lat="42.7047256" lon="12.9832619"><ele>898.0</ele><time>2026-05-01T11:24:25.921Z</time></trkpt><trkpt lat="42.7047732" lon="12.9835633"><ele>898.3333333333333</ele><time>2026-05-01T11:24:26.921Z</time></trkpt><trkpt lat="42.7048119" lon="12.9838502"><ele>898.6666666666667</ele><time>2026-05-01T11:24:27.921Z</time></trkpt><trkpt lat="42.7048432" lon="12.9841095"><ele>899.0</ele><time>2026-05-01T11:24:28.921Z</time></trkpt><trkpt lat="42.7048758" lon="12.9843464"><ele>898.0</ele><time>2026-05-01T11:24:29.921Z</time></trkpt><trkpt lat="42.7049104" lon="12.9845795"><ele>897.0</ele><time>2026-05-01T11:24:30.92Z</time></trkpt><trkpt lat="42.704961" lon="12.984809"><ele>896.0</ele><time>2026-05-01T11:24:31.921Z</time></trkpt><trkpt lat="42.7050403" lon="12.9850381"><ele>895.0</ele><time>2026-05-01T11:24:32.92Z</time></trkpt><trkpt lat="42.7051484" lon="12.9852681"><ele>894.0</ele><time>2026-05-01T11:24:33.92Z</time></trkpt><trkpt lat="42.705277" lon="12.9854991"><ele>893.0</ele><time>2026-05-01T11:24:34.921Z</time></trkpt><trkpt lat="42.7054053" lon="12.9857344"><ele>891.0</ele><time>2026-05-01T11:24:35.921Z</time></trkpt><trkpt lat="42.7055328" lon="12.9859906"><ele>889.0</ele><time>2026-05-01T11:24:36.92Z</time></trkpt><trkpt lat="42.7056653" lon="12.9862503"><ele>889.0</ele><time>2026-05-01T11:24:37.92Z</time></trkpt><trkpt lat="42.705798" lon="12.9864999"><ele>889.0</ele><time>2026-05-01T11:24:38.92Z</time></trkpt><trkpt lat="42.7059341" lon="12.9867251"><ele>889.0</ele><time>2026-05-01T11:24:39.921Z</time></trkpt><trkpt lat="42.7060751" lon="12.9869388"><ele>888.3333333333333</ele><time>2026-05-01T11:24:40.921Z</time></trkpt><trkpt lat="42.7062113" lon="12.9871164"><ele>887.6666666666667</ele><time>2026-05-01T11:24:41.921Z</time></trkpt><trkpt lat="42.7063291" lon="12.9872904"><ele>887.0</ele><time>2026-05-01T11:24:42.921Z</time></trkpt><trkpt lat="42.7064264" lon="12.9874752"><ele>885.6666666666667</ele><time>2026-05-01T11:24:43.92Z</time></trkpt><trkpt lat="42.706479" lon="12.9877229"><ele>884.3333333333333</ele><time>2026-05-01T11:24:44.92Z</time></trkpt><trkpt lat="42.706503" lon="12.9880058"><ele>883.0</ele><time>2026-05-01T11:24:45.921Z</time></trkpt><trkpt lat="42.7065201" lon="12.9883064"><ele>882.5</ele><time>2026-05-01T11:24:46.92Z</time></trkpt><trkpt lat="42.706541" lon="12.9886093"><ele>882.0</ele><time>2026-05-01T11:24:47.921Z</time></trkpt><trkpt lat="42.7065483" lon="12.9889272"><ele>881.3333333333333</ele><time>2026-05-01T11:24:48.921Z</time></trkpt><trkpt lat="42.7065445" lon="12.9892369"><ele>880.6666666666666</ele><time>2026-05-01T11:24:49.92Z</time></trkpt><trkpt lat="42.7065291" lon="12.9895264"><ele>880.0</ele><time>2026-05-01T11:24:50.921Z</time></trkpt><trkpt lat="42.7065138" lon="12.9898051"><ele>879.0</ele><time>2026-05-01T11:24:51.921Z</time></trkpt><trkpt lat="42.7065094" lon="12.9900804"><ele>878.0</ele><time>2026-05-01T11:24:52.921Z</time></trkpt><trkpt lat="42.7065356" lon="12.9903505"><ele>877.0</ele><time>2026-05-01T11:24:53.92Z</time></trkpt><trkpt lat="42.706589" lon="12.9906312"><ele>874.0</ele><time>2026-05-01T11:24:54.921Z</time></trkpt><trkpt lat="42.7066685" lon="12.9909096"><ele>871.0</ele><time>2026-05-01T11:24:55.92Z</time></trkpt><trkpt lat="42.70677" lon="12.9911946"><ele>871.0</ele><time>2026-05-01T11:24:56.921Z</time></trkpt><trkpt lat="42.7068752" lon="12.9914794"><ele>871.0</ele><time>2026-05-01T11:24:57.921Z</time></trkpt><trkpt lat="42.7069883" lon="12.9917695"><ele>872.5</ele><time>2026-05-01T11:24:58.92Z</time></trkpt><trkpt lat="42.707102" lon="12.9920654"><ele>874.0</ele><time>2026-05-01T11:24:59.921Z</time></trkpt><trkpt lat="42.7072224" lon="12.9923528"><ele>871.0</ele><time>2026-05-01T11:25:00.921Z</time></trkpt><trkpt lat="42.7073425" lon="12.9926273"><ele>868.0</ele><time>2026-05-01T11:25:01.921Z</time></trkpt><trkpt lat="42.7074799" lon="12.992877"><ele>868.0</ele><time>2026-05-01T11:25:02.92Z</time></trkpt><trkpt lat="42.707629" lon="12.9931065"><ele>868.0</ele><time>2026-05-01T11:25:03.921Z</time></trkpt><trkpt lat="42.7077763" lon="12.9933076"><ele>868.0</ele><time>2026-05-01T11:25:04.92Z</time></trkpt><trkpt lat="42.7079107" lon="12.99349"><ele>866.0</ele><time>2026-05-01T11:25:05.921Z</time></trkpt><trkpt lat="42.7080273" lon="12.993666"><ele>864.0</ele><time>2026-05-01T11:25:06.921Z</time></trkpt><trkpt lat="42.7081174" lon="12.9938482"><ele>862.0</ele><time>2026-05-01T11:25:07.921Z</time></trkpt><trkpt lat="42.7081809" lon="12.9940518"><ele>860.6666666666666</ele><time>2026-05-01T11:25:08.92Z</time></trkpt><trkpt lat="42.7082129" lon="12.9942984"><ele>859.3333333333333</ele><time>2026-05-01T11:25:09.921Z</time></trkpt><trkpt lat="42.7082348" lon="12.9945758"><ele>858.0</ele><time>2026-05-01T11:25:10.92Z</time></trkpt><trkpt lat="42.7082684" lon="12.9948463"><ele>862.0</ele><time>2026-05-01T11:25:11.921Z</time></trkpt><trkpt lat="42.7083303" lon="12.995108"><ele>866.0</ele><time>2026-05-01T11:25:12.921Z</time></trkpt><trkpt lat="42.7084155" lon="12.9953561"><ele>870.0</ele><time>2026-05-01T11:25:13.921Z</time></trkpt><trkpt lat="42.7085116" lon="12.9956128"><ele>856.3333333333333</ele><time>2026-05-01T11:25:14.921Z</time></trkpt><trkpt lat="42.7085938" lon="12.995883"><ele>842.6666666666666</ele><time>2026-05-01T11:25:15.921Z</time></trkpt><trkpt lat="42.7086761" lon="12.9961467"><ele>829.0</ele><time>2026-05-01T11:25:16.921Z</time></trkpt><trkpt lat="42.7087527" lon="12.9964019"><ele>829.0</ele><time>2026-05-01T11:25:17.921Z</time></trkpt><trkpt lat="42.7088341" lon="12.9966486"><ele>829.0</ele><time>2026-05-01T11:25:18.921Z</time></trkpt><trkpt lat="42.7088908" lon="12.996899"><ele>829.0</ele><time>2026-05-01T11:25:19.92Z</time></trkpt><trkpt lat="42.7089335" lon="12.9971332"><ele>832.0</ele><time>2026-05-01T11:25:20.921Z</time></trkpt><trkpt lat="42.7089718" lon="12.9973505"><ele>835.0</ele><time>2026-05-01T11:25:21.921Z</time></trkpt><trkpt lat="42.7090259" lon="12.9975755"><ele>838.0</ele><time>2026-05-01T11:25:22.92Z</time></trkpt><trkpt lat="42.7091133" lon="12.9977827"><ele>833.6666666666666</ele><time>2026-05-01T11:25:23.92Z</time></trkpt><trkpt lat="42.7092381" lon="12.9979784"><ele>829.3333333333333</ele><time>2026-05-01T11:25:24.921Z</time></trkpt><trkpt lat="42.7093652" lon="12.9981536"><ele>825.0</ele><time>2026-05-01T11:25:25.921Z</time></trkpt><trkpt lat="42.7094803" lon="12.9983443"><ele>825.0</ele><time>2026-05-01T11:25:26.921Z</time></trkpt><trkpt lat="42.7095852" lon="12.9985635"><ele>825.0</ele><time>2026-05-01T11:25:27.921Z</time></trkpt><trkpt lat="42.7096825" lon="12.9987916"><ele>825.0</ele><time>2026-05-01T11:25:28.921Z</time></trkpt><trkpt lat="42.7097665" lon="12.9989986"><ele>829.3333333333333</ele><time>2026-05-01T11:25:29.921Z</time></trkpt><trkpt lat="42.7098568" lon="12.9991817"><ele>833.6666666666666</ele><time>2026-05-01T11:25:30.921Z</time></trkpt><trkpt lat="42.7099727" lon="12.9993187"><ele>838.0</ele><time>2026-05-01T11:25:31.921Z</time></trkpt><trkpt lat="42.7101006" lon="12.9994319"><ele>838.0</ele><time>2026-05-01T11:25:32.92Z</time></trkpt><trkpt lat="42.7102227" lon="12.9995456"><ele>838.0</ele><time>2026-05-01T11:25:33.92Z</time></trkpt><trkpt lat="42.7103078" lon="12.999687"><ele>838.0</ele><time>2026-05-01T11:25:34.921Z</time></trkpt><trkpt lat="42.7103392" lon="12.9998587"><ele>838.0</ele><time>2026-05-01T11:25:35.921Z</time></trkpt><trkpt lat="42.7103296" lon="13.0000521"><ele>823.3333333333333</ele><time>2026-05-01T11:25:36.921Z</time></trkpt><trkpt lat="42.7103116" lon="13.0002933"><ele>808.6666666666667</ele><time>2026-05-01T11:25:37.921Z</time></trkpt><trkpt lat="42.7103055" lon="13.0005551"><ele>794.0</ele><time>2026-05-01T11:25:38.921Z</time></trkpt><trkpt lat="42.7103233" lon="13.0008073"><ele>797.3333333333334</ele><time>2026-05-01T11:25:39.921Z</time></trkpt><trkpt lat="42.7104045" lon="13.0010584"><ele>800.6666666666667</ele><time>2026-05-01T11:25:40.921Z</time></trkpt><trkpt lat="42.7105296" lon="13.0013021"><ele>804.0</ele><time>2026-05-01T11:25:41.921Z</time></trkpt><trkpt lat="42.7106629" lon="13.0015404"><ele>808.6666666666667</ele><time>2026-05-01T11:25:42.92Z</time></trkpt><trkpt lat="42.7107815" lon="13.0017536"><ele>813.3333333333334</ele><time>2026-05-01T11:25:43.92Z</time></trkpt><trkpt lat="42.7108769" lon="13.0019361"><ele>818.0</ele><time>2026-05-01T11:25:44.921Z</time></trkpt><trkpt lat="42.7110045" lon="13.0021031"><ele>808.0</ele><time>2026-05-01T11:25:45.921Z</time></trkpt><trkpt lat="42.7111501" lon="13.0022392"><ele>798.0</ele><time>2026-05-01T11:25:46.92Z</time></trkpt><trkpt lat="42.7112993" lon="13.0023452"><ele>788.0</ele><time>2026-05-01T11:25:47.921Z</time></trkpt><trkpt lat="42.711432" lon="13.0024416"><ele>790.75</ele><time>2026-05-01T11:25:48.921Z</time></trkpt><trkpt lat="42.7115114" lon="13.0025418"><ele>793.5</ele><time>2026-05-01T11:25:49.921Z</time></trkpt><trkpt lat="42.7115647" lon="13.0026726"><ele>796.25</ele><time>2026-05-01T11:25:50.921Z</time></trkpt><trkpt lat="42.7115508" lon="13.0028334"><ele>799.0</ele><time>2026-05-01T11:25:51.921Z</time></trkpt><trkpt lat="42.7114987" lon="13.0030252"><ele>799.0</ele><time>2026-05-01T11:25:52.92Z</time></trkpt><trkpt lat="42.7114713" lon="13.0032474"><ele>799.0</ele><time>2026-05-01T11:25:53.92Z</time></trkpt><trkpt lat="42.7114538" lon="13.0034977"><ele>799.0</ele><time>2026-05-01T11:25:54.92Z</time></trkpt><trkpt lat="42.711434" lon="13.0037723"><ele>797.6666666666666</ele><time>2026-05-01T11:25:55.921Z</time></trkpt><trkpt lat="42.7113983" lon="13.0040212"><ele>796.3333333333333</ele><time>2026-05-01T11:25:56.921Z</time></trkpt><trkpt lat="42.711355" lon="13.0042621"><ele>795.0</ele><time>2026-05-01T11:25:57.92Z</time></trkpt><trkpt lat="42.7113368" lon="13.0044984"><ele>794.6666666666667</ele><time>2026-05-01T11:25:58.921Z</time></trkpt><trkpt lat="42.7113618" lon="13.0047262"><ele>794.3333333333334</ele><time>2026-05-01T11:25:59.921Z</time></trkpt><trkpt lat="42.7113994" lon="13.0049599"><ele>794.0</ele><time>2026-05-01T11:26:00.921Z</time></trkpt><trkpt lat="42.7114408" lon="13.0051668"><ele>794.0</ele><time>2026-05-01T11:26:01.921Z</time></trkpt><trkpt lat="42.7114948" lon="13.005349"><ele>794.0</ele><time>2026-05-01T11:26:02.921Z</time></trkpt><trkpt lat="42.7115847" lon="13.0055093"><ele>794.0</ele><time>2026-05-01T11:26:03.921Z</time></trkpt><trkpt lat="42.7117134" lon="13.0056387"><ele>794.0</ele><time>2026-05-01T11:26:04.92Z</time></trkpt><trkpt lat="42.7118654" lon="13.0057455"><ele>794.0</ele><time>2026-05-01T11:26:05.921Z</time></trkpt><trkpt lat="42.7120214" lon="13.0058158"><ele>794.0</ele><time>2026-05-01T11:26:06.921Z</time></trkpt><trkpt lat="42.7121916" lon="13.0058424"><ele>786.3333333333334</ele><time>2026-05-01T11:26:07.921Z</time></trkpt><trkpt lat="42.712373" lon="13.0058122"><ele>778.6666666666667</ele><time>2026-05-01T11:26:08.92Z</time></trkpt><trkpt lat="42.7125554" lon="13.0057462"><ele>771.0</ele><time>2026-05-01T11:26:09.921Z</time></trkpt><trkpt lat="42.7127115" lon="13.0056869"><ele>766.25</ele><time>2026-05-01T11:26:10.921Z</time></trkpt><trkpt lat="42.7128345" lon="13.0056262"><ele>761.5</ele><time>2026-05-01T11:26:11.923Z</time></trkpt><trkpt lat="42.7129809" lon="13.0055925"><ele>756.75</ele><time>2026-05-01T11:26:12.922Z</time></trkpt><trkpt lat="42.7131287" lon="13.0056147"><ele>752.0</ele><time>2026-05-01T11:26:13.923Z</time></trkpt><trkpt lat="42.7133014" lon="13.0056777"><ele>752.0</ele><time>2026-05-01T11:26:14.923Z</time></trkpt><trkpt lat="42.7134759" lon="13.0057712"><ele>752.0</ele><time>2026-05-01T11:26:15.923Z</time></trkpt><trkpt lat="42.713657" lon="13.0058872"><ele>752.0</ele><time>2026-05-01T11:26:16.923Z</time></trkpt><trkpt lat="42.7138357" lon="13.0060244"><ele>752.3333333333333</ele><time>2026-05-01T11:26:17.923Z</time></trkpt><trkpt lat="42.7139968" lon="13.0061791"><ele>752.6666666666666</ele><time>2026-05-01T11:26:18.922Z</time></trkpt><trkpt lat="42.7141266" lon="13.006317"><ele>753.0</ele><time>2026-05-01T11:26:19.922Z</time></trkpt><trkpt lat="42.714233" lon="13.0064473"><ele>753.0</ele><time>2026-05-01T11:26:20.922Z</time></trkpt><trkpt lat="42.7142999" lon="13.0065826"><ele>753.0</ele><time>2026-05-01T11:26:21.922Z</time></trkpt><trkpt lat="42.7143331" lon="13.0067337"><ele>753.0</ele><time>2026-05-01T11:26:22.922Z</time></trkpt><trkpt lat="42.7143446" lon="13.0068777"><ele>753.0</ele><time>2026-05-01T11:26:23.923Z</time></trkpt><trkpt lat="42.7143233" lon="13.0069791"><ele>753.0</ele><time>2026-05-01T11:26:24.923Z</time></trkpt><trkpt lat="42.7142589" lon="13.0070777"><ele>756.5999999999999</ele><time>2026-05-01T11:26:25.923Z</time></trkpt><trkpt lat="42.7141701" lon="13.0071498"><ele>760.1999999999999</ele><time>2026-05-01T11:26:26.923Z</time></trkpt><trkpt lat="42.7140836" lon="13.0071914"><ele>763.8</ele><time>2026-05-01T11:26:27.923Z</time></trkpt><trkpt lat="42.7139979" lon="13.0072428"><ele>767.4</ele><time>2026-05-01T11:26:28.922Z</time></trkpt><trkpt lat="42.7139068" lon="13.0073028"><ele>771.0</ele><time>2026-05-01T11:26:29.923Z</time></trkpt><trkpt lat="42.7138166" lon="13.0073978"><ele>768.75</ele><time>2026-05-01T11:26:30.923Z</time></trkpt><trkpt lat="42.7137503" lon="13.007496"><ele>766.5</ele><time>2026-05-01T11:26:31.923Z</time></trkpt><trkpt lat="42.7136938" lon="13.007618"><ele>764.25</ele><time>2026-05-01T11:26:32.923Z</time></trkpt><trkpt lat="42.7136425" lon="13.0077833"><ele>762.0</ele><time>2026-05-01T11:26:33.922Z</time></trkpt><trkpt lat="42.7136047" lon="13.0080158"><ele>766.0</ele><time>2026-05-01T11:26:34.923Z</time></trkpt><trkpt lat="42.7135584" lon="13.0082641"><ele>770.0</ele><time>2026-05-01T11:26:35.923Z</time></trkpt><trkpt lat="42.7134945" lon="13.0085292"><ele>774.0</ele><time>2026-05-01T11:26:36.923Z</time></trkpt><trkpt lat="42.7134254" lon="13.0087903"><ele>774.0</ele><time>2026-05-01T11:26:37.923Z</time></trkpt><trkpt lat="42.7133296" lon="13.0090627"><ele>774.0</ele><time>2026-05-01T11:26:38.923Z</time></trkpt><trkpt lat="42.7132317" lon="13.0093126"><ele>774.0</ele><time>2026-05-01T11:26:39.923Z</time></trkpt><trkpt lat="42.7131265" lon="13.0095435"><ele>770.3333333333334</ele><time>2026-05-01T11:26:40.923Z</time></trkpt><trkpt lat="42.713017" lon="13.0097563"><ele>766.6666666666667</ele><time>2026-05-01T11:26:41.922Z</time></trkpt><trkpt lat="42.7129138" lon="13.0099325"><ele>763.0</ele><time>2026-05-01T11:26:42.923Z</time></trkpt><trkpt lat="42.7128097" lon="13.0100806"><ele>766.4</ele><time>2026-05-01T11:26:43.922Z</time></trkpt><trkpt lat="42.7127221" lon="13.0102241"><ele>769.8</ele><time>2026-05-01T11:26:44.922Z</time></trkpt><trkpt lat="42.7126351" lon="13.0103451"><ele>773.2</ele><time>2026-05-01T11:26:45.923Z</time></trkpt><trkpt lat="42.7125631" lon="13.0104472"><ele>776.6</ele><time>2026-05-01T11:26:46.923Z</time></trkpt><trkpt lat="42.7125215" lon="13.0105338"><ele>780.0</ele><time>2026-05-01T11:26:47.923Z</time></trkpt><trkpt lat="42.7125182" lon="13.0106445"><ele>780.0</ele><time>2026-05-01T11:26:48.922Z</time></trkpt><trkpt lat="42.7125585" lon="13.0107507"><ele>780.0</ele><time>2026-05-01T11:26:49.923Z</time></trkpt><trkpt lat="42.712628" lon="13.0108075"><ele>780.0</ele><time>2026-05-01T11:26:50.923Z</time></trkpt><trkpt lat="42.7127189" lon="13.0108205"><ele>780.0</ele><time>2026-05-01T11:26:51.923Z</time></trkpt><trkpt lat="42.7128217" lon="13.0107551"><ele>780.0</ele><time>2026-05-01T11:26:52.923Z</time></trkpt><trkpt lat="42.7129217" lon="13.0106321"><ele>770.3333333333334</ele><time>2026-05-01T11:26:53.922Z</time></trkpt><trkpt lat="42.7130175" lon="13.0104841"><ele>760.6666666666667</ele><time>2026-05-01T11:26:54.923Z</time></trkpt><trkpt lat="42.7131066" lon="13.0103206"><ele>751.0</ele><time>2026-05-01T11:26:55.923Z</time></trkpt><trkpt lat="42.7132147" lon="13.0101608"><ele>751.0</ele><time>2026-05-01T11:26:56.923Z</time></trkpt><trkpt lat="42.7133099" lon="13.0100041"><ele>751.0</ele><time>2026-05-01T11:26:57.923Z</time></trkpt><trkpt lat="42.7134099" lon="13.0098602"><ele>751.0</ele><time>2026-05-01T11:26:58.922Z</time></trkpt><trkpt lat="42.713509" lon="13.0097037"><ele>751.0</ele><time>2026-05-01T11:26:59.922Z</time></trkpt><trkpt lat="42.7136067" lon="13.0095295"><ele>747.0</ele><time>2026-05-01T11:27:00.923Z</time></trkpt><trkpt lat="42.7136889" lon="13.0093164"><ele>743.0</ele><time>2026-05-01T11:27:01.923Z</time></trkpt><trkpt lat="42.7137501" lon="13.0090959"><ele>739.0</ele><time>2026-05-01T11:27:02.923Z</time></trkpt><trkpt lat="42.7138224" lon="13.0088652"><ele>739.0</ele><time>2026-05-01T11:27:03.923Z</time></trkpt><trkpt lat="42.7138863" lon="13.0086333"><ele>739.0</ele><time>2026-05-01T11:27:04.922Z</time></trkpt><trkpt lat="42.7139436" lon="13.0084228"><ele>739.0</ele><time>2026-05-01T11:27:05.923Z</time></trkpt><trkpt lat="42.7140226" lon="13.0082439"><ele>735.75</ele><time>2026-05-01T11:27:06.923Z</time></trkpt><trkpt lat="42.7141088" lon="13.0080897"><ele>732.5</ele><time>2026-05-01T11:27:07.923Z</time></trkpt><trkpt lat="42.7142146" lon="13.007971"><ele>729.25</ele><time>2026-05-01T11:27:08.922Z</time></trkpt><trkpt lat="42.7143441" lon="13.0078993"><ele>726.0</ele><time>2026-05-01T11:27:09.922Z</time></trkpt><trkpt lat="42.7144968" lon="13.0078377"><ele>726.0</ele><time>2026-05-01T11:27:10.922Z</time></trkpt><trkpt lat="42.7146431" lon="13.0077857"><ele>726.0</ele><time>2026-05-01T11:27:11.923Z</time></trkpt><trkpt lat="42.7147604" lon="13.0077259"><ele>726.0</ele><time>2026-05-01T11:27:12.923Z</time></trkpt><trkpt lat="42.7148487" lon="13.0076347"><ele>726.0</ele><time>2026-05-01T11:27:13.923Z</time></trkpt><trkpt lat="42.7148967" lon="13.0074978"><ele>726.6666666666666</ele><time>2026-05-01T11:27:14.922Z</time></trkpt><trkpt lat="42.7149234" lon="13.0073114"><ele>727.3333333333333</ele><time>2026-05-01T11:27:15.923Z</time></trkpt><trkpt lat="42.7149363" lon="13.0070773"><ele>728.0</ele><time>2026-05-01T11:27:16.922Z</time></trkpt><trkpt lat="42.7149407" lon="13.0068209"><ele>725.3333333333333</ele><time>2026-05-01T11:27:17.922Z</time></trkpt><trkpt lat="42.7149425" lon="13.006597"><ele>722.6666666666666</ele><time>2026-05-01T11:27:18.923Z</time></trkpt><trkpt lat="42.7149214" lon="13.0063843"><ele>720.0</ele><time>2026-05-01T11:27:19.922Z</time></trkpt><trkpt lat="42.7148656" lon="13.006152"><ele>720.0</ele><time>2026-05-01T11:27:20.923Z</time></trkpt><trkpt lat="42.7147829" lon="13.0059369"><ele>720.0</ele><time>2026-05-01T11:27:21.923Z</time></trkpt><trkpt lat="42.7146975" lon="13.0057475"><ele>720.0</ele><time>2026-05-01T11:27:22.923Z</time></trkpt><trkpt lat="42.7146189" lon="13.0056031"><ele>721.4</ele><time>2026-05-01T11:27:23.923Z</time></trkpt><trkpt lat="42.714562" lon="13.0055055"><ele>722.8</ele><time>2026-05-01T11:27:24.922Z</time></trkpt><trkpt lat="42.7145016" lon="13.0054491"><ele>724.2</ele><time>2026-05-01T11:27:25.923Z</time></trkpt><trkpt lat="42.7144089" lon="13.0053609"><ele>725.6</ele><time>2026-05-01T11:27:27.923Z</time></trkpt><trkpt lat="42.7143028" lon="13.005235"><ele>727.0</ele><time>2026-05-01T11:27:59.923Z</time></trkpt><trkpt lat="42.7142519" lon="13.0051586"><ele>727.0</ele><time>2026-05-01T11:28:00.923Z</time></trkpt><trkpt lat="42.714204" lon="13.0050615"><ele>727.0</ele><time>2026-05-01T11:28:01.923Z</time></trkpt><trkpt lat="42.7141834" lon="13.0049524"><ele>727.0</ele><time>2026-05-01T11:28:02.923Z</time></trkpt><trkpt lat="42.7141816" lon="13.0048445"><ele>727.0</ele><time>2026-05-01T11:28:03.923Z</time></trkpt><trkpt lat="42.7142165" lon="13.0047385"><ele>727.0</ele><time>2026-05-01T11:28:04.923Z</time></trkpt><trkpt lat="42.7142796" lon="13.004664"><ele>727.0</ele><time>2026-05-01T11:28:05.923Z</time></trkpt><trkpt lat="42.7143516" lon="13.0046239"><ele>733.1666666666667</ele><time>2026-05-01T11:28:06.923Z</time></trkpt><trkpt lat="42.7144219" lon="13.0046205"><ele>739.3333333333334</ele><time>2026-05-01T11:28:07.923Z</time></trkpt><trkpt lat="42.7145094" lon="13.0046448"><ele>745.5</ele><time>2026-05-01T11:28:08.923Z</time></trkpt><trkpt lat="42.7145893" lon="13.0046938"><ele>751.6666666666666</ele><time>2026-05-01T11:28:09.923Z</time></trkpt><trkpt lat="42.7146742" lon="13.00475"><ele>757.8333333333333</ele><time>2026-05-01T11:28:10.922Z</time></trkpt><trkpt lat="42.714758" lon="13.004815"><ele>764.0</ele><time>2026-05-01T11:28:11.923Z</time></trkpt><trkpt lat="42.7148436" lon="13.0048844"><ele>764.0</ele><time>2026-05-01T11:28:12.923Z</time></trkpt><trkpt lat="42.714936" lon="13.0049667"><ele>764.0</ele><time>2026-05-01T11:28:13.923Z</time></trkpt><trkpt lat="42.7150335" lon="13.0050601"><ele>764.0</ele><time>2026-05-01T11:28:14.923Z</time></trkpt><trkpt lat="42.715131" lon="13.005167"><ele>764.0</ele><time>2026-05-01T11:28:15.923Z</time></trkpt><trkpt lat="42.7152271" lon="13.0053004"><ele>765.25</ele><time>2026-05-01T11:28:16.923Z</time></trkpt><trkpt lat="42.7153051" lon="13.0054529"><ele>766.5</ele><time>2026-05-01T11:28:17.923Z</time></trkpt><trkpt lat="42.7153798" lon="13.0056211"><ele>767.75</ele><time>2026-05-01T11:28:18.923Z</time></trkpt><trkpt lat="42.7154698" lon="13.0057865"><ele>769.0</ele><time>2026-05-01T11:28:19.922Z</time></trkpt><trkpt lat="42.7155659" lon="13.0059403"><ele>761.0</ele><time>2026-05-01T11:28:20.923Z</time></trkpt><trkpt lat="42.7156565" lon="13.0061023"><ele>753.0</ele><time>2026-05-01T11:28:21.922Z</time></trkpt><trkpt lat="42.7157345" lon="13.0062754"><ele>745.0</ele><time>2026-05-01T11:28:22.923Z</time></trkpt><trkpt lat="42.7157912" lon="13.0064558"><ele>737.0</ele><time>2026-05-01T11:28:23.923Z</time></trkpt><trkpt lat="42.7158212" lon="13.0066461"><ele>732.25</ele><time>2026-05-01T11:28:24.923Z</time></trkpt><trkpt lat="42.7158279" lon="13.0068487"><ele>727.5</ele><time>2026-05-01T11:28:25.923Z</time></trkpt><trkpt lat="42.7158283" lon="13.0070442"><ele>722.75</ele><time>2026-05-01T11:28:26.922Z</time></trkpt><trkpt lat="42.7158483" lon="13.0072178"><ele>718.0</ele><time>2026-05-01T11:28:27.923Z</time></trkpt><trkpt lat="42.715898" lon="13.0073878"><ele>713.75</ele><time>2026-05-01T11:28:28.922Z</time></trkpt><trkpt lat="42.7159772" lon="13.0075314"><ele>709.5</ele><time>2026-05-01T11:28:29.923Z</time></trkpt><trkpt lat="42.7160725" lon="13.0076748"><ele>705.25</ele><time>2026-05-01T11:28:30.923Z</time></trkpt><trkpt lat="42.7161733" lon="13.0078143"><ele>701.0</ele><time>2026-05-01T11:28:31.923Z</time></trkpt><trkpt lat="42.7162876" lon="13.0079334"><ele>703.75</ele><time>2026-05-01T11:28:32.923Z</time></trkpt><trkpt lat="42.7163999" lon="13.0080446"><ele>706.5</ele><time>2026-05-01T11:28:33.923Z</time></trkpt><trkpt lat="42.7164945" lon="13.0081417"><ele>709.25</ele><time>2026-05-01T11:28:34.923Z</time></trkpt><trkpt lat="42.7165617" lon="13.0082554"><ele>712.0</ele><time>2026-05-01T11:28:35.923Z</time></trkpt><trkpt lat="42.7166019" lon="13.008393"><ele>712.0</ele><time>2026-05-01T11:28:36.923Z</time></trkpt><trkpt lat="42.7166316" lon="13.0085299"><ele>712.0</ele><time>2026-05-01T11:28:37.923Z</time></trkpt><trkpt lat="42.7166519" lon="13.0086628"><ele>712.0</ele><time>2026-05-01T11:28:38.923Z</time></trkpt><trkpt lat="42.7166591" lon="13.0088182"><ele>712.0</ele><time>2026-05-01T11:28:39.922Z</time></trkpt><trkpt lat="42.7166557" lon="13.0089729"><ele>712.0</ele><time>2026-05-01T11:28:40.923Z</time></trkpt><trkpt lat="42.7166544" lon="13.0091326"><ele>709.0</ele><time>2026-05-01T11:28:41.923Z</time></trkpt><trkpt lat="42.7166567" lon="13.0092922"><ele>706.0</ele><time>2026-05-01T11:28:42.923Z</time></trkpt><trkpt lat="42.7166593" lon="13.0094605"><ele>703.0</ele><time>2026-05-01T11:28:43.922Z</time></trkpt><trkpt lat="42.7166612" lon="13.0096344"><ele>700.0</ele><time>2026-05-01T11:28:44.923Z</time></trkpt><trkpt lat="42.7166576" lon="13.0098174"><ele>699.5</ele><time>2026-05-01T11:28:45.923Z</time></trkpt><trkpt lat="42.7166388" lon="13.0100041"><ele>699.0</ele><time>2026-05-01T11:28:46.922Z</time></trkpt><trkpt lat="42.7166063" lon="13.0101868"><ele>698.5</ele><time>2026-05-01T11:28:47.922Z</time></trkpt><trkpt lat="42.7165742" lon="13.0103489"><ele>698.0</ele><time>2026-05-01T11:28:48.922Z</time></trkpt><trkpt lat="42.7165612" lon="13.0105053"><ele>698.0</ele><time>2026-05-01T11:28:49.923Z</time></trkpt><trkpt lat="42.7165731" lon="13.0106631"><ele>698.0</ele><time>2026-05-01T11:28:50.922Z</time></trkpt><trkpt lat="42.7165968" lon="13.0108204"><ele>698.0</ele><time>2026-05-01T11:28:51.923Z</time></trkpt><trkpt lat="42.7166228" lon="13.0109664"><ele>698.0</ele><time>2026-05-01T11:28:52.922Z</time></trkpt><trkpt lat="42.7166532" lon="13.0111144"><ele>696.5999999999999</ele><time>2026-05-01T11:28:53.923Z</time></trkpt><trkpt lat="42.7166829" lon="13.0112588"><ele>695.1999999999999</ele><time>2026-05-01T11:28:54.923Z</time></trkpt><trkpt lat="42.7167127" lon="13.011386"><ele>693.8</ele><time>2026-05-01T11:28:55.923Z</time></trkpt><trkpt lat="42.7167466" lon="13.0115089"><ele>692.4</ele><time>2026-05-01T11:28:56.922Z</time></trkpt><trkpt lat="42.7167907" lon="13.0116168"><ele>691.0</ele><time>2026-05-01T11:28:57.922Z</time></trkpt><trkpt lat="42.7168268" lon="13.0116989"><ele>691.0</ele><time>2026-05-01T11:28:58.922Z</time></trkpt><trkpt lat="42.7168637" lon="13.0117686"><ele>691.0</ele><time>2026-05-01T11:28:59.923Z</time></trkpt><trkpt lat="42.7169017" lon="13.011894"><ele>691.0</ele><time>2026-05-01T11:29:01.923Z</time></trkpt><trkpt lat="42.7168238" lon="13.0119233"><ele>691.0</ele><time>2026-05-01T11:29:04.923Z</time></trkpt><trkpt lat="42.7167875" lon="13.0118014"><ele>691.0</ele><time>2026-05-01T11:29:06.922Z</time></trkpt><trkpt lat="42.716766" lon="13.0117106"><ele>691.0</ele><time>2026-05-01T11:29:07.923Z</time></trkpt><trkpt lat="42.7167354" lon="13.0116114"><ele>691.0</ele><time>2026-05-01T11:29:08.923Z</time></trkpt><trkpt lat="42.7167045" lon="13.0115006"><ele>691.0</ele><time>2026-05-01T11:29:09.923Z</time></trkpt><trkpt lat="42.7166677" lon="13.0113872"><ele>691.0</ele><time>2026-05-01T11:29:10.922Z</time></trkpt><trkpt lat="42.7166254" lon="13.0112671"><ele>691.0</ele><time>2026-05-01T11:29:11.923Z</time></trkpt><trkpt lat="42.7165899" lon="13.0111286"><ele>691.0</ele><time>2026-05-01T11:29:12.923Z</time></trkpt><trkpt lat="42.7165563" lon="13.0110033"><ele>691.0</ele><time>2026-05-01T11:29:13.923Z</time></trkpt><trkpt lat="42.7165238" lon="13.0108769"><ele>691.0</ele><time>2026-05-01T11:29:14.923Z</time></trkpt><trkpt lat="42.7164918" lon="13.0107509"><ele>691.0</ele><time>2026-05-01T11:29:15.922Z</time></trkpt><trkpt lat="42.7164561" lon="13.010629"><ele>691.0</ele><time>2026-05-01T11:29:16.923Z</time></trkpt><trkpt lat="42.7164257" lon="13.0105059"><ele>691.0</ele><time>2026-05-01T11:29:17.923Z</time></trkpt><trkpt lat="42.7163984" lon="13.0103815"><ele>692.4</ele><time>2026-05-01T11:29:18.923Z</time></trkpt><trkpt lat="42.7163743" lon="13.010267"><ele>693.8</ele><time>2026-05-01T11:29:19.923Z</time></trkpt><trkpt lat="42.7163353" lon="13.0101686"><ele>695.1999999999999</ele><time>2026-05-01T11:29:20.923Z</time></trkpt><trkpt lat="42.7162733" lon="13.010056"><ele>696.5999999999999</ele><time>2026-05-01T11:29:22.922Z</time></trkpt><trkpt lat="42.7161819" lon="13.010001"><ele>698.0</ele><time>2026-05-01T11:29:24.923Z</time></trkpt><trkpt lat="42.7160974" lon="13.0099835"><ele>695.8333333333333</ele><time>2026-05-01T11:29:26.923Z</time></trkpt><trkpt lat="42.7160084" lon="13.0099998"><ele>693.6666666666666</ele><time>2026-05-01T11:29:28.923Z</time></trkpt><trkpt lat="42.7159462" lon="13.0100261"><ele>691.5</ele><time>2026-05-01T11:29:29.923Z</time></trkpt><trkpt lat="42.7158803" lon="13.0100858"><ele>689.3333333333334</ele><time>2026-05-01T11:29:30.922Z</time></trkpt><trkpt lat="42.715826" lon="13.0101733"><ele>687.1666666666667</ele><time>2026-05-01T11:29:31.922Z</time></trkpt><trkpt lat="42.7157817" lon="13.010274"><ele>685.0</ele><time>2026-05-01T11:29:32.923Z</time></trkpt><trkpt lat="42.7157467" lon="13.0103857"><ele>685.0</ele><time>2026-05-01T11:29:33.923Z</time></trkpt><trkpt lat="42.7157105" lon="13.0105108"><ele>685.0</ele><time>2026-05-01T11:29:34.922Z</time></trkpt><trkpt lat="42.7156773" lon="13.010653"><ele>685.0</ele><time>2026-05-01T11:29:35.923Z</time></trkpt><trkpt lat="42.715639" lon="13.010806"><ele>685.0</ele><time>2026-05-01T11:29:36.923Z</time></trkpt><trkpt lat="42.7156027" lon="13.0109706"><ele>681.75</ele><time>2026-05-01T11:29:37.923Z</time></trkpt><trkpt lat="42.7155595" lon="13.0111224"><ele>678.5</ele><time>2026-05-01T11:29:38.923Z</time></trkpt><trkpt lat="42.7155162" lon="13.0112777"><ele>675.25</ele><time>2026-05-01T11:29:39.923Z</time></trkpt><trkpt lat="42.7154729" lon="13.0114285"><ele>672.0</ele><time>2026-05-01T11:29:40.923Z</time></trkpt><trkpt lat="42.7154248" lon="13.0115815"><ele>669.4000000000001</ele><time>2026-05-01T11:29:41.923Z</time></trkpt><trkpt lat="42.7153754" lon="13.011726"><ele>666.8000000000001</ele><time>2026-05-01T11:29:42.923Z</time></trkpt><trkpt lat="42.7153308" lon="13.011864"><ele>664.2</ele><time>2026-05-01T11:29:43.923Z</time></trkpt><trkpt lat="42.7153256" lon="13.0120103"><ele>661.6</ele><time>2026-05-01T11:29:44.923Z</time></trkpt><trkpt lat="42.7153312" lon="13.0121544"><ele>659.0</ele><time>2026-05-01T11:29:45.923Z</time></trkpt><trkpt lat="42.7153725" lon="13.0122929"><ele>659.0</ele><time>2026-05-01T11:29:46.922Z</time></trkpt><trkpt lat="42.7154405" lon="13.0124184"><ele>659.0</ele><time>2026-05-01T11:29:47.923Z</time></trkpt><trkpt lat="42.7155355" lon="13.0125007"><ele>659.0</ele><time>2026-05-01T11:29:48.923Z</time></trkpt><trkpt lat="42.7156516" lon="13.0125499"><ele>659.0</ele><time>2026-05-01T11:29:49.922Z</time></trkpt><trkpt lat="42.7157836" lon="13.0125638"><ele>659.25</ele><time>2026-05-01T11:29:50.923Z</time></trkpt><trkpt lat="42.7159105" lon="13.0125525"><ele>659.5</ele><time>2026-05-01T11:29:51.923Z</time></trkpt><trkpt lat="42.7160305" lon="13.0125365"><ele>659.75</ele><time>2026-05-01T11:29:52.923Z</time></trkpt><trkpt lat="42.7161462" lon="13.0125114"><ele>660.0</ele><time>2026-05-01T11:29:53.923Z</time></trkpt><trkpt lat="42.7162625" lon="13.0124992"><ele>660.0</ele><time>2026-05-01T11:29:54.922Z</time></trkpt><trkpt lat="42.7163687" lon="13.0125035"><ele>660.0</ele><time>2026-05-01T11:29:55.922Z</time></trkpt><trkpt lat="42.7164672" lon="13.0125307"><ele>660.0</ele><time>2026-05-01T11:29:56.923Z</time></trkpt><trkpt lat="42.7165633" lon="13.0125834"><ele>660.0</ele><time>2026-05-01T11:29:57.922Z</time></trkpt><trkpt lat="42.7166467" lon="13.0126618"><ele>660.0</ele><time>2026-05-01T11:29:58.922Z</time></trkpt><trkpt lat="42.716713" lon="13.0127592"><ele>660.0</ele><time>2026-05-01T11:29:59.923Z</time></trkpt><trkpt lat="42.7167596" lon="13.0128617"><ele>660.0</ele><time>2026-05-01T11:30:00.923Z</time></trkpt><trkpt lat="42.7167855" lon="13.0129815"><ele>660.0</ele><time>2026-05-01T11:30:01.923Z</time></trkpt><trkpt lat="42.7168069" lon="13.0131235"><ele>660.0</ele><time>2026-05-01T11:30:02.922Z</time></trkpt><trkpt lat="42.7168142" lon="13.0132633"><ele>660.0</ele><time>2026-05-01T11:30:03.923Z</time></trkpt><trkpt lat="42.7168132" lon="13.013399"><ele>657.5</ele><time>2026-05-01T11:30:04.922Z</time></trkpt><trkpt lat="42.7168029" lon="13.0135272"><ele>655.0</ele><time>2026-05-01T11:30:05.923Z</time></trkpt><trkpt lat="42.7167826" lon="13.0136519"><ele>652.5</ele><time>2026-05-01T11:30:06.923Z</time></trkpt><trkpt lat="42.7167476" lon="13.0137621"><ele>650.0</ele><time>2026-05-01T11:30:07.923Z</time></trkpt><trkpt lat="42.7167185" lon="13.0138709"><ele>647.5</ele><time>2026-05-01T11:30:08.923Z</time></trkpt><trkpt lat="42.7166771" lon="13.0139605"><ele>645.0</ele><time>2026-05-01T11:30:09.923Z</time></trkpt><trkpt lat="42.7166132" lon="13.0140397"><ele>645.0</ele><time>2026-05-01T11:30:10.922Z</time></trkpt><trkpt lat="42.7165482" lon="13.0141178"><ele>645.0</ele><time>2026-05-01T11:30:11.923Z</time></trkpt><trkpt lat="42.7164783" lon="13.0141936"><ele>645.0</ele><time>2026-05-01T11:30:12.923Z</time></trkpt><trkpt lat="42.7164136" lon="13.0142713"><ele>645.0</ele><time>2026-05-01T11:30:13.922Z</time></trkpt><trkpt lat="42.7163561" lon="13.0143292"><ele>645.0</ele><time>2026-05-01T11:30:14.923Z</time></trkpt><trkpt lat="42.7162958" lon="13.0143909"><ele>645.0</ele><time>2026-05-01T11:30:15.923Z</time></trkpt><trkpt lat="42.7162394" lon="13.0144482"><ele>644.5714285714286</ele><time>2026-05-01T11:30:16.922Z</time></trkpt><trkpt lat="42.7161783" lon="13.0145029"><ele>644.1428571428571</ele><time>2026-05-01T11:30:17.923Z</time></trkpt><trkpt lat="42.7161255" lon="13.0145712"><ele>643.7142857142857</ele><time>2026-05-01T11:30:18.923Z</time></trkpt><trkpt lat="42.7160782" lon="13.0146357"><ele>643.2857142857142</ele><time>2026-05-01T11:30:19.923Z</time></trkpt><trkpt lat="42.7160564" lon="13.014734"><ele>642.8571428571429</ele><time>2026-05-01T11:30:20.923Z</time></trkpt><trkpt lat="42.7160353" lon="13.0148324"><ele>642.4285714285713</ele><time>2026-05-01T11:30:21.922Z</time></trkpt><trkpt lat="42.7160256" lon="13.0149411"><ele>642.0</ele><time>2026-05-01T11:30:22.923Z</time></trkpt><trkpt lat="42.7160282" lon="13.0150554"><ele>642.0</ele><time>2026-05-01T11:30:23.923Z</time></trkpt><trkpt lat="42.7160388" lon="13.015154"><ele>642.0</ele><time>2026-05-01T11:30:24.922Z</time></trkpt><trkpt lat="42.7160598" lon="13.0152584"><ele>642.0</ele><time>2026-05-01T11:30:25.923Z</time></trkpt><trkpt lat="42.7160852" lon="13.0153592"><ele>642.0</ele><time>2026-05-01T11:30:26.923Z</time></trkpt><trkpt lat="42.7161236" lon="13.0154578"><ele>642.0</ele><time>2026-05-01T11:30:27.922Z</time></trkpt><trkpt lat="42.7161605" lon="13.0155653"><ele>642.0</ele><time>2026-05-01T11:30:28.923Z</time></trkpt><trkpt lat="42.7161958" lon="13.0156878"><ele>640.4</ele><time>2026-05-01T11:30:29.923Z</time></trkpt><trkpt lat="42.7162325" lon="13.0158182"><ele>638.8000000000001</ele><time>2026-05-01T11:30:30.922Z</time></trkpt><trkpt lat="42.7162718" lon="13.0159522"><ele>637.2</ele><time>2026-05-01T11:30:31.923Z</time></trkpt><trkpt lat="42.7163097" lon="13.0160903"><ele>635.6</ele><time>2026-05-01T11:30:32.923Z</time></trkpt><trkpt lat="42.7163576" lon="13.0162249"><ele>634.0</ele><time>2026-05-01T11:30:33.923Z</time></trkpt><trkpt lat="42.7164122" lon="13.0163485"><ele>633.2</ele><time>2026-05-01T11:30:34.923Z</time></trkpt><trkpt lat="42.7164739" lon="13.0164625"><ele>632.4</ele><time>2026-05-01T11:30:35.923Z</time></trkpt><trkpt lat="42.7165391" lon="13.0165729"><ele>631.6</ele><time>2026-05-01T11:30:36.923Z</time></trkpt><trkpt lat="42.7165993" lon="13.0166827"><ele>630.8</ele><time>2026-05-01T11:30:37.923Z</time></trkpt><trkpt lat="42.716655" lon="13.0167925"><ele>630.0</ele><time>2026-05-01T11:30:38.923Z</time></trkpt><trkpt lat="42.7167162" lon="13.0168955"><ele>629.8333333333334</ele><time>2026-05-01T11:30:39.923Z</time></trkpt><trkpt lat="42.716777" lon="13.0169861"><ele>629.6666666666666</ele><time>2026-05-01T11:30:40.923Z</time></trkpt><trkpt lat="42.7168534" lon="13.0170675"><ele>629.5</ele><time>2026-05-01T11:30:41.923Z</time></trkpt><trkpt lat="42.7169282" lon="13.0171298"><ele>629.3333333333333</ele><time>2026-05-01T11:30:42.923Z</time></trkpt><trkpt lat="42.7169991" lon="13.0171917"><ele>629.1666666666666</ele><time>2026-05-01T11:30:43.923Z</time></trkpt><trkpt lat="42.7170682" lon="13.0172498"><ele>629.0</ele><time>2026-05-01T11:30:44.923Z</time></trkpt><trkpt lat="42.7171546" lon="13.0173011"><ele>627.75</ele><time>2026-05-01T11:30:45.923Z</time></trkpt><trkpt lat="42.717256" lon="13.0173621"><ele>626.5</ele><time>2026-05-01T11:30:46.923Z</time></trkpt><trkpt lat="42.717367" lon="13.0174224"><ele>625.25</ele><time>2026-05-01T11:30:47.923Z</time></trkpt><trkpt lat="42.7174922" lon="13.0174853"><ele>624.0</ele><time>2026-05-01T11:30:48.923Z</time></trkpt><trkpt lat="42.7176207" lon="13.0175519"><ele>621.75</ele><time>2026-05-01T11:30:49.922Z</time></trkpt><trkpt lat="42.7177617" lon="13.0176125"><ele>619.5</ele><time>2026-05-01T11:30:50.922Z</time></trkpt><trkpt lat="42.7178906" lon="13.0176831"><ele>617.25</ele><time>2026-05-01T11:30:51.923Z</time></trkpt><trkpt lat="42.7180068" lon="13.0177574"><ele>615.0</ele><time>2026-05-01T11:30:52.923Z</time></trkpt><trkpt lat="42.7181259" lon="13.0178324"><ele>615.0</ele><time>2026-05-01T11:30:53.923Z</time></trkpt><trkpt lat="42.7182501" lon="13.0179017"><ele>615.0</ele><time>2026-05-01T11:30:54.923Z</time></trkpt><trkpt lat="42.7183656" lon="13.0179947"><ele>615.0</ele><time>2026-05-01T11:30:55.923Z</time></trkpt><trkpt lat="42.7184817" lon="13.0180899"><ele>615.0</ele><time>2026-05-01T11:30:56.923Z</time></trkpt><trkpt lat="42.7185914" lon="13.0181892"><ele>614.25</ele><time>2026-05-01T11:30:57.923Z</time></trkpt><trkpt lat="42.7186962" lon="13.0182871"><ele>613.5</ele><time>2026-05-01T11:30:58.923Z</time></trkpt><trkpt lat="42.7188006" lon="13.0183912"><ele>612.75</ele><time>2026-05-01T11:30:59.922Z</time></trkpt><trkpt lat="42.7189041" lon="13.0184921"><ele>612.0</ele><time>2026-05-01T11:31:00.923Z</time></trkpt><trkpt lat="42.7189966" lon="13.0185901"><ele>612.0</ele><time>2026-05-01T11:31:01.923Z</time></trkpt><trkpt lat="42.7190902" lon="13.0186831"><ele>612.0</ele><time>2026-05-01T11:31:02.923Z</time></trkpt><trkpt lat="42.7191721" lon="13.0187816"><ele>612.0</ele><time>2026-05-01T11:31:03.923Z</time></trkpt><trkpt lat="42.7192463" lon="13.0188859"><ele>612.0</ele><time>2026-05-01T11:31:04.923Z</time></trkpt><trkpt lat="42.7193051" lon="13.019015"><ele>612.0</ele><time>2026-05-01T11:31:05.922Z</time></trkpt><trkpt lat="42.719344" lon="13.0191626"><ele>612.25</ele><time>2026-05-01T11:31:06.922Z</time></trkpt><trkpt lat="42.7193656" lon="13.0193209"><ele>612.5</ele><time>2026-05-01T11:31:07.923Z</time></trkpt><trkpt lat="42.7193813" lon="13.0194859"><ele>612.75</ele><time>2026-05-01T11:31:08.923Z</time></trkpt><trkpt lat="42.7193888" lon="13.0196606"><ele>613.0</ele><time>2026-05-01T11:31:09.922Z</time></trkpt><trkpt lat="42.7193964" lon="13.0198317"><ele>611.0</ele><time>2026-05-01T11:31:10.923Z</time></trkpt><trkpt lat="42.719402" lon="13.0200103"><ele>609.0</ele><time>2026-05-01T11:31:11.923Z</time></trkpt><trkpt lat="42.7194168" lon="13.0201766"><ele>607.0</ele><time>2026-05-01T11:31:12.923Z</time></trkpt><trkpt lat="42.7194488" lon="13.0203432"><ele>605.0</ele><time>2026-05-01T11:31:13.923Z</time></trkpt><trkpt lat="42.7194883" lon="13.020505"><ele>605.0</ele><time>2026-05-01T11:31:14.923Z</time></trkpt><trkpt lat="42.7195492" lon="13.0206423"><ele>605.0</ele><time>2026-05-01T11:31:15.923Z</time></trkpt><trkpt lat="42.7196461" lon="13.0207495"><ele>605.0</ele><time>2026-05-01T11:31:16.923Z</time></trkpt><trkpt lat="42.7197535" lon="13.0208371"><ele>605.0</ele><time>2026-05-01T11:31:17.922Z</time></trkpt><trkpt lat="42.719863" lon="13.0208853"><ele>605.25</ele><time>2026-05-01T11:31:18.923Z</time></trkpt><trkpt lat="42.7199815" lon="13.0208915"><ele>605.5</ele><time>2026-05-01T11:31:19.923Z</time></trkpt><trkpt lat="42.7200977" lon="13.0208846"><ele>605.75</ele><time>2026-05-01T11:31:20.923Z</time></trkpt><trkpt lat="42.7202261" lon="13.0208809"><ele>606.0</ele><time>2026-05-01T11:31:21.922Z</time></trkpt><trkpt lat="42.7203445" lon="13.0208827"><ele>606.5</ele><time>2026-05-01T11:31:22.923Z</time></trkpt><trkpt lat="42.7204648" lon="13.0208749"><ele>607.0</ele><time>2026-05-01T11:31:23.923Z</time></trkpt><trkpt lat="42.7205795" lon="13.0208723"><ele>607.5</ele><time>2026-05-01T11:31:24.923Z</time></trkpt><trkpt lat="42.7206915" lon="13.0208701"><ele>608.0</ele><time>2026-05-01T11:31:25.923Z</time></trkpt><trkpt lat="42.720805" lon="13.0208731"><ele>608.0</ele><time>2026-05-01T11:31:26.923Z</time></trkpt><trkpt lat="42.720925" lon="13.0208754"><ele>608.0</ele><time>2026-05-01T11:31:27.922Z</time></trkpt><trkpt lat="42.7210487" lon="13.0208823"><ele>608.0</ele><time>2026-05-01T11:31:28.923Z</time></trkpt><trkpt lat="42.7211741" lon="13.0208991"><ele>608.0</ele><time>2026-05-01T11:31:29.923Z</time></trkpt><trkpt lat="42.7212925" lon="13.0209263"><ele>607.0</ele><time>2026-05-01T11:31:30.923Z</time></trkpt><trkpt lat="42.721395" lon="13.0209697"><ele>606.0</ele><time>2026-05-01T11:31:31.923Z</time></trkpt><trkpt lat="42.7214836" lon="13.0210163"><ele>605.0</ele><time>2026-05-01T11:31:32.922Z</time></trkpt><trkpt lat="42.721551" lon="13.0210687"><ele>604.0</ele><time>2026-05-01T11:31:33.923Z</time></trkpt><trkpt lat="42.7216101" lon="13.0211195"><ele>603.0</ele><time>2026-05-01T11:31:34.923Z</time></trkpt><trkpt lat="42.7216925" lon="13.0211877"><ele>602.0</ele><time>2026-05-01T11:31:36.923Z</time></trkpt><trkpt lat="42.7217764" lon="13.0211998"><ele>602.0</ele><time>2026-05-01T11:31:38.923Z</time></trkpt><trkpt lat="42.7218382" lon="13.0211135"><ele>602.0</ele><time>2026-05-01T11:31:40.923Z</time></trkpt><trkpt lat="42.7218365" lon="13.020968"><ele>602.0</ele><time>2026-05-01T11:31:42.922Z</time></trkpt><trkpt lat="42.7217636" lon="13.0208527"><ele>602.0</ele><time>2026-05-01T11:31:44.922Z</time></trkpt><trkpt lat="42.7217185" lon="13.0207877"><ele>602.0</ele><time>2026-05-01T11:31:45.922Z</time></trkpt><trkpt lat="42.7216791" lon="13.0207076"><ele>602.0</ele><time>2026-05-01T11:31:46.923Z</time></trkpt><trkpt lat="42.7216468" lon="13.0206135"><ele>601.8000000000001</ele><time>2026-05-01T11:31:47.923Z</time></trkpt><trkpt lat="42.7216139" lon="13.0205109"><ele>601.6</ele><time>2026-05-01T11:31:48.922Z</time></trkpt><trkpt lat="42.7215858" lon="13.0204032"><ele>601.4000000000001</ele><time>2026-05-01T11:31:49.922Z</time></trkpt><trkpt lat="42.7215551" lon="13.0202854"><ele>601.2</ele><time>2026-05-01T11:31:50.922Z</time></trkpt><trkpt lat="42.7215176" lon="13.0201588"><ele>601.0</ele><time>2026-05-01T11:31:51.922Z</time></trkpt><trkpt lat="42.7214803" lon="13.0200236"><ele>601.6</ele><time>2026-05-01T11:31:52.923Z</time></trkpt><trkpt lat="42.7214455" lon="13.0198865"><ele>602.2</ele><time>2026-05-01T11:31:53.923Z</time></trkpt><trkpt lat="42.7214141" lon="13.0197457"><ele>602.8</ele><time>2026-05-01T11:31:54.922Z</time></trkpt><trkpt lat="42.721384" lon="13.019598"><ele>603.4</ele><time>2026-05-01T11:31:55.922Z</time></trkpt><trkpt lat="42.721362" lon="13.0194476"><ele>604.0</ele><time>2026-05-01T11:31:56.922Z</time></trkpt><trkpt lat="42.7213477" lon="13.0193056"><ele>604.0</ele><time>2026-05-01T11:31:57.923Z</time></trkpt><trkpt lat="42.7213435" lon="13.0191835"><ele>604.0</ele><time>2026-05-01T11:31:58.923Z</time></trkpt><trkpt lat="42.7213518" lon="13.0190894"><ele>604.0</ele><time>2026-05-01T11:31:59.923Z</time></trkpt><trkpt lat="42.721374" lon="13.0190085"><ele>604.0</ele><time>2026-05-01T11:32:00.922Z</time></trkpt><trkpt lat="42.7214401" lon="13.0188904"><ele>604.0</ele><time>2026-05-01T11:32:02.923Z</time></trkpt><trkpt lat="42.7215107" lon="13.0187996"><ele>604.0</ele><time>2026-05-01T11:32:04.923Z</time></trkpt><trkpt lat="42.7215502" lon="13.0187268"><ele>605.0000000000001</ele><time>2026-05-01T11:32:06.923Z</time></trkpt><trkpt lat="42.721572" lon="13.0186423"><ele>606.0</ele><time>2026-05-01T11:32:09.923Z</time></trkpt><trkpt lat="42.721598" lon="13.0185537"><ele>607.0</ele><time>2026-05-01T11:35:00.921Z</time></trkpt><trkpt lat="42.7216673" lon="13.0185526"><ele>608.0</ele><time>2026-05-01T11:35:04.921Z</time></trkpt><trkpt lat="42.7216107" lon="13.0185112"><ele>609.0</ele><time>2026-05-01T11:35:11.922Z</time></trkpt><trkpt lat="42.7215424" lon="13.0185065"><ele>610.0000000000001</ele><time>2026-05-01T11:35:38.922Z</time></trkpt><trkpt lat="42.7214624" lon="13.0184944"><ele>611.0</ele><time>2026-05-01T11:35:49.922Z</time></trkpt><trkpt lat="42.721424" lon="13.0185625"><ele>611.0000000000001</ele><time>2026-05-01T11:35:57.922Z</time></trkpt><trkpt lat="42.7214973" lon="13.0185592"><ele>611.0</ele><time>2026-05-01T11:36:40.922Z</time></trkpt><trkpt lat="42.7215187" lon="13.018461"><ele>611.0</ele><time>2026-05-01T11:37:35.922Z</time></trkpt><trkpt lat="42.7215198" lon="13.0183703"><ele>611.0</ele><time>2026-05-01T11:37:39.922Z</time></trkpt><trkpt lat="42.7215504" lon="13.0182847"><ele>611.0</ele><time>2026-05-01T11:37:49.922Z</time></trkpt><trkpt lat="42.7215268" lon="13.0183772"><ele>611.0000000000001</ele><time>2026-05-01T11:39:18.922Z</time></trkpt><trkpt lat="42.721548" lon="13.0184663"><ele>611.0</ele><time>2026-05-01T11:39:32.921Z</time></trkpt><trkpt lat="42.7214899" lon="13.01842"><ele>611.0</ele><time>2026-05-01T11:39:39.922Z</time></trkpt><trkpt lat="42.7214048" lon="13.0184687"><ele>611.0</ele><time>2026-05-01T11:39:46.922Z</time></trkpt><trkpt lat="42.7214113" lon="13.0185657"><ele>611.0</ele><time>2026-05-01T11:39:59.922Z</time></trkpt><trkpt lat="42.7213468" lon="13.0185957"><ele>611.0</ele><time>2026-05-01T11:40:03.922Z</time></trkpt><trkpt lat="42.7214213" lon="13.0186085"><ele>611.0</ele><time>2026-05-01T11:46:01.923Z</time></trkpt><trkpt lat="42.7214863" lon="13.0185529"><ele>611.0</ele><time>2026-05-01T11:46:42.923Z</time></trkpt><trkpt lat="42.721354" lon="13.0185376"><ele>611.0</ele><time>2026-05-01T11:49:37.923Z</time></trkpt><trkpt lat="42.7212873" lon="13.0185696"><ele>611.0</ele><time>2026-05-01T11:50:19.923Z</time></trkpt><trkpt lat="42.7215607" lon="13.0184519"><ele>611.0</ele><time>2026-05-01T11:50:50.523Z</time></trkpt><trkpt lat="42.7215372" lon="13.0185468"><ele>611.0</ele><time>2026-05-01T11:52:48.021Z</time></trkpt><trkpt lat="42.721585" lon="13.0186139"><ele>611.0</ele><time>2026-05-01T11:54:23.38Z</time></trkpt><trkpt lat="42.7215145" lon="13.0185797"><ele>611.0</ele><time>2026-05-01T11:56:13.959Z</time></trkpt><trkpt lat="42.721453" lon="13.0184912"><ele>611.0</ele><time>2026-05-01T11:56:15.979Z</time></trkpt><trkpt lat="42.7213757" lon="13.018348"><ele>611.0</ele><time>2026-05-01T11:56:17.923Z</time></trkpt><trkpt lat="42.7212704" lon="13.0182771"><ele>611.0</ele><time>2026-05-01T11:56:21.923Z</time></trkpt><trkpt lat="42.7212216" lon="13.0183926"><ele>611.0</ele><time>2026-05-01T11:56:26.923Z</time></trkpt><trkpt lat="42.7212271" lon="13.0185945"><ele>611.0</ele><time>2026-05-01T11:56:28.923Z</time></trkpt><trkpt lat="42.7212296" lon="13.0187234"><ele>611.0</ele><time>2026-05-01T11:56:29.922Z</time></trkpt><trkpt lat="42.7212382" lon="13.0188628"><ele>611.0</ele><time>2026-05-01T11:56:30.923Z</time></trkpt><trkpt lat="42.7212519" lon="13.0190098"><ele>609.25</ele><time>2026-05-01T11:56:31.923Z</time></trkpt><trkpt lat="42.7212737" lon="13.0191551"><ele>607.5</ele><time>2026-05-01T11:56:32.923Z</time></trkpt><trkpt lat="42.7212943" lon="13.0193157"><ele>605.75</ele><time>2026-05-01T11:56:33.923Z</time></trkpt><trkpt lat="42.7213173" lon="13.0194887"><ele>604.0</ele><time>2026-05-01T11:56:34.923Z</time></trkpt><trkpt lat="42.7213471" lon="13.0196614"><ele>604.0</ele><time>2026-05-01T11:56:35.923Z</time></trkpt><trkpt lat="42.7213815" lon="13.0198349"><ele>604.0</ele><time>2026-05-01T11:56:36.922Z</time></trkpt><trkpt lat="42.7214209" lon="13.0200203"><ele>604.0</ele><time>2026-05-01T11:56:37.923Z</time></trkpt><trkpt lat="42.7214722" lon="13.0201923"><ele>604.0</ele><time>2026-05-01T11:56:38.923Z</time></trkpt><trkpt lat="42.7215212" lon="13.0203616"><ele>603.6</ele><time>2026-05-01T11:56:39.923Z</time></trkpt><trkpt lat="42.7215672" lon="13.0205162"><ele>603.2</ele><time>2026-05-01T11:56:40.923Z</time></trkpt><trkpt lat="42.7216053" lon="13.0206551"><ele>602.8000000000001</ele><time>2026-05-01T11:56:41.923Z</time></trkpt><trkpt lat="42.7216371" lon="13.0207731"><ele>602.4</ele><time>2026-05-01T11:56:42.923Z</time></trkpt><trkpt lat="42.7216572" lon="13.0208728"><ele>602.0</ele><time>2026-05-01T11:56:43.923Z</time></trkpt><trkpt lat="42.7216601" lon="13.0209724"><ele>602.0</ele><time>2026-05-01T11:56:44.923Z</time></trkpt><trkpt lat="42.7216579" lon="13.0210851"><ele>602.0</ele><time>2026-05-01T11:56:45.922Z</time></trkpt><trkpt lat="42.7216764" lon="13.0211916"><ele>602.0</ele><time>2026-05-01T11:56:46.923Z</time></trkpt><trkpt lat="42.7217226" lon="13.0213005"><ele>602.0</ele><time>2026-05-01T11:56:47.923Z</time></trkpt><trkpt lat="42.7217915" lon="13.0214142"><ele>602.0</ele><time>2026-05-01T11:56:48.923Z</time></trkpt><trkpt lat="42.7218708" lon="13.0215419"><ele>601.3333333333333</ele><time>2026-05-01T11:56:49.923Z</time></trkpt><trkpt lat="42.7219444" lon="13.0216954"><ele>600.6666666666666</ele><time>2026-05-01T11:56:50.923Z</time></trkpt><trkpt lat="42.7220214" lon="13.0218886"><ele>600.0</ele><time>2026-05-01T11:56:51.923Z</time></trkpt><trkpt lat="42.7221098" lon="13.0220946"><ele>600.0</ele><time>2026-05-01T11:56:52.922Z</time></trkpt><trkpt lat="42.7222217" lon="13.0222931"><ele>600.0</ele><time>2026-05-01T11:56:53.922Z</time></trkpt><trkpt lat="42.722358" lon="13.0224781"><ele>600.0</ele><time>2026-05-01T11:56:54.922Z</time></trkpt><trkpt lat="42.7224919" lon="13.0226385"><ele>599.6666666666666</ele><time>2026-05-01T11:56:55.923Z</time></trkpt><trkpt lat="42.7226407" lon="13.0227429"><ele>599.3333333333333</ele><time>2026-05-01T11:56:56.923Z</time></trkpt><trkpt lat="42.7227806" lon="13.0228348"><ele>599.0</ele><time>2026-05-01T11:56:57.923Z</time></trkpt><trkpt lat="42.7229183" lon="13.0228913"><ele>599.0</ele><time>2026-05-01T11:56:58.923Z</time></trkpt><trkpt lat="42.7230455" lon="13.0229407"><ele>599.0</ele><time>2026-05-01T11:56:59.923Z</time></trkpt><trkpt lat="42.7231763" lon="13.022981"><ele>599.0</ele><time>2026-05-01T11:57:00.923Z</time></trkpt><trkpt lat="42.7233053" lon="13.0229878"><ele>599.0</ele><time>2026-05-01T11:57:01.923Z</time></trkpt><trkpt lat="42.7234386" lon="13.0229917"><ele>599.0</ele><time>2026-05-01T11:57:02.923Z</time></trkpt><trkpt lat="42.7235595" lon="13.02299"><ele>599.0</ele><time>2026-05-01T11:57:03.922Z</time></trkpt><trkpt lat="42.7236712" lon="13.0229844"><ele>599.0</ele><time>2026-05-01T11:57:04.923Z</time></trkpt><trkpt lat="42.7237626" lon="13.0230066"><ele>599.0</ele><time>2026-05-01T11:57:05.923Z</time></trkpt><trkpt lat="42.7238311" lon="13.0230676"><ele>599.0</ele><time>2026-05-01T11:57:06.922Z</time></trkpt><trkpt lat="42.7238719" lon="13.0231626"><ele>599.5</ele><time>2026-05-01T11:57:07.923Z</time></trkpt><trkpt lat="42.7238774" lon="13.0233221"><ele>600.0</ele><time>2026-05-01T11:57:08.923Z</time></trkpt><trkpt lat="42.7238831" lon="13.0235258"><ele>600.5</ele><time>2026-05-01T11:57:09.923Z</time></trkpt><trkpt lat="42.7238872" lon="13.0237232"><ele>601.0</ele><time>2026-05-01T11:57:10.923Z</time></trkpt><trkpt lat="42.7238843" lon="13.0239227"><ele>601.0</ele><time>2026-05-01T11:57:11.923Z</time></trkpt><trkpt lat="42.7238704" lon="13.0241155"><ele>601.0</ele><time>2026-05-01T11:57:12.923Z</time></trkpt><trkpt lat="42.7238485" lon="13.0243061"><ele>601.0</ele><time>2026-05-01T11:57:13.923Z</time></trkpt><trkpt lat="42.7237915" lon="13.0244974"><ele>601.0</ele><time>2026-05-01T11:57:14.922Z</time></trkpt><trkpt lat="42.7237205" lon="13.0246866"><ele>601.25</ele><time>2026-05-01T11:57:15.922Z</time></trkpt><trkpt lat="42.7236535" lon="13.0248535"><ele>601.5</ele><time>2026-05-01T11:57:16.922Z</time></trkpt><trkpt lat="42.7236165" lon="13.0250148"><ele>601.75</ele><time>2026-05-01T11:57:17.922Z</time></trkpt><trkpt lat="42.7235959" lon="13.0251749"><ele>602.0</ele><time>2026-05-01T11:57:18.922Z</time></trkpt><trkpt lat="42.7236121" lon="13.0253391"><ele>601.2</ele><time>2026-05-01T11:57:19.923Z</time></trkpt><trkpt lat="42.7236603" lon="13.0254676"><ele>600.4000000000001</ele><time>2026-05-01T11:57:20.923Z</time></trkpt><trkpt lat="42.7237323" lon="13.0255846"><ele>599.5999999999999</ele><time>2026-05-01T11:57:21.922Z</time></trkpt><trkpt lat="42.7238207" lon="13.0256743"><ele>598.8</ele><time>2026-05-01T11:57:22.923Z</time></trkpt><trkpt lat="42.7239189" lon="13.0257352"><ele>598.0</ele><time>2026-05-01T11:57:23.923Z</time></trkpt><trkpt lat="42.7240344" lon="13.0257487"><ele>598.0</ele><time>2026-05-01T11:57:24.923Z</time></trkpt><trkpt lat="42.7241553" lon="13.0257275"><ele>598.0</ele><time>2026-05-01T11:57:25.923Z</time></trkpt><trkpt lat="42.7242788" lon="13.0256795"><ele>598.0</ele><time>2026-05-01T11:57:26.923Z</time></trkpt><trkpt lat="42.7243926" lon="13.0256209"><ele>598.0</ele><time>2026-05-01T11:57:27.923Z</time></trkpt><trkpt lat="42.724509" lon="13.0255644"><ele>597.5</ele><time>2026-05-01T11:57:28.923Z</time></trkpt><trkpt lat="42.7246281" lon="13.0255072"><ele>597.0</ele><time>2026-05-01T11:57:29.923Z</time></trkpt><trkpt lat="42.7247504" lon="13.0254693"><ele>596.5</ele><time>2026-05-01T11:57:30.923Z</time></trkpt><trkpt lat="42.7248841" lon="13.0254545"><ele>596.0</ele><time>2026-05-01T11:57:31.923Z</time></trkpt><trkpt lat="42.7250249" lon="13.0254643"><ele>596.0</ele><time>2026-05-01T11:57:32.923Z</time></trkpt><trkpt lat="42.7251578" lon="13.0255217"><ele>596.0</ele><time>2026-05-01T11:57:33.922Z</time></trkpt><trkpt lat="42.7252986" lon="13.0255826"><ele>596.0</ele><time>2026-05-01T11:57:34.922Z</time></trkpt><trkpt lat="42.7254466" lon="13.0256492"><ele>596.0</ele><time>2026-05-01T11:57:35.923Z</time></trkpt><trkpt lat="42.7255905" lon="13.0257102"><ele>595.3333333333333</ele><time>2026-05-01T11:57:36.923Z</time></trkpt><trkpt lat="42.7257477" lon="13.0257603"><ele>594.6666666666666</ele><time>2026-05-01T11:57:37.922Z</time></trkpt><trkpt lat="42.7259036" lon="13.0257928"><ele>594.0</ele><time>2026-05-01T11:57:38.922Z</time></trkpt><trkpt lat="42.7260614" lon="13.0258212"><ele>593.6666666666666</ele><time>2026-05-01T11:57:39.922Z</time></trkpt><trkpt lat="42.7262217" lon="13.0258175"><ele>593.3333333333333</ele><time>2026-05-01T11:57:40.923Z</time></trkpt><trkpt lat="42.7263801" lon="13.0257915"><ele>593.0</ele><time>2026-05-01T11:57:41.923Z</time></trkpt><trkpt lat="42.7265343" lon="13.0257325"><ele>593.0</ele><time>2026-05-01T11:57:42.922Z</time></trkpt><trkpt lat="42.7266926" lon="13.0256799"><ele>593.0</ele><time>2026-05-01T11:57:43.923Z</time></trkpt><trkpt lat="42.726846" lon="13.0256152"><ele>593.0</ele><time>2026-05-01T11:57:44.923Z</time></trkpt><trkpt lat="42.7270131" lon="13.0254873"><ele>596.0</ele><time>2026-05-01T11:57:45.923Z</time></trkpt><trkpt lat="42.7271859" lon="13.0252963"><ele>599.0</ele><time>2026-05-01T11:57:46.923Z</time></trkpt><trkpt lat="42.7273687" lon="13.0250892"><ele>596.0</ele><time>2026-05-01T11:57:47.922Z</time></trkpt><trkpt lat="42.7275513" lon="13.0248666"><ele>593.0</ele><time>2026-05-01T11:57:48.923Z</time></trkpt><trkpt lat="42.7277254" lon="13.0246289"><ele>597.0</ele><time>2026-05-01T11:57:49.923Z</time></trkpt><trkpt lat="42.7278875" lon="13.024372"><ele>601.0</ele><time>2026-05-01T11:57:50.923Z</time></trkpt><trkpt lat="42.7280291" lon="13.0240692"><ele>601.0</ele><time>2026-05-01T11:57:51.923Z</time></trkpt><trkpt lat="42.7281557" lon="13.0237531"><ele>601.0</ele><time>2026-05-01T11:57:52.923Z</time></trkpt><trkpt lat="42.728273" lon="13.0234384"><ele>601.5</ele><time>2026-05-01T11:57:53.923Z</time></trkpt><trkpt lat="42.7283736" lon="13.0231347"><ele>602.0</ele><time>2026-05-01T11:57:54.923Z</time></trkpt><trkpt lat="42.7284449" lon="13.0228361"><ele>602.0</ele><time>2026-05-01T11:57:55.922Z</time></trkpt><trkpt lat="42.7284871" lon="13.0225072"><ele>602.0</ele><time>2026-05-01T11:57:56.923Z</time></trkpt><trkpt lat="42.728514" lon="13.0221613"><ele>600.0</ele><time>2026-05-01T11:57:57.922Z</time></trkpt><trkpt lat="42.7285191" lon="13.0218379"><ele>598.0</ele><time>2026-05-01T11:57:58.923Z</time></trkpt><trkpt lat="42.7285179" lon="13.0215455"><ele>596.0</ele><time>2026-05-01T11:57:59.923Z</time></trkpt><trkpt lat="42.7285203" lon="13.0212797"><ele>594.0</ele><time>2026-05-01T11:58:00.922Z</time></trkpt><trkpt lat="42.7285342" lon="13.0210238"><ele>592.0</ele><time>2026-05-01T11:58:01.923Z</time></trkpt><trkpt lat="42.7285643" lon="13.0208141"><ele>591.25</ele><time>2026-05-01T11:58:02.923Z</time></trkpt><trkpt lat="42.7286133" lon="13.0206309"><ele>590.5</ele><time>2026-05-01T11:58:03.923Z</time></trkpt><trkpt lat="42.7286751" lon="13.0204755"><ele>589.75</ele><time>2026-05-01T11:58:04.922Z</time></trkpt><trkpt lat="42.7287911" lon="13.0203593"><ele>589.0</ele><time>2026-05-01T11:58:05.922Z</time></trkpt><trkpt lat="42.7289327" lon="13.0202451"><ele>589.0</ele><time>2026-05-01T11:58:06.922Z</time></trkpt><trkpt lat="42.7290738" lon="13.0201689"><ele>589.0</ele><time>2026-05-01T11:58:07.923Z</time></trkpt><trkpt lat="42.729217" lon="13.0201172"><ele>589.0</ele><time>2026-05-01T11:58:08.922Z</time></trkpt><trkpt lat="42.729377" lon="13.0201375"><ele>588.6666666666667</ele><time>2026-05-01T11:58:09.923Z</time></trkpt><trkpt lat="42.7295613" lon="13.0202332"><ele>588.3333333333334</ele><time>2026-05-01T11:58:10.923Z</time></trkpt><trkpt lat="42.7297701" lon="13.0203598"><ele>588.0</ele><time>2026-05-01T11:58:11.922Z</time></trkpt><trkpt lat="42.7299914" lon="13.0204757"><ele>588.0</ele><time>2026-05-01T11:58:12.923Z</time></trkpt><trkpt lat="42.7302155" lon="13.0205637"><ele>588.0</ele><time>2026-05-01T11:58:13.923Z</time></trkpt><trkpt lat="42.7304289" lon="13.0206536"><ele>588.0</ele><time>2026-05-01T11:58:14.923Z</time></trkpt><trkpt lat="42.7306555" lon="13.0207038"><ele>588.0</ele><time>2026-05-01T11:58:15.923Z</time></trkpt><trkpt lat="42.7309062" lon="13.0207293"><ele>585.0</ele><time>2026-05-01T11:58:16.923Z</time></trkpt><trkpt lat="42.731156" lon="13.0207085"><ele>582.0</ele><time>2026-05-01T11:58:17.922Z</time></trkpt><trkpt lat="42.7313955" lon="13.0206713"><ele>582.0</ele><time>2026-05-01T11:58:18.923Z</time></trkpt><trkpt lat="42.7316112" lon="13.0206658"><ele>582.0</ele><time>2026-05-01T11:58:19.922Z</time></trkpt><trkpt lat="42.7318267" lon="13.0206921"><ele>582.0</ele><time>2026-05-01T11:58:20.923Z</time></trkpt><trkpt lat="42.7320437" lon="13.0206724"><ele>583.0</ele><time>2026-05-01T11:58:21.922Z</time></trkpt><trkpt lat="42.7322659" lon="13.0205677"><ele>584.0</ele><time>2026-05-01T11:58:22.923Z</time></trkpt><trkpt lat="42.7324922" lon="13.0204253"><ele>590.5</ele><time>2026-05-01T11:58:23.923Z</time></trkpt><trkpt lat="42.7327283" lon="13.0202817"><ele>597.0</ele><time>2026-05-01T11:58:24.923Z</time></trkpt><trkpt lat="42.7329818" lon="13.0201512"><ele>597.0</ele><time>2026-05-01T11:58:25.922Z</time></trkpt><trkpt lat="42.7332361" lon="13.0200196"><ele>597.0</ele><time>2026-05-01T11:58:26.922Z</time></trkpt><trkpt lat="42.7334986" lon="13.0198715"><ele>592.5</ele><time>2026-05-01T11:58:27.923Z</time></trkpt><trkpt lat="42.7337461" lon="13.0197138"><ele>588.0</ele><time>2026-05-01T11:58:28.922Z</time></trkpt><trkpt lat="42.7339744" lon="13.0195478"><ele>588.0</ele><time>2026-05-01T11:58:29.922Z</time></trkpt><trkpt lat="42.7341883" lon="13.0193537"><ele>588.0</ele><time>2026-05-01T11:58:30.922Z</time></trkpt><trkpt lat="42.734381" lon="13.0191522"><ele>592.0</ele><time>2026-05-01T11:58:31.923Z</time></trkpt><trkpt lat="42.7345392" lon="13.0189157"><ele>596.0</ele><time>2026-05-01T11:58:32.923Z</time></trkpt><trkpt lat="42.7346868" lon="13.0186484"><ele>596.0</ele><time>2026-05-01T11:58:33.923Z</time></trkpt><trkpt lat="42.7348371" lon="13.0183706"><ele>596.0</ele><time>2026-05-01T11:58:34.923Z</time></trkpt><trkpt lat="42.7349897" lon="13.0180848"><ele>591.0</ele><time>2026-05-01T11:58:35.922Z</time></trkpt><trkpt lat="42.7351314" lon="13.0178079"><ele>586.0</ele><time>2026-05-01T11:58:36.923Z</time></trkpt><trkpt lat="42.735262" lon="13.0175203"><ele>602.0</ele><time>2026-05-01T11:58:37.922Z</time></trkpt><trkpt lat="42.7353694" lon="13.0172186"><ele>618.0</ele><time>2026-05-01T11:58:38.922Z</time></trkpt><trkpt lat="42.7354586" lon="13.0169273"><ele>616.6666666666666</ele><time>2026-05-01T11:58:39.923Z</time></trkpt><trkpt lat="42.7355136" lon="13.0166311"><ele>615.3333333333333</ele><time>2026-05-01T11:58:40.922Z</time></trkpt><trkpt lat="42.735504" lon="13.0163375"><ele>614.0</ele><time>2026-05-01T11:58:41.923Z</time></trkpt><trkpt lat="42.7354322" lon="13.0160474"><ele>604.0</ele><time>2026-05-01T11:58:42.923Z</time></trkpt><trkpt lat="42.7353373" lon="13.0157513"><ele>594.0</ele><time>2026-05-01T11:58:43.922Z</time></trkpt><trkpt lat="42.7352334" lon="13.0154709"><ele>590.3333333333334</ele><time>2026-05-01T11:58:44.922Z</time></trkpt><trkpt lat="42.7351278" lon="13.0152724"><ele>586.6666666666667</ele><time>2026-05-01T11:58:45.923Z</time></trkpt><trkpt lat="42.7350266" lon="13.0151329"><ele>583.0</ele><time>2026-05-01T11:58:46.923Z</time></trkpt><trkpt lat="42.734947" lon="13.0150001"><ele>582.0</ele><time>2026-05-01T11:58:47.923Z</time></trkpt><trkpt lat="42.7349381" lon="13.0148785"><ele>581.0</ele><time>2026-05-01T11:58:48.923Z</time></trkpt><trkpt lat="42.7349793" lon="13.0147515"><ele>580.0</ele><time>2026-05-01T11:58:49.923Z</time></trkpt><trkpt lat="42.7350925" lon="13.0146674"><ele>579.0</ele><time>2026-05-01T11:58:50.923Z</time></trkpt><trkpt lat="42.7352565" lon="13.0146359"><ele>579.0</ele><time>2026-05-01T11:58:51.923Z</time></trkpt><trkpt lat="42.7355193" lon="13.0146564"><ele>579.0</ele><time>2026-05-01T11:58:52.923Z</time></trkpt><trkpt lat="42.7357506" lon="13.0146805"><ele>579.0</ele><time>2026-05-01T11:58:53.922Z</time></trkpt><trkpt lat="42.7359698" lon="13.0147107"><ele>579.0</ele><time>2026-05-01T11:58:54.923Z</time></trkpt><trkpt lat="42.7361818" lon="13.01474"><ele>579.0</ele><time>2026-05-01T11:58:55.922Z</time></trkpt><trkpt lat="42.7363591" lon="13.0147518"><ele>578.6666666666666</ele><time>2026-05-01T11:58:56.922Z</time></trkpt><trkpt lat="42.7365127" lon="13.0147351"><ele>578.3333333333333</ele><time>2026-05-01T11:58:57.923Z</time></trkpt><trkpt lat="42.7366618" lon="13.0146672"><ele>578.0</ele><time>2026-05-01T11:58:58.923Z</time></trkpt><trkpt lat="42.7368178" lon="13.014564"><ele>580.3333333333333</ele><time>2026-05-01T11:58:59.923Z</time></trkpt><trkpt lat="42.7369615" lon="13.0144365"><ele>582.6666666666666</ele><time>2026-05-01T11:59:00.922Z</time></trkpt><trkpt lat="42.737095" lon="13.0143127"><ele>585.0</ele><time>2026-05-01T11:59:01.923Z</time></trkpt><trkpt lat="42.7372288" lon="13.0141929"><ele>582.3333333333334</ele><time>2026-05-01T11:59:02.922Z</time></trkpt><trkpt lat="42.7373628" lon="13.0140678"><ele>579.6666666666667</ele><time>2026-05-01T11:59:03.922Z</time></trkpt><trkpt lat="42.7374927" lon="13.0139312"><ele>577.0</ele><time>2026-05-01T11:59:04.923Z</time></trkpt><trkpt lat="42.7376217" lon="13.0137899"><ele>581.3333333333334</ele><time>2026-05-01T11:59:05.923Z</time></trkpt><trkpt lat="42.7377415" lon="13.0136515"><ele>585.6666666666666</ele><time>2026-05-01T11:59:06.923Z</time></trkpt><trkpt lat="42.7378555" lon="13.0135109"><ele>590.0</ele><time>2026-05-01T11:59:07.923Z</time></trkpt><trkpt lat="42.7379509" lon="13.0133386"><ele>586.6666666666666</ele><time>2026-05-01T11:59:08.923Z</time></trkpt><trkpt lat="42.7380386" lon="13.0131437"><ele>583.3333333333334</ele><time>2026-05-01T11:59:09.923Z</time></trkpt><trkpt lat="42.7381189" lon="13.0129521"><ele>580.0</ele><time>2026-05-01T11:59:10.923Z</time></trkpt><trkpt lat="42.7381788" lon="13.012768"><ele>580.0</ele><time>2026-05-01T11:59:11.923Z</time></trkpt><trkpt lat="42.7382277" lon="13.0125751"><ele>580.0</ele><time>2026-05-01T11:59:12.923Z</time></trkpt><trkpt lat="42.7382749" lon="13.012382"><ele>580.0</ele><time>2026-05-01T11:59:13.922Z</time></trkpt><trkpt lat="42.7383255" lon="13.0121931"><ele>580.0</ele><time>2026-05-01T11:59:14.923Z</time></trkpt><trkpt lat="42.7383718" lon="13.0120045"><ele>579.25</ele><time>2026-05-01T11:59:15.923Z</time></trkpt><trkpt lat="42.7384028" lon="13.0118053"><ele>578.5</ele><time>2026-05-01T11:59:16.922Z</time></trkpt><trkpt lat="42.738429" lon="13.011622"><ele>577.75</ele><time>2026-05-01T11:59:17.923Z</time></trkpt><trkpt lat="42.7384437" lon="13.011442"><ele>577.0</ele><time>2026-05-01T11:59:18.922Z</time></trkpt><trkpt lat="42.738457" lon="13.0112752"><ele>576.75</ele><time>2026-05-01T11:59:19.923Z</time></trkpt><trkpt lat="42.7384738" lon="13.0111072"><ele>576.5</ele><time>2026-05-01T11:59:20.922Z</time></trkpt><trkpt lat="42.7384888" lon="13.0109338"><ele>576.25</ele><time>2026-05-01T11:59:21.923Z</time></trkpt><trkpt lat="42.7385095" lon="13.0107506"><ele>576.0</ele><time>2026-05-01T11:59:22.923Z</time></trkpt><trkpt lat="42.7385484" lon="13.0105636"><ele>580.25</ele><time>2026-05-01T11:59:23.923Z</time></trkpt><trkpt lat="42.7386" lon="13.0104073"><ele>584.5</ele><time>2026-05-01T11:59:24.922Z</time></trkpt><trkpt lat="42.7386659" lon="13.0102473"><ele>588.75</ele><time>2026-05-01T11:59:25.923Z</time></trkpt><trkpt lat="42.7387366" lon="13.0100949"><ele>593.0</ele><time>2026-05-01T11:59:26.923Z</time></trkpt><trkpt lat="42.7388092" lon="13.0099466"><ele>594.75</ele><time>2026-05-01T11:59:27.922Z</time></trkpt><trkpt lat="42.7388652" lon="13.0098076"><ele>596.5</ele><time>2026-05-01T11:59:28.922Z</time></trkpt><trkpt lat="42.7388985" lon="13.0096491"><ele>598.25</ele><time>2026-05-01T11:59:29.922Z</time></trkpt><trkpt lat="42.7389204" lon="13.0094833"><ele>600.0</ele><time>2026-05-01T11:59:30.922Z</time></trkpt><trkpt lat="42.7389097" lon="13.0093012"><ele>607.0</ele><time>2026-05-01T11:59:31.923Z</time></trkpt><trkpt lat="42.7388667" lon="13.0091267"><ele>614.0</ele><time>2026-05-01T11:59:32.922Z</time></trkpt><trkpt lat="42.7387946" lon="13.0089328"><ele>621.0</ele><time>2026-05-01T11:59:33.923Z</time></trkpt><trkpt lat="42.7386883" lon="13.0086857"><ele>621.0</ele><time>2026-05-01T11:59:34.923Z</time></trkpt><trkpt lat="42.738562" lon="13.0083877"><ele>621.0</ele><time>2026-05-01T11:59:35.922Z</time></trkpt><trkpt lat="42.7384455" lon="13.0080984"><ele>609.0</ele><time>2026-05-01T11:59:36.922Z</time></trkpt><trkpt lat="42.738352" lon="13.0078296"><ele>597.0</ele><time>2026-05-01T11:59:37.923Z</time></trkpt><trkpt lat="42.7382824" lon="13.0075869"><ele>585.0</ele><time>2026-05-01T11:59:38.923Z</time></trkpt><trkpt lat="42.7382417" lon="13.0073502"><ele>583.6666666666666</ele><time>2026-05-01T11:59:39.923Z</time></trkpt><trkpt lat="42.7382237" lon="13.0070945"><ele>582.3333333333333</ele><time>2026-05-01T11:59:40.923Z</time></trkpt><trkpt lat="42.7382366" lon="13.0068063"><ele>581.0</ele><time>2026-05-01T11:59:41.923Z</time></trkpt><trkpt lat="42.7383455" lon="13.0064788"><ele>578.0</ele><time>2026-05-01T11:59:42.923Z</time></trkpt><trkpt lat="42.7384585" lon="13.0061611"><ele>575.0</ele><time>2026-05-01T11:59:43.922Z</time></trkpt><trkpt lat="42.7385465" lon="13.0058391"><ele>588.0</ele><time>2026-05-01T11:59:44.923Z</time></trkpt><trkpt lat="42.7385906" lon="13.0055189"><ele>601.0</ele><time>2026-05-01T11:59:45.923Z</time></trkpt><trkpt lat="42.738618" lon="13.0051914"><ele>596.0</ele><time>2026-05-01T11:59:46.923Z</time></trkpt><trkpt lat="42.7386771" lon="13.0048819"><ele>591.0</ele><time>2026-05-01T11:59:47.923Z</time></trkpt><trkpt lat="42.7387515" lon="13.0045799"><ele>591.0</ele><time>2026-05-01T11:59:48.922Z</time></trkpt><trkpt lat="42.7388422" lon="13.0042943"><ele>591.0</ele><time>2026-05-01T11:59:49.922Z</time></trkpt><trkpt lat="42.7389495" lon="13.0040501"><ele>591.0</ele><time>2026-05-01T11:59:50.923Z</time></trkpt><trkpt lat="42.739031" lon="13.0038109"><ele>591.6666666666666</ele><time>2026-05-01T11:59:51.923Z</time></trkpt><trkpt lat="42.7390538" lon="13.0035496"><ele>592.3333333333333</ele><time>2026-05-01T11:59:52.923Z</time></trkpt><trkpt lat="42.7390409" lon="13.0032655"><ele>593.0</ele><time>2026-05-01T11:59:53.923Z</time></trkpt><trkpt lat="42.7390008" lon="13.0029628"><ele>593.5</ele><time>2026-05-01T11:59:54.922Z</time></trkpt><trkpt lat="42.7389383" lon="13.0026503"><ele>594.0</ele><time>2026-05-01T11:59:55.923Z</time></trkpt><trkpt lat="42.7388772" lon="13.0023282"><ele>599.0</ele><time>2026-05-01T11:59:56.923Z</time></trkpt><trkpt lat="42.7388274" lon="13.0020043"><ele>604.0</ele><time>2026-05-01T11:59:57.922Z</time></trkpt><trkpt lat="42.738779" lon="13.0016988"><ele>606.6666666666667</ele><time>2026-05-01T11:59:58.923Z</time></trkpt><trkpt lat="42.7387209" lon="13.0014166"><ele>609.3333333333334</ele><time>2026-05-01T11:59:59.923Z</time></trkpt><trkpt lat="42.7386587" lon="13.0011703"><ele>612.0</ele><time>2026-05-01T12:00:00.923Z</time></trkpt><trkpt lat="42.7386034" lon="13.0009264"><ele>608.0</ele><time>2026-05-01T12:00:01.923Z</time></trkpt><trkpt lat="42.7385756" lon="13.0006656"><ele>604.0</ele><time>2026-05-01T12:00:02.923Z</time></trkpt><trkpt lat="42.7385688" lon="13.0004099"><ele>600.0</ele><time>2026-05-01T12:00:03.922Z</time></trkpt><trkpt lat="42.7385748" lon="13.0001704"><ele>600.0</ele><time>2026-05-01T12:00:04.923Z</time></trkpt><trkpt lat="42.738605" lon="12.9999511"><ele>600.0</ele><time>2026-05-01T12:00:05.923Z</time></trkpt><trkpt lat="42.7386606" lon="12.9997365"><ele>600.0</ele><time>2026-05-01T12:00:06.922Z</time></trkpt><trkpt lat="42.7387368" lon="12.9994972"><ele>600.0</ele><time>2026-05-01T12:00:07.923Z</time></trkpt><trkpt lat="42.7388188" lon="12.9992458"><ele>600.0</ele><time>2026-05-01T12:00:08.923Z</time></trkpt><trkpt lat="42.7388878" lon="12.9990009"><ele>600.0</ele><time>2026-05-01T12:00:09.923Z</time></trkpt><trkpt lat="42.7389811" lon="12.9987859"><ele>595.75</ele><time>2026-05-01T12:00:10.923Z</time></trkpt><trkpt lat="42.7390741" lon="12.9986179"><ele>591.5</ele><time>2026-05-01T12:00:11.923Z</time></trkpt><trkpt lat="42.7391777" lon="12.9985186"><ele>587.25</ele><time>2026-05-01T12:00:12.923Z</time></trkpt><trkpt lat="42.739299" lon="12.9984763"><ele>583.0</ele><time>2026-05-01T12:00:13.923Z</time></trkpt><trkpt lat="42.7394803" lon="12.998505"><ele>580.6666666666667</ele><time>2026-05-01T12:00:14.922Z</time></trkpt><trkpt lat="42.7396534" lon="12.9985823"><ele>578.3333333333334</ele><time>2026-05-01T12:00:15.923Z</time></trkpt><trkpt lat="42.7398286" lon="12.9987262"><ele>576.0</ele><time>2026-05-01T12:00:16.923Z</time></trkpt><trkpt lat="42.7399978" lon="12.9989361"><ele>576.0</ele><time>2026-05-01T12:00:17.923Z</time></trkpt><trkpt lat="42.7401777" lon="12.999128"><ele>576.0</ele><time>2026-05-01T12:00:18.923Z</time></trkpt><trkpt lat="42.7403912" lon="12.9993085"><ele>582.5</ele><time>2026-05-01T12:00:19.923Z</time></trkpt><trkpt lat="42.7406355" lon="12.9994552"><ele>589.0</ele><time>2026-05-01T12:00:20.923Z</time></trkpt><trkpt lat="42.7408862" lon="12.999565"><ele>587.5</ele><time>2026-05-01T12:00:21.922Z</time></trkpt><trkpt lat="42.7411418" lon="12.9996251"><ele>586.0</ele><time>2026-05-01T12:00:22.923Z</time></trkpt><trkpt lat="42.7414116" lon="12.9996217"><ele>586.0</ele><time>2026-05-01T12:00:23.922Z</time></trkpt><trkpt lat="42.7416795" lon="12.999593"><ele>586.0</ele><time>2026-05-01T12:00:24.923Z</time></trkpt><trkpt lat="42.7419457" lon="12.9995413"><ele>590.5</ele><time>2026-05-01T12:00:25.923Z</time></trkpt><trkpt lat="42.742209" lon="12.9994883"><ele>595.0</ele><time>2026-05-01T12:00:26.922Z</time></trkpt><trkpt lat="42.7424591" lon="12.9994271"><ele>595.0</ele><time>2026-05-01T12:00:27.922Z</time></trkpt><trkpt lat="42.7426828" lon="12.9993601"><ele>595.0</ele><time>2026-05-01T12:00:28.923Z</time></trkpt><trkpt lat="42.742866" lon="12.9992881"><ele>595.0</ele><time>2026-05-01T12:00:29.923Z</time></trkpt><trkpt lat="42.7430296" lon="12.9992195"><ele>594.75</ele><time>2026-05-01T12:00:30.923Z</time></trkpt><trkpt lat="42.7431718" lon="12.9991691"><ele>594.5</ele><time>2026-05-01T12:00:31.922Z</time></trkpt><trkpt lat="42.7433078" lon="12.9991606"><ele>594.25</ele><time>2026-05-01T12:00:32.923Z</time></trkpt><trkpt lat="42.7434301" lon="12.999204"><ele>594.0</ele><time>2026-05-01T12:00:33.923Z</time></trkpt><trkpt lat="42.7435769" lon="12.9993008"><ele>580.5</ele><time>2026-05-01T12:00:34.922Z</time></trkpt><trkpt lat="42.7437584" lon="12.9994946"><ele>567.0</ele><time>2026-05-01T12:00:35.923Z</time></trkpt><trkpt lat="42.7439549" lon="12.9997141"><ele>567.0</ele><time>2026-05-01T12:00:36.923Z</time></trkpt><trkpt lat="42.7441533" lon="12.9999156"><ele>567.0</ele><time>2026-05-01T12:00:37.922Z</time></trkpt><trkpt lat="42.7443569" lon="13.0000978"><ele>563.0</ele><time>2026-05-01T12:00:38.922Z</time></trkpt><trkpt lat="42.7445607" lon="13.0002453"><ele>559.0</ele><time>2026-05-01T12:00:39.922Z</time></trkpt><trkpt lat="42.7447725" lon="13.0003559"><ele>559.0</ele><time>2026-05-01T12:00:40.923Z</time></trkpt><trkpt lat="42.7449923" lon="13.0004119"><ele>559.0</ele><time>2026-05-01T12:00:41.923Z</time></trkpt><trkpt lat="42.7452209" lon="13.0004285"><ele>558.0</ele><time>2026-05-01T12:00:42.922Z</time></trkpt><trkpt lat="42.7454589" lon="13.0003964"><ele>557.0</ele><time>2026-05-01T12:00:43.923Z</time></trkpt><trkpt lat="42.7457028" lon="13.0003275"><ele>557.0</ele><time>2026-05-01T12:00:44.923Z</time></trkpt><trkpt lat="42.7459399" lon="13.0002314"><ele>557.0</ele><time>2026-05-01T12:00:45.923Z</time></trkpt><trkpt lat="42.7461748" lon="13.0001201"><ele>565.0</ele><time>2026-05-01T12:00:46.922Z</time></trkpt><trkpt lat="42.7463908" lon="12.9999849"><ele>573.0</ele><time>2026-05-01T12:00:47.923Z</time></trkpt><trkpt lat="42.7466056" lon="12.9998234"><ele>573.0</ele><time>2026-05-01T12:00:48.923Z</time></trkpt><trkpt lat="42.7468065" lon="12.9996583"><ele>573.0</ele><time>2026-05-01T12:00:49.923Z</time></trkpt><trkpt lat="42.7469935" lon="12.9995101"><ele>580.6666666666666</ele><time>2026-05-01T12:00:50.923Z</time></trkpt><trkpt lat="42.7471848" lon="12.9993877"><ele>588.3333333333333</ele><time>2026-05-01T12:00:51.923Z</time></trkpt><trkpt lat="42.7473918" lon="12.9992769"><ele>596.0</ele><time>2026-05-01T12:00:52.922Z</time></trkpt><trkpt lat="42.7476076" lon="12.9991715"><ele>581.5</ele><time>2026-05-01T12:00:53.922Z</time></trkpt><trkpt lat="42.7478463" lon="12.9990807"><ele>567.0</ele><time>2026-05-01T12:00:54.923Z</time></trkpt><trkpt lat="42.7481067" lon="12.9990144"><ele>567.0</ele><time>2026-05-01T12:00:55.923Z</time></trkpt><trkpt lat="42.7483637" lon="12.9989365"><ele>567.0</ele><time>2026-05-01T12:00:56.922Z</time></trkpt><trkpt lat="42.7486109" lon="12.9988527"><ele>572.5</ele><time>2026-05-01T12:00:57.923Z</time></trkpt><trkpt lat="42.7488457" lon="12.9987421"><ele>578.0</ele><time>2026-05-01T12:00:58.922Z</time></trkpt><trkpt lat="42.7490554" lon="12.9986198"><ele>578.0</ele><time>2026-05-01T12:00:59.923Z</time></trkpt><trkpt lat="42.7492159" lon="12.9985067"><ele>578.0</ele><time>2026-05-01T12:01:00.922Z</time></trkpt><trkpt lat="42.7493578" lon="12.9984115"><ele>578.0</ele><time>2026-05-01T12:01:01.923Z</time></trkpt><trkpt lat="42.7494737" lon="12.9983477"><ele>576.0</ele><time>2026-05-01T12:01:02.923Z</time></trkpt><trkpt lat="42.7495909" lon="12.9983541"><ele>574.0</ele><time>2026-05-01T12:01:03.923Z</time></trkpt><trkpt lat="42.7497271" lon="12.998431"><ele>572.0</ele><time>2026-05-01T12:01:04.923Z</time></trkpt><trkpt lat="42.7498915" lon="12.998593"><ele>572.0</ele><time>2026-05-01T12:01:05.922Z</time></trkpt><trkpt lat="42.7501011" lon="12.9987797"><ele>572.0</ele><time>2026-05-01T12:01:06.923Z</time></trkpt><trkpt lat="42.7503158" lon="12.9989419"><ele>574.0</ele><time>2026-05-01T12:01:07.923Z</time></trkpt><trkpt lat="42.7505253" lon="12.9991086"><ele>576.0</ele><time>2026-05-01T12:01:08.923Z</time></trkpt><trkpt lat="42.7507196" lon="12.9992516"><ele>576.0</ele><time>2026-05-01T12:01:09.923Z</time></trkpt><trkpt lat="42.7508836" lon="12.9993732"><ele>576.0</ele><time>2026-05-01T12:01:10.923Z</time></trkpt><trkpt lat="42.7510029" lon="12.9995071"><ele>576.0</ele><time>2026-05-01T12:01:11.922Z</time></trkpt><trkpt lat="42.7511042" lon="12.9996355"><ele>567.0</ele><time>2026-05-01T12:01:12.923Z</time></trkpt><trkpt lat="42.751195" lon="12.9998278"><ele>558.0</ele><time>2026-05-01T12:01:13.923Z</time></trkpt><trkpt lat="42.7512862" lon="13.0000588"><ele>549.0</ele><time>2026-05-01T12:01:14.922Z</time></trkpt><trkpt lat="42.7513732" lon="13.0003271"><ele>549.0</ele><time>2026-05-01T12:01:15.923Z</time></trkpt><trkpt lat="42.7514643" lon="13.0005976"><ele>549.0</ele><time>2026-05-01T12:01:16.923Z</time></trkpt><trkpt lat="42.751572" lon="13.0008642"><ele>549.0</ele><time>2026-05-01T12:01:17.923Z</time></trkpt><trkpt lat="42.7516848" lon="13.0011259"><ele>548.0</ele><time>2026-05-01T12:01:18.923Z</time></trkpt><trkpt lat="42.7518062" lon="13.001395"><ele>547.0</ele><time>2026-05-01T12:01:19.923Z</time></trkpt><trkpt lat="42.7519301" lon="13.0016505"><ele>547.0</ele><time>2026-05-01T12:01:20.923Z</time></trkpt><trkpt lat="42.7520759" lon="13.0018909"><ele>547.0</ele><time>2026-05-01T12:01:21.923Z</time></trkpt><trkpt lat="42.7522454" lon="13.0021113"><ele>547.0</ele><time>2026-05-01T12:01:22.922Z</time></trkpt><trkpt lat="42.7524301" lon="13.0023023"><ele>547.0</ele><time>2026-05-01T12:01:23.923Z</time></trkpt><trkpt lat="42.7526391" lon="13.0024783"><ele>545.5</ele><time>2026-05-01T12:01:24.923Z</time></trkpt><trkpt lat="42.7528571" lon="13.002657"><ele>544.0</ele><time>2026-05-01T12:01:25.923Z</time></trkpt><trkpt lat="42.7530845" lon="13.0028542"><ele>544.0</ele><time>2026-05-01T12:01:26.923Z</time></trkpt><trkpt lat="42.7533075" lon="13.0030407"><ele>544.0</ele><time>2026-05-01T12:01:27.922Z</time></trkpt><trkpt lat="42.7535152" lon="13.003226"><ele>545.6666666666667</ele><time>2026-05-01T12:01:28.922Z</time></trkpt><trkpt lat="42.7537145" lon="13.0033878"><ele>547.3333333333334</ele><time>2026-05-01T12:01:29.923Z</time></trkpt><trkpt lat="42.7538996" lon="13.0035108"><ele>549.0</ele><time>2026-05-01T12:01:30.922Z</time></trkpt><trkpt lat="42.754084" lon="13.0036084"><ele>549.0</ele><time>2026-05-01T12:01:31.923Z</time></trkpt><trkpt lat="42.7542804" lon="13.0036489"><ele>549.0</ele><time>2026-05-01T12:01:32.923Z</time></trkpt><trkpt lat="42.7544888" lon="13.0036532"><ele>549.0</ele><time>2026-05-01T12:01:33.923Z</time></trkpt><trkpt lat="42.7546952" lon="13.0035894"><ele>550.3333333333334</ele><time>2026-05-01T12:01:34.923Z</time></trkpt><trkpt lat="42.7549003" lon="13.003508"><ele>551.6666666666667</ele><time>2026-05-01T12:01:35.923Z</time></trkpt><trkpt lat="42.7550957" lon="13.0034335"><ele>553.0</ele><time>2026-05-01T12:01:36.923Z</time></trkpt><trkpt lat="42.7552882" lon="13.003396"><ele>553.0</ele><time>2026-05-01T12:01:37.923Z</time></trkpt><trkpt lat="42.755487" lon="13.0033948"><ele>553.0</ele><time>2026-05-01T12:01:38.922Z</time></trkpt><trkpt lat="42.7556996" lon="13.0033595"><ele>553.0</ele><time>2026-05-01T12:01:39.922Z</time></trkpt><trkpt lat="42.7559271" lon="13.0033115"><ele>550.0</ele><time>2026-05-01T12:01:40.922Z</time></trkpt><trkpt lat="42.7561496" lon="13.0032572"><ele>547.0</ele><time>2026-05-01T12:01:41.923Z</time></trkpt><trkpt lat="42.7563478" lon="13.003231"><ele>544.0</ele><time>2026-05-01T12:01:42.922Z</time></trkpt><trkpt lat="42.7565278" lon="13.0032225"><ele>544.0</ele><time>2026-05-01T12:01:43.923Z</time></trkpt><trkpt lat="42.7566935" lon="13.0032427"><ele>544.0</ele><time>2026-05-01T12:01:44.923Z</time></trkpt><trkpt lat="42.7568649" lon="13.0032906"><ele>544.0</ele><time>2026-05-01T12:01:45.922Z</time></trkpt><trkpt lat="42.7570452" lon="13.0033988"><ele>546.6666666666667</ele><time>2026-05-01T12:01:46.923Z</time></trkpt><trkpt lat="42.7572317" lon="13.0034855"><ele>549.3333333333334</ele><time>2026-05-01T12:01:47.922Z</time></trkpt><trkpt lat="42.7574151" lon="13.003501"><ele>552.0</ele><time>2026-05-01T12:01:48.923Z</time></trkpt><trkpt lat="42.7575952" lon="13.0034222"><ele>549.0</ele><time>2026-05-01T12:01:49.923Z</time></trkpt><trkpt lat="42.7577777" lon="13.0032931"><ele>546.0</ele><time>2026-05-01T12:01:50.923Z</time></trkpt><trkpt lat="42.7579678" lon="13.0031476"><ele>543.0</ele><time>2026-05-01T12:01:51.922Z</time></trkpt><trkpt lat="42.7581717" lon="13.0029879"><ele>543.0</ele><time>2026-05-01T12:01:52.922Z</time></trkpt><trkpt lat="42.7583825" lon="13.0028249"><ele>543.0</ele><time>2026-05-01T12:01:53.922Z</time></trkpt><trkpt lat="42.7585913" lon="13.0026363"><ele>540.5</ele><time>2026-05-01T12:01:54.923Z</time></trkpt><trkpt lat="42.7587876" lon="13.0024504"><ele>538.0</ele><time>2026-05-01T12:01:55.922Z</time></trkpt><trkpt lat="42.7589665" lon="13.0022778"><ele>538.0</ele><time>2026-05-01T12:01:56.923Z</time></trkpt><trkpt lat="42.759147" lon="13.0021386"><ele>538.0</ele><time>2026-05-01T12:01:57.923Z</time></trkpt><trkpt lat="42.7593085" lon="13.0020307"><ele>538.0</ele><time>2026-05-01T12:01:58.922Z</time></trkpt><trkpt lat="42.7594584" lon="13.0019544"><ele>540.3333333333334</ele><time>2026-05-01T12:01:59.922Z</time></trkpt><trkpt lat="42.7596106" lon="13.0018926"><ele>542.6666666666666</ele><time>2026-05-01T12:02:00.922Z</time></trkpt><trkpt lat="42.7597689" lon="13.0018764"><ele>545.0</ele><time>2026-05-01T12:02:01.923Z</time></trkpt><trkpt lat="42.7599473" lon="13.0018914"><ele>545.0</ele><time>2026-05-01T12:02:02.923Z</time></trkpt><trkpt lat="42.7601488" lon="13.0019337"><ele>545.0</ele><time>2026-05-01T12:02:03.923Z</time></trkpt><trkpt lat="42.7603596" lon="13.0019813"><ele>545.0</ele><time>2026-05-01T12:02:04.922Z</time></trkpt><trkpt lat="42.7605729" lon="13.0020151"><ele>542.6666666666666</ele><time>2026-05-01T12:02:05.923Z</time></trkpt><trkpt lat="42.7607547" lon="13.0020472"><ele>540.3333333333334</ele><time>2026-05-01T12:02:06.923Z</time></trkpt><trkpt lat="42.7609139" lon="13.0020938"><ele>538.0</ele><time>2026-05-01T12:02:07.923Z</time></trkpt><trkpt lat="42.7610513" lon="13.0021327"><ele>537.25</ele><time>2026-05-01T12:02:08.923Z</time></trkpt><trkpt lat="42.7611841" lon="13.002196"><ele>536.5</ele><time>2026-05-01T12:02:09.923Z</time></trkpt><trkpt lat="42.7613073" lon="13.0022943"><ele>535.75</ele><time>2026-05-01T12:02:10.923Z</time></trkpt><trkpt lat="42.7614113" lon="13.002454"><ele>535.0</ele><time>2026-05-01T12:02:11.923Z</time></trkpt><trkpt lat="42.7615225" lon="13.0026732"><ele>535.0</ele><time>2026-05-01T12:02:12.923Z</time></trkpt><trkpt lat="42.7616327" lon="13.0029601"><ele>535.0</ele><time>2026-05-01T12:02:13.923Z</time></trkpt><trkpt lat="42.7617752" lon="13.0031719"><ele>535.0</ele><time>2026-05-01T12:02:14.923Z</time></trkpt><trkpt lat="42.7619361" lon="13.0033341"><ele>537.0</ele><time>2026-05-01T12:02:15.922Z</time></trkpt><trkpt lat="42.7621088" lon="13.0034561"><ele>539.0</ele><time>2026-05-01T12:02:16.922Z</time></trkpt><trkpt lat="42.7622845" lon="13.0035427"><ele>541.0</ele><time>2026-05-01T12:02:17.922Z</time></trkpt><trkpt lat="42.7624816" lon="13.003565"><ele>544.5</ele><time>2026-05-01T12:02:18.923Z</time></trkpt><trkpt lat="42.7627078" lon="13.0034966"><ele>548.0</ele><time>2026-05-01T12:02:19.922Z</time></trkpt><trkpt lat="42.7629379" lon="13.0033823"><ele>542.3333333333333</ele><time>2026-05-01T12:02:20.923Z</time></trkpt><trkpt lat="42.7631535" lon="13.0032515"><ele>536.6666666666666</ele><time>2026-05-01T12:02:21.922Z</time></trkpt><trkpt lat="42.7633415" lon="13.0031252"><ele>531.0</ele><time>2026-05-01T12:02:22.923Z</time></trkpt><trkpt lat="42.7635101" lon="13.0029864"><ele>531.0</ele><time>2026-05-01T12:02:23.922Z</time></trkpt><trkpt lat="42.7636487" lon="13.0028714"><ele>531.0</ele><time>2026-05-01T12:02:24.923Z</time></trkpt><trkpt lat="42.763777" lon="13.0027807"><ele>531.0</ele><time>2026-05-01T12:02:25.923Z</time></trkpt><trkpt lat="42.7639027" lon="13.0027465"><ele>531.0</ele><time>2026-05-01T12:02:26.922Z</time></trkpt><trkpt lat="42.7640298" lon="13.0027995"><ele>531.0</ele><time>2026-05-01T12:02:27.923Z</time></trkpt><trkpt lat="42.7641806" lon="13.0029511"><ele>531.0</ele><time>2026-05-01T12:02:28.922Z</time></trkpt><trkpt lat="42.7643551" lon="13.0031226"><ele>531.0</ele><time>2026-05-01T12:02:29.923Z</time></trkpt><trkpt lat="42.7645605" lon="13.0032454"><ele>531.0</ele><time>2026-05-01T12:02:30.923Z</time></trkpt><trkpt lat="42.7647947" lon="13.0033127"><ele>531.0</ele><time>2026-05-01T12:02:31.922Z</time></trkpt><trkpt lat="42.7650312" lon="13.0033571"><ele>535.0</ele><time>2026-05-01T12:02:32.923Z</time></trkpt><trkpt lat="42.7652787" lon="13.0034114"><ele>539.0</ele><time>2026-05-01T12:02:33.923Z</time></trkpt><trkpt lat="42.7655222" lon="13.0034412"><ele>539.0</ele><time>2026-05-01T12:02:34.923Z</time></trkpt><trkpt lat="42.7657755" lon="13.0034216"><ele>539.0</ele><time>2026-05-01T12:02:35.923Z</time></trkpt><trkpt lat="42.7660115" lon="13.0033638"><ele>533.0</ele><time>2026-05-01T12:02:36.923Z</time></trkpt><trkpt lat="42.7662305" lon="13.0032675"><ele>527.0</ele><time>2026-05-01T12:02:37.922Z</time></trkpt><trkpt lat="42.7664381" lon="13.003155"><ele>527.0</ele><time>2026-05-01T12:02:38.922Z</time></trkpt><trkpt lat="42.7666367" lon="13.0030678"><ele>527.0</ele><time>2026-05-01T12:02:39.922Z</time></trkpt><trkpt lat="42.766833" lon="13.003018"><ele>527.0</ele><time>2026-05-01T12:02:40.923Z</time></trkpt><trkpt lat="42.7670356" lon="13.0030055"><ele>526.5</ele><time>2026-05-01T12:02:41.923Z</time></trkpt><trkpt lat="42.7672513" lon="13.0030271"><ele>526.0</ele><time>2026-05-01T12:02:42.923Z</time></trkpt><trkpt lat="42.767485" lon="13.0030709"><ele>529.0</ele><time>2026-05-01T12:02:43.923Z</time></trkpt><trkpt lat="42.767727" lon="13.0031427"><ele>532.0</ele><time>2026-05-01T12:02:44.923Z</time></trkpt><trkpt lat="42.7679722" lon="13.0032095"><ele>532.0</ele><time>2026-05-01T12:02:45.923Z</time></trkpt><trkpt lat="42.7682185" lon="13.0032601"><ele>532.0</ele><time>2026-05-01T12:02:46.923Z</time></trkpt><trkpt lat="42.7684458" lon="13.003303"><ele>531.0</ele><time>2026-05-01T12:02:47.923Z</time></trkpt><trkpt lat="42.7686244" lon="13.0033595"><ele>530.0</ele><time>2026-05-01T12:02:48.922Z</time></trkpt><trkpt lat="42.7687592" lon="13.0034413"><ele>529.0</ele><time>2026-05-01T12:02:49.923Z</time></trkpt><trkpt lat="42.7688873" lon="13.0035458"><ele>529.0</ele><time>2026-05-01T12:02:50.923Z</time></trkpt><trkpt lat="42.7689978" lon="13.0036893"><ele>529.0</ele><time>2026-05-01T12:02:51.923Z</time></trkpt><trkpt lat="42.769096" lon="13.0039007"><ele>529.0</ele><time>2026-05-01T12:02:52.922Z</time></trkpt><trkpt lat="42.7692016" lon="13.0041574"><ele>528.6666666666667</ele><time>2026-05-01T12:02:53.922Z</time></trkpt><trkpt lat="42.7693358" lon="13.0043958"><ele>528.3333333333334</ele><time>2026-05-01T12:02:54.923Z</time></trkpt><trkpt lat="42.7695115" lon="13.0045915"><ele>528.0</ele><time>2026-05-01T12:02:55.923Z</time></trkpt><trkpt lat="42.7697008" lon="13.0047853"><ele>528.0</ele><time>2026-05-01T12:02:56.923Z</time></trkpt><trkpt lat="42.7699011" lon="13.0049426"><ele>528.0</ele><time>2026-05-01T12:02:57.923Z</time></trkpt><trkpt lat="42.7701044" lon="13.0050465"><ele>528.0</ele><time>2026-05-01T12:02:58.923Z</time></trkpt><trkpt lat="42.7703184" lon="13.0051176"><ele>528.0</ele><time>2026-05-01T12:02:59.923Z</time></trkpt><trkpt lat="42.7705069" lon="13.0051929"><ele>528.0</ele><time>2026-05-01T12:03:00.923Z</time></trkpt><trkpt lat="42.7706894" lon="13.0052697"><ele>528.0</ele><time>2026-05-01T12:03:01.922Z</time></trkpt><trkpt lat="42.7708455" lon="13.005385"><ele>528.0</ele><time>2026-05-01T12:03:02.922Z</time></trkpt><trkpt lat="42.7709683" lon="13.0055366"><ele>528.0</ele><time>2026-05-01T12:03:03.922Z</time></trkpt><trkpt lat="42.7710561" lon="13.0057155"><ele>528.0</ele><time>2026-05-01T12:03:04.923Z</time></trkpt><trkpt lat="42.7711077" lon="13.0059592"><ele>526.5</ele><time>2026-05-01T12:03:05.923Z</time></trkpt><trkpt lat="42.7711035" lon="13.0062517"><ele>525.0</ele><time>2026-05-01T12:03:06.923Z</time></trkpt><trkpt lat="42.7710864" lon="13.0065796"><ele>524.0</ele><time>2026-05-01T12:03:07.923Z</time></trkpt><trkpt lat="42.771089" lon="13.0069114"><ele>523.0</ele><time>2026-05-01T12:03:08.923Z</time></trkpt><trkpt lat="42.7711201" lon="13.0072345"><ele>523.0</ele><time>2026-05-01T12:03:09.923Z</time></trkpt><trkpt lat="42.7711843" lon="13.007549"><ele>523.0</ele><time>2026-05-01T12:03:10.923Z</time></trkpt><trkpt lat="42.7712789" lon="13.0078277"><ele>523.0</ele><time>2026-05-01T12:03:11.923Z</time></trkpt><trkpt lat="42.7713794" lon="13.008069"><ele>523.0</ele><time>2026-05-01T12:03:12.923Z</time></trkpt><trkpt lat="42.7715077" lon="13.0082701"><ele>523.0</ele><time>2026-05-01T12:03:13.923Z</time></trkpt><trkpt lat="42.771657" lon="13.0084259"><ele>524.0</ele><time>2026-05-01T12:03:14.923Z</time></trkpt><trkpt lat="42.7718359" lon="13.0085278"><ele>525.0</ele><time>2026-05-01T12:03:15.922Z</time></trkpt><trkpt lat="42.7720483" lon="13.0085617"><ele>526.0</ele><time>2026-05-01T12:03:16.923Z</time></trkpt><trkpt lat="42.7722629" lon="13.0085613"><ele>526.0</ele><time>2026-05-01T12:03:17.924Z</time></trkpt><trkpt lat="42.77249" lon="13.0085597"><ele>526.0</ele><time>2026-05-01T12:03:18.924Z</time></trkpt><trkpt lat="42.7727228" lon="13.0085554"><ele>524.5</ele><time>2026-05-01T12:03:19.923Z</time></trkpt><trkpt lat="42.772949" lon="13.0085875"><ele>523.0</ele><time>2026-05-01T12:03:20.924Z</time></trkpt><trkpt lat="42.77319" lon="13.0086335"><ele>523.0</ele><time>2026-05-01T12:03:21.924Z</time></trkpt><trkpt lat="42.7734292" lon="13.0087067"><ele>523.0</ele><time>2026-05-01T12:03:22.924Z</time></trkpt><trkpt lat="42.7736716" lon="13.0087831"><ele>522.0</ele><time>2026-05-01T12:03:23.923Z</time></trkpt><trkpt lat="42.7739045" lon="13.0088801"><ele>521.0</ele><time>2026-05-01T12:03:24.924Z</time></trkpt><trkpt lat="42.7741294" lon="13.0089931"><ele>521.0</ele><time>2026-05-01T12:03:25.924Z</time></trkpt><trkpt lat="42.7743147" lon="13.0090958"><ele>521.0</ele><time>2026-05-01T12:03:26.924Z</time></trkpt><trkpt lat="42.7744266" lon="13.0091904"><ele>521.0</ele><time>2026-05-01T12:03:27.924Z</time></trkpt><trkpt lat="42.7745217" lon="13.0092882"><ele>520.75</ele><time>2026-05-01T12:03:28.924Z</time></trkpt><trkpt lat="42.7745802" lon="13.0094077"><ele>520.5</ele><time>2026-05-01T12:03:29.924Z</time></trkpt><trkpt lat="42.7745883" lon="13.0095569"><ele>520.25</ele><time>2026-05-01T12:03:30.923Z</time></trkpt><trkpt lat="42.7745776" lon="13.0097524"><ele>520.0</ele><time>2026-05-01T12:03:31.924Z</time></trkpt><trkpt lat="42.7745242" lon="13.0099669"><ele>519.6666666666667</ele><time>2026-05-01T12:03:32.923Z</time></trkpt><trkpt lat="42.7744667" lon="13.0102157"><ele>519.3333333333334</ele><time>2026-05-01T12:03:33.924Z</time></trkpt><trkpt lat="42.774398" lon="13.0105054"><ele>519.0</ele><time>2026-05-01T12:03:34.923Z</time></trkpt><trkpt lat="42.7743355" lon="13.0108079"><ele>526.5</ele><time>2026-05-01T12:03:35.924Z</time></trkpt><trkpt lat="42.7742706" lon="13.0111127"><ele>534.0</ele><time>2026-05-01T12:03:36.924Z</time></trkpt><trkpt lat="42.7742052" lon="13.0114116"><ele>532.0</ele><time>2026-05-01T12:03:37.924Z</time></trkpt><trkpt lat="42.7741517" lon="13.0117222"><ele>530.0</ele><time>2026-05-01T12:03:38.924Z</time></trkpt><trkpt lat="42.7741219" lon="13.0120445"><ele>530.0</ele><time>2026-05-01T12:03:39.924Z</time></trkpt><trkpt lat="42.7741289" lon="13.0123739"><ele>530.0</ele><time>2026-05-01T12:03:40.924Z</time></trkpt><trkpt lat="42.7741683" lon="13.0127119"><ele>529.5</ele><time>2026-05-01T12:03:41.924Z</time></trkpt><trkpt lat="42.7742282" lon="13.0130481"><ele>529.0</ele><time>2026-05-01T12:03:42.924Z</time></trkpt><trkpt lat="42.7743025" lon="13.0133749"><ele>523.0</ele><time>2026-05-01T12:03:43.924Z</time></trkpt><trkpt lat="42.7744004" lon="13.0136998"><ele>517.0</ele><time>2026-05-01T12:03:44.924Z</time></trkpt><trkpt lat="42.7745287" lon="13.014023"><ele>517.5</ele><time>2026-05-01T12:03:45.923Z</time></trkpt><trkpt lat="42.7746736" lon="13.0143213"><ele>518.0</ele><time>2026-05-01T12:03:46.924Z</time></trkpt><trkpt lat="42.7748288" lon="13.0146159"><ele>518.0</ele><time>2026-05-01T12:03:47.924Z</time></trkpt><trkpt lat="42.7749831" lon="13.0149098"><ele>518.0</ele><time>2026-05-01T12:03:48.923Z</time></trkpt><trkpt lat="42.7751258" lon="13.0152194"><ele>516.5</ele><time>2026-05-01T12:03:49.924Z</time></trkpt><trkpt lat="42.7752602" lon="13.0155214"><ele>515.0</ele><time>2026-05-01T12:03:50.924Z</time></trkpt><trkpt lat="42.7753771" lon="13.0157979"><ele>515.3333333333333</ele><time>2026-05-01T12:03:51.924Z</time></trkpt><trkpt lat="42.7754735" lon="13.0160255"><ele>515.6666666666666</ele><time>2026-05-01T12:03:52.924Z</time></trkpt><trkpt lat="42.7755911" lon="13.0162107"><ele>516.0</ele><time>2026-05-01T12:03:53.924Z</time></trkpt><trkpt lat="42.775754" lon="13.0163582"><ele>516.0</ele><time>2026-05-01T12:03:54.924Z</time></trkpt><trkpt lat="42.775955" lon="13.016474"><ele>516.0</ele><time>2026-05-01T12:03:55.924Z</time></trkpt><trkpt lat="42.7761872" lon="13.0165591"><ele>515.0</ele><time>2026-05-01T12:03:56.924Z</time></trkpt><trkpt lat="42.7764354" lon="13.0166034"><ele>514.0</ele><time>2026-05-01T12:03:57.924Z</time></trkpt><trkpt lat="42.776687" lon="13.0166232"><ele>514.0</ele><time>2026-05-01T12:03:58.924Z</time></trkpt><trkpt lat="42.7769164" lon="13.0166076"><ele>514.0</ele><time>2026-05-01T12:03:59.924Z</time></trkpt><trkpt lat="42.7770733" lon="13.0165773"><ele>514.0</ele><time>2026-05-01T12:04:00.924Z</time></trkpt><trkpt lat="42.7772103" lon="13.0165512"><ele>514.0</ele><time>2026-05-01T12:04:01.923Z</time></trkpt><trkpt lat="42.777342" lon="13.0165694"><ele>514.0</ele><time>2026-05-01T12:04:02.924Z</time></trkpt><trkpt lat="42.7774711" lon="13.0166878"><ele>514.0</ele><time>2026-05-01T12:04:03.924Z</time></trkpt><trkpt lat="42.777604" lon="13.0169251"><ele>515.0</ele><time>2026-05-01T12:04:04.924Z</time></trkpt><trkpt lat="42.7777556" lon="13.0171956"><ele>516.0</ele><time>2026-05-01T12:04:05.924Z</time></trkpt><trkpt lat="42.7779281" lon="13.0174305"><ele>519.5</ele><time>2026-05-01T12:04:06.924Z</time></trkpt><trkpt lat="42.778107" lon="13.0176417"><ele>523.0</ele><time>2026-05-01T12:04:07.923Z</time></trkpt><trkpt lat="42.7782848" lon="13.0178216"><ele>523.0</ele><time>2026-05-01T12:04:08.924Z</time></trkpt><trkpt lat="42.7784584" lon="13.0179738"><ele>523.0</ele><time>2026-05-01T12:04:09.924Z</time></trkpt><trkpt lat="42.7786361" lon="13.0181218"><ele>523.0</ele><time>2026-05-01T12:04:10.924Z</time></trkpt><trkpt lat="42.7788297" lon="13.0182793"><ele>518.0</ele><time>2026-05-01T12:04:11.924Z</time></trkpt><trkpt lat="42.7790009" lon="13.0185021"><ele>513.0</ele><time>2026-05-01T12:04:12.923Z</time></trkpt><trkpt lat="42.7791759" lon="13.0187541"><ele>513.0</ele><time>2026-05-01T12:04:13.924Z</time></trkpt><trkpt lat="42.7793635" lon="13.0190059"><ele>513.0</ele><time>2026-05-01T12:04:14.924Z</time></trkpt><trkpt lat="42.7795624" lon="13.0192374"><ele>513.0</ele><time>2026-05-01T12:04:15.924Z</time></trkpt><trkpt lat="42.7797696" lon="13.0194543"><ele>513.0</ele><time>2026-05-01T12:04:16.923Z</time></trkpt><trkpt lat="42.779983" lon="13.0196424"><ele>509.5</ele><time>2026-05-01T12:04:17.924Z</time></trkpt><trkpt lat="42.7801897" lon="13.0198299"><ele>506.0</ele><time>2026-05-01T12:04:18.924Z</time></trkpt><trkpt lat="42.7803777" lon="13.0200473"><ele>506.0</ele><time>2026-05-01T12:04:19.924Z</time></trkpt><trkpt lat="42.7805474" lon="13.0203003"><ele>506.0</ele><time>2026-05-01T12:04:20.924Z</time></trkpt><trkpt lat="42.7807145" lon="13.0205793"><ele>508.0</ele><time>2026-05-01T12:04:21.923Z</time></trkpt><trkpt lat="42.7808729" lon="13.0208596"><ele>510.0</ele><time>2026-05-01T12:04:22.923Z</time></trkpt><trkpt lat="42.7810169" lon="13.0211132"><ele>510.0</ele><time>2026-05-01T12:04:23.923Z</time></trkpt><trkpt lat="42.7811502" lon="13.0213375"><ele>510.0</ele><time>2026-05-01T12:04:24.924Z</time></trkpt><trkpt lat="42.7812809" lon="13.0215324"><ele>510.0</ele><time>2026-05-01T12:04:25.924Z</time></trkpt><trkpt lat="42.7814256" lon="13.021719"><ele>514.0</ele><time>2026-05-01T12:04:26.923Z</time></trkpt><trkpt lat="42.7816219" lon="13.0218653"><ele>518.0</ele><time>2026-05-01T12:04:27.923Z</time></trkpt><trkpt lat="42.7818394" lon="13.0220072"><ele>513.5</ele><time>2026-05-01T12:04:28.924Z</time></trkpt><trkpt lat="42.782061" lon="13.0221521"><ele>509.0</ele><time>2026-05-01T12:04:29.924Z</time></trkpt><trkpt lat="42.7822952" lon="13.0223098"><ele>509.0</ele><time>2026-05-01T12:04:30.924Z</time></trkpt><trkpt lat="42.7825277" lon="13.0224578"><ele>509.0</ele><time>2026-05-01T12:04:31.923Z</time></trkpt><trkpt lat="42.7827502" lon="13.0225937"><ele>509.5</ele><time>2026-05-01T12:04:32.924Z</time></trkpt><trkpt lat="42.7829797" lon="13.0227196"><ele>510.0</ele><time>2026-05-01T12:04:33.924Z</time></trkpt><trkpt lat="42.7832174" lon="13.0228204"><ele>510.0</ele><time>2026-05-01T12:04:34.924Z</time></trkpt><trkpt lat="42.7834752" lon="13.0228687"><ele>510.0</ele><time>2026-05-01T12:04:35.924Z</time></trkpt><trkpt lat="42.7837305" lon="13.0229123"><ele>508.5</ele><time>2026-05-01T12:04:36.924Z</time></trkpt><trkpt lat="42.7839702" lon="13.0229295"><ele>507.0</ele><time>2026-05-01T12:04:37.924Z</time></trkpt><trkpt lat="42.7841879" lon="13.0229091"><ele>506.0</ele><time>2026-05-01T12:04:38.923Z</time></trkpt><trkpt lat="42.7843905" lon="13.0228745"><ele>505.0</ele><time>2026-05-01T12:04:39.924Z</time></trkpt><trkpt lat="42.7845832" lon="13.0228348"><ele>504.0</ele><time>2026-05-01T12:04:40.924Z</time></trkpt><trkpt lat="42.7847649" lon="13.0228093"><ele>504.0</ele><time>2026-05-01T12:04:41.924Z</time></trkpt><trkpt lat="42.7849223" lon="13.022781"><ele>504.0</ele><time>2026-05-01T12:04:42.923Z</time></trkpt><trkpt lat="42.7850596" lon="13.0227465"><ele>504.0</ele><time>2026-05-01T12:04:43.924Z</time></trkpt><trkpt lat="42.7851876" lon="13.0227234"><ele>504.0</ele><time>2026-05-01T12:04:44.924Z</time></trkpt><trkpt lat="42.7853093" lon="13.0226983"><ele>506.5</ele><time>2026-05-01T12:04:45.924Z</time></trkpt><trkpt lat="42.7854201" lon="13.0226768"><ele>509.0</ele><time>2026-05-01T12:04:46.924Z</time></trkpt><trkpt lat="42.7855117" lon="13.022665"><ele>511.5</ele><time>2026-05-01T12:04:47.924Z</time></trkpt><trkpt lat="42.7855812" lon="13.022663"><ele>514.0</ele><time>2026-05-01T12:04:48.923Z</time></trkpt><trkpt lat="42.7856674" lon="13.022646"><ele>516.5</ele><time>2026-05-01T12:04:50.924Z</time></trkpt><trkpt lat="42.7857461" lon="13.0226674"><ele>519.0</ele><time>2026-05-01T12:04:53.924Z</time></trkpt><trkpt lat="42.7858004" lon="13.0227971"><ele>519.0</ele><time>2026-05-01T12:04:56.924Z</time></trkpt><trkpt lat="42.7858081" lon="13.0229174"><ele>519.0</ele><time>2026-05-01T12:04:57.924Z</time></trkpt><trkpt lat="42.7858033" lon="13.0230561"><ele>519.0</ele><time>2026-05-01T12:04:58.924Z</time></trkpt><trkpt lat="42.785802" lon="13.0232212"><ele>519.0</ele><time>2026-05-01T12:04:59.924Z</time></trkpt><trkpt lat="42.7857972" lon="13.0234171"><ele>520.0</ele><time>2026-05-01T12:05:00.924Z</time></trkpt><trkpt lat="42.7857907" lon="13.0236227"><ele>521.0</ele><time>2026-05-01T12:05:01.923Z</time></trkpt><trkpt lat="42.7857845" lon="13.0238266"><ele>522.0</ele><time>2026-05-01T12:05:02.923Z</time></trkpt><trkpt lat="42.7857881" lon="13.0240484"><ele>521.6666666666666</ele><time>2026-05-01T12:05:03.923Z</time></trkpt><trkpt lat="42.7857935" lon="13.0242896"><ele>521.3333333333333</ele><time>2026-05-01T12:05:04.924Z</time></trkpt><trkpt lat="42.7858047" lon="13.0245467"><ele>521.0</ele><time>2026-05-01T12:05:05.923Z</time></trkpt><trkpt lat="42.7858315" lon="13.0248305"><ele>518.6666666666666</ele><time>2026-05-01T12:05:06.923Z</time></trkpt><trkpt lat="42.7858818" lon="13.0251317"><ele>516.3333333333334</ele><time>2026-05-01T12:05:07.923Z</time></trkpt><trkpt lat="42.7859535" lon="13.0254168"><ele>514.0</ele><time>2026-05-01T12:05:08.924Z</time></trkpt><trkpt lat="42.7860232" lon="13.0256835"><ele>517.0</ele><time>2026-05-01T12:05:09.924Z</time></trkpt><trkpt lat="42.7861028" lon="13.0259503"><ele>520.0</ele><time>2026-05-01T12:05:10.923Z</time></trkpt><trkpt lat="42.7861794" lon="13.0262141"><ele>523.0</ele><time>2026-05-01T12:05:11.924Z</time></trkpt><trkpt lat="42.7867722" lon="13.0285524"><ele>523.0</ele><time>2026-05-01T12:05:20.924Z</time></trkpt><trkpt lat="42.786836" lon="13.0288375"><ele>523.0</ele><time>2026-05-01T12:05:21.923Z</time></trkpt><trkpt lat="42.7868957" lon="13.0290799"><ele>523.0</ele><time>2026-05-01T12:05:22.924Z</time></trkpt><trkpt lat="42.7869442" lon="13.0293205"><ele>531.3333333333334</ele><time>2026-05-01T12:05:23.924Z</time></trkpt><trkpt lat="42.7869893" lon="13.0295513"><ele>539.6666666666666</ele><time>2026-05-01T12:05:24.923Z</time></trkpt><trkpt lat="42.7870374" lon="13.0297772"><ele>548.0</ele><time>2026-05-01T12:05:25.923Z</time></trkpt><trkpt lat="42.7870857" lon="13.0300044"><ele>548.0</ele><time>2026-05-01T12:05:26.924Z</time></trkpt><trkpt lat="42.7871378" lon="13.0302265"><ele>548.0</ele><time>2026-05-01T12:05:27.923Z</time></trkpt><trkpt lat="42.7871967" lon="13.03047"><ele>548.0</ele><time>2026-05-01T12:05:28.924Z</time></trkpt><trkpt lat="42.7872561" lon="13.0307491"><ele>541.5</ele><time>2026-05-01T12:05:29.924Z</time></trkpt><trkpt lat="42.7873193" lon="13.0310515"><ele>535.0</ele><time>2026-05-01T12:05:30.924Z</time></trkpt><trkpt lat="42.7873793" lon="13.031363"><ele>533.5</ele><time>2026-05-01T12:05:31.924Z</time></trkpt><trkpt lat="42.7874326" lon="13.0316889"><ele>532.0</ele><time>2026-05-01T12:05:32.924Z</time></trkpt><trkpt lat="42.7874868" lon="13.0320155"><ele>532.0</ele><time>2026-05-01T12:05:33.924Z</time></trkpt><trkpt lat="42.7875335" lon="13.0323422"><ele>532.0</ele><time>2026-05-01T12:05:34.924Z</time></trkpt><trkpt lat="42.7875753" lon="13.0326621"><ele>531.0</ele><time>2026-05-01T12:05:35.923Z</time></trkpt><trkpt lat="42.787604" lon="13.0330072"><ele>530.0</ele><time>2026-05-01T12:05:36.924Z</time></trkpt><trkpt lat="42.7876194" lon="13.0333481"><ele>528.5</ele><time>2026-05-01T12:05:37.924Z</time></trkpt><trkpt lat="42.7876245" lon="13.0336889"><ele>527.0</ele><time>2026-05-01T12:05:38.924Z</time></trkpt><trkpt lat="42.7876183" lon="13.0340065"><ele>525.5</ele><time>2026-05-01T12:05:39.923Z</time></trkpt><trkpt lat="42.787627" lon="13.0343255"><ele>524.0</ele><time>2026-05-01T12:05:40.924Z</time></trkpt><trkpt lat="42.7876572" lon="13.0346394"><ele>541.5</ele><time>2026-05-01T12:05:41.924Z</time></trkpt><trkpt lat="42.78771" lon="13.0349471"><ele>559.0</ele><time>2026-05-01T12:05:42.924Z</time></trkpt><trkpt lat="42.7877852" lon="13.0352611"><ele>559.0</ele><time>2026-05-01T12:05:43.924Z</time></trkpt><trkpt lat="42.7878703" lon="13.0355656"><ele>559.0</ele><time>2026-05-01T12:05:44.924Z</time></trkpt><trkpt lat="42.7879588" lon="13.0358711"><ele>550.5</ele><time>2026-05-01T12:05:45.923Z</time></trkpt><trkpt lat="42.7880558" lon="13.03618"><ele>542.0</ele><time>2026-05-01T12:05:46.923Z</time></trkpt><trkpt lat="42.7881611" lon="13.0365004"><ele>534.0</ele><time>2026-05-01T12:05:47.923Z</time></trkpt><trkpt lat="42.7882585" lon="13.0368151"><ele>526.0</ele><time>2026-05-01T12:05:48.924Z</time></trkpt><trkpt lat="42.788352" lon="13.0371412"><ele>526.0</ele><time>2026-05-01T12:05:49.924Z</time></trkpt><trkpt lat="42.7884511" lon="13.0374633"><ele>526.0</ele><time>2026-05-01T12:05:50.924Z</time></trkpt><trkpt lat="42.7885538" lon="13.0377854"><ele>530.5</ele><time>2026-05-01T12:05:51.924Z</time></trkpt><trkpt lat="42.7886534" lon="13.0381195"><ele>535.0</ele><time>2026-05-01T12:05:52.923Z</time></trkpt><trkpt lat="42.7887557" lon="13.0384573"><ele>535.0</ele><time>2026-05-01T12:05:53.923Z</time></trkpt><trkpt lat="42.7888591" lon="13.0387944"><ele>535.0</ele><time>2026-05-01T12:05:54.924Z</time></trkpt><trkpt lat="42.7889633" lon="13.0391214"><ele>535.5</ele><time>2026-05-01T12:05:55.924Z</time></trkpt><trkpt lat="42.7890634" lon="13.039457"><ele>536.0</ele><time>2026-05-01T12:05:56.923Z</time></trkpt><trkpt lat="42.7891624" lon="13.0397904"><ele>535.0</ele><time>2026-05-01T12:05:57.924Z</time></trkpt><trkpt lat="42.7892678" lon="13.0401224"><ele>534.0</ele><time>2026-05-01T12:05:58.924Z</time></trkpt><trkpt lat="42.7893728" lon="13.0404423"><ele>551.0</ele><time>2026-05-01T12:05:59.924Z</time></trkpt><trkpt lat="42.7894631" lon="13.0407622"><ele>568.0</ele><time>2026-05-01T12:06:00.924Z</time></trkpt><trkpt lat="42.7895322" lon="13.0410769"><ele>568.0</ele><time>2026-05-01T12:06:01.924Z</time></trkpt><trkpt lat="42.7895768" lon="13.0414128"><ele>568.0</ele><time>2026-05-01T12:06:02.924Z</time></trkpt><trkpt lat="42.7896053" lon="13.0417494"><ele>564.0</ele><time>2026-05-01T12:06:03.924Z</time></trkpt><trkpt lat="42.7896071" lon="13.0420856"><ele>560.0</ele><time>2026-05-01T12:06:04.924Z</time></trkpt><trkpt lat="42.7895672" lon="13.0424402"><ele>563.0</ele><time>2026-05-01T12:06:05.924Z</time></trkpt><trkpt lat="42.7894882" lon="13.0428127"><ele>566.0</ele><time>2026-05-01T12:06:06.923Z</time></trkpt><trkpt lat="42.7893935" lon="13.0431693"><ele>549.5</ele><time>2026-05-01T12:06:07.924Z</time></trkpt><trkpt lat="42.7892875" lon="13.04352"><ele>533.0</ele><time>2026-05-01T12:06:08.924Z</time></trkpt><trkpt lat="42.7891815" lon="13.0438673"><ele>538.5</ele><time>2026-05-01T12:06:09.924Z</time></trkpt><trkpt lat="42.7890953" lon="13.044211"><ele>544.0</ele><time>2026-05-01T12:06:10.924Z</time></trkpt><trkpt lat="42.7890299" lon="13.0445612"><ele>544.0</ele><time>2026-05-01T12:06:11.924Z</time></trkpt><trkpt lat="42.7889881" lon="13.0449183"><ele>544.0</ele><time>2026-05-01T12:06:12.924Z</time></trkpt><trkpt lat="42.7889756" lon="13.0452763"><ele>544.0</ele><time>2026-05-01T12:06:13.924Z</time></trkpt><trkpt lat="42.7889899" lon="13.0456316"><ele>544.0</ele><time>2026-05-01T12:06:14.924Z</time></trkpt><trkpt lat="42.7890265" lon="13.0459794"><ele>544.0</ele><time>2026-05-01T12:06:15.924Z</time></trkpt><trkpt lat="42.7890886" lon="13.0463286"><ele>544.0</ele><time>2026-05-01T12:06:16.923Z</time></trkpt><trkpt lat="42.7891657" lon="13.0466595"><ele>542.5</ele><time>2026-05-01T12:06:17.924Z</time></trkpt><trkpt lat="42.7892672" lon="13.0469889"><ele>541.0</ele><time>2026-05-01T12:06:18.924Z</time></trkpt><trkpt lat="42.7893849" lon="13.0473053"><ele>553.5</ele><time>2026-05-01T12:06:19.923Z</time></trkpt><trkpt lat="42.78951" lon="13.0476177"><ele>566.0</ele><time>2026-05-01T12:06:20.924Z</time></trkpt><trkpt lat="42.7896347" lon="13.0479187"><ele>566.0</ele><time>2026-05-01T12:06:21.924Z</time></trkpt><trkpt lat="42.7897468" lon="13.0482354"><ele>566.0</ele><time>2026-05-01T12:06:22.924Z</time></trkpt><trkpt lat="42.7898462" lon="13.0485503"><ele>554.5</ele><time>2026-05-01T12:06:23.924Z</time></trkpt><trkpt lat="42.7899319" lon="13.0488645"><ele>543.0</ele><time>2026-05-01T12:06:24.923Z</time></trkpt><trkpt lat="42.7899954" lon="13.0491955"><ele>542.5</ele><time>2026-05-01T12:06:25.924Z</time></trkpt><trkpt lat="42.7900384" lon="13.0495211"><ele>542.0</ele><time>2026-05-01T12:06:26.924Z</time></trkpt><trkpt lat="42.7900495" lon="13.0498615"><ele>542.0</ele><time>2026-05-01T12:06:27.924Z</time></trkpt><trkpt lat="42.7900345" lon="13.0502082"><ele>542.0</ele><time>2026-05-01T12:06:28.924Z</time></trkpt><trkpt lat="42.7900249" lon="13.050575"><ele>540.5</ele><time>2026-05-01T12:06:29.924Z</time></trkpt><trkpt lat="42.7900051" lon="13.0509302"><ele>539.0</ele><time>2026-05-01T12:06:30.924Z</time></trkpt><trkpt lat="42.7899824" lon="13.0513011"><ele>540.5</ele><time>2026-05-01T12:06:31.924Z</time></trkpt><trkpt lat="42.7899673" lon="13.051662"><ele>542.0</ele><time>2026-05-01T12:06:32.923Z</time></trkpt><trkpt lat="42.7899542" lon="13.0520327"><ele>542.0</ele><time>2026-05-01T12:06:33.924Z</time></trkpt><trkpt lat="42.7899429" lon="13.0524048"><ele>542.0</ele><time>2026-05-01T12:06:34.924Z</time></trkpt><trkpt lat="42.7899365" lon="13.0527776"><ele>541.0</ele><time>2026-05-01T12:06:35.923Z</time></trkpt><trkpt lat="42.7899257" lon="13.0531488"><ele>540.0</ele><time>2026-05-01T12:06:36.924Z</time></trkpt><trkpt lat="42.7899152" lon="13.0535248"><ele>538.5</ele><time>2026-05-01T12:06:37.923Z</time></trkpt><trkpt lat="42.7899038" lon="13.0538966"><ele>537.0</ele><time>2026-05-01T12:06:38.924Z</time></trkpt><trkpt lat="42.7898948" lon="13.0542679"><ele>536.0</ele><time>2026-05-01T12:06:39.924Z</time></trkpt><trkpt lat="42.7898851" lon="13.05464"><ele>535.0</ele><time>2026-05-01T12:06:40.923Z</time></trkpt><trkpt lat="42.7898807" lon="13.0550156"><ele>537.0</ele><time>2026-05-01T12:06:41.924Z</time></trkpt><trkpt lat="42.7898756" lon="13.0553878"><ele>539.0</ele><time>2026-05-01T12:06:42.923Z</time></trkpt><trkpt lat="42.7898679" lon="13.0557516"><ele>539.0</ele><time>2026-05-01T12:06:43.923Z</time></trkpt><trkpt lat="42.7898547" lon="13.056104"><ele>539.0</ele><time>2026-05-01T12:06:44.923Z</time></trkpt><trkpt lat="42.7898416" lon="13.0564423"><ele>541.5</ele><time>2026-05-01T12:06:45.924Z</time></trkpt><trkpt lat="42.7898342" lon="13.056773"><ele>544.0</ele><time>2026-05-01T12:06:46.923Z</time></trkpt><trkpt lat="42.7898356" lon="13.0570962"><ele>544.0</ele><time>2026-05-01T12:06:47.923Z</time></trkpt><trkpt lat="42.7898652" lon="13.0574142"><ele>544.0</ele><time>2026-05-01T12:06:48.924Z</time></trkpt><trkpt lat="42.7899378" lon="13.0577384"><ele>544.5</ele><time>2026-05-01T12:06:49.923Z</time></trkpt><trkpt lat="42.7900453" lon="13.05806"><ele>545.0</ele><time>2026-05-01T12:06:50.924Z</time></trkpt><trkpt lat="42.7901725" lon="13.0583836"><ele>558.0</ele><time>2026-05-01T12:06:51.923Z</time></trkpt><trkpt lat="42.7903009" lon="13.0587052"><ele>571.0</ele><time>2026-05-01T12:06:52.923Z</time></trkpt><trkpt lat="42.7904404" lon="13.0590408"><ele>565.0</ele><time>2026-05-01T12:06:53.924Z</time></trkpt><trkpt lat="42.790581" lon="13.0593818"><ele>559.0</ele><time>2026-05-01T12:06:54.923Z</time></trkpt><trkpt lat="42.7907129" lon="13.0597321"><ele>554.0</ele><time>2026-05-01T12:06:55.923Z</time></trkpt><trkpt lat="42.7908397" lon="13.060084"><ele>549.0</ele><time>2026-05-01T12:06:56.924Z</time></trkpt><trkpt lat="42.7909645" lon="13.0604383"><ele>552.5</ele><time>2026-05-01T12:06:57.924Z</time></trkpt><trkpt lat="42.7910913" lon="13.0607751"><ele>556.0</ele><time>2026-05-01T12:06:58.923Z</time></trkpt><trkpt lat="42.7912203" lon="13.0611138"><ele>556.0</ele><time>2026-05-01T12:06:59.924Z</time></trkpt><trkpt lat="42.7913459" lon="13.0614526"><ele>556.0</ele><time>2026-05-01T12:07:00.924Z</time></trkpt><trkpt lat="42.791467" lon="13.0617759"><ele>554.5</ele><time>2026-05-01T12:07:01.924Z</time></trkpt><trkpt lat="42.791581" lon="13.0620939"><ele>553.0</ele><time>2026-05-01T12:07:02.924Z</time></trkpt><trkpt lat="42.7916952" lon="13.0624089"><ele>554.0</ele><time>2026-05-01T12:07:03.924Z</time></trkpt><trkpt lat="42.7918143" lon="13.0627153"><ele>555.0</ele><time>2026-05-01T12:07:04.923Z</time></trkpt><trkpt lat="42.7919406" lon="13.0630211"><ele>558.5</ele><time>2026-05-01T12:07:05.923Z</time></trkpt><trkpt lat="42.7920727" lon="13.063308"><ele>562.0</ele><time>2026-05-01T12:07:06.924Z</time></trkpt><trkpt lat="42.7922174" lon="13.0635888"><ele>562.0</ele><time>2026-05-01T12:07:07.924Z</time></trkpt><trkpt lat="42.7923717" lon="13.0638687"><ele>562.0</ele><time>2026-05-01T12:07:08.924Z</time></trkpt><trkpt lat="42.7925214" lon="13.0641389"><ele>559.5</ele><time>2026-05-01T12:07:09.924Z</time></trkpt><trkpt lat="42.7926695" lon="13.0644106"><ele>557.0</ele><time>2026-05-01T12:07:10.923Z</time></trkpt><trkpt lat="42.7928157" lon="13.0646884"><ele>562.5</ele><time>2026-05-01T12:07:11.924Z</time></trkpt><trkpt lat="42.7929647" lon="13.0649636"><ele>568.0</ele><time>2026-05-01T12:07:12.923Z</time></trkpt><trkpt lat="42.7931158" lon="13.0652393"><ele>568.0</ele><time>2026-05-01T12:07:13.924Z</time></trkpt><trkpt lat="42.7932702" lon="13.065519"><ele>568.0</ele><time>2026-05-01T12:07:14.923Z</time></trkpt><trkpt lat="42.7934236" lon="13.0658112"><ele>572.0</ele><time>2026-05-01T12:07:15.923Z</time></trkpt><trkpt lat="42.7935831" lon="13.0661092"><ele>576.0</ele><time>2026-05-01T12:07:16.923Z</time></trkpt><trkpt lat="42.7937469" lon="13.0664078"><ele>569.5</ele><time>2026-05-01T12:07:17.924Z</time></trkpt><trkpt lat="42.7939113" lon="13.0667063"><ele>563.0</ele><time>2026-05-01T12:07:18.924Z</time></trkpt><trkpt lat="42.7940734" lon="13.0670061"><ele>563.0</ele><time>2026-05-01T12:07:19.924Z</time></trkpt><trkpt lat="42.7942354" lon="13.0673036"><ele>563.0</ele><time>2026-05-01T12:07:20.923Z</time></trkpt><trkpt lat="42.7943901" lon="13.0675902"><ele>562.0</ele><time>2026-05-01T12:07:21.923Z</time></trkpt><trkpt lat="42.7945362" lon="13.0678629"><ele>561.0</ele><time>2026-05-01T12:07:22.924Z</time></trkpt><trkpt lat="42.7946679" lon="13.0681268"><ele>560.0</ele><time>2026-05-01T12:07:23.924Z</time></trkpt><trkpt lat="42.7947981" lon="13.0683894"><ele>559.0</ele><time>2026-05-01T12:07:24.924Z</time></trkpt><trkpt lat="42.79492" lon="13.0686548"><ele>559.0</ele><time>2026-05-01T12:07:25.924Z</time></trkpt><trkpt lat="42.7950379" lon="13.0689179"><ele>559.0</ele><time>2026-05-01T12:07:26.923Z</time></trkpt><trkpt lat="42.7951503" lon="13.0691968"><ele>559.3333333333334</ele><time>2026-05-01T12:07:27.924Z</time></trkpt><trkpt lat="42.7952399" lon="13.0694705"><ele>559.6666666666666</ele><time>2026-05-01T12:07:28.924Z</time></trkpt><trkpt lat="42.7953053" lon="13.0697541"><ele>560.0</ele><time>2026-05-01T12:07:29.924Z</time></trkpt><trkpt lat="42.7953577" lon="13.0700571"><ele>559.0</ele><time>2026-05-01T12:07:30.923Z</time></trkpt><trkpt lat="42.7954008" lon="13.0703704"><ele>558.0</ele><time>2026-05-01T12:07:31.924Z</time></trkpt><trkpt lat="42.7954287" lon="13.0707044"><ele>558.5</ele><time>2026-05-01T12:07:32.924Z</time></trkpt><trkpt lat="42.7954538" lon="13.0710384"><ele>559.0</ele><time>2026-05-01T12:07:33.924Z</time></trkpt><trkpt lat="42.7954765" lon="13.0713705"><ele>560.0</ele><time>2026-05-01T12:07:34.923Z</time></trkpt><trkpt lat="42.7955053" lon="13.0716888"><ele>561.0</ele><time>2026-05-01T12:07:35.924Z</time></trkpt><trkpt lat="42.7955334" lon="13.0720259"><ele>561.0</ele><time>2026-05-01T12:07:36.924Z</time></trkpt><trkpt lat="42.7955695" lon="13.0723742"><ele>561.0</ele><time>2026-05-01T12:07:37.924Z</time></trkpt><trkpt lat="42.7956121" lon="13.0727219"><ele>562.0</ele><time>2026-05-01T12:07:38.924Z</time></trkpt><trkpt lat="42.7956541" lon="13.0730797"><ele>563.0</ele><time>2026-05-01T12:07:39.924Z</time></trkpt><trkpt lat="42.7956927" lon="13.0734297"><ele>560.5</ele><time>2026-05-01T12:07:40.924Z</time></trkpt><trkpt lat="42.7957341" lon="13.073773"><ele>558.0</ele><time>2026-05-01T12:07:41.924Z</time></trkpt><trkpt lat="42.7957754" lon="13.0741111"><ele>557.5</ele><time>2026-05-01T12:07:42.924Z</time></trkpt><trkpt lat="42.7958172" lon="13.0744418"><ele>557.0</ele><time>2026-05-01T12:07:43.924Z</time></trkpt><trkpt lat="42.7958539" lon="13.0747613"><ele>556.6666666666666</ele><time>2026-05-01T12:07:44.924Z</time></trkpt><trkpt lat="42.7958781" lon="13.0750405"><ele>556.3333333333334</ele><time>2026-05-01T12:07:45.924Z</time></trkpt><trkpt lat="42.7958993" lon="13.0752843"><ele>556.0</ele><time>2026-05-01T12:07:46.924Z</time></trkpt><trkpt lat="42.795925" lon="13.0755218"><ele>556.0</ele><time>2026-05-01T12:07:47.923Z</time></trkpt><trkpt lat="42.7959489" lon="13.0757639"><ele>556.0</ele><time>2026-05-01T12:07:48.923Z</time></trkpt><trkpt lat="42.795975" lon="13.0760062"><ele>556.0</ele><time>2026-05-01T12:07:49.924Z</time></trkpt><trkpt lat="42.796004" lon="13.0762512"><ele>559.0</ele><time>2026-05-01T12:07:50.923Z</time></trkpt><trkpt lat="42.7960276" lon="13.0764947"><ele>562.0</ele><time>2026-05-01T12:07:51.923Z</time></trkpt><trkpt lat="42.7960388" lon="13.0767583"><ele>565.0</ele><time>2026-05-01T12:07:52.923Z</time></trkpt><trkpt lat="42.7960427" lon="13.0770422"><ele>567.0</ele><time>2026-05-01T12:07:53.924Z</time></trkpt><trkpt lat="42.7960213" lon="13.0773678"><ele>569.0</ele><time>2026-05-01T12:07:54.924Z</time></trkpt><trkpt lat="42.7959895" lon="13.0776964"><ele>563.0</ele><time>2026-05-01T12:07:55.923Z</time></trkpt><trkpt lat="42.7959395" lon="13.0780539"><ele>557.0</ele><time>2026-05-01T12:07:56.924Z</time></trkpt><trkpt lat="42.7958885" lon="13.0784188"><ele>557.0</ele><time>2026-05-01T12:07:57.923Z</time></trkpt><trkpt lat="42.7958481" lon="13.0787911"><ele>557.0</ele><time>2026-05-01T12:07:58.924Z</time></trkpt><trkpt lat="42.7958066" lon="13.0791717"><ele>558.5</ele><time>2026-05-01T12:07:59.924Z</time></trkpt><trkpt lat="42.7957631" lon="13.0795597"><ele>560.0</ele><time>2026-05-01T12:08:00.923Z</time></trkpt><trkpt lat="42.7957205" lon="13.079945"><ele>560.0</ele><time>2026-05-01T12:08:01.924Z</time></trkpt><trkpt lat="42.7956784" lon="13.0803336"><ele>560.0</ele><time>2026-05-01T12:08:02.924Z</time></trkpt><trkpt lat="42.7956377" lon="13.0807186"><ele>561.0</ele><time>2026-05-01T12:08:03.924Z</time></trkpt><trkpt lat="42.7955965" lon="13.0810937"><ele>562.0</ele><time>2026-05-01T12:08:04.924Z</time></trkpt><trkpt lat="42.7955575" lon="13.0814582"><ele>561.5</ele><time>2026-05-01T12:08:05.924Z</time></trkpt><trkpt lat="42.7955152" lon="13.0818115"><ele>561.0</ele><time>2026-05-01T12:08:06.924Z</time></trkpt><trkpt lat="42.7954674" lon="13.0821508"><ele>560.5</ele><time>2026-05-01T12:08:07.924Z</time></trkpt><trkpt lat="42.7954146" lon="13.0824922"><ele>560.0</ele><time>2026-05-01T12:08:08.923Z</time></trkpt><trkpt lat="42.7953512" lon="13.0828334"><ele>560.0</ele><time>2026-05-01T12:08:09.924Z</time></trkpt><trkpt lat="42.795279" lon="13.0831656"><ele>560.0</ele><time>2026-05-01T12:08:10.924Z</time></trkpt><trkpt lat="42.7952024" lon="13.0834978"><ele>560.5</ele><time>2026-05-01T12:08:11.923Z</time></trkpt><trkpt lat="42.7951166" lon="13.0838369"><ele>561.0</ele><time>2026-05-01T12:08:12.923Z</time></trkpt><trkpt lat="42.7950302" lon="13.084183"><ele>563.5</ele><time>2026-05-01T12:08:13.923Z</time></trkpt><trkpt lat="42.7949378" lon="13.0845326"><ele>566.0</ele><time>2026-05-01T12:08:14.924Z</time></trkpt><trkpt lat="42.7948529" lon="13.0848683"><ele>566.5</ele><time>2026-05-01T12:08:15.923Z</time></trkpt><trkpt lat="42.7947744" lon="13.0851893"><ele>567.0</ele><time>2026-05-01T12:08:16.923Z</time></trkpt><trkpt lat="42.7946974" lon="13.0854884"><ele>568.3333333333334</ele><time>2026-05-01T12:08:17.923Z</time></trkpt><trkpt lat="42.7946372" lon="13.0857708"><ele>569.6666666666667</ele><time>2026-05-01T12:08:18.923Z</time></trkpt><trkpt lat="42.7945901" lon="13.086036"><ele>571.0</ele><time>2026-05-01T12:08:19.923Z</time></trkpt><trkpt lat="42.7945594" lon="13.0863104"><ele>574.0</ele><time>2026-05-01T12:08:20.924Z</time></trkpt><trkpt lat="42.7945509" lon="13.086595"><ele>577.0</ele><time>2026-05-01T12:08:21.924Z</time></trkpt><trkpt lat="42.7945667" lon="13.0868876"><ele>580.0</ele><time>2026-05-01T12:08:22.924Z</time></trkpt><trkpt lat="42.7946128" lon="13.0871785"><ele>581.3333333333334</ele><time>2026-05-01T12:08:23.923Z</time></trkpt><trkpt lat="42.7946833" lon="13.0874625"><ele>582.6666666666666</ele><time>2026-05-01T12:08:24.924Z</time></trkpt><trkpt lat="42.7947654" lon="13.0877391"><ele>584.0</ele><time>2026-05-01T12:08:25.924Z</time></trkpt><trkpt lat="42.794853" lon="13.0880128"><ele>584.6666666666666</ele><time>2026-05-01T12:08:26.924Z</time></trkpt><trkpt lat="42.7949459" lon="13.0882882"><ele>585.3333333333334</ele><time>2026-05-01T12:08:27.924Z</time></trkpt><trkpt lat="42.7950329" lon="13.0885622"><ele>586.0</ele><time>2026-05-01T12:08:28.924Z</time></trkpt><trkpt lat="42.7951167" lon="13.0888589"><ele>588.0</ele><time>2026-05-01T12:08:29.923Z</time></trkpt><trkpt lat="42.795206" lon="13.0891489"><ele>590.0</ele><time>2026-05-01T12:08:30.924Z</time></trkpt><trkpt lat="42.7952882" lon="13.089428"><ele>590.0</ele><time>2026-05-01T12:08:31.924Z</time></trkpt><trkpt lat="42.7953662" lon="13.089684"><ele>590.0</ele><time>2026-05-01T12:08:32.923Z</time></trkpt><trkpt lat="42.7954305" lon="13.0898885"><ele>590.0</ele><time>2026-05-01T12:08:33.923Z</time></trkpt><trkpt lat="42.7954719" lon="13.0900463"><ele>591.0</ele><time>2026-05-01T12:08:34.924Z</time></trkpt><trkpt lat="42.795495" lon="13.0901797"><ele>592.0</ele><time>2026-05-01T12:08:35.924Z</time></trkpt><trkpt lat="42.7955099" lon="13.0902876"><ele>593.0</ele><time>2026-05-01T12:08:36.924Z</time></trkpt><trkpt lat="42.7955035" lon="13.0903747"><ele>594.0</ele><time>2026-05-01T12:08:37.924Z</time></trkpt><trkpt lat="42.7954268" lon="13.0905024"><ele>595.0</ele><time>2026-05-01T12:08:39.923Z</time></trkpt><trkpt lat="42.7953206" lon="13.0905556"><ele>595.0</ele><time>2026-05-01T12:08:40.924Z</time></trkpt><trkpt lat="42.7951963" lon="13.0905903"><ele>595.0</ele><time>2026-05-01T12:08:41.923Z</time></trkpt><trkpt lat="42.7950659" lon="13.0905538"><ele>595.0</ele><time>2026-05-01T12:08:42.923Z</time></trkpt><trkpt lat="42.7949264" lon="13.090448"><ele>595.0</ele><time>2026-05-01T12:08:43.923Z</time></trkpt><trkpt lat="42.7947859" lon="13.0902887"><ele>593.3333333333334</ele><time>2026-05-01T12:08:44.924Z</time></trkpt><trkpt lat="42.7946539" lon="13.0900915"><ele>591.6666666666666</ele><time>2026-05-01T12:08:45.924Z</time></trkpt><trkpt lat="42.7945243" lon="13.089908"><ele>590.0</ele><time>2026-05-01T12:08:46.923Z</time></trkpt><trkpt lat="42.7944049" lon="13.0897564"><ele>588.75</ele><time>2026-05-01T12:08:47.924Z</time></trkpt><trkpt lat="42.7942967" lon="13.0896238"><ele>587.5</ele><time>2026-05-01T12:08:48.924Z</time></trkpt><trkpt lat="42.794185" lon="13.0895081"><ele>586.25</ele><time>2026-05-01T12:08:49.924Z</time></trkpt><trkpt lat="42.7940576" lon="13.0893994"><ele>585.0</ele><time>2026-05-01T12:08:50.924Z</time></trkpt><trkpt lat="42.793919" lon="13.0892973"><ele>585.0</ele><time>2026-05-01T12:08:51.924Z</time></trkpt><trkpt lat="42.7937721" lon="13.089219"><ele>585.0</ele><time>2026-05-01T12:08:52.924Z</time></trkpt><trkpt lat="42.7936088" lon="13.0892008"><ele>585.0</ele><time>2026-05-01T12:08:53.923Z</time></trkpt><trkpt lat="42.7934384" lon="13.0892423"><ele>584.6666666666666</ele><time>2026-05-01T12:08:54.924Z</time></trkpt><trkpt lat="42.7932856" lon="13.0893263"><ele>584.3333333333333</ele><time>2026-05-01T12:08:55.923Z</time></trkpt><trkpt lat="42.7931446" lon="13.0894523"><ele>584.0</ele><time>2026-05-01T12:08:56.924Z</time></trkpt><trkpt lat="42.7930087" lon="13.0895998"><ele>584.0</ele><time>2026-05-01T12:08:57.923Z</time></trkpt><trkpt lat="42.7928712" lon="13.0897643"><ele>584.0</ele><time>2026-05-01T12:08:58.924Z</time></trkpt><trkpt lat="42.7927291" lon="13.0899362"><ele>584.0</ele><time>2026-05-01T12:08:59.924Z</time></trkpt><trkpt lat="42.7925739" lon="13.0901108"><ele>584.3333333333333</ele><time>2026-05-01T12:09:00.924Z</time></trkpt><trkpt lat="42.7924089" lon="13.0902855"><ele>584.6666666666666</ele><time>2026-05-01T12:09:01.924Z</time></trkpt><trkpt lat="42.7922356" lon="13.090465"><ele>585.0</ele><time>2026-05-01T12:09:02.924Z</time></trkpt><trkpt lat="42.7920648" lon="13.0906446"><ele>584.3333333333334</ele><time>2026-05-01T12:09:03.924Z</time></trkpt><trkpt lat="42.7918982" lon="13.0908139"><ele>583.6666666666667</ele><time>2026-05-01T12:09:04.924Z</time></trkpt><trkpt lat="42.7917361" lon="13.0909862"><ele>583.0</ele><time>2026-05-01T12:09:05.924Z</time></trkpt><trkpt lat="42.7915872" lon="13.091175"><ele>583.0</ele><time>2026-05-01T12:09:06.924Z</time></trkpt><trkpt lat="42.7914526" lon="13.0913552"><ele>583.0</ele><time>2026-05-01T12:09:07.924Z</time></trkpt><trkpt lat="42.7913302" lon="13.0915397"><ele>583.0</ele><time>2026-05-01T12:09:08.924Z</time></trkpt><trkpt lat="42.7912224" lon="13.0917142"><ele>584.0</ele><time>2026-05-01T12:09:09.924Z</time></trkpt><trkpt lat="42.7911144" lon="13.0918821"><ele>585.0</ele><time>2026-05-01T12:09:10.924Z</time></trkpt><trkpt lat="42.7910065" lon="13.0920356"><ele>586.0</ele><time>2026-05-01T12:09:11.924Z</time></trkpt><trkpt lat="42.7908944" lon="13.0921825"><ele>586.0</ele><time>2026-05-01T12:09:12.924Z</time></trkpt><trkpt lat="42.7907786" lon="13.0923129"><ele>586.0</ele><time>2026-05-01T12:09:13.924Z</time></trkpt><trkpt lat="42.790658" lon="13.0924343"><ele>586.0</ele><time>2026-05-01T12:09:14.923Z</time></trkpt><trkpt lat="42.7905229" lon="13.0925645"><ele>586.0</ele><time>2026-05-01T12:09:15.924Z</time></trkpt><trkpt lat="42.7903841" lon="13.0927075"><ele>586.0</ele><time>2026-05-01T12:09:16.924Z</time></trkpt><trkpt lat="42.7902474" lon="13.0928539"><ele>586.0</ele><time>2026-05-01T12:09:17.923Z</time></trkpt><trkpt lat="42.7901367" lon="13.0929788"><ele>586.0</ele><time>2026-05-01T12:09:18.924Z</time></trkpt><trkpt lat="42.7900524" lon="13.0930806"><ele>586.0</ele><time>2026-05-01T12:09:19.924Z</time></trkpt><trkpt lat="42.7899974" lon="13.0931706"><ele>586.0</ele><time>2026-05-01T12:09:20.923Z</time></trkpt><trkpt lat="42.7899593" lon="13.0932596"><ele>586.0</ele><time>2026-05-01T12:09:21.924Z</time></trkpt><trkpt lat="42.7899381" lon="13.0933472"><ele>586.0</ele><time>2026-05-01T12:09:22.924Z</time></trkpt><trkpt lat="42.7899447" lon="13.0935048"><ele>587.2</ele><time>2026-05-01T12:09:24.923Z</time></trkpt><trkpt lat="42.789998" lon="13.0936355"><ele>588.4000000000001</ele><time>2026-05-01T12:09:26.923Z</time></trkpt><trkpt lat="42.7900635" lon="13.0936768"><ele>589.6</ele><time>2026-05-01T12:09:27.924Z</time></trkpt><trkpt lat="42.7901538" lon="13.093703"><ele>590.8000000000001</ele><time>2026-05-01T12:09:28.924Z</time></trkpt><trkpt lat="42.7902527" lon="13.093713"><ele>592.0</ele><time>2026-05-01T12:09:29.924Z</time></trkpt><trkpt lat="42.7903559" lon="13.0937208"><ele>594.2</ele><time>2026-05-01T12:09:30.924Z</time></trkpt><trkpt lat="42.7904475" lon="13.0937329"><ele>596.4000000000001</ele><time>2026-05-01T12:09:31.923Z</time></trkpt><trkpt lat="42.7905338" lon="13.0937579"><ele>598.5999999999999</ele><time>2026-05-01T12:09:32.924Z</time></trkpt><trkpt lat="42.7906257" lon="13.0938055"><ele>600.8</ele><time>2026-05-01T12:09:33.924Z</time></trkpt><trkpt lat="42.7907259" lon="13.093863"><ele>603.0</ele><time>2026-05-01T12:09:34.924Z</time></trkpt><trkpt lat="42.7908292" lon="13.0939227"><ele>603.0</ele><time>2026-05-01T12:09:35.924Z</time></trkpt><trkpt lat="42.7909436" lon="13.0939819"><ele>603.0</ele><time>2026-05-01T12:09:36.924Z</time></trkpt><trkpt lat="42.7910627" lon="13.0940542"><ele>603.0</ele><time>2026-05-01T12:09:37.923Z</time></trkpt><trkpt lat="42.7911749" lon="13.0941197"><ele>603.0</ele><time>2026-05-01T12:09:38.924Z</time></trkpt><trkpt lat="42.7912699" lon="13.0941817"><ele>603.3333333333334</ele><time>2026-05-01T12:09:39.923Z</time></trkpt><trkpt lat="42.791362" lon="13.0942371"><ele>603.6666666666666</ele><time>2026-05-01T12:09:40.924Z</time></trkpt><trkpt lat="42.791437" lon="13.0942841"><ele>604.0</ele><time>2026-05-01T12:09:41.923Z</time></trkpt><trkpt lat="42.791502" lon="13.0943371"><ele>604.3333333333333</ele><time>2026-05-01T12:09:42.924Z</time></trkpt><trkpt lat="42.791566" lon="13.094399"><ele>604.6666666666666</ele><time>2026-05-01T12:09:43.924Z</time></trkpt><trkpt lat="42.7916186" lon="13.0944651"><ele>605.0</ele><time>2026-05-01T12:09:44.923Z</time></trkpt><trkpt lat="42.7916634" lon="13.0945304"><ele>605.0</ele><time>2026-05-01T12:09:45.924Z</time></trkpt><trkpt lat="42.7917319" lon="13.0946157"><ele>605.0</ele><time>2026-05-01T12:09:47.924Z</time></trkpt><trkpt lat="42.7917772" lon="13.0946933"><ele>605.0</ele><time>2026-05-01T12:09:50.924Z</time></trkpt><trkpt lat="42.7917093" lon="13.0947051"><ele>605.0</ele><time>2026-05-01T12:10:35.924Z</time></trkpt><trkpt lat="42.7915982" lon="13.0948081"><ele>605.0</ele><time>2026-05-01T12:11:28.924Z</time></trkpt><trkpt lat="42.7915465" lon="13.0948662"><ele>605.0</ele><time>2026-05-01T12:11:36.923Z</time></trkpt><trkpt lat="42.7914673" lon="13.0948946"><ele>605.0</ele><time>2026-05-01T12:12:18.019Z</time></trkpt><trkpt lat="42.7914068" lon="13.0949207"><ele>605.0</ele><time>2026-05-01T12:12:28.002Z</time></trkpt><trkpt lat="42.7913292" lon="13.0949351"><ele>605.0</ele><time>2026-05-01T12:12:31.954Z</time></trkpt><trkpt lat="42.7912676" lon="13.0949566"><ele>605.0</ele><time>2026-05-01T12:12:36.971Z</time></trkpt><trkpt lat="42.7911979" lon="13.0949822"><ele>605.0</ele><time>2026-05-01T12:12:43.024Z</time></trkpt><trkpt lat="42.7911361" lon="13.0950113"><ele>605.0</ele><time>2026-05-01T12:12:49.119Z</time></trkpt><trkpt lat="42.7910635" lon="13.0950232"><ele>605.0</ele><time>2026-05-01T12:12:54.781Z</time></trkpt><trkpt lat="42.790995" lon="13.0950318"><ele>604.0</ele><time>2026-05-01T12:13:02.08Z</time></trkpt><trkpt lat="42.7909268" lon="13.0950545"><ele>603.0</ele><time>2026-05-01T12:13:09.024Z</time></trkpt><trkpt lat="42.7908482" lon="13.0950747"><ele>602.0</ele><time>2026-05-01T12:13:16.992Z</time></trkpt><trkpt lat="42.7907832" lon="13.0950915"><ele>601.0</ele><time>2026-05-01T12:13:22.04Z</time></trkpt><trkpt lat="42.7907193" lon="13.0951232"><ele>600.0</ele><time>2026-05-01T12:13:28.547Z</time></trkpt><trkpt lat="42.7906581" lon="13.0951492"><ele>599.0</ele><time>2026-05-01T12:13:34.04Z</time></trkpt><trkpt lat="42.7905998" lon="13.0951828"><ele>598.0</ele><time>2026-05-01T12:13:39.981Z</time></trkpt><trkpt lat="42.7905333" lon="13.0952165"><ele>598.0</ele><time>2026-05-01T12:13:46.034Z</time></trkpt><trkpt lat="42.7904714" lon="13.0952568"><ele>598.0</ele><time>2026-05-01T12:13:52.364Z</time></trkpt><trkpt lat="42.7905361" lon="13.0952432"><ele>598.0</ele><time>2026-05-01T12:14:06.844Z</time></trkpt><trkpt lat="42.7906019" lon="13.0952166"><ele>598.0</ele><time>2026-05-01T12:14:12.037Z</time></trkpt><trkpt lat="42.7906736" lon="13.0951887"><ele>598.0</ele><time>2026-05-01T12:14:18.087Z</time></trkpt><trkpt lat="42.7907357" lon="13.0951647"><ele>598.0</ele><time>2026-05-01T12:14:21.585Z</time></trkpt><trkpt lat="42.7908066" lon="13.0951439"><ele>598.0</ele><time>2026-05-01T12:14:26.049Z</time></trkpt><trkpt lat="42.7908819" lon="13.0951309"><ele>598.0</ele><time>2026-05-01T12:14:31.989Z</time></trkpt><trkpt lat="42.7909459" lon="13.0951035"><ele>598.0</ele><time>2026-05-01T12:14:37.033Z</time></trkpt><trkpt lat="42.7910073" lon="13.0950798"><ele>598.0</ele><time>2026-05-01T12:14:41.964Z</time></trkpt><trkpt lat="42.791074" lon="13.0950542"><ele>598.0</ele><time>2026-05-01T12:14:46.946Z</time></trkpt><trkpt lat="42.7911423" lon="13.0950272"><ele>598.0</ele><time>2026-05-01T12:14:53.059Z</time></trkpt><trkpt lat="42.7912191" lon="13.094993"><ele>598.0</ele><time>2026-05-01T12:15:00.983Z</time></trkpt><trkpt lat="42.7912807" lon="13.094969"><ele>598.0</ele><time>2026-05-01T12:15:07.046Z</time></trkpt><trkpt lat="42.7913437" lon="13.0949499"><ele>598.5714285714286</ele><time>2026-05-01T12:15:12.08Z</time></trkpt><trkpt lat="42.7914077" lon="13.0949299"><ele>599.1428571428571</ele><time>2026-05-01T12:15:18.023Z</time></trkpt><trkpt lat="42.7914764" lon="13.0949127"><ele>599.7142857142858</ele><time>2026-05-01T12:15:25.083Z</time></trkpt><trkpt lat="42.7915406" lon="13.0948894"><ele>600.2857142857142</ele><time>2026-05-01T12:15:31.027Z</time></trkpt><trkpt lat="42.7916088" lon="13.0948575"><ele>600.8571428571429</ele><time>2026-05-01T12:15:36.801Z</time></trkpt><trkpt lat="42.7916753" lon="13.0948216"><ele>601.4285714285714</ele><time>2026-05-01T12:15:41.02Z</time></trkpt><trkpt lat="42.7917381" lon="13.0947964"><ele>602.0</ele><time>2026-05-01T12:15:46.046Z</time></trkpt><trkpt lat="42.7918021" lon="13.0947747"><ele>603.2857142857143</ele><time>2026-05-01T12:15:50.079Z</time></trkpt><trkpt lat="42.7918781" lon="13.0947622"><ele>604.5714285714286</ele><time>2026-05-01T12:15:56.021Z</time></trkpt><trkpt lat="42.7919381" lon="13.0947191"><ele>605.8571428571429</ele><time>2026-05-01T12:16:01.956Z</time></trkpt><trkpt lat="42.7919746" lon="13.0946472"><ele>607.1428571428571</ele><time>2026-05-01T12:16:06.963Z</time></trkpt><trkpt lat="42.7920124" lon="13.0945709"><ele>608.4285714285714</ele><time>2026-05-01T12:16:12.004Z</time></trkpt><trkpt lat="42.7920523" lon="13.0944797"><ele>609.7142857142858</ele><time>2026-05-01T12:16:18.42Z</time></trkpt><trkpt lat="42.7920809" lon="13.0943941"><ele>611.0</ele><time>2026-05-01T12:16:25.031Z</time></trkpt><trkpt lat="42.7921239" lon="13.0943159"><ele>611.0000000000001</ele><time>2026-05-01T12:16:33.978Z</time></trkpt><trkpt lat="42.7921617" lon="13.0942367"><ele>611.0</ele><time>2026-05-01T12:16:42.051Z</time></trkpt><trkpt lat="42.7921156" lon="13.0943235"><ele>611.0</ele><time>2026-05-01T12:17:02.088Z</time></trkpt><trkpt lat="42.7920733" lon="13.0944189"><ele>611.0</ele><time>2026-05-01T12:17:08.502Z</time></trkpt><trkpt lat="42.7920396" lon="13.0944958"><ele>611.0</ele><time>2026-05-01T12:17:15Z</time></trkpt><trkpt lat="42.7920003" lon="13.0945647"><ele>611.0000000000001</ele><time>2026-05-01T12:17:21.053Z</time></trkpt><trkpt lat="42.7919638" lon="13.0946443"><ele>611.0</ele><time>2026-05-01T12:17:25.978Z</time></trkpt><trkpt lat="42.7918987" lon="13.0946806"><ele>610.0</ele><time>2026-05-01T12:17:30.012Z</time></trkpt><trkpt lat="42.7918322" lon="13.0947098"><ele>609.0</ele><time>2026-05-01T12:17:35.056Z</time></trkpt><trkpt lat="42.7917637" lon="13.0947357"><ele>608.0</ele><time>2026-05-01T12:17:40.996Z</time></trkpt><trkpt lat="42.7917008" lon="13.0947413"><ele>607.0</ele><time>2026-05-01T12:17:48.057Z</time></trkpt><trkpt lat="42.7916284" lon="13.0947581"><ele>606.0</ele><time>2026-05-01T12:18:58.044Z</time></trkpt><trkpt lat="42.7917508" lon="13.0947462"><ele>605.0</ele><time>2026-05-01T12:18:59.925Z</time></trkpt><trkpt lat="42.7917665" lon="13.0946429"><ele>605.0</ele><time>2026-05-01T12:19:03.925Z</time></trkpt><trkpt lat="42.7917188" lon="13.0945494"><ele>605.0</ele><time>2026-05-01T12:19:05.924Z</time></trkpt><trkpt lat="42.791674" lon="13.0944486"><ele>605.0</ele><time>2026-05-01T12:19:07.925Z</time></trkpt><trkpt lat="42.791623" lon="13.0943624"><ele>605.0</ele><time>2026-05-01T12:19:09.925Z</time></trkpt><trkpt lat="42.7915532" lon="13.0942809"><ele>605.0</ele><time>2026-05-01T12:19:11.925Z</time></trkpt><trkpt lat="42.791431" lon="13.0942236"><ele>605.0</ele><time>2026-05-01T12:19:13.925Z</time></trkpt><trkpt lat="42.7913785" lon="13.0941733"><ele>605.0</ele><time>2026-05-01T12:19:14.925Z</time></trkpt><trkpt lat="42.7913158" lon="13.0941372"><ele>605.0</ele><time>2026-05-01T12:19:15.925Z</time></trkpt><trkpt lat="42.7912533" lon="13.0941045"><ele>605.0</ele><time>2026-05-01T12:19:16.925Z</time></trkpt><trkpt lat="42.7911919" lon="13.0940713"><ele>605.0</ele><time>2026-05-01T12:19:17.924Z</time></trkpt><trkpt lat="42.7910811" lon="13.0940095"><ele>605.0</ele><time>2026-05-01T12:19:19.925Z</time></trkpt><trkpt lat="42.7910189" lon="13.0939759"><ele>604.6</ele><time>2026-05-01T12:19:20.924Z</time></trkpt><trkpt lat="42.7909591" lon="13.0939467"><ele>604.2</ele><time>2026-05-01T12:19:21.925Z</time></trkpt><trkpt lat="42.7908541" lon="13.0938743"><ele>603.8</ele><time>2026-05-01T12:19:23.924Z</time></trkpt><trkpt lat="42.7907547" lon="13.0938091"><ele>603.4</ele><time>2026-05-01T12:19:25.924Z</time></trkpt><trkpt lat="42.7906543" lon="13.0937506"><ele>603.0</ele><time>2026-05-01T12:19:27.925Z</time></trkpt><trkpt lat="42.7905604" lon="13.0936939"><ele>603.0</ele><time>2026-05-01T12:19:29.925Z</time></trkpt><trkpt lat="42.79049" lon="13.0936528"><ele>603.0</ele><time>2026-05-01T12:19:31.925Z</time></trkpt><trkpt lat="42.790362" lon="13.0935968"><ele>603.0</ele><time>2026-05-01T12:19:33.924Z</time></trkpt><trkpt lat="42.7902817" lon="13.093561"><ele>603.0</ele><time>2026-05-01T12:19:34.925Z</time></trkpt><trkpt lat="42.7902085" lon="13.0935317"><ele>603.0</ele><time>2026-05-01T12:19:35.925Z</time></trkpt><trkpt lat="42.7901038" lon="13.0934942"><ele>601.0</ele><time>2026-05-01T12:19:37.925Z</time></trkpt><trkpt lat="42.78999" lon="13.093561"><ele>599.0</ele><time>2026-05-01T12:19:45.925Z</time></trkpt><trkpt lat="42.7899708" lon="13.0936558"><ele>597.0</ele><time>2026-05-01T12:19:46.924Z</time></trkpt><trkpt lat="42.7899608" lon="13.0937972"><ele>595.0</ele><time>2026-05-01T12:19:47.924Z</time></trkpt><trkpt lat="42.7899452" lon="13.0939523"><ele>593.0</ele><time>2026-05-01T12:19:48.924Z</time></trkpt><trkpt lat="42.7899242" lon="13.0941305"><ele>593.0</ele><time>2026-05-01T12:19:49.924Z</time></trkpt><trkpt lat="42.7899011" lon="13.094318"><ele>593.0</ele><time>2026-05-01T12:19:50.925Z</time></trkpt><trkpt lat="42.7898845" lon="13.0944928"><ele>593.0</ele><time>2026-05-01T12:19:51.925Z</time></trkpt><trkpt lat="42.7898662" lon="13.0946449"><ele>593.0</ele><time>2026-05-01T12:19:52.924Z</time></trkpt><trkpt lat="42.7898416" lon="13.0947809"><ele>593.0</ele><time>2026-05-01T12:19:53.925Z</time></trkpt><trkpt lat="42.7898165" lon="13.0948993"><ele>593.0</ele><time>2026-05-01T12:19:54.925Z</time></trkpt><trkpt lat="42.7897815" lon="13.0950041"><ele>593.0</ele><time>2026-05-01T12:19:55.925Z</time></trkpt><trkpt lat="42.7897451" lon="13.095089"><ele>593.0</ele><time>2026-05-01T12:19:56.925Z</time></trkpt><trkpt lat="42.7897031" lon="13.0951851"><ele>593.0</ele><time>2026-05-01T12:19:57.924Z</time></trkpt><trkpt lat="42.7896642" lon="13.095279"><ele>593.0</ele><time>2026-05-01T12:19:58.925Z</time></trkpt><trkpt lat="42.7896239" lon="13.0953652"><ele>593.1666666666666</ele><time>2026-05-01T12:19:59.925Z</time></trkpt><trkpt lat="42.7895656" lon="13.0954971"><ele>593.3333333333333</ele><time>2026-05-01T12:20:01.925Z</time></trkpt><trkpt lat="42.7895214" lon="13.0956007"><ele>593.5</ele><time>2026-05-01T12:20:03.924Z</time></trkpt><trkpt lat="42.7894623" lon="13.0956702"><ele>593.6666666666666</ele><time>2026-05-01T12:20:05.925Z</time></trkpt><trkpt lat="42.7893717" lon="13.0957246"><ele>593.8333333333334</ele><time>2026-05-01T12:20:07.925Z</time></trkpt><trkpt lat="42.7893083" lon="13.0957564"><ele>594.0</ele><time>2026-05-01T12:20:08.925Z</time></trkpt><trkpt lat="42.7892406" lon="13.0957852"><ele>594.1666666666666</ele><time>2026-05-01T12:20:09.924Z</time></trkpt><trkpt lat="42.7891709" lon="13.095811"><ele>594.3333333333334</ele><time>2026-05-01T12:20:10.925Z</time></trkpt><trkpt lat="42.7890987" lon="13.0958289"><ele>594.5</ele><time>2026-05-01T12:20:11.925Z</time></trkpt><trkpt lat="42.7890262" lon="13.0958499"><ele>594.6666666666667</ele><time>2026-05-01T12:20:12.924Z</time></trkpt><trkpt lat="42.7889598" lon="13.0958782"><ele>594.8333333333334</ele><time>2026-05-01T12:20:13.924Z</time></trkpt><trkpt lat="42.7888855" lon="13.0959055"><ele>595.0</ele><time>2026-05-01T12:20:14.925Z</time></trkpt><trkpt lat="42.7887931" lon="13.0959439"><ele>595.0</ele><time>2026-05-01T12:20:15.924Z</time></trkpt><trkpt lat="42.7886812" lon="13.0959988"><ele>595.0</ele><time>2026-05-01T12:20:16.925Z</time></trkpt><trkpt lat="42.7885599" lon="13.0960622"><ele>595.0</ele><time>2026-05-01T12:20:17.925Z</time></trkpt><trkpt lat="42.7884286" lon="13.0961196"><ele>595.0</ele><time>2026-05-01T12:20:18.924Z</time></trkpt><trkpt lat="42.7882691" lon="13.0961693"><ele>592.6666666666667</ele><time>2026-05-01T12:20:19.925Z</time></trkpt><trkpt lat="42.7880991" lon="13.0962226"><ele>590.3333333333334</ele><time>2026-05-01T12:20:20.925Z</time></trkpt><trkpt lat="42.787927" lon="13.0962792"><ele>588.0</ele><time>2026-05-01T12:20:21.925Z</time></trkpt><trkpt lat="42.787745" lon="13.0963419"><ele>587.0</ele><time>2026-05-01T12:20:22.925Z</time></trkpt><trkpt lat="42.7875628" lon="13.0964121"><ele>586.0</ele><time>2026-05-01T12:20:23.925Z</time></trkpt><trkpt lat="42.7873789" lon="13.0964854"><ele>585.0</ele><time>2026-05-01T12:20:24.924Z</time></trkpt><trkpt lat="42.7871906" lon="13.0965581"><ele>586.3333333333334</ele><time>2026-05-01T12:20:25.925Z</time></trkpt><trkpt lat="42.787001" lon="13.0966251"><ele>587.6666666666667</ele><time>2026-05-01T12:20:26.925Z</time></trkpt><trkpt lat="42.786808" lon="13.0966971"><ele>589.0</ele><time>2026-05-01T12:20:27.925Z</time></trkpt><trkpt lat="42.7866139" lon="13.0967749"><ele>589.0</ele><time>2026-05-01T12:20:28.925Z</time></trkpt><trkpt lat="42.7864138" lon="13.0968501"><ele>589.0</ele><time>2026-05-01T12:20:29.924Z</time></trkpt><trkpt lat="42.7862106" lon="13.0969302"><ele>589.0</ele><time>2026-05-01T12:20:30.925Z</time></trkpt><trkpt lat="42.7860071" lon="13.0970037"><ele>589.3333333333334</ele><time>2026-05-01T12:20:31.924Z</time></trkpt><trkpt lat="42.785802" lon="13.0970783"><ele>589.6666666666666</ele><time>2026-05-01T12:20:32.925Z</time></trkpt><trkpt lat="42.785599" lon="13.0971602"><ele>590.0</ele><time>2026-05-01T12:20:33.925Z</time></trkpt><trkpt lat="42.7854037" lon="13.0972402"><ele>590.0</ele><time>2026-05-01T12:20:34.925Z</time></trkpt><trkpt lat="42.7852127" lon="13.0973234"><ele>590.0</ele><time>2026-05-01T12:20:35.925Z</time></trkpt><trkpt lat="42.7850234" lon="13.0973984"><ele>590.0</ele><time>2026-05-01T12:20:36.925Z</time></trkpt><trkpt lat="42.7848336" lon="13.0974712"><ele>590.6666666666666</ele><time>2026-05-01T12:20:37.925Z</time></trkpt><trkpt lat="42.7846486" lon="13.0975382"><ele>591.3333333333334</ele><time>2026-05-01T12:20:38.925Z</time></trkpt><trkpt lat="42.784463" lon="13.0976061"><ele>592.0</ele><time>2026-05-01T12:20:39.925Z</time></trkpt><trkpt lat="42.7842813" lon="13.0976778"><ele>592.6666666666667</ele><time>2026-05-01T12:20:40.924Z</time></trkpt><trkpt lat="42.7840992" lon="13.097748"><ele>593.3333333333334</ele><time>2026-05-01T12:20:41.925Z</time></trkpt><trkpt lat="42.7839201" lon="13.0978171"><ele>594.0</ele><time>2026-05-01T12:20:42.925Z</time></trkpt><trkpt lat="42.7837442" lon="13.0978864"><ele>594.0</ele><time>2026-05-01T12:20:43.925Z</time></trkpt><trkpt lat="42.7835783" lon="13.0979532"><ele>594.0</ele><time>2026-05-01T12:20:44.925Z</time></trkpt><trkpt lat="42.7834296" lon="13.0980074"><ele>594.0</ele><time>2026-05-01T12:20:45.925Z</time></trkpt><trkpt lat="42.7832918" lon="13.0980566"><ele>595.5</ele><time>2026-05-01T12:20:46.925Z</time></trkpt><trkpt lat="42.7831597" lon="13.0981063"><ele>597.0</ele><time>2026-05-01T12:20:47.925Z</time></trkpt><trkpt lat="42.7830271" lon="13.0981561"><ele>598.5</ele><time>2026-05-01T12:20:48.924Z</time></trkpt><trkpt lat="42.7828999" lon="13.0982045"><ele>600.0</ele><time>2026-05-01T12:20:49.925Z</time></trkpt><trkpt lat="42.7827771" lon="13.0982507"><ele>600.2</ele><time>2026-05-01T12:20:50.925Z</time></trkpt><trkpt lat="42.7826608" lon="13.0982954"><ele>600.4</ele><time>2026-05-01T12:20:51.924Z</time></trkpt><trkpt lat="42.7825509" lon="13.0983372"><ele>600.6</ele><time>2026-05-01T12:20:52.924Z</time></trkpt><trkpt lat="42.7824567" lon="13.098379"><ele>600.8</ele><time>2026-05-01T12:20:53.924Z</time></trkpt><trkpt lat="42.7823566" lon="13.0984209"><ele>601.0</ele><time>2026-05-01T12:20:54.925Z</time></trkpt><trkpt lat="42.782258" lon="13.0984562"><ele>601.0</ele><time>2026-05-01T12:20:55.925Z</time></trkpt><trkpt lat="42.7821502" lon="13.0985007"><ele>601.0</ele><time>2026-05-01T12:20:56.924Z</time></trkpt><trkpt lat="42.7820335" lon="13.0985505"><ele>601.0</ele><time>2026-05-01T12:20:57.925Z</time></trkpt><trkpt lat="42.7818968" lon="13.0986082"><ele>601.0</ele><time>2026-05-01T12:20:58.925Z</time></trkpt><trkpt lat="42.7817509" lon="13.0986773"><ele>602.0</ele><time>2026-05-01T12:20:59.925Z</time></trkpt><trkpt lat="42.7815899" lon="13.098753"><ele>603.0</ele><time>2026-05-01T12:21:00.925Z</time></trkpt><trkpt lat="42.7814163" lon="13.0988245"><ele>604.0</ele><time>2026-05-01T12:21:01.925Z</time></trkpt><trkpt lat="42.7812323" lon="13.0988831"><ele>604.0</ele><time>2026-05-01T12:21:02.924Z</time></trkpt><trkpt lat="42.7810392" lon="13.098936"><ele>604.0</ele><time>2026-05-01T12:21:03.924Z</time></trkpt><trkpt lat="42.7808401" lon="13.0990037"><ele>604.0</ele><time>2026-05-01T12:21:04.925Z</time></trkpt><trkpt lat="42.7806394" lon="13.0990706"><ele>605.0</ele><time>2026-05-01T12:21:05.924Z</time></trkpt><trkpt lat="42.7804411" lon="13.0991492"><ele>606.0</ele><time>2026-05-01T12:21:06.924Z</time></trkpt><trkpt lat="42.7802348" lon="13.0992314"><ele>607.0</ele><time>2026-05-01T12:21:07.925Z</time></trkpt><trkpt lat="42.7800256" lon="13.0993115"><ele>608.0</ele><time>2026-05-01T12:21:08.925Z</time></trkpt><trkpt lat="42.7798204" lon="13.0993959"><ele>609.0</ele><time>2026-05-01T12:21:09.925Z</time></trkpt><trkpt lat="42.7796108" lon="13.0994759"><ele>610.0</ele><time>2026-05-01T12:21:10.925Z</time></trkpt><trkpt lat="42.7793985" lon="13.0995554"><ele>610.6666666666667</ele><time>2026-05-01T12:21:11.925Z</time></trkpt><trkpt lat="42.7791819" lon="13.0996373"><ele>611.3333333333334</ele><time>2026-05-01T12:21:12.924Z</time></trkpt><trkpt lat="42.7789671" lon="13.0997202"><ele>612.0</ele><time>2026-05-01T12:21:13.925Z</time></trkpt><trkpt lat="42.7787473" lon="13.0998007"><ele>612.0</ele><time>2026-05-01T12:21:14.924Z</time></trkpt><trkpt lat="42.7785314" lon="13.099889"><ele>612.0</ele><time>2026-05-01T12:21:15.925Z</time></trkpt><trkpt lat="42.7783153" lon="13.0999802"><ele>614.0</ele><time>2026-05-01T12:21:16.925Z</time></trkpt><trkpt lat="42.7780968" lon="13.1000641"><ele>616.0</ele><time>2026-05-01T12:21:17.925Z</time></trkpt><trkpt lat="42.7778734" lon="13.1001434"><ele>618.0</ele><time>2026-05-01T12:21:18.925Z</time></trkpt><trkpt lat="42.777653" lon="13.1002205"><ele>620.0</ele><time>2026-05-01T12:21:19.925Z</time></trkpt><trkpt lat="42.7774309" lon="13.1003115"><ele>620.0</ele><time>2026-05-01T12:21:20.924Z</time></trkpt><trkpt lat="42.7772113" lon="13.100395"><ele>620.0</ele><time>2026-05-01T12:21:21.924Z</time></trkpt><trkpt lat="42.7769909" lon="13.1004794"><ele>621.0</ele><time>2026-05-01T12:21:22.925Z</time></trkpt><trkpt lat="42.7767694" lon="13.1005607"><ele>622.0</ele><time>2026-05-01T12:21:23.924Z</time></trkpt><trkpt lat="42.7765522" lon="13.1006535"><ele>622.0</ele><time>2026-05-01T12:21:24.924Z</time></trkpt><trkpt lat="42.776331" lon="13.1007415"><ele>622.0</ele><time>2026-05-01T12:21:25.925Z</time></trkpt><trkpt lat="42.7761093" lon="13.1008282"><ele>625.0</ele><time>2026-05-01T12:21:26.924Z</time></trkpt><trkpt lat="42.7758925" lon="13.1009137"><ele>628.0</ele><time>2026-05-01T12:21:27.925Z</time></trkpt><trkpt lat="42.7756728" lon="13.1009962"><ele>628.0</ele><time>2026-05-01T12:21:28.925Z</time></trkpt><trkpt lat="42.775454" lon="13.1010855"><ele>628.0</ele><time>2026-05-01T12:21:29.925Z</time></trkpt><trkpt lat="42.7752357" lon="13.1011758"><ele>629.5</ele><time>2026-05-01T12:21:30.925Z</time></trkpt><trkpt lat="42.7750172" lon="13.1012577"><ele>631.0</ele><time>2026-05-01T12:21:31.924Z</time></trkpt><trkpt lat="42.7748034" lon="13.1013436"><ele>631.0</ele><time>2026-05-01T12:21:32.925Z</time></trkpt><trkpt lat="42.7745889" lon="13.1014238"><ele>631.0</ele><time>2026-05-01T12:21:33.924Z</time></trkpt><trkpt lat="42.7743729" lon="13.101504"><ele>631.0</ele><time>2026-05-01T12:21:34.925Z</time></trkpt><trkpt lat="42.7741598" lon="13.1015905"><ele>632.3333333333334</ele><time>2026-05-01T12:21:35.925Z</time></trkpt><trkpt lat="42.7739455" lon="13.1016746"><ele>633.6666666666666</ele><time>2026-05-01T12:21:36.924Z</time></trkpt><trkpt lat="42.7737464" lon="13.1017508"><ele>635.0</ele><time>2026-05-01T12:21:37.924Z</time></trkpt><trkpt lat="42.7735604" lon="13.1018212"><ele>636.3333333333333</ele><time>2026-05-01T12:21:38.925Z</time></trkpt><trkpt lat="42.7733768" lon="13.101889"><ele>637.6666666666666</ele><time>2026-05-01T12:21:39.925Z</time></trkpt><trkpt lat="42.7731999" lon="13.1019505"><ele>639.0</ele><time>2026-05-01T12:21:40.925Z</time></trkpt><trkpt lat="42.7730216" lon="13.1020196"><ele>639.0</ele><time>2026-05-01T12:21:41.925Z</time></trkpt><trkpt lat="42.7728451" lon="13.1020891"><ele>639.0</ele><time>2026-05-01T12:21:42.925Z</time></trkpt><trkpt lat="42.7726557" lon="13.1021626"><ele>639.0</ele><time>2026-05-01T12:21:43.925Z</time></trkpt><trkpt lat="42.7724546" lon="13.1022396"><ele>639.6666666666666</ele><time>2026-05-01T12:21:44.925Z</time></trkpt><trkpt lat="42.7722507" lon="13.1023152"><ele>640.3333333333333</ele><time>2026-05-01T12:21:45.924Z</time></trkpt><trkpt lat="42.7720443" lon="13.1023909"><ele>641.0</ele><time>2026-05-01T12:21:46.925Z</time></trkpt><trkpt lat="42.7718395" lon="13.1024733"><ele>642.6666666666666</ele><time>2026-05-01T12:21:47.925Z</time></trkpt><trkpt lat="42.7716311" lon="13.1025548"><ele>644.3333333333334</ele><time>2026-05-01T12:21:48.925Z</time></trkpt><trkpt lat="42.7714251" lon="13.1026311"><ele>646.0</ele><time>2026-05-01T12:21:49.925Z</time></trkpt><trkpt lat="42.7712154" lon="13.1026994"><ele>646.0</ele><time>2026-05-01T12:21:50.924Z</time></trkpt><trkpt lat="42.7710172" lon="13.1027733"><ele>646.0</ele><time>2026-05-01T12:21:51.925Z</time></trkpt><trkpt lat="42.7708355" lon="13.1028269"><ele>646.0</ele><time>2026-05-01T12:21:52.924Z</time></trkpt><trkpt lat="42.7706788" lon="13.1028867"><ele>646.0</ele><time>2026-05-01T12:21:53.924Z</time></trkpt><trkpt lat="42.7705483" lon="13.1029418"><ele>646.0</ele><time>2026-05-01T12:21:54.925Z</time></trkpt><trkpt lat="42.7704383" lon="13.1029938"><ele>646.0</ele><time>2026-05-01T12:21:55.925Z</time></trkpt><trkpt lat="42.7703429" lon="13.1030386"><ele>646.0</ele><time>2026-05-01T12:21:56.924Z</time></trkpt><trkpt lat="42.7702534" lon="13.103076"><ele>646.0</ele><time>2026-05-01T12:21:57.924Z</time></trkpt><trkpt lat="42.7701879" lon="13.1031214"><ele>646.1999999999999</ele><time>2026-05-01T12:21:58.924Z</time></trkpt><trkpt lat="42.7701439" lon="13.1032015"><ele>646.4</ele><time>2026-05-01T12:21:59.924Z</time></trkpt><trkpt lat="42.7701157" lon="13.1033029"><ele>646.6</ele><time>2026-05-01T12:22:00.925Z</time></trkpt><trkpt lat="42.7701" lon="13.1034331"><ele>646.8</ele><time>2026-05-01T12:22:01.924Z</time></trkpt><trkpt lat="42.7700797" lon="13.1036093"><ele>647.0</ele><time>2026-05-01T12:22:02.924Z</time></trkpt><trkpt lat="42.770033" lon="13.1038166"><ele>648.3333333333333</ele><time>2026-05-01T12:22:03.925Z</time></trkpt><trkpt lat="42.7699478" lon="13.1040467"><ele>649.6666666666666</ele><time>2026-05-01T12:22:04.925Z</time></trkpt><trkpt lat="42.7698422" lon="13.1042871"><ele>651.0</ele><time>2026-05-01T12:22:05.924Z</time></trkpt><trkpt lat="42.7697312" lon="13.1045299"><ele>655.0</ele><time>2026-05-01T12:22:06.925Z</time></trkpt><trkpt lat="42.769621" lon="13.104758"><ele>659.0</ele><time>2026-05-01T12:22:07.924Z</time></trkpt><trkpt lat="42.7695106" lon="13.1049463"><ele>663.0</ele><time>2026-05-01T12:22:08.924Z</time></trkpt><trkpt lat="42.7694104" lon="13.1051354"><ele>663.0</ele><time>2026-05-01T12:22:09.925Z</time></trkpt><trkpt lat="42.7693347" lon="13.1053593"><ele>663.0</ele><time>2026-05-01T12:22:10.925Z</time></trkpt><trkpt lat="42.7692864" lon="13.1056061"><ele>663.0</ele><time>2026-05-01T12:22:11.924Z</time></trkpt><trkpt lat="42.7692566" lon="13.1058902"><ele>663.0</ele><time>2026-05-01T12:22:12.925Z</time></trkpt><trkpt lat="42.7692405" lon="13.1061984"><ele>663.0</ele><time>2026-05-01T12:22:13.925Z</time></trkpt><trkpt lat="42.769214" lon="13.1065182"><ele>665.5</ele><time>2026-05-01T12:22:14.925Z</time></trkpt><trkpt lat="42.7691928" lon="13.1068444"><ele>668.0</ele><time>2026-05-01T12:22:15.924Z</time></trkpt><trkpt lat="42.7691768" lon="13.1071796"><ele>670.0</ele><time>2026-05-01T12:22:16.925Z</time></trkpt><trkpt lat="42.7691723" lon="13.1075206"><ele>672.0</ele><time>2026-05-01T12:22:17.925Z</time></trkpt><trkpt lat="42.7691755" lon="13.1078536"><ele>672.0</ele><time>2026-05-01T12:22:18.925Z</time></trkpt><trkpt lat="42.7691785" lon="13.1081847"><ele>672.0</ele><time>2026-05-01T12:22:19.925Z</time></trkpt><trkpt lat="42.7691818" lon="13.1085076"><ele>673.0</ele><time>2026-05-01T12:22:20.925Z</time></trkpt><trkpt lat="42.7691775" lon="13.1088306"><ele>674.0</ele><time>2026-05-01T12:22:21.925Z</time></trkpt><trkpt lat="42.7691853" lon="13.1091569"><ele>675.0</ele><time>2026-05-01T12:22:22.924Z</time></trkpt><trkpt lat="42.7692102" lon="13.1094838"><ele>676.0</ele><time>2026-05-01T12:22:23.925Z</time></trkpt><trkpt lat="42.7692576" lon="13.1098089"><ele>677.0</ele><time>2026-05-01T12:22:24.924Z</time></trkpt><trkpt lat="42.76932" lon="13.1101323"><ele>678.0</ele><time>2026-05-01T12:22:25.925Z</time></trkpt><trkpt lat="42.7693799" lon="13.1104593"><ele>690.0</ele><time>2026-05-01T12:22:26.925Z</time></trkpt><trkpt lat="42.7694364" lon="13.1107846"><ele>702.0</ele><time>2026-05-01T12:22:27.924Z</time></trkpt><trkpt lat="42.7694988" lon="13.1111032"><ele>702.0</ele><time>2026-05-01T12:22:28.925Z</time></trkpt><trkpt lat="42.7695746" lon="13.1114352"><ele>702.0</ele><time>2026-05-01T12:22:29.925Z</time></trkpt><trkpt lat="42.7696722" lon="13.111753"><ele>701.0</ele><time>2026-05-01T12:22:30.925Z</time></trkpt><trkpt lat="42.7697667" lon="13.1120749"><ele>700.0</ele><time>2026-05-01T12:22:31.925Z</time></trkpt><trkpt lat="42.769868" lon="13.1123763"><ele>699.3333333333334</ele><time>2026-05-01T12:22:32.924Z</time></trkpt><trkpt lat="42.7699619" lon="13.112627"><ele>698.6666666666666</ele><time>2026-05-01T12:22:33.925Z</time></trkpt><trkpt lat="42.7700405" lon="13.1128336"><ele>698.0</ele><time>2026-05-01T12:22:34.925Z</time></trkpt><trkpt lat="42.7701175" lon="13.1130172"><ele>700.6666666666666</ele><time>2026-05-01T12:22:35.925Z</time></trkpt><trkpt lat="42.7702402" lon="13.1131448"><ele>703.3333333333334</ele><time>2026-05-01T12:22:36.925Z</time></trkpt><trkpt lat="42.7704026" lon="13.1132201"><ele>706.0</ele><time>2026-05-01T12:22:37.925Z</time></trkpt><trkpt lat="42.7705693" lon="13.1132674"><ele>706.0</ele><time>2026-05-01T12:22:38.924Z</time></trkpt><trkpt lat="42.7707244" lon="13.1133319"><ele>706.0</ele><time>2026-05-01T12:22:39.925Z</time></trkpt><trkpt lat="42.7708586" lon="13.113426"><ele>706.0</ele><time>2026-05-01T12:22:40.925Z</time></trkpt><trkpt lat="42.7709477" lon="13.1135806"><ele>706.0</ele><time>2026-05-01T12:22:41.924Z</time></trkpt><trkpt lat="42.770999" lon="13.1137901"><ele>706.0</ele><time>2026-05-01T12:22:42.925Z</time></trkpt><trkpt lat="42.7710328" lon="13.1140538"><ele>706.0</ele><time>2026-05-01T12:22:43.925Z</time></trkpt><trkpt lat="42.7710628" lon="13.1143344"><ele>710.3333333333334</ele><time>2026-05-01T12:22:44.925Z</time></trkpt><trkpt lat="42.7710978" lon="13.1146108"><ele>714.6666666666666</ele><time>2026-05-01T12:22:45.925Z</time></trkpt><trkpt lat="42.7711387" lon="13.1148802"><ele>719.0</ele><time>2026-05-01T12:22:46.925Z</time></trkpt><trkpt lat="42.7712002" lon="13.1151103"><ele>719.0</ele><time>2026-05-01T12:22:47.924Z</time></trkpt><trkpt lat="42.7712917" lon="13.1153108"><ele>719.0</ele><time>2026-05-01T12:22:48.925Z</time></trkpt><trkpt lat="42.7714109" lon="13.1154931"><ele>719.0</ele><time>2026-05-01T12:22:49.924Z</time></trkpt><trkpt lat="42.7715452" lon="13.1156784"><ele>717.0</ele><time>2026-05-01T12:22:50.925Z</time></trkpt><trkpt lat="42.7716728" lon="13.1158733"><ele>715.0</ele><time>2026-05-01T12:22:51.925Z</time></trkpt><trkpt lat="42.7717797" lon="13.1160727"><ele>713.0</ele><time>2026-05-01T12:22:52.925Z</time></trkpt><trkpt lat="42.7718695" lon="13.1162582"><ele>717.3333333333333</ele><time>2026-05-01T12:22:53.925Z</time></trkpt><trkpt lat="42.7719209" lon="13.1164875"><ele>721.6666666666666</ele><time>2026-05-01T12:22:54.925Z</time></trkpt><trkpt lat="42.77192" lon="13.1167365"><ele>726.0</ele><time>2026-05-01T12:22:55.924Z</time></trkpt><trkpt lat="42.7718757" lon="13.1169976"><ele>726.0</ele><time>2026-05-01T12:22:56.925Z</time></trkpt><trkpt lat="42.7717725" lon="13.1172396"><ele>726.0</ele><time>2026-05-01T12:22:57.925Z</time></trkpt><trkpt lat="42.7716378" lon="13.1174334"><ele>726.0</ele><time>2026-05-01T12:22:58.925Z</time></trkpt><trkpt lat="42.7715094" lon="13.1176241"><ele>726.0</ele><time>2026-05-01T12:22:59.925Z</time></trkpt><trkpt lat="42.7714154" lon="13.1178522"><ele>726.0</ele><time>2026-05-01T12:23:00.925Z</time></trkpt><trkpt lat="42.7713669" lon="13.1180957"><ele>726.0</ele><time>2026-05-01T12:23:01.925Z</time></trkpt><trkpt lat="42.7713594" lon="13.1183616"><ele>728.3333333333334</ele><time>2026-05-01T12:23:02.925Z</time></trkpt><trkpt lat="42.7713927" lon="13.1186047"><ele>730.6666666666667</ele><time>2026-05-01T12:23:03.925Z</time></trkpt><trkpt lat="42.7714685" lon="13.1188144"><ele>733.0</ele><time>2026-05-01T12:23:04.925Z</time></trkpt><trkpt lat="42.7715266" lon="13.1190256"><ele>733.0</ele><time>2026-05-01T12:23:05.925Z</time></trkpt><trkpt lat="42.7715479" lon="13.1192311"><ele>733.0</ele><time>2026-05-01T12:23:06.924Z</time></trkpt><trkpt lat="42.7715107" lon="13.1194255"><ele>733.0</ele><time>2026-05-01T12:23:07.924Z</time></trkpt><trkpt lat="42.7714135" lon="13.1196095"><ele>733.0</ele><time>2026-05-01T12:23:08.925Z</time></trkpt><trkpt lat="42.7712819" lon="13.1197531"><ele>733.0</ele><time>2026-05-01T12:23:09.925Z</time></trkpt><trkpt lat="42.7711012" lon="13.1198493"><ele>733.0</ele><time>2026-05-01T12:23:10.925Z</time></trkpt><trkpt lat="42.7708893" lon="13.119903"><ele>735.3333333333334</ele><time>2026-05-01T12:23:11.924Z</time></trkpt><trkpt lat="42.7706824" lon="13.1199887"><ele>737.6666666666666</ele><time>2026-05-01T12:23:12.924Z</time></trkpt><trkpt lat="42.7704754" lon="13.1201149"><ele>740.0</ele><time>2026-05-01T12:23:13.925Z</time></trkpt><trkpt lat="42.7702608" lon="13.1202735"><ele>734.5</ele><time>2026-05-01T12:23:14.925Z</time></trkpt><trkpt lat="42.7700484" lon="13.1204398"><ele>729.0</ele><time>2026-05-01T12:23:15.925Z</time></trkpt><trkpt lat="42.7698235" lon="13.1206359"><ele>738.5</ele><time>2026-05-01T12:23:16.925Z</time></trkpt><trkpt lat="42.7696074" lon="13.120837"><ele>748.0</ele><time>2026-05-01T12:23:17.925Z</time></trkpt><trkpt lat="42.7694094" lon="13.121016"><ele>744.6666666666667</ele><time>2026-05-01T12:23:18.925Z</time></trkpt><trkpt lat="42.7692234" lon="13.1211782"><ele>741.3333333333334</ele><time>2026-05-01T12:23:19.925Z</time></trkpt><trkpt lat="42.7690386" lon="13.1213144"><ele>738.0</ele><time>2026-05-01T12:23:20.925Z</time></trkpt><trkpt lat="42.7688335" lon="13.1214408"><ele>738.0</ele><time>2026-05-01T12:23:21.924Z</time></trkpt><trkpt lat="42.768627" lon="13.1215618"><ele>738.0</ele><time>2026-05-01T12:23:22.924Z</time></trkpt><trkpt lat="42.7684402" lon="13.1217082"><ele>738.0</ele><time>2026-05-01T12:23:23.924Z</time></trkpt><trkpt lat="42.7682742" lon="13.1218882"><ele>741.3333333333334</ele><time>2026-05-01T12:23:24.924Z</time></trkpt><trkpt lat="42.7681253" lon="13.1220903"><ele>744.6666666666667</ele><time>2026-05-01T12:23:25.925Z</time></trkpt><trkpt lat="42.7680038" lon="13.1223179"><ele>748.0</ele><time>2026-05-01T12:23:26.924Z</time></trkpt><trkpt lat="42.7678999" lon="13.1225473"><ele>747.6666666666667</ele><time>2026-05-01T12:23:27.925Z</time></trkpt><trkpt lat="42.7677707" lon="13.1227376"><ele>747.3333333333334</ele><time>2026-05-01T12:23:28.925Z</time></trkpt><trkpt lat="42.7676007" lon="13.1229006"><ele>747.0</ele><time>2026-05-01T12:23:29.925Z</time></trkpt><trkpt lat="42.767403" lon="13.1230601"><ele>747.0</ele><time>2026-05-01T12:23:30.924Z</time></trkpt><trkpt lat="42.7671852" lon="13.1232283"><ele>747.0</ele><time>2026-05-01T12:23:31.924Z</time></trkpt><trkpt lat="42.7669703" lon="13.1233937"><ele>754.0</ele><time>2026-05-01T12:23:32.925Z</time></trkpt><trkpt lat="42.7667408" lon="13.1235372"><ele>761.0</ele><time>2026-05-01T12:23:33.925Z</time></trkpt><trkpt lat="42.7665025" lon="13.1236545"><ele>761.0</ele><time>2026-05-01T12:23:34.924Z</time></trkpt><trkpt lat="42.7662583" lon="13.1237667"><ele>761.0</ele><time>2026-05-01T12:23:35.924Z</time></trkpt><trkpt lat="42.7660288" lon="13.1238967"><ele>757.6666666666666</ele><time>2026-05-01T12:23:36.925Z</time></trkpt><trkpt lat="42.7658234" lon="13.1240462"><ele>754.3333333333334</ele><time>2026-05-01T12:23:37.925Z</time></trkpt><trkpt lat="42.7656555" lon="13.1242015"><ele>751.0</ele><time>2026-05-01T12:23:38.925Z</time></trkpt><trkpt lat="42.7655035" lon="13.1243459"><ele>756.0</ele><time>2026-05-01T12:23:39.925Z</time></trkpt><trkpt lat="42.7653426" lon="13.1244383"><ele>761.0</ele><time>2026-05-01T12:23:40.925Z</time></trkpt><trkpt lat="42.765141" lon="13.1245095"><ele>766.0</ele><time>2026-05-01T12:23:41.925Z</time></trkpt><trkpt lat="42.7649194" lon="13.1245747"><ele>766.0</ele><time>2026-05-01T12:23:42.925Z</time></trkpt><trkpt lat="42.7646919" lon="13.1246777"><ele>766.0</ele><time>2026-05-01T12:23:43.925Z</time></trkpt><trkpt lat="42.764452" lon="13.1248284"><ele>772.5</ele><time>2026-05-01T12:23:44.925Z</time></trkpt><trkpt lat="42.764216" lon="13.1250131"><ele>779.0</ele><time>2026-05-01T12:23:45.925Z</time></trkpt><trkpt lat="42.7639774" lon="13.1252095"><ele>779.0</ele><time>2026-05-01T12:23:46.924Z</time></trkpt><trkpt lat="42.7637235" lon="13.1253858"><ele>779.0</ele><time>2026-05-01T12:23:47.925Z</time></trkpt><trkpt lat="42.7634574" lon="13.1255383"><ele>776.5</ele><time>2026-05-01T12:23:48.925Z</time></trkpt><trkpt lat="42.7631849" lon="13.1256897"><ele>774.0</ele><time>2026-05-01T12:23:49.924Z</time></trkpt><trkpt lat="42.7629096" lon="13.1258301"><ele>781.0</ele><time>2026-05-01T12:23:50.925Z</time></trkpt><trkpt lat="42.762661" lon="13.1259672"><ele>788.0</ele><time>2026-05-01T12:23:51.925Z</time></trkpt><trkpt lat="42.762442" lon="13.1260925"><ele>788.0</ele><time>2026-05-01T12:23:52.925Z</time></trkpt><trkpt lat="42.762243" lon="13.1262438"><ele>788.0</ele><time>2026-05-01T12:23:53.925Z</time></trkpt><trkpt lat="42.7620707" lon="13.1264169"><ele>788.0</ele><time>2026-05-01T12:23:54.924Z</time></trkpt><trkpt lat="42.7619361" lon="13.126616"><ele>788.0</ele><time>2026-05-01T12:23:55.924Z</time></trkpt><trkpt lat="42.7618368" lon="13.1268557"><ele>788.0</ele><time>2026-05-01T12:23:56.924Z</time></trkpt><trkpt lat="42.7617645" lon="13.1271354"><ele>788.0</ele><time>2026-05-01T12:23:57.924Z</time></trkpt><trkpt lat="42.7617111" lon="13.1274318"><ele>788.0</ele><time>2026-05-01T12:23:58.925Z</time></trkpt><trkpt lat="42.7616857" lon="13.1277366"><ele>788.0</ele><time>2026-05-01T12:23:59.925Z</time></trkpt><trkpt lat="42.7617005" lon="13.128067"><ele>788.5</ele><time>2026-05-01T12:24:00.925Z</time></trkpt><trkpt lat="42.761754" lon="13.1284177"><ele>789.0</ele><time>2026-05-01T12:24:01.925Z</time></trkpt><trkpt lat="42.7618372" lon="13.1287679"><ele>799.0</ele><time>2026-05-01T12:24:02.925Z</time></trkpt><trkpt lat="42.7619485" lon="13.1291103"><ele>809.0</ele><time>2026-05-01T12:24:03.925Z</time></trkpt><trkpt lat="42.7620691" lon="13.1294494"><ele>809.0</ele><time>2026-05-01T12:24:04.924Z</time></trkpt><trkpt lat="42.7622227" lon="13.1297776"><ele>809.0</ele><time>2026-05-01T12:24:05.925Z</time></trkpt><trkpt lat="42.7623932" lon="13.1300845"><ele>805.0</ele><time>2026-05-01T12:24:06.925Z</time></trkpt><trkpt lat="42.7625772" lon="13.1303815"><ele>801.0</ele><time>2026-05-01T12:24:07.925Z</time></trkpt><trkpt lat="42.7627786" lon="13.1306499"><ele>808.0</ele><time>2026-05-01T12:24:08.924Z</time></trkpt><trkpt lat="42.7629868" lon="13.1309097"><ele>815.0</ele><time>2026-05-01T12:24:09.924Z</time></trkpt><trkpt lat="42.7631929" lon="13.1311834"><ele>815.0</ele><time>2026-05-01T12:24:10.925Z</time></trkpt><trkpt lat="42.7633986" lon="13.1314561"><ele>815.0</ele><time>2026-05-01T12:24:11.924Z</time></trkpt><trkpt lat="42.7636037" lon="13.131728"><ele>821.5</ele><time>2026-05-01T12:24:12.924Z</time></trkpt><trkpt lat="42.763815" lon="13.1319979"><ele>828.0</ele><time>2026-05-01T12:24:13.925Z</time></trkpt><trkpt lat="42.7640285" lon="13.1322589"><ele>832.0</ele><time>2026-05-01T12:24:14.925Z</time></trkpt><trkpt lat="42.764237" lon="13.1325206"><ele>836.0</ele><time>2026-05-01T12:24:15.925Z</time></trkpt><trkpt lat="42.7644343" lon="13.1327868"><ele>836.0</ele><time>2026-05-01T12:24:16.925Z</time></trkpt><trkpt lat="42.7646482" lon="13.1330356"><ele>836.0</ele><time>2026-05-01T12:24:17.924Z</time></trkpt><trkpt lat="42.7648617" lon="13.1332823"><ele>838.0</ele><time>2026-05-01T12:24:18.925Z</time></trkpt><trkpt lat="42.7650699" lon="13.1335286"><ele>840.0</ele><time>2026-05-01T12:24:19.925Z</time></trkpt><trkpt lat="42.7652904" lon="13.1337673"><ele>840.0</ele><time>2026-05-01T12:24:20.924Z</time></trkpt><trkpt lat="42.7655074" lon="13.1339974"><ele>840.0</ele><time>2026-05-01T12:24:21.925Z</time></trkpt><trkpt lat="42.7657269" lon="13.1342117"><ele>837.5</ele><time>2026-05-01T12:24:22.924Z</time></trkpt><trkpt lat="42.765946" lon="13.1344128"><ele>835.0</ele><time>2026-05-01T12:24:23.924Z</time></trkpt><trkpt lat="42.7661664" lon="13.1345714"><ele>835.0</ele><time>2026-05-01T12:24:24.925Z</time></trkpt><trkpt lat="42.7663865" lon="13.1347117"><ele>835.0</ele><time>2026-05-01T12:24:25.924Z</time></trkpt><trkpt lat="42.7665996" lon="13.1348568"><ele>826.0</ele><time>2026-05-01T12:24:26.925Z</time></trkpt><trkpt lat="42.7667972" lon="13.135021"><ele>817.0</ele><time>2026-05-01T12:24:27.925Z</time></trkpt><trkpt lat="42.7669802" lon="13.1352"><ele>817.0</ele><time>2026-05-01T12:24:28.925Z</time></trkpt><trkpt lat="42.7671323" lon="13.1353567"><ele>817.0</ele><time>2026-05-01T12:24:29.924Z</time></trkpt><trkpt lat="42.7672422" lon="13.1355157"><ele>817.0</ele><time>2026-05-01T12:24:30.924Z</time></trkpt><trkpt lat="42.7673181" lon="13.1357006"><ele>814.3333333333333</ele><time>2026-05-01T12:24:31.925Z</time></trkpt><trkpt lat="42.7673533" lon="13.1359339"><ele>811.6666666666667</ele><time>2026-05-01T12:24:32.924Z</time></trkpt><trkpt lat="42.7673627" lon="13.1362076"><ele>809.0</ele><time>2026-05-01T12:24:33.924Z</time></trkpt><trkpt lat="42.7673828" lon="13.1365059"><ele>809.6666666666667</ele><time>2026-05-01T12:24:34.924Z</time></trkpt><trkpt lat="42.7674404" lon="13.1367923"><ele>810.3333333333333</ele><time>2026-05-01T12:24:35.925Z</time></trkpt><trkpt lat="42.767559" lon="13.1370319"><ele>811.0</ele><time>2026-05-01T12:24:36.925Z</time></trkpt><trkpt lat="42.7677209" lon="13.1372251"><ele>816.0</ele><time>2026-05-01T12:24:37.925Z</time></trkpt><trkpt lat="42.7679171" lon="13.137381"><ele>821.0</ele><time>2026-05-01T12:24:38.925Z</time></trkpt><trkpt lat="42.7681366" lon="13.1375261"><ele>821.0</ele><time>2026-05-01T12:24:39.924Z</time></trkpt><trkpt lat="42.7683619" lon="13.1376763"><ele>821.0</ele><time>2026-05-01T12:24:40.925Z</time></trkpt><trkpt lat="42.7685803" lon="13.13785"><ele>815.5</ele><time>2026-05-01T12:24:41.924Z</time></trkpt><trkpt lat="42.7687875" lon="13.1380251"><ele>810.0</ele><time>2026-05-01T12:24:42.925Z</time></trkpt><trkpt lat="42.768994" lon="13.1381746"><ele>812.0</ele><time>2026-05-01T12:24:43.925Z</time></trkpt><trkpt lat="42.7692045" lon="13.1382782"><ele>814.0</ele><time>2026-05-01T12:24:44.925Z</time></trkpt><trkpt lat="42.7694021" lon="13.1383552"><ele>816.0</ele><time>2026-05-01T12:24:45.925Z</time></trkpt><trkpt lat="42.7695987" lon="13.1384325"><ele>816.0</ele><time>2026-05-01T12:24:46.924Z</time></trkpt><trkpt lat="42.7697674" lon="13.1385582"><ele>816.0</ele><time>2026-05-01T12:24:47.924Z</time></trkpt><trkpt lat="42.7699269" lon="13.1387163"><ele>816.0</ele><time>2026-05-01T12:24:48.925Z</time></trkpt><trkpt lat="42.7700797" lon="13.138924"><ele>815.0</ele><time>2026-05-01T12:24:49.925Z</time></trkpt><trkpt lat="42.7702272" lon="13.1391599"><ele>814.0</ele><time>2026-05-01T12:24:50.925Z</time></trkpt><trkpt lat="42.7703604" lon="13.1394213"><ele>814.0</ele><time>2026-05-01T12:24:51.925Z</time></trkpt><trkpt lat="42.770489" lon="13.139715"><ele>814.0</ele><time>2026-05-01T12:24:52.925Z</time></trkpt><trkpt lat="42.7706254" lon="13.1400058"><ele>825.0</ele><time>2026-05-01T12:24:53.925Z</time></trkpt><trkpt lat="42.770767" lon="13.1402822"><ele>836.0</ele><time>2026-05-01T12:24:54.925Z</time></trkpt><trkpt lat="42.7709034" lon="13.1405595"><ele>829.0</ele><time>2026-05-01T12:24:55.924Z</time></trkpt><trkpt lat="42.7710292" lon="13.1408395"><ele>822.0</ele><time>2026-05-01T12:24:56.924Z</time></trkpt><trkpt lat="42.7711314" lon="13.1411427"><ele>822.0</ele><time>2026-05-01T12:24:57.924Z</time></trkpt><trkpt lat="42.7711957" lon="13.1414311"><ele>822.0</ele><time>2026-05-01T12:24:58.924Z</time></trkpt><trkpt lat="42.7712361" lon="13.1417121"><ele>822.0</ele><time>2026-05-01T12:24:59.925Z</time></trkpt><trkpt lat="42.7712493" lon="13.1419691"><ele>825.0</ele><time>2026-05-01T12:25:00.925Z</time></trkpt><trkpt lat="42.7712361" lon="13.1422139"><ele>828.0</ele><time>2026-05-01T12:25:01.925Z</time></trkpt><trkpt lat="42.7712044" lon="13.1424587"><ele>831.0</ele><time>2026-05-01T12:25:02.925Z</time></trkpt><trkpt lat="42.7711553" lon="13.1427286"><ele>833.6666666666667</ele><time>2026-05-01T12:25:03.925Z</time></trkpt><trkpt lat="42.771101" lon="13.1430036"><ele>836.3333333333334</ele><time>2026-05-01T12:25:04.925Z</time></trkpt><trkpt lat="42.7710406" lon="13.1432453"><ele>839.0</ele><time>2026-05-01T12:25:05.925Z</time></trkpt><trkpt lat="42.7709966" lon="13.1434438"><ele>844.2</ele><time>2026-05-01T12:25:06.924Z</time></trkpt><trkpt lat="42.7709589" lon="13.1436034"><ele>849.4000000000001</ele><time>2026-05-01T12:25:07.925Z</time></trkpt><trkpt lat="42.7709266" lon="13.1437409"><ele>854.6</ele><time>2026-05-01T12:25:08.925Z</time></trkpt><trkpt lat="42.7709075" lon="13.1438608"><ele>859.8</ele><time>2026-05-01T12:25:09.924Z</time></trkpt><trkpt lat="42.7709119" lon="13.1439774"><ele>865.0</ele><time>2026-05-01T12:25:10.925Z</time></trkpt><trkpt lat="42.7709456" lon="13.1440812"><ele>864.75</ele><time>2026-05-01T12:25:11.924Z</time></trkpt><trkpt lat="42.7710067" lon="13.1441663"><ele>864.5</ele><time>2026-05-01T12:25:12.925Z</time></trkpt><trkpt lat="42.7711001" lon="13.1442288"><ele>864.25</ele><time>2026-05-01T12:25:13.925Z</time></trkpt><trkpt lat="42.7712376" lon="13.1442618"><ele>864.0</ele><time>2026-05-01T12:25:14.925Z</time></trkpt><trkpt lat="42.7714022" lon="13.1442611"><ele>864.0</ele><time>2026-05-01T12:25:15.925Z</time></trkpt><trkpt lat="42.7715855" lon="13.1442561"><ele>864.0</ele><time>2026-05-01T12:25:16.925Z</time></trkpt><trkpt lat="42.7717914" lon="13.1442489"><ele>864.0</ele><time>2026-05-01T12:25:17.924Z</time></trkpt><trkpt lat="42.7720144" lon="13.1442439"><ele>864.0</ele><time>2026-05-01T12:25:18.924Z</time></trkpt><trkpt lat="42.7722454" lon="13.1442634"><ele>864.0</ele><time>2026-05-01T12:25:19.925Z</time></trkpt><trkpt lat="42.7724882" lon="13.1442883"><ele>864.0</ele><time>2026-05-01T12:25:20.925Z</time></trkpt><trkpt lat="42.7727411" lon="13.144323"><ele>864.0</ele><time>2026-05-01T12:25:21.925Z</time></trkpt><trkpt lat="42.7729966" lon="13.1443607"><ele>864.0</ele><time>2026-05-01T12:25:22.925Z</time></trkpt><trkpt lat="42.7732412" lon="13.1443925"><ele>864.0</ele><time>2026-05-01T12:25:23.925Z</time></trkpt><trkpt lat="42.7734693" lon="13.1444416"><ele>865.3333333333333</ele><time>2026-05-01T12:25:24.924Z</time></trkpt><trkpt lat="42.7736722" lon="13.1444952"><ele>866.6666666666666</ele><time>2026-05-01T12:25:25.925Z</time></trkpt><trkpt lat="42.7738462" lon="13.14455"><ele>868.0</ele><time>2026-05-01T12:25:26.925Z</time></trkpt><trkpt lat="42.7740061" lon="13.1445843"><ele>868.0</ele><time>2026-05-01T12:25:27.926Z</time></trkpt><trkpt lat="42.7741382" lon="13.1445969"><ele>868.0</ele><time>2026-05-01T12:25:28.925Z</time></trkpt><trkpt lat="42.7742718" lon="13.1445661"><ele>868.0</ele><time>2026-05-01T12:25:29.925Z</time></trkpt><trkpt lat="42.7744087" lon="13.1445226"><ele>868.0</ele><time>2026-05-01T12:25:30.926Z</time></trkpt><trkpt lat="42.7745601" lon="13.1444417"><ele>871.3333333333333</ele><time>2026-05-01T12:25:31.926Z</time></trkpt><trkpt lat="42.7747295" lon="13.1443347"><ele>874.6666666666667</ele><time>2026-05-01T12:25:32.926Z</time></trkpt><trkpt lat="42.7749298" lon="13.144216"><ele>878.0</ele><time>2026-05-01T12:25:33.926Z</time></trkpt><trkpt lat="42.7751255" lon="13.1441212"><ele>874.0</ele><time>2026-05-01T12:25:34.925Z</time></trkpt><trkpt lat="42.7752922" lon="13.1440317"><ele>870.0</ele><time>2026-05-01T12:25:35.926Z</time></trkpt><trkpt lat="42.7754604" lon="13.1439965"><ele>866.0</ele><time>2026-05-01T12:25:36.925Z</time></trkpt><trkpt lat="42.7756424" lon="13.1440188"><ele>872.6666666666667</ele><time>2026-05-01T12:25:37.925Z</time></trkpt><trkpt lat="42.775841" lon="13.1440811"><ele>879.3333333333333</ele><time>2026-05-01T12:25:38.926Z</time></trkpt><trkpt lat="42.7760266" lon="13.1441583"><ele>886.0</ele><time>2026-05-01T12:25:39.926Z</time></trkpt><trkpt lat="42.7761764" lon="13.144221"><ele>886.5</ele><time>2026-05-01T12:25:40.926Z</time></trkpt><trkpt lat="42.776316" lon="13.1442735"><ele>887.0</ele><time>2026-05-01T12:25:41.926Z</time></trkpt><trkpt lat="42.7764427" lon="13.1443034"><ele>887.5</ele><time>2026-05-01T12:25:42.925Z</time></trkpt><trkpt lat="42.7765587" lon="13.1443303"><ele>888.0</ele><time>2026-05-01T12:25:43.926Z</time></trkpt><trkpt lat="42.7766794" lon="13.144324"><ele>888.0</ele><time>2026-05-01T12:25:44.926Z</time></trkpt><trkpt lat="42.776818" lon="13.1442685"><ele>888.0</ele><time>2026-05-01T12:25:45.926Z</time></trkpt><trkpt lat="42.7769738" lon="13.1441697"><ele>888.0</ele><time>2026-05-01T12:25:46.926Z</time></trkpt><trkpt lat="42.7771495" lon="13.1440592"><ele>885.3333333333333</ele><time>2026-05-01T12:25:47.925Z</time></trkpt><trkpt lat="42.7773475" lon="13.1439558"><ele>882.6666666666666</ele><time>2026-05-01T12:25:48.925Z</time></trkpt><trkpt lat="42.7775551" lon="13.1438366"><ele>880.0</ele><time>2026-05-01T12:25:49.926Z</time></trkpt><trkpt lat="42.7777734" lon="13.1436772"><ele>892.0</ele><time>2026-05-01T12:25:50.926Z</time></trkpt><trkpt lat="42.7779787" lon="13.1435038"><ele>904.0</ele><time>2026-05-01T12:25:51.926Z</time></trkpt><trkpt lat="42.7781911" lon="13.1433105"><ele>901.5</ele><time>2026-05-01T12:25:52.925Z</time></trkpt><trkpt lat="42.7783984" lon="13.1431321"><ele>899.0</ele><time>2026-05-01T12:25:53.926Z</time></trkpt><trkpt lat="42.7785929" lon="13.1429817"><ele>899.0</ele><time>2026-05-01T12:25:54.926Z</time></trkpt><trkpt lat="42.7787809" lon="13.1428469"><ele>899.0</ele><time>2026-05-01T12:25:55.926Z</time></trkpt><trkpt lat="42.7789712" lon="13.1427306"><ele>899.0</ele><time>2026-05-01T12:25:56.926Z</time></trkpt><trkpt lat="42.7791592" lon="13.1426473"><ele>899.0</ele><time>2026-05-01T12:25:57.926Z</time></trkpt><trkpt lat="42.7793478" lon="13.1426153"><ele>899.0</ele><time>2026-05-01T12:25:58.926Z</time></trkpt><trkpt lat="42.7795408" lon="13.14263"><ele>899.0</ele><time>2026-05-01T12:25:59.926Z</time></trkpt><trkpt lat="42.7797762" lon="13.1426842"><ele>902.0</ele><time>2026-05-01T12:26:00.926Z</time></trkpt><trkpt lat="42.7800186" lon="13.1427093"><ele>905.0</ele><time>2026-05-01T12:26:01.925Z</time></trkpt><trkpt lat="42.7802655" lon="13.1427184"><ele>909.0</ele><time>2026-05-01T12:26:02.925Z</time></trkpt><trkpt lat="42.7805209" lon="13.142689"><ele>913.0</ele><time>2026-05-01T12:26:03.926Z</time></trkpt><trkpt lat="42.7807652" lon="13.1426158"><ele>913.0</ele><time>2026-05-01T12:26:04.926Z</time></trkpt><trkpt lat="42.7809988" lon="13.1425301"><ele>913.0</ele><time>2026-05-01T12:26:05.925Z</time></trkpt><trkpt lat="42.7812197" lon="13.1424375"><ele>915.0</ele><time>2026-05-01T12:26:06.925Z</time></trkpt><trkpt lat="42.7814321" lon="13.1423717"><ele>917.0</ele><time>2026-05-01T12:26:07.925Z</time></trkpt><trkpt lat="42.781658" lon="13.1423384"><ele>919.0</ele><time>2026-05-01T12:26:08.926Z</time></trkpt><trkpt lat="42.7818806" lon="13.1423423"><ele>919.0</ele><time>2026-05-01T12:26:09.925Z</time></trkpt><trkpt lat="42.7820627" lon="13.14235"><ele>919.0</ele><time>2026-05-01T12:26:10.926Z</time></trkpt><trkpt lat="42.7822156" lon="13.1423077"><ele>919.0</ele><time>2026-05-01T12:26:11.925Z</time></trkpt><trkpt lat="42.7823632" lon="13.1422076"><ele>919.0</ele><time>2026-05-01T12:26:12.926Z</time></trkpt><trkpt lat="42.7825134" lon="13.1420564"><ele>919.0</ele><time>2026-05-01T12:26:13.926Z</time></trkpt><trkpt lat="42.7826823" lon="13.141881"><ele>919.0</ele><time>2026-05-01T12:26:14.925Z</time></trkpt><trkpt lat="42.7828667" lon="13.1416929"><ele>920.0</ele><time>2026-05-01T12:26:15.925Z</time></trkpt><trkpt lat="42.7830625" lon="13.1414986"><ele>921.0</ele><time>2026-05-01T12:26:16.925Z</time></trkpt><trkpt lat="42.7832676" lon="13.1413257"><ele>921.0</ele><time>2026-05-01T12:26:17.924Z</time></trkpt><trkpt lat="42.7834609" lon="13.1411831"><ele>921.0</ele><time>2026-05-01T12:26:18.925Z</time></trkpt><trkpt lat="42.7836323" lon="13.1410776"><ele>921.0</ele><time>2026-05-01T12:26:19.925Z</time></trkpt><trkpt lat="42.7837853" lon="13.1409874"><ele>925.6666666666667</ele><time>2026-05-01T12:26:20.925Z</time></trkpt><trkpt lat="42.7839196" lon="13.1408686"><ele>930.3333333333334</ele><time>2026-05-01T12:26:21.925Z</time></trkpt><trkpt lat="42.7840288" lon="13.1406997"><ele>935.0</ele><time>2026-05-01T12:26:22.925Z</time></trkpt><trkpt lat="42.7841167" lon="13.1404573"><ele>935.0</ele><time>2026-05-01T12:26:23.925Z</time></trkpt><trkpt lat="42.7842144" lon="13.1401928"><ele>935.0</ele><time>2026-05-01T12:26:24.925Z</time></trkpt><trkpt lat="42.7843432" lon="13.1399255"><ele>942.5</ele><time>2026-05-01T12:26:25.925Z</time></trkpt><trkpt lat="42.7845" lon="13.1396547"><ele>950.0</ele><time>2026-05-01T12:26:26.924Z</time></trkpt><trkpt lat="42.7846717" lon="13.1393909"><ele>950.0</ele><time>2026-05-01T12:26:27.925Z</time></trkpt><trkpt lat="42.7848489" lon="13.1391344"><ele>950.0</ele><time>2026-05-01T12:26:28.924Z</time></trkpt><trkpt lat="42.7850387" lon="13.1388736"><ele>954.5</ele><time>2026-05-01T12:26:29.924Z</time></trkpt><trkpt lat="42.785247" lon="13.1386314"><ele>959.0</ele><time>2026-05-01T12:26:30.925Z</time></trkpt><trkpt lat="42.7854691" lon="13.1383984"><ele>944.5</ele><time>2026-05-01T12:26:31.925Z</time></trkpt><trkpt lat="42.7856922" lon="13.1381619"><ele>930.0</ele><time>2026-05-01T12:26:32.925Z</time></trkpt><trkpt lat="42.7859197" lon="13.1379489"><ele>946.5</ele><time>2026-05-01T12:26:33.924Z</time></trkpt><trkpt lat="42.7861439" lon="13.1377462"><ele>963.0</ele><time>2026-05-01T12:26:34.925Z</time></trkpt><trkpt lat="42.7863745" lon="13.1375482"><ele>946.5</ele><time>2026-05-01T12:26:35.924Z</time></trkpt><trkpt lat="42.7866052" lon="13.1373634"><ele>930.0</ele><time>2026-05-01T12:26:36.925Z</time></trkpt><trkpt lat="42.7868302" lon="13.1371821"><ele>942.5</ele><time>2026-05-01T12:26:37.925Z</time></trkpt><trkpt lat="42.7870552" lon="13.1370318"><ele>955.0</ele><time>2026-05-01T12:26:38.925Z</time></trkpt><trkpt lat="42.7872755" lon="13.1368769"><ele>955.0</ele><time>2026-05-01T12:26:39.924Z</time></trkpt><trkpt lat="42.7874923" lon="13.136746"><ele>955.0</ele><time>2026-05-01T12:26:40.925Z</time></trkpt><trkpt lat="42.7877148" lon="13.1366373"><ele>946.0</ele><time>2026-05-01T12:26:41.925Z</time></trkpt><trkpt lat="42.7879505" lon="13.1365543"><ele>937.0</ele><time>2026-05-01T12:26:42.925Z</time></trkpt><trkpt lat="42.7882059" lon="13.1364738"><ele>937.0</ele><time>2026-05-01T12:26:43.925Z</time></trkpt><trkpt lat="42.7884681" lon="13.1363907"><ele>937.0</ele><time>2026-05-01T12:26:44.925Z</time></trkpt><trkpt lat="42.7887187" lon="13.1363118"><ele>944.0</ele><time>2026-05-01T12:26:45.925Z</time></trkpt><trkpt lat="42.7889567" lon="13.1362495"><ele>951.0</ele><time>2026-05-01T12:26:46.924Z</time></trkpt><trkpt lat="42.7891732" lon="13.1362073"><ele>952.3333333333333</ele><time>2026-05-01T12:26:47.925Z</time></trkpt><trkpt lat="42.7893724" lon="13.1361865"><ele>953.6666666666666</ele><time>2026-05-01T12:26:48.925Z</time></trkpt><trkpt lat="42.789546" lon="13.1361922"><ele>955.0</ele><time>2026-05-01T12:26:49.924Z</time></trkpt><trkpt lat="42.7897191" lon="13.1362362"><ele>955.0</ele><time>2026-05-01T12:26:50.924Z</time></trkpt><trkpt lat="42.7898894" lon="13.1363035"><ele>955.0</ele><time>2026-05-01T12:26:51.925Z</time></trkpt><trkpt lat="42.7900587" lon="13.1363627"><ele>955.0</ele><time>2026-05-01T12:26:52.925Z</time></trkpt><trkpt lat="42.7902134" lon="13.1363863"><ele>962.6666666666666</ele><time>2026-05-01T12:26:53.925Z</time></trkpt><trkpt lat="42.7903624" lon="13.1363618"><ele>970.3333333333333</ele><time>2026-05-01T12:26:54.925Z</time></trkpt><trkpt lat="42.7905034" lon="13.136273"><ele>978.0</ele><time>2026-05-01T12:26:55.925Z</time></trkpt><trkpt lat="42.7906353" lon="13.1361295"><ele>978.0</ele><time>2026-05-01T12:26:56.925Z</time></trkpt><trkpt lat="42.7907558" lon="13.135969"><ele>978.0</ele><time>2026-05-01T12:26:57.925Z</time></trkpt><trkpt lat="42.7908648" lon="13.1357837"><ele>978.0</ele><time>2026-05-01T12:26:58.925Z</time></trkpt><trkpt lat="42.7909869" lon="13.1355998"><ele>977.0</ele><time>2026-05-01T12:26:59.925Z</time></trkpt><trkpt lat="42.7911095" lon="13.1354428"><ele>976.0</ele><time>2026-05-01T12:27:00.925Z</time></trkpt><trkpt lat="42.7912532" lon="13.135321"><ele>975.0</ele><time>2026-05-01T12:27:01.925Z</time></trkpt><trkpt lat="42.7914059" lon="13.1352369"><ele>975.0</ele><time>2026-05-01T12:27:02.925Z</time></trkpt><trkpt lat="42.791571" lon="13.1351768"><ele>975.0</ele><time>2026-05-01T12:27:03.925Z</time></trkpt><trkpt lat="42.7917484" lon="13.1351425"><ele>975.0</ele><time>2026-05-01T12:27:04.925Z</time></trkpt><trkpt lat="42.7919162" lon="13.1351178"><ele>972.3333333333333</ele><time>2026-05-01T12:27:05.925Z</time></trkpt><trkpt lat="42.7920778" lon="13.1350908"><ele>969.6666666666666</ele><time>2026-05-01T12:27:06.925Z</time></trkpt><trkpt lat="42.7922207" lon="13.1350019"><ele>967.0</ele><time>2026-05-01T12:27:07.925Z</time></trkpt><trkpt lat="42.7923448" lon="13.1348582"><ele>967.0</ele><time>2026-05-01T12:27:08.925Z</time></trkpt><trkpt lat="42.7924611" lon="13.1347123"><ele>967.0</ele><time>2026-05-01T12:27:09.925Z</time></trkpt><trkpt lat="42.7925795" lon="13.1345853"><ele>967.0</ele><time>2026-05-01T12:27:10.924Z</time></trkpt><trkpt lat="42.7927397" lon="13.1344709"><ele>977.3333333333333</ele><time>2026-05-01T12:27:11.924Z</time></trkpt><trkpt lat="42.7929113" lon="13.1343624"><ele>987.6666666666667</ele><time>2026-05-01T12:27:12.925Z</time></trkpt><trkpt lat="42.7931002" lon="13.1342462"><ele>998.0</ele><time>2026-05-01T12:27:13.924Z</time></trkpt><trkpt lat="42.7932964" lon="13.1341367"><ele>996.6666666666667</ele><time>2026-05-01T12:27:14.925Z</time></trkpt><trkpt lat="42.7934876" lon="13.1340094"><ele>995.3333333333333</ele><time>2026-05-01T12:27:15.925Z</time></trkpt><trkpt lat="42.7936747" lon="13.1338599"><ele>994.0</ele><time>2026-05-01T12:27:16.925Z</time></trkpt><trkpt lat="42.7938609" lon="13.133714"><ele>994.0</ele><time>2026-05-01T12:27:17.925Z</time></trkpt><trkpt lat="42.7940361" lon="13.1335697"><ele>994.0</ele><time>2026-05-01T12:27:18.925Z</time></trkpt><trkpt lat="42.7942322" lon="13.1334592"><ele>994.0</ele><time>2026-05-01T12:27:19.925Z</time></trkpt><trkpt lat="42.7944371" lon="13.1333553"><ele>989.0</ele><time>2026-05-01T12:27:20.924Z</time></trkpt><trkpt lat="42.7946481" lon="13.1332466"><ele>984.0</ele><time>2026-05-01T12:27:21.925Z</time></trkpt><trkpt lat="42.7948653" lon="13.1331189"><ele>984.0</ele><time>2026-05-01T12:27:22.924Z</time></trkpt><trkpt lat="42.7950853" lon="13.1329683"><ele>984.0</ele><time>2026-05-01T12:27:23.925Z</time></trkpt><trkpt lat="42.7952752" lon="13.1328164"><ele>989.25</ele><time>2026-05-01T12:27:24.924Z</time></trkpt><trkpt lat="42.7954544" lon="13.1326766"><ele>994.5</ele><time>2026-05-01T12:27:25.924Z</time></trkpt><trkpt lat="42.7955681" lon="13.1325959"><ele>999.75</ele><time>2026-05-01T12:27:26.924Z</time></trkpt><trkpt lat="42.7956412" lon="13.1325952"><ele>1005.0</ele><time>2026-05-01T12:27:27.925Z</time></trkpt><trkpt lat="42.7956901" lon="13.1327081"><ele>1005.0</ele><time>2026-05-01T12:27:29.925Z</time></trkpt><trkpt lat="42.795667" lon="13.1328284"><ele>1005.0</ele><time>2026-05-01T12:27:30.925Z</time></trkpt><trkpt lat="42.795608" lon="13.1329155"><ele>1005.0</ele><time>2026-05-01T12:27:31.925Z</time></trkpt><trkpt lat="42.795504" lon="13.1329762"><ele>1005.0</ele><time>2026-05-01T12:27:32.924Z</time></trkpt><trkpt lat="42.7953776" lon="13.1330287"><ele>1005.0</ele><time>2026-05-01T12:27:33.925Z</time></trkpt><trkpt lat="42.795231" lon="13.1331239"><ele>1008.0</ele><time>2026-05-01T12:27:34.925Z</time></trkpt><trkpt lat="42.7950583" lon="13.133258"><ele>1011.0</ele><time>2026-05-01T12:27:35.925Z</time></trkpt><trkpt lat="42.7948785" lon="13.1334088"><ele>1014.0</ele><time>2026-05-01T12:27:36.924Z</time></trkpt><trkpt lat="42.7946787" lon="13.133549"><ele>1014.0</ele><time>2026-05-01T12:27:37.925Z</time></trkpt><trkpt lat="42.794474" lon="13.1336935"><ele>1014.0</ele><time>2026-05-01T12:27:38.925Z</time></trkpt><trkpt lat="42.7942774" lon="13.1338352"><ele>1020.5</ele><time>2026-05-01T12:27:39.925Z</time></trkpt><trkpt lat="42.7940832" lon="13.1339831"><ele>1027.0</ele><time>2026-05-01T12:27:40.925Z</time></trkpt><trkpt lat="42.7939004" lon="13.1341683"><ele>1027.0</ele><time>2026-05-01T12:27:41.925Z</time></trkpt><trkpt lat="42.7937235" lon="13.1343928"><ele>1027.0</ele><time>2026-05-01T12:27:42.925Z</time></trkpt><trkpt lat="42.7935339" lon="13.1345949"><ele>1031.5</ele><time>2026-05-01T12:27:43.925Z</time></trkpt><trkpt lat="42.7933269" lon="13.1347903"><ele>1036.0</ele><time>2026-05-01T12:27:44.924Z</time></trkpt><trkpt lat="42.7931257" lon="13.1349802"><ele>1036.0</ele><time>2026-05-01T12:27:45.925Z</time></trkpt><trkpt lat="42.7929407" lon="13.1351682"><ele>1036.0</ele><time>2026-05-01T12:27:46.925Z</time></trkpt><trkpt lat="42.7927793" lon="13.1353502"><ele>1036.0</ele><time>2026-05-01T12:27:47.925Z</time></trkpt><trkpt lat="42.7926534" lon="13.1355297"><ele>1036.3333333333333</ele><time>2026-05-01T12:27:48.925Z</time></trkpt><trkpt lat="42.7925523" lon="13.1357013"><ele>1036.6666666666667</ele><time>2026-05-01T12:27:49.925Z</time></trkpt><trkpt lat="42.7924432" lon="13.1358351"><ele>1037.0</ele><time>2026-05-01T12:27:50.925Z</time></trkpt><trkpt lat="42.7923127" lon="13.1359373"><ele>1037.0</ele><time>2026-05-01T12:27:51.925Z</time></trkpt><trkpt lat="42.7921489" lon="13.136012"><ele>1037.0</ele><time>2026-05-01T12:27:52.924Z</time></trkpt><trkpt lat="42.7919744" lon="13.1360949"><ele>1037.0</ele><time>2026-05-01T12:27:53.925Z</time></trkpt><trkpt lat="42.7918128" lon="13.1361953"><ele>1040.0</ele><time>2026-05-01T12:27:54.924Z</time></trkpt><trkpt lat="42.7916624" lon="13.1363335"><ele>1043.0</ele><time>2026-05-01T12:27:55.925Z</time></trkpt><trkpt lat="42.7915174" lon="13.1365455"><ele>1046.0</ele><time>2026-05-01T12:27:56.925Z</time></trkpt><trkpt lat="42.7913797" lon="13.1367901"><ele>1046.0</ele><time>2026-05-01T12:27:57.925Z</time></trkpt><trkpt lat="42.7912329" lon="13.1370513"><ele>1046.0</ele><time>2026-05-01T12:27:58.925Z</time></trkpt><trkpt lat="42.7911009" lon="13.1373039"><ele>1045.3333333333335</ele><time>2026-05-01T12:27:59.925Z</time></trkpt><trkpt lat="42.7909748" lon="13.1375188"><ele>1044.6666666666667</ele><time>2026-05-01T12:28:00.925Z</time></trkpt><trkpt lat="42.7908779" lon="13.1376906"><ele>1044.0</ele><time>2026-05-01T12:28:01.925Z</time></trkpt><trkpt lat="42.7907967" lon="13.137827"><ele>1044.0</ele><time>2026-05-01T12:28:02.925Z</time></trkpt><trkpt lat="42.7907035" lon="13.1379237"><ele>1044.0</ele><time>2026-05-01T12:28:03.924Z</time></trkpt><trkpt lat="42.7905723" lon="13.1379577"><ele>1044.0</ele><time>2026-05-01T12:28:04.925Z</time></trkpt><trkpt lat="42.7903996" lon="13.1379272"><ele>1044.0</ele><time>2026-05-01T12:28:05.925Z</time></trkpt><trkpt lat="42.7902057" lon="13.1379194"><ele>1039.6666666666667</ele><time>2026-05-01T12:28:06.924Z</time></trkpt><trkpt lat="42.7900168" lon="13.1379604"><ele>1035.3333333333335</ele><time>2026-05-01T12:28:07.924Z</time></trkpt><trkpt lat="42.7898384" lon="13.1380094"><ele>1031.0</ele><time>2026-05-01T12:28:08.925Z</time></trkpt><trkpt lat="42.7896633" lon="13.1380006"><ele>1031.0</ele><time>2026-05-01T12:28:09.925Z</time></trkpt><trkpt lat="42.7894863" lon="13.1379401"><ele>1031.0</ele><time>2026-05-01T12:28:10.925Z</time></trkpt><trkpt lat="42.7893017" lon="13.1379408"><ele>1031.0</ele><time>2026-05-01T12:28:11.924Z</time></trkpt><trkpt lat="42.7891005" lon="13.1380138"><ele>1031.0</ele><time>2026-05-01T12:28:12.925Z</time></trkpt><trkpt lat="42.7888969" lon="13.138141"><ele>1031.0</ele><time>2026-05-01T12:28:13.925Z</time></trkpt><trkpt lat="42.7886788" lon="13.1382991"><ele>1040.5</ele><time>2026-05-01T12:28:14.925Z</time></trkpt><trkpt lat="42.7884633" lon="13.1384627"><ele>1050.0</ele><time>2026-05-01T12:28:15.925Z</time></trkpt><trkpt lat="42.7882433" lon="13.1386353"><ele>1050.0</ele><time>2026-05-01T12:28:16.925Z</time></trkpt><trkpt lat="42.7880309" lon="13.1388297"><ele>1050.0</ele><time>2026-05-01T12:28:17.925Z</time></trkpt><trkpt lat="42.7878312" lon="13.1390428"><ele>1052.5</ele><time>2026-05-01T12:28:18.925Z</time></trkpt><trkpt lat="42.7876393" lon="13.1392739"><ele>1055.0</ele><time>2026-05-01T12:28:19.925Z</time></trkpt><trkpt lat="42.7874649" lon="13.1395238"><ele>1055.0</ele><time>2026-05-01T12:28:20.925Z</time></trkpt><trkpt lat="42.7873022" lon="13.1397925"><ele>1055.0</ele><time>2026-05-01T12:28:21.924Z</time></trkpt><trkpt lat="42.7871499" lon="13.1400794"><ele>1072.5</ele><time>2026-05-01T12:28:22.924Z</time></trkpt><trkpt lat="42.7870026" lon="13.1403786"><ele>1090.0</ele><time>2026-05-01T12:28:23.925Z</time></trkpt><trkpt lat="42.7868654" lon="13.1406812"><ele>1080.5</ele><time>2026-05-01T12:28:24.924Z</time></trkpt><trkpt lat="42.7867329" lon="13.1409708"><ele>1071.0</ele><time>2026-05-01T12:28:25.925Z</time></trkpt><trkpt lat="42.7866188" lon="13.1412567"><ele>1071.0</ele><time>2026-05-01T12:28:26.925Z</time></trkpt><trkpt lat="42.7865187" lon="13.141548"><ele>1071.0</ele><time>2026-05-01T12:28:27.925Z</time></trkpt><trkpt lat="42.7864358" lon="13.14186"><ele>1078.5</ele><time>2026-05-01T12:28:28.925Z</time></trkpt><trkpt lat="42.7863813" lon="13.1421982"><ele>1086.0</ele><time>2026-05-01T12:28:29.925Z</time></trkpt><trkpt lat="42.7863457" lon="13.1425425"><ele>1092.0</ele><time>2026-05-01T12:28:30.925Z</time></trkpt><trkpt lat="42.7863209" lon="13.1428827"><ele>1098.0</ele><time>2026-05-01T12:28:31.925Z</time></trkpt><trkpt lat="42.7863092" lon="13.1432055"><ele>1102.3333333333333</ele><time>2026-05-01T12:28:32.924Z</time></trkpt><trkpt lat="42.7862945" lon="13.1435187"><ele>1106.6666666666665</ele><time>2026-05-01T12:28:33.925Z</time></trkpt><trkpt lat="42.7862396" lon="13.1438068"><ele>1111.0</ele><time>2026-05-01T12:28:34.925Z</time></trkpt><trkpt lat="42.7861598" lon="13.144106"><ele>1114.3333333333333</ele><time>2026-05-01T12:28:35.924Z</time></trkpt><trkpt lat="42.7860886" lon="13.1444092"><ele>1117.6666666666667</ele><time>2026-05-01T12:28:36.925Z</time></trkpt><trkpt lat="42.7860369" lon="13.1446827"><ele>1121.0</ele><time>2026-05-01T12:28:37.924Z</time></trkpt><trkpt lat="42.7859914" lon="13.1449317"><ele>1114.25</ele><time>2026-05-01T12:28:38.925Z</time></trkpt><trkpt lat="42.7859531" lon="13.1451223"><ele>1107.5</ele><time>2026-05-01T12:28:39.925Z</time></trkpt><trkpt lat="42.7859158" lon="13.1452844"><ele>1100.75</ele><time>2026-05-01T12:28:40.925Z</time></trkpt><trkpt lat="42.7858352" lon="13.1453992"><ele>1094.0</ele><time>2026-05-01T12:28:41.925Z</time></trkpt><trkpt lat="42.7857083" lon="13.145446"><ele>1094.0</ele><time>2026-05-01T12:28:42.925Z</time></trkpt><trkpt lat="42.7855309" lon="13.1454476"><ele>1094.0</ele><time>2026-05-01T12:28:43.925Z</time></trkpt><trkpt lat="42.7853304" lon="13.1455059"><ele>1094.0</ele><time>2026-05-01T12:28:44.925Z</time></trkpt><trkpt lat="42.785147" lon="13.1456266"><ele>1095.6666666666667</ele><time>2026-05-01T12:28:45.925Z</time></trkpt><trkpt lat="42.7849908" lon="13.1458063"><ele>1097.3333333333333</ele><time>2026-05-01T12:28:46.924Z</time></trkpt><trkpt lat="42.7848423" lon="13.1460328"><ele>1099.0</ele><time>2026-05-01T12:28:47.925Z</time></trkpt><trkpt lat="42.784696" lon="13.1462727"><ele>1099.0</ele><time>2026-05-01T12:28:48.925Z</time></trkpt><trkpt lat="42.7845409" lon="13.1464874"><ele>1099.0</ele><time>2026-05-01T12:28:49.925Z</time></trkpt><trkpt lat="42.7843905" lon="13.1466508"><ele>1099.0</ele><time>2026-05-01T12:28:50.925Z</time></trkpt><trkpt lat="42.784233" lon="13.1467586"><ele>1102.6666666666665</ele><time>2026-05-01T12:28:51.924Z</time></trkpt><trkpt lat="42.7840659" lon="13.1468102"><ele>1106.3333333333333</ele><time>2026-05-01T12:28:52.925Z</time></trkpt><trkpt lat="42.7838563" lon="13.1468091"><ele>1110.0</ele><time>2026-05-01T12:28:53.925Z</time></trkpt><trkpt lat="42.7836241" lon="13.1468132"><ele>1106.5</ele><time>2026-05-01T12:28:54.924Z</time></trkpt><trkpt lat="42.783384" lon="13.1468508"><ele>1103.0</ele><time>2026-05-01T12:28:55.924Z</time></trkpt><trkpt lat="42.7831408" lon="13.14693"><ele>1103.0</ele><time>2026-05-01T12:28:56.924Z</time></trkpt><trkpt lat="42.7828962" lon="13.147044"><ele>1103.0</ele><time>2026-05-01T12:28:57.925Z</time></trkpt><trkpt lat="42.7826421" lon="13.1471702"><ele>1096.0</ele><time>2026-05-01T12:28:58.925Z</time></trkpt><trkpt lat="42.7823878" lon="13.1473233"><ele>1089.0</ele><time>2026-05-01T12:28:59.925Z</time></trkpt><trkpt lat="42.7821319" lon="13.1474764"><ele>1098.0</ele><time>2026-05-01T12:29:00.925Z</time></trkpt><trkpt lat="42.7818884" lon="13.1476375"><ele>1107.0</ele><time>2026-05-01T12:29:01.925Z</time></trkpt><trkpt lat="42.7816635" lon="13.1478001"><ele>1107.0</ele><time>2026-05-01T12:29:02.925Z</time></trkpt><trkpt lat="42.7814613" lon="13.1479488"><ele>1107.0</ele><time>2026-05-01T12:29:03.925Z</time></trkpt><trkpt lat="42.7812627" lon="13.1481075"><ele>1117.0</ele><time>2026-05-01T12:29:04.925Z</time></trkpt><trkpt lat="42.7810764" lon="13.1482955"><ele>1127.0</ele><time>2026-05-01T12:29:05.925Z</time></trkpt><trkpt lat="42.7808963" lon="13.1484911"><ele>1127.0</ele><time>2026-05-01T12:29:06.925Z</time></trkpt><trkpt lat="42.7807168" lon="13.148691"><ele>1127.0</ele><time>2026-05-01T12:29:07.925Z</time></trkpt><trkpt lat="42.7805124" lon="13.1488481"><ele>1127.0</ele><time>2026-05-01T12:29:08.924Z</time></trkpt><trkpt lat="42.7802828" lon="13.1489842"><ele>1127.0</ele><time>2026-05-01T12:29:09.925Z</time></trkpt><trkpt lat="42.7800487" lon="13.1491425"><ele>1134.0</ele><time>2026-05-01T12:29:10.925Z</time></trkpt><trkpt lat="42.7798078" lon="13.1493116"><ele>1141.0</ele><time>2026-05-01T12:29:11.925Z</time></trkpt><trkpt lat="42.779569" lon="13.1494718"><ele>1141.0</ele><time>2026-05-01T12:29:12.925Z</time></trkpt><trkpt lat="42.7793526" lon="13.1496008"><ele>1141.0</ele><time>2026-05-01T12:29:13.924Z</time></trkpt><trkpt lat="42.7791489" lon="13.1497452"><ele>1150.5</ele><time>2026-05-01T12:29:14.924Z</time></trkpt><trkpt lat="42.7789396" lon="13.1499258"><ele>1160.0</ele><time>2026-05-01T12:29:15.924Z</time></trkpt><trkpt lat="42.7787327" lon="13.1501276"><ele>1160.0</ele><time>2026-05-01T12:29:16.924Z</time></trkpt><trkpt lat="42.7785284" lon="13.1503407"><ele>1160.0</ele><time>2026-05-01T12:29:17.925Z</time></trkpt><trkpt lat="42.7783333" lon="13.1505664"><ele>1161.5</ele><time>2026-05-01T12:29:18.924Z</time></trkpt><trkpt lat="42.7781422" lon="13.1507985"><ele>1163.0</ele><time>2026-05-01T12:29:19.925Z</time></trkpt><trkpt lat="42.7779629" lon="13.1510516"><ele>1163.0</ele><time>2026-05-01T12:29:20.925Z</time></trkpt><trkpt lat="42.777791" lon="13.1512969"><ele>1163.0</ele><time>2026-05-01T12:29:21.925Z</time></trkpt><trkpt lat="42.7776271" lon="13.1515416"><ele>1160.0</ele><time>2026-05-01T12:29:22.925Z</time></trkpt><trkpt lat="42.7774767" lon="13.1517723"><ele>1157.0</ele><time>2026-05-01T12:29:23.925Z</time></trkpt><trkpt lat="42.7773602" lon="13.1519755"><ele>1154.0</ele><time>2026-05-01T12:29:24.925Z</time></trkpt><trkpt lat="42.7772624" lon="13.152144"><ele>1154.0</ele><time>2026-05-01T12:29:25.925Z</time></trkpt><trkpt lat="42.7771705" lon="13.1522934"><ele>1154.0</ele><time>2026-05-01T12:29:26.925Z</time></trkpt><trkpt lat="42.7770843" lon="13.1523828"><ele>1154.0</ele><time>2026-05-01T12:29:27.925Z</time></trkpt><trkpt lat="42.7769783" lon="13.1524111"><ele>1154.0</ele><time>2026-05-01T12:29:28.925Z</time></trkpt><trkpt lat="42.7768596" lon="13.152348"><ele>1151.3333333333335</ele><time>2026-05-01T12:29:29.925Z</time></trkpt><trkpt lat="42.7767422" lon="13.1521868"><ele>1148.6666666666667</ele><time>2026-05-01T12:29:30.924Z</time></trkpt><trkpt lat="42.7766268" lon="13.1519812"><ele>1146.0</ele><time>2026-05-01T12:29:31.924Z</time></trkpt><trkpt lat="42.7765112" lon="13.1517795"><ele>1146.0</ele><time>2026-05-01T12:29:32.924Z</time></trkpt><trkpt lat="42.7763751" lon="13.1516465"><ele>1146.0</ele><time>2026-05-01T12:29:33.924Z</time></trkpt><trkpt lat="42.7762194" lon="13.1515525"><ele>1146.0</ele><time>2026-05-01T12:29:34.924Z</time></trkpt><trkpt lat="42.7760367" lon="13.1514488"><ele>1145.6666666666667</ele><time>2026-05-01T12:29:35.925Z</time></trkpt><trkpt lat="42.7758481" lon="13.1513366"><ele>1145.3333333333335</ele><time>2026-05-01T12:29:36.924Z</time></trkpt><trkpt lat="42.7756529" lon="13.1512224"><ele>1145.0</ele><time>2026-05-01T12:29:37.925Z</time></trkpt><trkpt lat="42.7754984" lon="13.1511077"><ele>1145.0</ele><time>2026-05-01T12:29:38.924Z</time></trkpt><trkpt lat="42.7753528" lon="13.1510013"><ele>1145.0</ele><time>2026-05-01T12:29:39.925Z</time></trkpt><trkpt lat="42.77519" lon="13.1509627"><ele>1145.0</ele><time>2026-05-01T12:29:40.925Z</time></trkpt><trkpt lat="42.775005" lon="13.1509631"><ele>1152.0</ele><time>2026-05-01T12:29:41.925Z</time></trkpt><trkpt lat="42.7748153" lon="13.1509477"><ele>1159.0</ele><time>2026-05-01T12:29:42.925Z</time></trkpt><trkpt lat="42.7746268" lon="13.1509475"><ele>1166.0</ele><time>2026-05-01T12:29:43.925Z</time></trkpt><trkpt lat="42.7744379" lon="13.1510052"><ele>1163.3333333333335</ele><time>2026-05-01T12:29:44.925Z</time></trkpt><trkpt lat="42.7742344" lon="13.1510955"><ele>1160.6666666666667</ele><time>2026-05-01T12:29:45.924Z</time></trkpt><trkpt lat="42.7740242" lon="13.1512015"><ele>1158.0</ele><time>2026-05-01T12:29:46.925Z</time></trkpt><trkpt lat="42.7738116" lon="13.151332"><ele>1158.0</ele><time>2026-05-01T12:29:47.925Z</time></trkpt><trkpt lat="42.7736179" lon="13.1514662"><ele>1158.0</ele><time>2026-05-01T12:29:48.924Z</time></trkpt><trkpt lat="42.7734496" lon="13.1515771"><ele>1158.0</ele><time>2026-05-01T12:29:49.925Z</time></trkpt><trkpt lat="42.7732934" lon="13.1516444"><ele>1155.0</ele><time>2026-05-01T12:29:50.924Z</time></trkpt><trkpt lat="42.7731278" lon="13.1516444"><ele>1152.0</ele><time>2026-05-01T12:29:51.924Z</time></trkpt><trkpt lat="42.7729559" lon="13.1515807"><ele>1149.0</ele><time>2026-05-01T12:29:52.925Z</time></trkpt><trkpt lat="42.7727683" lon="13.1515266"><ele>1163.3333333333333</ele><time>2026-05-01T12:29:53.924Z</time></trkpt><trkpt lat="42.7725669" lon="13.151544"><ele>1177.6666666666665</ele><time>2026-05-01T12:29:54.925Z</time></trkpt><trkpt lat="42.7723495" lon="13.1515888"><ele>1192.0</ele><time>2026-05-01T12:29:55.925Z</time></trkpt><trkpt lat="42.7721211" lon="13.1516173"><ele>1192.0</ele><time>2026-05-01T12:29:56.925Z</time></trkpt><trkpt lat="42.771883" lon="13.1516126"><ele>1192.0</ele><time>2026-05-01T12:29:57.925Z</time></trkpt><trkpt lat="42.7716368" lon="13.1515777"><ele>1181.3333333333333</ele><time>2026-05-01T12:29:58.924Z</time></trkpt><trkpt lat="42.7714019" lon="13.1515389"><ele>1170.6666666666667</ele><time>2026-05-01T12:29:59.924Z</time></trkpt><trkpt lat="42.7712036" lon="13.1514851"><ele>1160.0</ele><time>2026-05-01T12:30:00.924Z</time></trkpt><trkpt lat="42.7710313" lon="13.1514455"><ele>1160.6666666666667</ele><time>2026-05-01T12:30:01.925Z</time></trkpt><trkpt lat="42.7708472" lon="13.1514507"><ele>1161.3333333333333</ele><time>2026-05-01T12:30:02.924Z</time></trkpt><trkpt lat="42.7706695" lon="13.1515025"><ele>1162.0</ele><time>2026-05-01T12:30:03.925Z</time></trkpt><trkpt lat="42.7705164" lon="13.151574"><ele>1165.3333333333333</ele><time>2026-05-01T12:30:04.925Z</time></trkpt><trkpt lat="42.770384" lon="13.1516744"><ele>1168.6666666666667</ele><time>2026-05-01T12:30:05.925Z</time></trkpt><trkpt lat="42.7702757" lon="13.1518275"><ele>1172.0</ele><time>2026-05-01T12:30:06.925Z</time></trkpt><trkpt lat="42.7701796" lon="13.1520504"><ele>1172.0</ele><time>2026-05-01T12:30:07.924Z</time></trkpt><trkpt lat="42.7701147" lon="13.1523032"><ele>1172.0</ele><time>2026-05-01T12:30:08.925Z</time></trkpt><trkpt lat="42.7700403" lon="13.1525811"><ele>1172.0</ele><time>2026-05-01T12:30:09.924Z</time></trkpt><trkpt lat="42.7699677" lon="13.152896"><ele>1193.5</ele><time>2026-05-01T12:30:10.924Z</time></trkpt><trkpt lat="42.7698779" lon="13.1532166"><ele>1215.0</ele><time>2026-05-01T12:30:11.925Z</time></trkpt><trkpt lat="42.7697779" lon="13.1535401"><ele>1215.0</ele><time>2026-05-01T12:30:12.925Z</time></trkpt><trkpt lat="42.7696661" lon="13.1538473"><ele>1215.0</ele><time>2026-05-01T12:30:13.925Z</time></trkpt><trkpt lat="42.7695384" lon="13.1541341"><ele>1206.0</ele><time>2026-05-01T12:30:14.925Z</time></trkpt><trkpt lat="42.7693801" lon="13.1544054"><ele>1197.0</ele><time>2026-05-01T12:30:15.925Z</time></trkpt><trkpt lat="42.7692006" lon="13.1546738"><ele>1211.0</ele><time>2026-05-01T12:30:16.924Z</time></trkpt><trkpt lat="42.7690277" lon="13.1549486"><ele>1225.0</ele><time>2026-05-01T12:30:17.924Z</time></trkpt><trkpt lat="42.768873" lon="13.1552103"><ele>1225.0</ele><time>2026-05-01T12:30:18.925Z</time></trkpt><trkpt lat="42.7687113" lon="13.1554301"><ele>1225.0</ele><time>2026-05-01T12:30:19.925Z</time></trkpt><trkpt lat="42.7685302" lon="13.1556056"><ele>1223.3333333333333</ele><time>2026-05-01T12:30:20.925Z</time></trkpt><trkpt lat="42.7683469" lon="13.1557532"><ele>1221.6666666666667</ele><time>2026-05-01T12:30:21.925Z</time></trkpt><trkpt lat="42.768174" lon="13.1559078"><ele>1220.0</ele><time>2026-05-01T12:30:22.925Z</time></trkpt><trkpt lat="42.7680174" lon="13.1560906"><ele>1220.0</ele><time>2026-05-01T12:30:23.925Z</time></trkpt><trkpt lat="42.7678827" lon="13.1563303"><ele>1220.0</ele><time>2026-05-01T12:30:24.925Z</time></trkpt><trkpt lat="42.7677463" lon="13.1565931"><ele>1214.5</ele><time>2026-05-01T12:30:25.925Z</time></trkpt><trkpt lat="42.7676149" lon="13.1568756"><ele>1209.0</ele><time>2026-05-01T12:30:26.925Z</time></trkpt><trkpt lat="42.7674875" lon="13.1571657"><ele>1219.5</ele><time>2026-05-01T12:30:27.925Z</time></trkpt><trkpt lat="42.7673783" lon="13.1574634"><ele>1230.0</ele><time>2026-05-01T12:30:28.925Z</time></trkpt><trkpt lat="42.7672848" lon="13.157762"><ele>1230.0</ele><time>2026-05-01T12:30:29.925Z</time></trkpt><trkpt lat="42.7672193" lon="13.1580679"><ele>1230.0</ele><time>2026-05-01T12:30:30.925Z</time></trkpt><trkpt lat="42.7671673" lon="13.1583641"><ele>1235.3333333333333</ele><time>2026-05-01T12:30:31.925Z</time></trkpt><trkpt lat="42.767121" lon="13.158657"><ele>1240.6666666666665</ele><time>2026-05-01T12:30:32.924Z</time></trkpt><trkpt lat="42.7670805" lon="13.1589344"><ele>1246.0</ele><time>2026-05-01T12:30:33.925Z</time></trkpt><trkpt lat="42.7670477" lon="13.1591793"><ele>1248.75</ele><time>2026-05-01T12:30:34.924Z</time></trkpt><trkpt lat="42.7670181" lon="13.1593882"><ele>1251.5</ele><time>2026-05-01T12:30:35.925Z</time></trkpt><trkpt lat="42.7669881" lon="13.1595802"><ele>1254.25</ele><time>2026-05-01T12:30:36.924Z</time></trkpt><trkpt lat="42.7669701" lon="13.1597507"><ele>1257.0</ele><time>2026-05-01T12:30:37.925Z</time></trkpt><trkpt lat="42.7669573" lon="13.1599297"><ele>1259.75</ele><time>2026-05-01T12:30:38.924Z</time></trkpt><trkpt lat="42.7669538" lon="13.1601083"><ele>1262.5</ele><time>2026-05-01T12:30:39.925Z</time></trkpt><trkpt lat="42.766968" lon="13.1602826"><ele>1265.25</ele><time>2026-05-01T12:30:40.925Z</time></trkpt><trkpt lat="42.7669996" lon="13.1604845"><ele>1268.0</ele><time>2026-05-01T12:30:41.925Z</time></trkpt><trkpt lat="42.767049" lon="13.1607206"><ele>1268.3333333333335</ele><time>2026-05-01T12:30:42.925Z</time></trkpt><trkpt lat="42.7671216" lon="13.1609862"><ele>1268.6666666666667</ele><time>2026-05-01T12:30:43.925Z</time></trkpt><trkpt lat="42.7671903" lon="13.1612754"><ele>1269.0</ele><time>2026-05-01T12:30:44.924Z</time></trkpt><trkpt lat="42.7672489" lon="13.1615882"><ele>1267.5</ele><time>2026-05-01T12:30:45.924Z</time></trkpt><trkpt lat="42.7673036" lon="13.1619099"><ele>1266.0</ele><time>2026-05-01T12:30:46.925Z</time></trkpt><trkpt lat="42.7673583" lon="13.1622253"><ele>1264.3333333333333</ele><time>2026-05-01T12:30:47.925Z</time></trkpt><trkpt lat="42.7674121" lon="13.1624948"><ele>1262.6666666666665</ele><time>2026-05-01T12:30:48.924Z</time></trkpt><trkpt lat="42.7674696" lon="13.1627262"><ele>1261.0</ele><time>2026-05-01T12:30:49.925Z</time></trkpt><trkpt lat="42.7675259" lon="13.1629227"><ele>1261.0</ele><time>2026-05-01T12:30:50.925Z</time></trkpt><trkpt lat="42.7675577" lon="13.1630919"><ele>1261.0</ele><time>2026-05-01T12:30:51.924Z</time></trkpt><trkpt lat="42.7675521" lon="13.1632411"><ele>1261.0</ele><time>2026-05-01T12:30:52.925Z</time></trkpt><trkpt lat="42.7674791" lon="13.1633651"><ele>1261.0</ele><time>2026-05-01T12:30:53.924Z</time></trkpt><trkpt lat="42.7673295" lon="13.1634312"><ele>1260.6666666666665</ele><time>2026-05-01T12:30:54.925Z</time></trkpt><trkpt lat="42.7671464" lon="13.1634432"><ele>1260.3333333333333</ele><time>2026-05-01T12:30:55.924Z</time></trkpt><trkpt lat="42.7669236" lon="13.1634199"><ele>1260.0</ele><time>2026-05-01T12:30:56.925Z</time></trkpt><trkpt lat="42.7666848" lon="13.1633918"><ele>1260.0</ele><time>2026-05-01T12:30:57.924Z</time></trkpt><trkpt lat="42.7664228" lon="13.1633667"><ele>1260.0</ele><time>2026-05-01T12:30:58.924Z</time></trkpt><trkpt lat="42.7661362" lon="13.1633439"><ele>1264.5</ele><time>2026-05-01T12:30:59.925Z</time></trkpt><trkpt lat="42.7658462" lon="13.1632894"><ele>1269.0</ele><time>2026-05-01T12:31:00.924Z</time></trkpt><trkpt lat="42.7655783" lon="13.1632117"><ele>1260.0</ele><time>2026-05-01T12:31:01.925Z</time></trkpt><trkpt lat="42.765337" lon="13.1630985"><ele>1251.0</ele><time>2026-05-01T12:31:02.925Z</time></trkpt><trkpt lat="42.7651182" lon="13.162969"><ele>1251.0</ele><time>2026-05-01T12:31:03.925Z</time></trkpt><trkpt lat="42.764932" lon="13.1628785"><ele>1251.0</ele><time>2026-05-01T12:31:04.925Z</time></trkpt><trkpt lat="42.7647543" lon="13.1628472"><ele>1251.0</ele><time>2026-05-01T12:31:05.925Z</time></trkpt><trkpt lat="42.764569" lon="13.1628915"><ele>1251.0</ele><time>2026-05-01T12:31:06.925Z</time></trkpt><trkpt lat="42.7643673" lon="13.1629729"><ele>1251.0</ele><time>2026-05-01T12:31:07.925Z</time></trkpt><trkpt lat="42.7641719" lon="13.1630616"><ele>1251.0</ele><time>2026-05-01T12:31:08.924Z</time></trkpt><trkpt lat="42.7640023" lon="13.16315"><ele>1259.6666666666667</ele><time>2026-05-01T12:31:09.925Z</time></trkpt><trkpt lat="42.763863" lon="13.1632662"><ele>1268.3333333333335</ele><time>2026-05-01T12:31:10.925Z</time></trkpt><trkpt lat="42.7637846" lon="13.1634397"><ele>1277.0</ele><time>2026-05-01T12:31:11.925Z</time></trkpt><trkpt lat="42.7637602" lon="13.1636431"><ele>1277.0</ele><time>2026-05-01T12:31:12.925Z</time></trkpt><trkpt lat="42.7637579" lon="13.1638716"><ele>1277.0</ele><time>2026-05-01T12:31:13.924Z</time></trkpt><trkpt lat="42.7638028" lon="13.1641219"><ele>1277.0</ele><time>2026-05-01T12:31:14.925Z</time></trkpt><trkpt lat="42.7638578" lon="13.1643887"><ele>1282.6666666666667</ele><time>2026-05-01T12:31:15.925Z</time></trkpt><trkpt lat="42.7638921" lon="13.1646697"><ele>1288.3333333333333</ele><time>2026-05-01T12:31:16.925Z</time></trkpt><trkpt lat="42.7639171" lon="13.1649266"><ele>1294.0</ele><time>2026-05-01T12:31:17.925Z</time></trkpt><trkpt lat="42.7639474" lon="13.1651468"><ele>1294.6666666666665</ele><time>2026-05-01T12:31:18.924Z</time></trkpt><trkpt lat="42.7640088" lon="13.1653412"><ele>1295.3333333333333</ele><time>2026-05-01T12:31:19.924Z</time></trkpt><trkpt lat="42.7641091" lon="13.1655116"><ele>1296.0</ele><time>2026-05-01T12:31:20.926Z</time></trkpt><trkpt lat="42.764246" lon="13.165676"><ele>1306.6666666666667</ele><time>2026-05-01T12:31:21.925Z</time></trkpt><trkpt lat="42.7644082" lon="13.1658343"><ele>1317.3333333333335</ele><time>2026-05-01T12:31:22.926Z</time></trkpt><trkpt lat="42.7645679" lon="13.1659913"><ele>1328.0</ele><time>2026-05-01T12:31:23.926Z</time></trkpt><trkpt lat="42.7647199" lon="13.1661477"><ele>1328.0</ele><time>2026-05-01T12:31:24.926Z</time></trkpt><trkpt lat="42.7648668" lon="13.1663175"><ele>1328.0</ele><time>2026-05-01T12:31:25.926Z</time></trkpt><trkpt lat="42.7650118" lon="13.1665181"><ele>1328.0</ele><time>2026-05-01T12:31:26.925Z</time></trkpt><trkpt lat="42.7651502" lon="13.1667482"><ele>1337.0</ele><time>2026-05-01T12:31:27.926Z</time></trkpt><trkpt lat="42.7652901" lon="13.1669604"><ele>1346.0</ele><time>2026-05-01T12:31:28.926Z</time></trkpt><trkpt lat="42.7654149" lon="13.1671535"><ele>1355.0</ele><time>2026-05-01T12:31:29.926Z</time></trkpt><trkpt lat="42.765531" lon="13.167331"><ele>1343.0</ele><time>2026-05-01T12:31:30.925Z</time></trkpt><trkpt lat="42.7656299" lon="13.167522"><ele>1331.0</ele><time>2026-05-01T12:31:31.926Z</time></trkpt><trkpt lat="42.7657394" lon="13.1676984"><ele>1319.0</ele><time>2026-05-01T12:31:32.926Z</time></trkpt><trkpt lat="42.76587" lon="13.167843"><ele>1319.0</ele><time>2026-05-01T12:31:33.926Z</time></trkpt><trkpt lat="42.7660185" lon="13.1679631"><ele>1319.0</ele><time>2026-05-01T12:31:34.926Z</time></trkpt><trkpt lat="42.766174" lon="13.1680773"><ele>1319.0</ele><time>2026-05-01T12:31:35.926Z</time></trkpt><trkpt lat="42.7663265" lon="13.1682114"><ele>1323.0</ele><time>2026-05-01T12:31:36.926Z</time></trkpt><trkpt lat="42.766479" lon="13.1683774"><ele>1327.0</ele><time>2026-05-01T12:31:37.926Z</time></trkpt><trkpt lat="42.7666279" lon="13.1685969"><ele>1331.0</ele><time>2026-05-01T12:31:38.926Z</time></trkpt><trkpt lat="42.7667859" lon="13.1688518"><ele>1345.0</ele><time>2026-05-01T12:31:39.926Z</time></trkpt><trkpt lat="42.766936" lon="13.1691429"><ele>1359.0</ele><time>2026-05-01T12:31:40.926Z</time></trkpt><trkpt lat="42.7670873" lon="13.1694334"><ele>1359.0</ele><time>2026-05-01T12:31:41.926Z</time></trkpt><trkpt lat="42.7672371" lon="13.1697339"><ele>1359.0</ele><time>2026-05-01T12:31:42.926Z</time></trkpt><trkpt lat="42.7673871" lon="13.1700421"><ele>1344.0</ele><time>2026-05-01T12:31:43.926Z</time></trkpt><trkpt lat="42.7675311" lon="13.1703348"><ele>1329.0</ele><time>2026-05-01T12:31:44.925Z</time></trkpt><trkpt lat="42.7676644" lon="13.1706088"><ele>1337.6666666666667</ele><time>2026-05-01T12:31:45.925Z</time></trkpt><trkpt lat="42.7677751" lon="13.1708485"><ele>1346.3333333333335</ele><time>2026-05-01T12:31:46.926Z</time></trkpt><trkpt lat="42.767874" lon="13.1710628"><ele>1355.0</ele><time>2026-05-01T12:31:47.926Z</time></trkpt><trkpt lat="42.7679364" lon="13.1712943"><ele>1355.0</ele><time>2026-05-01T12:31:48.926Z</time></trkpt><trkpt lat="42.7679751" lon="13.1715121"><ele>1355.0</ele><time>2026-05-01T12:31:49.926Z</time></trkpt><trkpt lat="42.7679694" lon="13.1717118"><ele>1355.0</ele><time>2026-05-01T12:31:50.926Z</time></trkpt><trkpt lat="42.7679209" lon="13.171878"><ele>1355.0</ele><time>2026-05-01T12:31:51.925Z</time></trkpt><trkpt lat="42.7677871" lon="13.1720022"><ele>1343.0</ele><time>2026-05-01T12:31:52.926Z</time></trkpt><trkpt lat="42.7675914" lon="13.1720744"><ele>1331.0</ele><time>2026-05-01T12:31:53.926Z</time></trkpt><trkpt lat="42.7673805" lon="13.1721292"><ele>1319.0</ele><time>2026-05-01T12:31:54.925Z</time></trkpt><trkpt lat="42.7671469" lon="13.1721834"><ele>1319.0</ele><time>2026-05-01T12:31:55.925Z</time></trkpt><trkpt lat="42.7669009" lon="13.1722329"><ele>1319.0</ele><time>2026-05-01T12:31:56.926Z</time></trkpt><trkpt lat="42.766682" lon="13.1722822"><ele>1315.0</ele><time>2026-05-01T12:31:57.926Z</time></trkpt><trkpt lat="42.766498" lon="13.1723384"><ele>1311.0</ele><time>2026-05-01T12:31:58.926Z</time></trkpt><trkpt lat="42.7663318" lon="13.1724174"><ele>1307.0</ele><time>2026-05-01T12:31:59.925Z</time></trkpt><trkpt lat="42.7661721" lon="13.1725396"><ele>1309.3333333333335</ele><time>2026-05-01T12:32:00.926Z</time></trkpt><trkpt lat="42.7660389" lon="13.1727416"><ele>1311.6666666666667</ele><time>2026-05-01T12:32:01.926Z</time></trkpt><trkpt lat="42.7659152" lon="13.1729738"><ele>1314.0</ele><time>2026-05-01T12:32:02.926Z</time></trkpt><trkpt lat="42.7657816" lon="13.1732313"><ele>1327.5</ele><time>2026-05-01T12:32:03.926Z</time></trkpt><trkpt lat="42.7656484" lon="13.1735084"><ele>1341.0</ele><time>2026-05-01T12:32:04.926Z</time></trkpt><trkpt lat="42.7654977" lon="13.1737933"><ele>1354.5</ele><time>2026-05-01T12:32:05.926Z</time></trkpt><trkpt lat="42.7653467" lon="13.1740704"><ele>1368.0</ele><time>2026-05-01T12:32:06.925Z</time></trkpt><trkpt lat="42.7652181" lon="13.1742967"><ele>1357.0</ele><time>2026-05-01T12:32:07.926Z</time></trkpt><trkpt lat="42.765105" lon="13.1744856"><ele>1346.0</ele><time>2026-05-01T12:32:08.926Z</time></trkpt><trkpt lat="42.7650007" lon="13.1746334"><ele>1335.0</ele><time>2026-05-01T12:32:09.926Z</time></trkpt><trkpt lat="42.7648875" lon="13.1747162"><ele>1335.0</ele><time>2026-05-01T12:32:10.926Z</time></trkpt><trkpt lat="42.7647482" lon="13.174739"><ele>1335.0</ele><time>2026-05-01T12:32:11.926Z</time></trkpt><trkpt lat="42.7645985" lon="13.1747065"><ele>1335.0</ele><time>2026-05-01T12:32:12.926Z</time></trkpt><trkpt lat="42.7644432" lon="13.1746699"><ele>1335.0</ele><time>2026-05-01T12:32:13.925Z</time></trkpt><trkpt lat="42.764287" lon="13.1747213"><ele>1335.0</ele><time>2026-05-01T12:32:14.926Z</time></trkpt><trkpt lat="42.7641482" lon="13.1748399"><ele>1335.0</ele><time>2026-05-01T12:32:15.925Z</time></trkpt><trkpt lat="42.7640416" lon="13.1749349"><ele>1335.0</ele><time>2026-05-01T12:32:16.925Z</time></trkpt><trkpt lat="42.7639544" lon="13.1749947"><ele>1335.0</ele><time>2026-05-01T12:32:17.925Z</time></trkpt><trkpt lat="42.7638509" lon="13.1749942"><ele>1335.0</ele><time>2026-05-01T12:32:18.925Z</time></trkpt><trkpt lat="42.7637558" lon="13.1749003"><ele>1335.0</ele><time>2026-05-01T12:32:19.926Z</time></trkpt><trkpt lat="42.7636636" lon="13.1747346"><ele>1335.0</ele><time>2026-05-01T12:32:20.926Z</time></trkpt><trkpt lat="42.7635427" lon="13.1745265"><ele>1344.5</ele><time>2026-05-01T12:32:21.925Z</time></trkpt><trkpt lat="42.7633768" lon="13.174324"><ele>1354.0</ele><time>2026-05-01T12:32:22.926Z</time></trkpt><trkpt lat="42.7631922" lon="13.17411"><ele>1345.0</ele><time>2026-05-01T12:32:23.926Z</time></trkpt><trkpt lat="42.7630081" lon="13.1739111"><ele>1336.0</ele><time>2026-05-01T12:32:24.926Z</time></trkpt><trkpt lat="42.7628559" lon="13.1737585"><ele>1327.0</ele><time>2026-05-01T12:32:25.925Z</time></trkpt><trkpt lat="42.7627311" lon="13.1736624"><ele>1331.0</ele><time>2026-05-01T12:32:26.926Z</time></trkpt><trkpt lat="42.7625881" lon="13.1736195"><ele>1335.0</ele><time>2026-05-01T12:32:27.925Z</time></trkpt><trkpt lat="42.7624355" lon="13.1736302"><ele>1339.0</ele><time>2026-05-01T12:32:28.926Z</time></trkpt><trkpt lat="42.7622695" lon="13.1736777"><ele>1339.0</ele><time>2026-05-01T12:32:29.926Z</time></trkpt><trkpt lat="42.7621179" lon="13.1737745"><ele>1339.0</ele><time>2026-05-01T12:32:30.926Z</time></trkpt><trkpt lat="42.7620027" lon="13.1738824"><ele>1339.0</ele><time>2026-05-01T12:32:31.925Z</time></trkpt><trkpt lat="42.7619228" lon="13.1740554"><ele>1340.6666666666665</ele><time>2026-05-01T12:32:32.926Z</time></trkpt><trkpt lat="42.7618614" lon="13.1742618"><ele>1342.3333333333333</ele><time>2026-05-01T12:32:33.926Z</time></trkpt><trkpt lat="42.7618049" lon="13.1744809"><ele>1344.0</ele><time>2026-05-01T12:32:34.925Z</time></trkpt><trkpt lat="42.7617542" lon="13.1746853"><ele>1349.6666666666667</ele><time>2026-05-01T12:32:35.925Z</time></trkpt><trkpt lat="42.7617192" lon="13.1748912"><ele>1355.3333333333335</ele><time>2026-05-01T12:32:36.926Z</time></trkpt><trkpt lat="42.761698" lon="13.1751366"><ele>1361.0</ele><time>2026-05-01T12:32:37.926Z</time></trkpt><trkpt lat="42.7616668" lon="13.1754261"><ele>1366.5</ele><time>2026-05-01T12:32:38.925Z</time></trkpt><trkpt lat="42.7616287" lon="13.1757342"><ele>1372.0</ele><time>2026-05-01T12:32:39.926Z</time></trkpt><trkpt lat="42.7615908" lon="13.1760624"><ele>1372.0</ele><time>2026-05-01T12:32:40.925Z</time></trkpt><trkpt lat="42.7615538" lon="13.1764071"><ele>1372.0</ele><time>2026-05-01T12:32:41.926Z</time></trkpt><trkpt lat="42.7615118" lon="13.176749"><ele>1377.0</ele><time>2026-05-01T12:32:42.925Z</time></trkpt><trkpt lat="42.7614704" lon="13.1770912"><ele>1382.0</ele><time>2026-05-01T12:32:43.926Z</time></trkpt><trkpt lat="42.7614284" lon="13.1774377"><ele>1386.0</ele><time>2026-05-01T12:32:44.926Z</time></trkpt><trkpt lat="42.7614014" lon="13.1777822"><ele>1390.0</ele><time>2026-05-01T12:32:45.925Z</time></trkpt><trkpt lat="42.7613802" lon="13.1780997"><ele>1394.3333333333333</ele><time>2026-05-01T12:32:46.926Z</time></trkpt><trkpt lat="42.7613582" lon="13.1783898"><ele>1398.6666666666667</ele><time>2026-05-01T12:32:47.925Z</time></trkpt><trkpt lat="42.7613412" lon="13.1786525"><ele>1403.0</ele><time>2026-05-01T12:32:48.926Z</time></trkpt><trkpt lat="42.7613308" lon="13.1788749"><ele>1406.0</ele><time>2026-05-01T12:32:49.926Z</time></trkpt><trkpt lat="42.7613095" lon="13.1790672"><ele>1409.0</ele><time>2026-05-01T12:32:50.926Z</time></trkpt><trkpt lat="42.7612792" lon="13.1792203"><ele>1412.0</ele><time>2026-05-01T12:32:51.926Z</time></trkpt><trkpt lat="42.7612394" lon="13.1793376"><ele>1415.0</ele><time>2026-05-01T12:32:52.926Z</time></trkpt><trkpt lat="42.7611477" lon="13.1794091"><ele>1411.25</ele><time>2026-05-01T12:32:53.925Z</time></trkpt><trkpt lat="42.7610268" lon="13.1794175"><ele>1407.5</ele><time>2026-05-01T12:32:54.926Z</time></trkpt><trkpt lat="42.7609055" lon="13.1793531"><ele>1403.75</ele><time>2026-05-01T12:32:55.926Z</time></trkpt><trkpt lat="42.7608151" lon="13.1791954"><ele>1400.0</ele><time>2026-05-01T12:32:56.925Z</time></trkpt><trkpt lat="42.7607482" lon="13.178965"><ele>1394.3333333333335</ele><time>2026-05-01T12:32:57.925Z</time></trkpt><trkpt lat="42.7606528" lon="13.1786989"><ele>1388.6666666666667</ele><time>2026-05-01T12:32:58.926Z</time></trkpt><trkpt lat="42.7605132" lon="13.1784478"><ele>1383.0</ele><time>2026-05-01T12:32:59.926Z</time></trkpt><trkpt lat="42.7603549" lon="13.178198"><ele>1389.5</ele><time>2026-05-01T12:33:00.926Z</time></trkpt><trkpt lat="42.7601963" lon="13.1779472"><ele>1396.0</ele><time>2026-05-01T12:33:01.926Z</time></trkpt><trkpt lat="42.7600384" lon="13.1777095"><ele>1396.0</ele><time>2026-05-01T12:33:02.926Z</time></trkpt><trkpt lat="42.759889" lon="13.1775031"><ele>1396.0</ele><time>2026-05-01T12:33:03.926Z</time></trkpt><trkpt lat="42.7597683" lon="13.1773157"><ele>1396.0</ele><time>2026-05-01T12:33:04.926Z</time></trkpt><trkpt lat="42.7596692" lon="13.1771602"><ele>1390.6</ele><time>2026-05-01T12:33:05.926Z</time></trkpt><trkpt lat="42.7595908" lon="13.1770383"><ele>1385.1999999999998</ele><time>2026-05-01T12:33:06.926Z</time></trkpt><trkpt lat="42.7595263" lon="13.1769713"><ele>1379.8000000000002</ele><time>2026-05-01T12:33:07.926Z</time></trkpt><trkpt lat="42.7594772" lon="13.176911"><ele>1374.4</ele><time>2026-05-01T12:33:08.926Z</time></trkpt><trkpt lat="42.7593855" lon="13.1769512"><ele>1369.0</ele><time>2026-05-01T12:33:10.926Z</time></trkpt><trkpt lat="42.7594144" lon="13.1771437"><ele>1369.0</ele><time>2026-05-01T12:33:12.925Z</time></trkpt><trkpt lat="42.7594872" lon="13.17727"><ele>1369.0</ele><time>2026-05-01T12:33:13.926Z</time></trkpt><trkpt lat="42.7595833" lon="13.1774175"><ele>1369.0</ele><time>2026-05-01T12:33:14.925Z</time></trkpt><trkpt lat="42.7596915" lon="13.1775848"><ele>1369.0</ele><time>2026-05-01T12:33:15.926Z</time></trkpt><trkpt lat="42.7598089" lon="13.1777589"><ele>1378.0</ele><time>2026-05-01T12:33:16.926Z</time></trkpt><trkpt lat="42.7599174" lon="13.1779517"><ele>1387.0</ele><time>2026-05-01T12:33:17.926Z</time></trkpt><trkpt lat="42.760021" lon="13.1781681"><ele>1396.0</ele><time>2026-05-01T12:33:18.926Z</time></trkpt><trkpt lat="42.7601263" lon="13.1784005"><ele>1397.3333333333333</ele><time>2026-05-01T12:33:19.925Z</time></trkpt><trkpt lat="42.7602333" lon="13.1786415"><ele>1398.6666666666667</ele><time>2026-05-01T12:33:20.926Z</time></trkpt><trkpt lat="42.7603384" lon="13.1789034"><ele>1400.0</ele><time>2026-05-01T12:33:21.925Z</time></trkpt><trkpt lat="42.7604293" lon="13.1791748"><ele>1400.0</ele><time>2026-05-01T12:33:22.926Z</time></trkpt><trkpt lat="42.7605134" lon="13.1794656"><ele>1400.0</ele><time>2026-05-01T12:33:23.926Z</time></trkpt><trkpt lat="42.7605805" lon="13.1797477"><ele>1400.0</ele><time>2026-05-01T12:33:24.926Z</time></trkpt><trkpt lat="42.76064" lon="13.1800104"><ele>1403.75</ele><time>2026-05-01T12:33:25.925Z</time></trkpt><trkpt lat="42.760674" lon="13.1802408"><ele>1407.5</ele><time>2026-05-01T12:33:26.926Z</time></trkpt><trkpt lat="42.760689" lon="13.180429"><ele>1411.25</ele><time>2026-05-01T12:33:27.925Z</time></trkpt><trkpt lat="42.7606847" lon="13.1805888"><ele>1415.0</ele><time>2026-05-01T12:33:28.925Z</time></trkpt><trkpt lat="42.7606554" lon="13.1807442"><ele>1417.75</ele><time>2026-05-01T12:33:29.926Z</time></trkpt><trkpt lat="42.7605938" lon="13.1808846"><ele>1420.5</ele><time>2026-05-01T12:33:30.926Z</time></trkpt><trkpt lat="42.760504" lon="13.1810319"><ele>1423.25</ele><time>2026-05-01T12:33:31.926Z</time></trkpt><trkpt lat="42.7604204" lon="13.1811721"><ele>1426.0</ele><time>2026-05-01T12:33:32.925Z</time></trkpt><trkpt lat="42.7603613" lon="13.1813156"><ele>1426.0</ele><time>2026-05-01T12:33:33.926Z</time></trkpt><trkpt lat="42.7603525" lon="13.1814577"><ele>1426.0</ele><time>2026-05-01T12:33:34.926Z</time></trkpt><trkpt lat="42.7604116" lon="13.1815657"><ele>1426.0</ele><time>2026-05-01T12:33:35.925Z</time></trkpt><trkpt lat="42.7605444" lon="13.1816343"><ele>1426.0</ele><time>2026-05-01T12:33:36.926Z</time></trkpt><trkpt lat="42.7607014" lon="13.1816437"><ele>1430.3333333333333</ele><time>2026-05-01T12:33:37.926Z</time></trkpt><trkpt lat="42.7608865" lon="13.1816479"><ele>1434.6666666666667</ele><time>2026-05-01T12:33:38.926Z</time></trkpt><trkpt lat="42.7610794" lon="13.1816265"><ele>1439.0</ele><time>2026-05-01T12:33:39.926Z</time></trkpt><trkpt lat="42.7612574" lon="13.181559"><ele>1439.0</ele><time>2026-05-01T12:33:40.926Z</time></trkpt><trkpt lat="42.7614301" lon="13.1814201"><ele>1439.0</ele><time>2026-05-01T12:33:41.926Z</time></trkpt><trkpt lat="42.7615889" lon="13.1812336"><ele>1439.0</ele><time>2026-05-01T12:33:42.926Z</time></trkpt><trkpt lat="42.7617096" lon="13.1809805"><ele>1434.5</ele><time>2026-05-01T12:33:43.925Z</time></trkpt><trkpt lat="42.7618011" lon="13.1806782"><ele>1430.0</ele><time>2026-05-01T12:33:44.925Z</time></trkpt><trkpt lat="42.761888" lon="13.1803662"><ele>1451.5</ele><time>2026-05-01T12:33:45.926Z</time></trkpt><trkpt lat="42.7619731" lon="13.180047"><ele>1473.0</ele><time>2026-05-01T12:33:46.925Z</time></trkpt><trkpt lat="42.762064" lon="13.1797193"><ele>1473.0</ele><time>2026-05-01T12:33:47.926Z</time></trkpt><trkpt lat="42.7621676" lon="13.1793771"><ele>1473.0</ele><time>2026-05-01T12:33:48.926Z</time></trkpt><trkpt lat="42.7622638" lon="13.179018"><ele>1467.0</ele><time>2026-05-01T12:33:49.926Z</time></trkpt><trkpt lat="42.7623548" lon="13.178662"><ele>1461.0</ele><time>2026-05-01T12:33:50.925Z</time></trkpt><trkpt lat="42.7624357" lon="13.1783294"><ele>1455.5</ele><time>2026-05-01T12:33:51.926Z</time></trkpt><trkpt lat="42.7625148" lon="13.1780262"><ele>1450.0</ele><time>2026-05-01T12:33:52.926Z</time></trkpt><trkpt lat="42.7625986" lon="13.1777454"><ele>1450.0</ele><time>2026-05-01T12:33:53.926Z</time></trkpt><trkpt lat="42.7626743" lon="13.1775277"><ele>1450.0</ele><time>2026-05-01T12:33:54.926Z</time></trkpt><trkpt lat="42.7627336" lon="13.1773406"><ele>1450.0</ele><time>2026-05-01T12:33:55.925Z</time></trkpt><trkpt lat="42.7627888" lon="13.1771843"><ele>1448.4</ele><time>2026-05-01T12:33:56.926Z</time></trkpt><trkpt lat="42.7628456" lon="13.1770477"><ele>1446.8</ele><time>2026-05-01T12:33:57.926Z</time></trkpt><trkpt lat="42.7629062" lon="13.1769536"><ele>1445.1999999999998</ele><time>2026-05-01T12:33:58.926Z</time></trkpt><trkpt lat="42.7629809" lon="13.1769244"><ele>1443.6</ele><time>2026-05-01T12:33:59.926Z</time></trkpt><trkpt lat="42.7630659" lon="13.1769894"><ele>1442.0</ele><time>2026-05-01T12:34:00.926Z</time></trkpt><trkpt lat="42.7631618" lon="13.1771185"><ele>1442.0</ele><time>2026-05-01T12:34:01.925Z</time></trkpt><trkpt lat="42.7632697" lon="13.1772839"><ele>1442.0</ele><time>2026-05-01T12:34:02.925Z</time></trkpt><trkpt lat="42.7633862" lon="13.1774832"><ele>1442.0</ele><time>2026-05-01T12:34:03.925Z</time></trkpt><trkpt lat="42.7635234" lon="13.1776828"><ele>1444.6666666666667</ele><time>2026-05-01T12:34:04.926Z</time></trkpt><trkpt lat="42.7636776" lon="13.1778925"><ele>1447.3333333333333</ele><time>2026-05-01T12:34:05.925Z</time></trkpt><trkpt lat="42.7638469" lon="13.1781039"><ele>1450.0</ele><time>2026-05-01T12:34:06.926Z</time></trkpt><trkpt lat="42.7640241" lon="13.17831"><ele>1461.0</ele><time>2026-05-01T12:34:07.926Z</time></trkpt><trkpt lat="42.7642032" lon="13.1785359"><ele>1472.0</ele><time>2026-05-01T12:34:08.926Z</time></trkpt><trkpt lat="42.764369" lon="13.178743"><ele>1472.0</ele><time>2026-05-01T12:34:09.926Z</time></trkpt><trkpt lat="42.7645198" lon="13.1789228"><ele>1472.0</ele><time>2026-05-01T12:34:10.926Z</time></trkpt><trkpt lat="42.7646452" lon="13.1791126"><ele>1472.0</ele><time>2026-05-01T12:34:11.926Z</time></trkpt><trkpt lat="42.7647434" lon="13.1792978"><ele>1473.0</ele><time>2026-05-01T12:34:12.926Z</time></trkpt><trkpt lat="42.7648045" lon="13.1795072"><ele>1474.0</ele><time>2026-05-01T12:34:13.926Z</time></trkpt><trkpt lat="42.7648463" lon="13.1797205"><ele>1475.0</ele><time>2026-05-01T12:34:14.926Z</time></trkpt><trkpt lat="42.7648679" lon="13.1799231"><ele>1475.75</ele><time>2026-05-01T12:34:15.926Z</time></trkpt><trkpt lat="42.7648955" lon="13.1801086"><ele>1476.5</ele><time>2026-05-01T12:34:16.926Z</time></trkpt><trkpt lat="42.7649441" lon="13.1802592"><ele>1477.25</ele><time>2026-05-01T12:34:17.925Z</time></trkpt><trkpt lat="42.7650374" lon="13.180354"><ele>1478.0</ele><time>2026-05-01T12:34:18.926Z</time></trkpt><trkpt lat="42.7651717" lon="13.1803778"><ele>1481.0</ele><time>2026-05-01T12:34:19.926Z</time></trkpt><trkpt lat="42.7653233" lon="13.1803408"><ele>1484.0</ele><time>2026-05-01T12:34:20.925Z</time></trkpt><trkpt lat="42.7654842" lon="13.1802499"><ele>1487.0</ele><time>2026-05-01T12:34:21.926Z</time></trkpt><trkpt lat="42.7656364" lon="13.1801281"><ele>1487.0</ele><time>2026-05-01T12:34:22.925Z</time></trkpt><trkpt lat="42.7657794" lon="13.1800065"><ele>1487.0</ele><time>2026-05-01T12:34:23.925Z</time></trkpt><trkpt lat="42.7658992" lon="13.1798898"><ele>1487.0</ele><time>2026-05-01T12:34:24.926Z</time></trkpt><trkpt lat="42.7659926" lon="13.1798065"><ele>1487.0</ele><time>2026-05-01T12:34:25.925Z</time></trkpt><trkpt lat="42.7660804" lon="13.1797449"><ele>1488.0</ele><time>2026-05-01T12:34:26.926Z</time></trkpt><trkpt lat="42.7661671" lon="13.1797314"><ele>1489.0</ele><time>2026-05-01T12:34:27.926Z</time></trkpt><trkpt lat="42.7662578" lon="13.1797966"><ele>1490.0</ele><time>2026-05-01T12:34:28.926Z</time></trkpt><trkpt lat="42.7663131" lon="13.1799426"><ele>1491.0</ele><time>2026-05-01T12:34:29.926Z</time></trkpt><trkpt lat="42.7663172" lon="13.1801416"><ele>1493.3333333333333</ele><time>2026-05-01T12:34:30.926Z</time></trkpt><trkpt lat="42.7662626" lon="13.1803717"><ele>1495.6666666666665</ele><time>2026-05-01T12:34:31.925Z</time></trkpt><trkpt lat="42.7661481" lon="13.1805556"><ele>1498.0</ele><time>2026-05-01T12:34:32.925Z</time></trkpt><trkpt lat="42.7660072" lon="13.1807169"><ele>1498.0</ele><time>2026-05-01T12:34:33.925Z</time></trkpt><trkpt lat="42.7658822" lon="13.1808892"><ele>1498.0</ele><time>2026-05-01T12:34:34.926Z</time></trkpt><trkpt lat="42.7657751" lon="13.1810812"><ele>1498.0</ele><time>2026-05-01T12:34:35.925Z</time></trkpt><trkpt lat="42.7656928" lon="13.1813197"><ele>1501.3333333333333</ele><time>2026-05-01T12:34:36.926Z</time></trkpt><trkpt lat="42.7656385" lon="13.1815667"><ele>1504.6666666666667</ele><time>2026-05-01T12:34:37.925Z</time></trkpt><trkpt lat="42.7656119" lon="13.1818166"><ele>1508.0</ele><time>2026-05-01T12:34:38.925Z</time></trkpt><trkpt lat="42.7656074" lon="13.1820666"><ele>1508.0</ele><time>2026-05-01T12:34:39.925Z</time></trkpt><trkpt lat="42.7656176" lon="13.1822877"><ele>1508.0</ele><time>2026-05-01T12:34:40.926Z</time></trkpt><trkpt lat="42.7656296" lon="13.1824775"><ele>1508.0</ele><time>2026-05-01T12:34:41.926Z</time></trkpt><trkpt lat="42.7656452" lon="13.1826503"><ele>1508.0</ele><time>2026-05-01T12:34:42.925Z</time></trkpt><trkpt lat="42.7656716" lon="13.1827762"><ele>1508.8333333333335</ele><time>2026-05-01T12:34:43.926Z</time></trkpt><trkpt lat="42.7656885" lon="13.1828829"><ele>1509.6666666666667</ele><time>2026-05-01T12:34:44.925Z</time></trkpt><trkpt lat="42.7657121" lon="13.1829754"><ele>1510.5</ele><time>2026-05-01T12:34:45.926Z</time></trkpt><trkpt lat="42.76574" lon="13.1830524"><ele>1511.3333333333333</ele><time>2026-05-01T12:34:46.926Z</time></trkpt><trkpt lat="42.7657818" lon="13.183196"><ele>1512.1666666666665</ele><time>2026-05-01T12:34:48.926Z</time></trkpt><trkpt lat="42.765827" lon="13.1833259"><ele>1513.0</ele><time>2026-05-01T12:34:50.925Z</time></trkpt><trkpt lat="42.7658718" lon="13.1834054"><ele>1512.5</ele><time>2026-05-01T12:34:52.926Z</time></trkpt><trkpt lat="42.7659254" lon="13.1834537"><ele>1512.0</ele><time>2026-05-01T12:34:57.926Z</time></trkpt><trkpt lat="42.7659869" lon="13.1834844"><ele>1511.5</ele><time>2026-05-01T12:35:00.926Z</time></trkpt><trkpt lat="42.7660674" lon="13.1835371"><ele>1511.0</ele><time>2026-05-01T12:35:03.925Z</time></trkpt><trkpt lat="42.7661243" lon="13.1835891"><ele>1510.5</ele><time>2026-05-01T12:35:05.926Z</time></trkpt><trkpt lat="42.766209" lon="13.1836225"><ele>1510.0</ele><time>2026-05-01T12:36:32.926Z</time></trkpt><trkpt lat="42.7662677" lon="13.1835527"><ele>1510.0</ele><time>2026-05-01T12:37:39.925Z</time></trkpt><trkpt lat="42.7661698" lon="13.1834937"><ele>1510.0</ele><time>2026-05-01T12:37:42.926Z</time></trkpt><trkpt lat="42.7660912" lon="13.1834716"><ele>1510.0</ele><time>2026-05-01T12:37:43.926Z</time></trkpt><trkpt lat="42.7660051" lon="13.1834175"><ele>1510.0</ele><time>2026-05-01T12:37:44.926Z</time></trkpt><trkpt lat="42.7659206" lon="13.1833273"><ele>1510.0</ele><time>2026-05-01T12:37:45.926Z</time></trkpt><trkpt lat="42.7658635" lon="13.1832369"><ele>1510.4285714285713</ele><time>2026-05-01T12:37:46.926Z</time></trkpt><trkpt lat="42.7658279" lon="13.1831457"><ele>1510.857142857143</ele><time>2026-05-01T12:37:47.925Z</time></trkpt><trkpt lat="42.765796" lon="13.1830607"><ele>1511.2857142857142</ele><time>2026-05-01T12:37:48.926Z</time></trkpt><trkpt lat="42.7657689" lon="13.1829722"><ele>1511.7142857142858</ele><time>2026-05-01T12:37:49.926Z</time></trkpt><trkpt lat="42.7657456" lon="13.1828763"><ele>1512.1428571428573</ele><time>2026-05-01T12:37:50.926Z</time></trkpt><trkpt lat="42.7657202" lon="13.1827751"><ele>1512.5714285714287</ele><time>2026-05-01T12:37:51.926Z</time></trkpt><trkpt lat="42.7656989" lon="13.1826771"><ele>1513.0</ele><time>2026-05-01T12:37:52.926Z</time></trkpt><trkpt lat="42.7656827" lon="13.1825904"><ele>1513.0</ele><time>2026-05-01T12:37:53.925Z</time></trkpt><trkpt lat="42.7656745" lon="13.1825049"><ele>1513.0</ele><time>2026-05-01T12:37:54.926Z</time></trkpt><trkpt lat="42.765682" lon="13.1824051"><ele>1513.0</ele><time>2026-05-01T12:37:56.926Z</time></trkpt><trkpt lat="42.7657219" lon="13.182308"><ele>1513.0</ele><time>2026-05-01T12:37:59.926Z</time></trkpt><trkpt lat="42.7658117" lon="13.1822781"><ele>1513.0</ele><time>2026-05-01T12:38:02.926Z</time></trkpt><trkpt lat="42.7658761" lon="13.1823448"><ele>1513.0</ele><time>2026-05-01T12:38:05.926Z</time></trkpt><trkpt lat="42.7659278" lon="13.1824664"><ele>1513.0</ele><time>2026-05-01T12:38:07.926Z</time></trkpt><trkpt lat="42.7659692" lon="13.1826023"><ele>1513.0</ele><time>2026-05-01T12:38:09.925Z</time></trkpt><trkpt lat="42.765999" lon="13.1827614"><ele>1513.0</ele><time>2026-05-01T12:38:11.926Z</time></trkpt><trkpt lat="42.7660493" lon="13.18289"><ele>1513.0</ele><time>2026-05-01T12:38:13.926Z</time></trkpt><trkpt lat="42.7661175" lon="13.1829596"><ele>1513.0</ele><time>2026-05-01T12:38:16.925Z</time></trkpt><trkpt lat="42.7661816" lon="13.1829794"><ele>1514.5</ele><time>2026-05-01T12:38:18.926Z</time></trkpt><trkpt lat="42.7662599" lon="13.1829917"><ele>1516.0</ele><time>2026-05-01T12:38:21.926Z</time></trkpt><trkpt lat="42.7663288" lon="13.1829791"><ele>1517.5</ele><time>2026-05-01T12:38:30.926Z</time></trkpt><trkpt lat="42.7663377" lon="13.1828907"><ele>1519.0</ele><time>2026-05-01T12:39:40.926Z</time></trkpt><trkpt lat="42.7662868" lon="13.1828343"><ele>1520.5</ele><time>2026-05-01T12:39:42.926Z</time></trkpt><trkpt lat="42.7662" lon="13.1828496"><ele>1522.0</ele><time>2026-05-01T12:39:44.926Z</time></trkpt><trkpt lat="42.7661102" lon="13.1828559"><ele>1522.0</ele><time>2026-05-01T12:39:47.926Z</time></trkpt><trkpt lat="42.7660363" lon="13.182818"><ele>1522.0</ele><time>2026-05-01T12:39:50.926Z</time></trkpt><trkpt lat="42.7659809" lon="13.1827375"><ele>1522.0</ele><time>2026-05-01T12:39:52.926Z</time></trkpt><trkpt lat="42.7659482" lon="13.1826463"><ele>1522.0</ele><time>2026-05-01T12:39:54.926Z</time></trkpt><trkpt lat="42.7659226" lon="13.1825558"><ele>1522.0</ele><time>2026-05-01T12:39:56.925Z</time></trkpt><trkpt lat="42.7658922" lon="13.1824696"><ele>1522.0</ele><time>2026-05-01T12:39:58.926Z</time></trkpt><trkpt lat="42.7658454" lon="13.1823801"><ele>1520.5</ele><time>2026-05-01T12:40:00.925Z</time></trkpt><trkpt lat="42.7658128" lon="13.1822972"><ele>1519.0</ele><time>2026-05-01T12:40:02.925Z</time></trkpt><trkpt lat="42.7657671" lon="13.1822216"><ele>1517.5</ele><time>2026-05-01T12:40:06.926Z</time></trkpt><trkpt lat="42.7656882" lon="13.1822341"><ele>1516.0</ele><time>2026-05-01T12:40:11.926Z</time></trkpt><trkpt lat="42.7656414" lon="13.1823387"><ele>1514.5</ele><time>2026-05-01T12:40:27.926Z</time></trkpt><trkpt lat="42.7656537" lon="13.1824627"><ele>1513.0</ele><time>2026-05-01T12:40:28.926Z</time></trkpt><trkpt lat="42.7656709" lon="13.1825866"><ele>1513.0</ele><time>2026-05-01T12:40:29.925Z</time></trkpt><trkpt lat="42.7656791" lon="13.1827017"><ele>1513.0</ele><time>2026-05-01T12:40:30.926Z</time></trkpt><trkpt lat="42.7656932" lon="13.1828128"><ele>1513.0</ele><time>2026-05-01T12:40:31.926Z</time></trkpt><trkpt lat="42.7657161" lon="13.1829279"><ele>1513.0</ele><time>2026-05-01T12:40:32.925Z</time></trkpt><trkpt lat="42.7657421" lon="13.1830434"><ele>1513.0</ele><time>2026-05-01T12:40:33.926Z</time></trkpt><trkpt lat="42.7657767" lon="13.1831565"><ele>1513.0</ele><time>2026-05-01T12:40:34.926Z</time></trkpt><trkpt lat="42.7658159" lon="13.1832647"><ele>1512.5</ele><time>2026-05-01T12:40:35.926Z</time></trkpt><trkpt lat="42.7658588" lon="13.1833492"><ele>1512.0</ele><time>2026-05-01T12:40:36.926Z</time></trkpt><trkpt lat="42.7659038" lon="13.1834155"><ele>1511.5</ele><time>2026-05-01T12:40:37.925Z</time></trkpt><trkpt lat="42.7660168" lon="13.183506"><ele>1511.0</ele><time>2026-05-01T12:40:39.925Z</time></trkpt><trkpt lat="42.7660945" lon="13.1835414"><ele>1510.5</ele><time>2026-05-01T12:40:40.926Z</time></trkpt><trkpt lat="42.7661854" lon="13.1835679"><ele>1510.0</ele><time>2026-05-01T12:40:41.925Z</time></trkpt><trkpt lat="42.7662903" lon="13.1835754"><ele>1510.0</ele><time>2026-05-01T12:40:42.925Z</time></trkpt><trkpt lat="42.7663995" lon="13.1835757"><ele>1510.0</ele><time>2026-05-01T12:40:43.926Z</time></trkpt><trkpt lat="42.7665124" lon="13.1835725"><ele>1510.0</ele><time>2026-05-01T12:40:44.926Z</time></trkpt><trkpt lat="42.7666298" lon="13.1835649"><ele>1510.0</ele><time>2026-05-01T12:40:45.925Z</time></trkpt><trkpt lat="42.7667477" lon="13.1835489"><ele>1507.5</ele><time>2026-05-01T12:40:46.926Z</time></trkpt><trkpt lat="42.7668683" lon="13.1835314"><ele>1505.0</ele><time>2026-05-01T12:40:47.925Z</time></trkpt><trkpt lat="42.7669868" lon="13.1835112"><ele>1502.5</ele><time>2026-05-01T12:40:48.926Z</time></trkpt><trkpt lat="42.7671092" lon="13.1834836"><ele>1500.0</ele><time>2026-05-01T12:40:49.925Z</time></trkpt><trkpt lat="42.7672452" lon="13.1834331"><ele>1500.0</ele><time>2026-05-01T12:40:50.926Z</time></trkpt><trkpt lat="42.7673986" lon="13.1833498"><ele>1500.0</ele><time>2026-05-01T12:40:51.925Z</time></trkpt><trkpt lat="42.7675598" lon="13.1832521"><ele>1500.0</ele><time>2026-05-01T12:40:52.926Z</time></trkpt><trkpt lat="42.7677239" lon="13.1831475"><ele>1502.6666666666667</ele><time>2026-05-01T12:40:53.925Z</time></trkpt><trkpt lat="42.7679106" lon="13.1830603"><ele>1505.3333333333335</ele><time>2026-05-01T12:40:54.926Z</time></trkpt><trkpt lat="42.7681083" lon="13.182995"><ele>1508.0</ele><time>2026-05-01T12:40:55.926Z</time></trkpt><trkpt lat="42.7683139" lon="13.1829555"><ele>1508.0</ele><time>2026-05-01T12:40:56.926Z</time></trkpt><trkpt lat="42.768526" lon="13.1829069"><ele>1508.0</ele><time>2026-05-01T12:40:57.926Z</time></trkpt><trkpt lat="42.7687396" lon="13.1828609"><ele>1508.0</ele><time>2026-05-01T12:40:58.926Z</time></trkpt><trkpt lat="42.7689587" lon="13.1828269"><ele>1504.0</ele><time>2026-05-01T12:40:59.925Z</time></trkpt><trkpt lat="42.76919" lon="13.1828097"><ele>1500.0</ele><time>2026-05-01T12:41:00.925Z</time></trkpt><trkpt lat="42.7694261" lon="13.1828169"><ele>1495.5</ele><time>2026-05-01T12:41:01.926Z</time></trkpt><trkpt lat="42.7696647" lon="13.1828566"><ele>1491.0</ele><time>2026-05-01T12:41:02.926Z</time></trkpt><trkpt lat="42.769909" lon="13.1829231"><ele>1491.0</ele><time>2026-05-01T12:41:03.926Z</time></trkpt><trkpt lat="42.7701492" lon="13.1830062"><ele>1491.0</ele><time>2026-05-01T12:41:04.926Z</time></trkpt><trkpt lat="42.7703868" lon="13.1830889"><ele>1490.5</ele><time>2026-05-01T12:41:05.926Z</time></trkpt><trkpt lat="42.770614" lon="13.183172"><ele>1490.0</ele><time>2026-05-01T12:41:06.926Z</time></trkpt><trkpt lat="42.7708319" lon="13.1832508"><ele>1480.0</ele><time>2026-05-01T12:41:07.925Z</time></trkpt><trkpt lat="42.771025" lon="13.1833195"><ele>1470.0</ele><time>2026-05-01T12:41:08.926Z</time></trkpt><trkpt lat="42.7712159" lon="13.1833529"><ele>1460.0</ele><time>2026-05-01T12:41:09.926Z</time></trkpt><trkpt lat="42.7714043" lon="13.1833378"><ele>1460.0</ele><time>2026-05-01T12:41:10.926Z</time></trkpt><trkpt lat="42.7715813" lon="13.1832897"><ele>1460.0</ele><time>2026-05-01T12:41:11.926Z</time></trkpt><trkpt lat="42.7717436" lon="13.1832389"><ele>1460.0</ele><time>2026-05-01T12:41:12.926Z</time></trkpt><trkpt lat="42.771893" lon="13.1832024"><ele>1460.6666666666667</ele><time>2026-05-01T12:41:13.925Z</time></trkpt><trkpt lat="42.7720346" lon="13.1832023"><ele>1461.3333333333333</ele><time>2026-05-01T12:41:14.926Z</time></trkpt><trkpt lat="42.77219" lon="13.1832508"><ele>1462.0</ele><time>2026-05-01T12:41:15.926Z</time></trkpt><trkpt lat="42.7723364" lon="13.1833974"><ele>1462.0</ele><time>2026-05-01T12:41:16.926Z</time></trkpt><trkpt lat="42.7725072" lon="13.1835447"><ele>1462.0</ele><time>2026-05-01T12:41:17.926Z</time></trkpt><trkpt lat="42.7726778" lon="13.1836535"><ele>1462.0</ele><time>2026-05-01T12:41:18.925Z</time></trkpt><trkpt lat="42.7728595" lon="13.1837162"><ele>1464.0</ele><time>2026-05-01T12:41:19.926Z</time></trkpt><trkpt lat="42.7730279" lon="13.1837626"><ele>1466.0</ele><time>2026-05-01T12:41:20.926Z</time></trkpt><trkpt lat="42.7731806" lon="13.1838289"><ele>1468.0</ele><time>2026-05-01T12:41:21.925Z</time></trkpt><trkpt lat="42.7733127" lon="13.1839702"><ele>1464.6666666666665</ele><time>2026-05-01T12:41:22.926Z</time></trkpt><trkpt lat="42.7734288" lon="13.1841686"><ele>1461.3333333333333</ele><time>2026-05-01T12:41:23.926Z</time></trkpt><trkpt lat="42.7735677" lon="13.1843857"><ele>1458.0</ele><time>2026-05-01T12:41:24.926Z</time></trkpt><trkpt lat="42.7737147" lon="13.1845966"><ele>1458.0</ele><time>2026-05-01T12:41:25.925Z</time></trkpt><trkpt lat="42.7738886" lon="13.1847784"><ele>1458.0</ele><time>2026-05-01T12:41:26.926Z</time></trkpt><trkpt lat="42.7740693" lon="13.1849382"><ele>1458.0</ele><time>2026-05-01T12:41:27.926Z</time></trkpt><trkpt lat="42.7742395" lon="13.1850867"><ele>1451.6666666666667</ele><time>2026-05-01T12:41:28.926Z</time></trkpt><trkpt lat="42.7744081" lon="13.1852147"><ele>1445.3333333333335</ele><time>2026-05-01T12:41:29.926Z</time></trkpt><trkpt lat="42.7745578" lon="13.1853171"><ele>1439.0</ele><time>2026-05-01T12:41:30.926Z</time></trkpt><trkpt lat="42.7746991" lon="13.1853919"><ele>1439.0</ele><time>2026-05-01T12:41:31.926Z</time></trkpt><trkpt lat="42.7748513" lon="13.1854195"><ele>1439.0</ele><time>2026-05-01T12:41:32.925Z</time></trkpt><trkpt lat="42.7750098" lon="13.1853981"><ele>1439.0</ele><time>2026-05-01T12:41:33.926Z</time></trkpt><trkpt lat="42.7751726" lon="13.1853658"><ele>1437.0</ele><time>2026-05-01T12:41:34.925Z</time></trkpt><trkpt lat="42.7753463" lon="13.1853565"><ele>1435.0</ele><time>2026-05-01T12:41:35.926Z</time></trkpt><trkpt lat="42.7755243" lon="13.1853788"><ele>1433.0</ele><time>2026-05-01T12:41:36.926Z</time></trkpt><trkpt lat="42.7757065" lon="13.1854181"><ele>1433.0</ele><time>2026-05-01T12:41:37.926Z</time></trkpt><trkpt lat="42.775894" lon="13.1854397"><ele>1433.0</ele><time>2026-05-01T12:41:38.925Z</time></trkpt><trkpt lat="42.7760806" lon="13.1854493"><ele>1433.0</ele><time>2026-05-01T12:41:39.925Z</time></trkpt><trkpt lat="42.7762513" lon="13.1854623"><ele>1429.0</ele><time>2026-05-01T12:41:40.926Z</time></trkpt><trkpt lat="42.7764136" lon="13.1854659"><ele>1425.0</ele><time>2026-05-01T12:41:41.926Z</time></trkpt><trkpt lat="42.776575" lon="13.1854239"><ele>1421.0</ele><time>2026-05-01T12:41:42.926Z</time></trkpt><trkpt lat="42.7767402" lon="13.1853393"><ele>1418.0</ele><time>2026-05-01T12:41:43.926Z</time></trkpt><trkpt lat="42.7769079" lon="13.1852541"><ele>1415.0</ele><time>2026-05-01T12:41:44.925Z</time></trkpt><trkpt lat="42.7770772" lon="13.1851849"><ele>1412.0</ele><time>2026-05-01T12:41:45.925Z</time></trkpt><trkpt lat="42.7772478" lon="13.1851365"><ele>1412.0</ele><time>2026-05-01T12:41:46.926Z</time></trkpt><trkpt lat="42.7774193" lon="13.1850861"><ele>1412.0</ele><time>2026-05-01T12:41:47.926Z</time></trkpt><trkpt lat="42.7775899" lon="13.1850255"><ele>1412.0</ele><time>2026-05-01T12:41:48.925Z</time></trkpt><trkpt lat="42.7777617" lon="13.1849645"><ele>1407.0</ele><time>2026-05-01T12:41:49.926Z</time></trkpt><trkpt lat="42.7779442" lon="13.1849135"><ele>1402.0</ele><time>2026-05-01T12:41:50.925Z</time></trkpt><trkpt lat="42.7781416" lon="13.1848924"><ele>1397.0</ele><time>2026-05-01T12:41:51.926Z</time></trkpt><trkpt lat="42.778357" lon="13.1848932"><ele>1393.3333333333335</ele><time>2026-05-01T12:41:52.926Z</time></trkpt><trkpt lat="42.7785813" lon="13.1848891"><ele>1389.6666666666667</ele><time>2026-05-01T12:41:53.925Z</time></trkpt><trkpt lat="42.7788049" lon="13.1848842"><ele>1386.0</ele><time>2026-05-01T12:41:54.925Z</time></trkpt><trkpt lat="42.7790251" lon="13.1848805"><ele>1386.0</ele><time>2026-05-01T12:41:55.926Z</time></trkpt><trkpt lat="42.7792345" lon="13.1848851"><ele>1386.0</ele><time>2026-05-01T12:41:56.925Z</time></trkpt><trkpt lat="42.7794269" lon="13.1848888"><ele>1386.0</ele><time>2026-05-01T12:41:57.925Z</time></trkpt><trkpt lat="42.7796064" lon="13.1848928"><ele>1383.3333333333333</ele><time>2026-05-01T12:41:58.926Z</time></trkpt><trkpt lat="42.7797755" lon="13.184882"><ele>1380.6666666666665</ele><time>2026-05-01T12:41:59.926Z</time></trkpt><trkpt lat="42.7799292" lon="13.1848707"><ele>1378.0</ele><time>2026-05-01T12:42:00.926Z</time></trkpt><trkpt lat="42.7800826" lon="13.1848569"><ele>1384.0</ele><time>2026-05-01T12:42:01.925Z</time></trkpt><trkpt lat="42.7802314" lon="13.1848208"><ele>1390.0</ele><time>2026-05-01T12:42:02.925Z</time></trkpt><trkpt lat="42.7803738" lon="13.1847699"><ele>1396.0</ele><time>2026-05-01T12:42:03.925Z</time></trkpt><trkpt lat="42.7805128" lon="13.1847029"><ele>1402.0</ele><time>2026-05-01T12:42:04.926Z</time></trkpt><trkpt lat="42.7806463" lon="13.1846279"><ele>1402.0</ele><time>2026-05-01T12:42:05.926Z</time></trkpt><trkpt lat="42.7807815" lon="13.1845518"><ele>1402.0</ele><time>2026-05-01T12:42:06.926Z</time></trkpt><trkpt lat="42.780944" lon="13.1845095"><ele>1402.0</ele><time>2026-05-01T12:42:07.925Z</time></trkpt><trkpt lat="42.7811319" lon="13.1845042"><ele>1396.3333333333333</ele><time>2026-05-01T12:42:08.926Z</time></trkpt><trkpt lat="42.7813329" lon="13.1845004"><ele>1390.6666666666667</ele><time>2026-05-01T12:42:09.926Z</time></trkpt><trkpt lat="42.7815379" lon="13.1844801"><ele>1385.0</ele><time>2026-05-01T12:42:10.926Z</time></trkpt><trkpt lat="42.7817491" lon="13.1844667"><ele>1381.0</ele><time>2026-05-01T12:42:11.926Z</time></trkpt><trkpt lat="42.7819628" lon="13.1844446"><ele>1377.0</ele><time>2026-05-01T12:42:12.926Z</time></trkpt><trkpt lat="42.7821794" lon="13.1844172"><ele>1373.0</ele><time>2026-05-01T12:42:13.926Z</time></trkpt><trkpt lat="42.7823968" lon="13.1843719"><ele>1373.0</ele><time>2026-05-01T12:42:14.926Z</time></trkpt><trkpt lat="42.7826134" lon="13.184319"><ele>1373.0</ele><time>2026-05-01T12:42:15.926Z</time></trkpt><trkpt lat="42.7828257" lon="13.1842614"><ele>1373.0</ele><time>2026-05-01T12:42:16.926Z</time></trkpt><trkpt lat="42.7830243" lon="13.1842013"><ele>1367.0</ele><time>2026-05-01T12:42:17.926Z</time></trkpt><trkpt lat="42.7832024" lon="13.1841442"><ele>1361.0</ele><time>2026-05-01T12:42:18.926Z</time></trkpt><trkpt lat="42.7833675" lon="13.1840728"><ele>1355.0</ele><time>2026-05-01T12:42:19.926Z</time></trkpt><trkpt lat="42.7835143" lon="13.1839583"><ele>1350.3333333333335</ele><time>2026-05-01T12:42:20.926Z</time></trkpt><trkpt lat="42.7836478" lon="13.1838128"><ele>1345.6666666666667</ele><time>2026-05-01T12:42:21.926Z</time></trkpt><trkpt lat="42.7837881" lon="13.1836603"><ele>1341.0</ele><time>2026-05-01T12:42:22.927Z</time></trkpt><trkpt lat="42.7839131" lon="13.1834905"><ele>1341.0</ele><time>2026-05-01T12:42:23.926Z</time></trkpt><trkpt lat="42.7840269" lon="13.1832814"><ele>1341.0</ele><time>2026-05-01T12:42:24.926Z</time></trkpt><trkpt lat="42.7841443" lon="13.18307"><ele>1341.0</ele><time>2026-05-01T12:42:25.927Z</time></trkpt><trkpt lat="42.7842667" lon="13.1828543"><ele>1337.0</ele><time>2026-05-01T12:42:26.927Z</time></trkpt><trkpt lat="42.7843863" lon="13.1826385"><ele>1333.0</ele><time>2026-05-01T12:42:27.927Z</time></trkpt><trkpt lat="42.7844972" lon="13.1824278"><ele>1329.0</ele><time>2026-05-01T12:42:28.927Z</time></trkpt><trkpt lat="42.7846074" lon="13.1822453"><ele>1339.3333333333333</ele><time>2026-05-01T12:42:29.927Z</time></trkpt><trkpt lat="42.7847265" lon="13.182103"><ele>1349.6666666666665</ele><time>2026-05-01T12:42:30.927Z</time></trkpt><trkpt lat="42.7848631" lon="13.1820377"><ele>1360.0</ele><time>2026-05-01T12:42:31.927Z</time></trkpt><trkpt lat="42.7850256" lon="13.1820072"><ele>1359.6666666666665</ele><time>2026-05-01T12:42:32.927Z</time></trkpt><trkpt lat="42.7852107" lon="13.182022"><ele>1359.3333333333333</ele><time>2026-05-01T12:42:33.927Z</time></trkpt><trkpt lat="42.7854306" lon="13.1820579"><ele>1359.0</ele><time>2026-05-01T12:42:34.926Z</time></trkpt><trkpt lat="42.7856573" lon="13.1820978"><ele>1359.0</ele><time>2026-05-01T12:42:35.927Z</time></trkpt><trkpt lat="42.785889" lon="13.1821474"><ele>1359.0</ele><time>2026-05-01T12:42:36.926Z</time></trkpt><trkpt lat="42.7861227" lon="13.1821927"><ele>1362.5</ele><time>2026-05-01T12:42:37.926Z</time></trkpt><trkpt lat="42.7863558" lon="13.1822474"><ele>1366.0</ele><time>2026-05-01T12:42:38.927Z</time></trkpt><trkpt lat="42.7865863" lon="13.1823151"><ele>1347.5</ele><time>2026-05-01T12:42:39.927Z</time></trkpt><trkpt lat="42.7868098" lon="13.1823817"><ele>1329.0</ele><time>2026-05-01T12:42:40.927Z</time></trkpt><trkpt lat="42.7870284" lon="13.182439"><ele>1328.3333333333333</ele><time>2026-05-01T12:42:41.927Z</time></trkpt><trkpt lat="42.7872496" lon="13.1824857"><ele>1327.6666666666665</ele><time>2026-05-01T12:42:42.926Z</time></trkpt><trkpt lat="42.7874689" lon="13.1825321"><ele>1327.0</ele><time>2026-05-01T12:42:43.927Z</time></trkpt><trkpt lat="42.7876928" lon="13.1825854"><ele>1331.0</ele><time>2026-05-01T12:42:44.926Z</time></trkpt><trkpt lat="42.7879145" lon="13.1826499"><ele>1335.0</ele><time>2026-05-01T12:42:45.927Z</time></trkpt><trkpt lat="42.7881251" lon="13.1827142"><ele>1339.0</ele><time>2026-05-01T12:42:46.926Z</time></trkpt><trkpt lat="42.7883139" lon="13.1827888"><ele>1339.0</ele><time>2026-05-01T12:42:47.927Z</time></trkpt><trkpt lat="42.788491" lon="13.1828483"><ele>1339.0</ele><time>2026-05-01T12:42:48.927Z</time></trkpt><trkpt lat="42.7886545" lon="13.1829006"><ele>1339.0</ele><time>2026-05-01T12:42:49.926Z</time></trkpt><trkpt lat="42.7888153" lon="13.1829267"><ele>1338.6666666666665</ele><time>2026-05-01T12:42:50.927Z</time></trkpt><trkpt lat="42.7889864" lon="13.1829239"><ele>1338.3333333333333</ele><time>2026-05-01T12:42:51.927Z</time></trkpt><trkpt lat="42.7891642" lon="13.1829064"><ele>1338.0</ele><time>2026-05-01T12:42:52.926Z</time></trkpt><trkpt lat="42.7893452" lon="13.182896"><ele>1335.6666666666667</ele><time>2026-05-01T12:42:53.927Z</time></trkpt><trkpt lat="42.7895373" lon="13.1828903"><ele>1333.3333333333335</ele><time>2026-05-01T12:42:54.926Z</time></trkpt><trkpt lat="42.7897279" lon="13.1828965"><ele>1331.0</ele><time>2026-05-01T12:42:55.927Z</time></trkpt><trkpt lat="42.7899174" lon="13.1829183"><ele>1331.0</ele><time>2026-05-01T12:42:56.927Z</time></trkpt><trkpt lat="42.7901109" lon="13.1829374"><ele>1331.0</ele><time>2026-05-01T12:42:57.927Z</time></trkpt><trkpt lat="42.790309" lon="13.1829381"><ele>1331.0</ele><time>2026-05-01T12:42:58.926Z</time></trkpt><trkpt lat="42.7905035" lon="13.1829255"><ele>1328.0</ele><time>2026-05-01T12:42:59.927Z</time></trkpt><trkpt lat="42.790697" lon="13.182891"><ele>1325.0</ele><time>2026-05-01T12:43:00.927Z</time></trkpt><trkpt lat="42.7908842" lon="13.182837"><ele>1322.0</ele><time>2026-05-01T12:43:01.927Z</time></trkpt><trkpt lat="42.7910746" lon="13.1827727"><ele>1315.6666666666667</ele><time>2026-05-01T12:43:02.927Z</time></trkpt><trkpt lat="42.7912665" lon="13.1827136"><ele>1309.3333333333333</ele><time>2026-05-01T12:43:03.926Z</time></trkpt><trkpt lat="42.7914637" lon="13.1826582"><ele>1303.0</ele><time>2026-05-01T12:43:04.926Z</time></trkpt><trkpt lat="42.7916639" lon="13.1825971"><ele>1304.0</ele><time>2026-05-01T12:43:05.927Z</time></trkpt><trkpt lat="42.7918617" lon="13.1825243"><ele>1305.0</ele><time>2026-05-01T12:43:06.927Z</time></trkpt><trkpt lat="42.7920571" lon="13.1824217"><ele>1306.0</ele><time>2026-05-01T12:43:07.927Z</time></trkpt><trkpt lat="42.7922491" lon="13.182295"><ele>1306.0</ele><time>2026-05-01T12:43:08.926Z</time></trkpt><trkpt lat="42.7924389" lon="13.1821551"><ele>1306.0</ele><time>2026-05-01T12:43:09.926Z</time></trkpt><trkpt lat="42.7926238" lon="13.1820107"><ele>1306.0</ele><time>2026-05-01T12:43:10.927Z</time></trkpt><trkpt lat="42.7928009" lon="13.1818683"><ele>1303.6666666666665</ele><time>2026-05-01T12:43:11.927Z</time></trkpt><trkpt lat="42.7929756" lon="13.1817267"><ele>1301.3333333333333</ele><time>2026-05-01T12:43:12.927Z</time></trkpt><trkpt lat="42.7931469" lon="13.1816004"><ele>1299.0</ele><time>2026-05-01T12:43:13.927Z</time></trkpt><trkpt lat="42.79332" lon="13.1814936"><ele>1299.0</ele><time>2026-05-01T12:43:14.927Z</time></trkpt><trkpt lat="42.793498" lon="13.1814326"><ele>1299.0</ele><time>2026-05-01T12:43:15.926Z</time></trkpt><trkpt lat="42.7936759" lon="13.1814311"><ele>1299.0</ele><time>2026-05-01T12:43:16.927Z</time></trkpt><trkpt lat="42.7938461" lon="13.1815005"><ele>1294.3333333333333</ele><time>2026-05-01T12:43:17.927Z</time></trkpt><trkpt lat="42.794019" lon="13.181634"><ele>1289.6666666666665</ele><time>2026-05-01T12:43:18.927Z</time></trkpt><trkpt lat="42.7941825" lon="13.1818237"><ele>1285.0</ele><time>2026-05-01T12:43:19.927Z</time></trkpt><trkpt lat="42.7943378" lon="13.1820495"><ele>1284.5</ele><time>2026-05-01T12:43:20.926Z</time></trkpt><trkpt lat="42.7944996" lon="13.1822721"><ele>1284.0</ele><time>2026-05-01T12:43:21.927Z</time></trkpt><trkpt lat="42.7946655" lon="13.182493"><ele>1283.0</ele><time>2026-05-01T12:43:22.927Z</time></trkpt><trkpt lat="42.7948352" lon="13.1827041"><ele>1282.0</ele><time>2026-05-01T12:43:23.927Z</time></trkpt><trkpt lat="42.7950033" lon="13.1829186"><ele>1282.0</ele><time>2026-05-01T12:43:24.927Z</time></trkpt><trkpt lat="42.7951737" lon="13.1831418"><ele>1282.0</ele><time>2026-05-01T12:43:25.927Z</time></trkpt><trkpt lat="42.795347" lon="13.1833602"><ele>1281.5</ele><time>2026-05-01T12:43:26.926Z</time></trkpt><trkpt lat="42.7955235" lon="13.1835906"><ele>1281.0</ele><time>2026-05-01T12:43:27.927Z</time></trkpt><trkpt lat="42.7957015" lon="13.1838212"><ele>1280.0</ele><time>2026-05-01T12:43:28.926Z</time></trkpt><trkpt lat="42.795884" lon="13.184054"><ele>1279.0</ele><time>2026-05-01T12:43:29.927Z</time></trkpt><trkpt lat="42.7960681" lon="13.1842883"><ele>1279.0</ele><time>2026-05-01T12:43:30.927Z</time></trkpt><trkpt lat="42.7962536" lon="13.1845196"><ele>1279.0</ele><time>2026-05-01T12:43:31.927Z</time></trkpt><trkpt lat="42.796442" lon="13.1847544"><ele>1277.0</ele><time>2026-05-01T12:43:32.927Z</time></trkpt><trkpt lat="42.796631" lon="13.1849875"><ele>1275.0</ele><time>2026-05-01T12:43:33.927Z</time></trkpt><trkpt lat="42.7968216" lon="13.1852192"><ele>1275.5</ele><time>2026-05-01T12:43:34.927Z</time></trkpt><trkpt lat="42.7970097" lon="13.1854535"><ele>1276.0</ele><time>2026-05-01T12:43:35.927Z</time></trkpt><trkpt lat="42.7971985" lon="13.1856953"><ele>1276.5</ele><time>2026-05-01T12:43:36.927Z</time></trkpt><trkpt lat="42.797389" lon="13.1859308"><ele>1277.0</ele><time>2026-05-01T12:43:37.926Z</time></trkpt><trkpt lat="42.7975777" lon="13.1861676"><ele>1277.0</ele><time>2026-05-01T12:43:38.927Z</time></trkpt><trkpt lat="42.7977671" lon="13.1864111"><ele>1277.0</ele><time>2026-05-01T12:43:39.927Z</time></trkpt><trkpt lat="42.7979567" lon="13.1866542"><ele>1276.0</ele><time>2026-05-01T12:43:40.926Z</time></trkpt><trkpt lat="42.7981452" lon="13.186895"><ele>1275.0</ele><time>2026-05-01T12:43:41.927Z</time></trkpt><trkpt lat="42.7983405" lon="13.1871341"><ele>1275.5</ele><time>2026-05-01T12:43:42.926Z</time></trkpt><trkpt lat="42.7985332" lon="13.1873779"><ele>1276.0</ele><time>2026-05-01T12:43:43.926Z</time></trkpt><trkpt lat="42.7987245" lon="13.1876209"><ele>1276.0</ele><time>2026-05-01T12:43:44.927Z</time></trkpt><trkpt lat="42.7989165" lon="13.1878648"><ele>1276.0</ele><time>2026-05-01T12:43:45.926Z</time></trkpt><trkpt lat="42.7991101" lon="13.1881038"><ele>1275.5</ele><time>2026-05-01T12:43:46.927Z</time></trkpt><trkpt lat="42.7993064" lon="13.1883441"><ele>1275.0</ele><time>2026-05-01T12:43:47.927Z</time></trkpt><trkpt lat="42.7995017" lon="13.1885858"><ele>1274.5</ele><time>2026-05-01T12:43:48.927Z</time></trkpt><trkpt lat="42.7996964" lon="13.1888316"><ele>1274.0</ele><time>2026-05-01T12:43:49.927Z</time></trkpt><trkpt lat="42.7998895" lon="13.1890707"><ele>1273.0</ele><time>2026-05-01T12:43:50.926Z</time></trkpt><trkpt lat="42.8000838" lon="13.1893121"><ele>1272.0</ele><time>2026-05-01T12:43:51.926Z</time></trkpt><trkpt lat="42.8002749" lon="13.189557"><ele>1272.0</ele><time>2026-05-01T12:43:52.926Z</time></trkpt><trkpt lat="42.8004654" lon="13.1897995"><ele>1272.0</ele><time>2026-05-01T12:43:53.927Z</time></trkpt><trkpt lat="42.8006572" lon="13.1900361"><ele>1273.0</ele><time>2026-05-01T12:43:54.927Z</time></trkpt><trkpt lat="42.8008409" lon="13.1902683"><ele>1274.0</ele><time>2026-05-01T12:43:55.927Z</time></trkpt><trkpt lat="42.8010188" lon="13.1904917"><ele>1274.0</ele><time>2026-05-01T12:43:56.927Z</time></trkpt><trkpt lat="42.8011888" lon="13.1907071"><ele>1274.0</ele><time>2026-05-01T12:43:57.927Z</time></trkpt><trkpt lat="42.8013542" lon="13.1909152"><ele>1274.0</ele><time>2026-05-01T12:43:58.927Z</time></trkpt><trkpt lat="42.8015222" lon="13.1911223"><ele>1274.0</ele><time>2026-05-01T12:43:59.927Z</time></trkpt><trkpt lat="42.8016871" lon="13.1913313"><ele>1274.0</ele><time>2026-05-01T12:44:00.926Z</time></trkpt><trkpt lat="42.8018485" lon="13.191533"><ele>1274.0</ele><time>2026-05-01T12:44:01.926Z</time></trkpt><trkpt lat="42.8020124" lon="13.1917379"><ele>1274.0</ele><time>2026-05-01T12:44:02.927Z</time></trkpt><trkpt lat="42.8021758" lon="13.1919415"><ele>1274.0</ele><time>2026-05-01T12:44:03.926Z</time></trkpt><trkpt lat="42.802339" lon="13.1921513"><ele>1274.0</ele><time>2026-05-01T12:44:04.927Z</time></trkpt><trkpt lat="42.8025016" lon="13.1923546"><ele>1274.0</ele><time>2026-05-01T12:44:05.926Z</time></trkpt><trkpt lat="42.8026629" lon="13.1925597"><ele>1274.6666666666667</ele><time>2026-05-01T12:44:06.926Z</time></trkpt><trkpt lat="42.8028237" lon="13.192761"><ele>1275.3333333333333</ele><time>2026-05-01T12:44:07.927Z</time></trkpt><trkpt lat="42.8029821" lon="13.1929644"><ele>1276.0</ele><time>2026-05-01T12:44:08.927Z</time></trkpt><trkpt lat="42.8031377" lon="13.193161"><ele>1276.3333333333333</ele><time>2026-05-01T12:44:09.926Z</time></trkpt><trkpt lat="42.8032888" lon="13.1933523"><ele>1276.6666666666667</ele><time>2026-05-01T12:44:10.927Z</time></trkpt><trkpt lat="42.8034319" lon="13.1935335"><ele>1277.0</ele><time>2026-05-01T12:44:11.926Z</time></trkpt><trkpt lat="42.8035642" lon="13.1937053"><ele>1277.0</ele><time>2026-05-01T12:44:12.927Z</time></trkpt><trkpt lat="42.8036946" lon="13.1938669"><ele>1277.0</ele><time>2026-05-01T12:44:13.927Z</time></trkpt><trkpt lat="42.8038222" lon="13.1940232"><ele>1277.0</ele><time>2026-05-01T12:44:14.926Z</time></trkpt><trkpt lat="42.8039438" lon="13.1941679"><ele>1277.0</ele><time>2026-05-01T12:44:15.927Z</time></trkpt><trkpt lat="42.8040665" lon="13.194311"><ele>1277.0</ele><time>2026-05-01T12:44:16.926Z</time></trkpt><trkpt lat="42.8041798" lon="13.194454"><ele>1277.0</ele><time>2026-05-01T12:44:17.927Z</time></trkpt><trkpt lat="42.8042921" lon="13.1945912"><ele>1277.5</ele><time>2026-05-01T12:44:18.927Z</time></trkpt><trkpt lat="42.8044001" lon="13.194723"><ele>1278.0</ele><time>2026-05-01T12:44:19.927Z</time></trkpt><trkpt lat="42.8044994" lon="13.1948531"><ele>1278.5</ele><time>2026-05-01T12:44:20.927Z</time></trkpt><trkpt lat="42.8045952" lon="13.194977"><ele>1279.0</ele><time>2026-05-01T12:44:21.927Z</time></trkpt><trkpt lat="42.8046856" lon="13.1950963"><ele>1279.25</ele><time>2026-05-01T12:44:22.927Z</time></trkpt><trkpt lat="42.8047724" lon="13.1952148"><ele>1279.5</ele><time>2026-05-01T12:44:23.926Z</time></trkpt><trkpt lat="42.8048626" lon="13.1953235"><ele>1279.75</ele><time>2026-05-01T12:44:24.926Z</time></trkpt><trkpt lat="42.8049503" lon="13.1954367"><ele>1280.0</ele><time>2026-05-01T12:44:25.926Z</time></trkpt><trkpt lat="42.8050321" lon="13.195541"><ele>1280.0</ele><time>2026-05-01T12:44:26.927Z</time></trkpt><trkpt lat="42.8051091" lon="13.1956391"><ele>1280.0</ele><time>2026-05-01T12:44:27.926Z</time></trkpt><trkpt lat="42.8051869" lon="13.1957404"><ele>1280.0</ele><time>2026-05-01T12:44:28.927Z</time></trkpt><trkpt lat="42.8052667" lon="13.1958358"><ele>1280.0</ele><time>2026-05-01T12:44:29.926Z</time></trkpt><trkpt lat="42.8053475" lon="13.1959351"><ele>1280.0</ele><time>2026-05-01T12:44:30.927Z</time></trkpt><trkpt lat="42.8054364" lon="13.1960422"><ele>1280.0</ele><time>2026-05-01T12:44:31.927Z</time></trkpt><trkpt lat="42.8055317" lon="13.1961497"><ele>1280.0</ele><time>2026-05-01T12:44:32.927Z</time></trkpt><trkpt lat="42.8056228" lon="13.1962606"><ele>1280.0</ele><time>2026-05-01T12:44:33.927Z</time></trkpt><trkpt lat="42.805724" lon="13.1963859"><ele>1280.0</ele><time>2026-05-01T12:44:34.927Z</time></trkpt><trkpt lat="42.805827" lon="13.196516"><ele>1280.0</ele><time>2026-05-01T12:44:35.927Z</time></trkpt><trkpt lat="42.8059313" lon="13.1966509"><ele>1280.0</ele><time>2026-05-01T12:44:36.926Z</time></trkpt><trkpt lat="42.8060445" lon="13.1967962"><ele>1280.0</ele><time>2026-05-01T12:44:37.926Z</time></trkpt><trkpt lat="42.8061615" lon="13.1969425"><ele>1280.0</ele><time>2026-05-01T12:44:38.927Z</time></trkpt><trkpt lat="42.8062805" lon="13.1970967"><ele>1280.0</ele><time>2026-05-01T12:44:39.927Z</time></trkpt><trkpt lat="42.8064014" lon="13.197257"><ele>1280.0</ele><time>2026-05-01T12:44:40.926Z</time></trkpt><trkpt lat="42.8065245" lon="13.1974197"><ele>1280.0</ele><time>2026-05-01T12:44:41.927Z</time></trkpt><trkpt lat="42.8066477" lon="13.1975808"><ele>1280.0</ele><time>2026-05-01T12:44:42.927Z</time></trkpt><trkpt lat="42.8067837" lon="13.1977453"><ele>1280.0</ele><time>2026-05-01T12:44:43.927Z</time></trkpt><trkpt lat="42.8069256" lon="13.1979077"><ele>1280.3333333333335</ele><time>2026-05-01T12:44:44.927Z</time></trkpt><trkpt lat="42.8070727" lon="13.1980724"><ele>1280.6666666666667</ele><time>2026-05-01T12:44:45.927Z</time></trkpt><trkpt lat="42.8072218" lon="13.1982446"><ele>1281.0</ele><time>2026-05-01T12:44:46.927Z</time></trkpt><trkpt lat="42.8073723" lon="13.1984294"><ele>1281.0</ele><time>2026-05-01T12:44:47.926Z</time></trkpt><trkpt lat="42.8075211" lon="13.1986204"><ele>1281.0</ele><time>2026-05-01T12:44:48.927Z</time></trkpt><trkpt lat="42.8076711" lon="13.1988164"><ele>1281.0</ele><time>2026-05-01T12:44:49.927Z</time></trkpt><trkpt lat="42.8078193" lon="13.19902"><ele>1281.3333333333333</ele><time>2026-05-01T12:44:50.926Z</time></trkpt><trkpt lat="42.8079691" lon="13.199231"><ele>1281.6666666666665</ele><time>2026-05-01T12:44:51.927Z</time></trkpt><trkpt lat="42.8081259" lon="13.1994341"><ele>1282.0</ele><time>2026-05-01T12:44:52.927Z</time></trkpt><trkpt lat="42.8082826" lon="13.1996359"><ele>1282.0</ele><time>2026-05-01T12:44:53.927Z</time></trkpt><trkpt lat="42.8084414" lon="13.1998415"><ele>1282.0</ele><time>2026-05-01T12:44:54.927Z</time></trkpt><trkpt lat="42.8086019" lon="13.2000472"><ele>1282.0</ele><time>2026-05-01T12:44:55.926Z</time></trkpt><trkpt lat="42.8087654" lon="13.2002544"><ele>1282.0</ele><time>2026-05-01T12:44:56.927Z</time></trkpt><trkpt lat="42.8089324" lon="13.2004571"><ele>1282.0</ele><time>2026-05-01T12:44:57.926Z</time></trkpt><trkpt lat="42.8091012" lon="13.2006646"><ele>1282.0</ele><time>2026-05-01T12:44:58.927Z</time></trkpt><trkpt lat="42.8092687" lon="13.200873"><ele>1282.0</ele><time>2026-05-01T12:44:59.927Z</time></trkpt><trkpt lat="42.809437" lon="13.2010875"><ele>1283.0</ele><time>2026-05-01T12:45:00.927Z</time></trkpt><trkpt lat="42.8096053" lon="13.2013024"><ele>1284.0</ele><time>2026-05-01T12:45:01.926Z</time></trkpt><trkpt lat="42.8097757" lon="13.2015124"><ele>1284.5</ele><time>2026-05-01T12:45:02.927Z</time></trkpt><trkpt lat="42.8099455" lon="13.2017274"><ele>1285.0</ele><time>2026-05-01T12:45:03.927Z</time></trkpt><trkpt lat="42.8101177" lon="13.2019435"><ele>1286.0</ele><time>2026-05-01T12:45:04.927Z</time></trkpt><trkpt lat="42.8102926" lon="13.2021595"><ele>1287.0</ele><time>2026-05-01T12:45:05.927Z</time></trkpt><trkpt lat="42.8104635" lon="13.2023712"><ele>1287.0</ele><time>2026-05-01T12:45:06.927Z</time></trkpt><trkpt lat="42.8106329" lon="13.2025857"><ele>1287.0</ele><time>2026-05-01T12:45:07.926Z</time></trkpt><trkpt lat="42.8107985" lon="13.2027989"><ele>1287.0</ele><time>2026-05-01T12:45:08.926Z</time></trkpt><trkpt lat="42.8109571" lon="13.2030096"><ele>1287.0</ele><time>2026-05-01T12:45:09.927Z</time></trkpt><trkpt lat="42.8111187" lon="13.2032088"><ele>1287.0</ele><time>2026-05-01T12:45:10.926Z</time></trkpt><trkpt lat="42.8112766" lon="13.2034023"><ele>1286.0</ele><time>2026-05-01T12:45:11.926Z</time></trkpt><trkpt lat="42.8114297" lon="13.2035902"><ele>1285.0</ele><time>2026-05-01T12:45:12.927Z</time></trkpt><trkpt lat="42.8115795" lon="13.2037831"><ele>1284.0</ele><time>2026-05-01T12:45:13.927Z</time></trkpt><trkpt lat="42.811731" lon="13.2039643"><ele>1285.6666666666667</ele><time>2026-05-01T12:45:14.926Z</time></trkpt><trkpt lat="42.8118771" lon="13.2041562"><ele>1287.3333333333335</ele><time>2026-05-01T12:45:15.926Z</time></trkpt><trkpt lat="42.812027" lon="13.2043433"><ele>1289.0</ele><time>2026-05-01T12:45:16.926Z</time></trkpt><trkpt lat="42.8121768" lon="13.2045324"><ele>1289.0</ele><time>2026-05-01T12:45:17.927Z</time></trkpt><trkpt lat="42.8123278" lon="13.2047227"><ele>1289.0</ele><time>2026-05-01T12:45:18.926Z</time></trkpt><trkpt lat="42.8124822" lon="13.2049135"><ele>1289.0</ele><time>2026-05-01T12:45:19.926Z</time></trkpt><trkpt lat="42.8126339" lon="13.2051101"><ele>1289.3333333333335</ele><time>2026-05-01T12:45:20.927Z</time></trkpt><trkpt lat="42.8127895" lon="13.2053092"><ele>1289.6666666666667</ele><time>2026-05-01T12:45:21.927Z</time></trkpt><trkpt lat="42.8129427" lon="13.2055035"><ele>1290.0</ele><time>2026-05-01T12:45:22.927Z</time></trkpt><trkpt lat="42.8131" lon="13.2057033"><ele>1290.0</ele><time>2026-05-01T12:45:23.927Z</time></trkpt><trkpt lat="42.8132581" lon="13.205897"><ele>1290.0</ele><time>2026-05-01T12:45:24.927Z</time></trkpt><trkpt lat="42.8134142" lon="13.2060947"><ele>1290.0</ele><time>2026-05-01T12:45:25.927Z</time></trkpt><trkpt lat="42.8135688" lon="13.2062877"><ele>1290.3333333333333</ele><time>2026-05-01T12:45:26.926Z</time></trkpt><trkpt lat="42.8137235" lon="13.206485"><ele>1290.6666666666665</ele><time>2026-05-01T12:45:27.926Z</time></trkpt><trkpt lat="42.8138786" lon="13.2066795"><ele>1291.0</ele><time>2026-05-01T12:45:28.927Z</time></trkpt><trkpt lat="42.8140349" lon="13.2068715"><ele>1291.0</ele><time>2026-05-01T12:45:29.927Z</time></trkpt><trkpt lat="42.8141918" lon="13.2070634"><ele>1291.0</ele><time>2026-05-01T12:45:30.926Z</time></trkpt><trkpt lat="42.814347" lon="13.2072612"><ele>1291.0</ele><time>2026-05-01T12:45:31.927Z</time></trkpt><trkpt lat="42.8145034" lon="13.2074566"><ele>1291.3333333333333</ele><time>2026-05-01T12:45:32.926Z</time></trkpt><trkpt lat="42.8146606" lon="13.2076538"><ele>1291.6666666666667</ele><time>2026-05-01T12:45:33.927Z</time></trkpt><trkpt lat="42.8148174" lon="13.207853"><ele>1292.0</ele><time>2026-05-01T12:45:34.927Z</time></trkpt><trkpt lat="42.8149765" lon="13.208052"><ele>1292.3333333333335</ele><time>2026-05-01T12:45:35.926Z</time></trkpt><trkpt lat="42.815137" lon="13.2082507"><ele>1292.6666666666667</ele><time>2026-05-01T12:45:36.926Z</time></trkpt><trkpt lat="42.815295" lon="13.2084507"><ele>1293.0</ele><time>2026-05-01T12:45:37.927Z</time></trkpt><trkpt lat="42.8154546" lon="13.2086514"><ele>1293.0</ele><time>2026-05-01T12:45:38.927Z</time></trkpt><trkpt lat="42.8156147" lon="13.2088472"><ele>1293.0</ele><time>2026-05-01T12:45:39.927Z</time></trkpt><trkpt lat="42.8157787" lon="13.2090547"><ele>1293.0</ele><time>2026-05-01T12:45:40.927Z</time></trkpt><trkpt lat="42.8159401" lon="13.2092654"><ele>1294.0</ele><time>2026-05-01T12:45:41.927Z</time></trkpt><trkpt lat="42.8161028" lon="13.2094765"><ele>1295.0</ele><time>2026-05-01T12:45:42.927Z</time></trkpt><trkpt lat="42.8162649" lon="13.209688"><ele>1296.0</ele><time>2026-05-01T12:45:43.926Z</time></trkpt><trkpt lat="42.8164261" lon="13.2098957"><ele>1296.0</ele><time>2026-05-01T12:45:44.927Z</time></trkpt><trkpt lat="42.8165905" lon="13.210102"><ele>1296.0</ele><time>2026-05-01T12:45:45.926Z</time></trkpt><trkpt lat="42.8167492" lon="13.2103083"><ele>1296.0</ele><time>2026-05-01T12:45:46.927Z</time></trkpt><trkpt lat="42.8169099" lon="13.2105073"><ele>1296.3333333333333</ele><time>2026-05-01T12:45:47.927Z</time></trkpt><trkpt lat="42.8170714" lon="13.2106959"><ele>1296.6666666666665</ele><time>2026-05-01T12:45:48.927Z</time></trkpt><trkpt lat="42.8172307" lon="13.2108711"><ele>1297.0</ele><time>2026-05-01T12:45:49.926Z</time></trkpt><trkpt lat="42.817395" lon="13.2110263"><ele>1297.0</ele><time>2026-05-01T12:45:50.926Z</time></trkpt><trkpt lat="42.8175651" lon="13.2111575"><ele>1297.0</ele><time>2026-05-01T12:45:51.927Z</time></trkpt><trkpt lat="42.8177357" lon="13.2112856"><ele>1297.0</ele><time>2026-05-01T12:45:52.927Z</time></trkpt><trkpt lat="42.8178972" lon="13.2114161"><ele>1297.0</ele><time>2026-05-01T12:45:53.927Z</time></trkpt><trkpt lat="42.8180586" lon="13.2115461"><ele>1297.0</ele><time>2026-05-01T12:45:54.927Z</time></trkpt><trkpt lat="42.8182148" lon="13.2116692"><ele>1297.0</ele><time>2026-05-01T12:45:55.927Z</time></trkpt><trkpt lat="42.8183698" lon="13.2117928"><ele>1298.0</ele><time>2026-05-01T12:45:56.927Z</time></trkpt><trkpt lat="42.81852" lon="13.2119093"><ele>1299.0</ele><time>2026-05-01T12:45:57.927Z</time></trkpt><trkpt lat="42.8186666" lon="13.2120268"><ele>1300.0</ele><time>2026-05-01T12:45:58.927Z</time></trkpt><trkpt lat="42.8188068" lon="13.2121449"><ele>1300.0</ele><time>2026-05-01T12:45:59.926Z</time></trkpt><trkpt lat="42.8189435" lon="13.2122552"><ele>1300.0</ele><time>2026-05-01T12:46:00.927Z</time></trkpt><trkpt lat="42.8190791" lon="13.2123633"><ele>1300.0</ele><time>2026-05-01T12:46:01.927Z</time></trkpt><trkpt lat="42.8192156" lon="13.2124683"><ele>1300.0</ele><time>2026-05-01T12:46:02.926Z</time></trkpt><trkpt lat="42.8193529" lon="13.212567"><ele>1300.0</ele><time>2026-05-01T12:46:03.927Z</time></trkpt><trkpt lat="42.81949" lon="13.2126635"><ele>1300.0</ele><time>2026-05-01T12:46:04.927Z</time></trkpt><trkpt lat="42.8196259" lon="13.2127559"><ele>1300.0</ele><time>2026-05-01T12:46:05.927Z</time></trkpt><trkpt lat="42.8197659" lon="13.2128473"><ele>1300.0</ele><time>2026-05-01T12:46:06.927Z</time></trkpt><trkpt lat="42.8199076" lon="13.2129365"><ele>1300.0</ele><time>2026-05-01T12:46:07.926Z</time></trkpt><trkpt lat="42.8200466" lon="13.2130271"><ele>1300.25</ele><time>2026-05-01T12:46:08.926Z</time></trkpt><trkpt lat="42.8201783" lon="13.2131069"><ele>1300.5</ele><time>2026-05-01T12:46:09.926Z</time></trkpt><trkpt lat="42.8202941" lon="13.2131711"><ele>1300.75</ele><time>2026-05-01T12:46:10.926Z</time></trkpt><trkpt lat="42.8204018" lon="13.2132236"><ele>1301.0</ele><time>2026-05-01T12:46:11.927Z</time></trkpt><trkpt lat="42.8205027" lon="13.2132605"><ele>1301.0</ele><time>2026-05-01T12:46:12.927Z</time></trkpt><trkpt lat="42.820607" lon="13.2132931"><ele>1301.0</ele><time>2026-05-01T12:46:13.927Z</time></trkpt><trkpt lat="42.8207167" lon="13.2133196"><ele>1301.0</ele><time>2026-05-01T12:46:14.926Z</time></trkpt><trkpt lat="42.8208345" lon="13.2133396"><ele>1301.0</ele><time>2026-05-01T12:46:15.927Z</time></trkpt><trkpt lat="42.820955" lon="13.2133547"><ele>1301.5</ele><time>2026-05-01T12:46:16.927Z</time></trkpt><trkpt lat="42.8210812" lon="13.2133657"><ele>1302.0</ele><time>2026-05-01T12:46:17.927Z</time></trkpt><trkpt lat="42.8212093" lon="13.2133778"><ele>1302.5</ele><time>2026-05-01T12:46:18.927Z</time></trkpt><trkpt lat="42.8213425" lon="13.2133897"><ele>1303.0</ele><time>2026-05-01T12:46:19.927Z</time></trkpt><trkpt lat="42.8214837" lon="13.2134041"><ele>1303.0</ele><time>2026-05-01T12:46:20.927Z</time></trkpt><trkpt lat="42.8216303" lon="13.2134129"><ele>1303.0</ele><time>2026-05-01T12:46:21.927Z</time></trkpt><trkpt lat="42.8217813" lon="13.2134237"><ele>1303.0</ele><time>2026-05-01T12:46:22.927Z</time></trkpt><trkpt lat="42.8219338" lon="13.2134359"><ele>1302.6666666666665</ele><time>2026-05-01T12:46:23.927Z</time></trkpt><trkpt lat="42.822088" lon="13.2134518"><ele>1302.3333333333333</ele><time>2026-05-01T12:46:24.926Z</time></trkpt><trkpt lat="42.8222435" lon="13.2134678"><ele>1302.0</ele><time>2026-05-01T12:46:25.926Z</time></trkpt><trkpt lat="42.8224055" lon="13.213486"><ele>1302.0</ele><time>2026-05-01T12:46:26.927Z</time></trkpt><trkpt lat="42.8225685" lon="13.2135067"><ele>1302.0</ele><time>2026-05-01T12:46:27.927Z</time></trkpt><trkpt lat="42.8227367" lon="13.2135221"><ele>1302.0</ele><time>2026-05-01T12:46:28.927Z</time></trkpt><trkpt lat="42.8229009" lon="13.2135357"><ele>1302.6666666666667</ele><time>2026-05-01T12:46:29.927Z</time></trkpt><trkpt lat="42.8230643" lon="13.2135512"><ele>1303.3333333333335</ele><time>2026-05-01T12:46:30.927Z</time></trkpt><trkpt lat="42.8232319" lon="13.2135657"><ele>1304.0</ele><time>2026-05-01T12:46:31.927Z</time></trkpt><trkpt lat="42.8234031" lon="13.2135786"><ele>1304.0</ele><time>2026-05-01T12:46:32.927Z</time></trkpt><trkpt lat="42.8235742" lon="13.213593"><ele>1304.0</ele><time>2026-05-01T12:46:33.927Z</time></trkpt><trkpt lat="42.8237436" lon="13.2136061"><ele>1304.0</ele><time>2026-05-01T12:46:34.927Z</time></trkpt><trkpt lat="42.8239144" lon="13.2136181"><ele>1304.0</ele><time>2026-05-01T12:46:35.927Z</time></trkpt><trkpt lat="42.8240861" lon="13.2136347"><ele>1304.0</ele><time>2026-05-01T12:46:36.926Z</time></trkpt><trkpt lat="42.8242606" lon="13.2136523"><ele>1304.0</ele><time>2026-05-01T12:46:37.927Z</time></trkpt><trkpt lat="42.8244351" lon="13.2136748"><ele>1304.6666666666667</ele><time>2026-05-01T12:46:38.927Z</time></trkpt><trkpt lat="42.8246108" lon="13.2136947"><ele>1305.3333333333333</ele><time>2026-05-01T12:46:39.927Z</time></trkpt><trkpt lat="42.8247896" lon="13.213716"><ele>1306.0</ele><time>2026-05-01T12:46:40.926Z</time></trkpt><trkpt lat="42.8249691" lon="13.2137313"><ele>1306.3333333333333</ele><time>2026-05-01T12:46:41.927Z</time></trkpt><trkpt lat="42.8251472" lon="13.2137467"><ele>1306.6666666666667</ele><time>2026-05-01T12:46:42.926Z</time></trkpt><trkpt lat="42.8253257" lon="13.213758"><ele>1307.0</ele><time>2026-05-01T12:46:43.927Z</time></trkpt><trkpt lat="42.8255058" lon="13.2137708"><ele>1307.0</ele><time>2026-05-01T12:46:44.926Z</time></trkpt><trkpt lat="42.8256844" lon="13.2137822"><ele>1307.0</ele><time>2026-05-01T12:46:45.927Z</time></trkpt><trkpt lat="42.8258613" lon="13.2137965"><ele>1307.0</ele><time>2026-05-01T12:46:46.926Z</time></trkpt><trkpt lat="42.8260338" lon="13.2138113"><ele>1310.0</ele><time>2026-05-01T12:46:47.927Z</time></trkpt><trkpt lat="42.826204" lon="13.2138256"><ele>1313.0</ele><time>2026-05-01T12:46:48.927Z</time></trkpt><trkpt lat="42.8263739" lon="13.2138362"><ele>1316.0</ele><time>2026-05-01T12:46:49.927Z</time></trkpt><trkpt lat="42.8265373" lon="13.2138533"><ele>1316.0</ele><time>2026-05-01T12:46:50.926Z</time></trkpt><trkpt lat="42.8266938" lon="13.2138789"><ele>1316.0</ele><time>2026-05-01T12:46:51.926Z</time></trkpt><trkpt lat="42.8268422" lon="13.2139036"><ele>1316.0</ele><time>2026-05-01T12:46:52.926Z</time></trkpt><trkpt lat="42.8269797" lon="13.2139242"><ele>1316.0</ele><time>2026-05-01T12:46:53.927Z</time></trkpt><trkpt lat="42.8271082" lon="13.21395"><ele>1318.0</ele><time>2026-05-01T12:46:54.926Z</time></trkpt><trkpt lat="42.8272286" lon="13.2140003"><ele>1320.0</ele><time>2026-05-01T12:46:55.927Z</time></trkpt><trkpt lat="42.8273399" lon="13.2140904"><ele>1322.0</ele><time>2026-05-01T12:46:56.927Z</time></trkpt><trkpt lat="42.8274382" lon="13.2142223"><ele>1324.0</ele><time>2026-05-01T12:46:57.926Z</time></trkpt><trkpt lat="42.8275242" lon="13.2143816"><ele>1324.0</ele><time>2026-05-01T12:46:58.926Z</time></trkpt><trkpt lat="42.8276068" lon="13.2145489"><ele>1324.0</ele><time>2026-05-01T12:46:59.927Z</time></trkpt><trkpt lat="42.8276808" lon="13.2146986"><ele>1324.0</ele><time>2026-05-01T12:47:00.927Z</time></trkpt><trkpt lat="42.8277539" lon="13.2148323"><ele>1324.0</ele><time>2026-05-01T12:47:01.927Z</time></trkpt><trkpt lat="42.8278432" lon="13.214938"><ele>1325.25</ele><time>2026-05-01T12:47:02.927Z</time></trkpt><trkpt lat="42.8279505" lon="13.2150089"><ele>1326.5</ele><time>2026-05-01T12:47:03.927Z</time></trkpt><trkpt lat="42.8280808" lon="13.2150282"><ele>1327.75</ele><time>2026-05-01T12:47:04.926Z</time></trkpt><trkpt lat="42.8282198" lon="13.2150323"><ele>1329.0</ele><time>2026-05-01T12:47:05.926Z</time></trkpt><trkpt lat="42.8283649" lon="13.2150291"><ele>1330.75</ele><time>2026-05-01T12:47:06.926Z</time></trkpt><trkpt lat="42.8285165" lon="13.2150338"><ele>1332.5</ele><time>2026-05-01T12:47:07.927Z</time></trkpt><trkpt lat="42.8286695" lon="13.2150402"><ele>1334.25</ele><time>2026-05-01T12:47:08.926Z</time></trkpt><trkpt lat="42.8288109" lon="13.2150556"><ele>1336.0</ele><time>2026-05-01T12:47:09.926Z</time></trkpt><trkpt lat="42.8289453" lon="13.2150614"><ele>1336.0</ele><time>2026-05-01T12:47:10.927Z</time></trkpt><trkpt lat="42.8290579" lon="13.2150684"><ele>1336.0</ele><time>2026-05-01T12:47:11.926Z</time></trkpt><trkpt lat="42.8291518" lon="13.2150558"><ele>1336.0</ele><time>2026-05-01T12:47:12.927Z</time></trkpt><trkpt lat="42.8292447" lon="13.2150367"><ele>1336.0</ele><time>2026-05-01T12:47:13.927Z</time></trkpt><trkpt lat="42.8293336" lon="13.2149718"><ele>1336.0</ele><time>2026-05-01T12:47:14.927Z</time></trkpt><trkpt lat="42.8294037" lon="13.2148735"><ele>1336.6</ele><time>2026-05-01T12:47:15.927Z</time></trkpt><trkpt lat="42.8294607" lon="13.214746"><ele>1337.1999999999998</ele><time>2026-05-01T12:47:16.927Z</time></trkpt><trkpt lat="42.829493" lon="13.2146163"><ele>1337.8000000000002</ele><time>2026-05-01T12:47:17.927Z</time></trkpt><trkpt lat="42.8294916" lon="13.2144962"><ele>1338.4</ele><time>2026-05-01T12:47:18.927Z</time></trkpt><trkpt lat="42.8294587" lon="13.2143856"><ele>1339.0</ele><time>2026-05-01T12:47:19.927Z</time></trkpt><trkpt lat="42.8294118" lon="13.2142873"><ele>1339.0</ele><time>2026-05-01T12:47:20.926Z</time></trkpt><trkpt lat="42.829359" lon="13.2141973"><ele>1339.0</ele><time>2026-05-01T12:47:21.927Z</time></trkpt><trkpt lat="42.8292942" lon="13.2141282"><ele>1339.0</ele><time>2026-05-01T12:47:22.926Z</time></trkpt><trkpt lat="42.8292248" lon="13.2140719"><ele>1339.0</ele><time>2026-05-01T12:47:23.926Z</time></trkpt><trkpt lat="42.8291556" lon="13.2140142"><ele>1339.0</ele><time>2026-05-01T12:47:24.926Z</time></trkpt><trkpt lat="42.8290883" lon="13.2139553"><ele>1339.0</ele><time>2026-05-01T12:47:25.927Z</time></trkpt><trkpt lat="42.8290257" lon="13.213903"><ele>1342.6</ele><time>2026-05-01T12:47:26.927Z</time></trkpt><trkpt lat="42.8289694" lon="13.2138567"><ele>1346.2</ele><time>2026-05-01T12:47:27.926Z</time></trkpt><trkpt lat="42.828896" lon="13.2137897"><ele>1349.8</ele><time>2026-05-01T12:47:29.926Z</time></trkpt><trkpt lat="42.8288449" lon="13.2137264"><ele>1353.3999999999999</ele><time>2026-05-01T12:47:31.926Z</time></trkpt><trkpt lat="42.8287693" lon="13.2136538"><ele>1357.0</ele><time>2026-05-01T12:47:33.926Z</time></trkpt><trkpt lat="42.8286618" lon="13.2135299"><ele>1357.0</ele><time>2026-05-01T12:47:35.926Z</time></trkpt><trkpt lat="42.8286113" lon="13.2134434"><ele>1357.0</ele><time>2026-05-01T12:47:36.927Z</time></trkpt><trkpt lat="42.8285721" lon="13.2133546"><ele>1357.0</ele><time>2026-05-01T12:47:37.927Z</time></trkpt><trkpt lat="42.8285422" lon="13.2132659"><ele>1357.0</ele><time>2026-05-01T12:47:38.927Z</time></trkpt><trkpt lat="42.8285153" lon="13.2131714"><ele>1357.0</ele><time>2026-05-01T12:47:39.927Z</time></trkpt><trkpt lat="42.8285014" lon="13.2130758"><ele>1357.0</ele><time>2026-05-01T12:47:40.927Z</time></trkpt><trkpt lat="42.8284866" lon="13.2129868"><ele>1357.0</ele><time>2026-05-01T12:47:41.927Z</time></trkpt><trkpt lat="42.8284777" lon="13.2128918"><ele>1357.1666666666665</ele><time>2026-05-01T12:47:42.927Z</time></trkpt><trkpt lat="42.8284731" lon="13.2127909"><ele>1357.3333333333333</ele><time>2026-05-01T12:47:43.927Z</time></trkpt><trkpt lat="42.8284642" lon="13.2126943"><ele>1357.5</ele><time>2026-05-01T12:47:44.927Z</time></trkpt><trkpt lat="42.8284571" lon="13.2125892"><ele>1357.6666666666667</ele><time>2026-05-01T12:47:45.927Z</time></trkpt><trkpt lat="42.8284424" lon="13.2124808"><ele>1357.8333333333335</ele><time>2026-05-01T12:47:46.926Z</time></trkpt><trkpt lat="42.8284262" lon="13.2123622"><ele>1358.0</ele><time>2026-05-01T12:47:47.926Z</time></trkpt><trkpt lat="42.8284053" lon="13.2122438"><ele>1360.5</ele><time>2026-05-01T12:47:48.927Z</time></trkpt><trkpt lat="42.8283799" lon="13.2121308"><ele>1363.0</ele><time>2026-05-01T12:47:49.926Z</time></trkpt><trkpt lat="42.8283528" lon="13.2120241"><ele>1365.5</ele><time>2026-05-01T12:47:50.927Z</time></trkpt><trkpt lat="42.8283255" lon="13.2119295"><ele>1368.0</ele><time>2026-05-01T12:47:51.927Z</time></trkpt><trkpt lat="42.8282969" lon="13.2118352"><ele>1370.5</ele><time>2026-05-01T12:47:52.927Z</time></trkpt><trkpt lat="42.8282687" lon="13.2117414"><ele>1373.0</ele><time>2026-05-01T12:47:53.927Z</time></trkpt><trkpt lat="42.828238" lon="13.2116507"><ele>1373.0</ele><time>2026-05-01T12:47:54.926Z</time></trkpt><trkpt lat="42.8282069" lon="13.2115668"><ele>1373.0</ele><time>2026-05-01T12:47:55.927Z</time></trkpt><trkpt lat="42.8281727" lon="13.2114843"><ele>1373.0</ele><time>2026-05-01T12:47:56.927Z</time></trkpt><trkpt lat="42.8281411" lon="13.2113968"><ele>1373.0</ele><time>2026-05-01T12:47:57.927Z</time></trkpt><trkpt lat="42.8281064" lon="13.211308"><ele>1373.0</ele><time>2026-05-01T12:47:58.927Z</time></trkpt><trkpt lat="42.8280686" lon="13.2112175"><ele>1373.0</ele><time>2026-05-01T12:47:59.927Z</time></trkpt><trkpt lat="42.8280291" lon="13.2111266"><ele>1373.0</ele><time>2026-05-01T12:48:00.927Z</time></trkpt><trkpt lat="42.8279848" lon="13.2110301"><ele>1375.8333333333335</ele><time>2026-05-01T12:48:01.926Z</time></trkpt><trkpt lat="42.8279419" lon="13.2109289"><ele>1378.6666666666667</ele><time>2026-05-01T12:48:02.927Z</time></trkpt><trkpt lat="42.8278999" lon="13.2108289"><ele>1381.5</ele><time>2026-05-01T12:48:03.926Z</time></trkpt><trkpt lat="42.8278609" lon="13.2107246"><ele>1384.3333333333333</ele><time>2026-05-01T12:48:04.926Z</time></trkpt><trkpt lat="42.8278204" lon="13.2106163"><ele>1387.1666666666665</ele><time>2026-05-01T12:48:05.927Z</time></trkpt><trkpt lat="42.8277792" lon="13.2105082"><ele>1390.0</ele><time>2026-05-01T12:48:06.927Z</time></trkpt><trkpt lat="42.8277432" lon="13.2103979"><ele>1391.0</ele><time>2026-05-01T12:48:07.926Z</time></trkpt><trkpt lat="42.827707" lon="13.2102846"><ele>1392.0</ele><time>2026-05-01T12:48:08.926Z</time></trkpt><trkpt lat="42.8276732" lon="13.2101692"><ele>1393.0</ele><time>2026-05-01T12:48:09.927Z</time></trkpt><trkpt lat="42.8276421" lon="13.2100469"><ele>1394.0</ele><time>2026-05-01T12:48:10.927Z</time></trkpt><trkpt lat="42.8276093" lon="13.2099239"><ele>1395.0</ele><time>2026-05-01T12:48:11.926Z</time></trkpt><trkpt lat="42.8275746" lon="13.2098038"><ele>1395.0</ele><time>2026-05-01T12:48:12.926Z</time></trkpt><trkpt lat="42.8275412" lon="13.2096839"><ele>1395.0</ele><time>2026-05-01T12:48:13.927Z</time></trkpt><trkpt lat="42.8275086" lon="13.2095593"><ele>1395.0</ele><time>2026-05-01T12:48:14.926Z</time></trkpt><trkpt lat="42.8274786" lon="13.2094291"><ele>1395.0</ele><time>2026-05-01T12:48:15.927Z</time></trkpt><trkpt lat="42.8274492" lon="13.2092917"><ele>1395.0</ele><time>2026-05-01T12:48:16.926Z</time></trkpt><trkpt lat="42.8274301" lon="13.209151"><ele>1395.0</ele><time>2026-05-01T12:48:17.927Z</time></trkpt><trkpt lat="42.8274225" lon="13.2090051"><ele>1395.0</ele><time>2026-05-01T12:48:18.927Z</time></trkpt><trkpt lat="42.8274157" lon="13.2088643"><ele>1395.0</ele><time>2026-05-01T12:48:19.927Z</time></trkpt><trkpt lat="42.8274089" lon="13.2087259"><ele>1395.0</ele><time>2026-05-01T12:48:20.927Z</time></trkpt><trkpt lat="42.8274029" lon="13.2085905"><ele>1395.0</ele><time>2026-05-01T12:48:21.926Z</time></trkpt><trkpt lat="42.8273999" lon="13.2084627"><ele>1396.3333333333333</ele><time>2026-05-01T12:48:22.926Z</time></trkpt><trkpt lat="42.8274062" lon="13.2083398"><ele>1397.6666666666667</ele><time>2026-05-01T12:48:23.927Z</time></trkpt><trkpt lat="42.8274126" lon="13.2082174"><ele>1399.0</ele><time>2026-05-01T12:48:24.927Z</time></trkpt><trkpt lat="42.8274197" lon="13.2080978"><ele>1400.3333333333335</ele><time>2026-05-01T12:48:25.927Z</time></trkpt><trkpt lat="42.8274331" lon="13.2079834"><ele>1401.6666666666667</ele><time>2026-05-01T12:48:26.927Z</time></trkpt><trkpt lat="42.8274535" lon="13.2078723"><ele>1403.0</ele><time>2026-05-01T12:48:27.927Z</time></trkpt><trkpt lat="42.8274835" lon="13.2077647"><ele>1403.0</ele><time>2026-05-01T12:48:28.927Z</time></trkpt><trkpt lat="42.8275213" lon="13.2076595"><ele>1403.0</ele><time>2026-05-01T12:48:29.927Z</time></trkpt><trkpt lat="42.8275516" lon="13.2075562"><ele>1403.0</ele><time>2026-05-01T12:48:30.926Z</time></trkpt><trkpt lat="42.8275771" lon="13.2074487"><ele>1403.0</ele><time>2026-05-01T12:48:31.927Z</time></trkpt><trkpt lat="42.8276084" lon="13.2073519"><ele>1403.0</ele><time>2026-05-01T12:48:32.927Z</time></trkpt><trkpt lat="42.8276453" lon="13.2072583"><ele>1403.0</ele><time>2026-05-01T12:48:33.927Z</time></trkpt><trkpt lat="42.8276785" lon="13.2071642"><ele>1406.0</ele><time>2026-05-01T12:48:34.927Z</time></trkpt><trkpt lat="42.8277123" lon="13.2070633"><ele>1409.0</ele><time>2026-05-01T12:48:35.927Z</time></trkpt><trkpt lat="42.8277469" lon="13.2069636"><ele>1412.0</ele><time>2026-05-01T12:48:36.926Z</time></trkpt><trkpt lat="42.8277888" lon="13.2068611"><ele>1415.0</ele><time>2026-05-01T12:48:37.927Z</time></trkpt><trkpt lat="42.8278408" lon="13.2067635"><ele>1418.0</ele><time>2026-05-01T12:48:38.926Z</time></trkpt><trkpt lat="42.8278967" lon="13.2066809"><ele>1421.0</ele><time>2026-05-01T12:48:39.927Z</time></trkpt><trkpt lat="42.8279712" lon="13.2066048"><ele>1421.0</ele><time>2026-05-01T12:48:40.927Z</time></trkpt><trkpt lat="42.82805" lon="13.2065366"><ele>1421.0</ele><time>2026-05-01T12:48:41.926Z</time></trkpt><trkpt lat="42.8281182" lon="13.206486"><ele>1421.0</ele><time>2026-05-01T12:48:42.926Z</time></trkpt><trkpt lat="42.828182" lon="13.2064455"><ele>1421.0</ele><time>2026-05-01T12:48:43.926Z</time></trkpt><trkpt lat="42.8282854" lon="13.2063539"><ele>1421.0</ele><time>2026-05-01T12:48:45.927Z</time></trkpt><trkpt lat="42.8284022" lon="13.206259"><ele>1421.0</ele><time>2026-05-01T12:48:47.927Z</time></trkpt><trkpt lat="42.828455" lon="13.2061976"><ele>1421.0</ele><time>2026-05-01T12:48:48.927Z</time></trkpt><trkpt lat="42.8285099" lon="13.206135"><ele>1421.0</ele><time>2026-05-01T12:48:49.927Z</time></trkpt><trkpt lat="42.8285656" lon="13.2060626"><ele>1421.0</ele><time>2026-05-01T12:48:50.927Z</time></trkpt><trkpt lat="42.8286179" lon="13.2060002"><ele>1421.0</ele><time>2026-05-01T12:48:51.926Z</time></trkpt><trkpt lat="42.8286685" lon="13.2059449"><ele>1421.0</ele><time>2026-05-01T12:48:52.927Z</time></trkpt><trkpt lat="42.8287542" lon="13.2058505"><ele>1421.0</ele><time>2026-05-01T12:48:54.926Z</time></trkpt><trkpt lat="42.8288108" lon="13.2057838"><ele>1421.0</ele><time>2026-05-01T12:48:56.926Z</time></trkpt><trkpt lat="42.8288667" lon="13.2057055"><ele>1421.0</ele><time>2026-05-01T12:48:58.926Z</time></trkpt><trkpt lat="42.8289365" lon="13.2056398"><ele>1421.0</ele><time>2026-05-01T12:49:01.927Z</time></trkpt><trkpt lat="42.8290213" lon="13.2056289"><ele>1421.0</ele><time>2026-05-01T12:49:12.927Z</time></trkpt><trkpt lat="42.8290974" lon="13.2056485"><ele>1421.0</ele><time>2026-05-01T12:49:15.927Z</time></trkpt><trkpt lat="42.8291659" lon="13.2056783"><ele>1421.0</ele><time>2026-05-01T12:49:18.927Z</time></trkpt><trkpt lat="42.8292393" lon="13.2056772"><ele>1421.0</ele><time>2026-05-01T12:49:21.927Z</time></trkpt><trkpt lat="42.8293099" lon="13.2056748"><ele>1421.0</ele><time>2026-05-01T12:49:24.927Z</time></trkpt><trkpt lat="42.8294003" lon="13.2056625"><ele>1421.0</ele><time>2026-05-01T12:49:28.926Z</time></trkpt><trkpt lat="42.8294735" lon="13.2056554"><ele>1421.0</ele><time>2026-05-01T12:49:30.927Z</time></trkpt><trkpt lat="42.8295702" lon="13.2056574"><ele>1421.0</ele><time>2026-05-01T12:49:32.927Z</time></trkpt><trkpt lat="42.8296733" lon="13.2056428"><ele>1422.1999999999998</ele><time>2026-05-01T12:49:34.926Z</time></trkpt><trkpt lat="42.8297778" lon="13.205619"><ele>1423.3999999999999</ele><time>2026-05-01T12:49:36.927Z</time></trkpt><trkpt lat="42.8298887" lon="13.205572"><ele>1424.6</ele><time>2026-05-01T12:49:38.927Z</time></trkpt><trkpt lat="42.8300023" lon="13.2054872"><ele>1425.8</ele><time>2026-05-01T12:49:40.927Z</time></trkpt><trkpt lat="42.8300536" lon="13.2054357"><ele>1427.0</ele><time>2026-05-01T12:49:41.927Z</time></trkpt><trkpt lat="42.8301447" lon="13.2053363"><ele>1420.3999999999999</ele><time>2026-05-01T12:49:43.927Z</time></trkpt><trkpt lat="42.8302302" lon="13.2052303"><ele>1413.8</ele><time>2026-05-01T12:49:45.927Z</time></trkpt><trkpt lat="42.8303224" lon="13.2051008"><ele>1407.2</ele><time>2026-05-01T12:49:47.927Z</time></trkpt><trkpt lat="42.8303781" lon="13.2050284"><ele>1400.6</ele><time>2026-05-01T12:49:48.926Z</time></trkpt><trkpt lat="42.8304369" lon="13.2049558"><ele>1394.0</ele><time>2026-05-01T12:49:49.927Z</time></trkpt><trkpt lat="42.8304981" lon="13.2048823"><ele>1396.8000000000002</ele><time>2026-05-01T12:49:50.926Z</time></trkpt><trkpt lat="42.830563" lon="13.2047984"><ele>1399.6000000000001</ele><time>2026-05-01T12:49:51.927Z</time></trkpt><trkpt lat="42.8306297" lon="13.2047063"><ele>1402.4</ele><time>2026-05-01T12:49:52.927Z</time></trkpt><trkpt lat="42.8307017" lon="13.2046125"><ele>1405.2</ele><time>2026-05-01T12:49:53.926Z</time></trkpt><trkpt lat="42.8307736" lon="13.2045141"><ele>1408.0</ele><time>2026-05-01T12:49:54.926Z</time></trkpt><trkpt lat="42.8308486" lon="13.2044169"><ele>1408.0</ele><time>2026-05-01T12:49:55.926Z</time></trkpt><trkpt lat="42.830926" lon="13.2043155"><ele>1408.0</ele><time>2026-05-01T12:49:56.926Z</time></trkpt><trkpt lat="42.8310071" lon="13.2042141"><ele>1408.0</ele><time>2026-05-01T12:49:57.927Z</time></trkpt><trkpt lat="42.8310905" lon="13.2041031"><ele>1408.0</ele><time>2026-05-01T12:49:58.926Z</time></trkpt><trkpt lat="42.8311792" lon="13.2039811"><ele>1406.75</ele><time>2026-05-01T12:49:59.927Z</time></trkpt><trkpt lat="42.8312755" lon="13.203861"><ele>1405.5</ele><time>2026-05-01T12:50:00.926Z</time></trkpt><trkpt lat="42.8313886" lon="13.2037529"><ele>1404.25</ele><time>2026-05-01T12:50:01.927Z</time></trkpt><trkpt lat="42.831517" lon="13.2036654"><ele>1403.0</ele><time>2026-05-01T12:50:02.926Z</time></trkpt><trkpt lat="42.831655" lon="13.2035929"><ele>1403.0</ele><time>2026-05-01T12:50:03.926Z</time></trkpt><trkpt lat="42.8317903" lon="13.2035283"><ele>1403.0</ele><time>2026-05-01T12:50:04.926Z</time></trkpt><trkpt lat="42.8319308" lon="13.2034575"><ele>1403.0</ele><time>2026-05-01T12:50:05.927Z</time></trkpt><trkpt lat="42.8320702" lon="13.2033765"><ele>1403.0</ele><time>2026-05-01T12:50:06.927Z</time></trkpt><trkpt lat="42.8322091" lon="13.2032809"><ele>1406.0</ele><time>2026-05-01T12:50:07.927Z</time></trkpt><trkpt lat="42.8323522" lon="13.2031846"><ele>1409.0</ele><time>2026-05-01T12:50:08.926Z</time></trkpt><trkpt lat="42.8324981" lon="13.2030922"><ele>1412.0</ele><time>2026-05-01T12:50:09.926Z</time></trkpt><trkpt lat="42.8326506" lon="13.2029872"><ele>1402.3333333333335</ele><time>2026-05-01T12:50:10.927Z</time></trkpt><trkpt lat="42.8328069" lon="13.2028762"><ele>1392.6666666666667</ele><time>2026-05-01T12:50:11.927Z</time></trkpt><trkpt lat="42.8329656" lon="13.2027658"><ele>1383.0</ele><time>2026-05-01T12:50:12.927Z</time></trkpt><trkpt lat="42.8331341" lon="13.2026537"><ele>1383.0</ele><time>2026-05-01T12:50:13.928Z</time></trkpt><trkpt lat="42.8333064" lon="13.2025419"><ele>1383.0</ele><time>2026-05-01T12:50:14.928Z</time></trkpt><trkpt lat="42.8334821" lon="13.2024288"><ele>1383.0</ele><time>2026-05-01T12:50:15.928Z</time></trkpt><trkpt lat="42.8336594" lon="13.2023187"><ele>1383.6666666666667</ele><time>2026-05-01T12:50:16.927Z</time></trkpt><trkpt lat="42.8338368" lon="13.202202"><ele>1384.3333333333335</ele><time>2026-05-01T12:50:17.927Z</time></trkpt><trkpt lat="42.8340151" lon="13.2020858"><ele>1385.0</ele><time>2026-05-01T12:50:18.928Z</time></trkpt><trkpt lat="42.8341974" lon="13.2019695"><ele>1376.6666666666667</ele><time>2026-05-01T12:50:19.928Z</time></trkpt><trkpt lat="42.8343792" lon="13.2018619"><ele>1368.3333333333333</ele><time>2026-05-01T12:50:20.927Z</time></trkpt><trkpt lat="42.8345663" lon="13.2017629"><ele>1360.0</ele><time>2026-05-01T12:50:21.928Z</time></trkpt><trkpt lat="42.8347507" lon="13.2016707"><ele>1360.0</ele><time>2026-05-01T12:50:22.927Z</time></trkpt><trkpt lat="42.8349355" lon="13.2015886"><ele>1360.0</ele><time>2026-05-01T12:50:23.928Z</time></trkpt><trkpt lat="42.8351226" lon="13.2015188"><ele>1360.0</ele><time>2026-05-01T12:50:24.928Z</time></trkpt><trkpt lat="42.8353091" lon="13.2014456"><ele>1360.0</ele><time>2026-05-01T12:50:25.928Z</time></trkpt><trkpt lat="42.8354958" lon="13.2013594"><ele>1360.0</ele><time>2026-05-01T12:50:26.927Z</time></trkpt><trkpt lat="42.8356709" lon="13.2012701"><ele>1360.0</ele><time>2026-05-01T12:50:27.928Z</time></trkpt><trkpt lat="42.8358138" lon="13.2011807"><ele>1360.0</ele><time>2026-05-01T12:50:28.928Z</time></trkpt><trkpt lat="42.8359152" lon="13.2010621"><ele>1360.0</ele><time>2026-05-01T12:50:29.928Z</time></trkpt><trkpt lat="42.8359932" lon="13.2009025"><ele>1360.0</ele><time>2026-05-01T12:50:30.928Z</time></trkpt><trkpt lat="42.8360645" lon="13.2007555"><ele>1360.0</ele><time>2026-05-01T12:50:31.928Z</time></trkpt><trkpt lat="42.8361498" lon="13.2006468"><ele>1360.25</ele><time>2026-05-01T12:50:32.928Z</time></trkpt><trkpt lat="42.836261" lon="13.2006106"><ele>1360.5</ele><time>2026-05-01T12:50:33.927Z</time></trkpt><trkpt lat="42.8363903" lon="13.2005972"><ele>1360.75</ele><time>2026-05-01T12:50:34.928Z</time></trkpt><trkpt lat="42.8365192" lon="13.2006085"><ele>1361.0</ele><time>2026-05-01T12:50:35.928Z</time></trkpt><trkpt lat="42.8366546" lon="13.2006068"><ele>1361.0</ele><time>2026-05-01T12:50:36.927Z</time></trkpt><trkpt lat="42.8367807" lon="13.2005712"><ele>1361.0</ele><time>2026-05-01T12:50:37.928Z</time></trkpt><trkpt lat="42.836915" lon="13.2004922"><ele>1361.0</ele><time>2026-05-01T12:50:38.927Z</time></trkpt><trkpt lat="42.8370358" lon="13.2003716"><ele>1361.0</ele><time>2026-05-01T12:50:39.927Z</time></trkpt><trkpt lat="42.8371371" lon="13.2002245"><ele>1354.3333333333335</ele><time>2026-05-01T12:50:40.928Z</time></trkpt><trkpt lat="42.8372321" lon="13.200044"><ele>1347.6666666666667</ele><time>2026-05-01T12:50:41.927Z</time></trkpt><trkpt lat="42.837321" lon="13.1998544"><ele>1341.0</ele><time>2026-05-01T12:50:42.928Z</time></trkpt><trkpt lat="42.8373911" lon="13.1996585"><ele>1340.75</ele><time>2026-05-01T12:50:43.927Z</time></trkpt><trkpt lat="42.8374451" lon="13.1994568"><ele>1340.5</ele><time>2026-05-01T12:50:44.928Z</time></trkpt><trkpt lat="42.8374969" lon="13.1992653"><ele>1340.25</ele><time>2026-05-01T12:50:45.927Z</time></trkpt><trkpt lat="42.8375585" lon="13.1990915"><ele>1340.0</ele><time>2026-05-01T12:50:46.928Z</time></trkpt><trkpt lat="42.8376407" lon="13.1989356"><ele>1338.3333333333335</ele><time>2026-05-01T12:50:47.927Z</time></trkpt><trkpt lat="42.8377459" lon="13.198789"><ele>1336.6666666666667</ele><time>2026-05-01T12:50:48.928Z</time></trkpt><trkpt lat="42.8378667" lon="13.1986604"><ele>1335.0</ele><time>2026-05-01T12:50:49.927Z</time></trkpt><trkpt lat="42.838002" lon="13.19854"><ele>1335.0</ele><time>2026-05-01T12:50:50.928Z</time></trkpt><trkpt lat="42.8381411" lon="13.1984253"><ele>1335.0</ele><time>2026-05-01T12:50:51.928Z</time></trkpt><trkpt lat="42.8382832" lon="13.198309"><ele>1335.0</ele><time>2026-05-01T12:50:52.928Z</time></trkpt><trkpt lat="42.8384284" lon="13.1981896"><ele>1335.0</ele><time>2026-05-01T12:50:53.928Z</time></trkpt><trkpt lat="42.8385709" lon="13.1980746"><ele>1335.0</ele><time>2026-05-01T12:50:54.928Z</time></trkpt><trkpt lat="42.8387147" lon="13.1979542"><ele>1335.0</ele><time>2026-05-01T12:50:55.927Z</time></trkpt><trkpt lat="42.8388592" lon="13.1978366"><ele>1335.0</ele><time>2026-05-01T12:50:56.928Z</time></trkpt><trkpt lat="42.8390009" lon="13.1977155"><ele>1335.0</ele><time>2026-05-01T12:50:57.928Z</time></trkpt><trkpt lat="42.8391435" lon="13.1975959"><ele>1335.0</ele><time>2026-05-01T12:50:58.927Z</time></trkpt><trkpt lat="42.8392795" lon="13.1974804"><ele>1335.25</ele><time>2026-05-01T12:50:59.928Z</time></trkpt><trkpt lat="42.8394066" lon="13.1973697"><ele>1335.5</ele><time>2026-05-01T12:51:00.928Z</time></trkpt><trkpt lat="42.839533" lon="13.1972632"><ele>1335.75</ele><time>2026-05-01T12:51:01.927Z</time></trkpt><trkpt lat="42.8396548" lon="13.1971613"><ele>1336.0</ele><time>2026-05-01T12:51:02.928Z</time></trkpt><trkpt lat="42.8397808" lon="13.1970524"><ele>1336.0</ele><time>2026-05-01T12:51:03.927Z</time></trkpt><trkpt lat="42.8399091" lon="13.1969409"><ele>1336.0</ele><time>2026-05-01T12:51:04.928Z</time></trkpt><trkpt lat="42.8400447" lon="13.1968212"><ele>1336.0</ele><time>2026-05-01T12:51:05.928Z</time></trkpt><trkpt lat="42.8401856" lon="13.1967003"><ele>1335.3333333333333</ele><time>2026-05-01T12:51:06.928Z</time></trkpt><trkpt lat="42.840327" lon="13.1965769"><ele>1334.6666666666667</ele><time>2026-05-01T12:51:07.928Z</time></trkpt><trkpt lat="42.8404701" lon="13.1964485"><ele>1334.0</ele><time>2026-05-01T12:51:08.928Z</time></trkpt><trkpt lat="42.8406113" lon="13.1963257"><ele>1335.0</ele><time>2026-05-01T12:51:09.928Z</time></trkpt><trkpt lat="42.8407524" lon="13.1962081"><ele>1336.0</ele><time>2026-05-01T12:51:10.928Z</time></trkpt><trkpt lat="42.8408965" lon="13.1961497"><ele>1337.0</ele><time>2026-05-01T12:51:11.928Z</time></trkpt><trkpt lat="42.8410502" lon="13.1961489"><ele>1337.0</ele><time>2026-05-01T12:51:12.928Z</time></trkpt><trkpt lat="42.8412078" lon="13.1961694"><ele>1337.0</ele><time>2026-05-01T12:51:13.928Z</time></trkpt><trkpt lat="42.8413953" lon="13.1961923"><ele>1337.0</ele><time>2026-05-01T12:51:14.928Z</time></trkpt><trkpt lat="42.8415892" lon="13.1962107"><ele>1337.0</ele><time>2026-05-01T12:51:15.928Z</time></trkpt><trkpt lat="42.8417886" lon="13.1962094"><ele>1337.0</ele><time>2026-05-01T12:51:16.928Z</time></trkpt><trkpt lat="42.8419936" lon="13.1962041"><ele>1337.0</ele><time>2026-05-01T12:51:17.927Z</time></trkpt><trkpt lat="42.8422071" lon="13.1961828"><ele>1336.6666666666667</ele><time>2026-05-01T12:51:18.927Z</time></trkpt><trkpt lat="42.8424271" lon="13.1961524"><ele>1336.3333333333333</ele><time>2026-05-01T12:51:19.928Z</time></trkpt><trkpt lat="42.8426527" lon="13.1961201"><ele>1336.0</ele><time>2026-05-01T12:51:20.928Z</time></trkpt><trkpt lat="42.8428803" lon="13.1960874"><ele>1335.5</ele><time>2026-05-01T12:51:21.928Z</time></trkpt><trkpt lat="42.8431101" lon="13.1960463"><ele>1335.0</ele><time>2026-05-01T12:51:22.927Z</time></trkpt><trkpt lat="42.8433379" lon="13.1960036"><ele>1336.5</ele><time>2026-05-01T12:51:23.928Z</time></trkpt><trkpt lat="42.8435681" lon="13.1959606"><ele>1338.0</ele><time>2026-05-01T12:51:24.927Z</time></trkpt><trkpt lat="42.8437989" lon="13.1959268"><ele>1338.0</ele><time>2026-05-01T12:51:25.928Z</time></trkpt><trkpt lat="42.8440285" lon="13.1958913"><ele>1338.0</ele><time>2026-05-01T12:51:26.927Z</time></trkpt><trkpt lat="42.8442524" lon="13.1958517"><ele>1338.3333333333333</ele><time>2026-05-01T12:51:27.927Z</time></trkpt><trkpt lat="42.8444746" lon="13.1958126"><ele>1338.6666666666665</ele><time>2026-05-01T12:51:28.928Z</time></trkpt><trkpt lat="42.8446972" lon="13.1957748"><ele>1339.0</ele><time>2026-05-01T12:51:29.928Z</time></trkpt><trkpt lat="42.8449212" lon="13.1957376"><ele>1339.3333333333333</ele><time>2026-05-01T12:51:30.928Z</time></trkpt><trkpt lat="42.8451464" lon="13.1957055"><ele>1339.6666666666667</ele><time>2026-05-01T12:51:31.927Z</time></trkpt><trkpt lat="42.8453669" lon="13.1956752"><ele>1340.0</ele><time>2026-05-01T12:51:32.927Z</time></trkpt><trkpt lat="42.8455758" lon="13.1956522"><ele>1340.6666666666667</ele><time>2026-05-01T12:51:33.928Z</time></trkpt><trkpt lat="42.8457817" lon="13.1956352"><ele>1341.3333333333333</ele><time>2026-05-01T12:51:34.928Z</time></trkpt><trkpt lat="42.8459659" lon="13.1956154"><ele>1342.0</ele><time>2026-05-01T12:51:35.928Z</time></trkpt><trkpt lat="42.8461377" lon="13.1955988"><ele>1342.0</ele><time>2026-05-01T12:51:36.928Z</time></trkpt><trkpt lat="42.8462854" lon="13.1955541"><ele>1342.0</ele><time>2026-05-01T12:51:37.928Z</time></trkpt><trkpt lat="42.846417" lon="13.1954585"><ele>1342.0</ele><time>2026-05-01T12:51:38.928Z</time></trkpt><trkpt lat="42.8465285" lon="13.1953123"><ele>1342.0</ele><time>2026-05-01T12:51:39.928Z</time></trkpt><trkpt lat="42.846614" lon="13.1951232"><ele>1342.0</ele><time>2026-05-01T12:51:40.928Z</time></trkpt><trkpt lat="42.8466928" lon="13.194919"><ele>1342.0</ele><time>2026-05-01T12:51:41.927Z</time></trkpt><trkpt lat="42.8467915" lon="13.1947341"><ele>1345.0</ele><time>2026-05-01T12:51:42.928Z</time></trkpt><trkpt lat="42.8469304" lon="13.1945774"><ele>1348.0</ele><time>2026-05-01T12:51:43.927Z</time></trkpt><trkpt lat="42.8470983" lon="13.1945002"><ele>1351.0</ele><time>2026-05-01T12:51:44.928Z</time></trkpt><trkpt lat="42.8472949" lon="13.1944377"><ele>1351.0</ele><time>2026-05-01T12:51:45.927Z</time></trkpt><trkpt lat="42.8474896" lon="13.1943712"><ele>1351.0</ele><time>2026-05-01T12:51:46.928Z</time></trkpt><trkpt lat="42.8476726" lon="13.1942427"><ele>1351.0</ele><time>2026-05-01T12:51:47.927Z</time></trkpt><trkpt lat="42.8478639" lon="13.1941123"><ele>1357.6666666666665</ele><time>2026-05-01T12:51:48.928Z</time></trkpt><trkpt lat="42.8480552" lon="13.193979"><ele>1364.3333333333333</ele><time>2026-05-01T12:51:49.928Z</time></trkpt><trkpt lat="42.8482456" lon="13.1938331"><ele>1371.0</ele><time>2026-05-01T12:51:50.927Z</time></trkpt><trkpt lat="42.8484292" lon="13.1936717"><ele>1364.5</ele><time>2026-05-01T12:51:51.928Z</time></trkpt><trkpt lat="42.8486061" lon="13.1934787"><ele>1358.0</ele><time>2026-05-01T12:51:52.927Z</time></trkpt><trkpt lat="42.848776" lon="13.1932725"><ele>1368.0</ele><time>2026-05-01T12:51:53.928Z</time></trkpt><trkpt lat="42.8489475" lon="13.1930749"><ele>1378.0</ele><time>2026-05-01T12:51:54.927Z</time></trkpt><trkpt lat="42.8491217" lon="13.1928786"><ele>1370.5</ele><time>2026-05-01T12:51:55.927Z</time></trkpt><trkpt lat="42.8492961" lon="13.1926759"><ele>1363.0</ele><time>2026-05-01T12:51:56.928Z</time></trkpt><trkpt lat="42.8494787" lon="13.1924636"><ele>1372.0</ele><time>2026-05-01T12:51:57.928Z</time></trkpt><trkpt lat="42.8496568" lon="13.1922252"><ele>1381.0</ele><time>2026-05-01T12:51:58.928Z</time></trkpt><trkpt lat="42.8498366" lon="13.1919529"><ele>1381.0</ele><time>2026-05-01T12:51:59.928Z</time></trkpt><trkpt lat="42.8500117" lon="13.191669"><ele>1381.0</ele><time>2026-05-01T12:52:00.928Z</time></trkpt><trkpt lat="42.850187" lon="13.1913841"><ele>1382.0</ele><time>2026-05-01T12:52:01.928Z</time></trkpt><trkpt lat="42.8503626" lon="13.1911094"><ele>1383.0</ele><time>2026-05-01T12:52:02.928Z</time></trkpt><trkpt lat="42.850529" lon="13.1908438"><ele>1389.0</ele><time>2026-05-01T12:52:03.928Z</time></trkpt><trkpt lat="42.8506815" lon="13.1906023"><ele>1395.0</ele><time>2026-05-01T12:52:04.928Z</time></trkpt><trkpt lat="42.8508282" lon="13.1903877"><ele>1401.0</ele><time>2026-05-01T12:52:05.927Z</time></trkpt><trkpt lat="42.8509892" lon="13.1902222"><ele>1403.3333333333333</ele><time>2026-05-01T12:52:06.928Z</time></trkpt><trkpt lat="42.8511804" lon="13.1900939"><ele>1405.6666666666665</ele><time>2026-05-01T12:52:07.928Z</time></trkpt><trkpt lat="42.8513898" lon="13.190031"><ele>1408.0</ele><time>2026-05-01T12:52:08.928Z</time></trkpt><trkpt lat="42.8516272" lon="13.1900595"><ele>1414.5</ele><time>2026-05-01T12:52:09.928Z</time></trkpt><trkpt lat="42.8518755" lon="13.1901669"><ele>1421.0</ele><time>2026-05-01T12:52:10.928Z</time></trkpt><trkpt lat="42.8521362" lon="13.1902412"><ele>1421.0</ele><time>2026-05-01T12:52:11.927Z</time></trkpt><trkpt lat="42.8524046" lon="13.1903134"><ele>1421.0</ele><time>2026-05-01T12:52:12.928Z</time></trkpt><trkpt lat="42.8526898" lon="13.1903875"><ele>1427.5</ele><time>2026-05-01T12:52:13.927Z</time></trkpt><trkpt lat="42.8529759" lon="13.19046"><ele>1434.0</ele><time>2026-05-01T12:52:14.928Z</time></trkpt><trkpt lat="42.8532548" lon="13.1905276"><ele>1429.5</ele><time>2026-05-01T12:52:15.928Z</time></trkpt><trkpt lat="42.8535307" lon="13.1905954"><ele>1425.0</ele><time>2026-05-01T12:52:16.928Z</time></trkpt><trkpt lat="42.853804" lon="13.1906864"><ele>1425.0</ele><time>2026-05-01T12:52:17.928Z</time></trkpt><trkpt lat="42.8540688" lon="13.1907973"><ele>1425.0</ele><time>2026-05-01T12:52:18.928Z</time></trkpt><trkpt lat="42.8543191" lon="13.1909024"><ele>1434.5</ele><time>2026-05-01T12:52:19.928Z</time></trkpt><trkpt lat="42.8545486" lon="13.1910038"><ele>1444.0</ele><time>2026-05-01T12:52:20.927Z</time></trkpt><trkpt lat="42.8547578" lon="13.1911012"><ele>1444.0</ele><time>2026-05-01T12:52:21.928Z</time></trkpt><trkpt lat="42.8549352" lon="13.1911867"><ele>1444.0</ele><time>2026-05-01T12:52:22.928Z</time></trkpt><trkpt lat="42.8550782" lon="13.1912691"><ele>1444.0</ele><time>2026-05-01T12:52:23.928Z</time></trkpt><trkpt lat="42.855184" lon="13.1913632"><ele>1447.25</ele><time>2026-05-01T12:52:24.928Z</time></trkpt><trkpt lat="42.8552348" lon="13.1915089"><ele>1450.5</ele><time>2026-05-01T12:52:25.927Z</time></trkpt><trkpt lat="42.8552259" lon="13.1917148"><ele>1453.75</ele><time>2026-05-01T12:52:26.928Z</time></trkpt><trkpt lat="42.8552121" lon="13.1919365"><ele>1457.0</ele><time>2026-05-01T12:52:27.927Z</time></trkpt><trkpt lat="42.8552067" lon="13.1921625"><ele>1457.3333333333335</ele><time>2026-05-01T12:52:28.928Z</time></trkpt><trkpt lat="42.8552104" lon="13.1923955"><ele>1457.6666666666667</ele><time>2026-05-01T12:52:29.928Z</time></trkpt><trkpt lat="42.8552368" lon="13.1926352"><ele>1458.0</ele><time>2026-05-01T12:52:30.927Z</time></trkpt><trkpt lat="42.8552815" lon="13.1928598"><ele>1458.0</ele><time>2026-05-01T12:52:31.928Z</time></trkpt><trkpt lat="42.8553319" lon="13.1930751"><ele>1458.0</ele><time>2026-05-01T12:52:32.928Z</time></trkpt><trkpt lat="42.8553872" lon="13.1932907"><ele>1458.0</ele><time>2026-05-01T12:52:33.927Z</time></trkpt><trkpt lat="42.8554334" lon="13.1934976"><ele>1457.4</ele><time>2026-05-01T12:52:34.928Z</time></trkpt><trkpt lat="42.8554806" lon="13.1936867"><ele>1456.8000000000002</ele><time>2026-05-01T12:52:35.928Z</time></trkpt><trkpt lat="42.8555345" lon="13.193812"><ele>1456.2</ele><time>2026-05-01T12:52:36.928Z</time></trkpt><trkpt lat="42.8556098" lon="13.1938412"><ele>1455.6</ele><time>2026-05-01T12:52:37.928Z</time></trkpt><trkpt lat="42.8556951" lon="13.1938085"><ele>1455.0</ele><time>2026-05-01T12:52:38.927Z</time></trkpt><trkpt lat="42.855728" lon="13.1937026"><ele>1455.0</ele><time>2026-05-01T12:52:39.927Z</time></trkpt><trkpt lat="42.8557418" lon="13.1935605"><ele>1455.0</ele><time>2026-05-01T12:52:40.928Z</time></trkpt><trkpt lat="42.8557209" lon="13.1933769"><ele>1455.0</ele><time>2026-05-01T12:52:41.927Z</time></trkpt><trkpt lat="42.8557133" lon="13.193151"><ele>1455.0</ele><time>2026-05-01T12:52:42.927Z</time></trkpt><trkpt lat="42.8557235" lon="13.1929029"><ele>1455.6666666666667</ele><time>2026-05-01T12:52:43.928Z</time></trkpt><trkpt lat="42.8557467" lon="13.1926445"><ele>1456.3333333333335</ele><time>2026-05-01T12:52:44.928Z</time></trkpt><trkpt lat="42.8557795" lon="13.1924109"><ele>1457.0</ele><time>2026-05-01T12:52:45.928Z</time></trkpt><trkpt lat="42.8558036" lon="13.1922232"><ele>1457.0</ele><time>2026-05-01T12:52:46.928Z</time></trkpt><trkpt lat="42.8558121" lon="13.1920625"><ele>1457.0</ele><time>2026-05-01T12:52:47.928Z</time></trkpt><trkpt lat="42.8558072" lon="13.1919166"><ele>1457.0</ele><time>2026-05-01T12:52:48.928Z</time></trkpt><trkpt lat="42.8558155" lon="13.1917784"><ele>1457.0</ele><time>2026-05-01T12:52:49.928Z</time></trkpt><trkpt lat="42.8558427" lon="13.1916664"><ele>1457.0</ele><time>2026-05-01T12:52:50.927Z</time></trkpt><trkpt lat="42.8559038" lon="13.1916065"><ele>1461.6</ele><time>2026-05-01T12:52:51.928Z</time></trkpt><trkpt lat="42.8559783" lon="13.1916212"><ele>1466.1999999999998</ele><time>2026-05-01T12:52:52.928Z</time></trkpt><trkpt lat="42.8560481" lon="13.1917034"><ele>1470.8</ele><time>2026-05-01T12:52:53.928Z</time></trkpt><trkpt lat="42.856089" lon="13.1918498"><ele>1475.4</ele><time>2026-05-01T12:52:54.928Z</time></trkpt><trkpt lat="42.8561029" lon="13.1920517"><ele>1480.0</ele><time>2026-05-01T12:52:55.928Z</time></trkpt><trkpt lat="42.8561268" lon="13.1922658"><ele>1479.3333333333333</ele><time>2026-05-01T12:52:56.927Z</time></trkpt><trkpt lat="42.8561799" lon="13.1924689"><ele>1478.6666666666667</ele><time>2026-05-01T12:52:57.927Z</time></trkpt><trkpt lat="42.8562617" lon="13.1926613"><ele>1478.0</ele><time>2026-05-01T12:52:58.928Z</time></trkpt><trkpt lat="42.8563524" lon="13.1928208"><ele>1478.0</ele><time>2026-05-01T12:52:59.928Z</time></trkpt><trkpt lat="42.8564431" lon="13.192947"><ele>1478.0</ele><time>2026-05-01T12:53:00.928Z</time></trkpt><trkpt lat="42.856527" lon="13.1930386"><ele>1478.0</ele><time>2026-05-01T12:53:01.928Z</time></trkpt><trkpt lat="42.856625" lon="13.1931033"><ele>1478.0</ele><time>2026-05-01T12:53:02.928Z</time></trkpt><trkpt lat="42.8567376" lon="13.1931078"><ele>1480.0</ele><time>2026-05-01T12:53:03.928Z</time></trkpt><trkpt lat="42.856856" lon="13.1930286"><ele>1482.0</ele><time>2026-05-01T12:53:04.927Z</time></trkpt><trkpt lat="42.8569828" lon="13.192922"><ele>1484.0</ele><time>2026-05-01T12:53:05.928Z</time></trkpt><trkpt lat="42.8570928" lon="13.1927677"><ele>1486.0</ele><time>2026-05-01T12:53:06.928Z</time></trkpt><trkpt lat="42.8572167" lon="13.1925891"><ele>1486.0</ele><time>2026-05-01T12:53:07.927Z</time></trkpt><trkpt lat="42.8573436" lon="13.1924081"><ele>1486.0</ele><time>2026-05-01T12:53:08.928Z</time></trkpt><trkpt lat="42.8574809" lon="13.1922162"><ele>1486.0</ele><time>2026-05-01T12:53:09.927Z</time></trkpt><trkpt lat="42.8576257" lon="13.1920039"><ele>1488.6666666666665</ele><time>2026-05-01T12:53:10.928Z</time></trkpt><trkpt lat="42.857771" lon="13.1917889"><ele>1491.3333333333333</ele><time>2026-05-01T12:53:11.928Z</time></trkpt><trkpt lat="42.8579013" lon="13.191586"><ele>1494.0</ele><time>2026-05-01T12:53:12.928Z</time></trkpt><trkpt lat="42.858029" lon="13.1914028"><ele>1494.0</ele><time>2026-05-01T12:53:13.928Z</time></trkpt><trkpt lat="42.8581526" lon="13.1912305"><ele>1494.0</ele><time>2026-05-01T12:53:14.928Z</time></trkpt><trkpt lat="42.858267" lon="13.1910726"><ele>1494.0</ele><time>2026-05-01T12:53:15.928Z</time></trkpt><trkpt lat="42.8583687" lon="13.1909226"><ele>1493.75</ele><time>2026-05-01T12:53:16.928Z</time></trkpt><trkpt lat="42.8584539" lon="13.1907819"><ele>1493.5</ele><time>2026-05-01T12:53:17.928Z</time></trkpt><trkpt lat="42.8585232" lon="13.1906518"><ele>1493.25</ele><time>2026-05-01T12:53:18.928Z</time></trkpt><trkpt lat="42.8585828" lon="13.1905318"><ele>1493.0</ele><time>2026-05-01T12:53:19.928Z</time></trkpt><trkpt lat="42.858641" lon="13.1904106"><ele>1493.0</ele><time>2026-05-01T12:53:20.928Z</time></trkpt><trkpt lat="42.8586912" lon="13.1902827"><ele>1493.0</ele><time>2026-05-01T12:53:21.927Z</time></trkpt><trkpt lat="42.8587394" lon="13.190145"><ele>1493.0</ele><time>2026-05-01T12:53:22.928Z</time></trkpt><trkpt lat="42.8587801" lon="13.1900028"><ele>1493.0</ele><time>2026-05-01T12:53:23.927Z</time></trkpt><trkpt lat="42.8588194" lon="13.1898621"><ele>1493.0</ele><time>2026-05-01T12:53:24.928Z</time></trkpt><trkpt lat="42.8588592" lon="13.1897329"><ele>1492.1666666666667</ele><time>2026-05-01T12:53:25.928Z</time></trkpt><trkpt lat="42.8588975" lon="13.1896137"><ele>1491.3333333333335</ele><time>2026-05-01T12:53:26.928Z</time></trkpt><trkpt lat="42.858936" lon="13.1895015"><ele>1490.5</ele><time>2026-05-01T12:53:27.928Z</time></trkpt><trkpt lat="42.8589759" lon="13.189393"><ele>1489.6666666666667</ele><time>2026-05-01T12:53:28.928Z</time></trkpt><trkpt lat="42.859025" lon="13.1892965"><ele>1488.8333333333333</ele><time>2026-05-01T12:53:29.928Z</time></trkpt><trkpt lat="42.8590859" lon="13.1892388"><ele>1488.0</ele><time>2026-05-01T12:53:30.928Z</time></trkpt><trkpt lat="42.8591603" lon="13.1892447"><ele>1488.0</ele><time>2026-05-01T12:53:31.928Z</time></trkpt><trkpt lat="42.859238" lon="13.1893345"><ele>1488.0</ele><time>2026-05-01T12:53:32.927Z</time></trkpt><trkpt lat="42.859305" lon="13.1895181"><ele>1488.0</ele><time>2026-05-01T12:53:33.928Z</time></trkpt><trkpt lat="42.8593754" lon="13.1897184"><ele>1488.0</ele><time>2026-05-01T12:53:34.927Z</time></trkpt><trkpt lat="42.8594817" lon="13.1899061"><ele>1483.3333333333333</ele><time>2026-05-01T12:53:35.928Z</time></trkpt><trkpt lat="42.859603" lon="13.190059"><ele>1478.6666666666665</ele><time>2026-05-01T12:53:36.928Z</time></trkpt><trkpt lat="42.8597619" lon="13.1901728"><ele>1474.0</ele><time>2026-05-01T12:53:37.928Z</time></trkpt><trkpt lat="42.859908" lon="13.1902657"><ele>1474.0</ele><time>2026-05-01T12:53:38.928Z</time></trkpt><trkpt lat="42.8600411" lon="13.1903553"><ele>1474.0</ele><time>2026-05-01T12:53:39.928Z</time></trkpt><trkpt lat="42.8601622" lon="13.1904351"><ele>1474.0</ele><time>2026-05-01T12:53:40.927Z</time></trkpt><trkpt lat="42.8602705" lon="13.1904904"><ele>1474.0</ele><time>2026-05-01T12:53:41.928Z</time></trkpt><trkpt lat="42.8603704" lon="13.1905298"><ele>1468.4</ele><time>2026-05-01T12:53:42.928Z</time></trkpt><trkpt lat="42.8604741" lon="13.1905247"><ele>1462.8000000000002</ele><time>2026-05-01T12:53:43.928Z</time></trkpt><trkpt lat="42.8605842" lon="13.1905279"><ele>1457.1999999999998</ele><time>2026-05-01T12:53:44.928Z</time></trkpt><trkpt lat="42.8606749" lon="13.1905418"><ele>1451.6</ele><time>2026-05-01T12:53:45.928Z</time></trkpt><trkpt lat="42.8607625" lon="13.1905838"><ele>1446.0</ele><time>2026-05-01T12:53:46.927Z</time></trkpt><trkpt lat="42.8608436" lon="13.190661"><ele>1449.5</ele><time>2026-05-01T12:53:47.927Z</time></trkpt><trkpt lat="42.8609339" lon="13.1907464"><ele>1453.0</ele><time>2026-05-01T12:53:48.928Z</time></trkpt><trkpt lat="42.8610261" lon="13.1908362"><ele>1456.5</ele><time>2026-05-01T12:53:49.927Z</time></trkpt><trkpt lat="42.8611342" lon="13.1909255"><ele>1460.0</ele><time>2026-05-01T12:53:50.928Z</time></trkpt><trkpt lat="42.8612586" lon="13.1909666"><ele>1460.0</ele><time>2026-05-01T12:53:51.928Z</time></trkpt><trkpt lat="42.8613771" lon="13.1909883"><ele>1460.0</ele><time>2026-05-01T12:53:52.927Z</time></trkpt><trkpt lat="42.8614972" lon="13.191016"><ele>1460.0</ele><time>2026-05-01T12:53:53.927Z</time></trkpt><trkpt lat="42.8616156" lon="13.1910521"><ele>1460.0</ele><time>2026-05-01T12:53:54.928Z</time></trkpt><trkpt lat="42.8617208" lon="13.1910971"><ele>1458.2</ele><time>2026-05-01T12:53:55.927Z</time></trkpt><trkpt lat="42.8618142" lon="13.1911493"><ele>1456.4</ele><time>2026-05-01T12:53:56.928Z</time></trkpt><trkpt lat="42.8619125" lon="13.1912041"><ele>1454.6</ele><time>2026-05-01T12:53:57.928Z</time></trkpt><trkpt lat="42.8620209" lon="13.1912172"><ele>1452.8</ele><time>2026-05-01T12:53:58.928Z</time></trkpt><trkpt lat="42.8621415" lon="13.1911867"><ele>1451.0</ele><time>2026-05-01T12:53:59.928Z</time></trkpt><trkpt lat="42.8622792" lon="13.1911313"><ele>1451.0</ele><time>2026-05-01T12:54:00.928Z</time></trkpt><trkpt lat="42.8624315" lon="13.1910575"><ele>1451.0</ele><time>2026-05-01T12:54:01.927Z</time></trkpt><trkpt lat="42.862605" lon="13.1909358"><ele>1451.0</ele><time>2026-05-01T12:54:02.928Z</time></trkpt><trkpt lat="42.8627817" lon="13.1907818"><ele>1440.0</ele><time>2026-05-01T12:54:03.928Z</time></trkpt><trkpt lat="42.8629626" lon="13.1906215"><ele>1429.0</ele><time>2026-05-01T12:54:04.928Z</time></trkpt><trkpt lat="42.8631646" lon="13.1904558"><ele>1429.0</ele><time>2026-05-01T12:54:05.928Z</time></trkpt><trkpt lat="42.8633757" lon="13.1902813"><ele>1429.0</ele><time>2026-05-01T12:54:06.928Z</time></trkpt><trkpt lat="42.8635857" lon="13.1900926"><ele>1423.5</ele><time>2026-05-01T12:54:07.928Z</time></trkpt><trkpt lat="42.8637907" lon="13.1898829"><ele>1418.0</ele><time>2026-05-01T12:54:08.927Z</time></trkpt><trkpt lat="42.8639861" lon="13.1896669"><ele>1418.0</ele><time>2026-05-01T12:54:09.927Z</time></trkpt><trkpt lat="42.8641803" lon="13.1894595"><ele>1418.0</ele><time>2026-05-01T12:54:10.927Z</time></trkpt><trkpt lat="42.8643739" lon="13.1892784"><ele>1412.0</ele><time>2026-05-01T12:54:11.927Z</time></trkpt><trkpt lat="42.8645744" lon="13.1891128"><ele>1406.0</ele><time>2026-05-01T12:54:12.928Z</time></trkpt><trkpt lat="42.8647701" lon="13.1889586"><ele>1406.0</ele><time>2026-05-01T12:54:13.928Z</time></trkpt><trkpt lat="42.8649475" lon="13.1888294"><ele>1406.0</ele><time>2026-05-01T12:54:14.928Z</time></trkpt><trkpt lat="42.8650971" lon="13.1887199"><ele>1406.0</ele><time>2026-05-01T12:54:15.928Z</time></trkpt><trkpt lat="42.8652376" lon="13.1886206"><ele>1408.0</ele><time>2026-05-01T12:54:16.928Z</time></trkpt><trkpt lat="42.8653668" lon="13.188506"><ele>1410.0</ele><time>2026-05-01T12:54:17.928Z</time></trkpt><trkpt lat="42.8654661" lon="13.1883714"><ele>1412.0</ele><time>2026-05-01T12:54:18.928Z</time></trkpt><trkpt lat="42.8655618" lon="13.1882102"><ele>1414.0</ele><time>2026-05-01T12:54:19.928Z</time></trkpt><trkpt lat="42.8656581" lon="13.1880135"><ele>1414.0</ele><time>2026-05-01T12:54:20.928Z</time></trkpt><trkpt lat="42.8657747" lon="13.1878025"><ele>1414.0</ele><time>2026-05-01T12:54:21.927Z</time></trkpt><trkpt lat="42.8659147" lon="13.1875938"><ele>1414.0</ele><time>2026-05-01T12:54:22.927Z</time></trkpt><trkpt lat="42.8660687" lon="13.187382"><ele>1414.0</ele><time>2026-05-01T12:54:23.928Z</time></trkpt><trkpt lat="42.8662237" lon="13.1871716"><ele>1414.0</ele><time>2026-05-01T12:54:24.927Z</time></trkpt><trkpt lat="42.8663814" lon="13.1869531"><ele>1414.0</ele><time>2026-05-01T12:54:25.927Z</time></trkpt><trkpt lat="42.8665419" lon="13.1867569"><ele>1414.0</ele><time>2026-05-01T12:54:26.928Z</time></trkpt><trkpt lat="42.8667025" lon="13.1865722"><ele>1414.0</ele><time>2026-05-01T12:54:27.928Z</time></trkpt><trkpt lat="42.866863" lon="13.1864037"><ele>1414.0</ele><time>2026-05-01T12:54:28.928Z</time></trkpt><trkpt lat="42.8670185" lon="13.1862422"><ele>1410.6666666666665</ele><time>2026-05-01T12:54:29.928Z</time></trkpt><trkpt lat="42.8671646" lon="13.1860898"><ele>1407.3333333333333</ele><time>2026-05-01T12:54:30.927Z</time></trkpt><trkpt lat="42.8672927" lon="13.1859705"><ele>1404.0</ele><time>2026-05-01T12:54:31.927Z</time></trkpt><trkpt lat="42.8674197" lon="13.185871"><ele>1404.0</ele><time>2026-05-01T12:54:32.928Z</time></trkpt><trkpt lat="42.867549" lon="13.1857781"><ele>1404.0</ele><time>2026-05-01T12:54:33.928Z</time></trkpt><trkpt lat="42.8676753" lon="13.1857041"><ele>1404.0</ele><time>2026-05-01T12:54:34.928Z</time></trkpt><trkpt lat="42.8678035" lon="13.1856487"><ele>1404.0</ele><time>2026-05-01T12:54:35.928Z</time></trkpt><trkpt lat="42.8679272" lon="13.1856152"><ele>1394.25</ele><time>2026-05-01T12:54:36.928Z</time></trkpt><trkpt lat="42.8680478" lon="13.1855934"><ele>1384.5</ele><time>2026-05-01T12:54:37.928Z</time></trkpt><trkpt lat="42.8681639" lon="13.185596"><ele>1374.75</ele><time>2026-05-01T12:54:38.928Z</time></trkpt><trkpt lat="42.8682813" lon="13.1855995"><ele>1365.0</ele><time>2026-05-01T12:54:39.927Z</time></trkpt><trkpt lat="42.8683934" lon="13.1856279"><ele>1368.0</ele><time>2026-05-01T12:54:40.928Z</time></trkpt><trkpt lat="42.8685065" lon="13.1856892"><ele>1371.0</ele><time>2026-05-01T12:54:41.928Z</time></trkpt><trkpt lat="42.8686108" lon="13.1857742"><ele>1374.0</ele><time>2026-05-01T12:54:42.927Z</time></trkpt><trkpt lat="42.8686915" lon="13.1858554"><ele>1377.0</ele><time>2026-05-01T12:54:43.928Z</time></trkpt><trkpt lat="42.8687648" lon="13.1859413"><ele>1380.0</ele><time>2026-05-01T12:54:44.928Z</time></trkpt><trkpt lat="42.8688352" lon="13.1860246"><ele>1380.0</ele><time>2026-05-01T12:54:45.928Z</time></trkpt><trkpt lat="42.8689061" lon="13.1861302"><ele>1380.0</ele><time>2026-05-01T12:54:46.927Z</time></trkpt><trkpt lat="42.8689803" lon="13.1862334"><ele>1380.0</ele><time>2026-05-01T12:54:47.928Z</time></trkpt><trkpt lat="42.86907" lon="13.1863603"><ele>1380.0</ele><time>2026-05-01T12:54:48.928Z</time></trkpt><trkpt lat="42.869175" lon="13.1865269"><ele>1376.3333333333333</ele><time>2026-05-01T12:54:49.928Z</time></trkpt><trkpt lat="42.8693026" lon="13.1867068"><ele>1372.6666666666665</ele><time>2026-05-01T12:54:50.928Z</time></trkpt><trkpt lat="42.869435" lon="13.1868981"><ele>1369.0</ele><time>2026-05-01T12:54:51.927Z</time></trkpt><trkpt lat="42.8695572" lon="13.1870624"><ele>1369.0</ele><time>2026-05-01T12:54:52.928Z</time></trkpt><trkpt lat="42.8696762" lon="13.1872096"><ele>1369.0</ele><time>2026-05-01T12:54:53.927Z</time></trkpt><trkpt lat="42.8697914" lon="13.1873391"><ele>1369.0</ele><time>2026-05-01T12:54:54.927Z</time></trkpt><trkpt lat="42.8699032" lon="13.1874576"><ele>1378.0</ele><time>2026-05-01T12:54:55.928Z</time></trkpt><trkpt lat="42.8700301" lon="13.1875741"><ele>1387.0</ele><time>2026-05-01T12:54:56.928Z</time></trkpt><trkpt lat="42.8701706" lon="13.1876664"><ele>1396.0</ele><time>2026-05-01T12:54:57.928Z</time></trkpt><trkpt lat="42.8703064" lon="13.1877369"><ele>1396.0</ele><time>2026-05-01T12:54:58.928Z</time></trkpt><trkpt lat="42.8704309" lon="13.1877731"><ele>1396.0</ele><time>2026-05-01T12:54:59.928Z</time></trkpt><trkpt lat="42.8705454" lon="13.187754"><ele>1396.0</ele><time>2026-05-01T12:55:00.928Z</time></trkpt><trkpt lat="42.8706616" lon="13.1876689"><ele>1396.0</ele><time>2026-05-01T12:55:01.928Z</time></trkpt><trkpt lat="42.8707916" lon="13.1875317"><ele>1396.0</ele><time>2026-05-01T12:55:02.927Z</time></trkpt><trkpt lat="42.870922" lon="13.1873544"><ele>1396.0</ele><time>2026-05-01T12:55:03.927Z</time></trkpt><trkpt lat="42.8710531" lon="13.1871594"><ele>1396.0</ele><time>2026-05-01T12:55:04.927Z</time></trkpt><trkpt lat="42.8711709" lon="13.1869219"><ele>1392.6666666666665</ele><time>2026-05-01T12:55:05.928Z</time></trkpt><trkpt lat="42.8712839" lon="13.1866702"><ele>1389.3333333333333</ele><time>2026-05-01T12:55:06.928Z</time></trkpt><trkpt lat="42.8713965" lon="13.1863962"><ele>1386.0</ele><time>2026-05-01T12:55:07.927Z</time></trkpt><trkpt lat="42.8715053" lon="13.1860941"><ele>1386.0</ele><time>2026-05-01T12:55:08.927Z</time></trkpt><trkpt lat="42.8716048" lon="13.1857837"><ele>1386.0</ele><time>2026-05-01T12:55:09.928Z</time></trkpt><trkpt lat="42.8716889" lon="13.1854798"><ele>1377.0</ele><time>2026-05-01T12:55:10.927Z</time></trkpt><trkpt lat="42.8717632" lon="13.1851809"><ele>1368.0</ele><time>2026-05-01T12:55:11.928Z</time></trkpt><trkpt lat="42.871839" lon="13.184894"><ele>1379.0</ele><time>2026-05-01T12:55:12.928Z</time></trkpt><trkpt lat="42.8719111" lon="13.1846268"><ele>1390.0</ele><time>2026-05-01T12:55:13.928Z</time></trkpt><trkpt lat="42.8719812" lon="13.1843616"><ele>1401.0</ele><time>2026-05-01T12:55:14.928Z</time></trkpt><trkpt lat="42.8720463" lon="13.1841034"><ele>1395.0</ele><time>2026-05-01T12:55:15.928Z</time></trkpt><trkpt lat="42.8720994" lon="13.1838566"><ele>1389.0</ele><time>2026-05-01T12:55:16.927Z</time></trkpt><trkpt lat="42.8721384" lon="13.1836195"><ele>1383.0</ele><time>2026-05-01T12:55:17.927Z</time></trkpt><trkpt lat="42.8721678" lon="13.1834036"><ele>1383.0</ele><time>2026-05-01T12:55:18.928Z</time></trkpt><trkpt lat="42.8721931" lon="13.1832252"><ele>1383.0</ele><time>2026-05-01T12:55:19.928Z</time></trkpt><trkpt lat="42.8722117" lon="13.1830806"><ele>1383.0</ele><time>2026-05-01T12:55:20.928Z</time></trkpt><trkpt lat="42.8722303" lon="13.1829498"><ele>1383.0</ele><time>2026-05-01T12:55:21.928Z</time></trkpt><trkpt lat="42.8722509" lon="13.1828038"><ele>1383.0</ele><time>2026-05-01T12:55:22.927Z</time></trkpt><trkpt lat="42.87231" lon="13.1826205"><ele>1375.6666666666667</ele><time>2026-05-01T12:55:23.928Z</time></trkpt><trkpt lat="42.8723923" lon="13.1824236"><ele>1368.3333333333335</ele><time>2026-05-01T12:55:24.927Z</time></trkpt><trkpt lat="42.8724908" lon="13.1822179"><ele>1361.0</ele><time>2026-05-01T12:55:25.927Z</time></trkpt><trkpt lat="42.8726029" lon="13.1820092"><ele>1363.6666666666667</ele><time>2026-05-01T12:55:26.928Z</time></trkpt><trkpt lat="42.8727207" lon="13.1817899"><ele>1366.3333333333333</ele><time>2026-05-01T12:55:27.927Z</time></trkpt><trkpt lat="42.8728449" lon="13.1815738"><ele>1369.0</ele><time>2026-05-01T12:55:28.927Z</time></trkpt><trkpt lat="42.8729751" lon="13.1813768"><ele>1359.0</ele><time>2026-05-01T12:55:29.928Z</time></trkpt><trkpt lat="42.8731116" lon="13.1812136"><ele>1349.0</ele><time>2026-05-01T12:55:30.928Z</time></trkpt><trkpt lat="42.87324" lon="13.1810647"><ele>1339.0</ele><time>2026-05-01T12:55:31.928Z</time></trkpt><trkpt lat="42.8733604" lon="13.1809208"><ele>1337.0</ele><time>2026-05-01T12:55:32.928Z</time></trkpt><trkpt lat="42.8734787" lon="13.1807746"><ele>1335.0</ele><time>2026-05-01T12:55:33.928Z</time></trkpt><trkpt lat="42.8736135" lon="13.1806348"><ele>1333.0</ele><time>2026-05-01T12:55:34.928Z</time></trkpt><trkpt lat="42.8737607" lon="13.1805085"><ele>1333.0</ele><time>2026-05-01T12:55:35.927Z</time></trkpt><trkpt lat="42.873907" lon="13.1804117"><ele>1333.0</ele><time>2026-05-01T12:55:36.927Z</time></trkpt><trkpt lat="42.8740527" lon="13.1803082"><ele>1333.0</ele><time>2026-05-01T12:55:37.928Z</time></trkpt><trkpt lat="42.8742092" lon="13.1802003"><ele>1330.6666666666665</ele><time>2026-05-01T12:55:38.927Z</time></trkpt><trkpt lat="42.8743792" lon="13.1800803"><ele>1328.3333333333333</ele><time>2026-05-01T12:55:39.928Z</time></trkpt><trkpt lat="42.87456" lon="13.1799602"><ele>1326.0</ele><time>2026-05-01T12:55:40.927Z</time></trkpt><trkpt lat="42.8747507" lon="13.1798439"><ele>1326.0</ele><time>2026-05-01T12:55:41.928Z</time></trkpt><trkpt lat="42.8749414" lon="13.1797309"><ele>1326.0</ele><time>2026-05-01T12:55:42.928Z</time></trkpt><trkpt lat="42.8751361" lon="13.1796336"><ele>1326.0</ele><time>2026-05-01T12:55:43.928Z</time></trkpt><trkpt lat="42.8753304" lon="13.179546"><ele>1329.3333333333333</ele><time>2026-05-01T12:55:44.928Z</time></trkpt><trkpt lat="42.8755066" lon="13.1794798"><ele>1332.6666666666665</ele><time>2026-05-01T12:55:45.928Z</time></trkpt><trkpt lat="42.8756611" lon="13.1794039"><ele>1336.0</ele><time>2026-05-01T12:55:46.928Z</time></trkpt><trkpt lat="42.875821" lon="13.1792938"><ele>1334.3333333333333</ele><time>2026-05-01T12:55:47.927Z</time></trkpt><trkpt lat="42.8759809" lon="13.1791781"><ele>1332.6666666666667</ele><time>2026-05-01T12:55:48.927Z</time></trkpt><trkpt lat="42.8761324" lon="13.1790542"><ele>1331.0</ele><time>2026-05-01T12:55:49.927Z</time></trkpt><trkpt lat="42.8762777" lon="13.1789325"><ele>1330.75</ele><time>2026-05-01T12:55:50.928Z</time></trkpt><trkpt lat="42.8764157" lon="13.1788063"><ele>1330.5</ele><time>2026-05-01T12:55:51.928Z</time></trkpt><trkpt lat="42.8765386" lon="13.1786936"><ele>1330.25</ele><time>2026-05-01T12:55:52.928Z</time></trkpt><trkpt lat="42.8766517" lon="13.178593"><ele>1330.0</ele><time>2026-05-01T12:55:53.928Z</time></trkpt><trkpt lat="42.8767563" lon="13.178497"><ele>1327.6</ele><time>2026-05-01T12:55:54.928Z</time></trkpt><trkpt lat="42.876855" lon="13.1784113"><ele>1325.2</ele><time>2026-05-01T12:55:55.928Z</time></trkpt><trkpt lat="42.8769343" lon="13.1783267"><ele>1322.8000000000002</ele><time>2026-05-01T12:55:56.928Z</time></trkpt><trkpt lat="42.8769956" lon="13.1782273"><ele>1320.4</ele><time>2026-05-01T12:55:57.928Z</time></trkpt><trkpt lat="42.8770278" lon="13.1780954"><ele>1318.0</ele><time>2026-05-01T12:55:58.928Z</time></trkpt><trkpt lat="42.8770257" lon="13.1779588"><ele>1317.2</ele><time>2026-05-01T12:55:59.927Z</time></trkpt><trkpt lat="42.8770045" lon="13.1778099"><ele>1316.4</ele><time>2026-05-01T12:56:00.928Z</time></trkpt><trkpt lat="42.8769769" lon="13.1776632"><ele>1315.6000000000001</ele><time>2026-05-01T12:56:01.928Z</time></trkpt><trkpt lat="42.8769657" lon="13.1775303"><ele>1314.8000000000002</ele><time>2026-05-01T12:56:02.927Z</time></trkpt><trkpt lat="42.8769863" lon="13.1774011"><ele>1314.0</ele><time>2026-05-01T12:56:03.928Z</time></trkpt><trkpt lat="42.877044" lon="13.1772875"><ele>1318.0</ele><time>2026-05-01T12:56:04.928Z</time></trkpt><trkpt lat="42.8771303" lon="13.1771974"><ele>1322.0</ele><time>2026-05-01T12:56:05.928Z</time></trkpt><trkpt lat="42.8772554" lon="13.1771228"><ele>1326.0</ele><time>2026-05-01T12:56:06.928Z</time></trkpt><trkpt lat="42.8774081" lon="13.1770657"><ele>1330.0</ele><time>2026-05-01T12:56:07.928Z</time></trkpt><trkpt lat="42.877588" lon="13.1770171"><ele>1326.0</ele><time>2026-05-01T12:56:08.927Z</time></trkpt><trkpt lat="42.8777819" lon="13.1769971"><ele>1322.0</ele><time>2026-05-01T12:56:09.927Z</time></trkpt><trkpt lat="42.8779858" lon="13.1770103"><ele>1318.0</ele><time>2026-05-01T12:56:10.927Z</time></trkpt><trkpt lat="42.8781804" lon="13.1770027"><ele>1318.0</ele><time>2026-05-01T12:56:11.927Z</time></trkpt><trkpt lat="42.8783628" lon="13.1769898"><ele>1318.0</ele><time>2026-05-01T12:56:12.928Z</time></trkpt><trkpt lat="42.878525" lon="13.1769655"><ele>1318.0</ele><time>2026-05-01T12:56:13.927Z</time></trkpt><trkpt lat="42.878699" lon="13.1769044"><ele>1312.6666666666665</ele><time>2026-05-01T12:56:14.928Z</time></trkpt><trkpt lat="42.8788845" lon="13.1768101"><ele>1307.3333333333333</ele><time>2026-05-01T12:56:15.928Z</time></trkpt><trkpt lat="42.8791011" lon="13.1767261"><ele>1302.0</ele><time>2026-05-01T12:56:16.928Z</time></trkpt><trkpt lat="42.8793393" lon="13.1766389"><ele>1301.0</ele><time>2026-05-01T12:56:17.928Z</time></trkpt><trkpt lat="42.87957" lon="13.1765313"><ele>1300.0</ele><time>2026-05-01T12:56:18.928Z</time></trkpt><trkpt lat="42.8797906" lon="13.1764002"><ele>1300.0</ele><time>2026-05-01T12:56:19.927Z</time></trkpt><trkpt lat="42.8800039" lon="13.1762461"><ele>1300.0</ele><time>2026-05-01T12:56:20.928Z</time></trkpt><trkpt lat="42.8802145" lon="13.1760926"><ele>1296.6666666666665</ele><time>2026-05-01T12:56:21.928Z</time></trkpt><trkpt lat="42.8804154" lon="13.1759469"><ele>1293.3333333333333</ele><time>2026-05-01T12:56:22.927Z</time></trkpt><trkpt lat="42.8805988" lon="13.1758003"><ele>1290.0</ele><time>2026-05-01T12:56:23.928Z</time></trkpt><trkpt lat="42.8807609" lon="13.1756198"><ele>1290.0</ele><time>2026-05-01T12:56:24.927Z</time></trkpt><trkpt lat="42.8809079" lon="13.1753959"><ele>1290.0</ele><time>2026-05-01T12:56:25.928Z</time></trkpt><trkpt lat="42.8810442" lon="13.1751362"><ele>1282.0</ele><time>2026-05-01T12:56:26.927Z</time></trkpt><trkpt lat="42.8811757" lon="13.1748713"><ele>1274.0</ele><time>2026-05-01T12:56:27.927Z</time></trkpt><trkpt lat="42.8813071" lon="13.1746008"><ele>1274.0</ele><time>2026-05-01T12:56:28.928Z</time></trkpt><trkpt lat="42.881425" lon="13.174345"><ele>1274.0</ele><time>2026-05-01T12:56:29.927Z</time></trkpt><trkpt lat="42.8815138" lon="13.1741382"><ele>1274.0</ele><time>2026-05-01T12:56:30.928Z</time></trkpt><trkpt lat="42.8815868" lon="13.1739917"><ele>1276.0</ele><time>2026-05-01T12:56:31.928Z</time></trkpt><trkpt lat="42.8816473" lon="13.1738984"><ele>1278.0</ele><time>2026-05-01T12:56:32.927Z</time></trkpt><trkpt lat="42.8817148" lon="13.1738629"><ele>1280.0</ele><time>2026-05-01T12:56:33.928Z</time></trkpt><trkpt lat="42.8817912" lon="13.1739039"><ele>1282.0</ele><time>2026-05-01T12:56:34.927Z</time></trkpt><trkpt lat="42.8818316" lon="13.1740173"><ele>1284.0</ele><time>2026-05-01T12:56:35.927Z</time></trkpt><trkpt lat="42.8818161" lon="13.1741984"><ele>1280.6666666666667</ele><time>2026-05-01T12:56:36.928Z</time></trkpt><trkpt lat="42.8817505" lon="13.1744251"><ele>1277.3333333333335</ele><time>2026-05-01T12:56:37.927Z</time></trkpt><trkpt lat="42.8816924" lon="13.1746731"><ele>1274.0</ele><time>2026-05-01T12:56:38.927Z</time></trkpt><trkpt lat="42.8816656" lon="13.1749212"><ele>1271.0</ele><time>2026-05-01T12:56:39.928Z</time></trkpt><trkpt lat="42.8816513" lon="13.1751947"><ele>1268.0</ele><time>2026-05-01T12:56:40.928Z</time></trkpt><trkpt lat="42.8816167" lon="13.1754587"><ele>1265.0</ele><time>2026-05-01T12:56:41.928Z</time></trkpt><trkpt lat="42.8815712" lon="13.1756861"><ele>1263.6</ele><time>2026-05-01T12:56:42.928Z</time></trkpt><trkpt lat="42.8815335" lon="13.1758592"><ele>1262.2</ele><time>2026-05-01T12:56:43.928Z</time></trkpt><trkpt lat="42.8815189" lon="13.176015"><ele>1260.8</ele><time>2026-05-01T12:56:44.928Z</time></trkpt><trkpt lat="42.8815517" lon="13.1761395"><ele>1259.4</ele><time>2026-05-01T12:56:45.928Z</time></trkpt><trkpt lat="42.8816321" lon="13.1761958"><ele>1258.0</ele><time>2026-05-01T12:56:46.928Z</time></trkpt><trkpt lat="42.8817356" lon="13.1761702"><ele>1254.75</ele><time>2026-05-01T12:56:47.928Z</time></trkpt><trkpt lat="42.881829" lon="13.1761016"><ele>1251.5</ele><time>2026-05-01T12:56:48.928Z</time></trkpt><trkpt lat="42.8819014" lon="13.1759639"><ele>1248.25</ele><time>2026-05-01T12:56:49.928Z</time></trkpt><trkpt lat="42.8819883" lon="13.175776"><ele>1245.0</ele><time>2026-05-01T12:56:50.928Z</time></trkpt><trkpt lat="42.8821041" lon="13.1755597"><ele>1245.0</ele><time>2026-05-01T12:56:51.928Z</time></trkpt><trkpt lat="42.8822568" lon="13.1753286"><ele>1245.0</ele><time>2026-05-01T12:56:52.928Z</time></trkpt><trkpt lat="42.8824063" lon="13.1751042"><ele>1245.0</ele><time>2026-05-01T12:56:53.927Z</time></trkpt><trkpt lat="42.8825486" lon="13.1748762"><ele>1245.0</ele><time>2026-05-01T12:56:54.927Z</time></trkpt><trkpt lat="42.8826536" lon="13.1746423"><ele>1245.0</ele><time>2026-05-01T12:56:55.927Z</time></trkpt><trkpt lat="42.8827349" lon="13.1743693"><ele>1234.5</ele><time>2026-05-01T12:56:56.928Z</time></trkpt><trkpt lat="42.8827961" lon="13.1740534"><ele>1224.0</ele><time>2026-05-01T12:56:57.927Z</time></trkpt><trkpt lat="42.8828596" lon="13.1737207"><ele>1224.0</ele><time>2026-05-01T12:56:58.928Z</time></trkpt><trkpt lat="42.8829255" lon="13.1733881"><ele>1224.0</ele><time>2026-05-01T12:56:59.927Z</time></trkpt><trkpt lat="42.8829993" lon="13.1730608"><ele>1225.3333333333333</ele><time>2026-05-01T12:57:00.928Z</time></trkpt><trkpt lat="42.8830841" lon="13.1727822"><ele>1226.6666666666665</ele><time>2026-05-01T12:57:01.928Z</time></trkpt><trkpt lat="42.8831472" lon="13.1725579"><ele>1228.0</ele><time>2026-05-01T12:57:02.927Z</time></trkpt><trkpt lat="42.883196" lon="13.1723785"><ele>1227.1666666666665</ele><time>2026-05-01T12:57:03.928Z</time></trkpt><trkpt lat="42.8832314" lon="13.1722419"><ele>1226.3333333333333</ele><time>2026-05-01T12:57:04.928Z</time></trkpt><trkpt lat="42.8832636" lon="13.1721433"><ele>1225.5</ele><time>2026-05-01T12:57:05.927Z</time></trkpt><trkpt lat="42.8833103" lon="13.1720843"><ele>1224.6666666666667</ele><time>2026-05-01T12:57:06.928Z</time></trkpt><trkpt lat="42.883391" lon="13.1720879"><ele>1223.8333333333335</ele><time>2026-05-01T12:57:07.928Z</time></trkpt><trkpt lat="42.8834508" lon="13.1721434"><ele>1223.0</ele><time>2026-05-01T12:57:08.928Z</time></trkpt><trkpt lat="42.8834594" lon="13.1723051"><ele>1224.6666666666667</ele><time>2026-05-01T12:57:09.928Z</time></trkpt><trkpt lat="42.883426" lon="13.1724913"><ele>1226.3333333333333</ele><time>2026-05-01T12:57:10.928Z</time></trkpt><trkpt lat="42.8833828" lon="13.172709"><ele>1228.0</ele><time>2026-05-01T12:57:11.928Z</time></trkpt><trkpt lat="42.883349" lon="13.172958"><ele>1226.6666666666665</ele><time>2026-05-01T12:57:12.927Z</time></trkpt><trkpt lat="42.8833232" lon="13.1732277"><ele>1225.3333333333333</ele><time>2026-05-01T12:57:13.928Z</time></trkpt><trkpt lat="42.883323" lon="13.1735128"><ele>1224.0</ele><time>2026-05-01T12:57:14.928Z</time></trkpt><trkpt lat="42.8833555" lon="13.1737964"><ele>1222.6666666666667</ele><time>2026-05-01T12:57:15.928Z</time></trkpt><trkpt lat="42.8833997" lon="13.1740724"><ele>1221.3333333333335</ele><time>2026-05-01T12:57:16.928Z</time></trkpt><trkpt lat="42.8834469" lon="13.1743188"><ele>1220.0</ele><time>2026-05-01T12:57:17.928Z</time></trkpt><trkpt lat="42.8835115" lon="13.1745415"><ele>1213.3333333333335</ele><time>2026-05-01T12:57:18.928Z</time></trkpt><trkpt lat="42.8836146" lon="13.1747669"><ele>1206.6666666666667</ele><time>2026-05-01T12:57:19.927Z</time></trkpt><trkpt lat="42.8837547" lon="13.1749718"><ele>1200.0</ele><time>2026-05-01T12:57:20.928Z</time></trkpt><trkpt lat="42.8839075" lon="13.175172"><ele>1200.0</ele><time>2026-05-01T12:57:21.928Z</time></trkpt><trkpt lat="42.8840691" lon="13.1753988"><ele>1200.0</ele><time>2026-05-01T12:57:22.927Z</time></trkpt><trkpt lat="42.8842203" lon="13.1756351"><ele>1193.6666666666667</ele><time>2026-05-01T12:57:23.928Z</time></trkpt><trkpt lat="42.8843638" lon="13.175864"><ele>1187.3333333333335</ele><time>2026-05-01T12:57:24.928Z</time></trkpt><trkpt lat="42.8844844" lon="13.1761012"><ele>1181.0</ele><time>2026-05-01T12:57:25.928Z</time></trkpt><trkpt lat="42.8845888" lon="13.1763348"><ele>1183.0</ele><time>2026-05-01T12:57:26.928Z</time></trkpt><trkpt lat="42.8846787" lon="13.176567"><ele>1185.0</ele><time>2026-05-01T12:57:27.928Z</time></trkpt><trkpt lat="42.8847365" lon="13.1767932"><ele>1187.0</ele><time>2026-05-01T12:57:28.928Z</time></trkpt><trkpt lat="42.8848028" lon="13.1770148"><ele>1187.0</ele><time>2026-05-01T12:57:29.928Z</time></trkpt><trkpt lat="42.8848575" lon="13.177234"><ele>1187.0</ele><time>2026-05-01T12:57:30.928Z</time></trkpt><trkpt lat="42.8848822" lon="13.177457"><ele>1187.0</ele><time>2026-05-01T12:57:31.927Z</time></trkpt><trkpt lat="42.8848702" lon="13.177675"><ele>1187.2</ele><time>2026-05-01T12:57:32.928Z</time></trkpt><trkpt lat="42.8848536" lon="13.177859"><ele>1187.4</ele><time>2026-05-01T12:57:33.928Z</time></trkpt><trkpt lat="42.8848447" lon="13.1780042"><ele>1187.6</ele><time>2026-05-01T12:57:34.927Z</time></trkpt><trkpt lat="42.8848653" lon="13.1781358"><ele>1187.8</ele><time>2026-05-01T12:57:35.927Z</time></trkpt><trkpt lat="42.8849297" lon="13.1782246"><ele>1188.0</ele><time>2026-05-01T12:57:36.928Z</time></trkpt><trkpt lat="42.885025" lon="13.1782173"><ele>1180.5</ele><time>2026-05-01T12:57:37.928Z</time></trkpt><trkpt lat="42.8851185" lon="13.1781221"><ele>1173.0</ele><time>2026-05-01T12:57:38.928Z</time></trkpt><trkpt lat="42.8851708" lon="13.1779381"><ele>1165.5</ele><time>2026-05-01T12:57:39.928Z</time></trkpt><trkpt lat="42.8852079" lon="13.1777118"><ele>1158.0</ele><time>2026-05-01T12:57:40.928Z</time></trkpt><trkpt lat="42.8852428" lon="13.1774581"><ele>1157.0</ele><time>2026-05-01T12:57:41.928Z</time></trkpt><trkpt lat="42.8852742" lon="13.1771875"><ele>1156.0</ele><time>2026-05-01T12:57:42.928Z</time></trkpt><trkpt lat="42.8853042" lon="13.1769027"><ele>1155.0</ele><time>2026-05-01T12:57:43.928Z</time></trkpt><trkpt lat="42.8853123" lon="13.1765862"><ele>1154.5</ele><time>2026-05-01T12:57:44.928Z</time></trkpt><trkpt lat="42.8853044" lon="13.1762676"><ele>1154.0</ele><time>2026-05-01T12:57:45.927Z</time></trkpt><trkpt lat="42.8852952" lon="13.1759526"><ele>1151.3333333333335</ele><time>2026-05-01T12:57:46.928Z</time></trkpt><trkpt lat="42.8852771" lon="13.175651"><ele>1148.6666666666667</ele><time>2026-05-01T12:57:47.928Z</time></trkpt><trkpt lat="42.885257" lon="13.1753615"><ele>1146.0</ele><time>2026-05-01T12:57:48.928Z</time></trkpt><trkpt lat="42.8852416" lon="13.1750907"><ele>1147.0</ele><time>2026-05-01T12:57:49.928Z</time></trkpt><trkpt lat="42.8851938" lon="13.174828"><ele>1148.0</ele><time>2026-05-01T12:57:50.927Z</time></trkpt><trkpt lat="42.8850975" lon="13.1745762"><ele>1149.0</ele><time>2026-05-01T12:57:51.928Z</time></trkpt><trkpt lat="42.8849706" lon="13.174343"><ele>1149.0</ele><time>2026-05-01T12:57:52.928Z</time></trkpt><trkpt lat="42.8848349" lon="13.1741494"><ele>1149.0</ele><time>2026-05-01T12:57:53.927Z</time></trkpt><trkpt lat="42.8847049" lon="13.1740165"><ele>1149.0</ele><time>2026-05-01T12:57:54.927Z</time></trkpt><trkpt lat="42.8845774" lon="13.1739039"><ele>1145.75</ele><time>2026-05-01T12:57:55.928Z</time></trkpt><trkpt lat="42.8844747" lon="13.1738084"><ele>1142.5</ele><time>2026-05-01T12:57:56.928Z</time></trkpt><trkpt lat="42.8843989" lon="13.1736866"><ele>1139.25</ele><time>2026-05-01T12:57:57.928Z</time></trkpt><trkpt lat="42.8843901" lon="13.173545"><ele>1136.0</ele><time>2026-05-01T12:57:58.928Z</time></trkpt><trkpt lat="42.8844616" lon="13.1733729"><ele>1136.0</ele><time>2026-05-01T12:57:59.927Z</time></trkpt><trkpt lat="42.8845797" lon="13.1732035"><ele>1136.0</ele><time>2026-05-01T12:58:00.928Z</time></trkpt><trkpt lat="42.8847228" lon="13.1730465"><ele>1136.0</ele><time>2026-05-01T12:58:01.928Z</time></trkpt><trkpt lat="42.8848604" lon="13.1728977"><ele>1138.5</ele><time>2026-05-01T12:58:02.927Z</time></trkpt><trkpt lat="42.8849766" lon="13.1727682"><ele>1141.0</ele><time>2026-05-01T12:58:03.928Z</time></trkpt><trkpt lat="42.8850713" lon="13.1726258"><ele>1143.5</ele><time>2026-05-01T12:58:04.928Z</time></trkpt><trkpt lat="42.8851205" lon="13.1724225"><ele>1146.0</ele><time>2026-05-01T12:58:05.928Z</time></trkpt><trkpt lat="42.8851319" lon="13.1721743"><ele>1128.3333333333333</ele><time>2026-05-01T12:58:06.928Z</time></trkpt><trkpt lat="42.885123" lon="13.1719095"><ele>1110.6666666666665</ele><time>2026-05-01T12:58:07.928Z</time></trkpt><trkpt lat="42.8851103" lon="13.1716323"><ele>1093.0</ele><time>2026-05-01T12:58:08.928Z</time></trkpt><trkpt lat="42.8851186" lon="13.1713461"><ele>1092.0</ele><time>2026-05-01T12:58:09.928Z</time></trkpt><trkpt lat="42.8851675" lon="13.1710889"><ele>1091.0</ele><time>2026-05-01T12:58:10.927Z</time></trkpt><trkpt lat="42.8852261" lon="13.1708439"><ele>1090.0</ele><time>2026-05-01T12:58:11.928Z</time></trkpt><trkpt lat="42.8852569" lon="13.1705847"><ele>1089.0</ele><time>2026-05-01T12:58:12.927Z</time></trkpt><trkpt lat="42.8852507" lon="13.1703222"><ele>1088.0</ele><time>2026-05-01T12:58:13.928Z</time></trkpt><trkpt lat="42.8852269" lon="13.1700532"><ele>1087.0</ele><time>2026-05-01T12:58:14.928Z</time></trkpt><trkpt lat="42.8851761" lon="13.1698083"><ele>1083.3333333333333</ele><time>2026-05-01T12:58:15.927Z</time></trkpt><trkpt lat="42.8851075" lon="13.1696054"><ele>1079.6666666666667</ele><time>2026-05-01T12:58:16.928Z</time></trkpt><trkpt lat="42.8850303" lon="13.169432"><ele>1076.0</ele><time>2026-05-01T12:58:17.928Z</time></trkpt><trkpt lat="42.8849181" lon="13.1693079"><ele>1086.0</ele><time>2026-05-01T12:58:18.928Z</time></trkpt><trkpt lat="42.8847652" lon="13.1692389"><ele>1096.0</ele><time>2026-05-01T12:58:19.928Z</time></trkpt><trkpt lat="42.8845693" lon="13.1692263"><ele>1106.0</ele><time>2026-05-01T12:58:20.928Z</time></trkpt><trkpt lat="42.8843531" lon="13.1692314"><ele>1107.0</ele><time>2026-05-01T12:58:21.928Z</time></trkpt><trkpt lat="42.88412" lon="13.169233"><ele>1108.0</ele><time>2026-05-01T12:58:22.927Z</time></trkpt><trkpt lat="42.8838868" lon="13.1692337"><ele>1108.0</ele><time>2026-05-01T12:58:23.928Z</time></trkpt><trkpt lat="42.8836694" lon="13.1692166"><ele>1108.0</ele><time>2026-05-01T12:58:24.928Z</time></trkpt><trkpt lat="42.8834653" lon="13.1691961"><ele>1108.0</ele><time>2026-05-01T12:58:25.928Z</time></trkpt><trkpt lat="42.8832703" lon="13.1691648"><ele>1108.3333333333333</ele><time>2026-05-01T12:58:26.928Z</time></trkpt><trkpt lat="42.883086" lon="13.1691231"><ele>1108.6666666666667</ele><time>2026-05-01T12:58:27.929Z</time></trkpt><trkpt lat="42.8828934" lon="13.1690733"><ele>1109.0</ele><time>2026-05-01T12:58:28.929Z</time></trkpt><trkpt lat="42.8827061" lon="13.1690315"><ele>1100.5</ele><time>2026-05-01T12:58:29.929Z</time></trkpt><trkpt lat="42.8825351" lon="13.1690088"><ele>1092.0</ele><time>2026-05-01T12:58:30.929Z</time></trkpt><trkpt lat="42.8824107" lon="13.1689858"><ele>1083.5</ele><time>2026-05-01T12:58:31.929Z</time></trkpt><trkpt lat="42.8823107" lon="13.1689626"><ele>1075.0</ele><time>2026-05-01T12:58:32.928Z</time></trkpt><trkpt lat="42.8822317" lon="13.1689165"><ele>1075.0</ele><time>2026-05-01T12:58:33.929Z</time></trkpt><trkpt lat="42.882186" lon="13.1688418"><ele>1075.0</ele><time>2026-05-01T12:58:34.929Z</time></trkpt><trkpt lat="42.882196" lon="13.168754"><ele>1075.0</ele><time>2026-05-01T12:58:35.929Z</time></trkpt><trkpt lat="42.8822608" lon="13.1687218"><ele>1075.0</ele><time>2026-05-01T12:58:36.929Z</time></trkpt><trkpt lat="42.8823993" lon="13.16871"><ele>1075.0</ele><time>2026-05-01T12:58:37.929Z</time></trkpt><trkpt lat="42.8825759" lon="13.16872"><ele>1073.0</ele><time>2026-05-01T12:58:38.929Z</time></trkpt><trkpt lat="42.8827662" lon="13.1687169"><ele>1071.0</ele><time>2026-05-01T12:58:39.929Z</time></trkpt><trkpt lat="42.8829643" lon="13.1687119"><ele>1069.0</ele><time>2026-05-01T12:58:40.928Z</time></trkpt><trkpt lat="42.8831489" lon="13.1687228"><ele>1069.0</ele><time>2026-05-01T12:58:41.929Z</time></trkpt><trkpt lat="42.8833213" lon="13.1687359"><ele>1069.0</ele><time>2026-05-01T12:58:42.929Z</time></trkpt><trkpt lat="42.883465" lon="13.1687508"><ele>1069.0</ele><time>2026-05-01T12:58:43.929Z</time></trkpt><trkpt lat="42.8835858" lon="13.1687573"><ele>1069.0</ele><time>2026-05-01T12:58:44.928Z</time></trkpt><trkpt lat="42.8836708" lon="13.16873"><ele>1069.0</ele><time>2026-05-01T12:58:45.929Z</time></trkpt><trkpt lat="42.8837069" lon="13.1686343"><ele>1069.0</ele><time>2026-05-01T12:58:46.929Z</time></trkpt><trkpt lat="42.8836797" lon="13.168514"><ele>1069.0</ele><time>2026-05-01T12:58:47.929Z</time></trkpt><trkpt lat="42.8835817" lon="13.1684145"><ele>1069.0</ele><time>2026-05-01T12:58:48.928Z</time></trkpt><trkpt lat="42.8834359" lon="13.1683642"><ele>1069.0</ele><time>2026-05-01T12:58:49.929Z</time></trkpt><trkpt lat="42.8832664" lon="13.1683051"><ele>1069.0</ele><time>2026-05-01T12:58:50.929Z</time></trkpt><trkpt lat="42.8830845" lon="13.1682155"><ele>1069.0</ele><time>2026-05-01T12:58:51.929Z</time></trkpt><trkpt lat="42.8828985" lon="13.1680964"><ele>1069.0</ele><time>2026-05-01T12:58:52.929Z</time></trkpt><trkpt lat="42.8827247" lon="13.1679919"><ele>1063.0</ele><time>2026-05-01T12:58:53.928Z</time></trkpt><trkpt lat="42.8825633" lon="13.1679333"><ele>1057.0</ele><time>2026-05-01T12:58:54.928Z</time></trkpt><trkpt lat="42.8824099" lon="13.1679008"><ele>1051.0</ele><time>2026-05-01T12:58:55.929Z</time></trkpt><trkpt lat="42.8823042" lon="13.1678886"><ele>1045.0</ele><time>2026-05-01T12:58:56.929Z</time></trkpt><trkpt lat="42.8822381" lon="13.1678646"><ele>1045.0</ele><time>2026-05-01T12:58:57.928Z</time></trkpt><trkpt lat="42.8822133" lon="13.1677276"><ele>1045.0</ele><time>2026-05-01T12:58:59.928Z</time></trkpt><trkpt lat="42.8822887" lon="13.1676601"><ele>1045.0</ele><time>2026-05-01T12:59:00.928Z</time></trkpt><trkpt lat="42.8824192" lon="13.1676172"><ele>1045.0</ele><time>2026-05-01T12:59:01.928Z</time></trkpt><trkpt lat="42.8825788" lon="13.1675758"><ele>1044.6666666666665</ele><time>2026-05-01T12:59:02.928Z</time></trkpt><trkpt lat="42.882763" lon="13.1675114"><ele>1044.3333333333333</ele><time>2026-05-01T12:59:03.929Z</time></trkpt><trkpt lat="42.882962" lon="13.1674208"><ele>1044.0</ele><time>2026-05-01T12:59:04.928Z</time></trkpt><trkpt lat="42.8831599" lon="13.1673547"><ele>1032.5</ele><time>2026-05-01T12:59:05.929Z</time></trkpt><trkpt lat="42.8833871" lon="13.1673402"><ele>1021.0</ele><time>2026-05-01T12:59:06.928Z</time></trkpt><trkpt lat="42.883635" lon="13.1673466"><ele>1019.5</ele><time>2026-05-01T12:59:07.929Z</time></trkpt><trkpt lat="42.8838814" lon="13.1673474"><ele>1018.0</ele><time>2026-05-01T12:59:08.928Z</time></trkpt><trkpt lat="42.8841256" lon="13.167355"><ele>1014.5</ele><time>2026-05-01T12:59:09.929Z</time></trkpt><trkpt lat="42.8843639" lon="13.1673564"><ele>1011.0</ele><time>2026-05-01T12:59:10.929Z</time></trkpt><trkpt lat="42.8845962" lon="13.1673536"><ele>1011.0</ele><time>2026-05-01T12:59:11.929Z</time></trkpt><trkpt lat="42.8848172" lon="13.1673469"><ele>1011.0</ele><time>2026-05-01T12:59:12.928Z</time></trkpt><trkpt lat="42.8850214" lon="13.1673018"><ele>1011.0</ele><time>2026-05-01T12:59:13.928Z</time></trkpt><trkpt lat="42.8852146" lon="13.1672442"><ele>1010.3333333333333</ele><time>2026-05-01T12:59:14.929Z</time></trkpt><trkpt lat="42.8853978" lon="13.1671764"><ele>1009.6666666666666</ele><time>2026-05-01T12:59:15.929Z</time></trkpt><trkpt lat="42.8855792" lon="13.1670828"><ele>1009.0</ele><time>2026-05-01T12:59:16.929Z</time></trkpt><trkpt lat="42.885735" lon="13.1669763"><ele>1009.0</ele><time>2026-05-01T12:59:17.928Z</time></trkpt><trkpt lat="42.8858735" lon="13.166877"><ele>1009.0</ele><time>2026-05-01T12:59:18.929Z</time></trkpt><trkpt lat="42.8860005" lon="13.1667739"><ele>1009.0</ele><time>2026-05-01T12:59:19.929Z</time></trkpt><trkpt lat="42.8861108" lon="13.1666974"><ele>1009.0</ele><time>2026-05-01T12:59:20.929Z</time></trkpt><trkpt lat="42.8862216" lon="13.1666579"><ele>1008.0</ele><time>2026-05-01T12:59:21.929Z</time></trkpt><trkpt lat="42.8863337" lon="13.1666451"><ele>1007.0000000000001</ele><time>2026-05-01T12:59:22.929Z</time></trkpt><trkpt lat="42.886446" lon="13.1666395"><ele>1006.0000000000001</ele><time>2026-05-01T12:59:23.928Z</time></trkpt><trkpt lat="42.886549" lon="13.1666256"><ele>1005.0</ele><time>2026-05-01T12:59:24.928Z</time></trkpt><trkpt lat="42.886637" lon="13.1665988"><ele>1004.0</ele><time>2026-05-01T12:59:25.929Z</time></trkpt><trkpt lat="42.8867189" lon="13.1665661"><ele>1001.8000000000001</ele><time>2026-05-01T12:59:26.929Z</time></trkpt><trkpt lat="42.8867907" lon="13.1665077"><ele>999.6000000000001</ele><time>2026-05-01T12:59:27.928Z</time></trkpt><trkpt lat="42.886848" lon="13.166415"><ele>997.4</ele><time>2026-05-01T12:59:28.929Z</time></trkpt><trkpt lat="42.886902" lon="13.1662841"><ele>995.2</ele><time>2026-05-01T12:59:29.929Z</time></trkpt><trkpt lat="42.88695" lon="13.1661353"><ele>993.0</ele><time>2026-05-01T12:59:30.929Z</time></trkpt><trkpt lat="42.8869912" lon="13.1659897"><ele>993.0</ele><time>2026-05-01T12:59:31.928Z</time></trkpt><trkpt lat="42.8870303" lon="13.1658512"><ele>993.0</ele><time>2026-05-01T12:59:32.929Z</time></trkpt><trkpt lat="42.8870708" lon="13.1657176"><ele>993.0</ele><time>2026-05-01T12:59:33.928Z</time></trkpt><trkpt lat="42.8870995" lon="13.1655986"><ele>993.0</ele><time>2026-05-01T12:59:34.929Z</time></trkpt><trkpt lat="42.8871127" lon="13.1654927"><ele>993.0</ele><time>2026-05-01T12:59:35.929Z</time></trkpt><trkpt lat="42.8871074" lon="13.1653954"><ele>991.4</ele><time>2026-05-01T12:59:36.929Z</time></trkpt><trkpt lat="42.8870894" lon="13.1652995"><ele>989.8</ele><time>2026-05-01T12:59:37.929Z</time></trkpt><trkpt lat="42.8870246" lon="13.1652325"><ele>988.2</ele><time>2026-05-01T12:59:38.929Z</time></trkpt><trkpt lat="42.8869226" lon="13.1652096"><ele>986.6</ele><time>2026-05-01T12:59:39.929Z</time></trkpt><trkpt lat="42.8867728" lon="13.1652277"><ele>985.0</ele><time>2026-05-01T12:59:40.929Z</time></trkpt><trkpt lat="42.8866211" lon="13.1652502"><ele>984.6666666666666</ele><time>2026-05-01T12:59:41.929Z</time></trkpt><trkpt lat="42.8864425" lon="13.1652495"><ele>984.3333333333333</ele><time>2026-05-01T12:59:42.929Z</time></trkpt><trkpt lat="42.8862475" lon="13.1652362"><ele>984.0</ele><time>2026-05-01T12:59:43.928Z</time></trkpt><trkpt lat="42.8860549" lon="13.165212"><ele>983.5</ele><time>2026-05-01T12:59:44.929Z</time></trkpt><trkpt lat="42.8858974" lon="13.1651831"><ele>983.0</ele><time>2026-05-01T12:59:45.929Z</time></trkpt><trkpt lat="42.8857795" lon="13.1651421"><ele>982.5</ele><time>2026-05-01T12:59:46.928Z</time></trkpt><trkpt lat="42.8856895" lon="13.1650909"><ele>982.0</ele><time>2026-05-01T12:59:47.929Z</time></trkpt><trkpt lat="42.8856352" lon="13.1650048"><ele>982.0</ele><time>2026-05-01T12:59:48.929Z</time></trkpt><trkpt lat="42.8856199" lon="13.1648981"><ele>982.0</ele><time>2026-05-01T12:59:49.929Z</time></trkpt><trkpt lat="42.8856681" lon="13.1647973"><ele>982.0</ele><time>2026-05-01T12:59:50.929Z</time></trkpt><trkpt lat="42.8857567" lon="13.1646942"><ele>982.0</ele><time>2026-05-01T12:59:51.929Z</time></trkpt><trkpt lat="42.8858817" lon="13.1645757"><ele>982.0</ele><time>2026-05-01T12:59:52.929Z</time></trkpt><trkpt lat="42.8860342" lon="13.1644626"><ele>979.3333333333333</ele><time>2026-05-01T12:59:53.929Z</time></trkpt><trkpt lat="42.8862076" lon="13.1643435"><ele>976.6666666666667</ele><time>2026-05-01T12:59:54.928Z</time></trkpt><trkpt lat="42.8863781" lon="13.1642263"><ele>974.0</ele><time>2026-05-01T12:59:55.929Z</time></trkpt><trkpt lat="42.8865107" lon="13.1641356"><ele>974.0</ele><time>2026-05-01T12:59:56.929Z</time></trkpt><trkpt lat="42.8866037" lon="13.1640358"><ele>974.0000000000001</ele><time>2026-05-01T12:59:57.929Z</time></trkpt><trkpt lat="42.8866452" lon="13.1639165"><ele>974.0000000000001</ele><time>2026-05-01T12:59:58.929Z</time></trkpt><trkpt lat="42.8866126" lon="13.1638015"><ele>974.0</ele><time>2026-05-01T12:59:59.929Z</time></trkpt><trkpt lat="42.8865138" lon="13.1637228"><ele>974.0</ele><time>2026-05-01T13:00:00.929Z</time></trkpt><trkpt lat="42.8863717" lon="13.1636581"><ele>967.6666666666667</ele><time>2026-05-01T13:00:01.929Z</time></trkpt><trkpt lat="42.8862209" lon="13.1635712"><ele>961.3333333333333</ele><time>2026-05-01T13:00:02.929Z</time></trkpt><trkpt lat="42.886069" lon="13.1634437"><ele>955.0</ele><time>2026-05-01T13:00:03.929Z</time></trkpt><trkpt lat="42.8859366" lon="13.1633059"><ele>954.6666666666666</ele><time>2026-05-01T13:00:04.928Z</time></trkpt><trkpt lat="42.8857882" lon="13.1632089"><ele>954.3333333333333</ele><time>2026-05-01T13:00:05.928Z</time></trkpt><trkpt lat="42.8856096" lon="13.1631692"><ele>954.0</ele><time>2026-05-01T13:00:06.929Z</time></trkpt><trkpt lat="42.8853813" lon="13.163178"><ele>952.0</ele><time>2026-05-01T13:00:07.929Z</time></trkpt><trkpt lat="42.8851475" lon="13.1631899"><ele>950.0</ele><time>2026-05-01T13:00:08.929Z</time></trkpt><trkpt lat="42.8849393" lon="13.163205"><ele>948.0</ele><time>2026-05-01T13:00:09.929Z</time></trkpt><trkpt lat="42.8847583" lon="13.1632025"><ele>944.25</ele><time>2026-05-01T13:00:10.929Z</time></trkpt><trkpt lat="42.884608" lon="13.1631801"><ele>940.5</ele><time>2026-05-01T13:00:11.929Z</time></trkpt><trkpt lat="42.8844951" lon="13.1631329"><ele>936.75</ele><time>2026-05-01T13:00:12.929Z</time></trkpt><trkpt lat="42.8844213" lon="13.1630235"><ele>933.0</ele><time>2026-05-01T13:00:13.929Z</time></trkpt><trkpt lat="42.8844019" lon="13.1628641"><ele>933.0</ele><time>2026-05-01T13:00:14.929Z</time></trkpt><trkpt lat="42.8844697" lon="13.1626755"><ele>933.0</ele><time>2026-05-01T13:00:15.928Z</time></trkpt><trkpt lat="42.8845975" lon="13.1624988"><ele>933.0</ele><time>2026-05-01T13:00:16.929Z</time></trkpt><trkpt lat="42.8847432" lon="13.1623663"><ele>926.6666666666667</ele><time>2026-05-01T13:00:17.929Z</time></trkpt><trkpt lat="42.884897" lon="13.1622694"><ele>920.3333333333334</ele><time>2026-05-01T13:00:18.928Z</time></trkpt><trkpt lat="42.8850503" lon="13.1621906"><ele>914.0</ele><time>2026-05-01T13:00:19.929Z</time></trkpt><trkpt lat="42.8852218" lon="13.1621314"><ele>912.6666666666667</ele><time>2026-05-01T13:00:20.929Z</time></trkpt><trkpt lat="42.8853942" lon="13.1620959"><ele>911.3333333333333</ele><time>2026-05-01T13:00:21.929Z</time></trkpt><trkpt lat="42.8855553" lon="13.1620829"><ele>910.0</ele><time>2026-05-01T13:00:22.929Z</time></trkpt><trkpt lat="42.8856924" lon="13.1620852"><ele>910.0</ele><time>2026-05-01T13:00:23.929Z</time></trkpt><trkpt lat="42.8858088" lon="13.1620749"><ele>910.0</ele><time>2026-05-01T13:00:24.929Z</time></trkpt><trkpt lat="42.8859156" lon="13.1620491"><ele>910.0</ele><time>2026-05-01T13:00:25.929Z</time></trkpt><trkpt lat="42.8860191" lon="13.1620004"><ele>910.0</ele><time>2026-05-01T13:00:26.928Z</time></trkpt><trkpt lat="42.88612" lon="13.1619499"><ele>910.0</ele><time>2026-05-01T13:00:27.928Z</time></trkpt><trkpt lat="42.8862177" lon="13.1618675"><ele>907.3333333333333</ele><time>2026-05-01T13:00:28.928Z</time></trkpt><trkpt lat="42.8863072" lon="13.1617267"><ele>904.6666666666667</ele><time>2026-05-01T13:00:29.929Z</time></trkpt><trkpt lat="42.8864106" lon="13.1615104"><ele>902.0</ele><time>2026-05-01T13:00:30.929Z</time></trkpt><trkpt lat="42.8865183" lon="13.1612532"><ele>902.0</ele><time>2026-05-01T13:00:31.929Z</time></trkpt><trkpt lat="42.8866501" lon="13.1609869"><ele>902.0</ele><time>2026-05-01T13:00:32.929Z</time></trkpt><trkpt lat="42.8867922" lon="13.1607039"><ele>902.0</ele><time>2026-05-01T13:00:33.929Z</time></trkpt><trkpt lat="42.8869434" lon="13.1604128"><ele>902.0</ele><time>2026-05-01T13:00:34.928Z</time></trkpt><trkpt lat="42.8870945" lon="13.1601234"><ele>893.5</ele><time>2026-05-01T13:00:35.929Z</time></trkpt><trkpt lat="42.8872313" lon="13.1598529"><ele>885.0</ele><time>2026-05-01T13:00:36.929Z</time></trkpt><trkpt lat="42.8873641" lon="13.1595999"><ele>885.0</ele><time>2026-05-01T13:00:37.929Z</time></trkpt><trkpt lat="42.8875137" lon="13.1593592"><ele>885.0</ele><time>2026-05-01T13:00:38.929Z</time></trkpt><trkpt lat="42.8876682" lon="13.1591269"><ele>880.5</ele><time>2026-05-01T13:00:39.929Z</time></trkpt><trkpt lat="42.887829" lon="13.1588963"><ele>876.0</ele><time>2026-05-01T13:00:40.928Z</time></trkpt><trkpt lat="42.8879918" lon="13.1586843"><ele>876.0</ele><time>2026-05-01T13:00:41.929Z</time></trkpt><trkpt lat="42.8881489" lon="13.158486"><ele>876.0</ele><time>2026-05-01T13:00:42.929Z</time></trkpt><trkpt lat="42.8883092" lon="13.1582982"><ele>876.0</ele><time>2026-05-01T13:00:43.929Z</time></trkpt><trkpt lat="42.8884833" lon="13.1581384"><ele>869.6666666666667</ele><time>2026-05-01T13:00:44.928Z</time></trkpt><trkpt lat="42.8886653" lon="13.1579949"><ele>863.3333333333334</ele><time>2026-05-01T13:00:45.929Z</time></trkpt><trkpt lat="42.8888668" lon="13.1578609"><ele>857.0</ele><time>2026-05-01T13:00:46.929Z</time></trkpt><trkpt lat="42.8890664" lon="13.1577362"><ele>857.0</ele><time>2026-05-01T13:00:47.929Z</time></trkpt><trkpt lat="42.8892543" lon="13.1576346"><ele>857.0</ele><time>2026-05-01T13:00:48.928Z</time></trkpt><trkpt lat="42.8894207" lon="13.1575655"><ele>857.0</ele><time>2026-05-01T13:00:49.928Z</time></trkpt><trkpt lat="42.8895616" lon="13.1575088"><ele>857.2</ele><time>2026-05-01T13:00:50.929Z</time></trkpt><trkpt lat="42.889688" lon="13.1575037"><ele>857.4000000000001</ele><time>2026-05-01T13:00:51.929Z</time></trkpt><trkpt lat="42.8898062" lon="13.1575228"><ele>857.5999999999999</ele><time>2026-05-01T13:00:52.929Z</time></trkpt><trkpt lat="42.8898931" lon="13.1575244"><ele>857.8</ele><time>2026-05-01T13:00:53.928Z</time></trkpt><trkpt lat="42.8899234" lon="13.1574462"><ele>858.0</ele><time>2026-05-01T13:00:54.929Z</time></trkpt><trkpt lat="42.8899092" lon="13.1573256"><ele>852.25</ele><time>2026-05-01T13:00:55.928Z</time></trkpt><trkpt lat="42.8898364" lon="13.1572271"><ele>846.5</ele><time>2026-05-01T13:00:56.929Z</time></trkpt><trkpt lat="42.8897122" lon="13.1571836"><ele>840.75</ele><time>2026-05-01T13:00:57.928Z</time></trkpt><trkpt lat="42.8895536" lon="13.157179"><ele>835.0</ele><time>2026-05-01T13:00:58.929Z</time></trkpt><trkpt lat="42.8893603" lon="13.1571409"><ele>835.3333333333333</ele><time>2026-05-01T13:00:59.929Z</time></trkpt><trkpt lat="42.8891478" lon="13.1571103"><ele>835.6666666666667</ele><time>2026-05-01T13:01:00.928Z</time></trkpt><trkpt lat="42.8889334" lon="13.157083"><ele>836.0</ele><time>2026-05-01T13:01:01.928Z</time></trkpt><trkpt lat="42.8887329" lon="13.1570479"><ele>836.0</ele><time>2026-05-01T13:01:02.928Z</time></trkpt><trkpt lat="42.8885672" lon="13.1570127"><ele>836.0</ele><time>2026-05-01T13:01:03.929Z</time></trkpt><trkpt lat="42.8884349" lon="13.1569865"><ele>836.0</ele><time>2026-05-01T13:01:04.929Z</time></trkpt><trkpt lat="42.8883391" lon="13.156957"><ele>836.0</ele><time>2026-05-01T13:01:05.929Z</time></trkpt><trkpt lat="42.8882638" lon="13.1569042"><ele>836.0</ele><time>2026-05-01T13:01:06.929Z</time></trkpt><trkpt lat="42.8882924" lon="13.1567489"><ele>836.0</ele><time>2026-05-01T13:01:08.929Z</time></trkpt><trkpt lat="42.8883708" lon="13.1566826"><ele>836.0</ele><time>2026-05-01T13:01:09.928Z</time></trkpt><trkpt lat="42.8885136" lon="13.1566585"><ele>836.0</ele><time>2026-05-01T13:01:10.928Z</time></trkpt><trkpt lat="42.8886907" lon="13.1566346"><ele>836.0</ele><time>2026-05-01T13:01:11.929Z</time></trkpt><trkpt lat="42.8888983" lon="13.1566045"><ele>836.0</ele><time>2026-05-01T13:01:12.929Z</time></trkpt><trkpt lat="42.8891077" lon="13.1565598"><ele>836.0</ele><time>2026-05-01T13:01:13.928Z</time></trkpt><trkpt lat="42.8893145" lon="13.1565268"><ele>831.1999999999999</ele><time>2026-05-01T13:01:14.929Z</time></trkpt><trkpt lat="42.8894637" lon="13.1565146"><ele>826.4</ele><time>2026-05-01T13:01:15.929Z</time></trkpt><trkpt lat="42.8895763" lon="13.1564909"><ele>821.6</ele><time>2026-05-01T13:01:16.929Z</time></trkpt><trkpt lat="42.8896483" lon="13.1564363"><ele>816.8</ele><time>2026-05-01T13:01:17.929Z</time></trkpt><trkpt lat="42.8896602" lon="13.156334"><ele>812.0</ele><time>2026-05-01T13:01:18.928Z</time></trkpt><trkpt lat="42.8895983" lon="13.1562294"><ele>812.0</ele><time>2026-05-01T13:01:19.929Z</time></trkpt><trkpt lat="42.8894626" lon="13.1561734"><ele>812.0</ele><time>2026-05-01T13:01:20.928Z</time></trkpt><trkpt lat="42.8892983" lon="13.1561564"><ele>812.0</ele><time>2026-05-01T13:01:21.928Z</time></trkpt><trkpt lat="42.8890931" lon="13.1561386"><ele>812.6666666666667</ele><time>2026-05-01T13:01:22.929Z</time></trkpt><trkpt lat="42.8888732" lon="13.1560926"><ele>813.3333333333333</ele><time>2026-05-01T13:01:23.929Z</time></trkpt><trkpt lat="42.8886611" lon="13.1560396"><ele>814.0</ele><time>2026-05-01T13:01:24.929Z</time></trkpt><trkpt lat="42.8884581" lon="13.1559874"><ele>814.75</ele><time>2026-05-01T13:01:25.929Z</time></trkpt><trkpt lat="42.8882858" lon="13.1559409"><ele>815.5</ele><time>2026-05-01T13:01:26.929Z</time></trkpt><trkpt lat="42.8881398" lon="13.1559051"><ele>816.25</ele><time>2026-05-01T13:01:27.929Z</time></trkpt><trkpt lat="42.8880487" lon="13.1558766"><ele>817.0</ele><time>2026-05-01T13:01:28.928Z</time></trkpt><trkpt lat="42.8879791" lon="13.1558266"><ele>811.5</ele><time>2026-05-01T13:01:29.928Z</time></trkpt><trkpt lat="42.8879979" lon="13.15568"><ele>806.0</ele><time>2026-05-01T13:01:31.929Z</time></trkpt><trkpt lat="42.8880935" lon="13.1556254"><ele>800.5</ele><time>2026-05-01T13:01:32.929Z</time></trkpt><trkpt lat="42.8882721" lon="13.1556126"><ele>795.0</ele><time>2026-05-01T13:01:33.929Z</time></trkpt><trkpt lat="42.8884855" lon="13.1555918"><ele>795.0</ele><time>2026-05-01T13:01:34.929Z</time></trkpt><trkpt lat="42.8887049" lon="13.1555404"><ele>795.0</ele><time>2026-05-01T13:01:35.929Z</time></trkpt><trkpt lat="42.8889369" lon="13.15548"><ele>795.0</ele><time>2026-05-01T13:01:36.929Z</time></trkpt><trkpt lat="42.8891803" lon="13.1554114"><ele>795.0</ele><time>2026-05-01T13:01:37.929Z</time></trkpt><trkpt lat="42.8894166" lon="13.1553488"><ele>791.0</ele><time>2026-05-01T13:01:38.929Z</time></trkpt><trkpt lat="42.8896473" lon="13.1553016"><ele>787.0</ele><time>2026-05-01T13:01:39.929Z</time></trkpt><trkpt lat="42.8898681" lon="13.1552775"><ele>787.0</ele><time>2026-05-01T13:01:40.929Z</time></trkpt><trkpt lat="42.8900799" lon="13.1553035"><ele>787.0</ele><time>2026-05-01T13:01:41.928Z</time></trkpt><trkpt lat="42.8902973" lon="13.1553465"><ele>787.0</ele><time>2026-05-01T13:01:42.929Z</time></trkpt><trkpt lat="42.8905203" lon="13.1553861"><ele>781.6666666666666</ele><time>2026-05-01T13:01:43.929Z</time></trkpt><trkpt lat="42.8907326" lon="13.1554366"><ele>776.3333333333333</ele><time>2026-05-01T13:01:44.929Z</time></trkpt><trkpt lat="42.890916" lon="13.1554768"><ele>771.0</ele><time>2026-05-01T13:01:45.928Z</time></trkpt><trkpt lat="42.8910854" lon="13.1555173"><ele>768.0</ele><time>2026-05-01T13:01:46.928Z</time></trkpt><trkpt lat="42.8912375" lon="13.1555684"><ele>765.0</ele><time>2026-05-01T13:01:47.929Z</time></trkpt><trkpt lat="42.891386" lon="13.1555889"><ele>762.0</ele><time>2026-05-01T13:01:48.929Z</time></trkpt><trkpt lat="42.8915375" lon="13.1555916"><ele>762.0</ele><time>2026-05-01T13:01:49.929Z</time></trkpt><trkpt lat="42.8917051" lon="13.1555669"><ele>762.0</ele><time>2026-05-01T13:01:50.928Z</time></trkpt><trkpt lat="42.8918807" lon="13.1555137"><ele>762.0</ele><time>2026-05-01T13:01:51.929Z</time></trkpt><trkpt lat="42.8920503" lon="13.1554529"><ele>761.5</ele><time>2026-05-01T13:01:52.929Z</time></trkpt><trkpt lat="42.892196" lon="13.1554048"><ele>761.0</ele><time>2026-05-01T13:01:53.929Z</time></trkpt><trkpt lat="42.8923286" lon="13.1553824"><ele>760.5</ele><time>2026-05-01T13:01:54.929Z</time></trkpt><trkpt lat="42.8924508" lon="13.155355"><ele>760.0</ele><time>2026-05-01T13:01:55.929Z</time></trkpt><trkpt lat="42.8925614" lon="13.1553688"><ele>758.2</ele><time>2026-05-01T13:01:56.929Z</time></trkpt><trkpt lat="42.8926557" lon="13.1553987"><ele>756.4</ele><time>2026-05-01T13:01:57.929Z</time></trkpt><trkpt lat="42.8927471" lon="13.1553974"><ele>754.5999999999999</ele><time>2026-05-01T13:01:58.929Z</time></trkpt><trkpt lat="42.892836" lon="13.1553462"><ele>752.8</ele><time>2026-05-01T13:01:59.928Z</time></trkpt><trkpt lat="42.8929025" lon="13.1552561"><ele>751.0</ele><time>2026-05-01T13:02:00.928Z</time></trkpt><trkpt lat="42.8929096" lon="13.1551324"><ele>751.0</ele><time>2026-05-01T13:02:01.928Z</time></trkpt><trkpt lat="42.8928527" lon="13.1550073"><ele>751.0</ele><time>2026-05-01T13:02:02.929Z</time></trkpt><trkpt lat="42.8927561" lon="13.1549033"><ele>751.0</ele><time>2026-05-01T13:02:03.928Z</time></trkpt><trkpt lat="42.8926128" lon="13.154857"><ele>751.0</ele><time>2026-05-01T13:02:04.929Z</time></trkpt><trkpt lat="42.8924531" lon="13.1548607"><ele>754.0</ele><time>2026-05-01T13:02:05.929Z</time></trkpt><trkpt lat="42.8922781" lon="13.1548986"><ele>757.0</ele><time>2026-05-01T13:02:06.929Z</time></trkpt><trkpt lat="42.8920923" lon="13.1549183"><ele>760.0</ele><time>2026-05-01T13:02:07.929Z</time></trkpt><trkpt lat="42.8919118" lon="13.1549457"><ele>760.5</ele><time>2026-05-01T13:02:08.929Z</time></trkpt><trkpt lat="42.8917496" lon="13.154957"><ele>761.0</ele><time>2026-05-01T13:02:09.929Z</time></trkpt><trkpt lat="42.8916204" lon="13.1549557"><ele>761.5</ele><time>2026-05-01T13:02:10.929Z</time></trkpt><trkpt lat="42.891511" lon="13.1549169"><ele>762.0</ele><time>2026-05-01T13:02:11.929Z</time></trkpt><trkpt lat="42.8914025" lon="13.1548048"><ele>756.0</ele><time>2026-05-01T13:02:12.928Z</time></trkpt><trkpt lat="42.8912925" lon="13.1546323"><ele>750.0</ele><time>2026-05-01T13:02:13.928Z</time></trkpt><trkpt lat="42.8911655" lon="13.1544534"><ele>744.0</ele><time>2026-05-01T13:02:14.929Z</time></trkpt><trkpt lat="42.8910303" lon="13.1542907"><ele>741.6666666666666</ele><time>2026-05-01T13:02:15.929Z</time></trkpt><trkpt lat="42.890866" lon="13.1541575"><ele>739.3333333333333</ele><time>2026-05-01T13:02:16.928Z</time></trkpt><trkpt lat="42.8906993" lon="13.1540314"><ele>737.0</ele><time>2026-05-01T13:02:17.929Z</time></trkpt><trkpt lat="42.8905518" lon="13.1539084"><ele>737.0</ele><time>2026-05-01T13:02:18.929Z</time></trkpt><trkpt lat="42.890423" lon="13.1537693"><ele>737.0</ele><time>2026-05-01T13:02:19.929Z</time></trkpt><trkpt lat="42.8903169" lon="13.1536273"><ele>737.0</ele><time>2026-05-01T13:02:20.928Z</time></trkpt><trkpt lat="42.8902158" lon="13.1534643"><ele>737.0</ele><time>2026-05-01T13:02:21.929Z</time></trkpt><trkpt lat="42.8901166" lon="13.1533061"><ele>737.0</ele><time>2026-05-01T13:02:22.929Z</time></trkpt><trkpt lat="42.8900158" lon="13.1531606"><ele>737.0</ele><time>2026-05-01T13:02:23.929Z</time></trkpt><trkpt lat="42.8899123" lon="13.1530514"><ele>737.0</ele><time>2026-05-01T13:02:24.928Z</time></trkpt><trkpt lat="42.8897749" lon="13.1529888"><ele>738.2</ele><time>2026-05-01T13:02:25.928Z</time></trkpt><trkpt lat="42.8896373" lon="13.1529708"><ele>739.4000000000001</ele><time>2026-05-01T13:02:26.929Z</time></trkpt><trkpt lat="42.8895164" lon="13.1529555"><ele>740.5999999999999</ele><time>2026-05-01T13:02:27.929Z</time></trkpt><trkpt lat="42.8894451" lon="13.1528941"><ele>741.8</ele><time>2026-05-01T13:02:28.929Z</time></trkpt><trkpt lat="42.8894162" lon="13.1528098"><ele>743.0</ele><time>2026-05-01T13:02:29.928Z</time></trkpt><trkpt lat="42.8894719" lon="13.1526582"><ele>743.0</ele><time>2026-05-01T13:02:31.929Z</time></trkpt><trkpt lat="42.8895453" lon="13.1526007"><ele>743.0</ele><time>2026-05-01T13:02:32.929Z</time></trkpt><trkpt lat="42.8896257" lon="13.1525887"><ele>743.0</ele><time>2026-05-01T13:02:33.928Z</time></trkpt><trkpt lat="42.8897111" lon="13.1526161"><ele>743.0</ele><time>2026-05-01T13:02:34.929Z</time></trkpt><trkpt lat="42.8898048" lon="13.1526662"><ele>743.0</ele><time>2026-05-01T13:02:35.929Z</time></trkpt><trkpt lat="42.889915" lon="13.1527154"><ele>743.0</ele><time>2026-05-01T13:02:36.929Z</time></trkpt><trkpt lat="42.8900179" lon="13.1527751"><ele>743.0</ele><time>2026-05-01T13:02:37.928Z</time></trkpt><trkpt lat="42.8901359" lon="13.1528516"><ele>743.0</ele><time>2026-05-01T13:02:38.929Z</time></trkpt><trkpt lat="42.8902536" lon="13.1529198"><ele>743.0</ele><time>2026-05-01T13:02:39.929Z</time></trkpt><trkpt lat="42.8903698" lon="13.1529942"><ele>741.5</ele><time>2026-05-01T13:02:40.928Z</time></trkpt><trkpt lat="42.8904811" lon="13.1530623"><ele>740.0</ele><time>2026-05-01T13:02:41.929Z</time></trkpt><trkpt lat="42.8905947" lon="13.1531343"><ele>738.5</ele><time>2026-05-01T13:02:42.929Z</time></trkpt><trkpt lat="42.8907085" lon="13.1531985"><ele>737.0</ele><time>2026-05-01T13:02:43.929Z</time></trkpt><trkpt lat="42.8908247" lon="13.1532674"><ele>735.75</ele><time>2026-05-01T13:02:44.929Z</time></trkpt><trkpt lat="42.8909408" lon="13.1533367"><ele>734.5</ele><time>2026-05-01T13:02:45.929Z</time></trkpt><trkpt lat="42.8910458" lon="13.153408"><ele>733.25</ele><time>2026-05-01T13:02:46.929Z</time></trkpt><trkpt lat="42.8911513" lon="13.1534858"><ele>732.0</ele><time>2026-05-01T13:02:47.929Z</time></trkpt><trkpt lat="42.8912523" lon="13.1535538"><ele>732.0</ele><time>2026-05-01T13:02:48.928Z</time></trkpt><trkpt lat="42.8913515" lon="13.1536191"><ele>732.0</ele><time>2026-05-01T13:02:49.929Z</time></trkpt><trkpt lat="42.8914494" lon="13.1536859"><ele>732.0</ele><time>2026-05-01T13:02:50.929Z</time></trkpt><trkpt lat="42.8915501" lon="13.153742"><ele>732.0</ele><time>2026-05-01T13:02:51.928Z</time></trkpt><trkpt lat="42.8916421" lon="13.153803"><ele>732.0</ele><time>2026-05-01T13:02:52.929Z</time></trkpt><trkpt lat="42.8917471" lon="13.153855"><ele>731.5</ele><time>2026-05-01T13:02:53.929Z</time></trkpt><trkpt lat="42.8918588" lon="13.1538863"><ele>731.0</ele><time>2026-05-01T13:02:54.929Z</time></trkpt><trkpt lat="42.8919787" lon="13.1539178"><ele>730.5</ele><time>2026-05-01T13:02:55.929Z</time></trkpt><trkpt lat="42.8921024" lon="13.1539321"><ele>730.0</ele><time>2026-05-01T13:02:56.929Z</time></trkpt><trkpt lat="42.8922305" lon="13.1539263"><ele>730.0</ele><time>2026-05-01T13:02:57.929Z</time></trkpt><trkpt lat="42.8923518" lon="13.1538979"><ele>730.0</ele><time>2026-05-01T13:02:58.929Z</time></trkpt><trkpt lat="42.8924733" lon="13.153858"><ele>730.0</ele><time>2026-05-01T13:02:59.929Z</time></trkpt><trkpt lat="42.8925794" lon="13.1538024"><ele>730.0</ele><time>2026-05-01T13:03:00.929Z</time></trkpt><trkpt lat="42.8926742" lon="13.1537248"><ele>730.25</ele><time>2026-05-01T13:03:01.929Z</time></trkpt><trkpt lat="42.8927659" lon="13.1536323"><ele>730.5</ele><time>2026-05-01T13:03:02.929Z</time></trkpt><trkpt lat="42.8928591" lon="13.153532"><ele>730.75</ele><time>2026-05-01T13:03:03.929Z</time></trkpt><trkpt lat="42.89296" lon="13.1534354"><ele>731.0</ele><time>2026-05-01T13:03:04.929Z</time></trkpt><trkpt lat="42.8930645" lon="13.1533351"><ele>731.0</ele><time>2026-05-01T13:03:05.929Z</time></trkpt><trkpt lat="42.8931688" lon="13.1532296"><ele>731.0</ele><time>2026-05-01T13:03:06.929Z</time></trkpt><trkpt lat="42.8932758" lon="13.1531241"><ele>731.0</ele><time>2026-05-01T13:03:07.928Z</time></trkpt><trkpt lat="42.893383" lon="13.1530167"><ele>731.0</ele><time>2026-05-01T13:03:08.928Z</time></trkpt><trkpt lat="42.8934948" lon="13.1529109"><ele>731.0</ele><time>2026-05-01T13:03:09.929Z</time></trkpt><trkpt lat="42.8936051" lon="13.1528023"><ele>731.0</ele><time>2026-05-01T13:03:10.928Z</time></trkpt><trkpt lat="42.8937141" lon="13.1526934"><ele>731.0</ele><time>2026-05-01T13:03:11.929Z</time></trkpt><trkpt lat="42.8938255" lon="13.1525866"><ele>731.0</ele><time>2026-05-01T13:03:12.929Z</time></trkpt><trkpt lat="42.8939371" lon="13.1524818"><ele>731.0</ele><time>2026-05-01T13:03:13.928Z</time></trkpt><trkpt lat="42.8940519" lon="13.1523805"><ele>731.0</ele><time>2026-05-01T13:03:14.929Z</time></trkpt><trkpt lat="42.8941704" lon="13.1522806"><ele>731.0</ele><time>2026-05-01T13:03:15.928Z</time></trkpt><trkpt lat="42.8942888" lon="13.1521821"><ele>731.0</ele><time>2026-05-01T13:03:16.929Z</time></trkpt><trkpt lat="42.8944049" lon="13.152106"><ele>730.5</ele><time>2026-05-01T13:03:17.929Z</time></trkpt><trkpt lat="42.8945228" lon="13.1520531"><ele>730.0</ele><time>2026-05-01T13:03:18.929Z</time></trkpt><trkpt lat="42.8946428" lon="13.1520223"><ele>729.5</ele><time>2026-05-01T13:03:19.929Z</time></trkpt><trkpt lat="42.8947733" lon="13.1519869"><ele>729.0</ele><time>2026-05-01T13:03:20.929Z</time></trkpt><trkpt lat="42.8948991" lon="13.1519641"><ele>729.0</ele><time>2026-05-01T13:03:21.929Z</time></trkpt><trkpt lat="42.8950285" lon="13.1519301"><ele>729.0</ele><time>2026-05-01T13:03:22.929Z</time></trkpt><trkpt lat="42.8951615" lon="13.1519006"><ele>729.0</ele><time>2026-05-01T13:03:23.928Z</time></trkpt><trkpt lat="42.8952834" lon="13.1518521"><ele>729.0</ele><time>2026-05-01T13:03:24.929Z</time></trkpt><trkpt lat="42.8954086" lon="13.1517783"><ele>727.3333333333334</ele><time>2026-05-01T13:03:25.929Z</time></trkpt><trkpt lat="42.8955262" lon="13.1516635"><ele>725.6666666666667</ele><time>2026-05-01T13:03:26.929Z</time></trkpt><trkpt lat="42.8956406" lon="13.151529"><ele>724.0</ele><time>2026-05-01T13:03:27.928Z</time></trkpt><trkpt lat="42.8957568" lon="13.1513776"><ele>724.0</ele><time>2026-05-01T13:03:28.929Z</time></trkpt><trkpt lat="42.8958749" lon="13.1512195"><ele>724.0</ele><time>2026-05-01T13:03:29.929Z</time></trkpt><trkpt lat="42.8960081" lon="13.1510337"><ele>724.0</ele><time>2026-05-01T13:03:30.928Z</time></trkpt><trkpt lat="42.8961586" lon="13.1508389"><ele>726.0</ele><time>2026-05-01T13:03:31.929Z</time></trkpt><trkpt lat="42.896317" lon="13.1506312"><ele>728.0</ele><time>2026-05-01T13:03:32.929Z</time></trkpt><trkpt lat="42.8964619" lon="13.1504209"><ele>730.0</ele><time>2026-05-01T13:03:33.929Z</time></trkpt><trkpt lat="42.8965925" lon="13.1502165"><ele>730.0</ele><time>2026-05-01T13:03:34.928Z</time></trkpt><trkpt lat="42.8967045" lon="13.1499948"><ele>730.0</ele><time>2026-05-01T13:03:35.928Z</time></trkpt><trkpt lat="42.8967926" lon="13.149747"><ele>730.0</ele><time>2026-05-01T13:03:36.929Z</time></trkpt><trkpt lat="42.8968615" lon="13.1494962"><ele>729.0</ele><time>2026-05-01T13:03:37.928Z</time></trkpt><trkpt lat="42.8969276" lon="13.1492504"><ele>728.0</ele><time>2026-05-01T13:03:38.929Z</time></trkpt><trkpt lat="42.8970043" lon="13.1490144"><ele>727.0</ele><time>2026-05-01T13:03:39.929Z</time></trkpt><trkpt lat="42.8970859" lon="13.1487997"><ele>727.0</ele><time>2026-05-01T13:03:40.929Z</time></trkpt><trkpt lat="42.8971787" lon="13.1486087"><ele>727.0</ele><time>2026-05-01T13:03:41.928Z</time></trkpt><trkpt lat="42.8972827" lon="13.148458"><ele>727.0</ele><time>2026-05-01T13:03:42.928Z</time></trkpt><trkpt lat="42.8973878" lon="13.1483135"><ele>725.6666666666667</ele><time>2026-05-01T13:03:43.929Z</time></trkpt><trkpt lat="42.8975137" lon="13.1481869"><ele>724.3333333333334</ele><time>2026-05-01T13:03:44.928Z</time></trkpt><trkpt lat="42.8976403" lon="13.1480742"><ele>723.0</ele><time>2026-05-01T13:03:45.929Z</time></trkpt><trkpt lat="42.897767" lon="13.1479698"><ele>723.0</ele><time>2026-05-01T13:03:46.929Z</time></trkpt><trkpt lat="42.8979027" lon="13.1478516"><ele>723.0</ele><time>2026-05-01T13:03:47.929Z</time></trkpt><trkpt lat="42.8980316" lon="13.1477246"><ele>723.0</ele><time>2026-05-01T13:03:48.929Z</time></trkpt><trkpt lat="42.8981575" lon="13.1476033"><ele>723.0</ele><time>2026-05-01T13:03:49.929Z</time></trkpt><trkpt lat="42.898275" lon="13.1474818"><ele>723.0</ele><time>2026-05-01T13:03:50.929Z</time></trkpt><trkpt lat="42.8983827" lon="13.1473491"><ele>723.0</ele><time>2026-05-01T13:03:51.928Z</time></trkpt><trkpt lat="42.8984733" lon="13.1472076"><ele>723.0</ele><time>2026-05-01T13:03:52.929Z</time></trkpt><trkpt lat="42.8985644" lon="13.1470477"><ele>722.6666666666666</ele><time>2026-05-01T13:03:53.929Z</time></trkpt><trkpt lat="42.8986492" lon="13.1468717"><ele>722.3333333333333</ele><time>2026-05-01T13:03:54.929Z</time></trkpt><trkpt lat="42.898738" lon="13.1467008"><ele>722.0</ele><time>2026-05-01T13:03:55.929Z</time></trkpt><trkpt lat="42.898826" lon="13.1465224"><ele>722.0</ele><time>2026-05-01T13:03:56.929Z</time></trkpt><trkpt lat="42.8989225" lon="13.1463501"><ele>722.0</ele><time>2026-05-01T13:03:57.929Z</time></trkpt><trkpt lat="42.8990268" lon="13.1461858"><ele>722.0</ele><time>2026-05-01T13:03:58.928Z</time></trkpt><trkpt lat="42.8991447" lon="13.1460343"><ele>721.3333333333333</ele><time>2026-05-01T13:03:59.929Z</time></trkpt><trkpt lat="42.8992799" lon="13.14588"><ele>720.6666666666666</ele><time>2026-05-01T13:04:00.929Z</time></trkpt><trkpt lat="42.8994312" lon="13.1457365"><ele>720.0</ele><time>2026-05-01T13:04:01.929Z</time></trkpt><trkpt lat="42.8995888" lon="13.1455884"><ele>720.0</ele><time>2026-05-01T13:04:02.929Z</time></trkpt><trkpt lat="42.8997417" lon="13.1454456"><ele>720.0</ele><time>2026-05-01T13:04:03.928Z</time></trkpt><trkpt lat="42.8999051" lon="13.1452828"><ele>720.0</ele><time>2026-05-01T13:04:04.929Z</time></trkpt><trkpt lat="42.900055" lon="13.1450942"><ele>722.0</ele><time>2026-05-01T13:04:05.928Z</time></trkpt><trkpt lat="42.9001999" lon="13.1448886"><ele>724.0</ele><time>2026-05-01T13:04:06.929Z</time></trkpt><trkpt lat="42.9003296" lon="13.1446777"><ele>726.0</ele><time>2026-05-01T13:04:07.929Z</time></trkpt><trkpt lat="42.900453" lon="13.1444618"><ele>726.0</ele><time>2026-05-01T13:04:08.928Z</time></trkpt><trkpt lat="42.900575" lon="13.1442617"><ele>726.0</ele><time>2026-05-01T13:04:09.929Z</time></trkpt><trkpt lat="42.9006824" lon="13.1440631"><ele>726.0</ele><time>2026-05-01T13:04:10.929Z</time></trkpt><trkpt lat="42.9007792" lon="13.1438826"><ele>728.0</ele><time>2026-05-01T13:04:11.928Z</time></trkpt><trkpt lat="42.9008675" lon="13.1437199"><ele>730.0</ele><time>2026-05-01T13:04:12.928Z</time></trkpt><trkpt lat="42.9009628" lon="13.1435627"><ele>732.0</ele><time>2026-05-01T13:04:13.928Z</time></trkpt><trkpt lat="42.9010714" lon="13.1434106"><ele>732.0</ele><time>2026-05-01T13:04:14.929Z</time></trkpt><trkpt lat="42.9011907" lon="13.1432786"><ele>732.0</ele><time>2026-05-01T13:04:15.928Z</time></trkpt><trkpt lat="42.9013146" lon="13.1431459"><ele>732.0</ele><time>2026-05-01T13:04:16.929Z</time></trkpt><trkpt lat="42.9014544" lon="13.143003"><ele>735.0</ele><time>2026-05-01T13:04:17.929Z</time></trkpt><trkpt lat="42.9015998" lon="13.1428393"><ele>738.0</ele><time>2026-05-01T13:04:18.928Z</time></trkpt><trkpt lat="42.9017352" lon="13.1426393"><ele>741.0</ele><time>2026-05-01T13:04:19.928Z</time></trkpt><trkpt lat="42.9018619" lon="13.1424083"><ele>736.6666666666666</ele><time>2026-05-01T13:04:20.929Z</time></trkpt><trkpt lat="42.9019571" lon="13.1421701"><ele>732.3333333333333</ele><time>2026-05-01T13:04:21.929Z</time></trkpt><trkpt lat="42.9020474" lon="13.1419226"><ele>728.0</ele><time>2026-05-01T13:04:22.928Z</time></trkpt><trkpt lat="42.9021065" lon="13.1416607"><ele>724.3333333333333</ele><time>2026-05-01T13:04:23.929Z</time></trkpt><trkpt lat="42.9021611" lon="13.1413849"><ele>720.6666666666666</ele><time>2026-05-01T13:04:24.929Z</time></trkpt><trkpt lat="42.9022084" lon="13.1411252"><ele>717.0</ele><time>2026-05-01T13:04:25.929Z</time></trkpt><trkpt lat="42.9022471" lon="13.1408904"><ele>713.3333333333334</ele><time>2026-05-01T13:04:26.929Z</time></trkpt><trkpt lat="42.9023029" lon="13.1406849"><ele>709.6666666666667</ele><time>2026-05-01T13:04:27.929Z</time></trkpt><trkpt lat="42.9023917" lon="13.1405042"><ele>706.0</ele><time>2026-05-01T13:04:28.929Z</time></trkpt><trkpt lat="42.9025138" lon="13.140358"><ele>711.3333333333334</ele><time>2026-05-01T13:04:29.929Z</time></trkpt><trkpt lat="42.9026522" lon="13.1402065"><ele>716.6666666666666</ele><time>2026-05-01T13:04:30.929Z</time></trkpt><trkpt lat="42.9028013" lon="13.1400581"><ele>722.0</ele><time>2026-05-01T13:04:31.928Z</time></trkpt><trkpt lat="42.9029585" lon="13.1398981"><ele>721.3333333333333</ele><time>2026-05-01T13:04:32.928Z</time></trkpt><trkpt lat="42.9031139" lon="13.1397385"><ele>720.6666666666666</ele><time>2026-05-01T13:04:33.929Z</time></trkpt><trkpt lat="42.9032694" lon="13.1395747"><ele>720.0</ele><time>2026-05-01T13:04:34.929Z</time></trkpt><trkpt lat="42.9034358" lon="13.1394109"><ele>720.0</ele><time>2026-05-01T13:04:35.929Z</time></trkpt><trkpt lat="42.9036015" lon="13.1392744"><ele>720.0</ele><time>2026-05-01T13:04:36.929Z</time></trkpt><trkpt lat="42.9037637" lon="13.1391616"><ele>720.0</ele><time>2026-05-01T13:04:37.928Z</time></trkpt><trkpt lat="42.9039225" lon="13.1390579"><ele>715.0</ele><time>2026-05-01T13:04:38.929Z</time></trkpt><trkpt lat="42.9040736" lon="13.1389369"><ele>710.0</ele><time>2026-05-01T13:04:39.928Z</time></trkpt><trkpt lat="42.9041952" lon="13.1387693"><ele>705.0</ele><time>2026-05-01T13:04:40.929Z</time></trkpt><trkpt lat="42.9043062" lon="13.1385889"><ele>707.3333333333334</ele><time>2026-05-01T13:04:41.929Z</time></trkpt><trkpt lat="42.9044105" lon="13.1383915"><ele>709.6666666666667</ele><time>2026-05-01T13:04:42.929Z</time></trkpt><trkpt lat="42.904512" lon="13.1382001"><ele>712.0</ele><time>2026-05-01T13:04:43.928Z</time></trkpt><trkpt lat="42.9046181" lon="13.1380369"><ele>712.0</ele><time>2026-05-01T13:04:44.929Z</time></trkpt><trkpt lat="42.9047177" lon="13.1379046"><ele>712.0</ele><time>2026-05-01T13:04:45.929Z</time></trkpt><trkpt lat="42.9048248" lon="13.1377811"><ele>712.0</ele><time>2026-05-01T13:04:46.929Z</time></trkpt><trkpt lat="42.9049151" lon="13.1376468"><ele>712.0</ele><time>2026-05-01T13:04:47.929Z</time></trkpt><trkpt lat="42.9050159" lon="13.1374889"><ele>721.6666666666667</ele><time>2026-05-01T13:04:48.929Z</time></trkpt><trkpt lat="42.9051043" lon="13.1372728"><ele>731.3333333333334</ele><time>2026-05-01T13:04:49.929Z</time></trkpt><trkpt lat="42.9051889" lon="13.1369943"><ele>741.0</ele><time>2026-05-01T13:04:50.929Z</time></trkpt><trkpt lat="42.9052808" lon="13.13669"><ele>730.0</ele><time>2026-05-01T13:04:51.929Z</time></trkpt><trkpt lat="42.9053734" lon="13.1363687"><ele>719.0</ele><time>2026-05-01T13:04:52.929Z</time></trkpt><trkpt lat="42.9054823" lon="13.1360431"><ele>719.0</ele><time>2026-05-01T13:04:53.929Z</time></trkpt><trkpt lat="42.9056062" lon="13.1357341"><ele>719.0</ele><time>2026-05-01T13:04:54.929Z</time></trkpt><trkpt lat="42.9057655" lon="13.1354468"><ele>718.0</ele><time>2026-05-01T13:04:55.928Z</time></trkpt><trkpt lat="42.9059299" lon="13.1351577"><ele>717.0</ele><time>2026-05-01T13:04:56.929Z</time></trkpt><trkpt lat="42.9060866" lon="13.134878"><ele>717.0</ele><time>2026-05-01T13:04:57.929Z</time></trkpt><trkpt lat="42.9062562" lon="13.1345939"><ele>717.0</ele><time>2026-05-01T13:04:58.929Z</time></trkpt><trkpt lat="42.9064023" lon="13.1343108"><ele>712.0</ele><time>2026-05-01T13:04:59.929Z</time></trkpt><trkpt lat="42.9065225" lon="13.1340266"><ele>707.0</ele><time>2026-05-01T13:05:00.928Z</time></trkpt><trkpt lat="42.9066157" lon="13.1337405"><ele>707.0</ele><time>2026-05-01T13:05:01.929Z</time></trkpt><trkpt lat="42.90669" lon="13.1334478"><ele>707.0</ele><time>2026-05-01T13:05:02.929Z</time></trkpt><trkpt lat="42.9067196" lon="13.1331707"><ele>707.0</ele><time>2026-05-01T13:05:03.929Z</time></trkpt><trkpt lat="42.9067375" lon="13.1329199"><ele>707.6666666666666</ele><time>2026-05-01T13:05:04.928Z</time></trkpt><trkpt lat="42.9067627" lon="13.1327205"><ele>708.3333333333334</ele><time>2026-05-01T13:05:05.929Z</time></trkpt><trkpt lat="42.9068371" lon="13.1325671"><ele>709.0</ele><time>2026-05-01T13:05:06.929Z</time></trkpt><trkpt lat="42.9069784" lon="13.1324352"><ele>703.6666666666667</ele><time>2026-05-01T13:05:07.929Z</time></trkpt><trkpt lat="42.9071462" lon="13.1323281"><ele>698.3333333333334</ele><time>2026-05-01T13:05:08.929Z</time></trkpt><trkpt lat="42.9073242" lon="13.1322376"><ele>693.0</ele><time>2026-05-01T13:05:09.929Z</time></trkpt><trkpt lat="42.9075123" lon="13.1321618"><ele>699.0</ele><time>2026-05-01T13:05:10.929Z</time></trkpt><trkpt lat="42.907687" lon="13.1320813"><ele>705.0</ele><time>2026-05-01T13:05:11.929Z</time></trkpt><trkpt lat="42.9078462" lon="13.1319875"><ele>711.0</ele><time>2026-05-01T13:05:12.929Z</time></trkpt><trkpt lat="42.9079891" lon="13.1318547"><ele>711.0</ele><time>2026-05-01T13:05:13.929Z</time></trkpt><trkpt lat="42.9081082" lon="13.1316415"><ele>711.0</ele><time>2026-05-01T13:05:14.929Z</time></trkpt><trkpt lat="42.9081725" lon="13.131371"><ele>711.0</ele><time>2026-05-01T13:05:15.929Z</time></trkpt><trkpt lat="42.9082075" lon="13.1311127"><ele>706.3333333333334</ele><time>2026-05-01T13:05:16.929Z</time></trkpt><trkpt lat="42.9082339" lon="13.1308821"><ele>701.6666666666667</ele><time>2026-05-01T13:05:17.928Z</time></trkpt><trkpt lat="42.9082702" lon="13.130679"><ele>697.0</ele><time>2026-05-01T13:05:18.929Z</time></trkpt><trkpt lat="42.9083485" lon="13.1305118"><ele>697.0</ele><time>2026-05-01T13:05:19.929Z</time></trkpt><trkpt lat="42.9084769" lon="13.1303611"><ele>697.0</ele><time>2026-05-01T13:05:20.929Z</time></trkpt><trkpt lat="42.9086251" lon="13.1302408"><ele>697.0</ele><time>2026-05-01T13:05:21.929Z</time></trkpt><trkpt lat="42.9087762" lon="13.1301419"><ele>697.0</ele><time>2026-05-01T13:05:22.929Z</time></trkpt><trkpt lat="42.9089434" lon="13.1300506"><ele>697.0</ele><time>2026-05-01T13:05:23.929Z</time></trkpt><trkpt lat="42.9091157" lon="13.1299818"><ele>697.0</ele><time>2026-05-01T13:05:24.929Z</time></trkpt><trkpt lat="42.9093022" lon="13.1299453"><ele>698.0</ele><time>2026-05-01T13:05:25.928Z</time></trkpt><trkpt lat="42.909505" lon="13.1299238"><ele>699.0</ele><time>2026-05-01T13:05:26.929Z</time></trkpt><trkpt lat="42.909704" lon="13.1298963"><ele>700.0</ele><time>2026-05-01T13:05:27.929Z</time></trkpt><trkpt lat="42.9098966" lon="13.1298155"><ele>699.0</ele><time>2026-05-01T13:05:28.93Z</time></trkpt><trkpt lat="42.9100806" lon="13.1296728"><ele>698.0</ele><time>2026-05-01T13:05:29.929Z</time></trkpt><trkpt lat="42.9102622" lon="13.1294852"><ele>697.0</ele><time>2026-05-01T13:05:30.93Z</time></trkpt><trkpt lat="42.9104376" lon="13.1292611"><ele>697.0</ele><time>2026-05-01T13:05:31.93Z</time></trkpt><trkpt lat="42.9106052" lon="13.1290679"><ele>697.0</ele><time>2026-05-01T13:05:32.929Z</time></trkpt><trkpt lat="42.9107839" lon="13.1289029"><ele>697.0</ele><time>2026-05-01T13:05:33.93Z</time></trkpt><trkpt lat="42.9109814" lon="13.1287931"><ele>695.3333333333334</ele><time>2026-05-01T13:05:34.93Z</time></trkpt><trkpt lat="42.9111941" lon="13.1287281"><ele>693.6666666666666</ele><time>2026-05-01T13:05:35.93Z</time></trkpt><trkpt lat="42.9114091" lon="13.128688"><ele>692.0</ele><time>2026-05-01T13:05:36.93Z</time></trkpt><trkpt lat="42.911622" lon="13.1286489"><ele>691.3333333333333</ele><time>2026-05-01T13:05:37.929Z</time></trkpt><trkpt lat="42.9118462" lon="13.1286081"><ele>690.6666666666666</ele><time>2026-05-01T13:05:38.93Z</time></trkpt><trkpt lat="42.9120556" lon="13.1285726"><ele>690.0</ele><time>2026-05-01T13:05:39.93Z</time></trkpt><trkpt lat="42.9122599" lon="13.1285384"><ele>690.0</ele><time>2026-05-01T13:05:40.93Z</time></trkpt><trkpt lat="42.9124551" lon="13.1284962"><ele>690.0</ele><time>2026-05-01T13:05:41.929Z</time></trkpt><trkpt lat="42.9126378" lon="13.1283907"><ele>690.0</ele><time>2026-05-01T13:05:42.93Z</time></trkpt><trkpt lat="42.9128129" lon="13.1282237"><ele>687.0</ele><time>2026-05-01T13:05:43.93Z</time></trkpt><trkpt lat="42.9129795" lon="13.1280234"><ele>684.0</ele><time>2026-05-01T13:05:44.93Z</time></trkpt><trkpt lat="42.9131478" lon="13.1278063"><ele>684.0</ele><time>2026-05-01T13:05:45.93Z</time></trkpt><trkpt lat="42.9133181" lon="13.1275721"><ele>684.0</ele><time>2026-05-01T13:05:46.93Z</time></trkpt><trkpt lat="42.9134929" lon="13.1273195"><ele>688.0</ele><time>2026-05-01T13:05:47.93Z</time></trkpt><trkpt lat="42.9136625" lon="13.127072"><ele>692.0</ele><time>2026-05-01T13:05:48.93Z</time></trkpt><trkpt lat="42.9138289" lon="13.1268482"><ele>692.0</ele><time>2026-05-01T13:05:49.93Z</time></trkpt><trkpt lat="42.9139749" lon="13.1266528"><ele>692.0</ele><time>2026-05-01T13:05:50.929Z</time></trkpt><trkpt lat="42.9141013" lon="13.1264878"><ele>692.0</ele><time>2026-05-01T13:05:51.93Z</time></trkpt><trkpt lat="42.9142105" lon="13.1263405"><ele>693.25</ele><time>2026-05-01T13:05:52.93Z</time></trkpt><trkpt lat="42.9143012" lon="13.1261978"><ele>694.5</ele><time>2026-05-01T13:05:53.93Z</time></trkpt><trkpt lat="42.9143682" lon="13.126041"><ele>695.75</ele><time>2026-05-01T13:05:54.93Z</time></trkpt><trkpt lat="42.9144141" lon="13.1258206"><ele>697.0</ele><time>2026-05-01T13:05:55.93Z</time></trkpt><trkpt lat="42.9144232" lon="13.1255466"><ele>697.0</ele><time>2026-05-01T13:05:56.93Z</time></trkpt><trkpt lat="42.9144386" lon="13.1252688"><ele>697.0</ele><time>2026-05-01T13:05:57.93Z</time></trkpt><trkpt lat="42.9144616" lon="13.1250228"><ele>697.0</ele><time>2026-05-01T13:05:58.93Z</time></trkpt><trkpt lat="42.914504" lon="13.1248068"><ele>690.0</ele><time>2026-05-01T13:05:59.93Z</time></trkpt><trkpt lat="42.9146015" lon="13.1246065"><ele>683.0</ele><time>2026-05-01T13:06:00.93Z</time></trkpt><trkpt lat="42.9147459" lon="13.1244275"><ele>676.0</ele><time>2026-05-01T13:06:01.93Z</time></trkpt><trkpt lat="42.914915" lon="13.1242491"><ele>675.5</ele><time>2026-05-01T13:06:02.929Z</time></trkpt><trkpt lat="42.9150875" lon="13.124064"><ele>675.0</ele><time>2026-05-01T13:06:03.93Z</time></trkpt><trkpt lat="42.9152623" lon="13.1238572"><ele>675.0</ele><time>2026-05-01T13:06:04.93Z</time></trkpt><trkpt lat="42.9154441" lon="13.1236396"><ele>675.0</ele><time>2026-05-01T13:06:05.93Z</time></trkpt><trkpt lat="42.9156245" lon="13.1234176"><ele>672.5</ele><time>2026-05-01T13:06:06.93Z</time></trkpt><trkpt lat="42.9158071" lon="13.1232057"><ele>670.0</ele><time>2026-05-01T13:06:07.93Z</time></trkpt><trkpt lat="42.9159779" lon="13.1230034"><ele>670.0</ele><time>2026-05-01T13:06:08.93Z</time></trkpt><trkpt lat="42.9161475" lon="13.1228265"><ele>670.0</ele><time>2026-05-01T13:06:09.929Z</time></trkpt><trkpt lat="42.9163133" lon="13.1226625"><ele>670.0</ele><time>2026-05-01T13:06:10.929Z</time></trkpt><trkpt lat="42.9164854" lon="13.122538"><ele>670.0</ele><time>2026-05-01T13:06:11.929Z</time></trkpt><trkpt lat="42.9166772" lon="13.1224602"><ele>670.0</ele><time>2026-05-01T13:06:12.93Z</time></trkpt><trkpt lat="42.9168799" lon="13.1224095"><ele>670.0</ele><time>2026-05-01T13:06:13.93Z</time></trkpt><trkpt lat="42.917093" lon="13.1223614"><ele>670.3333333333334</ele><time>2026-05-01T13:06:14.93Z</time></trkpt><trkpt lat="42.9172923" lon="13.1223315"><ele>670.6666666666666</ele><time>2026-05-01T13:06:15.93Z</time></trkpt><trkpt lat="42.917496" lon="13.1223107"><ele>671.0</ele><time>2026-05-01T13:06:16.929Z</time></trkpt><trkpt lat="42.917682" lon="13.1222519"><ele>671.0</ele><time>2026-05-01T13:06:17.93Z</time></trkpt><trkpt lat="42.917862" lon="13.122137"><ele>671.0</ele><time>2026-05-01T13:06:18.93Z</time></trkpt><trkpt lat="42.9180272" lon="13.1219704"><ele>671.0</ele><time>2026-05-01T13:06:19.928Z</time></trkpt><trkpt lat="42.9181678" lon="13.1217562"><ele>669.3333333333333</ele><time>2026-05-01T13:06:20.929Z</time></trkpt><trkpt lat="42.9182828" lon="13.1215312"><ele>667.6666666666666</ele><time>2026-05-01T13:06:21.929Z</time></trkpt><trkpt lat="42.9183939" lon="13.1213127"><ele>666.0</ele><time>2026-05-01T13:06:22.928Z</time></trkpt><trkpt lat="42.9184952" lon="13.1210739"><ele>669.6666666666666</ele><time>2026-05-01T13:06:23.928Z</time></trkpt><trkpt lat="42.9185851" lon="13.1208211"><ele>673.3333333333333</ele><time>2026-05-01T13:06:24.929Z</time></trkpt><trkpt lat="42.9186572" lon="13.1205435"><ele>677.0</ele><time>2026-05-01T13:06:25.928Z</time></trkpt><trkpt lat="42.9187193" lon="13.1202583"><ele>677.0</ele><time>2026-05-01T13:06:26.929Z</time></trkpt><trkpt lat="42.9187939" lon="13.1199681"><ele>677.0</ele><time>2026-05-01T13:06:27.928Z</time></trkpt><trkpt lat="42.918876" lon="13.1196886"><ele>677.0</ele><time>2026-05-01T13:06:28.928Z</time></trkpt><trkpt lat="42.9189618" lon="13.1194183"><ele>674.0</ele><time>2026-05-01T13:06:29.929Z</time></trkpt><trkpt lat="42.9190609" lon="13.1191601"><ele>671.0</ele><time>2026-05-01T13:06:30.929Z</time></trkpt><trkpt lat="42.9191752" lon="13.1189182"><ele>668.0</ele><time>2026-05-01T13:06:31.929Z</time></trkpt><trkpt lat="42.9192979" lon="13.1186836"><ele>669.6666666666666</ele><time>2026-05-01T13:06:32.929Z</time></trkpt><trkpt lat="42.919417" lon="13.1184462"><ele>671.3333333333334</ele><time>2026-05-01T13:06:33.929Z</time></trkpt><trkpt lat="42.9195323" lon="13.1181976"><ele>673.0</ele><time>2026-05-01T13:06:34.929Z</time></trkpt><trkpt lat="42.9196249" lon="13.117939"><ele>673.0</ele><time>2026-05-01T13:06:35.929Z</time></trkpt><trkpt lat="42.9197012" lon="13.1176661"><ele>673.0</ele><time>2026-05-01T13:06:36.929Z</time></trkpt><trkpt lat="42.9197663" lon="13.1173844"><ele>673.0</ele><time>2026-05-01T13:06:37.929Z</time></trkpt><trkpt lat="42.9198183" lon="13.1170904"><ele>672.0</ele><time>2026-05-01T13:06:38.929Z</time></trkpt><trkpt lat="42.9198451" lon="13.1167982"><ele>671.0</ele><time>2026-05-01T13:06:39.929Z</time></trkpt><trkpt lat="42.9198417" lon="13.1165058"><ele>670.0</ele><time>2026-05-01T13:06:40.928Z</time></trkpt><trkpt lat="42.9198314" lon="13.1162489"><ele>669.0</ele><time>2026-05-01T13:06:41.929Z</time></trkpt><trkpt lat="42.9198388" lon="13.1160199"><ele>668.0</ele><time>2026-05-01T13:06:42.928Z</time></trkpt><trkpt lat="42.919873" lon="13.1157859"><ele>667.0</ele><time>2026-05-01T13:06:43.928Z</time></trkpt><trkpt lat="42.9199382" lon="13.1155477"><ele>664.3333333333334</ele><time>2026-05-01T13:06:44.929Z</time></trkpt><trkpt lat="42.9200178" lon="13.1153149"><ele>661.6666666666666</ele><time>2026-05-01T13:06:45.928Z</time></trkpt><trkpt lat="42.9201151" lon="13.1150873"><ele>659.0</ele><time>2026-05-01T13:06:46.929Z</time></trkpt><trkpt lat="42.9201983" lon="13.1148456"><ele>666.6666666666666</ele><time>2026-05-01T13:06:47.929Z</time></trkpt><trkpt lat="42.920273" lon="13.1145859"><ele>674.3333333333334</ele><time>2026-05-01T13:06:48.929Z</time></trkpt><trkpt lat="42.9203223" lon="13.1143249"><ele>682.0</ele><time>2026-05-01T13:06:49.929Z</time></trkpt><trkpt lat="42.9203531" lon="13.1140488"><ele>682.0</ele><time>2026-05-01T13:06:50.929Z</time></trkpt><trkpt lat="42.9203799" lon="13.1137702"><ele>682.0</ele><time>2026-05-01T13:06:51.929Z</time></trkpt><trkpt lat="42.9204112" lon="13.1135013"><ele>682.0</ele><time>2026-05-01T13:06:52.929Z</time></trkpt><trkpt lat="42.9204357" lon="13.1132327"><ele>682.0</ele><time>2026-05-01T13:06:53.929Z</time></trkpt><trkpt lat="42.9204544" lon="13.1129663"><ele>682.0</ele><time>2026-05-01T13:06:54.929Z</time></trkpt><trkpt lat="42.9204621" lon="13.1126922"><ele>682.0</ele><time>2026-05-01T13:06:55.928Z</time></trkpt><trkpt lat="42.9204584" lon="13.1124099"><ele>681.3333333333334</ele><time>2026-05-01T13:06:56.928Z</time></trkpt><trkpt lat="42.9204543" lon="13.1121286"><ele>680.6666666666666</ele><time>2026-05-01T13:06:57.928Z</time></trkpt><trkpt lat="42.9204515" lon="13.1118576"><ele>680.0</ele><time>2026-05-01T13:06:58.929Z</time></trkpt><trkpt lat="42.9204632" lon="13.1115883"><ele>677.6666666666666</ele><time>2026-05-01T13:06:59.929Z</time></trkpt><trkpt lat="42.9204926" lon="13.1113159"><ele>675.3333333333334</ele><time>2026-05-01T13:07:00.929Z</time></trkpt><trkpt lat="42.9205474" lon="13.1110542"><ele>673.0</ele><time>2026-05-01T13:07:01.928Z</time></trkpt><trkpt lat="42.9206126" lon="13.1108024"><ele>667.3333333333334</ele><time>2026-05-01T13:07:02.929Z</time></trkpt><trkpt lat="42.9206848" lon="13.1105433"><ele>661.6666666666666</ele><time>2026-05-01T13:07:03.93Z</time></trkpt><trkpt lat="42.9207526" lon="13.1102928"><ele>656.0</ele><time>2026-05-01T13:07:04.93Z</time></trkpt><trkpt lat="42.920813" lon="13.110048"><ele>654.3333333333333</ele><time>2026-05-01T13:07:05.93Z</time></trkpt><trkpt lat="42.9208724" lon="13.1098058"><ele>652.6666666666666</ele><time>2026-05-01T13:07:06.93Z</time></trkpt><trkpt lat="42.9209415" lon="13.1095869"><ele>651.0</ele><time>2026-05-01T13:07:07.929Z</time></trkpt><trkpt lat="42.9210273" lon="13.1093817"><ele>651.6666666666666</ele><time>2026-05-01T13:07:08.929Z</time></trkpt><trkpt lat="42.9211442" lon="13.109189"><ele>652.3333333333333</ele><time>2026-05-01T13:07:09.93Z</time></trkpt><trkpt lat="42.9212771" lon="13.109007"><ele>653.0</ele><time>2026-05-01T13:07:10.929Z</time></trkpt><trkpt lat="42.9214146" lon="13.1088202"><ele>653.0</ele><time>2026-05-01T13:07:11.93Z</time></trkpt><trkpt lat="42.9215391" lon="13.1086319"><ele>653.0</ele><time>2026-05-01T13:07:12.93Z</time></trkpt><trkpt lat="42.9216588" lon="13.1084507"><ele>653.0</ele><time>2026-05-01T13:07:13.929Z</time></trkpt><trkpt lat="42.9217773" lon="13.1082732"><ele>659.6666666666666</ele><time>2026-05-01T13:07:14.93Z</time></trkpt><trkpt lat="42.9218757" lon="13.1080817"><ele>666.3333333333334</ele><time>2026-05-01T13:07:15.93Z</time></trkpt><trkpt lat="42.9219641" lon="13.1078865"><ele>673.0</ele><time>2026-05-01T13:07:16.93Z</time></trkpt><trkpt lat="42.9220527" lon="13.1076808"><ele>673.0</ele><time>2026-05-01T13:07:17.929Z</time></trkpt><trkpt lat="42.9221399" lon="13.1074593"><ele>673.0</ele><time>2026-05-01T13:07:18.93Z</time></trkpt><trkpt lat="42.9222306" lon="13.1072489"><ele>673.0</ele><time>2026-05-01T13:07:19.93Z</time></trkpt><trkpt lat="42.9223169" lon="13.1070371"><ele>668.0</ele><time>2026-05-01T13:07:20.93Z</time></trkpt><trkpt lat="42.9224013" lon="13.1068137"><ele>663.0</ele><time>2026-05-01T13:07:21.929Z</time></trkpt><trkpt lat="42.9225007" lon="13.1066003"><ele>658.0</ele><time>2026-05-01T13:07:22.93Z</time></trkpt><trkpt lat="42.9225984" lon="13.1064108"><ele>658.0</ele><time>2026-05-01T13:07:23.93Z</time></trkpt><trkpt lat="42.9226933" lon="13.1062277"><ele>658.0</ele><time>2026-05-01T13:07:24.93Z</time></trkpt><trkpt lat="42.9227915" lon="13.1060602"><ele>658.0</ele><time>2026-05-01T13:07:25.93Z</time></trkpt><trkpt lat="42.9228807" lon="13.1059038"><ele>658.0</ele><time>2026-05-01T13:07:26.93Z</time></trkpt><trkpt lat="42.9229767" lon="13.105755"><ele>658.0</ele><time>2026-05-01T13:07:27.929Z</time></trkpt><trkpt lat="42.9230597" lon="13.1056283"><ele>658.0</ele><time>2026-05-01T13:07:28.93Z</time></trkpt><trkpt lat="42.9231453" lon="13.1055243"><ele>658.0</ele><time>2026-05-01T13:07:29.929Z</time></trkpt><trkpt lat="42.9232443" lon="13.10543"><ele>657.25</ele><time>2026-05-01T13:07:30.93Z</time></trkpt><trkpt lat="42.9233515" lon="13.1053423"><ele>656.5</ele><time>2026-05-01T13:07:31.93Z</time></trkpt><trkpt lat="42.9234622" lon="13.1052576"><ele>655.75</ele><time>2026-05-01T13:07:32.929Z</time></trkpt><trkpt lat="42.9235774" lon="13.1051426"><ele>655.0</ele><time>2026-05-01T13:07:33.93Z</time></trkpt><trkpt lat="42.9236944" lon="13.1050241"><ele>653.25</ele><time>2026-05-01T13:07:34.93Z</time></trkpt><trkpt lat="42.9237976" lon="13.1049035"><ele>651.5</ele><time>2026-05-01T13:07:35.93Z</time></trkpt><trkpt lat="42.9238957" lon="13.1047606"><ele>649.75</ele><time>2026-05-01T13:07:36.929Z</time></trkpt><trkpt lat="42.9239855" lon="13.1046053"><ele>648.0</ele><time>2026-05-01T13:07:37.93Z</time></trkpt><trkpt lat="42.9240653" lon="13.1044338"><ele>648.0</ele><time>2026-05-01T13:07:38.93Z</time></trkpt><trkpt lat="42.9241366" lon="13.1042597"><ele>648.0</ele><time>2026-05-01T13:07:39.93Z</time></trkpt><trkpt lat="42.9242161" lon="13.1040784"><ele>648.0</ele><time>2026-05-01T13:07:40.93Z</time></trkpt><trkpt lat="42.9243022" lon="13.1039011"><ele>652.6666666666666</ele><time>2026-05-01T13:07:41.93Z</time></trkpt><trkpt lat="42.9243903" lon="13.103738"><ele>657.3333333333333</ele><time>2026-05-01T13:07:42.93Z</time></trkpt><trkpt lat="42.9244919" lon="13.1035736"><ele>662.0</ele><time>2026-05-01T13:07:43.93Z</time></trkpt><trkpt lat="42.9245986" lon="13.1034099"><ele>657.0</ele><time>2026-05-01T13:07:44.93Z</time></trkpt><trkpt lat="42.9247015" lon="13.1032438"><ele>652.0</ele><time>2026-05-01T13:07:45.93Z</time></trkpt><trkpt lat="42.9248063" lon="13.1030799"><ele>647.0</ele><time>2026-05-01T13:07:46.929Z</time></trkpt><trkpt lat="42.9249095" lon="13.1029232"><ele>647.0</ele><time>2026-05-01T13:07:47.93Z</time></trkpt><trkpt lat="42.9250236" lon="13.102763"><ele>647.0</ele><time>2026-05-01T13:07:48.93Z</time></trkpt><trkpt lat="42.9251344" lon="13.102596"><ele>647.0</ele><time>2026-05-01T13:07:49.929Z</time></trkpt><trkpt lat="42.9252401" lon="13.1024216"><ele>648.6666666666666</ele><time>2026-05-01T13:07:50.929Z</time></trkpt><trkpt lat="42.925345" lon="13.1022504"><ele>650.3333333333334</ele><time>2026-05-01T13:07:51.93Z</time></trkpt><trkpt lat="42.925447" lon="13.1020739"><ele>652.0</ele><time>2026-05-01T13:07:52.929Z</time></trkpt><trkpt lat="42.9255418" lon="13.1018901"><ele>652.0</ele><time>2026-05-01T13:07:53.93Z</time></trkpt><trkpt lat="42.9256341" lon="13.1017137"><ele>652.0</ele><time>2026-05-01T13:07:54.93Z</time></trkpt><trkpt lat="42.9257194" lon="13.1015454"><ele>652.0</ele><time>2026-05-01T13:07:55.93Z</time></trkpt><trkpt lat="42.9257997" lon="13.1013935"><ele>652.0</ele><time>2026-05-01T13:07:56.93Z</time></trkpt><trkpt lat="42.9258684" lon="13.1012387"><ele>658.5</ele><time>2026-05-01T13:07:57.93Z</time></trkpt><trkpt lat="42.9259256" lon="13.1010881"><ele>665.0</ele><time>2026-05-01T13:07:58.93Z</time></trkpt><trkpt lat="42.9259706" lon="13.1009317"><ele>671.5</ele><time>2026-05-01T13:07:59.93Z</time></trkpt><trkpt lat="42.9260008" lon="13.1007732"><ele>678.0</ele><time>2026-05-01T13:08:00.93Z</time></trkpt><trkpt lat="42.9260173" lon="13.1006221"><ele>678.0</ele><time>2026-05-01T13:08:01.93Z</time></trkpt><trkpt lat="42.926033" lon="13.1004764"><ele>678.0</ele><time>2026-05-01T13:08:02.929Z</time></trkpt><trkpt lat="42.9260428" lon="13.1003248"><ele>678.0</ele><time>2026-05-01T13:08:03.93Z</time></trkpt><trkpt lat="42.926047" lon="13.100178"><ele>678.0</ele><time>2026-05-01T13:08:04.929Z</time></trkpt><trkpt lat="42.926028" lon="13.100026"><ele>678.0</ele><time>2026-05-01T13:08:05.929Z</time></trkpt><trkpt lat="42.9260004" lon="13.0998698"><ele>676.75</ele><time>2026-05-01T13:08:06.93Z</time></trkpt><trkpt lat="42.9259776" lon="13.0997134"><ele>675.5</ele><time>2026-05-01T13:08:07.93Z</time></trkpt><trkpt lat="42.9259543" lon="13.0995477"><ele>674.25</ele><time>2026-05-01T13:08:08.929Z</time></trkpt><trkpt lat="42.9259318" lon="13.0993826"><ele>673.0</ele><time>2026-05-01T13:08:09.93Z</time></trkpt><trkpt lat="42.9259425" lon="13.0992011"><ele>668.6666666666667</ele><time>2026-05-01T13:08:10.929Z</time></trkpt><trkpt lat="42.9259975" lon="13.0990042"><ele>664.3333333333334</ele><time>2026-05-01T13:08:11.929Z</time></trkpt><trkpt lat="42.9260871" lon="13.0988074"><ele>660.0</ele><time>2026-05-01T13:08:12.929Z</time></trkpt><trkpt lat="42.9261806" lon="13.0986184"><ele>660.0</ele><time>2026-05-01T13:08:13.93Z</time></trkpt><trkpt lat="42.9262689" lon="13.0984107"><ele>660.0</ele><time>2026-05-01T13:08:14.93Z</time></trkpt><trkpt lat="42.9263486" lon="13.0981782"><ele>660.0</ele><time>2026-05-01T13:08:15.929Z</time></trkpt><trkpt lat="42.9264179" lon="13.0979458"><ele>657.6666666666666</ele><time>2026-05-01T13:08:16.929Z</time></trkpt><trkpt lat="42.9264843" lon="13.0977077"><ele>655.3333333333333</ele><time>2026-05-01T13:08:17.93Z</time></trkpt><trkpt lat="42.9265477" lon="13.0974772"><ele>653.0</ele><time>2026-05-01T13:08:18.93Z</time></trkpt><trkpt lat="42.926595" lon="13.0972489"><ele>652.3333333333333</ele><time>2026-05-01T13:08:19.93Z</time></trkpt><trkpt lat="42.9266511" lon="13.0970337"><ele>651.6666666666666</ele><time>2026-05-01T13:08:20.93Z</time></trkpt><trkpt lat="42.9266807" lon="13.0968208"><ele>651.0</ele><time>2026-05-01T13:08:21.929Z</time></trkpt><trkpt lat="42.9266841" lon="13.0966063"><ele>649.75</ele><time>2026-05-01T13:08:22.93Z</time></trkpt><trkpt lat="42.926672" lon="13.0963935"><ele>648.5</ele><time>2026-05-01T13:08:23.929Z</time></trkpt><trkpt lat="42.9266439" lon="13.0961956"><ele>647.25</ele><time>2026-05-01T13:08:24.929Z</time></trkpt><trkpt lat="42.9266124" lon="13.0960083"><ele>646.0</ele><time>2026-05-01T13:08:25.929Z</time></trkpt><trkpt lat="42.9265847" lon="13.0958319"><ele>644.0</ele><time>2026-05-01T13:08:26.929Z</time></trkpt><trkpt lat="42.9265694" lon="13.0956735"><ele>642.0</ele><time>2026-05-01T13:08:27.93Z</time></trkpt><trkpt lat="42.9265755" lon="13.0955266"><ele>640.0</ele><time>2026-05-01T13:08:28.93Z</time></trkpt><trkpt lat="42.9266207" lon="13.0953829"><ele>638.0</ele><time>2026-05-01T13:08:29.93Z</time></trkpt><trkpt lat="42.9266885" lon="13.0952533"><ele>640.0</ele><time>2026-05-01T13:08:30.93Z</time></trkpt><trkpt lat="42.926739" lon="13.0951042"><ele>642.0</ele><time>2026-05-01T13:08:31.93Z</time></trkpt><trkpt lat="42.9267866" lon="13.0949464"><ele>644.0</ele><time>2026-05-01T13:08:32.929Z</time></trkpt><trkpt lat="42.9268446" lon="13.0948034"><ele>646.0</ele><time>2026-05-01T13:08:33.93Z</time></trkpt><trkpt lat="42.9269111" lon="13.0946703"><ele>646.0</ele><time>2026-05-01T13:08:34.93Z</time></trkpt><trkpt lat="42.9269882" lon="13.0945432"><ele>646.0</ele><time>2026-05-01T13:08:35.93Z</time></trkpt><trkpt lat="42.9270598" lon="13.094424"><ele>646.0</ele><time>2026-05-01T13:08:36.929Z</time></trkpt><trkpt lat="42.9271343" lon="13.0942913"><ele>646.0</ele><time>2026-05-01T13:08:37.93Z</time></trkpt><trkpt lat="42.9272111" lon="13.0941559"><ele>642.5</ele><time>2026-05-01T13:08:38.929Z</time></trkpt><trkpt lat="42.9272828" lon="13.0940211"><ele>639.0</ele><time>2026-05-01T13:08:39.929Z</time></trkpt><trkpt lat="42.9273226" lon="13.0938776"><ele>635.5</ele><time>2026-05-01T13:08:40.929Z</time></trkpt><trkpt lat="42.927339" lon="13.0937216"><ele>632.0</ele><time>2026-05-01T13:08:41.93Z</time></trkpt><trkpt lat="42.9273456" lon="13.0935644"><ele>632.0</ele><time>2026-05-01T13:08:42.93Z</time></trkpt><trkpt lat="42.9273342" lon="13.0934131"><ele>632.0</ele><time>2026-05-01T13:08:43.93Z</time></trkpt><trkpt lat="42.9273151" lon="13.0932689"><ele>632.0</ele><time>2026-05-01T13:08:44.93Z</time></trkpt><trkpt lat="42.9273117" lon="13.0931286"><ele>632.0</ele><time>2026-05-01T13:08:45.93Z</time></trkpt><trkpt lat="42.9273066" lon="13.0930003"><ele>632.0</ele><time>2026-05-01T13:08:46.93Z</time></trkpt><trkpt lat="42.927312" lon="13.092868"><ele>631.4</ele><time>2026-05-01T13:08:47.93Z</time></trkpt><trkpt lat="42.927326" lon="13.0927312"><ele>630.8000000000001</ele><time>2026-05-01T13:08:48.93Z</time></trkpt><trkpt lat="42.9273511" lon="13.0926036"><ele>630.2</ele><time>2026-05-01T13:08:49.93Z</time></trkpt><trkpt lat="42.9273772" lon="13.0924762"><ele>629.6</ele><time>2026-05-01T13:08:50.929Z</time></trkpt><trkpt lat="42.9274177" lon="13.0923499"><ele>629.0</ele><time>2026-05-01T13:08:51.929Z</time></trkpt><trkpt lat="42.927478" lon="13.0922197"><ele>626.5</ele><time>2026-05-01T13:08:52.93Z</time></trkpt><trkpt lat="42.9275544" lon="13.0920976"><ele>624.0</ele><time>2026-05-01T13:08:53.93Z</time></trkpt><trkpt lat="42.9276485" lon="13.0919789"><ele>621.5</ele><time>2026-05-01T13:08:54.929Z</time></trkpt><trkpt lat="42.9277575" lon="13.0918585"><ele>619.0</ele><time>2026-05-01T13:08:55.929Z</time></trkpt><trkpt lat="42.9278676" lon="13.0917564"><ele>619.0</ele><time>2026-05-01T13:08:56.93Z</time></trkpt><trkpt lat="42.9279888" lon="13.0916775"><ele>619.0</ele><time>2026-05-01T13:08:57.93Z</time></trkpt><trkpt lat="42.9281081" lon="13.0915984"><ele>619.0</ele><time>2026-05-01T13:08:58.929Z</time></trkpt><trkpt lat="42.9282124" lon="13.0915167"><ele>619.0</ele><time>2026-05-01T13:08:59.929Z</time></trkpt><trkpt lat="42.9283004" lon="13.0914273"><ele>619.0</ele><time>2026-05-01T13:09:00.93Z</time></trkpt><trkpt lat="42.9283428" lon="13.091304"><ele>619.0</ele><time>2026-05-01T13:09:01.93Z</time></trkpt><trkpt lat="42.9283719" lon="13.0911746"><ele>619.0</ele><time>2026-05-01T13:09:02.929Z</time></trkpt><trkpt lat="42.9284061" lon="13.0910367"><ele>619.0</ele><time>2026-05-01T13:09:03.93Z</time></trkpt><trkpt lat="42.9284485" lon="13.0909127"><ele>619.0</ele><time>2026-05-01T13:09:04.93Z</time></trkpt><trkpt lat="42.9285042" lon="13.0908061"><ele>618.6666666666667</ele><time>2026-05-01T13:09:05.93Z</time></trkpt><trkpt lat="42.9285713" lon="13.090715"><ele>618.3333333333334</ele><time>2026-05-01T13:09:06.929Z</time></trkpt><trkpt lat="42.928637" lon="13.0906289"><ele>618.0</ele><time>2026-05-01T13:09:07.93Z</time></trkpt><trkpt lat="42.9287022" lon="13.0905502"><ele>617.6666666666666</ele><time>2026-05-01T13:09:08.93Z</time></trkpt><trkpt lat="42.9287614" lon="13.0904718"><ele>617.3333333333333</ele><time>2026-05-01T13:09:09.929Z</time></trkpt><trkpt lat="42.9288244" lon="13.0903919"><ele>617.0</ele><time>2026-05-01T13:09:10.93Z</time></trkpt><trkpt lat="42.9288876" lon="13.0902927"><ele>617.0</ele><time>2026-05-01T13:09:11.93Z</time></trkpt><trkpt lat="42.9289247" lon="13.0901644"><ele>617.0</ele><time>2026-05-01T13:09:12.93Z</time></trkpt><trkpt lat="42.9289465" lon="13.0900221"><ele>617.0</ele><time>2026-05-01T13:09:13.93Z</time></trkpt><trkpt lat="42.928971" lon="13.0898646"><ele>617.0</ele><time>2026-05-01T13:09:14.93Z</time></trkpt><trkpt lat="42.9290045" lon="13.0897128"><ele>617.0</ele><time>2026-05-01T13:09:15.93Z</time></trkpt><trkpt lat="42.9290419" lon="13.089556"><ele>616.25</ele><time>2026-05-01T13:09:16.93Z</time></trkpt><trkpt lat="42.9290873" lon="13.0893866"><ele>615.5</ele><time>2026-05-01T13:09:17.93Z</time></trkpt><trkpt lat="42.9291284" lon="13.0892194"><ele>614.75</ele><time>2026-05-01T13:09:18.93Z</time></trkpt><trkpt lat="42.929172" lon="13.0890458"><ele>614.0</ele><time>2026-05-01T13:09:19.93Z</time></trkpt><trkpt lat="42.9292277" lon="13.0888866"><ele>614.0</ele><time>2026-05-01T13:09:20.93Z</time></trkpt><trkpt lat="42.9292768" lon="13.0887164"><ele>614.0</ele><time>2026-05-01T13:09:21.929Z</time></trkpt><trkpt lat="42.9293139" lon="13.0885542"><ele>614.0</ele><time>2026-05-01T13:09:22.93Z</time></trkpt><trkpt lat="42.9293383" lon="13.0883933"><ele>614.0</ele><time>2026-05-01T13:09:23.93Z</time></trkpt><trkpt lat="42.9293563" lon="13.0882404"><ele>614.0</ele><time>2026-05-01T13:09:24.93Z</time></trkpt><trkpt lat="42.9293754" lon="13.0880971"><ele>614.0</ele><time>2026-05-01T13:09:25.93Z</time></trkpt><trkpt lat="42.9293809" lon="13.0879693"><ele>614.0</ele><time>2026-05-01T13:09:26.93Z</time></trkpt><trkpt lat="42.9293968" lon="13.0878449"><ele>614.0</ele><time>2026-05-01T13:09:27.93Z</time></trkpt><trkpt lat="42.9294195" lon="13.0877277"><ele>614.0</ele><time>2026-05-01T13:09:28.93Z</time></trkpt><trkpt lat="42.9294325" lon="13.0876091"><ele>614.0</ele><time>2026-05-01T13:09:29.929Z</time></trkpt><trkpt lat="42.9294643" lon="13.0874925"><ele>614.0</ele><time>2026-05-01T13:09:30.929Z</time></trkpt><trkpt lat="42.9294978" lon="13.0873824"><ele>614.0</ele><time>2026-05-01T13:09:31.93Z</time></trkpt><trkpt lat="42.9295147" lon="13.0872864"><ele>614.0</ele><time>2026-05-01T13:09:32.93Z</time></trkpt><trkpt lat="42.9295415" lon="13.087182"><ele>614.0</ele><time>2026-05-01T13:09:33.93Z</time></trkpt><trkpt lat="42.929578" lon="13.0870918"><ele>614.0</ele><time>2026-05-01T13:09:34.929Z</time></trkpt><trkpt lat="42.929602" lon="13.0870121"><ele>614.2</ele><time>2026-05-01T13:09:35.93Z</time></trkpt><trkpt lat="42.9296342" lon="13.0869354"><ele>614.4</ele><time>2026-05-01T13:09:36.93Z</time></trkpt><trkpt lat="42.9297331" lon="13.0868062"><ele>614.6</ele><time>2026-05-01T13:09:38.929Z</time></trkpt><trkpt lat="42.9297966" lon="13.0867441"><ele>614.8</ele><time>2026-05-01T13:09:39.93Z</time></trkpt><trkpt lat="42.929872" lon="13.0866795"><ele>615.0</ele><time>2026-05-01T13:09:40.93Z</time></trkpt><trkpt lat="42.9299644" lon="13.0866181"><ele>614.8</ele><time>2026-05-01T13:09:41.929Z</time></trkpt><trkpt lat="42.9300654" lon="13.0865523"><ele>614.6</ele><time>2026-05-01T13:09:42.93Z</time></trkpt><trkpt lat="42.9301558" lon="13.0864581"><ele>614.4</ele><time>2026-05-01T13:09:43.93Z</time></trkpt><trkpt lat="42.9302436" lon="13.0863674"><ele>614.2</ele><time>2026-05-01T13:09:44.93Z</time></trkpt><trkpt lat="42.9303288" lon="13.0862839"><ele>614.0</ele><time>2026-05-01T13:09:45.93Z</time></trkpt><trkpt lat="42.93041" lon="13.0862111"><ele>614.0</ele><time>2026-05-01T13:09:46.929Z</time></trkpt><trkpt lat="42.9305001" lon="13.0861483"><ele>614.0</ele><time>2026-05-01T13:09:47.93Z</time></trkpt><trkpt lat="42.9305856" lon="13.0860774"><ele>614.0</ele><time>2026-05-01T13:09:48.93Z</time></trkpt><trkpt lat="42.930666" lon="13.0860094"><ele>614.0</ele><time>2026-05-01T13:09:49.93Z</time></trkpt><trkpt lat="42.9307426" lon="13.0859362"><ele>614.0</ele><time>2026-05-01T13:09:50.93Z</time></trkpt><trkpt lat="42.9308217" lon="13.0858643"><ele>613.3333333333333</ele><time>2026-05-01T13:09:51.93Z</time></trkpt><trkpt lat="42.9308974" lon="13.0858118"><ele>612.6666666666666</ele><time>2026-05-01T13:09:52.93Z</time></trkpt><trkpt lat="42.9309617" lon="13.0857811"><ele>612.0</ele><time>2026-05-01T13:09:53.93Z</time></trkpt><trkpt lat="42.9310552" lon="13.0857799"><ele>611.3333333333334</ele><time>2026-05-01T13:09:55.929Z</time></trkpt><trkpt lat="42.9311173" lon="13.0858156"><ele>610.6666666666667</ele><time>2026-05-01T13:09:57.93Z</time></trkpt><trkpt lat="42.9311641" lon="13.0858877"><ele>610.0</ele><time>2026-05-01T13:10:00.93Z</time></trkpt><trkpt lat="42.9311625" lon="13.0859902"><ele>610.0</ele><time>2026-05-01T13:10:02.93Z</time></trkpt><trkpt lat="42.9311528" lon="13.086098"><ele>610.0</ele><time>2026-05-01T13:10:04.93Z</time></trkpt><trkpt lat="42.9311156" lon="13.0862498"><ele>610.0</ele><time>2026-05-01T13:10:06.93Z</time></trkpt><trkpt lat="42.9310989" lon="13.0863726"><ele>610.0</ele><time>2026-05-01T13:10:08.929Z</time></trkpt><trkpt lat="42.9311014" lon="13.0864797"><ele>610.0</ele><time>2026-05-01T13:10:11.93Z</time></trkpt><trkpt lat="42.9311794" lon="13.0865125"><ele>610.0</ele><time>2026-05-01T13:10:13.93Z</time></trkpt><trkpt lat="42.9312609" lon="13.0864901"><ele>610.0</ele><time>2026-05-01T13:10:15.929Z</time></trkpt><trkpt lat="42.9313217" lon="13.0863949"><ele>610.0</ele><time>2026-05-01T13:10:18.93Z</time></trkpt><trkpt lat="42.931373" lon="13.0863127"><ele>610.0</ele><time>2026-05-01T13:10:20.93Z</time></trkpt><trkpt lat="42.93144" lon="13.086182"><ele>610.0</ele><time>2026-05-01T13:10:22.93Z</time></trkpt><trkpt lat="42.9314776" lon="13.0861127"><ele>610.0</ele><time>2026-05-01T13:10:23.93Z</time></trkpt><trkpt lat="42.9315533" lon="13.0859823"><ele>610.0</ele><time>2026-05-01T13:10:25.93Z</time></trkpt><trkpt lat="42.9316153" lon="13.0858393"><ele>610.0</ele><time>2026-05-01T13:10:27.929Z</time></trkpt><trkpt lat="42.9316922" lon="13.0856981"><ele>610.0</ele><time>2026-05-01T13:10:29.93Z</time></trkpt><trkpt lat="42.9317394" lon="13.0856249"><ele>610.0</ele><time>2026-05-01T13:10:30.929Z</time></trkpt><trkpt lat="42.9317816" lon="13.0855576"><ele>610.0</ele><time>2026-05-01T13:10:31.93Z</time></trkpt><trkpt lat="42.9318641" lon="13.0854446"><ele>609.8</ele><time>2026-05-01T13:10:33.929Z</time></trkpt><trkpt lat="42.9319373" lon="13.0853231"><ele>609.6</ele><time>2026-05-01T13:10:35.929Z</time></trkpt><trkpt lat="42.9320031" lon="13.0851966"><ele>609.4</ele><time>2026-05-01T13:10:37.93Z</time></trkpt><trkpt lat="42.9320701" lon="13.0850833"><ele>609.2</ele><time>2026-05-01T13:10:39.929Z</time></trkpt><trkpt lat="42.9321359" lon="13.0849667"><ele>609.0</ele><time>2026-05-01T13:10:41.93Z</time></trkpt><trkpt lat="42.9321806" lon="13.0848719"><ele>608.8333333333334</ele><time>2026-05-01T13:10:43.93Z</time></trkpt><trkpt lat="42.9322278" lon="13.0847671"><ele>608.6666666666666</ele><time>2026-05-01T13:10:46.929Z</time></trkpt><trkpt lat="42.9322993" lon="13.0846568"><ele>608.5</ele><time>2026-05-01T13:10:49.929Z</time></trkpt><trkpt lat="42.9323385" lon="13.0845879"><ele>608.3333333333333</ele><time>2026-05-01T13:10:50.93Z</time></trkpt><trkpt lat="42.9323806" lon="13.084505"><ele>608.1666666666666</ele><time>2026-05-01T13:10:51.929Z</time></trkpt><trkpt lat="42.9324323" lon="13.0844173"><ele>608.0</ele><time>2026-05-01T13:10:52.93Z</time></trkpt><trkpt lat="42.9324844" lon="13.0843285"><ele>608.0</ele><time>2026-05-01T13:10:53.929Z</time></trkpt><trkpt lat="42.9325467" lon="13.0842223"><ele>608.0</ele><time>2026-05-01T13:10:54.93Z</time></trkpt><trkpt lat="42.9326207" lon="13.0841038"><ele>608.0</ele><time>2026-05-01T13:10:55.93Z</time></trkpt><trkpt lat="42.9327002" lon="13.0839645"><ele>608.0</ele><time>2026-05-01T13:10:56.93Z</time></trkpt><trkpt lat="42.9327784" lon="13.0838235"><ele>608.5</ele><time>2026-05-01T13:10:57.93Z</time></trkpt><trkpt lat="42.9328559" lon="13.0836832"><ele>609.0</ele><time>2026-05-01T13:10:58.929Z</time></trkpt><trkpt lat="42.9329331" lon="13.0835433"><ele>609.5</ele><time>2026-05-01T13:10:59.93Z</time></trkpt><trkpt lat="42.9330101" lon="13.0833925"><ele>610.0</ele><time>2026-05-01T13:11:00.93Z</time></trkpt><trkpt lat="42.9330939" lon="13.0832402"><ele>610.0</ele><time>2026-05-01T13:11:01.93Z</time></trkpt><trkpt lat="42.933178" lon="13.083088"><ele>610.0</ele><time>2026-05-01T13:11:02.929Z</time></trkpt><trkpt lat="42.9332642" lon="13.082937"><ele>610.0</ele><time>2026-05-01T13:11:03.929Z</time></trkpt><trkpt lat="42.9333536" lon="13.0827882"><ele>610.0</ele><time>2026-05-01T13:11:04.93Z</time></trkpt><trkpt lat="42.9334296" lon="13.0826469"><ele>610.25</ele><time>2026-05-01T13:11:05.929Z</time></trkpt><trkpt lat="42.9335121" lon="13.0825"><ele>610.5</ele><time>2026-05-01T13:11:06.93Z</time></trkpt><trkpt lat="42.9335932" lon="13.0823624"><ele>610.75</ele><time>2026-05-01T13:11:07.93Z</time></trkpt><trkpt lat="42.933681" lon="13.0822497"><ele>611.0</ele><time>2026-05-01T13:11:08.93Z</time></trkpt><trkpt lat="42.9337903" lon="13.0821459"><ele>611.0</ele><time>2026-05-01T13:11:09.93Z</time></trkpt><trkpt lat="42.9339114" lon="13.0820776"><ele>611.0</ele><time>2026-05-01T13:11:10.93Z</time></trkpt><trkpt lat="42.9340383" lon="13.0820343"><ele>611.0</ele><time>2026-05-01T13:11:11.93Z</time></trkpt><trkpt lat="42.9341577" lon="13.0820146"><ele>611.0</ele><time>2026-05-01T13:11:12.93Z</time></trkpt><trkpt lat="42.9342804" lon="13.0820187"><ele>611.0</ele><time>2026-05-01T13:11:13.929Z</time></trkpt><trkpt lat="42.9343883" lon="13.0820351"><ele>611.0</ele><time>2026-05-01T13:11:14.929Z</time></trkpt><trkpt lat="42.9344788" lon="13.08206"><ele>611.0</ele><time>2026-05-01T13:11:15.93Z</time></trkpt><trkpt lat="42.9345595" lon="13.0820938"><ele>611.0</ele><time>2026-05-01T13:11:16.93Z</time></trkpt><trkpt lat="42.9346298" lon="13.0821156"><ele>611.0</ele><time>2026-05-01T13:11:17.93Z</time></trkpt><trkpt lat="42.9346963" lon="13.0821368"><ele>611.0</ele><time>2026-05-01T13:11:18.93Z</time></trkpt><trkpt lat="42.9348074" lon="13.0821848"><ele>611.0</ele><time>2026-05-01T13:11:20.93Z</time></trkpt><trkpt lat="42.9348894" lon="13.0822503"><ele>611.0</ele><time>2026-05-01T13:11:22.93Z</time></trkpt><trkpt lat="42.9349733" lon="13.0821648"><ele>611.0</ele><time>2026-05-01T13:14:22.93Z</time></trkpt><trkpt lat="42.9350412" lon="13.0821261"><ele>611.0</ele><time>2026-05-01T13:14:23.93Z</time></trkpt><trkpt lat="42.9351252" lon="13.0821043"><ele>611.0</ele><time>2026-05-01T13:14:24.929Z</time></trkpt><trkpt lat="42.9352447" lon="13.0820898"><ele>611.75</ele><time>2026-05-01T13:14:25.93Z</time></trkpt><trkpt lat="42.935352" lon="13.0820871"><ele>612.5</ele><time>2026-05-01T13:14:26.93Z</time></trkpt><trkpt lat="42.9354627" lon="13.0820887"><ele>613.25</ele><time>2026-05-01T13:14:27.93Z</time></trkpt><trkpt lat="42.9355835" lon="13.082084"><ele>614.0</ele><time>2026-05-01T13:14:28.93Z</time></trkpt><trkpt lat="42.9357027" lon="13.0820793"><ele>614.0</ele><time>2026-05-01T13:14:29.93Z</time></trkpt><trkpt lat="42.9358192" lon="13.0820818"><ele>614.0</ele><time>2026-05-01T13:14:30.93Z</time></trkpt><trkpt lat="42.935927" lon="13.0820871"><ele>614.0</ele><time>2026-05-01T13:14:31.93Z</time></trkpt><trkpt lat="42.9360343" lon="13.0820855"><ele>614.0</ele><time>2026-05-01T13:14:32.93Z</time></trkpt><trkpt lat="42.9361329" lon="13.0820876"><ele>614.0</ele><time>2026-05-01T13:14:33.93Z</time></trkpt><trkpt lat="42.9362315" lon="13.0820873"><ele>614.6</ele><time>2026-05-01T13:14:34.929Z</time></trkpt><trkpt lat="42.9363244" lon="13.0820877"><ele>615.2</ele><time>2026-05-01T13:14:35.93Z</time></trkpt><trkpt lat="42.9364236" lon="13.0820815"><ele>615.8000000000001</ele><time>2026-05-01T13:14:36.929Z</time></trkpt><trkpt lat="42.9365244" lon="13.0820868"><ele>616.4</ele><time>2026-05-01T13:14:37.93Z</time></trkpt><trkpt lat="42.9366289" lon="13.0820915"><ele>617.0</ele><time>2026-05-01T13:14:38.93Z</time></trkpt><trkpt lat="42.9367364" lon="13.0820977"><ele>619.25</ele><time>2026-05-01T13:14:39.93Z</time></trkpt><trkpt lat="42.936851" lon="13.0820973"><ele>621.5</ele><time>2026-05-01T13:14:40.93Z</time></trkpt><trkpt lat="42.9369686" lon="13.082093"><ele>623.75</ele><time>2026-05-01T13:14:41.929Z</time></trkpt><trkpt lat="42.9370916" lon="13.0820957"><ele>626.0</ele><time>2026-05-01T13:14:42.929Z</time></trkpt><trkpt lat="42.9372183" lon="13.0821022"><ele>626.0</ele><time>2026-05-01T13:14:43.93Z</time></trkpt><trkpt lat="42.9373516" lon="13.0821254"><ele>626.0</ele><time>2026-05-01T13:14:44.93Z</time></trkpt><trkpt lat="42.9374868" lon="13.0821526"><ele>626.0</ele><time>2026-05-01T13:14:45.93Z</time></trkpt><trkpt lat="42.9376322" lon="13.0821785"><ele>626.0</ele><time>2026-05-01T13:14:46.93Z</time></trkpt><trkpt lat="42.9377963" lon="13.0822158"><ele>629.0</ele><time>2026-05-01T13:14:47.929Z</time></trkpt><trkpt lat="42.937966" lon="13.0822513"><ele>632.0</ele><time>2026-05-01T13:14:48.93Z</time></trkpt><trkpt lat="42.938139" lon="13.0822858"><ele>635.0</ele><time>2026-05-01T13:14:49.93Z</time></trkpt><trkpt lat="42.938322" lon="13.082311"><ele>634.0</ele><time>2026-05-01T13:14:50.929Z</time></trkpt><trkpt lat="42.9385075" lon="13.0823508"><ele>633.0</ele><time>2026-05-01T13:14:51.929Z</time></trkpt><trkpt lat="42.9387005" lon="13.0823946"><ele>632.0</ele><time>2026-05-01T13:14:52.93Z</time></trkpt><trkpt lat="42.9388997" lon="13.0824431"><ele>632.0</ele><time>2026-05-01T13:14:53.929Z</time></trkpt><trkpt lat="42.9390985" lon="13.0825025"><ele>632.0</ele><time>2026-05-01T13:14:54.93Z</time></trkpt><trkpt lat="42.9392915" lon="13.0825687"><ele>632.0</ele><time>2026-05-01T13:14:55.93Z</time></trkpt><trkpt lat="42.9394776" lon="13.0826465"><ele>632.3333333333333</ele><time>2026-05-01T13:14:56.929Z</time></trkpt><trkpt lat="42.9396554" lon="13.0827321"><ele>632.6666666666666</ele><time>2026-05-01T13:14:57.929Z</time></trkpt><trkpt lat="42.9398208" lon="13.0828109"><ele>633.0</ele><time>2026-05-01T13:14:58.93Z</time></trkpt><trkpt lat="42.9399759" lon="13.0828792"><ele>633.6666666666666</ele><time>2026-05-01T13:14:59.929Z</time></trkpt><trkpt lat="42.9401375" lon="13.0829592"><ele>634.3333333333333</ele><time>2026-05-01T13:15:00.93Z</time></trkpt><trkpt lat="42.9402992" lon="13.0830229"><ele>635.0</ele><time>2026-05-01T13:15:01.93Z</time></trkpt><trkpt lat="42.940466" lon="13.0830894"><ele>635.0</ele><time>2026-05-01T13:15:02.93Z</time></trkpt><trkpt lat="42.9406347" lon="13.0831422"><ele>635.0</ele><time>2026-05-01T13:15:03.93Z</time></trkpt><trkpt lat="42.9408059" lon="13.0831889"><ele>635.0</ele><time>2026-05-01T13:15:04.93Z</time></trkpt><trkpt lat="42.9409845" lon="13.0832344"><ele>635.0</ele><time>2026-05-01T13:15:05.93Z</time></trkpt><trkpt lat="42.9411686" lon="13.0832982"><ele>635.0</ele><time>2026-05-01T13:15:06.93Z</time></trkpt><trkpt lat="42.9413581" lon="13.0833505"><ele>635.0</ele><time>2026-05-01T13:15:07.93Z</time></trkpt><trkpt lat="42.941547" lon="13.0834006"><ele>635.6666666666666</ele><time>2026-05-01T13:15:08.93Z</time></trkpt><trkpt lat="42.9417242" lon="13.0834375"><ele>636.3333333333334</ele><time>2026-05-01T13:15:09.93Z</time></trkpt><trkpt lat="42.9418879" lon="13.0834628"><ele>637.0</ele><time>2026-05-01T13:15:10.929Z</time></trkpt><trkpt lat="42.9420347" lon="13.083489"><ele>637.0</ele><time>2026-05-01T13:15:11.929Z</time></trkpt><trkpt lat="42.942156" lon="13.0834971"><ele>637.0</ele><time>2026-05-01T13:15:12.93Z</time></trkpt><trkpt lat="42.9422827" lon="13.0835039"><ele>637.0</ele><time>2026-05-01T13:15:13.93Z</time></trkpt><trkpt lat="42.9424014" lon="13.0835126"><ele>637.0</ele><time>2026-05-01T13:15:14.93Z</time></trkpt><trkpt lat="42.9425081" lon="13.0835248"><ele>637.0</ele><time>2026-05-01T13:15:15.93Z</time></trkpt><trkpt lat="42.9426169" lon="13.0835278"><ele>637.0</ele><time>2026-05-01T13:15:16.929Z</time></trkpt><trkpt lat="42.9427181" lon="13.0835429"><ele>637.0</ele><time>2026-05-01T13:15:17.93Z</time></trkpt><trkpt lat="42.9428048" lon="13.0835537"><ele>637.0</ele><time>2026-05-01T13:15:18.929Z</time></trkpt><trkpt lat="42.942882" lon="13.0835542"><ele>637.0</ele><time>2026-05-01T13:15:19.929Z</time></trkpt><trkpt lat="42.9429523" lon="13.0835564"><ele>637.0</ele><time>2026-05-01T13:15:20.929Z</time></trkpt><trkpt lat="42.9430211" lon="13.0835396"><ele>637.0</ele><time>2026-05-01T13:15:21.93Z</time></trkpt><trkpt lat="42.9431004" lon="13.0835296"><ele>637.0</ele><time>2026-05-01T13:15:22.929Z</time></trkpt><trkpt lat="42.943204" lon="13.083533"><ele>637.0</ele><time>2026-05-01T13:15:23.93Z</time></trkpt><trkpt lat="42.9433414" lon="13.0835355"><ele>637.0</ele><time>2026-05-01T13:15:24.93Z</time></trkpt><trkpt lat="42.9434743" lon="13.0835399"><ele>638.0</ele><time>2026-05-01T13:15:25.93Z</time></trkpt><trkpt lat="42.9436375" lon="13.083551"><ele>639.0</ele><time>2026-05-01T13:15:26.93Z</time></trkpt><trkpt lat="42.9438313" lon="13.0835442"><ele>640.0</ele><time>2026-05-01T13:15:27.93Z</time></trkpt><trkpt lat="42.9440399" lon="13.0835101"><ele>641.3333333333334</ele><time>2026-05-01T13:15:28.93Z</time></trkpt><trkpt lat="42.9442506" lon="13.0834987"><ele>642.6666666666666</ele><time>2026-05-01T13:15:29.929Z</time></trkpt><trkpt lat="42.9444559" lon="13.0834738"><ele>644.0</ele><time>2026-05-01T13:15:30.93Z</time></trkpt><trkpt lat="42.9446653" lon="13.0834554"><ele>644.0</ele><time>2026-05-01T13:15:31.929Z</time></trkpt><trkpt lat="42.9448637" lon="13.0834277"><ele>644.0</ele><time>2026-05-01T13:15:32.93Z</time></trkpt><trkpt lat="42.9450567" lon="13.0834019"><ele>644.0</ele><time>2026-05-01T13:15:33.93Z</time></trkpt><trkpt lat="42.9452492" lon="13.0833848"><ele>645.0</ele><time>2026-05-01T13:15:34.93Z</time></trkpt><trkpt lat="42.9454337" lon="13.0833606"><ele>646.0</ele><time>2026-05-01T13:15:35.93Z</time></trkpt><trkpt lat="42.9456071" lon="13.0833406"><ele>647.0</ele><time>2026-05-01T13:15:36.929Z</time></trkpt><trkpt lat="42.9457667" lon="13.0833271"><ele>647.75</ele><time>2026-05-01T13:15:37.929Z</time></trkpt><trkpt lat="42.945924" lon="13.0833176"><ele>648.5</ele><time>2026-05-01T13:15:38.93Z</time></trkpt><trkpt lat="42.9460583" lon="13.0833079"><ele>649.25</ele><time>2026-05-01T13:15:39.929Z</time></trkpt><trkpt lat="42.946187" lon="13.0833049"><ele>650.0</ele><time>2026-05-01T13:15:40.929Z</time></trkpt><trkpt lat="42.9463238" lon="13.0833044"><ele>650.0</ele><time>2026-05-01T13:15:41.929Z</time></trkpt><trkpt lat="42.9464553" lon="13.0833333"><ele>650.0</ele><time>2026-05-01T13:15:42.929Z</time></trkpt><trkpt lat="42.9465807" lon="13.0833644"><ele>650.0</ele><time>2026-05-01T13:15:43.929Z</time></trkpt><trkpt lat="42.9467129" lon="13.0834169"><ele>650.0</ele><time>2026-05-01T13:15:44.929Z</time></trkpt><trkpt lat="42.9468594" lon="13.0834729"><ele>651.0</ele><time>2026-05-01T13:15:45.929Z</time></trkpt><trkpt lat="42.9470236" lon="13.0835452"><ele>652.0</ele><time>2026-05-01T13:15:46.93Z</time></trkpt><trkpt lat="42.9472117" lon="13.0836427"><ele>653.0</ele><time>2026-05-01T13:15:47.93Z</time></trkpt><trkpt lat="42.9474141" lon="13.0837623"><ele>653.6666666666666</ele><time>2026-05-01T13:15:48.93Z</time></trkpt><trkpt lat="42.9476099" lon="13.0839"><ele>654.3333333333334</ele><time>2026-05-01T13:15:49.929Z</time></trkpt><trkpt lat="42.94779" lon="13.0840276"><ele>655.0</ele><time>2026-05-01T13:15:50.929Z</time></trkpt><trkpt lat="42.9479534" lon="13.0841108"><ele>659.0</ele><time>2026-05-01T13:15:51.93Z</time></trkpt><trkpt lat="42.9481107" lon="13.0841618"><ele>663.0</ele><time>2026-05-01T13:15:52.93Z</time></trkpt><trkpt lat="42.9482709" lon="13.0841618"><ele>667.0</ele><time>2026-05-01T13:15:53.93Z</time></trkpt><trkpt lat="42.9484476" lon="13.0841186"><ele>666.0</ele><time>2026-05-01T13:15:54.93Z</time></trkpt><trkpt lat="42.9486362" lon="13.0840627"><ele>665.0</ele><time>2026-05-01T13:15:55.93Z</time></trkpt><trkpt lat="42.9488561" lon="13.083996"><ele>664.0</ele><time>2026-05-01T13:15:56.93Z</time></trkpt><trkpt lat="42.9490809" lon="13.0839109"><ele>667.5</ele><time>2026-05-01T13:15:57.93Z</time></trkpt><trkpt lat="42.9493177" lon="13.0837915"><ele>671.0</ele><time>2026-05-01T13:15:58.929Z</time></trkpt><trkpt lat="42.9495353" lon="13.0836629"><ele>671.0</ele><time>2026-05-01T13:15:59.93Z</time></trkpt><trkpt lat="42.9497351" lon="13.083538"><ele>671.0</ele><time>2026-05-01T13:16:00.93Z</time></trkpt><trkpt lat="42.9499407" lon="13.0834475"><ele>671.0</ele><time>2026-05-01T13:16:01.93Z</time></trkpt><trkpt lat="42.9501601" lon="13.0834139"><ele>674.3333333333333</ele><time>2026-05-01T13:16:02.93Z</time></trkpt><trkpt lat="42.9503885" lon="13.0834142"><ele>677.6666666666666</ele><time>2026-05-01T13:16:03.93Z</time></trkpt><trkpt lat="42.950606" lon="13.083394"><ele>681.0</ele><time>2026-05-01T13:16:04.929Z</time></trkpt><trkpt lat="42.9508182" lon="13.0833487"><ele>682.6666666666666</ele><time>2026-05-01T13:16:05.93Z</time></trkpt><trkpt lat="42.9510276" lon="13.0833378"><ele>684.3333333333333</ele><time>2026-05-01T13:16:06.93Z</time></trkpt><trkpt lat="42.9512304" lon="13.0833655"><ele>686.0</ele><time>2026-05-01T13:16:07.929Z</time></trkpt><trkpt lat="42.9514405" lon="13.0833975"><ele>686.0</ele><time>2026-05-01T13:16:08.93Z</time></trkpt><trkpt lat="42.9516792" lon="13.083398"><ele>686.0</ele><time>2026-05-01T13:16:09.93Z</time></trkpt><trkpt lat="42.9519491" lon="13.0833534"><ele>683.0</ele><time>2026-05-01T13:16:10.929Z</time></trkpt><trkpt lat="42.9522198" lon="13.0832869"><ele>680.0</ele><time>2026-05-01T13:16:11.93Z</time></trkpt><trkpt lat="42.9524875" lon="13.0832088"><ele>682.3333333333333</ele><time>2026-05-01T13:16:12.93Z</time></trkpt><trkpt lat="42.9527118" lon="13.0831197"><ele>684.6666666666666</ele><time>2026-05-01T13:16:13.93Z</time></trkpt><trkpt lat="42.95291" lon="13.0830555"><ele>687.0</ele><time>2026-05-01T13:16:14.93Z</time></trkpt><trkpt lat="42.9531013" lon="13.0830566"><ele>687.0</ele><time>2026-05-01T13:16:15.93Z</time></trkpt><trkpt lat="42.9532889" lon="13.083164"><ele>687.0</ele><time>2026-05-01T13:16:16.93Z</time></trkpt><trkpt lat="42.9534836" lon="13.0833013"><ele>687.0</ele><time>2026-05-01T13:16:17.93Z</time></trkpt><trkpt lat="42.9536771" lon="13.0834137"><ele>691.0</ele><time>2026-05-01T13:16:18.93Z</time></trkpt><trkpt lat="42.9538911" lon="13.0834598"><ele>695.0</ele><time>2026-05-01T13:16:19.93Z</time></trkpt><trkpt lat="42.9541124" lon="13.0834488"><ele>699.0</ele><time>2026-05-01T13:16:20.93Z</time></trkpt><trkpt lat="42.9543045" lon="13.0834251"><ele>699.0</ele><time>2026-05-01T13:16:21.93Z</time></trkpt><trkpt lat="42.9544772" lon="13.0834165"><ele>699.0</ele><time>2026-05-01T13:16:22.929Z</time></trkpt><trkpt lat="42.9546184" lon="13.0834501"><ele>699.0</ele><time>2026-05-01T13:16:23.93Z</time></trkpt><trkpt lat="42.9547398" lon="13.0835484"><ele>699.0</ele><time>2026-05-01T13:16:24.93Z</time></trkpt><trkpt lat="42.9548253" lon="13.0837481"><ele>699.0</ele><time>2026-05-01T13:16:25.93Z</time></trkpt><trkpt lat="42.9548759" lon="13.0839922"><ele>699.0</ele><time>2026-05-01T13:16:26.93Z</time></trkpt><trkpt lat="42.9549529" lon="13.0842586"><ele>706.3333333333334</ele><time>2026-05-01T13:16:27.93Z</time></trkpt><trkpt lat="42.955068" lon="13.0845195"><ele>713.6666666666667</ele><time>2026-05-01T13:16:28.93Z</time></trkpt><trkpt lat="42.955205" lon="13.0847477"><ele>721.0</ele><time>2026-05-01T13:16:29.929Z</time></trkpt><trkpt lat="42.9553435" lon="13.0849579"><ele>722.3333333333334</ele><time>2026-05-01T13:16:30.929Z</time></trkpt><trkpt lat="42.9554806" lon="13.0851601"><ele>723.6666666666666</ele><time>2026-05-01T13:16:31.93Z</time></trkpt><trkpt lat="42.9555969" lon="13.0852676"><ele>725.0</ele><time>2026-05-01T13:16:32.93Z</time></trkpt><trkpt lat="42.9557469" lon="13.0852793"><ele>732.0</ele><time>2026-05-01T13:16:33.93Z</time></trkpt><trkpt lat="42.9559124" lon="13.0852523"><ele>739.0</ele><time>2026-05-01T13:16:34.93Z</time></trkpt><trkpt lat="42.9560824" lon="13.0851978"><ele>746.0</ele><time>2026-05-01T13:16:35.93Z</time></trkpt><trkpt lat="42.9562392" lon="13.0851426"><ele>746.0</ele><time>2026-05-01T13:16:36.93Z</time></trkpt><trkpt lat="42.9563525" lon="13.0850734"><ele>746.0</ele><time>2026-05-01T13:16:37.93Z</time></trkpt><trkpt lat="42.9564322" lon="13.0849739"><ele>746.0</ele><time>2026-05-01T13:16:38.93Z</time></trkpt><trkpt lat="42.9564402" lon="13.0848021"><ele>746.0</ele><time>2026-05-01T13:16:39.93Z</time></trkpt><trkpt lat="42.9564036" lon="13.0846211"><ele>744.6666666666666</ele><time>2026-05-01T13:16:40.93Z</time></trkpt><trkpt lat="42.9562838" lon="13.0844261"><ele>743.3333333333334</ele><time>2026-05-01T13:16:41.93Z</time></trkpt><trkpt lat="42.9561486" lon="13.0842275"><ele>742.0</ele><time>2026-05-01T13:16:42.93Z</time></trkpt><trkpt lat="42.9560254" lon="13.084041"><ele>742.0</ele><time>2026-05-01T13:16:43.929Z</time></trkpt><trkpt lat="42.9559231" lon="13.0838869"><ele>742.0</ele><time>2026-05-01T13:16:44.93Z</time></trkpt><trkpt lat="42.9558507" lon="13.0837301"><ele>742.0</ele><time>2026-05-01T13:16:45.93Z</time></trkpt><trkpt lat="42.955896" lon="13.0835173"><ele>742.0</ele><time>2026-05-01T13:16:46.93Z</time></trkpt><trkpt lat="42.9560052" lon="13.0833048"><ele>742.0</ele><time>2026-05-01T13:16:47.93Z</time></trkpt><trkpt lat="42.9561473" lon="13.0831314"><ele>742.0</ele><time>2026-05-01T13:16:48.929Z</time></trkpt><trkpt lat="42.9563014" lon="13.0829987"><ele>736.3333333333334</ele><time>2026-05-01T13:16:49.93Z</time></trkpt><trkpt lat="42.9564771" lon="13.0829084"><ele>730.6666666666666</ele><time>2026-05-01T13:16:50.929Z</time></trkpt><trkpt lat="42.9566427" lon="13.082842"><ele>725.0</ele><time>2026-05-01T13:16:51.929Z</time></trkpt><trkpt lat="42.9567749" lon="13.0828701"><ele>725.0</ele><time>2026-05-01T13:16:52.929Z</time></trkpt><trkpt lat="42.9568874" lon="13.0830532"><ele>725.0</ele><time>2026-05-01T13:16:53.93Z</time></trkpt><trkpt lat="42.9570062" lon="13.0832863"><ele>725.0</ele><time>2026-05-01T13:16:54.929Z</time></trkpt><trkpt lat="42.9571358" lon="13.0835256"><ele>730.0</ele><time>2026-05-01T13:16:55.929Z</time></trkpt><trkpt lat="42.9572716" lon="13.0837201"><ele>735.0</ele><time>2026-05-01T13:16:56.929Z</time></trkpt><trkpt lat="42.9573918" lon="13.0838794"><ele>740.0</ele><time>2026-05-01T13:16:57.93Z</time></trkpt><trkpt lat="42.9574858" lon="13.083967"><ele>742.25</ele><time>2026-05-01T13:16:58.93Z</time></trkpt><trkpt lat="42.9575651" lon="13.0839978"><ele>744.5</ele><time>2026-05-01T13:16:59.93Z</time></trkpt><trkpt lat="42.9576692" lon="13.0840048"><ele>746.75</ele><time>2026-05-01T13:17:00.93Z</time></trkpt><trkpt lat="42.9578022" lon="13.0839563"><ele>749.0</ele><time>2026-05-01T13:17:01.929Z</time></trkpt><trkpt lat="42.9579518" lon="13.0838618"><ele>749.0</ele><time>2026-05-01T13:17:02.929Z</time></trkpt><trkpt lat="42.9581179" lon="13.0837338"><ele>749.0</ele><time>2026-05-01T13:17:03.929Z</time></trkpt><trkpt lat="42.9582687" lon="13.0835562"><ele>749.0</ele><time>2026-05-01T13:17:04.93Z</time></trkpt><trkpt lat="42.9584104" lon="13.0833336"><ele>748.0</ele><time>2026-05-01T13:17:05.93Z</time></trkpt><trkpt lat="42.9585713" lon="13.0831404"><ele>747.0</ele><time>2026-05-01T13:17:06.929Z</time></trkpt><trkpt lat="42.95876" lon="13.0829382"><ele>747.0</ele><time>2026-05-01T13:17:07.93Z</time></trkpt><trkpt lat="42.9589721" lon="13.0827425"><ele>747.0</ele><time>2026-05-01T13:17:08.93Z</time></trkpt><trkpt lat="42.9591883" lon="13.0825492"><ele>749.5</ele><time>2026-05-01T13:17:09.93Z</time></trkpt><trkpt lat="42.9594117" lon="13.0823539"><ele>752.0</ele><time>2026-05-01T13:17:10.93Z</time></trkpt><trkpt lat="42.9596329" lon="13.0821714"><ele>752.0</ele><time>2026-05-01T13:17:11.929Z</time></trkpt><trkpt lat="42.9598447" lon="13.0820167"><ele>752.0</ele><time>2026-05-01T13:17:12.93Z</time></trkpt><trkpt lat="42.9600448" lon="13.081868"><ele>755.6666666666666</ele><time>2026-05-01T13:17:13.93Z</time></trkpt><trkpt lat="42.9602209" lon="13.0817235"><ele>759.3333333333334</ele><time>2026-05-01T13:17:14.93Z</time></trkpt><trkpt lat="42.9603767" lon="13.0815938"><ele>763.0</ele><time>2026-05-01T13:17:15.929Z</time></trkpt><trkpt lat="42.9605239" lon="13.0814659"><ele>771.6666666666667</ele><time>2026-05-01T13:17:16.93Z</time></trkpt><trkpt lat="42.9606621" lon="13.0813507"><ele>780.3333333333334</ele><time>2026-05-01T13:17:17.93Z</time></trkpt><trkpt lat="42.9608144" lon="13.0812448"><ele>789.0</ele><time>2026-05-01T13:17:18.929Z</time></trkpt><trkpt lat="42.9609889" lon="13.0811557"><ele>789.0</ele><time>2026-05-01T13:17:19.93Z</time></trkpt><trkpt lat="42.9612057" lon="13.0810993"><ele>789.0</ele><time>2026-05-01T13:17:20.929Z</time></trkpt><trkpt lat="42.9614432" lon="13.0810717"><ele>789.0</ele><time>2026-05-01T13:17:21.93Z</time></trkpt><trkpt lat="42.9616838" lon="13.0810557"><ele>789.0</ele><time>2026-05-01T13:17:22.929Z</time></trkpt><trkpt lat="42.9619286" lon="13.0810278"><ele>787.0</ele><time>2026-05-01T13:17:23.93Z</time></trkpt><trkpt lat="42.9621675" lon="13.0810079"><ele>785.0</ele><time>2026-05-01T13:17:24.93Z</time></trkpt><trkpt lat="42.9623923" lon="13.0810304"><ele>788.5</ele><time>2026-05-01T13:17:25.93Z</time></trkpt><trkpt lat="42.9626249" lon="13.0810174"><ele>792.0</ele><time>2026-05-01T13:17:26.93Z</time></trkpt><trkpt lat="42.9628518" lon="13.0809942"><ele>782.0</ele><time>2026-05-01T13:17:27.929Z</time></trkpt><trkpt lat="42.9672065" lon="13.0789836"><ele>782.0</ele><time>2026-05-01T13:17:48.93Z</time></trkpt><trkpt lat="42.9673174" lon="13.0788682"><ele>782.0</ele><time>2026-05-01T13:17:49.929Z</time></trkpt><trkpt lat="42.9674122" lon="13.0787698"><ele>782.0</ele><time>2026-05-01T13:17:50.93Z</time></trkpt><trkpt lat="42.9675311" lon="13.0787061"><ele>782.0</ele><time>2026-05-01T13:17:51.93Z</time></trkpt><trkpt lat="42.9676532" lon="13.0786343"><ele>780.4000000000001</ele><time>2026-05-01T13:17:52.93Z</time></trkpt><trkpt lat="42.9677693" lon="13.0785653"><ele>778.8000000000001</ele><time>2026-05-01T13:17:53.929Z</time></trkpt><trkpt lat="42.9678603" lon="13.0785078"><ele>777.2</ele><time>2026-05-01T13:17:54.929Z</time></trkpt><trkpt lat="42.9679429" lon="13.07846"><ele>775.6</ele><time>2026-05-01T13:17:55.929Z</time></trkpt><trkpt lat="42.9680154" lon="13.0784206"><ele>774.0</ele><time>2026-05-01T13:17:56.93Z</time></trkpt><trkpt lat="42.9680812" lon="13.0784049"><ele>774.0</ele><time>2026-05-01T13:17:57.929Z</time></trkpt><trkpt lat="42.9681649" lon="13.0783986"><ele>774.0</ele><time>2026-05-01T13:17:59.93Z</time></trkpt><trkpt lat="42.9681186" lon="13.0783201"><ele>774.0</ele><time>2026-05-01T13:18:37.93Z</time></trkpt><trkpt lat="42.9679943" lon="13.0783952"><ele>774.0</ele><time>2026-05-01T13:18:39.93Z</time></trkpt><trkpt lat="42.9679099" lon="13.0784584"><ele>774.0</ele><time>2026-05-01T13:18:40.93Z</time></trkpt><trkpt lat="42.9678328" lon="13.0785266"><ele>774.0</ele><time>2026-05-01T13:18:41.93Z</time></trkpt><trkpt lat="42.9677718" lon="13.0785969"><ele>774.0</ele><time>2026-05-01T13:18:42.93Z</time></trkpt><trkpt lat="42.9677422" lon="13.0786845"><ele>774.0</ele><time>2026-05-01T13:18:43.929Z</time></trkpt><trkpt lat="42.9677477" lon="13.0787884"><ele>774.0</ele><time>2026-05-01T13:18:44.93Z</time></trkpt><trkpt lat="42.9677865" lon="13.0788867"><ele>774.0</ele><time>2026-05-01T13:18:45.93Z</time></trkpt><trkpt lat="42.967885" lon="13.0789557"><ele>774.0</ele><time>2026-05-01T13:18:46.929Z</time></trkpt><trkpt lat="42.9680233" lon="13.0790231"><ele>774.0</ele><time>2026-05-01T13:18:47.93Z</time></trkpt><trkpt lat="42.9682049" lon="13.0790639"><ele>774.0</ele><time>2026-05-01T13:18:48.93Z</time></trkpt><trkpt lat="42.968407" lon="13.0791085"><ele>774.0</ele><time>2026-05-01T13:18:49.93Z</time></trkpt><trkpt lat="42.9686246" lon="13.0791623"><ele>772.5</ele><time>2026-05-01T13:18:50.929Z</time></trkpt><trkpt lat="42.9688734" lon="13.0792126"><ele>771.0</ele><time>2026-05-01T13:18:51.929Z</time></trkpt><trkpt lat="42.9691431" lon="13.079268"><ele>768.5</ele><time>2026-05-01T13:18:52.93Z</time></trkpt><trkpt lat="42.9694309" lon="13.0793196"><ele>766.0</ele><time>2026-05-01T13:18:53.93Z</time></trkpt><trkpt lat="42.9697348" lon="13.0793545"><ele>764.5</ele><time>2026-05-01T13:18:54.93Z</time></trkpt><trkpt lat="42.9700527" lon="13.079371"><ele>763.0</ele><time>2026-05-01T13:18:55.93Z</time></trkpt><trkpt lat="42.9703708" lon="13.0793748"><ele>763.0</ele><time>2026-05-01T13:18:56.93Z</time></trkpt><trkpt lat="42.9706968" lon="13.0793578"><ele>763.0</ele><time>2026-05-01T13:18:57.93Z</time></trkpt><trkpt lat="42.9710164" lon="13.0793422"><ele>762.0</ele><time>2026-05-01T13:18:58.93Z</time></trkpt><trkpt lat="42.9713219" lon="13.0793223"><ele>761.0</ele><time>2026-05-01T13:18:59.93Z</time></trkpt><trkpt lat="42.9716129" lon="13.0793057"><ele>761.5</ele><time>2026-05-01T13:19:00.93Z</time></trkpt><trkpt lat="42.9718939" lon="13.079283"><ele>762.0</ele><time>2026-05-01T13:19:01.929Z</time></trkpt><trkpt lat="42.9721576" lon="13.0792728"><ele>762.0</ele><time>2026-05-01T13:19:02.93Z</time></trkpt><trkpt lat="42.9724088" lon="13.0792626"><ele>762.0</ele><time>2026-05-01T13:19:03.929Z</time></trkpt><trkpt lat="42.9726422" lon="13.0792435"><ele>761.3333333333334</ele><time>2026-05-01T13:19:04.929Z</time></trkpt><trkpt lat="42.972858" lon="13.0792306"><ele>760.6666666666667</ele><time>2026-05-01T13:19:05.93Z</time></trkpt><trkpt lat="42.9730505" lon="13.0792417"><ele>760.0</ele><time>2026-05-01T13:19:06.929Z</time></trkpt><trkpt lat="42.973226" lon="13.0792878"><ele>757.0</ele><time>2026-05-01T13:19:07.929Z</time></trkpt><trkpt lat="42.9733847" lon="13.0793961"><ele>754.0</ele><time>2026-05-01T13:19:08.93Z</time></trkpt><trkpt lat="42.9735338" lon="13.0795706"><ele>751.0</ele><time>2026-05-01T13:19:09.93Z</time></trkpt><trkpt lat="42.97367" lon="13.0798131"><ele>756.5</ele><time>2026-05-01T13:19:10.93Z</time></trkpt><trkpt lat="42.9737968" lon="13.0800866"><ele>762.0</ele><time>2026-05-01T13:19:11.929Z</time></trkpt><trkpt lat="42.9739391" lon="13.0803825"><ele>762.0</ele><time>2026-05-01T13:19:12.929Z</time></trkpt><trkpt lat="42.9740786" lon="13.0806851"><ele>762.0</ele><time>2026-05-01T13:19:13.93Z</time></trkpt><trkpt lat="42.9742241" lon="13.0809691"><ele>763.0</ele><time>2026-05-01T13:19:14.93Z</time></trkpt><trkpt lat="42.9743639" lon="13.0812355"><ele>764.0</ele><time>2026-05-01T13:19:15.929Z</time></trkpt><trkpt lat="42.9745058" lon="13.0814832"><ele>766.0</ele><time>2026-05-01T13:19:16.929Z</time></trkpt><trkpt lat="42.974629" lon="13.0817238"><ele>768.0</ele><time>2026-05-01T13:19:17.93Z</time></trkpt><trkpt lat="42.9747551" lon="13.0819274"><ele>770.0</ele><time>2026-05-01T13:19:18.93Z</time></trkpt><trkpt lat="42.9748757" lon="13.082105"><ele>770.0</ele><time>2026-05-01T13:19:19.93Z</time></trkpt><trkpt lat="42.9750099" lon="13.0822437"><ele>770.0</ele><time>2026-05-01T13:19:20.93Z</time></trkpt><trkpt lat="42.9751801" lon="13.0823431"><ele>770.0</ele><time>2026-05-01T13:19:21.929Z</time></trkpt><trkpt lat="42.9753839" lon="13.0824008"><ele>772.6666666666667</ele><time>2026-05-01T13:19:22.93Z</time></trkpt><trkpt lat="42.9756031" lon="13.0824511"><ele>775.3333333333333</ele><time>2026-05-01T13:19:23.929Z</time></trkpt><trkpt lat="42.9758063" lon="13.0824899"><ele>778.0</ele><time>2026-05-01T13:19:24.93Z</time></trkpt><trkpt lat="42.9759833" lon="13.0825179"><ele>775.5</ele><time>2026-05-01T13:19:25.93Z</time></trkpt><trkpt lat="42.9761281" lon="13.0825217"><ele>773.0</ele><time>2026-05-01T13:19:26.93Z</time></trkpt><trkpt lat="42.9762591" lon="13.0824709"><ele>770.5</ele><time>2026-05-01T13:19:27.929Z</time></trkpt><trkpt lat="42.9763712" lon="13.082378"><ele>768.0</ele><time>2026-05-01T13:19:28.93Z</time></trkpt><trkpt lat="42.9764772" lon="13.0822307"><ele>768.0</ele><time>2026-05-01T13:19:29.93Z</time></trkpt><trkpt lat="42.9765911" lon="13.0820518"><ele>768.0</ele><time>2026-05-01T13:19:30.93Z</time></trkpt><trkpt lat="42.9767105" lon="13.0818731"><ele>768.0</ele><time>2026-05-01T13:19:31.93Z</time></trkpt><trkpt lat="42.9768514" lon="13.0816965"><ele>767.3333333333334</ele><time>2026-05-01T13:19:32.93Z</time></trkpt><trkpt lat="42.9769973" lon="13.0815398"><ele>766.6666666666667</ele><time>2026-05-01T13:19:33.93Z</time></trkpt><trkpt lat="42.9771471" lon="13.081406"><ele>766.0</ele><time>2026-05-01T13:19:34.93Z</time></trkpt><trkpt lat="42.9772938" lon="13.0813023"><ele>766.0</ele><time>2026-05-01T13:19:35.93Z</time></trkpt><trkpt lat="42.9774346" lon="13.0812081"><ele>766.0</ele><time>2026-05-01T13:19:36.93Z</time></trkpt><trkpt lat="42.9775506" lon="13.0811317"><ele>766.0</ele><time>2026-05-01T13:19:37.93Z</time></trkpt><trkpt lat="42.9776353" lon="13.0810775"><ele>766.0</ele><time>2026-05-01T13:19:38.93Z</time></trkpt><trkpt lat="42.9777183" lon="13.0810534"><ele>764.1999999999999</ele><time>2026-05-01T13:19:39.93Z</time></trkpt><trkpt lat="42.9777826" lon="13.0810476"><ele>762.4</ele><time>2026-05-01T13:19:40.93Z</time></trkpt><trkpt lat="42.9778459" lon="13.0810447"><ele>760.6</ele><time>2026-05-01T13:19:41.931Z</time></trkpt><trkpt lat="42.9779327" lon="13.081162"><ele>758.8</ele><time>2026-05-01T13:19:43.931Z</time></trkpt><trkpt lat="42.9779523" lon="13.0812824"><ele>757.0</ele><time>2026-05-01T13:19:44.931Z</time></trkpt><trkpt lat="42.9779735" lon="13.081439"><ele>758.8</ele><time>2026-05-01T13:19:45.931Z</time></trkpt><trkpt lat="42.9779976" lon="13.0816136"><ele>760.6</ele><time>2026-05-01T13:19:46.93Z</time></trkpt><trkpt lat="42.9780033" lon="13.0817753"><ele>762.4</ele><time>2026-05-01T13:19:47.93Z</time></trkpt><trkpt lat="42.9780162" lon="13.0819105"><ele>764.1999999999999</ele><time>2026-05-01T13:19:48.931Z</time></trkpt><trkpt lat="42.9780501" lon="13.0820143"><ele>766.0</ele><time>2026-05-01T13:19:49.931Z</time></trkpt><trkpt lat="42.9780987" lon="13.0820846"><ele>766.0</ele><time>2026-05-01T13:19:50.931Z</time></trkpt><trkpt lat="42.9781757" lon="13.0820866"><ele>766.0</ele><time>2026-05-01T13:19:51.931Z</time></trkpt><trkpt lat="42.9782835" lon="13.0820441"><ele>766.0</ele><time>2026-05-01T13:19:52.93Z</time></trkpt><trkpt lat="42.9784146" lon="13.0819863"><ele>766.0</ele><time>2026-05-01T13:19:53.931Z</time></trkpt><trkpt lat="42.9785417" lon="13.0818912"><ele>767.3333333333334</ele><time>2026-05-01T13:19:54.931Z</time></trkpt><trkpt lat="42.9786862" lon="13.0817785"><ele>768.6666666666667</ele><time>2026-05-01T13:19:55.931Z</time></trkpt><trkpt lat="42.9788313" lon="13.0816488"><ele>770.0</ele><time>2026-05-01T13:19:56.931Z</time></trkpt><trkpt lat="42.9789823" lon="13.0815318"><ele>767.6666666666667</ele><time>2026-05-01T13:19:57.931Z</time></trkpt><trkpt lat="42.9791392" lon="13.0814132"><ele>765.3333333333334</ele><time>2026-05-01T13:19:58.931Z</time></trkpt><trkpt lat="42.9792913" lon="13.0812935"><ele>763.0</ele><time>2026-05-01T13:19:59.93Z</time></trkpt><trkpt lat="42.9794382" lon="13.081166"><ele>763.0</ele><time>2026-05-01T13:20:00.931Z</time></trkpt><trkpt lat="42.9795685" lon="13.081051"><ele>763.0</ele><time>2026-05-01T13:20:01.931Z</time></trkpt><trkpt lat="42.9796852" lon="13.0809251"><ele>763.0</ele><time>2026-05-01T13:20:02.931Z</time></trkpt><trkpt lat="42.9797815" lon="13.080809"><ele>763.0</ele><time>2026-05-01T13:20:03.93Z</time></trkpt><trkpt lat="42.9798514" lon="13.0807099"><ele>758.5999999999999</ele><time>2026-05-01T13:20:04.931Z</time></trkpt><trkpt lat="42.9799139" lon="13.0806161"><ele>754.1999999999999</ele><time>2026-05-01T13:20:05.931Z</time></trkpt><trkpt lat="42.9799814" lon="13.0805393"><ele>749.8</ele><time>2026-05-01T13:20:06.931Z</time></trkpt><trkpt lat="42.9800471" lon="13.0804996"><ele>745.4</ele><time>2026-05-01T13:20:07.931Z</time></trkpt><trkpt lat="42.9801518" lon="13.0804998"><ele>741.0</ele><time>2026-05-01T13:20:08.93Z</time></trkpt><trkpt lat="42.9802918" lon="13.0805477"><ele>741.0</ele><time>2026-05-01T13:20:09.931Z</time></trkpt><trkpt lat="42.9804428" lon="13.0806065"><ele>741.0</ele><time>2026-05-01T13:20:10.931Z</time></trkpt><trkpt lat="42.9805982" lon="13.0806416"><ele>741.0</ele><time>2026-05-01T13:20:11.931Z</time></trkpt><trkpt lat="42.9807609" lon="13.0806248"><ele>746.3333333333334</ele><time>2026-05-01T13:20:12.931Z</time></trkpt><trkpt lat="42.9808949" lon="13.0805481"><ele>751.6666666666667</ele><time>2026-05-01T13:20:13.931Z</time></trkpt><trkpt lat="42.9810161" lon="13.0804191"><ele>757.0</ele><time>2026-05-01T13:20:14.931Z</time></trkpt><trkpt lat="42.9811383" lon="13.080277"><ele>757.0</ele><time>2026-05-01T13:20:15.93Z</time></trkpt><trkpt lat="42.9812474" lon="13.0801373"><ele>757.0</ele><time>2026-05-01T13:20:16.931Z</time></trkpt><trkpt lat="42.9813249" lon="13.0799938"><ele>757.0</ele><time>2026-05-01T13:20:17.931Z</time></trkpt><trkpt lat="42.9813875" lon="13.0798434"><ele>757.0</ele><time>2026-05-01T13:20:18.93Z</time></trkpt><trkpt lat="42.9814167" lon="13.0796667"><ele>757.0</ele><time>2026-05-01T13:20:19.931Z</time></trkpt><trkpt lat="42.9813947" lon="13.0794779"><ele>757.0</ele><time>2026-05-01T13:20:20.931Z</time></trkpt><trkpt lat="42.9813523" lon="13.0793036"><ele>757.0</ele><time>2026-05-01T13:20:21.931Z</time></trkpt><trkpt lat="42.9812658" lon="13.0791277"><ele>757.0</ele><time>2026-05-01T13:20:22.931Z</time></trkpt><trkpt lat="42.9811628" lon="13.0789741"><ele>757.0</ele><time>2026-05-01T13:20:23.931Z</time></trkpt><trkpt lat="42.9810337" lon="13.0788216"><ele>757.0</ele><time>2026-05-01T13:20:24.93Z</time></trkpt><trkpt lat="42.9809074" lon="13.0786865"><ele>757.0</ele><time>2026-05-01T13:20:25.931Z</time></trkpt><trkpt lat="42.9808088" lon="13.0785614"><ele>751.5</ele><time>2026-05-01T13:20:26.931Z</time></trkpt><trkpt lat="42.9807261" lon="13.0784422"><ele>746.0</ele><time>2026-05-01T13:20:27.931Z</time></trkpt><trkpt lat="42.9806864" lon="13.0782973"><ele>740.5</ele><time>2026-05-01T13:20:28.931Z</time></trkpt><trkpt lat="42.9806986" lon="13.0781258"><ele>735.0</ele><time>2026-05-01T13:20:29.93Z</time></trkpt><trkpt lat="42.9807429" lon="13.0779197"><ele>735.25</ele><time>2026-05-01T13:20:30.931Z</time></trkpt><trkpt lat="42.9808002" lon="13.0777396"><ele>735.5</ele><time>2026-05-01T13:20:31.931Z</time></trkpt><trkpt lat="42.9808817" lon="13.0775891"><ele>735.75</ele><time>2026-05-01T13:20:32.931Z</time></trkpt><trkpt lat="42.9810154" lon="13.0774758"><ele>736.0</ele><time>2026-05-01T13:20:33.93Z</time></trkpt><trkpt lat="42.9811871" lon="13.0774183"><ele>726.3333333333334</ele><time>2026-05-01T13:20:34.931Z</time></trkpt><trkpt lat="42.9814031" lon="13.0773797"><ele>716.6666666666666</ele><time>2026-05-01T13:20:35.93Z</time></trkpt><trkpt lat="42.9816233" lon="13.0773384"><ele>707.0</ele><time>2026-05-01T13:20:36.931Z</time></trkpt><trkpt lat="42.9818425" lon="13.0772889"><ele>707.0</ele><time>2026-05-01T13:20:37.931Z</time></trkpt><trkpt lat="42.9820623" lon="13.0772445"><ele>707.0</ele><time>2026-05-01T13:20:38.931Z</time></trkpt><trkpt lat="42.982292" lon="13.0772031"><ele>707.0</ele><time>2026-05-01T13:20:39.93Z</time></trkpt><trkpt lat="42.9825068" lon="13.077167"><ele>707.0</ele><time>2026-05-01T13:20:40.931Z</time></trkpt><trkpt lat="42.9827041" lon="13.0771354"><ele>707.0</ele><time>2026-05-01T13:20:41.931Z</time></trkpt><trkpt lat="42.9828816" lon="13.0771036"><ele>707.25</ele><time>2026-05-01T13:20:42.931Z</time></trkpt><trkpt lat="42.9830484" lon="13.0770731"><ele>707.5</ele><time>2026-05-01T13:20:43.931Z</time></trkpt><trkpt lat="42.9831865" lon="13.0770356"><ele>707.75</ele><time>2026-05-01T13:20:44.93Z</time></trkpt><trkpt lat="42.9833172" lon="13.0769992"><ele>708.0</ele><time>2026-05-01T13:20:45.931Z</time></trkpt><trkpt lat="42.9834268" lon="13.0769769"><ele>707.1666666666666</ele><time>2026-05-01T13:20:46.931Z</time></trkpt><trkpt lat="42.9835286" lon="13.0769526"><ele>706.3333333333334</ele><time>2026-05-01T13:20:47.931Z</time></trkpt><trkpt lat="42.9836113" lon="13.0769347"><ele>705.5</ele><time>2026-05-01T13:20:48.931Z</time></trkpt><trkpt lat="42.9836777" lon="13.0769415"><ele>704.6666666666667</ele><time>2026-05-01T13:20:49.93Z</time></trkpt><trkpt lat="42.9837739" lon="13.0770349"><ele>703.8333333333334</ele><time>2026-05-01T13:20:51.931Z</time></trkpt><trkpt lat="42.9838045" lon="13.0771244"><ele>703.0</ele><time>2026-05-01T13:20:52.931Z</time></trkpt><trkpt lat="42.9838118" lon="13.0772168"><ele>703.0</ele><time>2026-05-01T13:20:53.931Z</time></trkpt><trkpt lat="42.983773" lon="13.0773881"><ele>703.0</ele><time>2026-05-01T13:20:54.93Z</time></trkpt><trkpt lat="42.9837141" lon="13.0776072"><ele>703.0</ele><time>2026-05-01T13:20:55.931Z</time></trkpt><trkpt lat="42.9836304" lon="13.0778223"><ele>703.25</ele><time>2026-05-01T13:20:56.93Z</time></trkpt><trkpt lat="42.9835438" lon="13.0780198"><ele>703.5</ele><time>2026-05-01T13:20:57.931Z</time></trkpt><trkpt lat="42.9835107" lon="13.0782008"><ele>703.75</ele><time>2026-05-01T13:20:58.931Z</time></trkpt><trkpt lat="42.9835327" lon="13.0783737"><ele>704.0</ele><time>2026-05-01T13:20:59.93Z</time></trkpt><trkpt lat="42.9836009" lon="13.0785227"><ele>703.0</ele><time>2026-05-01T13:21:00.931Z</time></trkpt><trkpt lat="42.983706" lon="13.0786819"><ele>702.0</ele><time>2026-05-01T13:21:01.931Z</time></trkpt><trkpt lat="42.983836" lon="13.0788191"><ele>701.0</ele><time>2026-05-01T13:21:02.931Z</time></trkpt><trkpt lat="42.9839818" lon="13.0789831"><ele>702.0</ele><time>2026-05-01T13:21:03.931Z</time></trkpt><trkpt lat="42.9841369" lon="13.0791595"><ele>703.0</ele><time>2026-05-01T13:21:04.931Z</time></trkpt><trkpt lat="42.9842892" lon="13.0793125"><ele>704.0</ele><time>2026-05-01T13:21:05.931Z</time></trkpt><trkpt lat="42.9844211" lon="13.0794471"><ele>704.0</ele><time>2026-05-01T13:21:06.93Z</time></trkpt><trkpt lat="42.9845483" lon="13.0795562"><ele>704.0</ele><time>2026-05-01T13:21:07.93Z</time></trkpt><trkpt lat="42.9846726" lon="13.0795965"><ele>704.0</ele><time>2026-05-01T13:21:08.931Z</time></trkpt><trkpt lat="42.984817" lon="13.0795397"><ele>704.0</ele><time>2026-05-01T13:21:09.931Z</time></trkpt><trkpt lat="42.9849577" lon="13.0794074"><ele>705.0</ele><time>2026-05-01T13:21:10.931Z</time></trkpt><trkpt lat="42.9851075" lon="13.0792562"><ele>706.0</ele><time>2026-05-01T13:21:11.931Z</time></trkpt><trkpt lat="42.9852626" lon="13.0790911"><ele>707.0</ele><time>2026-05-01T13:21:12.93Z</time></trkpt><trkpt lat="42.9854371" lon="13.0789225"><ele>700.0</ele><time>2026-05-01T13:21:13.931Z</time></trkpt><trkpt lat="42.9856321" lon="13.0787471"><ele>693.0</ele><time>2026-05-01T13:21:14.93Z</time></trkpt><trkpt lat="42.9858451" lon="13.0785641"><ele>694.5</ele><time>2026-05-01T13:21:15.931Z</time></trkpt><trkpt lat="42.9860595" lon="13.0783992"><ele>696.0</ele><time>2026-05-01T13:21:16.931Z</time></trkpt><trkpt lat="42.9862705" lon="13.0782528"><ele>693.6666666666666</ele><time>2026-05-01T13:21:17.931Z</time></trkpt><trkpt lat="42.9864817" lon="13.07813"><ele>691.3333333333333</ele><time>2026-05-01T13:21:18.93Z</time></trkpt><trkpt lat="42.9866822" lon="13.078017"><ele>689.0</ele><time>2026-05-01T13:21:19.931Z</time></trkpt><trkpt lat="42.9868746" lon="13.0779272"><ele>688.0</ele><time>2026-05-01T13:21:20.931Z</time></trkpt><trkpt lat="42.9870608" lon="13.0778491"><ele>687.0</ele><time>2026-05-01T13:21:21.931Z</time></trkpt><trkpt lat="42.9872401" lon="13.077799"><ele>686.0</ele><time>2026-05-01T13:21:22.931Z</time></trkpt><trkpt lat="42.9874087" lon="13.0777232"><ele>687.3333333333333</ele><time>2026-05-01T13:21:23.931Z</time></trkpt><trkpt lat="42.9875672" lon="13.0776457"><ele>688.6666666666666</ele><time>2026-05-01T13:21:24.931Z</time></trkpt><trkpt lat="42.987718" lon="13.0775536"><ele>690.0</ele><time>2026-05-01T13:21:25.931Z</time></trkpt><trkpt lat="42.987869" lon="13.0774599"><ele>689.5</ele><time>2026-05-01T13:21:26.931Z</time></trkpt><trkpt lat="42.9880127" lon="13.0773676"><ele>689.0</ele><time>2026-05-01T13:21:27.931Z</time></trkpt><trkpt lat="42.9881332" lon="13.0772679"><ele>688.5</ele><time>2026-05-01T13:21:28.93Z</time></trkpt><trkpt lat="42.9882158" lon="13.0771481"><ele>688.0</ele><time>2026-05-01T13:21:29.931Z</time></trkpt><trkpt lat="42.9882611" lon="13.0769962"><ele>688.0</ele><time>2026-05-01T13:21:30.93Z</time></trkpt><trkpt lat="42.9882683" lon="13.0768271"><ele>688.0</ele><time>2026-05-01T13:21:31.931Z</time></trkpt><trkpt lat="42.9882318" lon="13.0766493"><ele>688.0</ele><time>2026-05-01T13:21:32.93Z</time></trkpt><trkpt lat="42.9881551" lon="13.0764838"><ele>688.0</ele><time>2026-05-01T13:21:33.931Z</time></trkpt><trkpt lat="42.9880475" lon="13.0763435"><ele>690.0</ele><time>2026-05-01T13:21:34.93Z</time></trkpt><trkpt lat="42.9878968" lon="13.0762262"><ele>692.0</ele><time>2026-05-01T13:21:35.93Z</time></trkpt><trkpt lat="42.9877394" lon="13.0761172"><ele>694.0</ele><time>2026-05-01T13:21:36.931Z</time></trkpt><trkpt lat="42.9875759" lon="13.076006"><ele>691.0</ele><time>2026-05-01T13:21:37.931Z</time></trkpt><trkpt lat="42.98743" lon="13.0759206"><ele>688.0</ele><time>2026-05-01T13:21:38.931Z</time></trkpt><trkpt lat="42.9873135" lon="13.0758425"><ele>685.0</ele><time>2026-05-01T13:21:39.931Z</time></trkpt><trkpt lat="42.9872303" lon="13.0757704"><ele>682.0</ele><time>2026-05-01T13:21:40.931Z</time></trkpt><trkpt lat="42.9871878" lon="13.0756627"><ele>680.75</ele><time>2026-05-01T13:21:41.931Z</time></trkpt><trkpt lat="42.987206" lon="13.0755231"><ele>679.5</ele><time>2026-05-01T13:21:42.931Z</time></trkpt><trkpt lat="42.9872701" lon="13.0753769"><ele>678.25</ele><time>2026-05-01T13:21:43.931Z</time></trkpt><trkpt lat="42.987392" lon="13.0752392"><ele>677.0</ele><time>2026-05-01T13:21:44.93Z</time></trkpt><trkpt lat="42.9875594" lon="13.0751199"><ele>677.0</ele><time>2026-05-01T13:21:45.93Z</time></trkpt><trkpt lat="42.9877511" lon="13.0750052"><ele>677.0</ele><time>2026-05-01T13:21:46.93Z</time></trkpt><trkpt lat="42.9879663" lon="13.0748991"><ele>677.0</ele><time>2026-05-01T13:21:47.931Z</time></trkpt><trkpt lat="42.9881746" lon="13.0748177"><ele>667.6666666666666</ele><time>2026-05-01T13:21:48.931Z</time></trkpt><trkpt lat="42.9883502" lon="13.0747507"><ele>658.3333333333334</ele><time>2026-05-01T13:21:49.931Z</time></trkpt><trkpt lat="42.9884973" lon="13.0747119"><ele>649.0</ele><time>2026-05-01T13:21:50.931Z</time></trkpt><trkpt lat="42.9886221" lon="13.0747041"><ele>649.0</ele><time>2026-05-01T13:21:51.931Z</time></trkpt><trkpt lat="42.9887371" lon="13.0747522"><ele>649.0</ele><time>2026-05-01T13:21:52.931Z</time></trkpt><trkpt lat="42.9888368" lon="13.0748705"><ele>649.0</ele><time>2026-05-01T13:21:53.931Z</time></trkpt><trkpt lat="42.988904" lon="13.075022"><ele>649.0</ele><time>2026-05-01T13:21:54.931Z</time></trkpt><trkpt lat="42.9889666" lon="13.0751832"><ele>653.75</ele><time>2026-05-01T13:21:55.93Z</time></trkpt><trkpt lat="42.9890369" lon="13.0753014"><ele>658.5</ele><time>2026-05-01T13:21:56.931Z</time></trkpt><trkpt lat="42.9891274" lon="13.0753316"><ele>663.25</ele><time>2026-05-01T13:21:57.931Z</time></trkpt><trkpt lat="42.9892264" lon="13.0752605"><ele>668.0</ele><time>2026-05-01T13:21:58.931Z</time></trkpt><trkpt lat="42.9893138" lon="13.0751205"><ele>668.3333333333333</ele><time>2026-05-01T13:21:59.931Z</time></trkpt><trkpt lat="42.9893704" lon="13.0749313"><ele>668.6666666666666</ele><time>2026-05-01T13:22:00.93Z</time></trkpt><trkpt lat="42.9894271" lon="13.0747072"><ele>669.0</ele><time>2026-05-01T13:22:01.931Z</time></trkpt><trkpt lat="42.98951" lon="13.0744857"><ele>669.0</ele><time>2026-05-01T13:22:02.931Z</time></trkpt><trkpt lat="42.9896291" lon="13.0743048"><ele>669.0</ele><time>2026-05-01T13:22:03.931Z</time></trkpt><trkpt lat="42.9897685" lon="13.0741405"><ele>669.0</ele><time>2026-05-01T13:22:04.931Z</time></trkpt><trkpt lat="42.9899146" lon="13.0740003"><ele>667.0</ele><time>2026-05-01T13:22:05.931Z</time></trkpt><trkpt lat="42.9900593" lon="13.0738626"><ele>665.0</ele><time>2026-05-01T13:22:06.931Z</time></trkpt><trkpt lat="42.99017" lon="13.0736691"><ele>663.0</ele><time>2026-05-01T13:22:07.93Z</time></trkpt><trkpt lat="42.9902519" lon="13.0734336"><ele>657.0</ele><time>2026-05-01T13:22:08.93Z</time></trkpt><trkpt lat="42.9903393" lon="13.0732009"><ele>651.0</ele><time>2026-05-01T13:22:09.931Z</time></trkpt><trkpt lat="42.9904689" lon="13.0730012"><ele>645.0</ele><time>2026-05-01T13:22:10.931Z</time></trkpt><trkpt lat="42.9906371" lon="13.0728152"><ele>645.0</ele><time>2026-05-01T13:22:11.93Z</time></trkpt><trkpt lat="42.9908023" lon="13.0726353"><ele>645.0</ele><time>2026-05-01T13:22:12.93Z</time></trkpt><trkpt lat="42.9909617" lon="13.0724575"><ele>645.0</ele><time>2026-05-01T13:22:13.93Z</time></trkpt><trkpt lat="42.9911453" lon="13.0723148"><ele>641.6666666666666</ele><time>2026-05-01T13:22:14.931Z</time></trkpt><trkpt lat="42.9913512" lon="13.0722165"><ele>638.3333333333333</ele><time>2026-05-01T13:22:15.931Z</time></trkpt><trkpt lat="42.991562" lon="13.0721224"><ele>635.0</ele><time>2026-05-01T13:22:16.931Z</time></trkpt><trkpt lat="42.991775" lon="13.072028"><ele>635.0</ele><time>2026-05-01T13:22:17.931Z</time></trkpt><trkpt lat="42.9919887" lon="13.0719706"><ele>635.0</ele><time>2026-05-01T13:22:18.931Z</time></trkpt><trkpt lat="42.9921953" lon="13.0719582"><ele>635.0</ele><time>2026-05-01T13:22:19.931Z</time></trkpt><trkpt lat="42.9923976" lon="13.0719478"><ele>637.6666666666666</ele><time>2026-05-01T13:22:20.93Z</time></trkpt><trkpt lat="42.992595" lon="13.0718616"><ele>640.3333333333334</ele><time>2026-05-01T13:22:21.931Z</time></trkpt><trkpt lat="42.9927891" lon="13.0717165"><ele>643.0</ele><time>2026-05-01T13:22:22.93Z</time></trkpt><trkpt lat="42.9929808" lon="13.071528"><ele>639.5</ele><time>2026-05-01T13:22:23.931Z</time></trkpt><trkpt lat="42.993185" lon="13.0713223"><ele>636.0</ele><time>2026-05-01T13:22:24.931Z</time></trkpt><trkpt lat="42.9933916" lon="13.0710994"><ele>636.0</ele><time>2026-05-01T13:22:25.931Z</time></trkpt><trkpt lat="42.9935981" lon="13.0708831"><ele>636.0</ele><time>2026-05-01T13:22:26.93Z</time></trkpt><trkpt lat="42.993776" lon="13.0706904"><ele>631.6666666666666</ele><time>2026-05-01T13:22:27.93Z</time></trkpt><trkpt lat="42.9939348" lon="13.0705323"><ele>627.3333333333333</ele><time>2026-05-01T13:22:28.931Z</time></trkpt><trkpt lat="42.994073" lon="13.0704242"><ele>623.0</ele><time>2026-05-01T13:22:29.93Z</time></trkpt><trkpt lat="42.9942069" lon="13.0703417"><ele>623.0</ele><time>2026-05-01T13:22:30.931Z</time></trkpt><trkpt lat="42.9943538" lon="13.0702893"><ele>623.0</ele><time>2026-05-01T13:22:31.931Z</time></trkpt><trkpt lat="42.9945221" lon="13.0702784"><ele>623.0</ele><time>2026-05-01T13:22:32.93Z</time></trkpt><trkpt lat="42.9946822" lon="13.0702934"><ele>623.0</ele><time>2026-05-01T13:22:33.931Z</time></trkpt><trkpt lat="42.99483" lon="13.0703008"><ele>623.0</ele><time>2026-05-01T13:22:34.931Z</time></trkpt><trkpt lat="42.9949526" lon="13.0702799"><ele>623.0</ele><time>2026-05-01T13:22:35.93Z</time></trkpt><trkpt lat="42.9950552" lon="13.0701842"><ele>623.0</ele><time>2026-05-01T13:22:36.931Z</time></trkpt><trkpt lat="42.9951326" lon="13.0700261"><ele>628.6666666666666</ele><time>2026-05-01T13:22:37.93Z</time></trkpt><trkpt lat="42.99518" lon="13.0697944"><ele>634.3333333333334</ele><time>2026-05-01T13:22:38.93Z</time></trkpt><trkpt lat="42.9952002" lon="13.0695145"><ele>640.0</ele><time>2026-05-01T13:22:39.931Z</time></trkpt><trkpt lat="42.9952038" lon="13.0692642"><ele>634.3333333333334</ele><time>2026-05-01T13:22:40.931Z</time></trkpt><trkpt lat="42.9952093" lon="13.0690361"><ele>628.6666666666666</ele><time>2026-05-01T13:22:41.931Z</time></trkpt><trkpt lat="42.9952315" lon="13.0688157"><ele>623.0</ele><time>2026-05-01T13:22:42.93Z</time></trkpt><trkpt lat="42.9953092" lon="13.0686022"><ele>623.0</ele><time>2026-05-01T13:22:43.931Z</time></trkpt><trkpt lat="42.9954725" lon="13.0683931"><ele>623.0</ele><time>2026-05-01T13:22:44.93Z</time></trkpt><trkpt lat="42.9956348" lon="13.0681885"><ele>623.0</ele><time>2026-05-01T13:22:45.931Z</time></trkpt><trkpt lat="42.9957847" lon="13.0679878"><ele>625.5</ele><time>2026-05-01T13:22:46.931Z</time></trkpt><trkpt lat="42.995923" lon="13.067749"><ele>628.0</ele><time>2026-05-01T13:22:47.931Z</time></trkpt><trkpt lat="42.9960398" lon="13.0674601"><ele>619.0</ele><time>2026-05-01T13:22:48.931Z</time></trkpt><trkpt lat="42.9961627" lon="13.0671759"><ele>610.0</ele><time>2026-05-01T13:22:49.93Z</time></trkpt><trkpt lat="42.9963185" lon="13.0669022"><ele>610.0</ele><time>2026-05-01T13:22:50.93Z</time></trkpt><trkpt lat="42.996489" lon="13.0666296"><ele>610.0</ele><time>2026-05-01T13:22:51.931Z</time></trkpt><trkpt lat="42.9966593" lon="13.0663753"><ele>611.5</ele><time>2026-05-01T13:22:52.93Z</time></trkpt><trkpt lat="42.9968158" lon="13.0661326"><ele>613.0</ele><time>2026-05-01T13:22:53.931Z</time></trkpt><trkpt lat="42.9969642" lon="13.0659186"><ele>609.0</ele><time>2026-05-01T13:22:54.931Z</time></trkpt><trkpt lat="42.9970959" lon="13.0657214"><ele>605.0</ele><time>2026-05-01T13:22:55.93Z</time></trkpt><trkpt lat="42.9972074" lon="13.0655295"><ele>601.0</ele><time>2026-05-01T13:22:56.93Z</time></trkpt><trkpt lat="42.9972807" lon="13.0653106"><ele>601.0</ele><time>2026-05-01T13:22:57.93Z</time></trkpt><trkpt lat="42.997297" lon="13.0650804"><ele>601.0</ele><time>2026-05-01T13:22:58.931Z</time></trkpt><trkpt lat="42.9972712" lon="13.06483"><ele>601.0</ele><time>2026-05-01T13:22:59.931Z</time></trkpt><trkpt lat="42.9971958" lon="13.0645582"><ele>601.3333333333334</ele><time>2026-05-01T13:23:00.931Z</time></trkpt><trkpt lat="42.9971051" lon="13.0643041"><ele>601.6666666666666</ele><time>2026-05-01T13:23:01.931Z</time></trkpt><trkpt lat="42.9970268" lon="13.0640706"><ele>602.0</ele><time>2026-05-01T13:23:02.93Z</time></trkpt><trkpt lat="42.9969548" lon="13.0638742"><ele>601.4</ele><time>2026-05-01T13:23:03.93Z</time></trkpt><trkpt lat="42.9968924" lon="13.0637231"><ele>600.8000000000001</ele><time>2026-05-01T13:23:04.931Z</time></trkpt><trkpt lat="42.9968423" lon="13.0636054"><ele>600.2</ele><time>2026-05-01T13:23:05.93Z</time></trkpt><trkpt lat="42.996799" lon="13.0635289"><ele>599.6</ele><time>2026-05-01T13:23:06.931Z</time></trkpt><trkpt lat="42.9967453" lon="13.0634367"><ele>599.0</ele><time>2026-05-01T13:23:08.93Z</time></trkpt><trkpt lat="42.9967019" lon="13.0632633"><ele>597.0</ele><time>2026-05-01T13:23:10.931Z</time></trkpt><trkpt lat="42.9966817" lon="13.0630981"><ele>595.0</ele><time>2026-05-01T13:23:11.931Z</time></trkpt><trkpt lat="42.9966702" lon="13.0628909"><ele>593.0</ele><time>2026-05-01T13:23:12.93Z</time></trkpt><trkpt lat="42.9966461" lon="13.0626514"><ele>593.0</ele><time>2026-05-01T13:23:13.931Z</time></trkpt><trkpt lat="42.9966216" lon="13.0623815"><ele>593.0</ele><time>2026-05-01T13:23:14.931Z</time></trkpt><trkpt lat="42.9965855" lon="13.0620889"><ele>593.0</ele><time>2026-05-01T13:23:15.931Z</time></trkpt><trkpt lat="42.9965549" lon="13.0617725"><ele>592.0</ele><time>2026-05-01T13:23:16.931Z</time></trkpt><trkpt lat="42.9965202" lon="13.0614517"><ele>591.0</ele><time>2026-05-01T13:23:17.931Z</time></trkpt><trkpt lat="42.9964925" lon="13.0611368"><ele>591.0</ele><time>2026-05-01T13:23:18.931Z</time></trkpt><trkpt lat="42.9964839" lon="13.0608197"><ele>591.0</ele><time>2026-05-01T13:23:19.931Z</time></trkpt><trkpt lat="42.9965011" lon="13.0605021"><ele>587.5</ele><time>2026-05-01T13:23:20.931Z</time></trkpt><trkpt lat="42.9965356" lon="13.0601875"><ele>584.0</ele><time>2026-05-01T13:23:21.931Z</time></trkpt><trkpt lat="42.9965992" lon="13.0598773"><ele>583.0</ele><time>2026-05-01T13:23:22.93Z</time></trkpt><trkpt lat="42.9966769" lon="13.059578"><ele>582.0</ele><time>2026-05-01T13:23:23.931Z</time></trkpt><trkpt lat="42.9967766" lon="13.0592743"><ele>581.5</ele><time>2026-05-01T13:23:24.931Z</time></trkpt><trkpt lat="42.9968958" lon="13.0589773"><ele>581.0</ele><time>2026-05-01T13:23:25.93Z</time></trkpt><trkpt lat="42.9970173" lon="13.058673"><ele>581.0</ele><time>2026-05-01T13:23:26.931Z</time></trkpt><trkpt lat="42.9971411" lon="13.0583654"><ele>581.0</ele><time>2026-05-01T13:23:27.931Z</time></trkpt><trkpt lat="42.9972672" lon="13.0580469"><ele>580.5</ele><time>2026-05-01T13:23:28.931Z</time></trkpt><trkpt lat="42.9973892" lon="13.0577515"><ele>580.0</ele><time>2026-05-01T13:23:29.931Z</time></trkpt><trkpt lat="42.9975025" lon="13.0574733"><ele>582.3333333333334</ele><time>2026-05-01T13:23:30.931Z</time></trkpt><trkpt lat="42.9976176" lon="13.0572131"><ele>584.6666666666666</ele><time>2026-05-01T13:23:31.931Z</time></trkpt><trkpt lat="42.9977303" lon="13.0569732"><ele>587.0</ele><time>2026-05-01T13:23:32.931Z</time></trkpt><trkpt lat="42.99785" lon="13.0567522"><ele>584.6666666666666</ele><time>2026-05-01T13:23:33.931Z</time></trkpt><trkpt lat="42.9979891" lon="13.0565212"><ele>582.3333333333334</ele><time>2026-05-01T13:23:34.931Z</time></trkpt><trkpt lat="42.9981367" lon="13.0563"><ele>580.0</ele><time>2026-05-01T13:23:35.931Z</time></trkpt><trkpt lat="42.9982902" lon="13.0560604"><ele>581.0</ele><time>2026-05-01T13:23:36.93Z</time></trkpt><trkpt lat="42.9984394" lon="13.055824"><ele>582.0</ele><time>2026-05-01T13:23:37.931Z</time></trkpt><trkpt lat="42.9985925" lon="13.055592"><ele>582.0</ele><time>2026-05-01T13:23:38.931Z</time></trkpt><trkpt lat="42.9987471" lon="13.0553587"><ele>582.0</ele><time>2026-05-01T13:23:39.931Z</time></trkpt><trkpt lat="42.9988937" lon="13.0551236"><ele>583.5</ele><time>2026-05-01T13:23:40.931Z</time></trkpt><trkpt lat="42.9990449" lon="13.0548821"><ele>585.0</ele><time>2026-05-01T13:23:41.93Z</time></trkpt><trkpt lat="42.999196" lon="13.0546466"><ele>585.0</ele><time>2026-05-01T13:23:42.931Z</time></trkpt><trkpt lat="42.9993386" lon="13.054412"><ele>585.0</ele><time>2026-05-01T13:23:43.931Z</time></trkpt><trkpt lat="42.9994781" lon="13.0541823"><ele>585.0</ele><time>2026-05-01T13:23:44.93Z</time></trkpt><trkpt lat="42.9996174" lon="13.0539461"><ele>581.3333333333334</ele><time>2026-05-01T13:23:45.93Z</time></trkpt><trkpt lat="42.9997668" lon="13.0537188"><ele>577.6666666666667</ele><time>2026-05-01T13:23:46.931Z</time></trkpt><trkpt lat="42.9999171" lon="13.0535091"><ele>574.0</ele><time>2026-05-01T13:23:47.931Z</time></trkpt><trkpt lat="43.000066" lon="13.0533057"><ele>573.0</ele><time>2026-05-01T13:23:48.931Z</time></trkpt><trkpt lat="43.000224" lon="13.0531091"><ele>572.0</ele><time>2026-05-01T13:23:49.93Z</time></trkpt><trkpt lat="43.0003951" lon="13.0529108"><ele>571.0</ele><time>2026-05-01T13:23:50.931Z</time></trkpt><trkpt lat="43.00058" lon="13.0527242"><ele>571.0</ele><time>2026-05-01T13:23:51.93Z</time></trkpt><trkpt lat="43.0007678" lon="13.0525334"><ele>571.0</ele><time>2026-05-01T13:23:52.931Z</time></trkpt><trkpt lat="43.000954" lon="13.0523441"><ele>569.0</ele><time>2026-05-01T13:23:53.93Z</time></trkpt><trkpt lat="43.0011414" lon="13.0521506"><ele>567.0</ele><time>2026-05-01T13:23:54.931Z</time></trkpt><trkpt lat="43.0013336" lon="13.0519663"><ele>567.0</ele><time>2026-05-01T13:23:55.931Z</time></trkpt><trkpt lat="43.0015261" lon="13.0517853"><ele>567.0</ele><time>2026-05-01T13:23:56.931Z</time></trkpt><trkpt lat="43.0017135" lon="13.0515995"><ele>567.0</ele><time>2026-05-01T13:23:57.931Z</time></trkpt><trkpt lat="43.0018998" lon="13.0514209"><ele>567.0</ele><time>2026-05-01T13:23:58.931Z</time></trkpt><trkpt lat="43.0020886" lon="13.0512494"><ele>567.0</ele><time>2026-05-01T13:23:59.931Z</time></trkpt><trkpt lat="43.002271" lon="13.0510887"><ele>567.0</ele><time>2026-05-01T13:24:00.931Z</time></trkpt><trkpt lat="43.0024519" lon="13.0509406"><ele>567.0</ele><time>2026-05-01T13:24:01.93Z</time></trkpt><trkpt lat="43.0026361" lon="13.0508018"><ele>567.0</ele><time>2026-05-01T13:24:02.931Z</time></trkpt><trkpt lat="43.0028065" lon="13.0506648"><ele>567.0</ele><time>2026-05-01T13:24:03.931Z</time></trkpt><trkpt lat="43.0029744" lon="13.0505396"><ele>567.0</ele><time>2026-05-01T13:24:04.931Z</time></trkpt><trkpt lat="43.0031459" lon="13.0504097"><ele>567.0</ele><time>2026-05-01T13:24:05.931Z</time></trkpt><trkpt lat="43.0033167" lon="13.0502925"><ele>567.0</ele><time>2026-05-01T13:24:06.931Z</time></trkpt><trkpt lat="43.0034871" lon="13.0501659"><ele>567.0</ele><time>2026-05-01T13:24:07.931Z</time></trkpt><trkpt lat="43.0036558" lon="13.0500393"><ele>566.6666666666666</ele><time>2026-05-01T13:24:08.93Z</time></trkpt><trkpt lat="43.0038292" lon="13.0499114"><ele>566.3333333333333</ele><time>2026-05-01T13:24:09.931Z</time></trkpt><trkpt lat="43.0039987" lon="13.0497954"><ele>566.0</ele><time>2026-05-01T13:24:10.931Z</time></trkpt><trkpt lat="43.0041717" lon="13.0496818"><ele>564.6666666666666</ele><time>2026-05-01T13:24:11.93Z</time></trkpt><trkpt lat="43.0043519" lon="13.0495903"><ele>563.3333333333334</ele><time>2026-05-01T13:24:12.93Z</time></trkpt><trkpt lat="43.0045295" lon="13.0495089"><ele>562.0</ele><time>2026-05-01T13:24:13.931Z</time></trkpt><trkpt lat="43.0047125" lon="13.0494301"><ele>562.0</ele><time>2026-05-01T13:24:14.931Z</time></trkpt><trkpt lat="43.0049096" lon="13.0493603"><ele>562.0</ele><time>2026-05-01T13:24:15.931Z</time></trkpt><trkpt lat="43.0051143" lon="13.0492855"><ele>562.0</ele><time>2026-05-01T13:24:16.931Z</time></trkpt><trkpt lat="43.0053126" lon="13.0492131"><ele>561.3333333333334</ele><time>2026-05-01T13:24:17.931Z</time></trkpt><trkpt lat="43.0055061" lon="13.049138"><ele>560.6666666666666</ele><time>2026-05-01T13:24:18.931Z</time></trkpt><trkpt lat="43.0056887" lon="13.0490597"><ele>560.0</ele><time>2026-05-01T13:24:19.931Z</time></trkpt><trkpt lat="43.0058695" lon="13.0489852"><ele>560.0</ele><time>2026-05-01T13:24:20.931Z</time></trkpt><trkpt lat="43.0060558" lon="13.0489188"><ele>560.0</ele><time>2026-05-01T13:24:21.931Z</time></trkpt><trkpt lat="43.0062499" lon="13.048852"><ele>560.0</ele><time>2026-05-01T13:24:22.93Z</time></trkpt><trkpt lat="43.0064646" lon="13.0487913"><ele>558.5</ele><time>2026-05-01T13:24:23.931Z</time></trkpt><trkpt lat="43.0067027" lon="13.0487484"><ele>557.0</ele><time>2026-05-01T13:24:24.931Z</time></trkpt><trkpt lat="43.0069526" lon="13.0487149"><ele>557.0</ele><time>2026-05-01T13:24:25.93Z</time></trkpt><trkpt lat="43.0072191" lon="13.0486807"><ele>557.0</ele><time>2026-05-01T13:24:26.93Z</time></trkpt><trkpt lat="43.0074865" lon="13.0486418"><ele>557.5</ele><time>2026-05-01T13:24:27.931Z</time></trkpt><trkpt lat="43.0077536" lon="13.0485989"><ele>558.0</ele><time>2026-05-01T13:24:28.931Z</time></trkpt><trkpt lat="43.0080101" lon="13.0485304"><ele>558.0</ele><time>2026-05-01T13:24:29.93Z</time></trkpt><trkpt lat="43.0082604" lon="13.0484614"><ele>558.0</ele><time>2026-05-01T13:24:30.931Z</time></trkpt><trkpt lat="43.0084923" lon="13.0483817"><ele>558.3333333333334</ele><time>2026-05-01T13:24:31.931Z</time></trkpt><trkpt lat="43.0086862" lon="13.0483066"><ele>558.6666666666667</ele><time>2026-05-01T13:24:32.931Z</time></trkpt><trkpt lat="43.0088536" lon="13.048245"><ele>559.0</ele><time>2026-05-01T13:24:33.931Z</time></trkpt><trkpt lat="43.0090113" lon="13.0481876"><ele>557.0</ele><time>2026-05-01T13:24:34.93Z</time></trkpt><trkpt lat="43.0091635" lon="13.0481348"><ele>555.0</ele><time>2026-05-01T13:24:35.931Z</time></trkpt><trkpt lat="43.0093115" lon="13.0480808"><ele>553.0</ele><time>2026-05-01T13:24:36.931Z</time></trkpt><trkpt lat="43.0094565" lon="13.0480163"><ele>553.0</ele><time>2026-05-01T13:24:37.93Z</time></trkpt><trkpt lat="43.0096122" lon="13.0479577"><ele>553.0</ele><time>2026-05-01T13:24:38.931Z</time></trkpt><trkpt lat="43.0097837" lon="13.047901"><ele>553.0</ele><time>2026-05-01T13:24:39.93Z</time></trkpt><trkpt lat="43.0099618" lon="13.0478632"><ele>552.3333333333334</ele><time>2026-05-01T13:24:40.931Z</time></trkpt><trkpt lat="43.0101357" lon="13.0478321"><ele>551.6666666666666</ele><time>2026-05-01T13:24:41.931Z</time></trkpt><trkpt lat="43.0103118" lon="13.0478211"><ele>551.0</ele><time>2026-05-01T13:24:42.931Z</time></trkpt><trkpt lat="43.0105009" lon="13.0478306"><ele>551.0</ele><time>2026-05-01T13:24:43.931Z</time></trkpt><trkpt lat="43.0107035" lon="13.0478476"><ele>551.0</ele><time>2026-05-01T13:24:44.93Z</time></trkpt><trkpt lat="43.0109027" lon="13.0478508"><ele>551.0</ele><time>2026-05-01T13:24:45.93Z</time></trkpt><trkpt lat="43.0110836" lon="13.0478559"><ele>551.3333333333333</ele><time>2026-05-01T13:24:46.931Z</time></trkpt><trkpt lat="43.0112399" lon="13.0478454"><ele>551.6666666666666</ele><time>2026-05-01T13:24:47.931Z</time></trkpt><trkpt lat="43.0113859" lon="13.0478399"><ele>552.0</ele><time>2026-05-01T13:24:48.931Z</time></trkpt><trkpt lat="43.0115319" lon="13.0478703"><ele>552.3333333333334</ele><time>2026-05-01T13:24:49.931Z</time></trkpt><trkpt lat="43.011683" lon="13.0479292"><ele>552.6666666666667</ele><time>2026-05-01T13:24:50.931Z</time></trkpt><trkpt lat="43.0118305" lon="13.0480202"><ele>553.0</ele><time>2026-05-01T13:24:51.931Z</time></trkpt><trkpt lat="43.0119996" lon="13.0481305"><ele>553.0</ele><time>2026-05-01T13:24:52.93Z</time></trkpt><trkpt lat="43.0121735" lon="13.0482644"><ele>553.0</ele><time>2026-05-01T13:24:53.931Z</time></trkpt><trkpt lat="43.0123524" lon="13.0484038"><ele>553.0</ele><time>2026-05-01T13:24:54.931Z</time></trkpt><trkpt lat="43.0125118" lon="13.0485494"><ele>555.3333333333334</ele><time>2026-05-01T13:24:55.931Z</time></trkpt><trkpt lat="43.0126438" lon="13.0486817"><ele>557.6666666666666</ele><time>2026-05-01T13:24:56.931Z</time></trkpt><trkpt lat="43.012759" lon="13.0488232"><ele>560.0</ele><time>2026-05-01T13:24:57.931Z</time></trkpt><trkpt lat="43.012866" lon="13.0490088"><ele>563.0</ele><time>2026-05-01T13:24:58.931Z</time></trkpt><trkpt lat="43.0129978" lon="13.0492113"><ele>566.0</ele><time>2026-05-01T13:24:59.931Z</time></trkpt><trkpt lat="43.0131496" lon="13.0493991"><ele>569.0</ele><time>2026-05-01T13:25:00.931Z</time></trkpt><trkpt lat="43.0133053" lon="13.0495661"><ele>567.0</ele><time>2026-05-01T13:25:01.931Z</time></trkpt><trkpt lat="43.0134664" lon="13.0497116"><ele>565.0</ele><time>2026-05-01T13:25:02.931Z</time></trkpt><trkpt lat="43.013649" lon="13.0498053"><ele>563.0</ele><time>2026-05-01T13:25:03.931Z</time></trkpt><trkpt lat="43.0138352" lon="13.0498834"><ele>565.0</ele><time>2026-05-01T13:25:04.931Z</time></trkpt><trkpt lat="43.0140215" lon="13.0499733"><ele>567.0</ele><time>2026-05-01T13:25:05.93Z</time></trkpt><trkpt lat="43.0141968" lon="13.0500579"><ele>569.0</ele><time>2026-05-01T13:25:06.931Z</time></trkpt><trkpt lat="43.0143587" lon="13.0501637"><ele>569.5</ele><time>2026-05-01T13:25:07.931Z</time></trkpt><trkpt lat="43.0145057" lon="13.0502566"><ele>570.0</ele><time>2026-05-01T13:25:08.931Z</time></trkpt><trkpt lat="43.0146389" lon="13.0503443"><ele>570.5</ele><time>2026-05-01T13:25:09.931Z</time></trkpt><trkpt lat="43.0147572" lon="13.0504226"><ele>571.0</ele><time>2026-05-01T13:25:10.931Z</time></trkpt><trkpt lat="43.01487" lon="13.0504839"><ele>571.0</ele><time>2026-05-01T13:25:11.93Z</time></trkpt><trkpt lat="43.0149773" lon="13.0505059"><ele>571.0</ele><time>2026-05-01T13:25:12.931Z</time></trkpt><trkpt lat="43.0150708" lon="13.0505055"><ele>571.0</ele><time>2026-05-01T13:25:13.931Z</time></trkpt><trkpt lat="43.0151531" lon="13.050517"><ele>571.0</ele><time>2026-05-01T13:25:14.931Z</time></trkpt><trkpt lat="43.0152155" lon="13.0505406"><ele>571.0</ele><time>2026-05-01T13:25:15.931Z</time></trkpt><trkpt lat="43.015315" lon="13.0506965"><ele>572.75</ele><time>2026-05-01T13:25:25.931Z</time></trkpt><trkpt lat="43.0153927" lon="13.0508118"><ele>574.5</ele><time>2026-05-01T13:25:26.931Z</time></trkpt><trkpt lat="43.0154701" lon="13.0509355"><ele>576.25</ele><time>2026-05-01T13:25:27.931Z</time></trkpt><trkpt lat="43.0155475" lon="13.0510788"><ele>578.0</ele><time>2026-05-01T13:25:28.931Z</time></trkpt><trkpt lat="43.0156195" lon="13.0512285"><ele>578.0</ele><time>2026-05-01T13:25:29.93Z</time></trkpt><trkpt lat="43.0156986" lon="13.0513779"><ele>578.0</ele><time>2026-05-01T13:25:30.931Z</time></trkpt><trkpt lat="43.0157967" lon="13.0515257"><ele>578.0</ele><time>2026-05-01T13:25:31.93Z</time></trkpt><trkpt lat="43.0159316" lon="13.0516554"><ele>578.0</ele><time>2026-05-01T13:25:32.93Z</time></trkpt><trkpt lat="43.0160895" lon="13.0517937"><ele>577.0</ele><time>2026-05-01T13:25:33.931Z</time></trkpt><trkpt lat="43.0162377" lon="13.0519244"><ele>576.0</ele><time>2026-05-01T13:25:34.931Z</time></trkpt><trkpt lat="43.0163758" lon="13.0520493"><ele>575.0</ele><time>2026-05-01T13:25:35.93Z</time></trkpt><trkpt lat="43.0164941" lon="13.0521591"><ele>575.0</ele><time>2026-05-01T13:25:36.931Z</time></trkpt><trkpt lat="43.0165921" lon="13.052272"><ele>575.0</ele><time>2026-05-01T13:25:37.93Z</time></trkpt><trkpt lat="43.0166843" lon="13.0523979"><ele>575.0</ele><time>2026-05-01T13:25:38.931Z</time></trkpt><trkpt lat="43.0167705" lon="13.0525274"><ele>575.0</ele><time>2026-05-01T13:25:39.931Z</time></trkpt><trkpt lat="43.0168466" lon="13.0526665"><ele>576.0</ele><time>2026-05-01T13:25:40.93Z</time></trkpt><trkpt lat="43.0169284" lon="13.0528194"><ele>577.0</ele><time>2026-05-01T13:25:41.93Z</time></trkpt><trkpt lat="43.0170118" lon="13.0530043"><ele>578.0</ele><time>2026-05-01T13:25:42.931Z</time></trkpt><trkpt lat="43.0170881" lon="13.0532124"><ele>579.3333333333333</ele><time>2026-05-01T13:25:43.931Z</time></trkpt><trkpt lat="43.0171643" lon="13.0534129"><ele>580.6666666666666</ele><time>2026-05-01T13:25:44.931Z</time></trkpt><trkpt lat="43.017232" lon="13.0536085"><ele>582.0</ele><time>2026-05-01T13:25:45.931Z</time></trkpt><trkpt lat="43.0172982" lon="13.0537862"><ele>582.0</ele><time>2026-05-01T13:25:46.931Z</time></trkpt><trkpt lat="43.017366" lon="13.0539567"><ele>582.0</ele><time>2026-05-01T13:25:47.93Z</time></trkpt><trkpt lat="43.0174315" lon="13.0541079"><ele>582.0</ele><time>2026-05-01T13:25:48.93Z</time></trkpt><trkpt lat="43.0174963" lon="13.0542456"><ele>582.0</ele><time>2026-05-01T13:25:49.931Z</time></trkpt><trkpt lat="43.0175601" lon="13.0543881"><ele>581.25</ele><time>2026-05-01T13:25:50.931Z</time></trkpt><trkpt lat="43.0176285" lon="13.054543"><ele>580.5</ele><time>2026-05-01T13:25:51.931Z</time></trkpt><trkpt lat="43.0177042" lon="13.0547025"><ele>579.75</ele><time>2026-05-01T13:25:52.93Z</time></trkpt><trkpt lat="43.0177944" lon="13.0548658"><ele>579.0</ele><time>2026-05-01T13:25:53.93Z</time></trkpt><trkpt lat="43.0178988" lon="13.0550298"><ele>579.0</ele><time>2026-05-01T13:25:54.931Z</time></trkpt><trkpt lat="43.0180114" lon="13.0551894"><ele>579.0</ele><time>2026-05-01T13:25:55.931Z</time></trkpt><trkpt lat="43.0181218" lon="13.0553344"><ele>579.0</ele><time>2026-05-01T13:25:56.931Z</time></trkpt><trkpt lat="43.01823" lon="13.0554629"><ele>577.2</ele><time>2026-05-01T13:25:57.931Z</time></trkpt><trkpt lat="43.0183244" lon="13.0555773"><ele>575.4</ele><time>2026-05-01T13:25:58.93Z</time></trkpt><trkpt lat="43.018398" lon="13.0556757"><ele>573.6</ele><time>2026-05-01T13:25:59.93Z</time></trkpt><trkpt lat="43.018462" lon="13.0557836"><ele>571.8</ele><time>2026-05-01T13:26:00.931Z</time></trkpt><trkpt lat="43.0185103" lon="13.0559141"><ele>570.0</ele><time>2026-05-01T13:26:01.93Z</time></trkpt><trkpt lat="43.0185448" lon="13.0561101"><ele>570.0</ele><time>2026-05-01T13:26:02.931Z</time></trkpt><trkpt lat="43.0185793" lon="13.0563386"><ele>570.0</ele><time>2026-05-01T13:26:03.931Z</time></trkpt><trkpt lat="43.0186277" lon="13.0565906"><ele>570.0</ele><time>2026-05-01T13:26:04.931Z</time></trkpt><trkpt lat="43.0187004" lon="13.0568698"><ele>570.0</ele><time>2026-05-01T13:26:05.931Z</time></trkpt><trkpt lat="43.0187938" lon="13.0571592"><ele>570.0</ele><time>2026-05-01T13:26:06.93Z</time></trkpt><trkpt lat="43.0188851" lon="13.0574544"><ele>571.0</ele><time>2026-05-01T13:26:07.931Z</time></trkpt><trkpt lat="43.0189765" lon="13.0577541"><ele>572.0</ele><time>2026-05-01T13:26:08.931Z</time></trkpt><trkpt lat="43.0190609" lon="13.058044"><ele>572.3333333333333</ele><time>2026-05-01T13:26:09.931Z</time></trkpt><trkpt lat="43.0191373" lon="13.0583339"><ele>572.6666666666666</ele><time>2026-05-01T13:26:10.931Z</time></trkpt><trkpt lat="43.0192005" lon="13.0586153"><ele>573.0</ele><time>2026-05-01T13:26:11.931Z</time></trkpt><trkpt lat="43.0192249" lon="13.0588721"><ele>570.75</ele><time>2026-05-01T13:26:12.931Z</time></trkpt><trkpt lat="43.0192549" lon="13.0590895"><ele>568.5</ele><time>2026-05-01T13:26:13.931Z</time></trkpt><trkpt lat="43.0193028" lon="13.059249"><ele>566.25</ele><time>2026-05-01T13:26:14.931Z</time></trkpt><trkpt lat="43.0194048" lon="13.0593969"><ele>564.0</ele><time>2026-05-01T13:26:15.931Z</time></trkpt><trkpt lat="43.0195365" lon="13.0595385"><ele>563.6666666666666</ele><time>2026-05-01T13:26:16.931Z</time></trkpt><trkpt lat="43.0196647" lon="13.0596759"><ele>563.3333333333333</ele><time>2026-05-01T13:26:17.931Z</time></trkpt><trkpt lat="43.01978" lon="13.0598413"><ele>563.0</ele><time>2026-05-01T13:26:18.931Z</time></trkpt><trkpt lat="43.0198732" lon="13.0600356"><ele>563.0</ele><time>2026-05-01T13:26:19.931Z</time></trkpt><trkpt lat="43.0199481" lon="13.0602647"><ele>563.0</ele><time>2026-05-01T13:26:20.931Z</time></trkpt><trkpt lat="43.0200105" lon="13.0605124"><ele>563.0</ele><time>2026-05-01T13:26:21.93Z</time></trkpt><trkpt lat="43.0200737" lon="13.0607684"><ele>565.0</ele><time>2026-05-01T13:26:22.931Z</time></trkpt><trkpt lat="43.0201345" lon="13.0609939"><ele>567.0</ele><time>2026-05-01T13:26:23.931Z</time></trkpt><trkpt lat="43.0201954" lon="13.0611864"><ele>569.0</ele><time>2026-05-01T13:26:24.93Z</time></trkpt><trkpt lat="43.020281" lon="13.0613474"><ele>569.0</ele><time>2026-05-01T13:26:25.931Z</time></trkpt><trkpt lat="43.0203699" lon="13.0615087"><ele>569.0</ele><time>2026-05-01T13:26:26.93Z</time></trkpt><trkpt lat="43.0204803" lon="13.0616279"><ele>569.0</ele><time>2026-05-01T13:26:27.931Z</time></trkpt><trkpt lat="43.0206098" lon="13.0616969"><ele>569.0</ele><time>2026-05-01T13:26:28.931Z</time></trkpt><trkpt lat="43.0207562" lon="13.0617394"><ele>570.0</ele><time>2026-05-01T13:26:29.931Z</time></trkpt><trkpt lat="43.0208968" lon="13.061779"><ele>571.0</ele><time>2026-05-01T13:26:30.93Z</time></trkpt><trkpt lat="43.0210242" lon="13.061864"><ele>572.0</ele><time>2026-05-01T13:26:31.931Z</time></trkpt><trkpt lat="43.0211407" lon="13.0620011"><ele>573.0</ele><time>2026-05-01T13:26:32.93Z</time></trkpt><trkpt lat="43.0212796" lon="13.0621761"><ele>573.0</ele><time>2026-05-01T13:26:33.93Z</time></trkpt><trkpt lat="43.0214366" lon="13.0623441"><ele>573.0</ele><time>2026-05-01T13:26:34.931Z</time></trkpt><trkpt lat="43.0216049" lon="13.0624976"><ele>573.0</ele><time>2026-05-01T13:26:35.93Z</time></trkpt><trkpt lat="43.0217949" lon="13.0626452"><ele>574.6666666666666</ele><time>2026-05-01T13:26:36.931Z</time></trkpt><trkpt lat="43.0219766" lon="13.0627662"><ele>576.3333333333333</ele><time>2026-05-01T13:26:37.93Z</time></trkpt><trkpt lat="43.0221545" lon="13.0628648"><ele>578.0</ele><time>2026-05-01T13:26:38.931Z</time></trkpt><trkpt lat="43.0223075" lon="13.0629557"><ele>578.0</ele><time>2026-05-01T13:26:39.931Z</time></trkpt><trkpt lat="43.0224399" lon="13.0630281"><ele>578.0</ele><time>2026-05-01T13:26:40.931Z</time></trkpt><trkpt lat="43.0225386" lon="13.0631102"><ele>578.0</ele><time>2026-05-01T13:26:41.931Z</time></trkpt><trkpt lat="43.0226081" lon="13.0632499"><ele>578.0</ele><time>2026-05-01T13:26:42.93Z</time></trkpt><trkpt lat="43.0226605" lon="13.0634287"><ele>580.3333333333333</ele><time>2026-05-01T13:26:43.931Z</time></trkpt><trkpt lat="43.0227033" lon="13.0636506"><ele>582.6666666666666</ele><time>2026-05-01T13:26:44.931Z</time></trkpt><trkpt lat="43.0227484" lon="13.0639154"><ele>585.0</ele><time>2026-05-01T13:26:45.931Z</time></trkpt><trkpt lat="43.0227879" lon="13.0641997"><ele>587.0</ele><time>2026-05-01T13:26:46.931Z</time></trkpt><trkpt lat="43.0228136" lon="13.0644975"><ele>589.0</ele><time>2026-05-01T13:26:47.931Z</time></trkpt><trkpt lat="43.0228294" lon="13.0647916"><ele>591.0</ele><time>2026-05-01T13:26:48.931Z</time></trkpt><trkpt lat="43.022845" lon="13.0650375"><ele>591.0</ele><time>2026-05-01T13:26:49.93Z</time></trkpt><trkpt lat="43.0228301" lon="13.0652526"><ele>591.0</ele><time>2026-05-01T13:26:50.931Z</time></trkpt><trkpt lat="43.0227982" lon="13.065474"><ele>591.0</ele><time>2026-05-01T13:26:51.931Z</time></trkpt><trkpt lat="43.0227379" lon="13.0657059"><ele>591.0</ele><time>2026-05-01T13:26:52.93Z</time></trkpt><trkpt lat="43.0227129" lon="13.0659456"><ele>591.0</ele><time>2026-05-01T13:26:53.931Z</time></trkpt><trkpt lat="43.0227204" lon="13.066207"><ele>591.0</ele><time>2026-05-01T13:26:54.931Z</time></trkpt><trkpt lat="43.0227184" lon="13.0664866"><ele>593.0</ele><time>2026-05-01T13:26:55.93Z</time></trkpt><trkpt lat="43.0226966" lon="13.0668068"><ele>595.0</ele><time>2026-05-01T13:26:56.93Z</time></trkpt><trkpt lat="43.0226618" lon="13.0671204"><ele>595.0</ele><time>2026-05-01T13:26:57.931Z</time></trkpt><trkpt lat="43.022627" lon="13.0674124"><ele>595.0</ele><time>2026-05-01T13:26:58.93Z</time></trkpt><trkpt lat="43.0225952" lon="13.0676539"><ele>595.0</ele><time>2026-05-01T13:26:59.931Z</time></trkpt><trkpt lat="43.0225844" lon="13.0678717"><ele>596.3333333333334</ele><time>2026-05-01T13:27:00.93Z</time></trkpt><trkpt lat="43.0226112" lon="13.0681003"><ele>597.6666666666666</ele><time>2026-05-01T13:27:01.931Z</time></trkpt><trkpt lat="43.022673" lon="13.0683433"><ele>599.0</ele><time>2026-05-01T13:27:02.931Z</time></trkpt><trkpt lat="43.0227602" lon="13.0685736"><ele>600.3333333333333</ele><time>2026-05-01T13:27:03.931Z</time></trkpt><trkpt lat="43.0228481" lon="13.0687551"><ele>601.6666666666666</ele><time>2026-05-01T13:27:04.93Z</time></trkpt><trkpt lat="43.022962" lon="13.0689074"><ele>603.0</ele><time>2026-05-01T13:27:05.93Z</time></trkpt><trkpt lat="43.0231206" lon="13.0690268"><ele>605.0</ele><time>2026-05-01T13:27:06.93Z</time></trkpt><trkpt lat="43.0232982" lon="13.0691596"><ele>607.0</ele><time>2026-05-01T13:27:07.931Z</time></trkpt><trkpt lat="43.0234925" lon="13.0693069"><ele>609.0</ele><time>2026-05-01T13:27:08.93Z</time></trkpt><trkpt lat="43.0236971" lon="13.069483"><ele>611.0</ele><time>2026-05-01T13:27:09.931Z</time></trkpt><trkpt lat="43.0238885" lon="13.0696476"><ele>613.0</ele><time>2026-05-01T13:27:10.931Z</time></trkpt><trkpt lat="43.0240476" lon="13.069802"><ele>615.0</ele><time>2026-05-01T13:27:11.93Z</time></trkpt><trkpt lat="43.0241801" lon="13.0699626"><ele>617.6666666666666</ele><time>2026-05-01T13:27:12.931Z</time></trkpt><trkpt lat="43.0242868" lon="13.070181"><ele>620.3333333333333</ele><time>2026-05-01T13:27:13.93Z</time></trkpt><trkpt lat="43.0243576" lon="13.0704295"><ele>623.0</ele><time>2026-05-01T13:27:14.931Z</time></trkpt><trkpt lat="43.0244091" lon="13.0706755"><ele>622.25</ele><time>2026-05-01T13:27:15.93Z</time></trkpt><trkpt lat="43.0244469" lon="13.0708689"><ele>621.5</ele><time>2026-05-01T13:27:16.931Z</time></trkpt><trkpt lat="43.0245254" lon="13.0710307"><ele>620.75</ele><time>2026-05-01T13:27:17.931Z</time></trkpt><trkpt lat="43.0246615" lon="13.0711474"><ele>620.0</ele><time>2026-05-01T13:27:18.931Z</time></trkpt><trkpt lat="43.0248226" lon="13.0712625"><ele>623.3333333333333</ele><time>2026-05-01T13:27:19.931Z</time></trkpt><trkpt lat="43.0250037" lon="13.071382"><ele>626.6666666666666</ele><time>2026-05-01T13:27:20.931Z</time></trkpt><trkpt lat="43.0251778" lon="13.0715371"><ele>630.0</ele><time>2026-05-01T13:27:21.931Z</time></trkpt><trkpt lat="43.0253564" lon="13.0717092"><ele>630.0</ele><time>2026-05-01T13:27:22.93Z</time></trkpt><trkpt lat="43.0255205" lon="13.0719004"><ele>630.0</ele><time>2026-05-01T13:27:23.93Z</time></trkpt><trkpt lat="43.0256789" lon="13.0721335"><ele>630.0</ele><time>2026-05-01T13:27:24.931Z</time></trkpt><trkpt lat="43.0258341" lon="13.0724057"><ele>635.0</ele><time>2026-05-01T13:27:25.931Z</time></trkpt><trkpt lat="43.025993" lon="13.07268"><ele>640.0</ele><time>2026-05-01T13:27:26.93Z</time></trkpt><trkpt lat="43.0261429" lon="13.0729336"><ele>640.0</ele><time>2026-05-01T13:27:27.931Z</time></trkpt><trkpt lat="43.0262805" lon="13.0731535"><ele>640.0</ele><time>2026-05-01T13:27:28.931Z</time></trkpt><trkpt lat="43.0264091" lon="13.0733452"><ele>640.0</ele><time>2026-05-01T13:27:29.93Z</time></trkpt><trkpt lat="43.026555" lon="13.073483"><ele>642.5</ele><time>2026-05-01T13:27:30.931Z</time></trkpt><trkpt lat="43.0267013" lon="13.0735811"><ele>645.0</ele><time>2026-05-01T13:27:31.93Z</time></trkpt><trkpt lat="43.026827" lon="13.0736618"><ele>647.5</ele><time>2026-05-01T13:27:32.931Z</time></trkpt><trkpt lat="43.0269095" lon="13.0737629"><ele>650.0</ele><time>2026-05-01T13:27:33.931Z</time></trkpt><trkpt lat="43.0269581" lon="13.0738657"><ele>650.0</ele><time>2026-05-01T13:27:34.931Z</time></trkpt><trkpt lat="43.0269321" lon="13.0739915"><ele>650.0</ele><time>2026-05-01T13:27:35.931Z</time></trkpt><trkpt lat="43.0268444" lon="13.0741214"><ele>650.0</ele><time>2026-05-01T13:27:36.93Z</time></trkpt><trkpt lat="43.0267142" lon="13.0742276"><ele>650.0</ele><time>2026-05-01T13:27:37.931Z</time></trkpt><trkpt lat="43.0265525" lon="13.0742738"><ele>652.0</ele><time>2026-05-01T13:27:38.931Z</time></trkpt><trkpt lat="43.0263409" lon="13.0742437"><ele>654.0</ele><time>2026-05-01T13:27:39.931Z</time></trkpt><trkpt lat="43.0261119" lon="13.0741624"><ele>656.0</ele><time>2026-05-01T13:27:40.93Z</time></trkpt><trkpt lat="43.0258911" lon="13.0740966"><ele>653.6666666666666</ele><time>2026-05-01T13:27:41.931Z</time></trkpt><trkpt lat="43.0256743" lon="13.0740807"><ele>651.3333333333334</ele><time>2026-05-01T13:27:42.931Z</time></trkpt><trkpt lat="43.0254785" lon="13.0741146"><ele>649.0</ele><time>2026-05-01T13:27:43.931Z</time></trkpt><trkpt lat="43.0252786" lon="13.0741885"><ele>654.0</ele><time>2026-05-01T13:27:44.931Z</time></trkpt><trkpt lat="43.0250978" lon="13.0742553"><ele>659.0</ele><time>2026-05-01T13:27:45.931Z</time></trkpt><trkpt lat="43.0249488" lon="13.0742538"><ele>664.0</ele><time>2026-05-01T13:27:46.931Z</time></trkpt><trkpt lat="43.0248184" lon="13.0741708"><ele>660.75</ele><time>2026-05-01T13:27:47.931Z</time></trkpt><trkpt lat="43.0246917" lon="13.0740274"><ele>657.5</ele><time>2026-05-01T13:27:48.931Z</time></trkpt><trkpt lat="43.0245902" lon="13.0739117"><ele>654.25</ele><time>2026-05-01T13:27:49.931Z</time></trkpt><trkpt lat="43.0245102" lon="13.0738764"><ele>651.0</ele><time>2026-05-01T13:27:50.931Z</time></trkpt><trkpt lat="43.0244585" lon="13.0739463"><ele>651.0</ele><time>2026-05-01T13:27:51.93Z</time></trkpt><trkpt lat="43.0244767" lon="13.074062"><ele>651.0</ele><time>2026-05-01T13:27:52.931Z</time></trkpt><trkpt lat="43.02454" lon="13.0741736"><ele>651.0</ele><time>2026-05-01T13:27:53.931Z</time></trkpt><trkpt lat="43.0246611" lon="13.0742828"><ele>651.0</ele><time>2026-05-01T13:27:54.931Z</time></trkpt><trkpt lat="43.0247958" lon="13.0744165"><ele>655.3333333333334</ele><time>2026-05-01T13:27:55.93Z</time></trkpt><trkpt lat="43.024931" lon="13.0745653"><ele>659.6666666666667</ele><time>2026-05-01T13:27:56.931Z</time></trkpt><trkpt lat="43.025067" lon="13.0747039"><ele>664.0</ele><time>2026-05-01T13:27:57.93Z</time></trkpt><trkpt lat="43.0251736" lon="13.074818"><ele>664.0</ele><time>2026-05-01T13:27:58.931Z</time></trkpt><trkpt lat="43.025264" lon="13.0748568"><ele>664.0</ele><time>2026-05-01T13:27:59.931Z</time></trkpt><trkpt lat="43.0253372" lon="13.0748361"><ele>664.0</ele><time>2026-05-01T13:28:00.93Z</time></trkpt><trkpt lat="43.0254117" lon="13.0747219"><ele>664.0</ele><time>2026-05-01T13:28:02.931Z</time></trkpt><trkpt lat="43.0255043" lon="13.0746244"><ele>664.0</ele><time>2026-05-01T13:28:04.931Z</time></trkpt><trkpt lat="43.0255801" lon="13.0746055"><ele>664.0</ele><time>2026-05-01T13:28:05.93Z</time></trkpt><trkpt lat="43.0256756" lon="13.0746123"><ele>664.0</ele><time>2026-05-01T13:28:06.93Z</time></trkpt><trkpt lat="43.0257972" lon="13.0746678"><ele>664.0</ele><time>2026-05-01T13:28:07.931Z</time></trkpt><trkpt lat="43.0259415" lon="13.0747428"><ele>664.0</ele><time>2026-05-01T13:28:08.931Z</time></trkpt><trkpt lat="43.0260924" lon="13.0748206"><ele>662.0</ele><time>2026-05-01T13:28:09.931Z</time></trkpt><trkpt lat="43.0262344" lon="13.0748854"><ele>660.0</ele><time>2026-05-01T13:28:10.931Z</time></trkpt><trkpt lat="43.0263535" lon="13.0749686"><ele>658.0</ele><time>2026-05-01T13:28:11.93Z</time></trkpt><trkpt lat="43.026456" lon="13.0751181"><ele>656.0</ele><time>2026-05-01T13:28:12.931Z</time></trkpt><trkpt lat="43.0265677" lon="13.0753171"><ele>660.6666666666666</ele><time>2026-05-01T13:28:13.931Z</time></trkpt><trkpt lat="43.0267045" lon="13.0755367"><ele>665.3333333333334</ele><time>2026-05-01T13:28:14.931Z</time></trkpt><trkpt lat="43.0268679" lon="13.0757368"><ele>670.0</ele><time>2026-05-01T13:28:15.93Z</time></trkpt><trkpt lat="43.02701" lon="13.075941"><ele>677.6666666666667</ele><time>2026-05-01T13:28:16.93Z</time></trkpt><trkpt lat="43.0271447" lon="13.0761229"><ele>685.3333333333334</ele><time>2026-05-01T13:28:17.931Z</time></trkpt><trkpt lat="43.0272896" lon="13.0762657"><ele>693.0</ele><time>2026-05-01T13:28:18.931Z</time></trkpt><trkpt lat="43.0274465" lon="13.0763907"><ele>693.25</ele><time>2026-05-01T13:28:19.93Z</time></trkpt><trkpt lat="43.0275624" lon="13.076503"><ele>693.5</ele><time>2026-05-01T13:28:20.93Z</time></trkpt><trkpt lat="43.0276511" lon="13.0766306"><ele>693.75</ele><time>2026-05-01T13:28:21.931Z</time></trkpt><trkpt lat="43.0277034" lon="13.0767461"><ele>694.0</ele><time>2026-05-01T13:28:22.93Z</time></trkpt><trkpt lat="43.0277492" lon="13.0768448"><ele>694.0</ele><time>2026-05-01T13:28:23.931Z</time></trkpt><trkpt lat="43.0278111" lon="13.0769347"><ele>694.0</ele><time>2026-05-01T13:28:24.931Z</time></trkpt><trkpt lat="43.0279163" lon="13.0769963"><ele>694.0</ele><time>2026-05-01T13:28:25.931Z</time></trkpt><trkpt lat="43.0280692" lon="13.0770577"><ele>694.0</ele><time>2026-05-01T13:28:26.931Z</time></trkpt><trkpt lat="43.0282412" lon="13.0771234"><ele>695.0</ele><time>2026-05-01T13:28:27.93Z</time></trkpt><trkpt lat="43.0284174" lon="13.077211"><ele>696.0</ele><time>2026-05-01T13:28:28.931Z</time></trkpt><trkpt lat="43.0285855" lon="13.0773048"><ele>697.0</ele><time>2026-05-01T13:28:29.931Z</time></trkpt><trkpt lat="43.0287391" lon="13.0774183"><ele>693.6666666666667</ele><time>2026-05-01T13:28:30.93Z</time></trkpt><trkpt lat="43.0288887" lon="13.0775656"><ele>690.3333333333334</ele><time>2026-05-01T13:28:31.931Z</time></trkpt><trkpt lat="43.0290345" lon="13.0777525"><ele>687.0</ele><time>2026-05-01T13:28:32.931Z</time></trkpt><trkpt lat="43.0291875" lon="13.0779544"><ele>664.0</ele><time>2026-05-01T13:28:33.93Z</time></trkpt><trkpt lat="43.0255043" lon="13.0746244"><ele>664.0</ele><time>2026-05-01T13:28:04.931Z</time></trkpt><trkpt lat="43.0255801" lon="13.0746055"><ele>664.0</ele><time>2026-05-01T13:28:05.93Z</time></trkpt><trkpt lat="43.0256756" lon="13.0746123"><ele>664.0</ele><time>2026-05-01T13:28:06.93Z</time></trkpt><trkpt lat="43.0257972" lon="13.0746678"><ele>664.0</ele><time>2026-05-01T13:28:07.931Z</time></trkpt><trkpt lat="43.0259415" lon="13.0747428"><ele>662.0</ele><time>2026-05-01T13:28:08.931Z</time></trkpt><trkpt lat="43.0260924" lon="13.0748206"><ele>660.0</ele><time>2026-05-01T13:28:09.931Z</time></trkpt><trkpt lat="43.0262344" lon="13.0748854"><ele>658.0</ele><time>2026-05-01T13:28:10.931Z</time></trkpt><trkpt lat="43.0263535" lon="13.0749686"><ele>656.0</ele><time>2026-05-01T13:28:11.93Z</time></trkpt><trkpt lat="43.026456" lon="13.0751181"><ele>660.6666666666666</ele><time>2026-05-01T13:28:12.931Z</time></trkpt><trkpt lat="43.0265677" lon="13.0753171"><ele>665.3333333333334</ele><time>2026-05-01T13:28:13.931Z</time></trkpt><trkpt lat="43.0267045" lon="13.0755367"><ele>670.0</ele><time>2026-05-01T13:28:14.931Z</time></trkpt><trkpt lat="43.0268679" lon="13.0757368"><ele>677.6666666666667</ele><time>2026-05-01T13:28:15.93Z</time></trkpt><trkpt lat="43.02701" lon="13.075941"><ele>685.3333333333334</ele><time>2026-05-01T13:28:16.93Z</time></trkpt><trkpt lat="43.0271447" lon="13.0761229"><ele>693.0</ele><time>2026-05-01T13:28:17.931Z</time></trkpt><trkpt lat="43.0272896" lon="13.0762657"><ele>693.0</ele><time>2026-05-01T13:28:18.931Z</time></trkpt><trkpt lat="43.0274465" lon="13.0763907"><ele>693.0</ele><time>2026-05-01T13:28:19.93Z</time></trkpt><trkpt lat="43.0275624" lon="13.076503"><ele>693.0</ele><time>2026-05-01T13:28:20.93Z</time></trkpt><trkpt lat="43.0276511" lon="13.0766306"><ele>693.2</ele><time>2026-05-01T13:28:21.931Z</time></trkpt><trkpt lat="43.0277034" lon="13.0767461"><ele>693.4</ele><time>2026-05-01T13:28:22.93Z</time></trkpt><trkpt lat="43.0277492" lon="13.0768448"><ele>693.6</ele><time>2026-05-01T13:28:23.931Z</time></trkpt><trkpt lat="43.0278111" lon="13.0769347"><ele>693.8000000000001</ele><time>2026-05-01T13:28:24.931Z</time></trkpt><trkpt lat="43.0279163" lon="13.0769963"><ele>694.0</ele><time>2026-05-01T13:28:25.931Z</time></trkpt><trkpt lat="43.0280692" lon="13.0770577"><ele>694.0</ele><time>2026-05-01T13:28:26.931Z</time></trkpt><trkpt lat="43.0282412" lon="13.0771234"><ele>694.0</ele><time>2026-05-01T13:28:27.93Z</time></trkpt><trkpt lat="43.0284174" lon="13.077211"><ele>694.0</ele><time>2026-05-01T13:28:28.931Z</time></trkpt><trkpt lat="43.0285855" lon="13.0773048"><ele>695.0</ele><time>2026-05-01T13:28:29.931Z</time></trkpt><trkpt lat="43.0287391" lon="13.0774183"><ele>696.0</ele><time>2026-05-01T13:28:30.93Z</time></trkpt><trkpt lat="43.0288887" lon="13.0775656"><ele>697.0</ele><time>2026-05-01T13:28:31.931Z</time></trkpt><trkpt lat="43.0290345" lon="13.0777525"><ele>693.6666666666667</ele><time>2026-05-01T13:28:32.931Z</time></trkpt><trkpt lat="43.0291875" lon="13.0779544"><ele>690.3333333333334</ele><time>2026-05-01T13:28:33.93Z</time></trkpt><trkpt lat="43.0293362" lon="13.0781528"><ele>687.0</ele><time>2026-05-01T13:28:34.93Z</time></trkpt><trkpt lat="43.0294755" lon="13.0783269"><ele>682.75</ele><time>2026-05-01T13:28:35.93Z</time></trkpt><trkpt lat="43.0295915" lon="13.0784633"><ele>678.5</ele><time>2026-05-01T13:28:36.931Z</time></trkpt><trkpt lat="43.0296983" lon="13.0785692"><ele>674.25</ele><time>2026-05-01T13:28:37.931Z</time></trkpt><trkpt lat="43.0297932" lon="13.0786347"><ele>670.0</ele><time>2026-05-01T13:28:38.931Z</time></trkpt><trkpt lat="43.0298796" lon="13.0786906"><ele>670.0</ele><time>2026-05-01T13:28:39.931Z</time></trkpt><trkpt lat="43.0299452" lon="13.0787654"><ele>670.0</ele><time>2026-05-01T13:28:40.931Z</time></trkpt><trkpt lat="43.0299783" lon="13.0788703"><ele>670.0</ele><time>2026-05-01T13:28:41.931Z</time></trkpt><trkpt lat="43.0299734" lon="13.0789778"><ele>670.0</ele><time>2026-05-01T13:28:42.93Z</time></trkpt><trkpt lat="43.0299125" lon="13.0790578"><ele>670.0</ele><time>2026-05-01T13:28:43.93Z</time></trkpt><trkpt lat="43.0298306" lon="13.0790925"><ele>670.0</ele><time>2026-05-01T13:28:44.931Z</time></trkpt><trkpt lat="43.0297242" lon="13.0790269"><ele>670.0</ele><time>2026-05-01T13:28:45.931Z</time></trkpt><trkpt lat="43.0295948" lon="13.0788523"><ele>670.0</ele><time>2026-05-01T13:28:46.931Z</time></trkpt><trkpt lat="43.0294617" lon="13.0786681"><ele>670.0</ele><time>2026-05-01T13:28:47.93Z</time></trkpt><trkpt lat="43.029338" lon="13.0785278"><ele>670.0</ele><time>2026-05-01T13:28:48.931Z</time></trkpt><trkpt lat="43.0292295" lon="13.0784289"><ele>670.0</ele><time>2026-05-01T13:28:49.931Z</time></trkpt><trkpt lat="43.0291355" lon="13.0783962"><ele>670.0</ele><time>2026-05-01T13:28:50.93Z</time></trkpt><trkpt lat="43.0290388" lon="13.0784303"><ele>670.0</ele><time>2026-05-01T13:28:51.931Z</time></trkpt><trkpt lat="43.0289753" lon="13.0785339"><ele>670.0</ele><time>2026-05-01T13:28:52.931Z</time></trkpt><trkpt lat="43.0289586" lon="13.0786715"><ele>675.0</ele><time>2026-05-01T13:28:53.93Z</time></trkpt><trkpt lat="43.0289911" lon="13.0788517"><ele>680.0</ele><time>2026-05-01T13:28:54.931Z</time></trkpt><trkpt lat="43.0290483" lon="13.0790485"><ele>685.0</ele><time>2026-05-01T13:28:55.931Z</time></trkpt><trkpt lat="43.0291157" lon="13.0792716"><ele>680.0</ele><time>2026-05-01T13:28:56.931Z</time></trkpt><trkpt lat="43.0291911" lon="13.0794824"><ele>675.0</ele><time>2026-05-01T13:28:57.931Z</time></trkpt><trkpt lat="43.0292617" lon="13.0796519"><ele>670.0</ele><time>2026-05-01T13:28:58.93Z</time></trkpt><trkpt lat="43.0293062" lon="13.0797851"><ele>665.0</ele><time>2026-05-01T13:28:59.931Z</time></trkpt><trkpt lat="43.0293169" lon="13.0799182"><ele>663.0</ele><time>2026-05-01T13:29:00.931Z</time></trkpt><trkpt lat="43.0292877" lon="13.0800907"><ele>661.0</ele><time>2026-05-01T13:29:01.93Z</time></trkpt><trkpt lat="43.029257" lon="13.0802747"><ele>659.0</ele><time>2026-05-01T13:29:02.931Z</time></trkpt><trkpt lat="43.0291981" lon="13.0804419"><ele>657.0</ele><time>2026-05-01T13:29:03.931Z</time></trkpt><trkpt lat="43.0290941" lon="13.0805985"><ele>658.3333333333334</ele><time>2026-05-01T13:29:04.931Z</time></trkpt><trkpt lat="43.028938" lon="13.0807548"><ele>659.6666666666667</ele><time>2026-05-01T13:29:05.931Z</time></trkpt><trkpt lat="43.0287754" lon="13.0809359"><ele>661.0</ele><time>2026-05-01T13:29:06.931Z</time></trkpt><trkpt lat="43.0286032" lon="13.0811031"><ele>661.0</ele><time>2026-05-01T13:29:07.93Z</time></trkpt><trkpt lat="43.0284141" lon="13.0812664"><ele>661.0</ele><time>2026-05-01T13:29:08.93Z</time></trkpt><trkpt lat="43.0282209" lon="13.0814116"><ele>661.0</ele><time>2026-05-01T13:29:09.931Z</time></trkpt><trkpt lat="43.0280539" lon="13.0815511"><ele>659.0</ele><time>2026-05-01T13:29:10.931Z</time></trkpt><trkpt lat="43.0279219" lon="13.081682"><ele>657.0</ele><time>2026-05-01T13:29:11.931Z</time></trkpt><trkpt lat="43.0278119" lon="13.0817753"><ele>655.0</ele><time>2026-05-01T13:29:12.931Z</time></trkpt><trkpt lat="43.0277259" lon="13.0818805"><ele>653.0</ele><time>2026-05-01T13:29:13.93Z</time></trkpt><trkpt lat="43.0276596" lon="13.0820076"><ele>653.0</ele><time>2026-05-01T13:29:14.931Z</time></trkpt><trkpt lat="43.027638" lon="13.0821641"><ele>653.0</ele><time>2026-05-01T13:29:15.931Z</time></trkpt><trkpt lat="43.0276539" lon="13.0823208"><ele>653.0</ele><time>2026-05-01T13:29:16.931Z</time></trkpt><trkpt lat="43.0277358" lon="13.082467"><ele>653.0</ele><time>2026-05-01T13:29:17.931Z</time></trkpt><trkpt lat="43.0278554" lon="13.0826077"><ele>646.6666666666666</ele><time>2026-05-01T13:29:18.931Z</time></trkpt><trkpt lat="43.0280008" lon="13.0827543"><ele>640.3333333333334</ele><time>2026-05-01T13:29:19.93Z</time></trkpt><trkpt lat="43.0281469" lon="13.0828996"><ele>634.0</ele><time>2026-05-01T13:29:20.93Z</time></trkpt><trkpt lat="43.0282753" lon="13.083018"><ele>631.6</ele><time>2026-05-01T13:29:21.931Z</time></trkpt><trkpt lat="43.028381" lon="13.0831137"><ele>629.2</ele><time>2026-05-01T13:29:22.931Z</time></trkpt><trkpt lat="43.0284616" lon="13.0831815"><ele>626.8000000000001</ele><time>2026-05-01T13:29:23.93Z</time></trkpt><trkpt lat="43.0284797" lon="13.0832811"><ele>624.4</ele><time>2026-05-01T13:29:24.931Z</time></trkpt><trkpt lat="43.0284415" lon="13.0834381"><ele>622.0</ele><time>2026-05-01T13:29:25.931Z</time></trkpt><trkpt lat="43.0283536" lon="13.083619"><ele>622.3333333333334</ele><time>2026-05-01T13:29:26.93Z</time></trkpt><trkpt lat="43.0282452" lon="13.0838385"><ele>622.6666666666666</ele><time>2026-05-01T13:29:27.93Z</time></trkpt><trkpt lat="43.0281512" lon="13.0840805"><ele>623.0</ele><time>2026-05-01T13:29:28.93Z</time></trkpt><trkpt lat="43.0280869" lon="13.0843188"><ele>623.0</ele><time>2026-05-01T13:29:29.931Z</time></trkpt><trkpt lat="43.0280289" lon="13.0845285"><ele>623.0</ele><time>2026-05-01T13:29:30.93Z</time></trkpt><trkpt lat="43.027959" lon="13.084726"><ele>623.0</ele><time>2026-05-01T13:29:31.931Z</time></trkpt><trkpt lat="43.02787" lon="13.0848976"><ele>621.25</ele><time>2026-05-01T13:29:32.93Z</time></trkpt><trkpt lat="43.0277804" lon="13.0850432"><ele>619.5</ele><time>2026-05-01T13:29:33.931Z</time></trkpt><trkpt lat="43.0276878" lon="13.0851558"><ele>617.75</ele><time>2026-05-01T13:29:34.931Z</time></trkpt><trkpt lat="43.0275947" lon="13.0852267"><ele>616.0</ele><time>2026-05-01T13:29:35.931Z</time></trkpt><trkpt lat="43.0275216" lon="13.0853136"><ele>616.0</ele><time>2026-05-01T13:29:36.931Z</time></trkpt><trkpt lat="43.0274804" lon="13.0854358"><ele>616.0</ele><time>2026-05-01T13:29:37.931Z</time></trkpt><trkpt lat="43.027489" lon="13.0855989"><ele>616.0</ele><time>2026-05-01T13:29:38.931Z</time></trkpt><trkpt lat="43.0275485" lon="13.0858061"><ele>616.0</ele><time>2026-05-01T13:29:39.93Z</time></trkpt><trkpt lat="43.0276079" lon="13.0860255"><ele>616.5</ele><time>2026-05-01T13:29:40.93Z</time></trkpt><trkpt lat="43.0276735" lon="13.0862107"><ele>617.0</ele><time>2026-05-01T13:29:41.931Z</time></trkpt><trkpt lat="43.0277679" lon="13.0863654"><ele>617.5</ele><time>2026-05-01T13:29:42.931Z</time></trkpt><trkpt lat="43.0278777" lon="13.0864885"><ele>618.0</ele><time>2026-05-01T13:29:43.931Z</time></trkpt><trkpt lat="43.0279655" lon="13.0865952"><ele>620.1999999999999</ele><time>2026-05-01T13:29:44.931Z</time></trkpt><trkpt lat="43.0280292" lon="13.0867315"><ele>622.4</ele><time>2026-05-01T13:29:45.931Z</time></trkpt><trkpt lat="43.0280523" lon="13.0868757"><ele>624.5999999999999</ele><time>2026-05-01T13:29:46.93Z</time></trkpt><trkpt lat="43.0280668" lon="13.0869907"><ele>626.8</ele><time>2026-05-01T13:29:47.93Z</time></trkpt><trkpt lat="43.0281028" lon="13.0871025"><ele>629.0</ele><time>2026-05-01T13:29:49.931Z</time></trkpt><trkpt lat="43.0281976" lon="13.0870994"><ele>629.0</ele><time>2026-05-01T13:29:51.931Z</time></trkpt><trkpt lat="43.0282916" lon="13.0870523"><ele>629.0</ele><time>2026-05-01T13:29:52.931Z</time></trkpt><trkpt lat="43.0283919" lon="13.0869933"><ele>629.0</ele><time>2026-05-01T13:29:53.93Z</time></trkpt><trkpt lat="43.0284963" lon="13.0869694"><ele>629.0</ele><time>2026-05-01T13:29:54.931Z</time></trkpt><trkpt lat="43.0285945" lon="13.0869896"><ele>629.0</ele><time>2026-05-01T13:29:55.931Z</time></trkpt><trkpt lat="43.0286762" lon="13.0870518"><ele>625.75</ele><time>2026-05-01T13:29:56.931Z</time></trkpt><trkpt lat="43.0287361" lon="13.0871627"><ele>622.5</ele><time>2026-05-01T13:29:57.931Z</time></trkpt><trkpt lat="43.0287929" lon="13.0873352"><ele>619.25</ele><time>2026-05-01T13:29:58.931Z</time></trkpt><trkpt lat="43.0288371" lon="13.0875146"><ele>616.0</ele><time>2026-05-01T13:29:59.931Z</time></trkpt><trkpt lat="43.0288707" lon="13.0877023"><ele>616.0</ele><time>2026-05-01T13:30:00.93Z</time></trkpt><trkpt lat="43.0288919" lon="13.0878891"><ele>616.0</ele><time>2026-05-01T13:30:01.931Z</time></trkpt><trkpt lat="43.0288932" lon="13.0880825"><ele>616.0</ele><time>2026-05-01T13:30:02.931Z</time></trkpt><trkpt lat="43.0288789" lon="13.0882917"><ele>616.0</ele><time>2026-05-01T13:30:03.931Z</time></trkpt><trkpt lat="43.0288353" lon="13.088528"><ele>614.0</ele><time>2026-05-01T13:30:04.931Z</time></trkpt><trkpt lat="43.0287687" lon="13.0887992"><ele>612.0</ele><time>2026-05-01T13:30:05.931Z</time></trkpt><trkpt lat="43.0286891" lon="13.0890692"><ele>610.0</ele><time>2026-05-01T13:30:06.931Z</time></trkpt><trkpt lat="43.0286387" lon="13.0893246"><ele>606.6666666666667</ele><time>2026-05-01T13:30:07.93Z</time></trkpt><trkpt lat="43.0286104" lon="13.0895651"><ele>603.3333333333334</ele><time>2026-05-01T13:30:08.93Z</time></trkpt><trkpt lat="43.0285894" lon="13.0897677"><ele>600.0</ele><time>2026-05-01T13:30:09.931Z</time></trkpt><trkpt lat="43.0285665" lon="13.0899385"><ele>597.75</ele><time>2026-05-01T13:30:10.931Z</time></trkpt><trkpt lat="43.0285324" lon="13.0900827"><ele>595.5</ele><time>2026-05-01T13:30:11.931Z</time></trkpt><trkpt lat="43.02847" lon="13.0902043"><ele>593.25</ele><time>2026-05-01T13:30:12.931Z</time></trkpt><trkpt lat="43.0283545" lon="13.090308"><ele>591.0</ele><time>2026-05-01T13:30:13.931Z</time></trkpt><trkpt lat="43.0281966" lon="13.0904247"><ele>600.0</ele><time>2026-05-01T13:30:14.931Z</time></trkpt><trkpt lat="43.0279924" lon="13.0905637"><ele>609.0</ele><time>2026-05-01T13:30:15.932Z</time></trkpt><trkpt lat="43.0277645" lon="13.0907104"><ele>602.3333333333334</ele><time>2026-05-01T13:30:16.932Z</time></trkpt><trkpt lat="43.027543" lon="13.090843"><ele>595.6666666666667</ele><time>2026-05-01T13:30:17.932Z</time></trkpt><trkpt lat="43.0273546" lon="13.0909577"><ele>589.0</ele><time>2026-05-01T13:30:18.931Z</time></trkpt><trkpt lat="43.0272026" lon="13.0910553"><ele>589.0</ele><time>2026-05-01T13:30:19.932Z</time></trkpt><trkpt lat="43.02707" lon="13.0911351"><ele>589.0</ele><time>2026-05-01T13:30:20.932Z</time></trkpt><trkpt lat="43.0269231" lon="13.0911653"><ele>589.0</ele><time>2026-05-01T13:30:21.932Z</time></trkpt><trkpt lat="43.0267362" lon="13.091146"><ele>584.0</ele><time>2026-05-01T13:30:22.932Z</time></trkpt><trkpt lat="43.0265172" lon="13.091118"><ele>579.0</ele><time>2026-05-01T13:30:23.932Z</time></trkpt><trkpt lat="43.0262857" lon="13.0911156"><ele>579.0</ele><time>2026-05-01T13:30:24.932Z</time></trkpt><trkpt lat="43.0260707" lon="13.0911181"><ele>579.0</ele><time>2026-05-01T13:30:25.931Z</time></trkpt><trkpt lat="43.0258763" lon="13.091115"><ele>579.0</ele><time>2026-05-01T13:30:26.932Z</time></trkpt><trkpt lat="43.0257165" lon="13.0911025"><ele>581.0</ele><time>2026-05-01T13:30:27.932Z</time></trkpt><trkpt lat="43.0255699" lon="13.0911"><ele>583.0</ele><time>2026-05-01T13:30:28.931Z</time></trkpt><trkpt lat="43.0254216" lon="13.0911445"><ele>585.0</ele><time>2026-05-01T13:30:29.932Z</time></trkpt><trkpt lat="43.0253203" lon="13.091274"><ele>587.0</ele><time>2026-05-01T13:30:30.931Z</time></trkpt><trkpt lat="43.0252694" lon="13.0914315"><ele>587.0</ele><time>2026-05-01T13:30:31.932Z</time></trkpt><trkpt lat="43.02525" lon="13.0915743"><ele>587.0</ele><time>2026-05-01T13:30:32.932Z</time></trkpt><trkpt lat="43.0252644" lon="13.0916944"><ele>587.0</ele><time>2026-05-01T13:30:33.932Z</time></trkpt><trkpt lat="43.0252824" lon="13.0917836"><ele>587.0</ele><time>2026-05-01T13:30:34.932Z</time></trkpt><trkpt lat="43.0253417" lon="13.0918879"><ele>587.0</ele><time>2026-05-01T13:30:36.932Z</time></trkpt><trkpt lat="43.0254128" lon="13.0919153"><ele>587.0</ele><time>2026-05-01T13:30:37.931Z</time></trkpt><trkpt lat="43.0255225" lon="13.0918913"><ele>581.6666666666666</ele><time>2026-05-01T13:30:38.931Z</time></trkpt><trkpt lat="43.0256619" lon="13.0918743"><ele>576.3333333333334</ele><time>2026-05-01T13:30:39.932Z</time></trkpt><trkpt lat="43.0258157" lon="13.0918479"><ele>571.0</ele><time>2026-05-01T13:30:40.931Z</time></trkpt><trkpt lat="43.025985" lon="13.0918337"><ele>569.0</ele><time>2026-05-01T13:30:41.932Z</time></trkpt><trkpt lat="43.0261706" lon="13.0918522"><ele>567.0</ele><time>2026-05-01T13:30:42.931Z</time></trkpt><trkpt lat="43.0263643" lon="13.0919147"><ele>565.0</ele><time>2026-05-01T13:30:43.932Z</time></trkpt><trkpt lat="43.0265628" lon="13.0920217"><ele>564.0</ele><time>2026-05-01T13:30:44.932Z</time></trkpt><trkpt lat="43.0267932" lon="13.0921339"><ele>563.0</ele><time>2026-05-01T13:30:45.932Z</time></trkpt><trkpt lat="43.0270476" lon="13.0922246"><ele>563.0</ele><time>2026-05-01T13:30:46.931Z</time></trkpt><trkpt lat="43.0273238" lon="13.0922914"><ele>563.0</ele><time>2026-05-01T13:30:47.932Z</time></trkpt><trkpt lat="43.0276133" lon="13.0923308"><ele>562.0</ele><time>2026-05-01T13:30:48.932Z</time></trkpt><trkpt lat="43.0278888" lon="13.0923629"><ele>561.0</ele><time>2026-05-01T13:30:49.931Z</time></trkpt><trkpt lat="43.0281616" lon="13.0924064"><ele>560.5</ele><time>2026-05-01T13:30:50.932Z</time></trkpt><trkpt lat="43.0284247" lon="13.0924768"><ele>560.0</ele><time>2026-05-01T13:30:51.931Z</time></trkpt><trkpt lat="43.0286747" lon="13.0925625"><ele>560.0</ele><time>2026-05-01T13:30:52.932Z</time></trkpt><trkpt lat="43.028909" lon="13.0926509"><ele>560.0</ele><time>2026-05-01T13:30:53.932Z</time></trkpt><trkpt lat="43.0291242" lon="13.0927265"><ele>562.3333333333333</ele><time>2026-05-01T13:30:54.932Z</time></trkpt><trkpt lat="43.0293107" lon="13.0927939"><ele>564.6666666666666</ele><time>2026-05-01T13:30:55.932Z</time></trkpt><trkpt lat="43.029474" lon="13.0928612"><ele>567.0</ele><time>2026-05-01T13:30:56.931Z</time></trkpt><trkpt lat="43.0296053" lon="13.0929148"><ele>567.0</ele><time>2026-05-01T13:30:57.932Z</time></trkpt><trkpt lat="43.0297132" lon="13.0929455"><ele>567.0</ele><time>2026-05-01T13:30:58.932Z</time></trkpt><trkpt lat="43.0297814" lon="13.0929615"><ele>567.0</ele><time>2026-05-01T13:30:59.932Z</time></trkpt><trkpt lat="43.0298711" lon="13.0929707"><ele>567.0</ele><time>2026-05-01T13:31:01.931Z</time></trkpt><trkpt lat="43.0299442" lon="13.0928326"><ele>567.0</ele><time>2026-05-01T13:31:07.932Z</time></trkpt><trkpt lat="43.0299803" lon="13.0927079"><ele>565.6666666666666</ele><time>2026-05-01T13:31:08.931Z</time></trkpt><trkpt lat="43.0300349" lon="13.0925204"><ele>564.3333333333333</ele><time>2026-05-01T13:31:09.931Z</time></trkpt><trkpt lat="43.0300875" lon="13.0923035"><ele>563.0</ele><time>2026-05-01T13:31:10.932Z</time></trkpt><trkpt lat="43.0301491" lon="13.0920453"><ele>563.0</ele><time>2026-05-01T13:31:11.932Z</time></trkpt><trkpt lat="43.0302138" lon="13.0917687"><ele>563.0</ele><time>2026-05-01T13:31:12.932Z</time></trkpt><trkpt lat="43.0302771" lon="13.0915091"><ele>563.0</ele><time>2026-05-01T13:31:13.932Z</time></trkpt><trkpt lat="43.0303432" lon="13.0912905"><ele>560.0</ele><time>2026-05-01T13:31:14.931Z</time></trkpt><trkpt lat="43.0304062" lon="13.091116"><ele>557.0</ele><time>2026-05-01T13:31:15.932Z</time></trkpt><trkpt lat="43.030453" lon="13.0909622"><ele>554.0</ele><time>2026-05-01T13:31:16.931Z</time></trkpt><trkpt lat="43.0305177" lon="13.09085"><ele>551.0</ele><time>2026-05-01T13:31:17.932Z</time></trkpt><trkpt lat="43.0306234" lon="13.0907719"><ele>551.6666666666666</ele><time>2026-05-01T13:31:18.932Z</time></trkpt><trkpt lat="43.0307894" lon="13.090713"><ele>552.3333333333334</ele><time>2026-05-01T13:31:19.931Z</time></trkpt><trkpt lat="43.0309845" lon="13.0906509"><ele>553.0</ele><time>2026-05-01T13:31:20.932Z</time></trkpt><trkpt lat="43.03118" lon="13.0906226"><ele>549.6666666666667</ele><time>2026-05-01T13:31:21.931Z</time></trkpt><trkpt lat="43.0313642" lon="13.0906094"><ele>546.3333333333334</ele><time>2026-05-01T13:31:22.932Z</time></trkpt><trkpt lat="43.0315316" lon="13.0906226"><ele>543.0</ele><time>2026-05-01T13:31:23.932Z</time></trkpt><trkpt lat="43.0316687" lon="13.0906719"><ele>547.0</ele><time>2026-05-01T13:31:24.932Z</time></trkpt><trkpt lat="43.031785" lon="13.0907666"><ele>551.0</ele><time>2026-05-01T13:31:25.932Z</time></trkpt><trkpt lat="43.0318816" lon="13.0908753"><ele>555.0</ele><time>2026-05-01T13:31:26.931Z</time></trkpt><trkpt lat="43.0319898" lon="13.0909603"><ele>559.0</ele><time>2026-05-01T13:31:27.932Z</time></trkpt><trkpt lat="43.0321018" lon="13.0910064"><ele>559.0</ele><time>2026-05-01T13:31:28.931Z</time></trkpt><trkpt lat="43.0322704" lon="13.090938"><ele>559.0</ele><time>2026-05-01T13:31:29.932Z</time></trkpt><trkpt lat="43.0324677" lon="13.0908527"><ele>559.0</ele><time>2026-05-01T13:31:30.931Z</time></trkpt><trkpt lat="43.0326745" lon="13.0907609"><ele>548.5</ele><time>2026-05-01T13:31:31.932Z</time></trkpt><trkpt lat="43.0328967" lon="13.0906881"><ele>538.0</ele><time>2026-05-01T13:31:32.932Z</time></trkpt><trkpt lat="43.0331407" lon="13.0906167"><ele>536.5</ele><time>2026-05-01T13:31:33.932Z</time></trkpt><trkpt lat="43.0333821" lon="13.0905532"><ele>535.0</ele><time>2026-05-01T13:31:34.932Z</time></trkpt><trkpt lat="43.0336128" lon="13.0904944"><ele>535.0</ele><time>2026-05-01T13:31:35.931Z</time></trkpt><trkpt lat="43.0338204" lon="13.0904312"><ele>535.0</ele><time>2026-05-01T13:31:36.932Z</time></trkpt><trkpt lat="43.0339907" lon="13.0903789"><ele>535.0</ele><time>2026-05-01T13:31:37.931Z</time></trkpt><trkpt lat="43.0341419" lon="13.0903362"><ele>534.6666666666667</ele><time>2026-05-01T13:31:38.932Z</time></trkpt><trkpt lat="43.0343077" lon="13.0903362"><ele>534.3333333333334</ele><time>2026-05-01T13:31:39.932Z</time></trkpt><trkpt lat="43.0345095" lon="13.0903701"><ele>534.0</ele><time>2026-05-01T13:31:40.931Z</time></trkpt><trkpt lat="43.0347245" lon="13.090423"><ele>534.0</ele><time>2026-05-01T13:31:41.931Z</time></trkpt><trkpt lat="43.0349473" lon="13.0904612"><ele>534.0</ele><time>2026-05-01T13:31:42.932Z</time></trkpt><trkpt lat="43.0351605" lon="13.0904882"><ele>534.0</ele><time>2026-05-01T13:31:43.931Z</time></trkpt><trkpt lat="43.0353602" lon="13.0904917"><ele>532.5</ele><time>2026-05-01T13:31:44.932Z</time></trkpt><trkpt lat="43.0355298" lon="13.0904836"><ele>531.0</ele><time>2026-05-01T13:31:45.932Z</time></trkpt><trkpt lat="43.0356662" lon="13.0904675"><ele>529.5</ele><time>2026-05-01T13:31:46.932Z</time></trkpt><trkpt lat="43.0357988" lon="13.0904414"><ele>528.0</ele><time>2026-05-01T13:31:47.932Z</time></trkpt><trkpt lat="43.0359276" lon="13.0904052"><ele>527.75</ele><time>2026-05-01T13:31:48.931Z</time></trkpt><trkpt lat="43.0360473" lon="13.0903428"><ele>527.5</ele><time>2026-05-01T13:31:49.932Z</time></trkpt><trkpt lat="43.0361499" lon="13.0902659"><ele>527.25</ele><time>2026-05-01T13:31:50.932Z</time></trkpt><trkpt lat="43.0362449" lon="13.0901717"><ele>527.0</ele><time>2026-05-01T13:31:51.931Z</time></trkpt><trkpt lat="43.0363278" lon="13.090066"><ele>527.0</ele><time>2026-05-01T13:31:52.931Z</time></trkpt><trkpt lat="43.036405" lon="13.0899484"><ele>527.0</ele><time>2026-05-01T13:31:53.932Z</time></trkpt><trkpt lat="43.0364632" lon="13.0898298"><ele>527.0</ele><time>2026-05-01T13:31:54.932Z</time></trkpt><trkpt lat="43.0365227" lon="13.0897089"><ele>527.0</ele><time>2026-05-01T13:31:55.931Z</time></trkpt><trkpt lat="43.0365835" lon="13.0896024"><ele>527.0</ele><time>2026-05-01T13:31:56.932Z</time></trkpt><trkpt lat="43.0366416" lon="13.0895086"><ele>526.2</ele><time>2026-05-01T13:31:57.932Z</time></trkpt><trkpt lat="43.036711" lon="13.0894186"><ele>525.4000000000001</ele><time>2026-05-01T13:31:58.932Z</time></trkpt><trkpt lat="43.0367876" lon="13.089341"><ele>524.5999999999999</ele><time>2026-05-01T13:31:59.932Z</time></trkpt><trkpt lat="43.0368673" lon="13.0892854"><ele>523.8</ele><time>2026-05-01T13:32:00.932Z</time></trkpt><trkpt lat="43.036962" lon="13.089232"><ele>523.0</ele><time>2026-05-01T13:32:01.932Z</time></trkpt><trkpt lat="43.0370661" lon="13.0891934"><ele>523.0</ele><time>2026-05-01T13:32:02.932Z</time></trkpt><trkpt lat="43.0371734" lon="13.0891191"><ele>523.0</ele><time>2026-05-01T13:32:03.932Z</time></trkpt><trkpt lat="43.0372837" lon="13.0890533"><ele>523.0</ele><time>2026-05-01T13:32:04.932Z</time></trkpt><trkpt lat="43.0373958" lon="13.0889849"><ele>523.0</ele><time>2026-05-01T13:32:05.932Z</time></trkpt><trkpt lat="43.0375095" lon="13.0889071"><ele>523.0</ele><time>2026-05-01T13:32:06.931Z</time></trkpt><trkpt lat="43.0376254" lon="13.0888134"><ele>523.0</ele><time>2026-05-01T13:32:07.932Z</time></trkpt><trkpt lat="43.0377299" lon="13.0887084"><ele>523.0</ele><time>2026-05-01T13:32:08.932Z</time></trkpt><trkpt lat="43.0378303" lon="13.0885726"><ele>523.0</ele><time>2026-05-01T13:32:09.932Z</time></trkpt><trkpt lat="43.0379202" lon="13.0884109"><ele>525.6666666666667</ele><time>2026-05-01T13:32:10.931Z</time></trkpt><trkpt lat="43.0380121" lon="13.0882452"><ele>528.3333333333334</ele><time>2026-05-01T13:32:11.931Z</time></trkpt><trkpt lat="43.0381149" lon="13.0880797"><ele>531.0</ele><time>2026-05-01T13:32:12.931Z</time></trkpt><trkpt lat="43.0382263" lon="13.0879088"><ele>526.3333333333334</ele><time>2026-05-01T13:32:13.932Z</time></trkpt><trkpt lat="43.0383365" lon="13.0877224"><ele>521.6666666666667</ele><time>2026-05-01T13:32:14.932Z</time></trkpt><trkpt lat="43.038456" lon="13.0875354"><ele>517.0</ele><time>2026-05-01T13:32:15.932Z</time></trkpt><trkpt lat="43.0385655" lon="13.0873685"><ele>517.0</ele><time>2026-05-01T13:32:16.932Z</time></trkpt><trkpt lat="43.0386726" lon="13.0872251"><ele>517.0</ele><time>2026-05-01T13:32:17.931Z</time></trkpt><trkpt lat="43.0387784" lon="13.0870916"><ele>517.0</ele><time>2026-05-01T13:32:18.932Z</time></trkpt><trkpt lat="43.038902" lon="13.0869807"><ele>517.0</ele><time>2026-05-01T13:32:19.932Z</time></trkpt><trkpt lat="43.0390387" lon="13.0868996"><ele>516.6666666666667</ele><time>2026-05-01T13:32:20.932Z</time></trkpt><trkpt lat="43.0391869" lon="13.0868228"><ele>516.3333333333334</ele><time>2026-05-01T13:32:21.931Z</time></trkpt><trkpt lat="43.039354" lon="13.0867616"><ele>516.0</ele><time>2026-05-01T13:32:22.932Z</time></trkpt><trkpt lat="43.0395406" lon="13.086697"><ele>516.0</ele><time>2026-05-01T13:32:23.932Z</time></trkpt><trkpt lat="43.0397428" lon="13.0866236"><ele>516.0</ele><time>2026-05-01T13:32:24.932Z</time></trkpt><trkpt lat="43.0399626" lon="13.0865388"><ele>516.0</ele><time>2026-05-01T13:32:25.932Z</time></trkpt><trkpt lat="43.0401862" lon="13.0864264"><ele>514.0</ele><time>2026-05-01T13:32:26.932Z</time></trkpt><trkpt lat="43.0404163" lon="13.0862876"><ele>512.0</ele><time>2026-05-01T13:32:27.932Z</time></trkpt><trkpt lat="43.0406459" lon="13.0861462"><ele>513.0</ele><time>2026-05-01T13:32:28.931Z</time></trkpt><trkpt lat="43.0408709" lon="13.0860066"><ele>514.0</ele><time>2026-05-01T13:32:29.931Z</time></trkpt><trkpt lat="43.0410933" lon="13.0858695"><ele>515.3333333333334</ele><time>2026-05-01T13:32:30.931Z</time></trkpt><trkpt lat="43.0412995" lon="13.0857382"><ele>516.6666666666666</ele><time>2026-05-01T13:32:31.931Z</time></trkpt><trkpt lat="43.041496" lon="13.0856152"><ele>518.0</ele><time>2026-05-01T13:32:32.932Z</time></trkpt><trkpt lat="43.041681" lon="13.0854953"><ele>515.3333333333333</ele><time>2026-05-01T13:32:33.932Z</time></trkpt><trkpt lat="43.0418438" lon="13.085382"><ele>512.6666666666666</ele><time>2026-05-01T13:32:34.932Z</time></trkpt><trkpt lat="43.0419856" lon="13.0852818"><ele>510.0</ele><time>2026-05-01T13:32:35.931Z</time></trkpt><trkpt lat="43.042122" lon="13.0851786"><ele>510.0</ele><time>2026-05-01T13:32:36.932Z</time></trkpt><trkpt lat="43.0422613" lon="13.0850889"><ele>510.0</ele><time>2026-05-01T13:32:37.932Z</time></trkpt><trkpt lat="43.0424149" lon="13.0850141"><ele>510.0</ele><time>2026-05-01T13:32:38.932Z</time></trkpt><trkpt lat="43.0425924" lon="13.0849282"><ele>509.33333333333337</ele><time>2026-05-01T13:32:39.932Z</time></trkpt><trkpt lat="43.042809" lon="13.0848682"><ele>508.6666666666667</ele><time>2026-05-01T13:32:40.932Z</time></trkpt><trkpt lat="43.0430266" lon="13.0847935"><ele>508.0</ele><time>2026-05-01T13:32:41.932Z</time></trkpt><trkpt lat="43.0432437" lon="13.0847071"><ele>506.0</ele><time>2026-05-01T13:32:42.931Z</time></trkpt><trkpt lat="43.0434525" lon="13.0846348"><ele>504.0</ele><time>2026-05-01T13:32:43.932Z</time></trkpt><trkpt lat="43.0436446" lon="13.0845606"><ele>502.0</ele><time>2026-05-01T13:32:44.932Z</time></trkpt><trkpt lat="43.0438212" lon="13.0844955"><ele>502.0</ele><time>2026-05-01T13:32:45.932Z</time></trkpt><trkpt lat="43.0439833" lon="13.0844483"><ele>502.0</ele><time>2026-05-01T13:32:46.932Z</time></trkpt><trkpt lat="43.0441274" lon="13.084422"><ele>502.0</ele><time>2026-05-01T13:32:47.932Z</time></trkpt><trkpt lat="43.0442515" lon="13.0843867"><ele>502.0</ele><time>2026-05-01T13:32:48.932Z</time></trkpt><trkpt lat="43.0443589" lon="13.0843631"><ele>501.5</ele><time>2026-05-01T13:32:49.932Z</time></trkpt><trkpt lat="43.0444584" lon="13.0843388"><ele>501.0</ele><time>2026-05-01T13:32:50.932Z</time></trkpt><trkpt lat="43.0445706" lon="13.0843127"><ele>500.5</ele><time>2026-05-01T13:32:51.932Z</time></trkpt><trkpt lat="43.0446975" lon="13.0842793"><ele>500.0</ele><time>2026-05-01T13:32:52.932Z</time></trkpt><trkpt lat="43.0448552" lon="13.0842556"><ele>500.0</ele><time>2026-05-01T13:32:53.931Z</time></trkpt><trkpt lat="43.0450446" lon="13.0842377"><ele>500.0</ele><time>2026-05-01T13:32:54.932Z</time></trkpt><trkpt lat="43.0452303" lon="13.0842114"><ele>500.0</ele><time>2026-05-01T13:32:55.931Z</time></trkpt><trkpt lat="43.0454064" lon="13.084178"><ele>500.0</ele><time>2026-05-01T13:32:56.931Z</time></trkpt><trkpt lat="43.045581" lon="13.084156"><ele>500.0</ele><time>2026-05-01T13:32:57.932Z</time></trkpt><trkpt lat="43.0457665" lon="13.0841901"><ele>500.0</ele><time>2026-05-01T13:32:58.932Z</time></trkpt><trkpt lat="43.0459654" lon="13.084272"><ele>499.0</ele><time>2026-05-01T13:32:59.932Z</time></trkpt><trkpt lat="43.0461789" lon="13.0843657"><ele>498.0</ele><time>2026-05-01T13:33:00.932Z</time></trkpt><trkpt lat="43.0464" lon="13.0844768"><ele>498.0</ele><time>2026-05-01T13:33:01.931Z</time></trkpt><trkpt lat="43.0466194" lon="13.0845765"><ele>498.0</ele><time>2026-05-01T13:33:02.932Z</time></trkpt><trkpt lat="43.0468313" lon="13.0846707"><ele>495.5</ele><time>2026-05-01T13:33:03.932Z</time></trkpt><trkpt lat="43.0470585" lon="13.0847222"><ele>493.0</ele><time>2026-05-01T13:33:04.932Z</time></trkpt><trkpt lat="43.0472918" lon="13.0847235"><ele>491.0</ele><time>2026-05-01T13:33:05.932Z</time></trkpt><trkpt lat="43.0475252" lon="13.0847094"><ele>489.0</ele><time>2026-05-01T13:33:06.932Z</time></trkpt><trkpt lat="43.0477448" lon="13.0846847"><ele>489.0</ele><time>2026-05-01T13:33:07.932Z</time></trkpt><trkpt lat="43.0479275" lon="13.0846803"><ele>489.0</ele><time>2026-05-01T13:33:08.931Z</time></trkpt><trkpt lat="43.0480973" lon="13.0846968"><ele>489.0</ele><time>2026-05-01T13:33:09.932Z</time></trkpt><trkpt lat="43.0482796" lon="13.0847725"><ele>488.5</ele><time>2026-05-01T13:33:10.932Z</time></trkpt><trkpt lat="43.0484846" lon="13.0848907"><ele>488.0</ele><time>2026-05-01T13:33:11.931Z</time></trkpt><trkpt lat="43.0486888" lon="13.0850455"><ele>489.5</ele><time>2026-05-01T13:33:12.932Z</time></trkpt><trkpt lat="43.0488973" lon="13.0851963"><ele>491.0</ele><time>2026-05-01T13:33:13.932Z</time></trkpt><trkpt lat="43.0491081" lon="13.0853446"><ele>487.0</ele><time>2026-05-01T13:33:14.932Z</time></trkpt><trkpt lat="43.0493264" lon="13.0854775"><ele>483.0</ele><time>2026-05-01T13:33:15.932Z</time></trkpt><trkpt lat="43.0495556" lon="13.0855704"><ele>483.0</ele><time>2026-05-01T13:33:16.931Z</time></trkpt><trkpt lat="43.0497806" lon="13.0856346"><ele>483.0</ele><time>2026-05-01T13:33:17.932Z</time></trkpt><trkpt lat="43.049991" lon="13.0856956"><ele>483.0</ele><time>2026-05-01T13:33:18.932Z</time></trkpt><trkpt lat="43.0501833" lon="13.0857751"><ele>486.0</ele><time>2026-05-01T13:33:19.932Z</time></trkpt><trkpt lat="43.05036" lon="13.0858953"><ele>489.0</ele><time>2026-05-01T13:33:20.932Z</time></trkpt><trkpt lat="43.0505206" lon="13.0860818"><ele>492.0</ele><time>2026-05-01T13:33:21.932Z</time></trkpt><trkpt lat="43.0506728" lon="13.0862934"><ele>492.33333333333337</ele><time>2026-05-01T13:33:22.932Z</time></trkpt><trkpt lat="43.0508352" lon="13.0864946"><ele>492.6666666666667</ele><time>2026-05-01T13:33:23.931Z</time></trkpt><trkpt lat="43.0510247" lon="13.0866581"><ele>493.0</ele><time>2026-05-01T13:33:24.932Z</time></trkpt><trkpt lat="43.0512433" lon="13.0867921"><ele>493.0</ele><time>2026-05-01T13:33:25.932Z</time></trkpt><trkpt lat="43.0514577" lon="13.0869199"><ele>493.0</ele><time>2026-05-01T13:33:26.932Z</time></trkpt><trkpt lat="43.0516738" lon="13.0870699"><ele>483.5</ele><time>2026-05-01T13:33:27.931Z</time></trkpt><trkpt lat="43.0518877" lon="13.0872424"><ele>474.0</ele><time>2026-05-01T13:33:28.932Z</time></trkpt><trkpt lat="43.0520821" lon="13.0874203"><ele>473.33333333333337</ele><time>2026-05-01T13:33:29.932Z</time></trkpt><trkpt lat="43.0522537" lon="13.0876154"><ele>472.6666666666667</ele><time>2026-05-01T13:33:30.932Z</time></trkpt><trkpt lat="43.052405" lon="13.0878008"><ele>472.0</ele><time>2026-05-01T13:33:31.931Z</time></trkpt><trkpt lat="43.0525619" lon="13.0879922"><ele>472.0</ele><time>2026-05-01T13:33:32.932Z</time></trkpt><trkpt lat="43.0527345" lon="13.0881802"><ele>472.0</ele><time>2026-05-01T13:33:33.931Z</time></trkpt><trkpt lat="43.0529187" lon="13.0883379"><ele>472.0</ele><time>2026-05-01T13:33:34.931Z</time></trkpt><trkpt lat="43.0531066" lon="13.0884858"><ele>471.33333333333337</ele><time>2026-05-01T13:33:35.931Z</time></trkpt><trkpt lat="43.0532808" lon="13.0886566"><ele>470.66666666666663</ele><time>2026-05-01T13:33:36.932Z</time></trkpt><trkpt lat="43.0534341" lon="13.0888497"><ele>470.0</ele><time>2026-05-01T13:33:37.931Z</time></trkpt><trkpt lat="43.0535984" lon="13.0890071"><ele>471.66666666666663</ele><time>2026-05-01T13:33:38.932Z</time></trkpt><trkpt lat="43.0538004" lon="13.0891205"><ele>473.33333333333337</ele><time>2026-05-01T13:33:39.932Z</time></trkpt><trkpt lat="43.0540227" lon="13.0891891"><ele>475.0</ele><time>2026-05-01T13:33:40.932Z</time></trkpt><trkpt lat="43.0542583" lon="13.0892366"><ele>475.0</ele><time>2026-05-01T13:33:41.931Z</time></trkpt><trkpt lat="43.054501" lon="13.0892677"><ele>475.0</ele><time>2026-05-01T13:33:42.932Z</time></trkpt><trkpt lat="43.0547338" lon="13.0892901"><ele>474.0</ele><time>2026-05-01T13:33:43.932Z</time></trkpt><trkpt lat="43.0549694" lon="13.0892464"><ele>473.0</ele><time>2026-05-01T13:33:44.932Z</time></trkpt><trkpt lat="43.0552069" lon="13.089173"><ele>473.0</ele><time>2026-05-01T13:33:45.931Z</time></trkpt><trkpt lat="43.0554413" lon="13.0890954"><ele>473.0</ele><time>2026-05-01T13:33:46.931Z</time></trkpt><trkpt lat="43.0556572" lon="13.0890329"><ele>470.0</ele><time>2026-05-01T13:33:47.932Z</time></trkpt><trkpt lat="43.055842" lon="13.0889865"><ele>467.0</ele><time>2026-05-01T13:33:48.931Z</time></trkpt><trkpt lat="43.0560075" lon="13.088883"><ele>464.0</ele><time>2026-05-01T13:33:49.932Z</time></trkpt><trkpt lat="43.0561563" lon="13.088702"><ele>464.0</ele><time>2026-05-01T13:33:50.932Z</time></trkpt><trkpt lat="43.0563017" lon="13.0884731"><ele>464.0</ele><time>2026-05-01T13:33:51.931Z</time></trkpt><trkpt lat="43.0564467" lon="13.0882299"><ele>463.66666666666663</ele><time>2026-05-01T13:33:52.932Z</time></trkpt><trkpt lat="43.0565911" lon="13.0879848"><ele>463.33333333333337</ele><time>2026-05-01T13:33:53.932Z</time></trkpt><trkpt lat="43.056709" lon="13.0877803"><ele>463.0</ele><time>2026-05-01T13:33:54.932Z</time></trkpt><trkpt lat="43.0568064" lon="13.0876084"><ele>463.0</ele><time>2026-05-01T13:33:55.931Z</time></trkpt><trkpt lat="43.0569008" lon="13.0874498"><ele>463.0</ele><time>2026-05-01T13:33:56.931Z</time></trkpt><trkpt lat="43.0570158" lon="13.0873169"><ele>463.0</ele><time>2026-05-01T13:33:57.932Z</time></trkpt><trkpt lat="43.0571595" lon="13.0871953"><ele>462.0</ele><time>2026-05-01T13:33:58.931Z</time></trkpt><trkpt lat="43.057314" lon="13.0870585"><ele>461.0</ele><time>2026-05-01T13:33:59.931Z</time></trkpt><trkpt lat="43.0574998" lon="13.0869002"><ele>460.0</ele><time>2026-05-01T13:34:00.931Z</time></trkpt><trkpt lat="43.0576869" lon="13.0866966"><ele>456.5</ele><time>2026-05-01T13:34:01.931Z</time></trkpt><trkpt lat="43.0578605" lon="13.0864786"><ele>453.0</ele><time>2026-05-01T13:34:02.931Z</time></trkpt><trkpt lat="43.0580328" lon="13.086256"><ele>453.0</ele><time>2026-05-01T13:34:03.932Z</time></trkpt><trkpt lat="43.0582018" lon="13.0860302"><ele>453.0</ele><time>2026-05-01T13:34:04.931Z</time></trkpt><trkpt lat="43.0583688" lon="13.0858016"><ele>451.0</ele><time>2026-05-01T13:34:05.932Z</time></trkpt><trkpt lat="43.0585302" lon="13.0855735"><ele>449.0</ele><time>2026-05-01T13:34:06.931Z</time></trkpt><trkpt lat="43.0586933" lon="13.085366"><ele>449.0</ele><time>2026-05-01T13:34:07.932Z</time></trkpt><trkpt lat="43.0588404" lon="13.0851643"><ele>449.0</ele><time>2026-05-01T13:34:08.931Z</time></trkpt><trkpt lat="43.0589793" lon="13.0849947"><ele>449.0</ele><time>2026-05-01T13:34:09.932Z</time></trkpt><trkpt lat="43.0591127" lon="13.084845"><ele>448.66666666666663</ele><time>2026-05-01T13:34:10.931Z</time></trkpt><trkpt lat="43.0592591" lon="13.0847113"><ele>448.33333333333337</ele><time>2026-05-01T13:34:11.932Z</time></trkpt><trkpt lat="43.059424" lon="13.0846073"><ele>448.0</ele><time>2026-05-01T13:34:12.931Z</time></trkpt><trkpt lat="43.0595943" lon="13.0845185"><ele>448.0</ele><time>2026-05-01T13:34:13.932Z</time></trkpt><trkpt lat="43.0597598" lon="13.0844472"><ele>448.0</ele><time>2026-05-01T13:34:14.931Z</time></trkpt><trkpt lat="43.0599096" lon="13.0843784"><ele>448.0</ele><time>2026-05-01T13:34:15.932Z</time></trkpt><trkpt lat="43.0600236" lon="13.0843291"><ele>448.0</ele><time>2026-05-01T13:34:16.932Z</time></trkpt><trkpt lat="43.0600935" lon="13.0843048"><ele>447.99999999999994</ele><time>2026-05-01T13:34:17.931Z</time></trkpt><trkpt lat="43.0601637" lon="13.0842645"><ele>447.99999999999994</ele><time>2026-05-01T13:34:19.932Z</time></trkpt><trkpt lat="43.0602334" lon="13.0841758"><ele>448.0</ele><time>2026-05-01T13:34:34.931Z</time></trkpt><trkpt lat="43.0603421" lon="13.084083"><ele>448.0</ele><time>2026-05-01T13:34:36.932Z</time></trkpt><trkpt lat="43.0604253" lon="13.0840227"><ele>447.25</ele><time>2026-05-01T13:34:37.931Z</time></trkpt><trkpt lat="43.0605347" lon="13.0839477"><ele>446.5</ele><time>2026-05-01T13:34:38.932Z</time></trkpt><trkpt lat="43.0606594" lon="13.0838619"><ele>445.75</ele><time>2026-05-01T13:34:39.932Z</time></trkpt><trkpt lat="43.0607807" lon="13.0837783"><ele>445.0</ele><time>2026-05-01T13:34:40.932Z</time></trkpt><trkpt lat="43.0609155" lon="13.0836798"><ele>445.0</ele><time>2026-05-01T13:34:41.932Z</time></trkpt><trkpt lat="43.061053" lon="13.0835794"><ele>445.0</ele><time>2026-05-01T13:34:42.932Z</time></trkpt><trkpt lat="43.0611938" lon="13.0834787"><ele>445.0</ele><time>2026-05-01T13:34:43.932Z</time></trkpt><trkpt lat="43.0613352" lon="13.0833707"><ele>445.0</ele><time>2026-05-01T13:34:44.931Z</time></trkpt><trkpt lat="43.0614907" lon="13.0832668"><ele>445.0</ele><time>2026-05-01T13:34:45.931Z</time></trkpt><trkpt lat="43.0616434" lon="13.0831555"><ele>445.0</ele><time>2026-05-01T13:34:46.931Z</time></trkpt><trkpt lat="43.0617878" lon="13.0830474"><ele>444.0</ele><time>2026-05-01T13:34:47.932Z</time></trkpt><trkpt lat="43.0619298" lon="13.0829486"><ele>443.0</ele><time>2026-05-01T13:34:48.932Z</time></trkpt><trkpt lat="43.0620645" lon="13.0828556"><ele>442.0</ele><time>2026-05-01T13:34:49.932Z</time></trkpt><trkpt lat="43.0621925" lon="13.0827762"><ele>442.0</ele><time>2026-05-01T13:34:50.931Z</time></trkpt><trkpt lat="43.0623195" lon="13.0826947"><ele>442.0</ele><time>2026-05-01T13:34:51.932Z</time></trkpt><trkpt lat="43.0624387" lon="13.0826525"><ele>442.0</ele><time>2026-05-01T13:34:52.932Z</time></trkpt><trkpt lat="43.0625565" lon="13.082615"><ele>442.0</ele><time>2026-05-01T13:34:53.932Z</time></trkpt><trkpt lat="43.0626591" lon="13.0825853"><ele>442.00000000000006</ele><time>2026-05-01T13:34:54.932Z</time></trkpt><trkpt lat="43.0627646" lon="13.0825621"><ele>442.0</ele><time>2026-05-01T13:34:55.931Z</time></trkpt><trkpt lat="43.0628567" lon="13.0825487"><ele>442.0</ele><time>2026-05-01T13:34:56.931Z</time></trkpt><trkpt lat="43.0629247" lon="13.0825342"><ele>442.0</ele><time>2026-05-01T13:34:57.931Z</time></trkpt><trkpt lat="43.0630058" lon="13.0825285"><ele>442.00000000000006</ele><time>2026-05-01T13:34:59.932Z</time></trkpt><trkpt lat="43.0630743" lon="13.0825153"><ele>442.0</ele><time>2026-05-01T13:35:02.932Z</time></trkpt><trkpt lat="43.0631628" lon="13.0824891"><ele>442.0</ele><time>2026-05-01T13:35:06.932Z</time></trkpt><trkpt lat="43.0632653" lon="13.082457"><ele>442.00000000000006</ele><time>2026-05-01T13:35:08.932Z</time></trkpt><trkpt lat="43.0633474" lon="13.0824601"><ele>442.00000000000006</ele><time>2026-05-01T13:35:09.932Z</time></trkpt><trkpt lat="43.0634488" lon="13.0824668"><ele>442.0</ele><time>2026-05-01T13:35:10.932Z</time></trkpt><trkpt lat="43.0635673" lon="13.082457"><ele>442.0</ele><time>2026-05-01T13:35:11.932Z</time></trkpt><trkpt lat="43.0636939" lon="13.0824411"><ele>441.6</ele><time>2026-05-01T13:35:12.931Z</time></trkpt><trkpt lat="43.0638136" lon="13.0824156"><ele>441.20000000000005</ele><time>2026-05-01T13:35:13.931Z</time></trkpt><trkpt lat="43.0639221" lon="13.0823777"><ele>440.8</ele><time>2026-05-01T13:35:14.932Z</time></trkpt><trkpt lat="43.0640185" lon="13.0823093"><ele>440.4</ele><time>2026-05-01T13:35:15.932Z</time></trkpt><trkpt lat="43.0641066" lon="13.0822286"><ele>440.0</ele><time>2026-05-01T13:35:16.932Z</time></trkpt><trkpt lat="43.0641888" lon="13.0821581"><ele>440.0</ele><time>2026-05-01T13:35:17.932Z</time></trkpt><trkpt lat="43.0642825" lon="13.082112"><ele>440.0</ele><time>2026-05-01T13:35:18.931Z</time></trkpt><trkpt lat="43.0643996" lon="13.0820976"><ele>440.0</ele><time>2026-05-01T13:35:19.931Z</time></trkpt><trkpt lat="43.0645256" lon="13.0820985"><ele>440.0</ele><time>2026-05-01T13:35:20.932Z</time></trkpt><trkpt lat="43.0646595" lon="13.0821187"><ele>440.0</ele><time>2026-05-01T13:35:21.931Z</time></trkpt><trkpt lat="43.0647977" lon="13.0821309"><ele>440.0</ele><time>2026-05-01T13:35:22.932Z</time></trkpt><trkpt lat="43.0649378" lon="13.0821425"><ele>440.0</ele><time>2026-05-01T13:35:23.931Z</time></trkpt><trkpt lat="43.0650765" lon="13.082157"><ele>440.0</ele><time>2026-05-01T13:35:24.932Z</time></trkpt><trkpt lat="43.0652075" lon="13.0822021"><ele>439.0</ele><time>2026-05-01T13:35:25.932Z</time></trkpt><trkpt lat="43.0653448" lon="13.0822892"><ele>438.0</ele><time>2026-05-01T13:35:26.931Z</time></trkpt><trkpt lat="43.0654652" lon="13.0823703"><ele>437.0</ele><time>2026-05-01T13:35:27.932Z</time></trkpt><trkpt lat="43.0655815" lon="13.0824351"><ele>436.0</ele><time>2026-05-01T13:35:28.932Z</time></trkpt><trkpt lat="43.0656957" lon="13.0824989"><ele>436.25</ele><time>2026-05-01T13:35:29.932Z</time></trkpt><trkpt lat="43.0658015" lon="13.0825608"><ele>436.5</ele><time>2026-05-01T13:35:30.932Z</time></trkpt><trkpt lat="43.0659068" lon="13.0826091"><ele>436.75</ele><time>2026-05-01T13:35:31.932Z</time></trkpt><trkpt lat="43.0660203" lon="13.0826448"><ele>437.0</ele><time>2026-05-01T13:35:32.932Z</time></trkpt><trkpt lat="43.0661439" lon="13.0826557"><ele>437.0</ele><time>2026-05-01T13:35:33.931Z</time></trkpt><trkpt lat="43.066264" lon="13.0826482"><ele>437.0</ele><time>2026-05-01T13:35:34.932Z</time></trkpt><trkpt lat="43.0663877" lon="13.0826081"><ele>437.0</ele><time>2026-05-01T13:35:35.931Z</time></trkpt><trkpt lat="43.0665065" lon="13.0825502"><ele>437.0</ele><time>2026-05-01T13:35:36.932Z</time></trkpt><trkpt lat="43.0666217" lon="13.0824757"><ele>438.75</ele><time>2026-05-01T13:35:37.932Z</time></trkpt><trkpt lat="43.0667411" lon="13.0824054"><ele>440.5</ele><time>2026-05-01T13:35:38.932Z</time></trkpt><trkpt lat="43.0668655" lon="13.0823268"><ele>442.25</ele><time>2026-05-01T13:35:39.931Z</time></trkpt><trkpt lat="43.0669898" lon="13.082244"><ele>444.0</ele><time>2026-05-01T13:35:40.931Z</time></trkpt><trkpt lat="43.0671159" lon="13.0821652"><ele>444.0</ele><time>2026-05-01T13:35:41.932Z</time></trkpt><trkpt lat="43.0672524" lon="13.0820972"><ele>444.0</ele><time>2026-05-01T13:35:42.931Z</time></trkpt><trkpt lat="43.0673936" lon="13.0820521"><ele>444.0</ele><time>2026-05-01T13:35:43.931Z</time></trkpt><trkpt lat="43.0675435" lon="13.0820332"><ele>444.0</ele><time>2026-05-01T13:35:44.932Z</time></trkpt><trkpt lat="43.0677011" lon="13.0820405"><ele>442.33333333333337</ele><time>2026-05-01T13:35:45.932Z</time></trkpt><trkpt lat="43.0678694" lon="13.082061"><ele>440.6666666666667</ele><time>2026-05-01T13:35:46.931Z</time></trkpt><trkpt lat="43.0680357" lon="13.082096"><ele>439.0</ele><time>2026-05-01T13:35:47.932Z</time></trkpt><trkpt lat="43.0682017" lon="13.0821343"><ele>437.6666666666667</ele><time>2026-05-01T13:35:48.932Z</time></trkpt><trkpt lat="43.0683755" lon="13.082157"><ele>436.33333333333337</ele><time>2026-05-01T13:35:49.932Z</time></trkpt><trkpt lat="43.0685584" lon="13.0821516"><ele>435.0</ele><time>2026-05-01T13:35:50.931Z</time></trkpt><trkpt lat="43.0687422" lon="13.082134"><ele>435.0</ele><time>2026-05-01T13:35:51.932Z</time></trkpt><trkpt lat="43.0689323" lon="13.0821363"><ele>435.0</ele><time>2026-05-01T13:35:52.931Z</time></trkpt><trkpt lat="43.0691179" lon="13.0821506"><ele>435.0</ele><time>2026-05-01T13:35:53.931Z</time></trkpt><trkpt lat="43.0693051" lon="13.0822155"><ele>435.33333333333337</ele><time>2026-05-01T13:35:54.932Z</time></trkpt><trkpt lat="43.0694886" lon="13.082313"><ele>435.6666666666667</ele><time>2026-05-01T13:35:55.931Z</time></trkpt><trkpt lat="43.0696711" lon="13.0824247"><ele>436.0</ele><time>2026-05-01T13:35:56.931Z</time></trkpt><trkpt lat="43.0698505" lon="13.0825341"><ele>435.33333333333337</ele><time>2026-05-01T13:35:57.932Z</time></trkpt><trkpt lat="43.0700182" lon="13.0826192"><ele>434.66666666666663</ele><time>2026-05-01T13:35:58.932Z</time></trkpt><trkpt lat="43.070203" lon="13.0826399"><ele>434.0</ele><time>2026-05-01T13:35:59.932Z</time></trkpt><trkpt lat="43.0704053" lon="13.0826211"><ele>434.0</ele><time>2026-05-01T13:36:00.932Z</time></trkpt><trkpt lat="43.0706137" lon="13.0825837"><ele>434.0</ele><time>2026-05-01T13:36:01.932Z</time></trkpt><trkpt lat="43.0708295" lon="13.0825847"><ele>434.0</ele><time>2026-05-01T13:36:02.931Z</time></trkpt><trkpt lat="43.0710507" lon="13.0826301"><ele>433.0</ele><time>2026-05-01T13:36:03.932Z</time></trkpt><trkpt lat="43.0712613" lon="13.082689"><ele>432.0</ele><time>2026-05-01T13:36:04.932Z</time></trkpt><trkpt lat="43.0714531" lon="13.08277"><ele>431.0</ele><time>2026-05-01T13:36:05.932Z</time></trkpt><trkpt lat="43.0716438" lon="13.0828385"><ele>431.0</ele><time>2026-05-01T13:36:06.931Z</time></trkpt><trkpt lat="43.0718227" lon="13.082886"><ele>431.0</ele><time>2026-05-01T13:36:07.931Z</time></trkpt><trkpt lat="43.0719988" lon="13.0829447"><ele>431.0</ele><time>2026-05-01T13:36:08.932Z</time></trkpt><trkpt lat="43.0721792" lon="13.0830045"><ele>431.0</ele><time>2026-05-01T13:36:09.932Z</time></trkpt><trkpt lat="43.0723717" lon="13.0830718"><ele>431.0</ele><time>2026-05-01T13:36:10.932Z</time></trkpt><trkpt lat="43.0725766" lon="13.0831338"><ele>431.0</ele><time>2026-05-01T13:36:11.931Z</time></trkpt><trkpt lat="43.0727876" lon="13.0832008"><ele>428.66666666666663</ele><time>2026-05-01T13:36:12.932Z</time></trkpt><trkpt lat="43.0729959" lon="13.0832716"><ele>426.33333333333337</ele><time>2026-05-01T13:36:13.932Z</time></trkpt><trkpt lat="43.0732075" lon="13.0833435"><ele>424.0</ele><time>2026-05-01T13:36:14.932Z</time></trkpt><trkpt lat="43.0734123" lon="13.0833984"><ele>424.0</ele><time>2026-05-01T13:36:15.932Z</time></trkpt><trkpt lat="43.0736132" lon="13.0834566"><ele>424.0</ele><time>2026-05-01T13:36:16.932Z</time></trkpt><trkpt lat="43.0737983" lon="13.083495"><ele>424.0</ele><time>2026-05-01T13:36:17.932Z</time></trkpt><trkpt lat="43.0739718" lon="13.0835196"><ele>423.6666666666667</ele><time>2026-05-01T13:36:18.931Z</time></trkpt><trkpt lat="43.0741396" lon="13.0835225"><ele>423.33333333333337</ele><time>2026-05-01T13:36:19.932Z</time></trkpt><trkpt lat="43.0743066" lon="13.0834942"><ele>423.0</ele><time>2026-05-01T13:36:20.932Z</time></trkpt><trkpt lat="43.0744718" lon="13.0834363"><ele>423.0</ele><time>2026-05-01T13:36:21.932Z</time></trkpt><trkpt lat="43.0746271" lon="13.0833302"><ele>423.0</ele><time>2026-05-01T13:36:22.931Z</time></trkpt><trkpt lat="43.0747713" lon="13.0832032"><ele>423.0</ele><time>2026-05-01T13:36:23.932Z</time></trkpt><trkpt lat="43.0749008" lon="13.0830708"><ele>421.0</ele><time>2026-05-01T13:36:24.932Z</time></trkpt><trkpt lat="43.0750318" lon="13.0829331"><ele>419.0</ele><time>2026-05-01T13:36:25.931Z</time></trkpt><trkpt lat="43.0751936" lon="13.0828029"><ele>417.0</ele><time>2026-05-01T13:36:26.932Z</time></trkpt><trkpt lat="43.075356" lon="13.0826667"><ele>417.0</ele><time>2026-05-01T13:36:27.931Z</time></trkpt><trkpt lat="43.0755426" lon="13.0825516"><ele>417.0</ele><time>2026-05-01T13:36:28.931Z</time></trkpt><trkpt lat="43.0757379" lon="13.0824359"><ele>417.0</ele><time>2026-05-01T13:36:29.932Z</time></trkpt><trkpt lat="43.0759332" lon="13.0823131"><ele>415.33333333333337</ele><time>2026-05-01T13:36:30.932Z</time></trkpt><trkpt lat="43.0761333" lon="13.0821902"><ele>413.6666666666667</ele><time>2026-05-01T13:36:31.931Z</time></trkpt><trkpt lat="43.0763382" lon="13.0820706"><ele>412.0</ele><time>2026-05-01T13:36:32.932Z</time></trkpt><trkpt lat="43.0765485" lon="13.0819548"><ele>410.0</ele><time>2026-05-01T13:36:33.932Z</time></trkpt><trkpt lat="43.0767584" lon="13.0818334"><ele>408.0</ele><time>2026-05-01T13:36:34.932Z</time></trkpt><trkpt lat="43.0769734" lon="13.0817033"><ele>408.5</ele><time>2026-05-01T13:36:35.931Z</time></trkpt><trkpt lat="43.0771863" lon="13.0815724"><ele>409.0</ele><time>2026-05-01T13:36:36.932Z</time></trkpt><trkpt lat="43.0773865" lon="13.081459"><ele>409.0</ele><time>2026-05-01T13:36:37.932Z</time></trkpt><trkpt lat="43.0775738" lon="13.0813495"><ele>409.0</ele><time>2026-05-01T13:36:38.932Z</time></trkpt><trkpt lat="43.077743" lon="13.0812437"><ele>409.0</ele><time>2026-05-01T13:36:39.932Z</time></trkpt><trkpt lat="43.0778986" lon="13.0811497"><ele>409.0</ele><time>2026-05-01T13:36:40.931Z</time></trkpt><trkpt lat="43.078031" lon="13.0810729"><ele>409.0</ele><time>2026-05-01T13:36:41.932Z</time></trkpt><trkpt lat="43.0781429" lon="13.0809989"><ele>409.0</ele><time>2026-05-01T13:36:42.932Z</time></trkpt><trkpt lat="43.0782415" lon="13.0809252"><ele>409.0</ele><time>2026-05-01T13:36:43.931Z</time></trkpt><trkpt lat="43.0783392" lon="13.0808549"><ele>409.0</ele><time>2026-05-01T13:36:44.932Z</time></trkpt><trkpt lat="43.078438" lon="13.0807845"><ele>409.0</ele><time>2026-05-01T13:36:45.931Z</time></trkpt><trkpt lat="43.0785379" lon="13.0807221"><ele>409.0</ele><time>2026-05-01T13:36:46.931Z</time></trkpt><trkpt lat="43.0786374" lon="13.0806816"><ele>409.0</ele><time>2026-05-01T13:36:47.932Z</time></trkpt><trkpt lat="43.0787281" lon="13.0806688"><ele>409.0</ele><time>2026-05-01T13:36:48.932Z</time></trkpt><trkpt lat="43.0788139" lon="13.0806548"><ele>409.00000000000006</ele><time>2026-05-01T13:36:49.932Z</time></trkpt><trkpt lat="43.0788887" lon="13.0806558"><ele>409.0</ele><time>2026-05-01T13:36:50.932Z</time></trkpt><trkpt lat="43.0789914" lon="13.0806718"><ele>409.0</ele><time>2026-05-01T13:36:52.931Z</time></trkpt><trkpt lat="43.0790752" lon="13.0805969"><ele>409.0</ele><time>2026-05-01T13:37:02.932Z</time></trkpt><trkpt lat="43.079099" lon="13.0804958"><ele>409.00000000000006</ele><time>2026-05-01T13:37:03.932Z</time></trkpt><trkpt lat="43.0791219" lon="13.0803772"><ele>409.0</ele><time>2026-05-01T13:37:04.932Z</time></trkpt><trkpt lat="43.0791446" lon="13.080246"><ele>410.0</ele><time>2026-05-01T13:37:05.932Z</time></trkpt><trkpt lat="43.0791656" lon="13.0800824"><ele>411.0</ele><time>2026-05-01T13:37:06.932Z</time></trkpt><trkpt lat="43.079183" lon="13.0799002"><ele>412.0</ele><time>2026-05-01T13:37:07.932Z</time></trkpt><trkpt lat="43.0791918" lon="13.0797114"><ele>413.0</ele><time>2026-05-01T13:37:08.932Z</time></trkpt><trkpt lat="43.0792052" lon="13.0795263"><ele>413.0</ele><time>2026-05-01T13:37:09.931Z</time></trkpt><trkpt lat="43.0792211" lon="13.0793232"><ele>413.0</ele><time>2026-05-01T13:37:10.932Z</time></trkpt><trkpt lat="43.0792399" lon="13.0791157"><ele>413.0</ele><time>2026-05-01T13:37:11.931Z</time></trkpt><trkpt lat="43.0792581" lon="13.0789058"><ele>412.66666666666663</ele><time>2026-05-01T13:37:12.932Z</time></trkpt><trkpt lat="43.0792767" lon="13.0786936"><ele>412.33333333333337</ele><time>2026-05-01T13:37:13.931Z</time></trkpt><trkpt lat="43.0793001" lon="13.0784699"><ele>412.0</ele><time>2026-05-01T13:37:14.932Z</time></trkpt><trkpt lat="43.0793226" lon="13.0782399"><ele>412.0</ele><time>2026-05-01T13:37:15.932Z</time></trkpt><trkpt lat="43.0793473" lon="13.0780062"><ele>412.0</ele><time>2026-05-01T13:37:16.932Z</time></trkpt><trkpt lat="43.0793629" lon="13.0777669"><ele>412.0</ele><time>2026-05-01T13:37:17.932Z</time></trkpt><trkpt lat="43.0793732" lon="13.077529"><ele>412.33333333333337</ele><time>2026-05-01T13:37:18.931Z</time></trkpt><trkpt lat="43.0793786" lon="13.0772942"><ele>412.66666666666663</ele><time>2026-05-01T13:37:19.931Z</time></trkpt><trkpt lat="43.0793876" lon="13.0770737"><ele>413.0</ele><time>2026-05-01T13:37:20.932Z</time></trkpt><trkpt lat="43.0793946" lon="13.0768599"><ele>413.0</ele><time>2026-05-01T13:37:21.932Z</time></trkpt><trkpt lat="43.0794008" lon="13.0766466"><ele>413.0</ele><time>2026-05-01T13:37:22.932Z</time></trkpt><trkpt lat="43.0794077" lon="13.076433"><ele>413.0</ele><time>2026-05-01T13:37:23.932Z</time></trkpt><trkpt lat="43.0794195" lon="13.0762181"><ele>413.3333333333333</ele><time>2026-05-01T13:37:24.932Z</time></trkpt><trkpt lat="43.0794178" lon="13.0760058"><ele>413.66666666666663</ele><time>2026-05-01T13:37:25.932Z</time></trkpt><trkpt lat="43.0793935" lon="13.0757857"><ele>414.0</ele><time>2026-05-01T13:37:26.932Z</time></trkpt><trkpt lat="43.0793557" lon="13.0755759"><ele>414.4</ele><time>2026-05-01T13:37:27.932Z</time></trkpt><trkpt lat="43.0792982" lon="13.0754117"><ele>414.79999999999995</ele><time>2026-05-01T13:37:28.932Z</time></trkpt><trkpt lat="43.079242" lon="13.0752618"><ele>415.20000000000005</ele><time>2026-05-01T13:37:29.932Z</time></trkpt><trkpt lat="43.0791914" lon="13.0751463"><ele>415.6</ele><time>2026-05-01T13:37:30.932Z</time></trkpt><trkpt lat="43.0791627" lon="13.0750388"><ele>416.0</ele><time>2026-05-01T13:37:31.932Z</time></trkpt><trkpt lat="43.0791486" lon="13.0749516"><ele>416.49999999999994</ele><time>2026-05-01T13:37:32.932Z</time></trkpt><trkpt lat="43.0791576" lon="13.0748501"><ele>417.0</ele><time>2026-05-01T13:37:34.931Z</time></trkpt><trkpt lat="43.0791815" lon="13.07477"><ele>417.5</ele><time>2026-05-01T13:37:43.932Z</time></trkpt><trkpt lat="43.0791997" lon="13.0746658"><ele>418.0</ele><time>2026-05-01T13:37:44.931Z</time></trkpt><trkpt lat="43.0792016" lon="13.0745438"><ele>418.49999999999994</ele><time>2026-05-01T13:37:45.932Z</time></trkpt><trkpt lat="43.0791736" lon="13.0744228"><ele>419.0</ele><time>2026-05-01T13:37:46.932Z</time></trkpt><trkpt lat="43.0791061" lon="13.0743293"><ele>418.79999999999995</ele><time>2026-05-01T13:37:47.932Z</time></trkpt><trkpt lat="43.0790261" lon="13.074248"><ele>418.59999999999997</ele><time>2026-05-01T13:37:48.932Z</time></trkpt><trkpt lat="43.0789435" lon="13.0741677"><ele>418.4</ele><time>2026-05-01T13:37:49.932Z</time></trkpt><trkpt lat="43.0788676" lon="13.0740564"><ele>418.2</ele><time>2026-05-01T13:37:50.932Z</time></trkpt><trkpt lat="43.0788018" lon="13.0739102"><ele>418.0</ele><time>2026-05-01T13:37:51.931Z</time></trkpt><trkpt lat="43.0787436" lon="13.0737414"><ele>418.0</ele><time>2026-05-01T13:37:52.931Z</time></trkpt><trkpt lat="43.0786735" lon="13.0735654"><ele>418.0</ele><time>2026-05-01T13:37:53.932Z</time></trkpt><trkpt lat="43.0785929" lon="13.0733795"><ele>418.0</ele><time>2026-05-01T13:37:54.932Z</time></trkpt><trkpt lat="43.0785055" lon="13.0731817"><ele>417.33333333333337</ele><time>2026-05-01T13:37:55.932Z</time></trkpt><trkpt lat="43.0784155" lon="13.072966"><ele>416.66666666666663</ele><time>2026-05-01T13:37:56.932Z</time></trkpt><trkpt lat="43.0783288" lon="13.0727453"><ele>416.0</ele><time>2026-05-01T13:37:57.931Z</time></trkpt><trkpt lat="43.0782374" lon="13.0725195"><ele>416.0</ele><time>2026-05-01T13:37:58.931Z</time></trkpt><trkpt lat="43.0781524" lon="13.0722796"><ele>416.0</ele><time>2026-05-01T13:37:59.931Z</time></trkpt><trkpt lat="43.0780637" lon="13.0720325"><ele>416.0</ele><time>2026-05-01T13:38:00.932Z</time></trkpt><trkpt lat="43.0779719" lon="13.0717739"><ele>417.0</ele><time>2026-05-01T13:38:01.931Z</time></trkpt><trkpt lat="43.0778816" lon="13.0715123"><ele>418.0</ele><time>2026-05-01T13:38:02.932Z</time></trkpt><trkpt lat="43.0777883" lon="13.0712432"><ele>419.0</ele><time>2026-05-01T13:38:03.932Z</time></trkpt><trkpt lat="43.0776964" lon="13.0709678"><ele>422.0</ele><time>2026-05-01T13:38:04.932Z</time></trkpt><trkpt lat="43.0775948" lon="13.0706908"><ele>425.0</ele><time>2026-05-01T13:38:05.932Z</time></trkpt><trkpt lat="43.0774963" lon="13.0704119"><ele>423.66666666666663</ele><time>2026-05-01T13:38:06.931Z</time></trkpt><trkpt lat="43.0774001" lon="13.0701361"><ele>422.33333333333337</ele><time>2026-05-01T13:38:07.932Z</time></trkpt><trkpt lat="43.0773109" lon="13.0698667"><ele>421.0</ele><time>2026-05-01T13:38:08.932Z</time></trkpt><trkpt lat="43.077224" lon="13.069596"><ele>421.0</ele><time>2026-05-01T13:38:09.931Z</time></trkpt><trkpt lat="43.0771384" lon="13.069326"><ele>421.0</ele><time>2026-05-01T13:38:10.932Z</time></trkpt><trkpt lat="43.0770472" lon="13.069054"><ele>421.0</ele><time>2026-05-01T13:38:11.932Z</time></trkpt><trkpt lat="43.0769555" lon="13.068774"><ele>421.33333333333337</ele><time>2026-05-01T13:38:12.932Z</time></trkpt><trkpt lat="43.0768675" lon="13.068493"><ele>421.66666666666663</ele><time>2026-05-01T13:38:13.932Z</time></trkpt><trkpt lat="43.0767796" lon="13.0682116"><ele>422.0</ele><time>2026-05-01T13:38:14.932Z</time></trkpt><trkpt lat="43.0767004" lon="13.0679334"><ele>422.0</ele><time>2026-05-01T13:38:15.931Z</time></trkpt><trkpt lat="43.0766292" lon="13.0676636"><ele>422.0</ele><time>2026-05-01T13:38:16.932Z</time></trkpt><trkpt lat="43.0765758" lon="13.0674137"><ele>422.0</ele><time>2026-05-01T13:38:17.931Z</time></trkpt><trkpt lat="43.0765419" lon="13.0671595"><ele>423.0</ele><time>2026-05-01T13:38:18.932Z</time></trkpt><trkpt lat="43.0765324" lon="13.0669075"><ele>424.0</ele><time>2026-05-01T13:38:19.931Z</time></trkpt><trkpt lat="43.0765397" lon="13.0666413"><ele>425.0</ele><time>2026-05-01T13:38:20.931Z</time></trkpt><trkpt lat="43.0765588" lon="13.0663795"><ele>425.0</ele><time>2026-05-01T13:38:21.931Z</time></trkpt><trkpt lat="43.0765823" lon="13.0661363"><ele>425.0</ele><time>2026-05-01T13:38:22.931Z</time></trkpt><trkpt lat="43.0765955" lon="13.0659268"><ele>425.0</ele><time>2026-05-01T13:38:23.931Z</time></trkpt><trkpt lat="43.0765838" lon="13.0657312"><ele>426.3333333333333</ele><time>2026-05-01T13:38:24.931Z</time></trkpt><trkpt lat="43.0765375" lon="13.0655491"><ele>427.66666666666663</ele><time>2026-05-01T13:38:25.932Z</time></trkpt><trkpt lat="43.076447" lon="13.0653799"><ele>429.0</ele><time>2026-05-01T13:38:26.932Z</time></trkpt><trkpt lat="43.0763225" lon="13.0652261"><ele>429.0</ele><time>2026-05-01T13:38:27.931Z</time></trkpt><trkpt lat="43.0761939" lon="13.0650709"><ele>429.0</ele><time>2026-05-01T13:38:28.932Z</time></trkpt><trkpt lat="43.076066" lon="13.0649376"><ele>429.0</ele><time>2026-05-01T13:38:29.931Z</time></trkpt><trkpt lat="43.0759601" lon="13.0647983"><ele>428.75</ele><time>2026-05-01T13:38:30.932Z</time></trkpt><trkpt lat="43.0758808" lon="13.0646302"><ele>428.5</ele><time>2026-05-01T13:38:31.932Z</time></trkpt><trkpt lat="43.0758232" lon="13.0644551"><ele>428.25</ele><time>2026-05-01T13:38:32.932Z</time></trkpt><trkpt lat="43.0757778" lon="13.0642591"><ele>428.0</ele><time>2026-05-01T13:38:33.932Z</time></trkpt><trkpt lat="43.0757432" lon="13.0640389"><ele>428.0</ele><time>2026-05-01T13:38:34.932Z</time></trkpt><trkpt lat="43.0757148" lon="13.0638161"><ele>428.0</ele><time>2026-05-01T13:38:35.932Z</time></trkpt><trkpt lat="43.0756957" lon="13.0635734"><ele>428.0</ele><time>2026-05-01T13:38:36.932Z</time></trkpt><trkpt lat="43.0756735" lon="13.0633391"><ele>428.3333333333333</ele><time>2026-05-01T13:38:37.932Z</time></trkpt><trkpt lat="43.0756533" lon="13.0630987"><ele>428.66666666666663</ele><time>2026-05-01T13:38:38.932Z</time></trkpt><trkpt lat="43.0756346" lon="13.0628549"><ele>429.0</ele><time>2026-05-01T13:38:39.932Z</time></trkpt><trkpt lat="43.0756266" lon="13.0626354"><ele>429.25</ele><time>2026-05-01T13:38:40.931Z</time></trkpt><trkpt lat="43.0756298" lon="13.0624238"><ele>429.5</ele><time>2026-05-01T13:38:41.932Z</time></trkpt><trkpt lat="43.0756258" lon="13.0622225"><ele>429.75</ele><time>2026-05-01T13:38:42.932Z</time></trkpt><trkpt lat="43.0756274" lon="13.0620375"><ele>430.0</ele><time>2026-05-01T13:38:43.931Z</time></trkpt><trkpt lat="43.0756309" lon="13.0618509"><ele>430.0</ele><time>2026-05-01T13:38:44.932Z</time></trkpt><trkpt lat="43.0756323" lon="13.0616508"><ele>430.0</ele><time>2026-05-01T13:38:45.931Z</time></trkpt><trkpt lat="43.0756399" lon="13.061434"><ele>430.0</ele><time>2026-05-01T13:38:46.932Z</time></trkpt><trkpt lat="43.0756606" lon="13.0612065"><ele>430.33333333333337</ele><time>2026-05-01T13:38:47.932Z</time></trkpt><trkpt lat="43.0756955" lon="13.0609724"><ele>430.66666666666663</ele><time>2026-05-01T13:38:48.932Z</time></trkpt><trkpt lat="43.0757477" lon="13.0607447"><ele>431.0</ele><time>2026-05-01T13:38:49.932Z</time></trkpt><trkpt lat="43.0758075" lon="13.0605141"><ele>433.0</ele><time>2026-05-01T13:38:50.931Z</time></trkpt><trkpt lat="43.0758695" lon="13.0602814"><ele>435.0</ele><time>2026-05-01T13:38:51.932Z</time></trkpt><trkpt lat="43.0759312" lon="13.0600396"><ele>437.0</ele><time>2026-05-01T13:38:52.931Z</time></trkpt><trkpt lat="43.0759939" lon="13.059794"><ele>437.0</ele><time>2026-05-01T13:38:53.931Z</time></trkpt><trkpt lat="43.0760592" lon="13.0595472"><ele>437.0</ele><time>2026-05-01T13:38:54.932Z</time></trkpt><trkpt lat="43.0761236" lon="13.059309"><ele>437.0</ele><time>2026-05-01T13:38:55.932Z</time></trkpt><trkpt lat="43.0761817" lon="13.0590842"><ele>436.5</ele><time>2026-05-01T13:38:56.932Z</time></trkpt><trkpt lat="43.0762326" lon="13.0588875"><ele>436.0</ele><time>2026-05-01T13:38:57.931Z</time></trkpt><trkpt lat="43.0762752" lon="13.0587168"><ele>435.5</ele><time>2026-05-01T13:38:58.932Z</time></trkpt><trkpt lat="43.0763209" lon="13.0585524"><ele>435.0</ele><time>2026-05-01T13:38:59.931Z</time></trkpt><trkpt lat="43.0763562" lon="13.058394"><ele>434.8</ele><time>2026-05-01T13:39:00.932Z</time></trkpt><trkpt lat="43.0763892" lon="13.0582452"><ele>434.6</ele><time>2026-05-01T13:39:01.932Z</time></trkpt><trkpt lat="43.0764221" lon="13.0581078"><ele>434.4</ele><time>2026-05-01T13:39:02.932Z</time></trkpt><trkpt lat="43.0764542" lon="13.0579819"><ele>434.2</ele><time>2026-05-01T13:39:03.932Z</time></trkpt><trkpt lat="43.0764801" lon="13.0578859"><ele>434.0</ele><time>2026-05-01T13:39:04.932Z</time></trkpt><trkpt lat="43.076509" lon="13.0577631"><ele>433.99999999999994</ele><time>2026-05-01T13:39:06.931Z</time></trkpt><trkpt lat="43.0764766" lon="13.0576874"><ele>434.0</ele><time>2026-05-01T13:39:08.932Z</time></trkpt><trkpt lat="43.0764046" lon="13.057652"><ele>434.0</ele><time>2026-05-01T13:39:10.932Z</time></trkpt><trkpt lat="43.0763458" lon="13.0576166"><ele>434.0</ele><time>2026-05-01T13:39:11.931Z</time></trkpt><trkpt lat="43.0762782" lon="13.0575832"><ele>433.99999999999994</ele><time>2026-05-01T13:39:12.931Z</time></trkpt><trkpt lat="43.0762058" lon="13.0575383"><ele>434.0</ele><time>2026-05-01T13:39:13.932Z</time></trkpt><trkpt lat="43.0761192" lon="13.0574831"><ele>434.2</ele><time>2026-05-01T13:39:14.932Z</time></trkpt><trkpt lat="43.0760268" lon="13.0574205"><ele>434.4</ele><time>2026-05-01T13:39:15.932Z</time></trkpt><trkpt lat="43.0759339" lon="13.0573535"><ele>434.6</ele><time>2026-05-01T13:39:16.931Z</time></trkpt><trkpt lat="43.075846" lon="13.0572809"><ele>434.8</ele><time>2026-05-01T13:39:17.932Z</time></trkpt><trkpt lat="43.0757669" lon="13.05719"><ele>435.0</ele><time>2026-05-01T13:39:18.931Z</time></trkpt><trkpt lat="43.0756955" lon="13.0570913"><ele>435.75</ele><time>2026-05-01T13:39:19.931Z</time></trkpt><trkpt lat="43.0756219" lon="13.0569739"><ele>436.5</ele><time>2026-05-01T13:39:20.932Z</time></trkpt><trkpt lat="43.0755492" lon="13.0568505"><ele>437.25</ele><time>2026-05-01T13:39:21.931Z</time></trkpt><trkpt lat="43.0754793" lon="13.0567347"><ele>438.0</ele><time>2026-05-01T13:39:22.932Z</time></trkpt><trkpt lat="43.0754087" lon="13.0566135"><ele>438.59999999999997</ele><time>2026-05-01T13:39:23.932Z</time></trkpt><trkpt lat="43.0753466" lon="13.0564913"><ele>439.19999999999993</ele><time>2026-05-01T13:39:24.931Z</time></trkpt><trkpt lat="43.0752942" lon="13.0563691"><ele>439.8</ele><time>2026-05-01T13:39:25.932Z</time></trkpt><trkpt lat="43.0752712" lon="13.0562454"><ele>440.4</ele><time>2026-05-01T13:39:26.932Z</time></trkpt><trkpt lat="43.0752676" lon="13.0561169"><ele>441.0</ele><time>2026-05-01T13:39:27.932Z</time></trkpt><trkpt lat="43.0752687" lon="13.0559973"><ele>441.0</ele><time>2026-05-01T13:39:28.932Z</time></trkpt><trkpt lat="43.0752399" lon="13.0558688"><ele>441.0</ele><time>2026-05-01T13:39:29.932Z</time></trkpt><trkpt lat="43.0751968" lon="13.0557625"><ele>441.0</ele><time>2026-05-01T13:39:30.931Z</time></trkpt><trkpt lat="43.0751561" lon="13.0556634"><ele>441.0</ele><time>2026-05-01T13:39:31.932Z</time></trkpt><trkpt lat="43.0751414" lon="13.0555557"><ele>441.0</ele><time>2026-05-01T13:39:32.932Z</time></trkpt><trkpt lat="43.0751524" lon="13.0554277"><ele>441.0</ele><time>2026-05-01T13:39:33.931Z</time></trkpt><trkpt lat="43.0752041" lon="13.0552857"><ele>442.25</ele><time>2026-05-01T13:39:34.932Z</time></trkpt><trkpt lat="43.0752749" lon="13.0551371"><ele>443.5</ele><time>2026-05-01T13:39:35.932Z</time></trkpt><trkpt lat="43.0753637" lon="13.0549812"><ele>444.75</ele><time>2026-05-01T13:39:36.931Z</time></trkpt><trkpt lat="43.0754613" lon="13.0548103"><ele>446.0</ele><time>2026-05-01T13:39:37.932Z</time></trkpt><trkpt lat="43.0755641" lon="13.0546211"><ele>445.66666666666663</ele><time>2026-05-01T13:39:38.932Z</time></trkpt><trkpt lat="43.0756701" lon="13.054422"><ele>445.33333333333337</ele><time>2026-05-01T13:39:39.932Z</time></trkpt><trkpt lat="43.0757802" lon="13.0542237"><ele>445.0</ele><time>2026-05-01T13:39:40.932Z</time></trkpt><trkpt lat="43.0758908" lon="13.0540234"><ele>445.0</ele><time>2026-05-01T13:39:41.932Z</time></trkpt><trkpt lat="43.0760065" lon="13.0538238"><ele>445.0</ele><time>2026-05-01T13:39:42.932Z</time></trkpt><trkpt lat="43.0764525" lon="13.0530113"><ele>445.0</ele><time>2026-05-01T13:39:46.932Z</time></trkpt><trkpt lat="43.0765221" lon="13.052812"><ele>445.0</ele><time>2026-05-01T13:39:47.932Z</time></trkpt><trkpt lat="43.0766276" lon="13.0526219"><ele>445.0</ele><time>2026-05-01T13:39:48.932Z</time></trkpt><trkpt lat="43.076731" lon="13.0524315"><ele>445.0</ele><time>2026-05-01T13:39:49.932Z</time></trkpt><trkpt lat="43.0768309" lon="13.052243"><ele>445.0</ele><time>2026-05-01T13:39:50.932Z</time></trkpt><trkpt lat="43.0769205" lon="13.0520622"><ele>445.0</ele><time>2026-05-01T13:39:51.931Z</time></trkpt><trkpt lat="43.0770112" lon="13.0518893"><ele>445.0</ele><time>2026-05-01T13:39:52.932Z</time></trkpt><trkpt lat="43.0771048" lon="13.0517243"><ele>445.0</ele><time>2026-05-01T13:39:53.931Z</time></trkpt><trkpt lat="43.0771998" lon="13.0515604"><ele>445.0</ele><time>2026-05-01T13:39:54.932Z</time></trkpt><trkpt lat="43.0772997" lon="13.0513964"><ele>444.33333333333337</ele><time>2026-05-01T13:39:55.932Z</time></trkpt><trkpt lat="43.0774027" lon="13.0512348"><ele>443.66666666666663</ele><time>2026-05-01T13:39:56.931Z</time></trkpt><trkpt lat="43.0775149" lon="13.0510816"><ele>443.0</ele><time>2026-05-01T13:39:57.932Z</time></trkpt><trkpt lat="43.0776319" lon="13.0509568"><ele>443.0</ele><time>2026-05-01T13:39:58.932Z</time></trkpt><trkpt lat="43.077742" lon="13.0508446"><ele>443.0</ele><time>2026-05-01T13:39:59.932Z</time></trkpt><trkpt lat="43.0778268" lon="13.0507272"><ele>443.0</ele><time>2026-05-01T13:40:00.932Z</time></trkpt><trkpt lat="43.077867" lon="13.0505984"><ele>443.0</ele><time>2026-05-01T13:40:01.932Z</time></trkpt><trkpt lat="43.0778636" lon="13.0504546"><ele>444.5</ele><time>2026-05-01T13:40:02.932Z</time></trkpt><trkpt lat="43.0778254" lon="13.0502957"><ele>446.0</ele><time>2026-05-01T13:40:03.931Z</time></trkpt><trkpt lat="43.0777572" lon="13.050161"><ele>447.5</ele><time>2026-05-01T13:40:04.932Z</time></trkpt><trkpt lat="43.0776732" lon="13.0500505"><ele>449.0</ele><time>2026-05-01T13:40:05.932Z</time></trkpt><trkpt lat="43.0775691" lon="13.0499624"><ele>451.25</ele><time>2026-05-01T13:40:06.931Z</time></trkpt><trkpt lat="43.0774605" lon="13.0499166"><ele>453.5</ele><time>2026-05-01T13:40:07.932Z</time></trkpt><trkpt lat="43.0773424" lon="13.0499325"><ele>455.75</ele><time>2026-05-01T13:40:08.931Z</time></trkpt><trkpt lat="43.0772318" lon="13.0500201"><ele>458.0</ele><time>2026-05-01T13:40:09.932Z</time></trkpt><trkpt lat="43.0771406" lon="13.0501554"><ele>458.75</ele><time>2026-05-01T13:40:10.932Z</time></trkpt><trkpt lat="43.0770774" lon="13.0503084"><ele>459.5</ele><time>2026-05-01T13:40:11.932Z</time></trkpt><trkpt lat="43.0770292" lon="13.0504823"><ele>460.25</ele><time>2026-05-01T13:40:12.932Z</time></trkpt><trkpt lat="43.076984" lon="13.0506621"><ele>461.0</ele><time>2026-05-01T13:40:13.933Z</time></trkpt><trkpt lat="43.0769397" lon="13.0508388"><ele>458.5</ele><time>2026-05-01T13:40:14.933Z</time></trkpt><trkpt lat="43.0768975" lon="13.0510017"><ele>456.0</ele><time>2026-05-01T13:40:15.933Z</time></trkpt><trkpt lat="43.0768585" lon="13.0511485"><ele>453.5</ele><time>2026-05-01T13:40:16.932Z</time></trkpt><trkpt lat="43.0768216" lon="13.0512953"><ele>451.0</ele><time>2026-05-01T13:40:17.933Z</time></trkpt><trkpt lat="43.0767778" lon="13.051438"><ele>451.0</ele><time>2026-05-01T13:40:18.932Z</time></trkpt><trkpt lat="43.0767301" lon="13.0515746"><ele>451.0</ele><time>2026-05-01T13:40:19.933Z</time></trkpt><trkpt lat="43.0766486" lon="13.0516672"><ele>451.0</ele><time>2026-05-01T13:40:20.933Z</time></trkpt><trkpt lat="43.0765445" lon="13.0517188"><ele>451.0</ele><time>2026-05-01T13:40:21.932Z</time></trkpt><trkpt lat="43.0764261" lon="13.0517462"><ele>451.0</ele><time>2026-05-01T13:40:22.932Z</time></trkpt><trkpt lat="43.0763039" lon="13.0517229"><ele>452.0</ele><time>2026-05-01T13:40:23.932Z</time></trkpt><trkpt lat="43.0761901" lon="13.0516683"><ele>453.0</ele><time>2026-05-01T13:40:24.932Z</time></trkpt><trkpt lat="43.0761073" lon="13.0515919"><ele>454.0</ele><time>2026-05-01T13:40:25.933Z</time></trkpt><trkpt lat="43.0760472" lon="13.0514878"><ele>455.0</ele><time>2026-05-01T13:40:26.932Z</time></trkpt><trkpt lat="43.0759973" lon="13.0513773"><ele>456.0</ele><time>2026-05-01T13:40:27.932Z</time></trkpt><trkpt lat="43.0759577" lon="13.0512636"><ele>456.5</ele><time>2026-05-01T13:40:28.933Z</time></trkpt><trkpt lat="43.0759346" lon="13.0511304"><ele>457.0</ele><time>2026-05-01T13:40:29.933Z</time></trkpt><trkpt lat="43.0759187" lon="13.0509809"><ele>457.5</ele><time>2026-05-01T13:40:30.933Z</time></trkpt><trkpt lat="43.0759075" lon="13.0507946"><ele>458.0</ele><time>2026-05-01T13:40:31.932Z</time></trkpt><trkpt lat="43.0758857" lon="13.050583"><ele>461.3333333333333</ele><time>2026-05-01T13:40:32.933Z</time></trkpt><trkpt lat="43.0758476" lon="13.0503484"><ele>464.66666666666663</ele><time>2026-05-01T13:40:33.933Z</time></trkpt><trkpt lat="43.0758142" lon="13.0500894"><ele>468.0</ele><time>2026-05-01T13:40:34.933Z</time></trkpt><trkpt lat="43.0757895" lon="13.0498285"><ele>477.33333333333337</ele><time>2026-05-01T13:40:35.933Z</time></trkpt><trkpt lat="43.0757615" lon="13.0495654"><ele>486.6666666666667</ele><time>2026-05-01T13:40:36.933Z</time></trkpt><trkpt lat="43.0757576" lon="13.0492898"><ele>496.0</ele><time>2026-05-01T13:40:37.932Z</time></trkpt><trkpt lat="43.0762348" lon="13.0417773"><ele>504.5</ele><time>2026-05-01T13:40:58.932Z</time></trkpt><trkpt lat="43.0762457" lon="13.0413799"><ele>513.0</ele><time>2026-05-01T13:40:59.933Z</time></trkpt><trkpt lat="43.0762878" lon="13.0410322"><ele>476.0</ele><time>2026-05-01T13:41:00.932Z</time></trkpt><trkpt lat="43.0777835" lon="13.0342041"><ele>476.5</ele><time>2026-05-01T13:41:18.933Z</time></trkpt><trkpt lat="43.0778879" lon="13.0338037"><ele>477.0</ele><time>2026-05-01T13:41:19.933Z</time></trkpt><trkpt lat="43.0779858" lon="13.0334258"><ele>479.0</ele><time>2026-05-01T13:41:20.933Z</time></trkpt><trkpt lat="43.0780874" lon="13.0330339"><ele>481.0</ele><time>2026-05-01T13:41:21.932Z</time></trkpt><trkpt lat="43.0781901" lon="13.0326654"><ele>496.0</ele><time>2026-05-01T13:41:22.933Z</time></trkpt><trkpt lat="43.0782852" lon="13.0322676"><ele>511.0</ele><time>2026-05-01T13:41:23.933Z</time></trkpt><trkpt lat="43.0783825" lon="13.031856"><ele>506.0</ele><time>2026-05-01T13:41:24.933Z</time></trkpt><trkpt lat="43.0784881" lon="13.0314806"><ele>501.0</ele><time>2026-05-01T13:41:25.932Z</time></trkpt><trkpt lat="43.0785944" lon="13.0310994"><ele>499.5</ele><time>2026-05-01T13:41:26.932Z</time></trkpt><trkpt lat="43.0786879" lon="13.0307254"><ele>498.0</ele><time>2026-05-01T13:41:27.932Z</time></trkpt><trkpt lat="43.0787864" lon="13.0303589"><ele>498.0</ele><time>2026-05-01T13:41:28.933Z</time></trkpt><trkpt lat="43.078872" lon="13.0299792"><ele>498.0</ele><time>2026-05-01T13:41:29.932Z</time></trkpt><trkpt lat="43.0771829" lon="13.002671"><ele>523.0</ele><time>2026-05-01T13:42:36.933Z</time></trkpt><trkpt lat="43.0770809" lon="13.0022741"><ele>548.0</ele><time>2026-05-01T13:42:37.932Z</time></trkpt><trkpt lat="43.0769913" lon="13.001882"><ele>548.0</ele><time>2026-05-01T13:42:38.933Z</time></trkpt><trkpt lat="43.076911" lon="13.0014495"><ele>548.0</ele><time>2026-05-01T13:42:39.932Z</time></trkpt><trkpt lat="43.0768252" lon="13.0010574"><ele>548.0</ele><time>2026-05-01T13:42:40.932Z</time></trkpt><trkpt lat="43.0767397" lon="13.000671"><ele>548.0</ele><time>2026-05-01T13:42:41.933Z</time></trkpt><trkpt lat="43.0766619" lon="13.000282"><ele>553.5</ele><time>2026-05-01T13:42:42.933Z</time></trkpt><trkpt lat="43.0765759" lon="12.9998915"><ele>559.0</ele><time>2026-05-01T13:42:43.933Z</time></trkpt><trkpt lat="43.0764847" lon="12.9995083"><ele>561.5</ele><time>2026-05-01T13:42:44.932Z</time></trkpt><trkpt lat="43.0763833" lon="12.9991163"><ele>564.0</ele><time>2026-05-01T13:42:45.932Z</time></trkpt><trkpt lat="43.0762966" lon="12.9987221"><ele>566.0</ele><time>2026-05-01T13:42:46.933Z</time></trkpt><trkpt lat="43.0762046" lon="12.9983292"><ele>568.0</ele><time>2026-05-01T13:42:47.933Z</time></trkpt><trkpt lat="43.0761267" lon="12.9979424"><ele>568.0</ele><time>2026-05-01T13:42:48.933Z</time></trkpt><trkpt lat="43.07604" lon="12.9975572"><ele>568.0</ele><time>2026-05-01T13:42:49.933Z</time></trkpt><trkpt lat="43.0759532" lon="12.9971702"><ele>570.0</ele><time>2026-05-01T13:42:50.933Z</time></trkpt><trkpt lat="43.0758661" lon="12.996787"><ele>572.0</ele><time>2026-05-01T13:42:51.933Z</time></trkpt><trkpt lat="43.0757838" lon="12.9964058"><ele>619.0</ele><time>2026-05-01T13:42:52.932Z</time></trkpt><trkpt lat="43.0739397" lon="12.9765907"><ele>619.0</ele><time>2026-05-01T13:43:39.933Z</time></trkpt><trkpt lat="43.073967" lon="12.9761941"><ele>619.0</ele><time>2026-05-01T13:43:40.933Z</time></trkpt><trkpt lat="43.0739631" lon="12.9758065"><ele>614.5</ele><time>2026-05-01T13:43:41.933Z</time></trkpt><trkpt lat="43.0739606" lon="12.9754136"><ele>610.0</ele><time>2026-05-01T13:43:42.933Z</time></trkpt><trkpt lat="43.0739516" lon="12.975016"><ele>609.0</ele><time>2026-05-01T13:43:43.933Z</time></trkpt><trkpt lat="43.0739429" lon="12.9746197"><ele>608.0</ele><time>2026-05-01T13:43:44.933Z</time></trkpt><trkpt lat="43.0739212" lon="12.9742263"><ele>614.0</ele><time>2026-05-01T13:43:45.932Z</time></trkpt><trkpt lat="43.0738951" lon="12.9738227"><ele>620.0</ele><time>2026-05-01T13:43:46.932Z</time></trkpt><trkpt lat="43.0738727" lon="12.9734106"><ele>626.0</ele><time>2026-05-01T13:43:47.932Z</time></trkpt><trkpt lat="43.0738421" lon="12.9729975"><ele>632.0</ele><time>2026-05-01T13:43:48.932Z</time></trkpt><trkpt lat="43.073805" lon="12.9725857"><ele>637.5</ele><time>2026-05-01T13:43:49.933Z</time></trkpt><trkpt lat="43.0737718" lon="12.9721701"><ele>643.0</ele><time>2026-05-01T13:43:50.933Z</time></trkpt><trkpt lat="43.0737319" lon="12.971768"><ele>669.0</ele><time>2026-05-01T13:43:51.933Z</time></trkpt><trkpt lat="43.0695851" lon="12.9563251"><ele>669.0</ele><time>2026-05-01T13:44:30.933Z</time></trkpt><trkpt lat="43.06942" lon="12.9559923"><ele>669.0</ele><time>2026-05-01T13:44:31.933Z</time></trkpt><trkpt lat="43.0692506" lon="12.955639"><ele>687.0</ele><time>2026-05-01T13:44:32.933Z</time></trkpt><trkpt lat="43.0690975" lon="12.9552975"><ele>705.0</ele><time>2026-05-01T13:44:33.933Z</time></trkpt><trkpt lat="43.0439622" lon="12.93132"><ele>740.5</ele><time>2026-05-01T13:46:16.932Z</time></trkpt><trkpt lat="43.0436415" lon="12.931297"><ele>776.0</ele><time>2026-05-01T13:46:17.933Z</time></trkpt><trkpt lat="43.0433873" lon="12.9312218"><ele>773.5</ele><time>2026-05-01T13:46:18.932Z</time></trkpt><trkpt lat="43.0430789" lon="12.9311478"><ele>771.0</ele><time>2026-05-01T13:46:19.933Z</time></trkpt><trkpt lat="43.0427937" lon="12.9310915"><ele>771.0</ele><time>2026-05-01T13:46:20.932Z</time></trkpt><trkpt lat="43.0425053" lon="12.9310281"><ele>771.0</ele><time>2026-05-01T13:46:21.933Z</time></trkpt><trkpt lat="43.0422177" lon="12.9309503"><ele>768.0</ele><time>2026-05-01T13:46:22.932Z</time></trkpt><trkpt lat="43.041935" lon="12.9308859"><ele>765.0</ele><time>2026-05-01T13:46:23.933Z</time></trkpt><trkpt lat="43.0416489" lon="12.9308254"><ele>766.0</ele><time>2026-05-01T13:46:24.933Z</time></trkpt><trkpt lat="43.0413652" lon="12.9307654"><ele>767.0</ele><time>2026-05-01T13:46:25.933Z</time></trkpt><trkpt lat="43.0410835" lon="12.930709"><ele>767.0</ele><time>2026-05-01T13:46:26.933Z</time></trkpt><trkpt lat="43.0408032" lon="12.9306505"><ele>767.0</ele><time>2026-05-01T13:46:27.933Z</time></trkpt><trkpt lat="43.0405213" lon="12.9305918"><ele>768.0</ele><time>2026-05-01T13:46:28.933Z</time></trkpt><trkpt lat="43.0402375" lon="12.9305244"><ele>769.0</ele><time>2026-05-01T13:46:29.933Z</time></trkpt><trkpt lat="43.0399533" lon="12.9304601"><ele>774.0</ele><time>2026-05-01T13:46:30.932Z</time></trkpt><trkpt lat="43.0396678" lon="12.9303961"><ele>779.0</ele><time>2026-05-01T13:46:31.933Z</time></trkpt><trkpt lat="43.0393806" lon="12.9303237"><ele>780.5</ele><time>2026-05-01T13:46:32.932Z</time></trkpt><trkpt lat="43.0390955" lon="12.9302447"><ele>782.0</ele><time>2026-05-01T13:46:33.932Z</time></trkpt><trkpt lat="43.0388105" lon="12.9301628"><ele>782.0</ele><time>2026-05-01T13:46:34.933Z</time></trkpt><trkpt lat="43.0385293" lon="12.9300822"><ele>782.0</ele><time>2026-05-01T13:46:35.932Z</time></trkpt><trkpt lat="43.0382477" lon="12.929996"><ele>774.0</ele><time>2026-05-01T13:46:36.933Z</time></trkpt><trkpt lat="43.0379698" lon="12.929899"><ele>766.0</ele><time>2026-05-01T13:46:37.933Z</time></trkpt><trkpt lat="43.0376933" lon="12.9297997"><ele>767.5</ele><time>2026-05-01T13:46:38.933Z</time></trkpt><trkpt lat="43.0374187" lon="12.9296896"><ele>769.0</ele><time>2026-05-01T13:46:39.933Z</time></trkpt><trkpt lat="43.0371437" lon="12.9295773"><ele>769.0</ele><time>2026-05-01T13:46:40.933Z</time></trkpt><trkpt lat="43.0368704" lon="12.9294556"><ele>769.0</ele><time>2026-05-01T13:46:41.933Z</time></trkpt><trkpt lat="43.0365956" lon="12.9293249"><ele>766.5</ele><time>2026-05-01T13:46:42.933Z</time></trkpt><trkpt lat="43.0363253" lon="12.9291891"><ele>764.0</ele><time>2026-05-01T13:46:43.932Z</time></trkpt><trkpt lat="43.0360602" lon="12.9290462"><ele>765.0</ele><time>2026-05-01T13:46:44.932Z</time></trkpt><trkpt lat="43.0357921" lon="12.9288937"><ele>766.0</ele><time>2026-05-01T13:46:45.933Z</time></trkpt><trkpt lat="43.035528" lon="12.9287442"><ele>766.0</ele><time>2026-05-01T13:46:46.933Z</time></trkpt><trkpt lat="43.0352677" lon="12.9285934"><ele>766.0</ele><time>2026-05-01T13:46:47.932Z</time></trkpt><trkpt lat="43.0350137" lon="12.928436"><ele>768.5</ele><time>2026-05-01T13:46:48.933Z</time></trkpt><trkpt lat="43.0347608" lon="12.9282723"><ele>771.0</ele><time>2026-05-01T13:46:49.933Z</time></trkpt><trkpt lat="43.0345106" lon="12.9281026"><ele>771.0</ele><time>2026-05-01T13:46:50.933Z</time></trkpt><trkpt lat="43.0342601" lon="12.9279268"><ele>771.0</ele><time>2026-05-01T13:46:51.932Z</time></trkpt><trkpt lat="43.0340123" lon="12.9277482"><ele>772.0</ele><time>2026-05-01T13:46:52.933Z</time></trkpt><trkpt lat="43.0337687" lon="12.927565"><ele>773.0</ele><time>2026-05-01T13:46:53.932Z</time></trkpt><trkpt lat="43.0335217" lon="12.9273741"><ele>773.5</ele><time>2026-05-01T13:46:54.933Z</time></trkpt><trkpt lat="43.0332707" lon="12.9271792"><ele>774.0</ele><time>2026-05-01T13:46:55.933Z</time></trkpt><trkpt lat="43.033021" lon="12.926961"><ele>774.0</ele><time>2026-05-01T13:46:56.933Z</time></trkpt><trkpt lat="43.0327695" lon="12.9267358"><ele>774.0</ele><time>2026-05-01T13:46:57.932Z</time></trkpt><trkpt lat="43.032511" lon="12.9265247"><ele>773.0</ele><time>2026-05-01T13:46:58.932Z</time></trkpt><trkpt lat="43.0322534" lon="12.9263034"><ele>772.0</ele><time>2026-05-01T13:46:59.933Z</time></trkpt><trkpt lat="43.0319967" lon="12.9260785"><ele>771.5</ele><time>2026-05-01T13:47:00.933Z</time></trkpt><trkpt lat="43.0317472" lon="12.9258497"><ele>771.0</ele><time>2026-05-01T13:47:01.932Z</time></trkpt><trkpt lat="43.0314941" lon="12.9256232"><ele>777.0</ele><time>2026-05-01T13:47:02.933Z</time></trkpt><trkpt lat="43.0312437" lon="12.9254098"><ele>783.0</ele><time>2026-05-01T13:47:03.933Z</time></trkpt><trkpt lat="43.0309924" lon="12.9251934"><ele>790.0</ele><time>2026-05-01T13:47:04.933Z</time></trkpt><trkpt lat="43.0307473" lon="12.9249794"><ele>797.0</ele><time>2026-05-01T13:47:05.933Z</time></trkpt><trkpt lat="43.0304974" lon="12.9247587"><ele>776.0</ele><time>2026-05-01T13:47:06.933Z</time></trkpt><trkpt lat="43.0288398" lon="12.9232198"><ele>776.0</ele><time>2026-05-01T13:47:13.933Z</time></trkpt><trkpt lat="43.0286213" lon="12.9229682"><ele>776.0</ele><time>2026-05-01T13:47:14.932Z</time></trkpt><trkpt lat="43.0284034" lon="12.9227032"><ele>774.0</ele><time>2026-05-01T13:47:15.933Z</time></trkpt><trkpt lat="43.0281994" lon="12.9224654"><ele>772.0</ele><time>2026-05-01T13:47:16.932Z</time></trkpt><trkpt lat="43.0279927" lon="12.9221919"><ele>772.0</ele><time>2026-05-01T13:47:17.933Z</time></trkpt><trkpt lat="43.0277889" lon="12.921909"><ele>772.0</ele><time>2026-05-01T13:47:18.933Z</time></trkpt><trkpt lat="43.027577" lon="12.9215487"><ele>772.5</ele><time>2026-05-01T13:47:19.932Z</time></trkpt><trkpt lat="43.0273911" lon="12.921258"><ele>773.0</ele><time>2026-05-01T13:47:20.933Z</time></trkpt><trkpt lat="43.0272129" lon="12.9209508"><ele>770.5</ele><time>2026-05-01T13:47:21.933Z</time></trkpt><trkpt lat="43.0270431" lon="12.9206442"><ele>768.0</ele><time>2026-05-01T13:47:22.933Z</time></trkpt><trkpt lat="43.0268787" lon="12.9203318"><ele>768.0</ele><time>2026-05-01T13:47:23.933Z</time></trkpt><trkpt lat="43.0267196" lon="12.9200192"><ele>768.0</ele><time>2026-05-01T13:47:24.933Z</time></trkpt><trkpt lat="43.026564" lon="12.9196964"><ele>769.5</ele><time>2026-05-01T13:47:25.932Z</time></trkpt><trkpt lat="43.0264235" lon="12.9193724"><ele>771.0</ele><time>2026-05-01T13:47:26.933Z</time></trkpt><trkpt lat="43.0262966" lon="12.9190402"><ele>771.0</ele><time>2026-05-01T13:47:27.933Z</time></trkpt><trkpt lat="43.0261711" lon="12.9187009"><ele>771.0</ele><time>2026-05-01T13:47:28.933Z</time></trkpt><trkpt lat="43.0260486" lon="12.9183556"><ele>770.0</ele><time>2026-05-01T13:47:29.932Z</time></trkpt><trkpt lat="43.0259355" lon="12.9180023"><ele>769.0</ele><time>2026-05-01T13:47:30.933Z</time></trkpt><trkpt lat="43.0258283" lon="12.9176463"><ele>769.5</ele><time>2026-05-01T13:47:31.933Z</time></trkpt><trkpt lat="43.0257245" lon="12.9172835"><ele>770.0</ele><time>2026-05-01T13:47:32.933Z</time></trkpt><trkpt lat="43.0256309" lon="12.916915"><ele>770.5</ele><time>2026-05-01T13:47:33.933Z</time></trkpt><trkpt lat="43.0255484" lon="12.9165414"><ele>771.0</ele><time>2026-05-01T13:47:34.933Z</time></trkpt><trkpt lat="43.0254706" lon="12.9161702"><ele>773.0</ele><time>2026-05-01T13:47:35.932Z</time></trkpt><trkpt lat="43.0254027" lon="12.9157924"><ele>775.0</ele><time>2026-05-01T13:47:36.932Z</time></trkpt><trkpt lat="43.0253477" lon="12.9154115"><ele>779.5</ele><time>2026-05-01T13:47:37.933Z</time></trkpt><trkpt lat="43.0253014" lon="12.9150269"><ele>784.0</ele><time>2026-05-01T13:47:38.933Z</time></trkpt><trkpt lat="43.0252599" lon="12.9146424"><ele>784.0</ele><time>2026-05-01T13:47:39.933Z</time></trkpt><trkpt lat="43.0252198" lon="12.9142444"><ele>784.0</ele><time>2026-05-01T13:47:40.933Z</time></trkpt><trkpt lat="43.0250968" lon="12.9130661"><ele>785.0</ele><time>2026-05-01T13:47:43.933Z</time></trkpt><trkpt lat="43.0251583" lon="12.9127035"><ele>786.0</ele><time>2026-05-01T13:47:44.932Z</time></trkpt><trkpt lat="43.025164" lon="12.9123442"><ele>784.0</ele><time>2026-05-01T13:47:45.933Z</time></trkpt><trkpt lat="43.0251588" lon="12.9120028"><ele>782.0</ele><time>2026-05-01T13:47:46.932Z</time></trkpt><trkpt lat="43.0251535" lon="12.9116727"><ele>786.5</ele><time>2026-05-01T13:47:47.933Z</time></trkpt><trkpt lat="43.0251483" lon="12.9113375"><ele>791.0</ele><time>2026-05-01T13:47:48.933Z</time></trkpt><trkpt lat="43.0251415" lon="12.911011"><ele>780.0</ele><time>2026-05-01T13:47:49.933Z</time></trkpt><trkpt lat="43.025051" lon="12.9070765"><ele>777.5</ele><time>2026-05-01T13:48:00.933Z</time></trkpt><trkpt lat="43.025053" lon="12.9067134"><ele>775.0</ele><time>2026-05-01T13:48:01.932Z</time></trkpt><trkpt lat="43.0250389" lon="12.9063541"><ele>775.0</ele><time>2026-05-01T13:48:02.933Z</time></trkpt><trkpt lat="43.025026" lon="12.9059904"><ele>775.0</ele><time>2026-05-01T13:48:03.933Z</time></trkpt><trkpt lat="43.0250163" lon="12.9056351"><ele>773.0</ele><time>2026-05-01T13:48:04.932Z</time></trkpt><trkpt lat="43.025002" lon="12.9052779"><ele>771.0</ele><time>2026-05-01T13:48:05.932Z</time></trkpt><trkpt lat="43.0249842" lon="12.9049241"><ele>771.0</ele><time>2026-05-01T13:48:06.933Z</time></trkpt><trkpt lat="43.024965" lon="12.9045731"><ele>771.0</ele><time>2026-05-01T13:48:07.932Z</time></trkpt><trkpt lat="43.0249436" lon="12.9042158"><ele>769.0</ele><time>2026-05-01T13:48:08.932Z</time></trkpt><trkpt lat="43.0249209" lon="12.9038621"><ele>767.0</ele><time>2026-05-01T13:48:09.933Z</time></trkpt><trkpt lat="43.0248974" lon="12.9035143"><ele>766.5</ele><time>2026-05-01T13:48:10.933Z</time></trkpt><trkpt lat="43.0248646" lon="12.9031675"><ele>766.0</ele><time>2026-05-01T13:48:11.933Z</time></trkpt><trkpt lat="43.0248284" lon="12.9028188"><ele>765.5</ele><time>2026-05-01T13:48:12.932Z</time></trkpt><trkpt lat="43.024784" lon="12.9024791"><ele>765.0</ele><time>2026-05-01T13:48:13.932Z</time></trkpt><trkpt lat="43.0247323" lon="12.9021622"><ele>765.0</ele><time>2026-05-01T13:48:14.933Z</time></trkpt><trkpt lat="43.0246754" lon="12.9018874"><ele>765.0</ele><time>2026-05-01T13:48:15.933Z</time></trkpt><trkpt lat="43.0246213" lon="12.9016469"><ele>765.0</ele><time>2026-05-01T13:48:16.933Z</time></trkpt><trkpt lat="43.0245759" lon="12.9014366"><ele>764.75</ele><time>2026-05-01T13:48:17.933Z</time></trkpt><trkpt lat="43.0245443" lon="12.9012549"><ele>764.5</ele><time>2026-05-01T13:48:18.933Z</time></trkpt><trkpt lat="43.0245257" lon="12.9010804"><ele>764.25</ele><time>2026-05-01T13:48:19.933Z</time></trkpt><trkpt lat="43.0245409" lon="12.9009162"><ele>764.0</ele><time>2026-05-01T13:48:20.932Z</time></trkpt><trkpt lat="43.0245896" lon="12.9007573"><ele>764.0</ele><time>2026-05-01T13:48:21.933Z</time></trkpt><trkpt lat="43.0246697" lon="12.900621"><ele>764.0</ele><time>2026-05-01T13:48:22.933Z</time></trkpt><trkpt lat="43.0247821" lon="12.9005129"><ele>764.0</ele><time>2026-05-01T13:48:23.932Z</time></trkpt><trkpt lat="43.0249232" lon="12.9004472"><ele>764.0</ele><time>2026-05-01T13:48:24.932Z</time></trkpt><trkpt lat="43.0250805" lon="12.9004275"><ele>763.0</ele><time>2026-05-01T13:48:25.933Z</time></trkpt><trkpt lat="43.0252484" lon="12.9004381"><ele>762.0</ele><time>2026-05-01T13:48:26.933Z</time></trkpt><trkpt lat="43.0254322" lon="12.9004655"><ele>761.0</ele><time>2026-05-01T13:48:27.933Z</time></trkpt><trkpt lat="43.0256179" lon="12.9004775"><ele>761.0</ele><time>2026-05-01T13:48:28.933Z</time></trkpt><trkpt lat="43.0258097" lon="12.9004732"><ele>761.0</ele><time>2026-05-01T13:48:29.933Z</time></trkpt><trkpt lat="43.0260016" lon="12.900451"><ele>761.0</ele><time>2026-05-01T13:48:30.933Z</time></trkpt><trkpt lat="43.0261889" lon="12.9004289"><ele>760.3333333333333</ele><time>2026-05-01T13:48:31.933Z</time></trkpt><trkpt lat="43.0263654" lon="12.9004033"><ele>759.6666666666666</ele><time>2026-05-01T13:48:32.933Z</time></trkpt><trkpt lat="43.0265196" lon="12.9003702"><ele>759.0</ele><time>2026-05-01T13:48:33.932Z</time></trkpt><trkpt lat="43.0266388" lon="12.9003211"><ele>759.0</ele><time>2026-05-01T13:48:34.933Z</time></trkpt><trkpt lat="43.0267373" lon="12.9002446"><ele>759.0</ele><time>2026-05-01T13:48:35.933Z</time></trkpt><trkpt lat="43.0267971" lon="12.9001216"><ele>759.0</ele><time>2026-05-01T13:48:36.933Z</time></trkpt><trkpt lat="43.0268218" lon="12.8999543"><ele>759.0</ele><time>2026-05-01T13:48:37.932Z</time></trkpt><trkpt lat="43.0268285" lon="12.8997934"><ele>758.8000000000001</ele><time>2026-05-01T13:48:38.933Z</time></trkpt><trkpt lat="43.0268192" lon="12.8996469"><ele>758.6</ele><time>2026-05-01T13:48:39.933Z</time></trkpt><trkpt lat="43.0268193" lon="12.8995188"><ele>758.4</ele><time>2026-05-01T13:48:40.933Z</time></trkpt><trkpt lat="43.0268417" lon="12.8994243"><ele>758.2</ele><time>2026-05-01T13:48:41.932Z</time></trkpt><trkpt lat="43.0269347" lon="12.8993214"><ele>758.0</ele><time>2026-05-01T13:48:43.933Z</time></trkpt><trkpt lat="43.0270103" lon="12.8992952"><ele>758.0</ele><time>2026-05-01T13:48:44.932Z</time></trkpt><trkpt lat="43.02711" lon="12.8992759"><ele>758.0</ele><time>2026-05-01T13:48:45.933Z</time></trkpt><trkpt lat="43.027232" lon="12.8992529"><ele>758.0</ele><time>2026-05-01T13:48:46.933Z</time></trkpt><trkpt lat="43.0273648" lon="12.8992228"><ele>758.0</ele><time>2026-05-01T13:48:47.932Z</time></trkpt><trkpt lat="43.0274984" lon="12.8991972"><ele>758.0</ele><time>2026-05-01T13:48:48.932Z</time></trkpt><trkpt lat="43.0276406" lon="12.8991726"><ele>758.0</ele><time>2026-05-01T13:48:49.933Z</time></trkpt><trkpt lat="43.0277896" lon="12.8991434"><ele>758.0</ele><time>2026-05-01T13:48:50.932Z</time></trkpt><trkpt lat="43.0279465" lon="12.8991105"><ele>758.0</ele><time>2026-05-01T13:48:51.932Z</time></trkpt><trkpt lat="43.028102" lon="12.8990694"><ele>758.0</ele><time>2026-05-01T13:48:52.933Z</time></trkpt><trkpt lat="43.0282422" lon="12.8990388"><ele>758.0</ele><time>2026-05-01T13:48:53.932Z</time></trkpt><trkpt lat="43.0283611" lon="12.8990146"><ele>758.0</ele><time>2026-05-01T13:48:54.933Z</time></trkpt><trkpt lat="43.0284636" lon="12.8990181"><ele>758.5999999999999</ele><time>2026-05-01T13:48:55.933Z</time></trkpt><trkpt lat="43.0285581" lon="12.8990514"><ele>759.1999999999999</ele><time>2026-05-01T13:48:56.932Z</time></trkpt><trkpt lat="43.028639" lon="12.8990747"><ele>759.8</ele><time>2026-05-01T13:48:57.933Z</time></trkpt><trkpt lat="43.0287027" lon="12.8990514"><ele>760.4</ele><time>2026-05-01T13:48:58.933Z</time></trkpt><trkpt lat="43.0287543" lon="12.8988753"><ele>761.0</ele><time>2026-05-01T13:49:00.933Z</time></trkpt><trkpt lat="43.0287216" lon="12.8987556"><ele>761.0</ele><time>2026-05-01T13:49:01.933Z</time></trkpt><trkpt lat="43.028676" lon="12.8986282"><ele>761.0</ele><time>2026-05-01T13:49:02.932Z</time></trkpt><trkpt lat="43.0286388" lon="12.8985062"><ele>761.0</ele><time>2026-05-01T13:49:03.932Z</time></trkpt><trkpt lat="43.0286274" lon="12.8983604"><ele>761.0</ele><time>2026-05-01T13:49:04.933Z</time></trkpt><trkpt lat="43.0286245" lon="12.8982041"><ele>761.0</ele><time>2026-05-01T13:49:05.933Z</time></trkpt><trkpt lat="43.0286342" lon="12.8980389"><ele>760.75</ele><time>2026-05-01T13:49:06.933Z</time></trkpt><trkpt lat="43.0286336" lon="12.897855"><ele>760.5</ele><time>2026-05-01T13:49:07.932Z</time></trkpt><trkpt lat="43.0286357" lon="12.8976595"><ele>760.25</ele><time>2026-05-01T13:49:08.932Z</time></trkpt><trkpt lat="43.0286289" lon="12.8974523"><ele>760.0</ele><time>2026-05-01T13:49:09.933Z</time></trkpt><trkpt lat="43.0286216" lon="12.897238"><ele>760.0</ele><time>2026-05-01T13:49:10.933Z</time></trkpt><trkpt lat="43.0286193" lon="12.8970232"><ele>760.0</ele><time>2026-05-01T13:49:11.933Z</time></trkpt><trkpt lat="43.0286236" lon="12.896811"><ele>760.0</ele><time>2026-05-01T13:49:12.933Z</time></trkpt><trkpt lat="43.0286311" lon="12.8966018"><ele>760.0</ele><time>2026-05-01T13:49:13.932Z</time></trkpt><trkpt lat="43.0286431" lon="12.8963967"><ele>760.0</ele><time>2026-05-01T13:49:14.933Z</time></trkpt><trkpt lat="43.0286628" lon="12.8962097"><ele>760.0</ele><time>2026-05-01T13:49:15.933Z</time></trkpt><trkpt lat="43.0286825" lon="12.8960438"><ele>760.0</ele><time>2026-05-01T13:49:16.933Z</time></trkpt><trkpt lat="43.0287009" lon="12.8958828"><ele>760.2</ele><time>2026-05-01T13:49:17.933Z</time></trkpt><trkpt lat="43.0287218" lon="12.895732"><ele>760.4</ele><time>2026-05-01T13:49:18.933Z</time></trkpt><trkpt lat="43.0287414" lon="12.8955928"><ele>760.5999999999999</ele><time>2026-05-01T13:49:19.933Z</time></trkpt><trkpt lat="43.0287599" lon="12.8954573"><ele>760.8</ele><time>2026-05-01T13:49:20.932Z</time></trkpt><trkpt lat="43.0287685" lon="12.8953297"><ele>761.0</ele><time>2026-05-01T13:49:21.933Z</time></trkpt><trkpt lat="43.028779" lon="12.8951818"><ele>760.75</ele><time>2026-05-01T13:49:22.933Z</time></trkpt><trkpt lat="43.0287947" lon="12.8950343"><ele>760.5</ele><time>2026-05-01T13:49:23.933Z</time></trkpt><trkpt lat="43.0288076" lon="12.8948715"><ele>760.25</ele><time>2026-05-01T13:49:24.933Z</time></trkpt><trkpt lat="43.0288258" lon="12.8947134"><ele>760.0</ele><time>2026-05-01T13:49:25.932Z</time></trkpt><trkpt lat="43.0288428" lon="12.8945665"><ele>760.0</ele><time>2026-05-01T13:49:26.933Z</time></trkpt><trkpt lat="43.0288553" lon="12.8944139"><ele>760.0</ele><time>2026-05-01T13:49:27.933Z</time></trkpt><trkpt lat="43.0288674" lon="12.8942666"><ele>760.0</ele><time>2026-05-01T13:49:28.933Z</time></trkpt><trkpt lat="43.0288715" lon="12.8941209"><ele>760.0</ele><time>2026-05-01T13:49:29.933Z</time></trkpt><trkpt lat="43.0288637" lon="12.8939897"><ele>760.0</ele><time>2026-05-01T13:49:30.933Z</time></trkpt><trkpt lat="43.0288444" lon="12.8938651"><ele>760.2</ele><time>2026-05-01T13:49:31.933Z</time></trkpt><trkpt lat="43.0288199" lon="12.8937371"><ele>760.4</ele><time>2026-05-01T13:49:32.933Z</time></trkpt><trkpt lat="43.0287939" lon="12.8936009"><ele>760.5999999999999</ele><time>2026-05-01T13:49:33.932Z</time></trkpt><trkpt lat="43.0287673" lon="12.8934506"><ele>760.8</ele><time>2026-05-01T13:49:34.932Z</time></trkpt><trkpt lat="43.0287406" lon="12.8932908"><ele>761.0</ele><time>2026-05-01T13:49:35.933Z</time></trkpt><trkpt lat="43.028719" lon="12.893119"><ele>761.8</ele><time>2026-05-01T13:49:36.933Z</time></trkpt><trkpt lat="43.0286936" lon="12.8929564"><ele>762.5999999999999</ele><time>2026-05-01T13:49:37.932Z</time></trkpt><trkpt lat="43.0286736" lon="12.8928069"><ele>763.4</ele><time>2026-05-01T13:49:38.933Z</time></trkpt><trkpt lat="43.0286565" lon="12.8926776"><ele>764.2</ele><time>2026-05-01T13:49:39.933Z</time></trkpt><trkpt lat="43.0286409" lon="12.8925481"><ele>765.0</ele><time>2026-05-01T13:49:40.933Z</time></trkpt><trkpt lat="43.0286253" lon="12.8924165"><ele>764.8</ele><time>2026-05-01T13:49:41.933Z</time></trkpt><trkpt lat="43.0286099" lon="12.8922799"><ele>764.6</ele><time>2026-05-01T13:49:42.933Z</time></trkpt><trkpt lat="43.0285946" lon="12.8921286"><ele>764.4000000000001</ele><time>2026-05-01T13:49:43.932Z</time></trkpt><trkpt lat="43.0285719" lon="12.8919749"><ele>764.2</ele><time>2026-05-01T13:49:44.933Z</time></trkpt><trkpt lat="43.0285527" lon="12.8918279"><ele>764.0</ele><time>2026-05-01T13:49:45.933Z</time></trkpt><trkpt lat="43.0285397" lon="12.8916967"><ele>764.0</ele><time>2026-05-01T13:49:46.933Z</time></trkpt><trkpt lat="43.0285313" lon="12.8915877"><ele>764.0</ele><time>2026-05-01T13:49:47.933Z</time></trkpt><trkpt lat="43.0285409" lon="12.8915023"><ele>764.0</ele><time>2026-05-01T13:49:48.933Z</time></trkpt><trkpt lat="43.0285576" lon="12.8914129"><ele>764.0</ele><time>2026-05-01T13:49:50.932Z</time></trkpt><trkpt lat="43.0285139" lon="12.8912938"><ele>764.0</ele><time>2026-05-01T13:49:59.933Z</time></trkpt><trkpt lat="43.0284587" lon="12.8912501"><ele>764.0</ele><time>2026-05-01T13:50:00.932Z</time></trkpt><trkpt lat="43.0283905" lon="12.8911994"><ele>764.0</ele><time>2026-05-01T13:50:01.932Z</time></trkpt><trkpt lat="43.0283149" lon="12.8911497"><ele>764.0</ele><time>2026-05-01T13:50:02.933Z</time></trkpt><trkpt lat="43.0282342" lon="12.8911022"><ele>764.0</ele><time>2026-05-01T13:50:03.933Z</time></trkpt><trkpt lat="43.0281375" lon="12.8910475"><ele>764.0</ele><time>2026-05-01T13:50:04.932Z</time></trkpt><trkpt lat="43.0280352" lon="12.8909815"><ele>764.0</ele><time>2026-05-01T13:50:05.933Z</time></trkpt><trkpt lat="43.0279492" lon="12.8909042"><ele>764.5</ele><time>2026-05-01T13:50:06.933Z</time></trkpt><trkpt lat="43.0278701" lon="12.8908149"><ele>765.0</ele><time>2026-05-01T13:50:07.933Z</time></trkpt><trkpt lat="43.0277988" lon="12.8906995"><ele>765.5</ele><time>2026-05-01T13:50:08.933Z</time></trkpt><trkpt lat="43.0277556" lon="12.8905523"><ele>766.0</ele><time>2026-05-01T13:50:09.932Z</time></trkpt><trkpt lat="43.0277276" lon="12.8903892"><ele>766.0</ele><time>2026-05-01T13:50:10.933Z</time></trkpt><trkpt lat="43.0277116" lon="12.8902065"><ele>766.0</ele><time>2026-05-01T13:50:11.933Z</time></trkpt><trkpt lat="43.0276948" lon="12.8900302"><ele>766.0</ele><time>2026-05-01T13:50:12.932Z</time></trkpt><trkpt lat="43.0276653" lon="12.8898484"><ele>766.0</ele><time>2026-05-01T13:50:13.932Z</time></trkpt><trkpt lat="43.0276261" lon="12.8896718"><ele>764.75</ele><time>2026-05-01T13:50:14.933Z</time></trkpt><trkpt lat="43.0275661" lon="12.8894949"><ele>763.5</ele><time>2026-05-01T13:50:15.933Z</time></trkpt><trkpt lat="43.027504" lon="12.8893184"><ele>762.25</ele><time>2026-05-01T13:50:16.933Z</time></trkpt><trkpt lat="43.027435" lon="12.8891389"><ele>761.0</ele><time>2026-05-01T13:50:17.933Z</time></trkpt><trkpt lat="43.0273636" lon="12.8889559"><ele>760.6666666666666</ele><time>2026-05-01T13:50:18.933Z</time></trkpt><trkpt lat="43.0272755" lon="12.8887795"><ele>760.3333333333334</ele><time>2026-05-01T13:50:19.933Z</time></trkpt><trkpt lat="43.027176" lon="12.8886138"><ele>760.0</ele><time>2026-05-01T13:50:20.933Z</time></trkpt><trkpt lat="43.0270787" lon="12.8884524"><ele>760.5</ele><time>2026-05-01T13:50:21.933Z</time></trkpt><trkpt lat="43.0269804" lon="12.888299"><ele>761.0</ele><time>2026-05-01T13:50:22.933Z</time></trkpt><trkpt lat="43.0268845" lon="12.8881449"><ele>761.5</ele><time>2026-05-01T13:50:23.933Z</time></trkpt><trkpt lat="43.0267911" lon="12.8879807"><ele>762.0</ele><time>2026-05-01T13:50:24.932Z</time></trkpt><trkpt lat="43.0267026" lon="12.8878124"><ele>761.6666666666666</ele><time>2026-05-01T13:50:25.933Z</time></trkpt><trkpt lat="43.0266306" lon="12.8876334"><ele>761.3333333333333</ele><time>2026-05-01T13:50:26.933Z</time></trkpt><trkpt lat="43.0265606" lon="12.8874434"><ele>761.0</ele><time>2026-05-01T13:50:27.933Z</time></trkpt><trkpt lat="43.0264918" lon="12.8872615"><ele>761.0</ele><time>2026-05-01T13:50:28.933Z</time></trkpt><trkpt lat="43.0264296" lon="12.8870685"><ele>761.0</ele><time>2026-05-01T13:50:29.932Z</time></trkpt><trkpt lat="43.02637" lon="12.8868724"><ele>761.0</ele><time>2026-05-01T13:50:30.933Z</time></trkpt><trkpt lat="43.0263035" lon="12.8866779"><ele>761.3333333333333</ele><time>2026-05-01T13:50:31.933Z</time></trkpt><trkpt lat="43.0262221" lon="12.8864882"><ele>761.6666666666666</ele><time>2026-05-01T13:50:32.933Z</time></trkpt><trkpt lat="43.0261154" lon="12.8862778"><ele>762.0</ele><time>2026-05-01T13:50:33.933Z</time></trkpt><trkpt lat="43.0260002" lon="12.8860564"><ele>762.3333333333334</ele><time>2026-05-01T13:50:34.933Z</time></trkpt><trkpt lat="43.0258878" lon="12.885829"><ele>762.6666666666667</ele><time>2026-05-01T13:50:35.933Z</time></trkpt><trkpt lat="43.0257955" lon="12.8855749"><ele>763.0</ele><time>2026-05-01T13:50:36.933Z</time></trkpt><trkpt lat="43.0257137" lon="12.8853082"><ele>761.0</ele><time>2026-05-01T13:50:37.933Z</time></trkpt><trkpt lat="43.0256333" lon="12.8850525"><ele>759.0</ele><time>2026-05-01T13:50:38.933Z</time></trkpt><trkpt lat="43.0255547" lon="12.8848221"><ele>757.0</ele><time>2026-05-01T13:50:39.933Z</time></trkpt><trkpt lat="43.0254877" lon="12.8846367"><ele>757.0</ele><time>2026-05-01T13:50:40.932Z</time></trkpt><trkpt lat="43.0254081" lon="12.8844914"><ele>757.0</ele><time>2026-05-01T13:50:41.932Z</time></trkpt><trkpt lat="43.0253045" lon="12.8843824"><ele>757.0</ele><time>2026-05-01T13:50:42.933Z</time></trkpt><trkpt lat="43.0251751" lon="12.8843024"><ele>757.0</ele><time>2026-05-01T13:50:43.932Z</time></trkpt><trkpt lat="43.0250188" lon="12.8842783"><ele>758.75</ele><time>2026-05-01T13:50:44.933Z</time></trkpt><trkpt lat="43.0248657" lon="12.8843019"><ele>760.5</ele><time>2026-05-01T13:50:45.933Z</time></trkpt><trkpt lat="43.0247215" lon="12.8843352"><ele>762.25</ele><time>2026-05-01T13:50:46.934Z</time></trkpt><trkpt lat="43.0245886" lon="12.8843749"><ele>764.0</ele><time>2026-05-01T13:50:47.934Z</time></trkpt><trkpt lat="43.0244795" lon="12.8843871"><ele>764.0</ele><time>2026-05-01T13:50:48.934Z</time></trkpt><trkpt lat="43.0243996" lon="12.8843466"><ele>764.0</ele><time>2026-05-01T13:50:49.934Z</time></trkpt><trkpt lat="43.0243299" lon="12.8842551"><ele>764.0</ele><time>2026-05-01T13:50:50.933Z</time></trkpt><trkpt lat="43.0242805" lon="12.884107"><ele>764.0</ele><time>2026-05-01T13:50:51.934Z</time></trkpt><trkpt lat="43.0242569" lon="12.8839358"><ele>764.0</ele><time>2026-05-01T13:50:52.933Z</time></trkpt><trkpt lat="43.0242436" lon="12.8837678"><ele>764.0</ele><time>2026-05-01T13:50:53.934Z</time></trkpt><trkpt lat="43.024251" lon="12.8836096"><ele>764.0</ele><time>2026-05-01T13:50:54.934Z</time></trkpt><trkpt lat="43.0242609" lon="12.8834647"><ele>764.0</ele><time>2026-05-01T13:50:55.934Z</time></trkpt><trkpt lat="43.024271" lon="12.8833396"><ele>764.0</ele><time>2026-05-01T13:50:56.933Z</time></trkpt><trkpt lat="43.0242822" lon="12.8832232"><ele>764.0</ele><time>2026-05-01T13:50:57.934Z</time></trkpt><trkpt lat="43.0242846" lon="12.8831038"><ele>764.0</ele><time>2026-05-01T13:50:58.934Z</time></trkpt><trkpt lat="43.024277" lon="12.8829694"><ele>764.0</ele><time>2026-05-01T13:50:59.934Z</time></trkpt><trkpt lat="43.0242644" lon="12.8828201"><ele>764.0</ele><time>2026-05-01T13:51:00.933Z</time></trkpt><trkpt lat="43.0242364" lon="12.8826726"><ele>764.0</ele><time>2026-05-01T13:51:01.934Z</time></trkpt><trkpt lat="43.0241914" lon="12.8825213"><ele>764.0</ele><time>2026-05-01T13:51:02.934Z</time></trkpt><trkpt lat="43.0241202" lon="12.8823616"><ele>766.0</ele><time>2026-05-01T13:51:03.934Z</time></trkpt><trkpt lat="43.0240254" lon="12.8822152"><ele>768.0</ele><time>2026-05-01T13:51:04.933Z</time></trkpt><trkpt lat="43.023902" lon="12.8820869"><ele>770.0</ele><time>2026-05-01T13:51:05.934Z</time></trkpt><trkpt lat="43.0237659" lon="12.8819886"><ele>770.0</ele><time>2026-05-01T13:51:06.934Z</time></trkpt><trkpt lat="43.0236059" lon="12.8819222"><ele>770.0</ele><time>2026-05-01T13:51:07.934Z</time></trkpt><trkpt lat="43.0234369" lon="12.8819054"><ele>770.0</ele><time>2026-05-01T13:51:08.933Z</time></trkpt><trkpt lat="43.0232818" lon="12.8819343"><ele>770.75</ele><time>2026-05-01T13:51:09.934Z</time></trkpt><trkpt lat="43.0231371" lon="12.8819774"><ele>771.5</ele><time>2026-05-01T13:51:10.934Z</time></trkpt><trkpt lat="43.0230037" lon="12.8820031"><ele>772.25</ele><time>2026-05-01T13:51:11.934Z</time></trkpt><trkpt lat="43.0228769" lon="12.8820271"><ele>773.0</ele><time>2026-05-01T13:51:12.933Z</time></trkpt><trkpt lat="43.0227479" lon="12.8820376"><ele>773.0</ele><time>2026-05-01T13:51:13.933Z</time></trkpt><trkpt lat="43.0226186" lon="12.8820267"><ele>773.0</ele><time>2026-05-01T13:51:14.934Z</time></trkpt><trkpt lat="43.0224919" lon="12.8819958"><ele>773.0</ele><time>2026-05-01T13:51:15.934Z</time></trkpt><trkpt lat="43.0223603" lon="12.8819491"><ele>773.0</ele><time>2026-05-01T13:51:16.933Z</time></trkpt><trkpt lat="43.0222151" lon="12.8818576"><ele>772.6666666666667</ele><time>2026-05-01T13:51:17.934Z</time></trkpt><trkpt lat="43.022053" lon="12.8817373"><ele>772.3333333333333</ele><time>2026-05-01T13:51:18.934Z</time></trkpt><trkpt lat="43.0218583" lon="12.8816027"><ele>772.0</ele><time>2026-05-01T13:51:19.933Z</time></trkpt><trkpt lat="43.0216375" lon="12.8814483"><ele>772.0</ele><time>2026-05-01T13:51:20.934Z</time></trkpt><trkpt lat="43.0214111" lon="12.8812778"><ele>772.0</ele><time>2026-05-01T13:51:21.934Z</time></trkpt><trkpt lat="43.0211751" lon="12.8810897"><ele>769.5</ele><time>2026-05-01T13:51:22.934Z</time></trkpt><trkpt lat="43.0209336" lon="12.8808827"><ele>767.0</ele><time>2026-05-01T13:51:23.934Z</time></trkpt><trkpt lat="43.0207117" lon="12.8806575"><ele>767.0</ele><time>2026-05-01T13:51:24.934Z</time></trkpt><trkpt lat="43.0205111" lon="12.8803978"><ele>767.0</ele><time>2026-05-01T13:51:25.934Z</time></trkpt><trkpt lat="43.0203589" lon="12.8801492"><ele>766.0</ele><time>2026-05-01T13:51:26.934Z</time></trkpt><trkpt lat="43.0202508" lon="12.8799235"><ele>765.0</ele><time>2026-05-01T13:51:27.934Z</time></trkpt><trkpt lat="43.020114" lon="12.8797316"><ele>764.0</ele><time>2026-05-01T13:51:28.934Z</time></trkpt><trkpt lat="43.0199292" lon="12.879568"><ele>764.5</ele><time>2026-05-01T13:51:29.934Z</time></trkpt><trkpt lat="43.0197145" lon="12.8794191"><ele>765.0</ele><time>2026-05-01T13:51:30.933Z</time></trkpt><trkpt lat="43.0194849" lon="12.8792643"><ele>765.0</ele><time>2026-05-01T13:51:31.934Z</time></trkpt><trkpt lat="43.0192451" lon="12.879117"><ele>765.0</ele><time>2026-05-01T13:51:32.934Z</time></trkpt><trkpt lat="43.018997" lon="12.8789717"><ele>765.0</ele><time>2026-05-01T13:51:33.934Z</time></trkpt><trkpt lat="43.0187478" lon="12.8788393"><ele>765.0</ele><time>2026-05-01T13:51:34.934Z</time></trkpt><trkpt lat="43.0184997" lon="12.8787185"><ele>764.5</ele><time>2026-05-01T13:51:35.934Z</time></trkpt><trkpt lat="43.0182565" lon="12.8785841"><ele>764.0</ele><time>2026-05-01T13:51:36.934Z</time></trkpt><trkpt lat="43.0180202" lon="12.8784111"><ele>761.0</ele><time>2026-05-01T13:51:37.934Z</time></trkpt><trkpt lat="43.0177959" lon="12.8782185"><ele>758.0</ele><time>2026-05-01T13:51:38.934Z</time></trkpt><trkpt lat="43.0175761" lon="12.8780092"><ele>759.0</ele><time>2026-05-01T13:51:39.934Z</time></trkpt><trkpt lat="43.0173588" lon="12.8777946"><ele>760.0</ele><time>2026-05-01T13:51:40.934Z</time></trkpt><trkpt lat="43.0171477" lon="12.8775842"><ele>760.0</ele><time>2026-05-01T13:51:41.933Z</time></trkpt><trkpt lat="43.0169483" lon="12.877368"><ele>760.0</ele><time>2026-05-01T13:51:42.934Z</time></trkpt><trkpt lat="43.0167373" lon="12.8771335"><ele>760.0</ele><time>2026-05-01T13:51:43.934Z</time></trkpt><trkpt lat="43.0165235" lon="12.8769074"><ele>760.0</ele><time>2026-05-01T13:51:44.933Z</time></trkpt><trkpt lat="43.0163087" lon="12.8766725"><ele>760.0</ele><time>2026-05-01T13:51:45.934Z</time></trkpt><trkpt lat="43.0160882" lon="12.876442"><ele>760.0</ele><time>2026-05-01T13:51:46.934Z</time></trkpt><trkpt lat="43.0158672" lon="12.8762146"><ele>760.0</ele><time>2026-05-01T13:51:47.933Z</time></trkpt><trkpt lat="43.0156412" lon="12.8759803"><ele>760.0</ele><time>2026-05-01T13:51:48.934Z</time></trkpt><trkpt lat="43.0154139" lon="12.875739"><ele>760.0</ele><time>2026-05-01T13:51:49.934Z</time></trkpt><trkpt lat="43.0151856" lon="12.8755037"><ele>760.0</ele><time>2026-05-01T13:51:50.933Z</time></trkpt><trkpt lat="43.0149571" lon="12.8752647"><ele>762.5</ele><time>2026-05-01T13:51:51.934Z</time></trkpt><trkpt lat="43.0147304" lon="12.8750219"><ele>765.0</ele><time>2026-05-01T13:51:52.934Z</time></trkpt><trkpt lat="43.014504" lon="12.8747816"><ele>765.0</ele><time>2026-05-01T13:51:53.933Z</time></trkpt><trkpt lat="43.0142804" lon="12.8745471"><ele>765.0</ele><time>2026-05-01T13:51:54.934Z</time></trkpt><trkpt lat="43.0140625" lon="12.874317"><ele>764.0</ele><time>2026-05-01T13:51:55.934Z</time></trkpt><trkpt lat="43.0138493" lon="12.8740947"><ele>763.0</ele><time>2026-05-01T13:51:56.934Z</time></trkpt><trkpt lat="43.0136425" lon="12.8738753"><ele>763.0</ele><time>2026-05-01T13:51:57.934Z</time></trkpt><trkpt lat="43.0134371" lon="12.8736582"><ele>763.0</ele><time>2026-05-01T13:51:58.934Z</time></trkpt><trkpt lat="43.0132375" lon="12.8734476"><ele>764.0</ele><time>2026-05-01T13:51:59.934Z</time></trkpt><trkpt lat="43.0130352" lon="12.8732387"><ele>765.0</ele><time>2026-05-01T13:52:00.934Z</time></trkpt><trkpt lat="43.0128345" lon="12.8730302"><ele>765.0</ele><time>2026-05-01T13:52:01.934Z</time></trkpt><trkpt lat="43.0126371" lon="12.8728226"><ele>765.0</ele><time>2026-05-01T13:52:02.933Z</time></trkpt><trkpt lat="43.0124415" lon="12.8726151"><ele>765.0</ele><time>2026-05-01T13:52:03.934Z</time></trkpt><trkpt lat="43.0122509" lon="12.8724052"><ele>765.0</ele><time>2026-05-01T13:52:04.934Z</time></trkpt><trkpt lat="43.0120604" lon="12.8721989"><ele>765.0</ele><time>2026-05-01T13:52:05.934Z</time></trkpt><trkpt lat="43.0118686" lon="12.8720003"><ele>765.0</ele><time>2026-05-01T13:52:06.934Z</time></trkpt><trkpt lat="43.0116809" lon="12.8718034"><ele>765.6666666666666</ele><time>2026-05-01T13:52:07.934Z</time></trkpt><trkpt lat="43.0114999" lon="12.8716181"><ele>766.3333333333333</ele><time>2026-05-01T13:52:08.934Z</time></trkpt><trkpt lat="43.0113361" lon="12.8714485"><ele>767.0</ele><time>2026-05-01T13:52:09.933Z</time></trkpt><trkpt lat="43.0111848" lon="12.8712916"><ele>767.0</ele><time>2026-05-01T13:52:10.934Z</time></trkpt><trkpt lat="43.0110411" lon="12.8711481"><ele>767.0</ele><time>2026-05-01T13:52:11.934Z</time></trkpt><trkpt lat="43.0109088" lon="12.8710111"><ele>767.0</ele><time>2026-05-01T13:52:12.934Z</time></trkpt><trkpt lat="43.0107777" lon="12.8708686"><ele>767.6666666666666</ele><time>2026-05-01T13:52:13.933Z</time></trkpt><trkpt lat="43.0106591" lon="12.8707345"><ele>768.3333333333333</ele><time>2026-05-01T13:52:14.934Z</time></trkpt><trkpt lat="43.0105407" lon="12.8705913"><ele>769.0</ele><time>2026-05-01T13:52:15.934Z</time></trkpt><trkpt lat="43.0104067" lon="12.8704514"><ele>769.0</ele><time>2026-05-01T13:52:16.934Z</time></trkpt><trkpt lat="43.0102724" lon="12.8702992"><ele>769.0</ele><time>2026-05-01T13:52:17.934Z</time></trkpt><trkpt lat="43.0101298" lon="12.8701496"><ele>769.0</ele><time>2026-05-01T13:52:18.934Z</time></trkpt><trkpt lat="43.0100092" lon="12.8700133"><ele>770.3333333333333</ele><time>2026-05-01T13:52:19.934Z</time></trkpt><trkpt lat="43.0098845" lon="12.86988"><ele>771.6666666666667</ele><time>2026-05-01T13:52:20.934Z</time></trkpt><trkpt lat="43.0097583" lon="12.8697584"><ele>773.0</ele><time>2026-05-01T13:52:21.934Z</time></trkpt><trkpt lat="43.0096261" lon="12.8696187"><ele>773.0</ele><time>2026-05-01T13:52:22.934Z</time></trkpt><trkpt lat="43.0094948" lon="12.8694812"><ele>773.0</ele><time>2026-05-01T13:52:23.934Z</time></trkpt><trkpt lat="43.0093588" lon="12.8693407"><ele>773.0</ele><time>2026-05-01T13:52:24.934Z</time></trkpt><trkpt lat="43.0092134" lon="12.8691886"><ele>774.0</ele><time>2026-05-01T13:52:25.934Z</time></trkpt><trkpt lat="43.0090667" lon="12.8690368"><ele>775.0</ele><time>2026-05-01T13:52:26.933Z</time></trkpt><trkpt lat="43.0089024" lon="12.8688734"><ele>776.0</ele><time>2026-05-01T13:52:27.934Z</time></trkpt><trkpt lat="43.0087132" lon="12.8687044"><ele>776.0</ele><time>2026-05-01T13:52:28.934Z</time></trkpt><trkpt lat="43.0085121" lon="12.8685301"><ele>776.0</ele><time>2026-05-01T13:52:29.933Z</time></trkpt><trkpt lat="43.0083096" lon="12.8683495"><ele>778.0</ele><time>2026-05-01T13:52:30.933Z</time></trkpt><trkpt lat="43.008111" lon="12.8681483"><ele>780.0</ele><time>2026-05-01T13:52:31.934Z</time></trkpt><trkpt lat="43.0079166" lon="12.8679431"><ele>780.0</ele><time>2026-05-01T13:52:32.934Z</time></trkpt><trkpt lat="43.0077262" lon="12.8677246"><ele>780.0</ele><time>2026-05-01T13:52:33.934Z</time></trkpt><trkpt lat="43.0075345" lon="12.8675164"><ele>782.0</ele><time>2026-05-01T13:52:34.934Z</time></trkpt><trkpt lat="43.0073346" lon="12.8673143"><ele>784.0</ele><time>2026-05-01T13:52:35.934Z</time></trkpt><trkpt lat="43.0071339" lon="12.8671018"><ele>784.0</ele><time>2026-05-01T13:52:36.934Z</time></trkpt><trkpt lat="43.0069327" lon="12.8668839"><ele>784.0</ele><time>2026-05-01T13:52:37.934Z</time></trkpt><trkpt lat="43.0067435" lon="12.8666748"><ele>786.5</ele><time>2026-05-01T13:52:38.934Z</time></trkpt><trkpt lat="43.0065508" lon="12.8664908"><ele>789.0</ele><time>2026-05-01T13:52:39.933Z</time></trkpt><trkpt lat="43.0063639" lon="12.8663194"><ele>789.0</ele><time>2026-05-01T13:52:40.934Z</time></trkpt><trkpt lat="43.0061491" lon="12.8661788"><ele>789.0</ele><time>2026-05-01T13:52:41.934Z</time></trkpt><trkpt lat="43.0059263" lon="12.8660768"><ele>789.3333333333333</ele><time>2026-05-01T13:52:42.934Z</time></trkpt><trkpt lat="43.0057057" lon="12.8659823"><ele>789.6666666666666</ele><time>2026-05-01T13:52:43.933Z</time></trkpt><trkpt lat="43.0055061" lon="12.865882"><ele>790.0</ele><time>2026-05-01T13:52:44.933Z</time></trkpt><trkpt lat="43.0053141" lon="12.8657637"><ele>790.6666666666666</ele><time>2026-05-01T13:52:45.934Z</time></trkpt><trkpt lat="43.0051285" lon="12.8656211"><ele>791.3333333333333</ele><time>2026-05-01T13:52:46.934Z</time></trkpt><trkpt lat="43.0049469" lon="12.8654439"><ele>792.0</ele><time>2026-05-01T13:52:47.934Z</time></trkpt><trkpt lat="43.0047691" lon="12.8652489"><ele>794.0</ele><time>2026-05-01T13:52:48.934Z</time></trkpt><trkpt lat="43.0045934" lon="12.8650471"><ele>796.0</ele><time>2026-05-01T13:52:49.934Z</time></trkpt><trkpt lat="43.0044316" lon="12.8648538"><ele>798.0</ele><time>2026-05-01T13:52:50.933Z</time></trkpt><trkpt lat="43.0042863" lon="12.8646669"><ele>798.0</ele><time>2026-05-01T13:52:51.934Z</time></trkpt><trkpt lat="43.0041696" lon="12.8644831"><ele>798.0</ele><time>2026-05-01T13:52:52.934Z</time></trkpt><trkpt lat="43.0040624" lon="12.8642921"><ele>798.0</ele><time>2026-05-01T13:52:53.934Z</time></trkpt><trkpt lat="43.0039609" lon="12.8641209"><ele>798.25</ele><time>2026-05-01T13:52:54.934Z</time></trkpt><trkpt lat="43.0038749" lon="12.8639557"><ele>798.5</ele><time>2026-05-01T13:52:55.933Z</time></trkpt><trkpt lat="43.0037974" lon="12.8637924"><ele>798.75</ele><time>2026-05-01T13:52:56.933Z</time></trkpt><trkpt lat="43.0037081" lon="12.8636305"><ele>799.0</ele><time>2026-05-01T13:52:57.934Z</time></trkpt><trkpt lat="43.0036275" lon="12.8634722"><ele>800.75</ele><time>2026-05-01T13:52:58.934Z</time></trkpt><trkpt lat="43.003553" lon="12.8633095"><ele>802.5</ele><time>2026-05-01T13:52:59.934Z</time></trkpt><trkpt lat="43.0034839" lon="12.8631373"><ele>804.25</ele><time>2026-05-01T13:53:00.933Z</time></trkpt><trkpt lat="43.0034424" lon="12.8629484"><ele>806.0</ele><time>2026-05-01T13:53:01.933Z</time></trkpt><trkpt lat="43.0034229" lon="12.8627471"><ele>807.6666666666667</ele><time>2026-05-01T13:53:02.934Z</time></trkpt><trkpt lat="43.0034309" lon="12.8625413"><ele>809.3333333333333</ele><time>2026-05-01T13:53:03.934Z</time></trkpt><trkpt lat="43.0034566" lon="12.8623361"><ele>811.0</ele><time>2026-05-01T13:53:04.933Z</time></trkpt><trkpt lat="43.0034929" lon="12.8621333"><ele>811.0</ele><time>2026-05-01T13:53:05.934Z</time></trkpt><trkpt lat="43.0035373" lon="12.8619329"><ele>811.0</ele><time>2026-05-01T13:53:06.934Z</time></trkpt><trkpt lat="43.0035808" lon="12.8617358"><ele>811.0</ele><time>2026-05-01T13:53:07.933Z</time></trkpt><trkpt lat="43.0036241" lon="12.8615469"><ele>811.0</ele><time>2026-05-01T13:53:08.934Z</time></trkpt><trkpt lat="43.0036491" lon="12.8613614"><ele>812.5</ele><time>2026-05-01T13:53:09.934Z</time></trkpt><trkpt lat="43.0036504" lon="12.8611791"><ele>814.0</ele><time>2026-05-01T13:53:10.934Z</time></trkpt><trkpt lat="43.0036403" lon="12.8610035"><ele>815.5</ele><time>2026-05-01T13:53:11.933Z</time></trkpt><trkpt lat="43.0036154" lon="12.8608145"><ele>817.0</ele><time>2026-05-01T13:53:12.934Z</time></trkpt><trkpt lat="43.0035823" lon="12.8606295"><ele>818.75</ele><time>2026-05-01T13:53:13.934Z</time></trkpt><trkpt lat="43.003534" lon="12.8604433"><ele>820.5</ele><time>2026-05-01T13:53:14.934Z</time></trkpt><trkpt lat="43.0034623" lon="12.8602725"><ele>822.25</ele><time>2026-05-01T13:53:15.933Z</time></trkpt><trkpt lat="43.0033934" lon="12.8601084"><ele>824.0</ele><time>2026-05-01T13:53:16.934Z</time></trkpt><trkpt lat="43.0033183" lon="12.8599513"><ele>826.5</ele><time>2026-05-01T13:53:17.934Z</time></trkpt><trkpt lat="43.003253" lon="12.8597897"><ele>829.0</ele><time>2026-05-01T13:53:18.934Z</time></trkpt><trkpt lat="43.0031923" lon="12.8596255"><ele>831.5</ele><time>2026-05-01T13:53:19.934Z</time></trkpt><trkpt lat="43.0031227" lon="12.8594591"><ele>834.0</ele><time>2026-05-01T13:53:20.934Z</time></trkpt><trkpt lat="43.003058" lon="12.859295"><ele>832.75</ele><time>2026-05-01T13:53:21.933Z</time></trkpt><trkpt lat="43.0029878" lon="12.8591356"><ele>831.5</ele><time>2026-05-01T13:53:22.934Z</time></trkpt><trkpt lat="43.0029218" lon="12.8589774"><ele>830.25</ele><time>2026-05-01T13:53:23.934Z</time></trkpt><trkpt lat="43.0028541" lon="12.8588175"><ele>829.0</ele><time>2026-05-01T13:53:24.934Z</time></trkpt><trkpt lat="43.00279" lon="12.858658"><ele>799.0</ele><time>2026-05-01T13:53:25.934Z</time></trkpt><trkpt lat="43.0038749" lon="12.8639557"><ele>799.0</ele><time>2026-05-01T13:52:55.933Z</time></trkpt><trkpt lat="43.0037974" lon="12.8637924"><ele>799.0</ele><time>2026-05-01T13:52:56.933Z</time></trkpt><trkpt lat="43.0037081" lon="12.8636305"><ele>799.0</ele><time>2026-05-01T13:52:57.934Z</time></trkpt><trkpt lat="43.0036275" lon="12.8634722"><ele>799.0</ele><time>2026-05-01T13:52:58.934Z</time></trkpt><trkpt lat="43.003553" lon="12.8633095"><ele>800.75</ele><time>2026-05-01T13:52:59.934Z</time></trkpt><trkpt lat="43.0034839" lon="12.8631373"><ele>802.5</ele><time>2026-05-01T13:53:00.933Z</time></trkpt><trkpt lat="43.0034424" lon="12.8629484"><ele>804.25</ele><time>2026-05-01T13:53:01.933Z</time></trkpt><trkpt lat="43.0034229" lon="12.8627471"><ele>806.0</ele><time>2026-05-01T13:53:02.934Z</time></trkpt><trkpt lat="43.0034309" lon="12.8625413"><ele>807.6666666666667</ele><time>2026-05-01T13:53:03.934Z</time></trkpt><trkpt lat="43.0034566" lon="12.8623361"><ele>809.3333333333333</ele><time>2026-05-01T13:53:04.933Z</time></trkpt><trkpt lat="43.0034929" lon="12.8621333"><ele>811.0</ele><time>2026-05-01T13:53:05.934Z</time></trkpt><trkpt lat="43.0035373" lon="12.8619329"><ele>812.5</ele><time>2026-05-01T13:53:06.934Z</time></trkpt><trkpt lat="43.0035808" lon="12.8617358"><ele>814.0</ele><time>2026-05-01T13:53:07.933Z</time></trkpt><trkpt lat="43.0036241" lon="12.8615469"><ele>815.5</ele><time>2026-05-01T13:53:08.934Z</time></trkpt><trkpt lat="43.0036491" lon="12.8613614"><ele>817.0</ele><time>2026-05-01T13:53:09.934Z</time></trkpt><trkpt lat="43.0036504" lon="12.8611791"><ele>817.0</ele><time>2026-05-01T13:53:10.934Z</time></trkpt><trkpt lat="43.0036403" lon="12.8610035"><ele>817.0</ele><time>2026-05-01T13:53:11.933Z</time></trkpt><trkpt lat="43.0036154" lon="12.8608145"><ele>817.0</ele><time>2026-05-01T13:53:12.934Z</time></trkpt><trkpt lat="43.0035823" lon="12.8606295"><ele>817.0</ele><time>2026-05-01T13:53:13.934Z</time></trkpt><trkpt lat="43.003534" lon="12.8604433"><ele>818.75</ele><time>2026-05-01T13:53:14.934Z</time></trkpt><trkpt lat="43.0034623" lon="12.8602725"><ele>820.5</ele><time>2026-05-01T13:53:15.933Z</time></trkpt><trkpt lat="43.0033934" lon="12.8601084"><ele>822.25</ele><time>2026-05-01T13:53:16.934Z</time></trkpt><trkpt lat="43.0033183" lon="12.8599513"><ele>824.0</ele><time>2026-05-01T13:53:17.934Z</time></trkpt><trkpt lat="43.003253" lon="12.8597897"><ele>825.25</ele><time>2026-05-01T13:53:18.934Z</time></trkpt><trkpt lat="43.0031923" lon="12.8596255"><ele>826.5</ele><time>2026-05-01T13:53:19.934Z</time></trkpt><trkpt lat="43.0031227" lon="12.8594591"><ele>827.75</ele><time>2026-05-01T13:53:20.934Z</time></trkpt><trkpt lat="43.003058" lon="12.859295"><ele>829.0</ele><time>2026-05-01T13:53:21.933Z</time></trkpt><trkpt lat="43.0029878" lon="12.8591356"><ele>829.0</ele><time>2026-05-01T13:53:22.934Z</time></trkpt><trkpt lat="43.0029218" lon="12.8589774"><ele>829.0</ele><time>2026-05-01T13:53:23.934Z</time></trkpt><trkpt lat="43.0028541" lon="12.8588175"><ele>829.0</ele><time>2026-05-01T13:53:24.934Z</time></trkpt><trkpt lat="43.00279" lon="12.858658"><ele>829.0</ele><time>2026-05-01T13:53:25.934Z</time></trkpt><trkpt lat="43.002722" lon="12.858496"><ele>829.75</ele><time>2026-05-01T13:53:26.934Z</time></trkpt><trkpt lat="43.0026432" lon="12.8583356"><ele>830.5</ele><time>2026-05-01T13:53:27.934Z</time></trkpt><trkpt lat="43.0025629" lon="12.8581678"><ele>831.25</ele><time>2026-05-01T13:53:28.933Z</time></trkpt><trkpt lat="43.0024739" lon="12.8579969"><ele>832.0</ele><time>2026-05-01T13:53:29.934Z</time></trkpt><trkpt lat="43.0023763" lon="12.8578234"><ele>832.0</ele><time>2026-05-01T13:53:30.933Z</time></trkpt><trkpt lat="43.0022693" lon="12.857642"><ele>832.0</ele><time>2026-05-01T13:53:31.934Z</time></trkpt><trkpt lat="43.0021503" lon="12.8574588"><ele>832.0</ele><time>2026-05-01T13:53:32.934Z</time></trkpt><trkpt lat="43.0020267" lon="12.8572667"><ele>829.3333333333333</ele><time>2026-05-01T13:53:33.933Z</time></trkpt><trkpt lat="43.0018978" lon="12.8570641"><ele>826.6666666666667</ele><time>2026-05-01T13:53:34.934Z</time></trkpt><trkpt lat="43.001762" lon="12.8568559"><ele>824.0</ele><time>2026-05-01T13:53:35.934Z</time></trkpt><trkpt lat="43.001622" lon="12.8566442"><ele>823.0</ele><time>2026-05-01T13:53:36.933Z</time></trkpt><trkpt lat="43.0014932" lon="12.8564367"><ele>822.0</ele><time>2026-05-01T13:53:37.933Z</time></trkpt><trkpt lat="43.0013646" lon="12.85624"><ele>821.0</ele><time>2026-05-01T13:53:38.934Z</time></trkpt><trkpt lat="43.0012371" lon="12.8560402"><ele>817.0</ele><time>2026-05-01T13:53:39.934Z</time></trkpt><trkpt lat="43.0011074" lon="12.8558333"><ele>813.0</ele><time>2026-05-01T13:53:40.934Z</time></trkpt><trkpt lat="43.0009702" lon="12.8556212"><ele>809.0</ele><time>2026-05-01T13:53:41.934Z</time></trkpt><trkpt lat="43.0008351" lon="12.8554172"><ele>812.0</ele><time>2026-05-01T13:53:42.933Z</time></trkpt><trkpt lat="43.0007098" lon="12.8552255"><ele>815.0</ele><time>2026-05-01T13:53:43.934Z</time></trkpt><trkpt lat="43.0005899" lon="12.8550433"><ele>818.0</ele><time>2026-05-01T13:53:44.933Z</time></trkpt><trkpt lat="43.0004746" lon="12.8548667"><ele>818.0</ele><time>2026-05-01T13:53:45.934Z</time></trkpt><trkpt lat="43.0003559" lon="12.8546962"><ele>818.0</ele><time>2026-05-01T13:53:46.934Z</time></trkpt><trkpt lat="43.0002281" lon="12.8545318"><ele>818.0</ele><time>2026-05-01T13:53:47.933Z</time></trkpt><trkpt lat="43.0000868" lon="12.8543775"><ele>814.3333333333334</ele><time>2026-05-01T13:53:48.934Z</time></trkpt><trkpt lat="42.9999417" lon="12.8542209"><ele>810.6666666666667</ele><time>2026-05-01T13:53:49.933Z</time></trkpt><trkpt lat="42.9997927" lon="12.8540598"><ele>807.0</ele><time>2026-05-01T13:53:50.934Z</time></trkpt><trkpt lat="42.9996542" lon="12.8538672"><ele>807.0</ele><time>2026-05-01T13:53:51.934Z</time></trkpt><trkpt lat="42.9995346" lon="12.8536564"><ele>807.0</ele><time>2026-05-01T13:53:52.934Z</time></trkpt><trkpt lat="42.9994251" lon="12.8534261"><ele>807.0</ele><time>2026-05-01T13:53:53.934Z</time></trkpt><trkpt lat="42.9993299" lon="12.8531806"><ele>805.3333333333333</ele><time>2026-05-01T13:53:54.934Z</time></trkpt><trkpt lat="42.9992535" lon="12.8529226"><ele>803.6666666666666</ele><time>2026-05-01T13:53:55.933Z</time></trkpt><trkpt lat="42.9991928" lon="12.8526601"><ele>802.0</ele><time>2026-05-01T13:53:56.934Z</time></trkpt><trkpt lat="42.9991307" lon="12.8524067"><ele>802.0</ele><time>2026-05-01T13:53:57.934Z</time></trkpt><trkpt lat="42.9990789" lon="12.8521544"><ele>802.0</ele><time>2026-05-01T13:53:58.934Z</time></trkpt><trkpt lat="42.9990295" lon="12.8519055"><ele>802.0</ele><time>2026-05-01T13:53:59.934Z</time></trkpt><trkpt lat="42.9989795" lon="12.8516644"><ele>802.0</ele><time>2026-05-01T13:54:00.933Z</time></trkpt><trkpt lat="42.9989249" lon="12.8514238"><ele>802.0</ele><time>2026-05-01T13:54:01.934Z</time></trkpt><trkpt lat="42.9988756" lon="12.8511812"><ele>802.0</ele><time>2026-05-01T13:54:02.934Z</time></trkpt><trkpt lat="42.9988239" lon="12.8509485"><ele>802.3333333333333</ele><time>2026-05-01T13:54:03.934Z</time></trkpt><trkpt lat="42.9987734" lon="12.8507229"><ele>802.6666666666667</ele><time>2026-05-01T13:54:04.933Z</time></trkpt><trkpt lat="42.9987267" lon="12.8504942"><ele>803.0</ele><time>2026-05-01T13:54:05.934Z</time></trkpt><trkpt lat="42.9986752" lon="12.8502668"><ele>802.3333333333334</ele><time>2026-05-01T13:54:06.934Z</time></trkpt><trkpt lat="42.9986235" lon="12.8500446"><ele>801.6666666666667</ele><time>2026-05-01T13:54:07.934Z</time></trkpt><trkpt lat="42.9985742" lon="12.8498156"><ele>801.0</ele><time>2026-05-01T13:54:08.933Z</time></trkpt><trkpt lat="42.9985234" lon="12.849584"><ele>801.0</ele><time>2026-05-01T13:54:09.933Z</time></trkpt><trkpt lat="42.9984723" lon="12.8493523"><ele>801.0</ele><time>2026-05-01T13:54:10.934Z</time></trkpt><trkpt lat="42.9984253" lon="12.8491334"><ele>801.0</ele><time>2026-05-01T13:54:11.934Z</time></trkpt><trkpt lat="42.9983811" lon="12.8489295"><ele>801.0</ele><time>2026-05-01T13:54:12.934Z</time></trkpt><trkpt lat="42.9983424" lon="12.8487412"><ele>801.0</ele><time>2026-05-01T13:54:13.934Z</time></trkpt><trkpt lat="42.998312" lon="12.8485771"><ele>801.0</ele><time>2026-05-01T13:54:14.934Z</time></trkpt><trkpt lat="42.99829" lon="12.8484187"><ele>801.0</ele><time>2026-05-01T13:54:15.934Z</time></trkpt><trkpt lat="42.9982718" lon="12.8482843"><ele>801.5</ele><time>2026-05-01T13:54:16.934Z</time></trkpt><trkpt lat="42.9982739" lon="12.848161"><ele>802.0</ele><time>2026-05-01T13:54:17.934Z</time></trkpt><trkpt lat="42.9983089" lon="12.8480428"><ele>802.5</ele><time>2026-05-01T13:54:18.934Z</time></trkpt><trkpt lat="42.9984154" lon="12.8479274"><ele>803.0</ele><time>2026-05-01T13:54:19.934Z</time></trkpt><trkpt lat="42.9985527" lon="12.8477873"><ele>803.3333333333334</ele><time>2026-05-01T13:54:20.934Z</time></trkpt><trkpt lat="42.9986904" lon="12.8476057"><ele>803.6666666666667</ele><time>2026-05-01T13:54:21.934Z</time></trkpt><trkpt lat="42.9988153" lon="12.8473747"><ele>804.0</ele><time>2026-05-01T13:54:22.934Z</time></trkpt><trkpt lat="42.9989288" lon="12.8471081"><ele>804.0</ele><time>2026-05-01T13:54:23.934Z</time></trkpt><trkpt lat="42.9990386" lon="12.8468282"><ele>804.0</ele><time>2026-05-01T13:54:24.934Z</time></trkpt><trkpt lat="42.9991583" lon="12.8465314"><ele>805.5</ele><time>2026-05-01T13:54:25.934Z</time></trkpt><trkpt lat="42.9992771" lon="12.8462414"><ele>807.0</ele><time>2026-05-01T13:54:26.934Z</time></trkpt><trkpt lat="42.9993864" lon="12.8459751"><ele>808.0</ele><time>2026-05-01T13:54:27.934Z</time></trkpt><trkpt lat="42.9994826" lon="12.8457387"><ele>809.0</ele><time>2026-05-01T13:54:28.934Z</time></trkpt><trkpt lat="42.9995825" lon="12.8455492"><ele>810.0</ele><time>2026-05-01T13:54:29.934Z</time></trkpt><trkpt lat="42.9997034" lon="12.8453878"><ele>810.0</ele><time>2026-05-01T13:54:30.934Z</time></trkpt><trkpt lat="42.9998458" lon="12.8452717"><ele>810.0</ele><time>2026-05-01T13:54:31.933Z</time></trkpt><trkpt lat="43.0000154" lon="12.8452068"><ele>810.0</ele><time>2026-05-01T13:54:32.934Z</time></trkpt><trkpt lat="43.0002053" lon="12.845164"><ele>810.0</ele><time>2026-05-01T13:54:33.934Z</time></trkpt><trkpt lat="43.0004144" lon="12.8451359"><ele>810.0</ele><time>2026-05-01T13:54:34.934Z</time></trkpt><trkpt lat="43.0006306" lon="12.845111"><ele>810.0</ele><time>2026-05-01T13:54:35.934Z</time></trkpt><trkpt lat="43.0008383" lon="12.8450817"><ele>813.6666666666667</ele><time>2026-05-01T13:54:36.934Z</time></trkpt><trkpt lat="43.0010358" lon="12.845062"><ele>817.3333333333334</ele><time>2026-05-01T13:54:37.934Z</time></trkpt><trkpt lat="43.0012229" lon="12.8450361"><ele>821.0</ele><time>2026-05-01T13:54:38.934Z</time></trkpt><trkpt lat="43.0014057" lon="12.8450137"><ele>821.0</ele><time>2026-05-01T13:54:39.933Z</time></trkpt><trkpt lat="43.0015702" lon="12.844985"><ele>821.0</ele><time>2026-05-01T13:54:40.934Z</time></trkpt><trkpt lat="43.0017202" lon="12.8449592"><ele>821.0</ele><time>2026-05-01T13:54:41.933Z</time></trkpt><trkpt lat="43.0018548" lon="12.8449401"><ele>821.5</ele><time>2026-05-01T13:54:42.934Z</time></trkpt><trkpt lat="43.0019714" lon="12.8449097"><ele>822.0</ele><time>2026-05-01T13:54:43.934Z</time></trkpt><trkpt lat="43.0020778" lon="12.8448675"><ele>822.5</ele><time>2026-05-01T13:54:44.934Z</time></trkpt><trkpt lat="43.0021757" lon="12.8448003"><ele>823.0</ele><time>2026-05-01T13:54:45.933Z</time></trkpt><trkpt lat="43.0022673" lon="12.844706"><ele>823.0</ele><time>2026-05-01T13:54:46.934Z</time></trkpt><trkpt lat="43.0023559" lon="12.8445751"><ele>823.0</ele><time>2026-05-01T13:54:47.934Z</time></trkpt><trkpt lat="43.0024309" lon="12.8444189"><ele>823.0</ele><time>2026-05-01T13:54:48.934Z</time></trkpt><trkpt lat="43.0024866" lon="12.8442489"><ele>823.0</ele><time>2026-05-01T13:54:49.934Z</time></trkpt><trkpt lat="43.0025243" lon="12.844051"><ele>823.0</ele><time>2026-05-01T13:54:50.933Z</time></trkpt><trkpt lat="43.0025558" lon="12.8438303"><ele>823.0</ele><time>2026-05-01T13:54:51.934Z</time></trkpt><trkpt lat="43.0025789" lon="12.843598"><ele>823.0</ele><time>2026-05-01T13:54:52.933Z</time></trkpt><trkpt lat="43.0026102" lon="12.8433564"><ele>825.6666666666666</ele><time>2026-05-01T13:54:53.934Z</time></trkpt><trkpt lat="43.0026494" lon="12.8431044"><ele>828.3333333333333</ele><time>2026-05-01T13:54:54.934Z</time></trkpt><trkpt lat="43.0026985" lon="12.842843"><ele>831.0</ele><time>2026-05-01T13:54:55.933Z</time></trkpt><trkpt lat="43.002761" lon="12.8425724"><ele>831.6666666666667</ele><time>2026-05-01T13:54:56.934Z</time></trkpt><trkpt lat="43.0028368" lon="12.8423035"><ele>832.3333333333334</ele><time>2026-05-01T13:54:57.934Z</time></trkpt><trkpt lat="43.002938" lon="12.8420333"><ele>833.0</ele><time>2026-05-01T13:54:58.934Z</time></trkpt><trkpt lat="43.0030492" lon="12.8417685"><ele>834.3333333333334</ele><time>2026-05-01T13:54:59.934Z</time></trkpt><trkpt lat="43.0031624" lon="12.8415036"><ele>835.6666666666667</ele><time>2026-05-01T13:55:00.933Z</time></trkpt><trkpt lat="43.0032655" lon="12.8412462"><ele>837.0</ele><time>2026-05-01T13:55:01.934Z</time></trkpt><trkpt lat="43.0033607" lon="12.8410037"><ele>834.3333333333333</ele><time>2026-05-01T13:55:02.934Z</time></trkpt><trkpt lat="43.0034503" lon="12.8407841"><ele>831.6666666666666</ele><time>2026-05-01T13:55:03.934Z</time></trkpt><trkpt lat="43.0035405" lon="12.840585"><ele>829.0</ele><time>2026-05-01T13:55:04.934Z</time></trkpt><trkpt lat="43.0036454" lon="12.8403995"><ele>829.0</ele><time>2026-05-01T13:55:05.934Z</time></trkpt><trkpt lat="43.0037832" lon="12.840251"><ele>829.0</ele><time>2026-05-01T13:55:06.934Z</time></trkpt><trkpt lat="43.003961" lon="12.8401498"><ele>829.0</ele><time>2026-05-01T13:55:07.933Z</time></trkpt><trkpt lat="43.0041633" lon="12.8401127"><ele>830.3333333333333</ele><time>2026-05-01T13:55:08.934Z</time></trkpt><trkpt lat="43.0043821" lon="12.8401149"><ele>831.6666666666667</ele><time>2026-05-01T13:55:09.934Z</time></trkpt><trkpt lat="43.0046093" lon="12.8401263"><ele>833.0</ele><time>2026-05-01T13:55:10.934Z</time></trkpt><trkpt lat="43.0048419" lon="12.8401362"><ele>830.0</ele><time>2026-05-01T13:55:11.934Z</time></trkpt><trkpt lat="43.0050658" lon="12.8401408"><ele>827.0</ele><time>2026-05-01T13:55:12.934Z</time></trkpt><trkpt lat="43.0052803" lon="12.8401441"><ele>824.0</ele><time>2026-05-01T13:55:13.933Z</time></trkpt><trkpt lat="43.0054706" lon="12.8401572"><ele>824.0</ele><time>2026-05-01T13:55:14.933Z</time></trkpt><trkpt lat="43.0056469" lon="12.8401641"><ele>824.0</ele><time>2026-05-01T13:55:15.933Z</time></trkpt><trkpt lat="43.0058022" lon="12.8401648"><ele>824.0</ele><time>2026-05-01T13:55:16.933Z</time></trkpt><trkpt lat="43.0059445" lon="12.8401401"><ele>826.25</ele><time>2026-05-01T13:55:17.934Z</time></trkpt><trkpt lat="43.0060722" lon="12.8400707"><ele>828.5</ele><time>2026-05-01T13:55:18.934Z</time></trkpt><trkpt lat="43.0061792" lon="12.8399551"><ele>830.75</ele><time>2026-05-01T13:55:19.933Z</time></trkpt><trkpt lat="43.0062576" lon="12.8398133"><ele>833.0</ele><time>2026-05-01T13:55:20.934Z</time></trkpt><trkpt lat="43.0063119" lon="12.8396413"><ele>833.0</ele><time>2026-05-01T13:55:21.934Z</time></trkpt><trkpt lat="43.0063469" lon="12.8394386"><ele>833.0</ele><time>2026-05-01T13:55:22.934Z</time></trkpt><trkpt lat="43.0063732" lon="12.8392214"><ele>833.0</ele><time>2026-05-01T13:55:23.934Z</time></trkpt><trkpt lat="43.006402" lon="12.8389945"><ele>833.6666666666667</ele><time>2026-05-01T13:55:24.934Z</time></trkpt><trkpt lat="43.0064369" lon="12.838749"><ele>834.3333333333333</ele><time>2026-05-01T13:55:25.934Z</time></trkpt><trkpt lat="43.0064734" lon="12.8385063"><ele>835.0</ele><time>2026-05-01T13:55:26.933Z</time></trkpt><trkpt lat="43.0065129" lon="12.8382747"><ele>835.6666666666666</ele><time>2026-05-01T13:55:27.934Z</time></trkpt><trkpt lat="43.0065743" lon="12.8380649"><ele>836.3333333333333</ele><time>2026-05-01T13:55:28.933Z</time></trkpt><trkpt lat="43.0066594" lon="12.8379053"><ele>837.0</ele><time>2026-05-01T13:55:29.933Z</time></trkpt><trkpt lat="43.0067738" lon="12.8377804"><ele>833.3333333333333</ele><time>2026-05-01T13:55:30.934Z</time></trkpt><trkpt lat="43.0069171" lon="12.8376667"><ele>829.6666666666666</ele><time>2026-05-01T13:55:31.934Z</time></trkpt><trkpt lat="43.007077" lon="12.8375583"><ele>826.0</ele><time>2026-05-01T13:55:32.934Z</time></trkpt><trkpt lat="43.0072406" lon="12.8374248"><ele>826.0</ele><time>2026-05-01T13:55:33.934Z</time></trkpt><trkpt lat="43.0074079" lon="12.8372806"><ele>826.0</ele><time>2026-05-01T13:55:34.934Z</time></trkpt><trkpt lat="43.0075668" lon="12.8371073"><ele>826.0</ele><time>2026-05-01T13:55:35.933Z</time></trkpt><trkpt lat="43.0077163" lon="12.8369155"><ele>824.0</ele><time>2026-05-01T13:55:36.934Z</time></trkpt><trkpt lat="43.0078557" lon="12.8367255"><ele>822.0</ele><time>2026-05-01T13:55:37.933Z</time></trkpt><trkpt lat="43.0079879" lon="12.8365457"><ele>820.0</ele><time>2026-05-01T13:55:38.934Z</time></trkpt><trkpt lat="43.0081039" lon="12.8363627"><ele>820.0</ele><time>2026-05-01T13:55:39.934Z</time></trkpt><trkpt lat="43.0082053" lon="12.8361872"><ele>820.0</ele><time>2026-05-01T13:55:40.933Z</time></trkpt><trkpt lat="43.0082853" lon="12.8360134"><ele>820.0</ele><time>2026-05-01T13:55:41.934Z</time></trkpt><trkpt lat="43.0083492" lon="12.8358205"><ele>821.3333333333333</ele><time>2026-05-01T13:55:42.934Z</time></trkpt><trkpt lat="43.008391" lon="12.8356154"><ele>822.6666666666667</ele><time>2026-05-01T13:55:43.934Z</time></trkpt><trkpt lat="43.0084149" lon="12.835396"><ele>824.0</ele><time>2026-05-01T13:55:44.933Z</time></trkpt><trkpt lat="43.0084155" lon="12.8351594"><ele>823.6666666666667</ele><time>2026-05-01T13:55:45.934Z</time></trkpt><trkpt lat="43.0083839" lon="12.8349052"><ele>823.3333333333333</ele><time>2026-05-01T13:55:46.934Z</time></trkpt><trkpt lat="43.0083162" lon="12.8346271"><ele>823.0</ele><time>2026-05-01T13:55:47.933Z</time></trkpt><trkpt lat="43.0082399" lon="12.8343405"><ele>812.0</ele><time>2026-05-01T13:55:48.934Z</time></trkpt><trkpt lat="43.0081593" lon="12.8340497"><ele>801.0</ele><time>2026-05-01T13:55:49.934Z</time></trkpt><trkpt lat="43.0080788" lon="12.833764"><ele>801.0</ele><time>2026-05-01T13:55:50.934Z</time></trkpt><trkpt lat="43.008013" lon="12.8334888"><ele>801.0</ele><time>2026-05-01T13:55:51.934Z</time></trkpt><trkpt lat="43.0079577" lon="12.8332184"><ele>801.0</ele><time>2026-05-01T13:55:52.934Z</time></trkpt><trkpt lat="43.0079046" lon="12.8329486"><ele>801.3333333333333</ele><time>2026-05-01T13:55:53.934Z</time></trkpt><trkpt lat="43.0078522" lon="12.8326819"><ele>801.6666666666666</ele><time>2026-05-01T13:55:54.934Z</time></trkpt><trkpt lat="43.0078127" lon="12.832444"><ele>802.0</ele><time>2026-05-01T13:55:55.934Z</time></trkpt><trkpt lat="43.0077869" lon="12.8322461"><ele>802.25</ele><time>2026-05-01T13:55:56.934Z</time></trkpt><trkpt lat="43.0077678" lon="12.8320799"><ele>802.5</ele><time>2026-05-01T13:55:57.934Z</time></trkpt><trkpt lat="43.0077708" lon="12.8319287"><ele>802.75</ele><time>2026-05-01T13:55:58.934Z</time></trkpt><trkpt lat="43.0078187" lon="12.8317825"><ele>803.0</ele><time>2026-05-01T13:55:59.934Z</time></trkpt><trkpt lat="43.0079436" lon="12.8316812"><ele>801.25</ele><time>2026-05-01T13:56:00.933Z</time></trkpt><trkpt lat="43.0080935" lon="12.8315873"><ele>799.5</ele><time>2026-05-01T13:56:01.934Z</time></trkpt><trkpt lat="43.0082081" lon="12.8314972"><ele>797.75</ele><time>2026-05-01T13:56:02.934Z</time></trkpt><trkpt lat="43.0082863" lon="12.8314013"><ele>796.0</ele><time>2026-05-01T13:56:03.934Z</time></trkpt><trkpt lat="43.0083036" lon="12.8312731"><ele>796.0</ele><time>2026-05-01T13:56:04.933Z</time></trkpt><trkpt lat="43.0082539" lon="12.8311061"><ele>796.0</ele><time>2026-05-01T13:56:05.933Z</time></trkpt><trkpt lat="43.0081691" lon="12.830931"><ele>796.0</ele><time>2026-05-01T13:56:06.934Z</time></trkpt><trkpt lat="43.0080616" lon="12.8307476"><ele>794.0</ele><time>2026-05-01T13:56:07.933Z</time></trkpt><trkpt lat="43.0079523" lon="12.8305476"><ele>792.0</ele><time>2026-05-01T13:56:08.934Z</time></trkpt><trkpt lat="43.0078501" lon="12.8303524"><ele>790.0</ele><time>2026-05-01T13:56:09.933Z</time></trkpt><trkpt lat="43.0077574" lon="12.830153"><ele>790.6666666666666</ele><time>2026-05-01T13:56:10.934Z</time></trkpt><trkpt lat="43.0076793" lon="12.8299364"><ele>791.3333333333333</ele><time>2026-05-01T13:56:11.934Z</time></trkpt><trkpt lat="43.0076106" lon="12.8297043"><ele>792.0</ele><time>2026-05-01T13:56:12.933Z</time></trkpt><trkpt lat="43.0075485" lon="12.8294542"><ele>783.0</ele><time>2026-05-01T13:56:13.933Z</time></trkpt><trkpt lat="43.0074863" lon="12.8291936"><ele>774.0</ele><time>2026-05-01T13:56:14.934Z</time></trkpt><trkpt lat="43.0074225" lon="12.8289413"><ele>765.0</ele><time>2026-05-01T13:56:15.934Z</time></trkpt><trkpt lat="43.0073616" lon="12.8286975"><ele>765.0</ele><time>2026-05-01T13:56:16.934Z</time></trkpt><trkpt lat="43.0073079" lon="12.8284777"><ele>765.0</ele><time>2026-05-01T13:56:17.934Z</time></trkpt><trkpt lat="43.0072658" lon="12.8282691"><ele>765.0</ele><time>2026-05-01T13:56:18.934Z</time></trkpt><trkpt lat="43.0072478" lon="12.8280743"><ele>766.25</ele><time>2026-05-01T13:56:19.934Z</time></trkpt><trkpt lat="43.0072417" lon="12.8278861"><ele>767.5</ele><time>2026-05-01T13:56:20.934Z</time></trkpt><trkpt lat="43.0072523" lon="12.8276917"><ele>768.75</ele><time>2026-05-01T13:56:21.934Z</time></trkpt><trkpt lat="43.0072739" lon="12.8275018"><ele>770.0</ele><time>2026-05-01T13:56:22.934Z</time></trkpt><trkpt lat="43.0072941" lon="12.8273091"><ele>769.5</ele><time>2026-05-01T13:56:23.934Z</time></trkpt><trkpt lat="43.0073103" lon="12.8271344"><ele>769.0</ele><time>2026-05-01T13:56:24.933Z</time></trkpt><trkpt lat="43.0073265" lon="12.8269665"><ele>768.5</ele><time>2026-05-01T13:56:25.934Z</time></trkpt><trkpt lat="43.0073502" lon="12.8268202"><ele>768.0</ele><time>2026-05-01T13:56:26.934Z</time></trkpt><trkpt lat="43.0073706" lon="12.8266823"><ele>768.0</ele><time>2026-05-01T13:56:27.933Z</time></trkpt><trkpt lat="43.0073854" lon="12.8265492"><ele>768.0</ele><time>2026-05-01T13:56:28.934Z</time></trkpt><trkpt lat="43.0073876" lon="12.826418"><ele>768.0</ele><time>2026-05-01T13:56:29.934Z</time></trkpt><trkpt lat="43.0073956" lon="12.8262766"><ele>768.0</ele><time>2026-05-01T13:56:30.934Z</time></trkpt><trkpt lat="43.0074119" lon="12.8261398"><ele>768.0</ele><time>2026-05-01T13:56:31.934Z</time></trkpt><trkpt lat="43.007421" lon="12.8260021"><ele>763.75</ele><time>2026-05-01T13:56:32.933Z</time></trkpt><trkpt lat="43.0074375" lon="12.8258625"><ele>759.5</ele><time>2026-05-01T13:56:33.934Z</time></trkpt><trkpt lat="43.0074497" lon="12.8257128"><ele>755.25</ele><time>2026-05-01T13:56:34.933Z</time></trkpt><trkpt lat="43.0074532" lon="12.8255468"><ele>751.0</ele><time>2026-05-01T13:56:35.934Z</time></trkpt><trkpt lat="43.0074478" lon="12.8253596"><ele>751.0</ele><time>2026-05-01T13:56:36.933Z</time></trkpt><trkpt lat="43.0074339" lon="12.8251594"><ele>751.0</ele><time>2026-05-01T13:56:37.933Z</time></trkpt><trkpt lat="43.0074202" lon="12.8249413"><ele>751.0</ele><time>2026-05-01T13:56:38.934Z</time></trkpt><trkpt lat="43.0074093" lon="12.8247056"><ele>747.0</ele><time>2026-05-01T13:56:39.934Z</time></trkpt><trkpt lat="43.0073803" lon="12.8244657"><ele>743.0</ele><time>2026-05-01T13:56:40.934Z</time></trkpt><trkpt lat="43.0073345" lon="12.8242254"><ele>739.0</ele><time>2026-05-01T13:56:41.934Z</time></trkpt><trkpt lat="43.0072839" lon="12.823987"><ele>738.6666666666667</ele><time>2026-05-01T13:56:42.933Z</time></trkpt><trkpt lat="43.0072397" lon="12.82375"><ele>738.3333333333334</ele><time>2026-05-01T13:56:43.934Z</time></trkpt><trkpt lat="43.0071996" lon="12.8235182"><ele>738.0</ele><time>2026-05-01T13:56:44.933Z</time></trkpt><trkpt lat="43.0071906" lon="12.8233411"><ele>738.0</ele><time>2026-05-01T13:56:45.933Z</time></trkpt><trkpt lat="43.007192" lon="12.8232137"><ele>738.0</ele><time>2026-05-01T13:56:46.933Z</time></trkpt><trkpt lat="43.0071737" lon="12.8231101"><ele>738.0</ele><time>2026-05-01T13:56:47.934Z</time></trkpt><trkpt lat="43.0071181" lon="12.8230671"><ele>738.0</ele><time>2026-05-01T13:56:48.933Z</time></trkpt><trkpt lat="43.0070196" lon="12.8230961"><ele>738.0</ele><time>2026-05-01T13:56:49.934Z</time></trkpt><trkpt lat="43.0069506" lon="12.823209"><ele>738.0</ele><time>2026-05-01T13:56:50.933Z</time></trkpt><trkpt lat="43.0069388" lon="12.8233642"><ele>736.75</ele><time>2026-05-01T13:56:51.934Z</time></trkpt><trkpt lat="43.0069531" lon="12.8235336"><ele>735.5</ele><time>2026-05-01T13:56:52.934Z</time></trkpt><trkpt lat="43.0069623" lon="12.8237306"><ele>734.25</ele><time>2026-05-01T13:56:53.934Z</time></trkpt><trkpt lat="43.0069817" lon="12.8239465"><ele>733.0</ele><time>2026-05-01T13:56:54.933Z</time></trkpt><trkpt lat="43.0070018" lon="12.8241844"><ele>735.0</ele><time>2026-05-01T13:56:55.934Z</time></trkpt><trkpt lat="43.0069985" lon="12.8244327"><ele>737.0</ele><time>2026-05-01T13:56:56.933Z</time></trkpt><trkpt lat="43.0069863" lon="12.8246765"><ele>739.0</ele><time>2026-05-01T13:56:57.933Z</time></trkpt><trkpt lat="43.0069541" lon="12.8249147"><ele>739.0</ele><time>2026-05-01T13:56:58.933Z</time></trkpt><trkpt lat="43.0069094" lon="12.825136"><ele>739.0</ele><time>2026-05-01T13:56:59.934Z</time></trkpt><trkpt lat="43.006855" lon="12.8253361"><ele>739.0</ele><time>2026-05-01T13:57:00.933Z</time></trkpt><trkpt lat="43.0067831" lon="12.8255161"><ele>739.3333333333334</ele><time>2026-05-01T13:57:01.933Z</time></trkpt><trkpt lat="43.0067008" lon="12.825705"><ele>739.6666666666666</ele><time>2026-05-01T13:57:02.933Z</time></trkpt><trkpt lat="43.0066059" lon="12.8258959"><ele>740.0</ele><time>2026-05-01T13:57:03.933Z</time></trkpt><trkpt lat="43.0065067" lon="12.8260755"><ele>740.0</ele><time>2026-05-01T13:57:04.934Z</time></trkpt><trkpt lat="43.0064258" lon="12.826221"><ele>740.0</ele><time>2026-05-01T13:57:05.934Z</time></trkpt><trkpt lat="43.0063554" lon="12.8263248"><ele>740.0</ele><time>2026-05-01T13:57:06.934Z</time></trkpt><trkpt lat="43.0062866" lon="12.8263782"><ele>740.0</ele><time>2026-05-01T13:57:07.933Z</time></trkpt><trkpt lat="43.0061601" lon="12.8263513"><ele>740.0</ele><time>2026-05-01T13:57:09.934Z</time></trkpt><trkpt lat="43.006111" lon="12.8262674"><ele>740.0</ele><time>2026-05-01T13:57:10.934Z</time></trkpt><trkpt lat="43.0060974" lon="12.8261423"><ele>740.0</ele><time>2026-05-01T13:57:11.934Z</time></trkpt><trkpt lat="43.0061309" lon="12.8259839"><ele>740.0</ele><time>2026-05-01T13:57:12.934Z</time></trkpt><trkpt lat="43.0061915" lon="12.8258044"><ele>740.0</ele><time>2026-05-01T13:57:13.934Z</time></trkpt><trkpt lat="43.0062629" lon="12.8255957"><ele>736.3333333333333</ele><time>2026-05-01T13:57:14.934Z</time></trkpt><trkpt lat="43.0063396" lon="12.8253756"><ele>732.6666666666666</ele><time>2026-05-01T13:57:15.934Z</time></trkpt><trkpt lat="43.0064137" lon="12.8251453"><ele>729.0</ele><time>2026-05-01T13:57:16.934Z</time></trkpt><trkpt lat="43.0064825" lon="12.8249112"><ele>725.0</ele><time>2026-05-01T13:57:17.934Z</time></trkpt><trkpt lat="43.0065247" lon="12.8246538"><ele>721.0</ele><time>2026-05-01T13:57:18.934Z</time></trkpt><trkpt lat="43.0065478" lon="12.8243865"><ele>717.0</ele><time>2026-05-01T13:57:19.933Z</time></trkpt><trkpt lat="43.0065686" lon="12.8240942"><ele>713.3333333333334</ele><time>2026-05-01T13:57:20.934Z</time></trkpt><trkpt lat="43.0065565" lon="12.8238001"><ele>709.6666666666667</ele><time>2026-05-01T13:57:21.934Z</time></trkpt><trkpt lat="43.0065188" lon="12.8235231"><ele>706.0</ele><time>2026-05-01T13:57:22.934Z</time></trkpt><trkpt lat="43.0064687" lon="12.8232498"><ele>702.3333333333334</ele><time>2026-05-01T13:57:23.934Z</time></trkpt><trkpt lat="43.0064261" lon="12.8229894"><ele>698.6666666666666</ele><time>2026-05-01T13:57:24.933Z</time></trkpt><trkpt lat="43.0063963" lon="12.8227583"><ele>695.0</ele><time>2026-05-01T13:57:25.934Z</time></trkpt><trkpt lat="43.0063783" lon="12.8225819"><ele>694.5</ele><time>2026-05-01T13:57:26.933Z</time></trkpt><trkpt lat="43.0063626" lon="12.8224398"><ele>694.0</ele><time>2026-05-01T13:57:27.934Z</time></trkpt><trkpt lat="43.0063494" lon="12.822306"><ele>693.5</ele><time>2026-05-01T13:57:28.934Z</time></trkpt><trkpt lat="43.0063272" lon="12.8221946"><ele>693.0</ele><time>2026-05-01T13:57:29.933Z</time></trkpt><trkpt lat="43.0062787" lon="12.8221089"><ele>692.5</ele><time>2026-05-01T13:57:30.934Z</time></trkpt><trkpt lat="43.0062173" lon="12.8220755"><ele>692.0</ele><time>2026-05-01T13:57:31.934Z</time></trkpt><trkpt lat="43.0061469" lon="12.8221431"><ele>692.0</ele><time>2026-05-01T13:57:32.934Z</time></trkpt><trkpt lat="43.0061142" lon="12.8222572"><ele>692.0</ele><time>2026-05-01T13:57:33.933Z</time></trkpt><trkpt lat="43.0061077" lon="12.8223823"><ele>692.0</ele><time>2026-05-01T13:57:34.934Z</time></trkpt><trkpt lat="43.0061295" lon="12.8225353"><ele>692.0</ele><time>2026-05-01T13:57:35.934Z</time></trkpt><trkpt lat="43.0061419" lon="12.8227178"><ele>692.0</ele><time>2026-05-01T13:57:36.933Z</time></trkpt><trkpt lat="43.0061453" lon="12.8229264"><ele>693.0</ele><time>2026-05-01T13:57:37.934Z</time></trkpt><trkpt lat="43.0061394" lon="12.8231434"><ele>694.0</ele><time>2026-05-01T13:57:38.934Z</time></trkpt><trkpt lat="43.006127" lon="12.823364"><ele>695.0</ele><time>2026-05-01T13:57:39.934Z</time></trkpt><trkpt lat="43.0061021" lon="12.8235628"><ele>697.2</ele><time>2026-05-01T13:57:40.934Z</time></trkpt><trkpt lat="43.0060881" lon="12.8237322"><ele>699.4</ele><time>2026-05-01T13:57:41.934Z</time></trkpt><trkpt lat="43.0060747" lon="12.823869"><ele>701.5999999999999</ele><time>2026-05-01T13:57:42.934Z</time></trkpt><trkpt lat="43.0060547" lon="12.8239639"><ele>703.8</ele><time>2026-05-01T13:57:43.934Z</time></trkpt><trkpt lat="43.0059685" lon="12.8240811"><ele>706.0</ele><time>2026-05-01T13:57:45.934Z</time></trkpt><trkpt lat="43.0058619" lon="12.8240226"><ele>706.0</ele><time>2026-05-01T13:57:47.934Z</time></trkpt><trkpt lat="43.0058392" lon="12.8238733"><ele>706.0</ele><time>2026-05-01T13:57:48.934Z</time></trkpt><trkpt lat="43.0058358" lon="12.8236979"><ele>706.0</ele><time>2026-05-01T13:57:49.934Z</time></trkpt><trkpt lat="43.0058452" lon="12.8234983"><ele>706.0</ele><time>2026-05-01T13:57:50.934Z</time></trkpt><trkpt lat="43.0058449" lon="12.8232767"><ele>702.3333333333334</ele><time>2026-05-01T13:57:51.933Z</time></trkpt><trkpt lat="43.0058459" lon="12.8230455"><ele>698.6666666666666</ele><time>2026-05-01T13:57:52.933Z</time></trkpt><trkpt lat="43.0058349" lon="12.8228278"><ele>695.0</ele><time>2026-05-01T13:57:53.933Z</time></trkpt><trkpt lat="43.0058121" lon="12.8226146"><ele>692.6666666666666</ele><time>2026-05-01T13:57:54.934Z</time></trkpt><trkpt lat="43.0057778" lon="12.8224096"><ele>690.3333333333334</ele><time>2026-05-01T13:57:55.934Z</time></trkpt><trkpt lat="43.0057248" lon="12.8222137"><ele>688.0</ele><time>2026-05-01T13:57:56.934Z</time></trkpt><trkpt lat="43.0056713" lon="12.8220178"><ele>688.0</ele><time>2026-05-01T13:57:57.934Z</time></trkpt><trkpt lat="43.0055968" lon="12.8218369"><ele>688.0</ele><time>2026-05-01T13:57:58.933Z</time></trkpt><trkpt lat="43.00551" lon="12.8216422"><ele>688.0</ele><time>2026-05-01T13:57:59.934Z</time></trkpt><trkpt lat="43.0054012" lon="12.8214506"><ele>684.3333333333334</ele><time>2026-05-01T13:58:00.934Z</time></trkpt><trkpt lat="43.0052814" lon="12.8212595"><ele>680.6666666666666</ele><time>2026-05-01T13:58:01.934Z</time></trkpt><trkpt lat="43.0051563" lon="12.8210629"><ele>677.0</ele><time>2026-05-01T13:58:02.934Z</time></trkpt><trkpt lat="43.0050223" lon="12.8208601"><ele>675.6666666666666</ele><time>2026-05-01T13:58:03.934Z</time></trkpt><trkpt lat="43.0048825" lon="12.8206514"><ele>674.3333333333334</ele><time>2026-05-01T13:58:04.934Z</time></trkpt><trkpt lat="43.0047414" lon="12.8204323"><ele>673.0</ele><time>2026-05-01T13:58:05.934Z</time></trkpt><trkpt lat="43.0045915" lon="12.8202383"><ele>668.3333333333334</ele><time>2026-05-01T13:58:06.934Z</time></trkpt><trkpt lat="43.0044507" lon="12.8200639"><ele>663.6666666666666</ele><time>2026-05-01T13:58:07.934Z</time></trkpt><trkpt lat="43.0043192" lon="12.8199128"><ele>659.0</ele><time>2026-05-01T13:58:08.934Z</time></trkpt><trkpt lat="43.0042126" lon="12.8197729"><ele>655.6666666666666</ele><time>2026-05-01T13:58:09.934Z</time></trkpt><trkpt lat="43.004108" lon="12.8196032"><ele>652.3333333333334</ele><time>2026-05-01T13:58:10.934Z</time></trkpt><trkpt lat="43.0040193" lon="12.8194016"><ele>649.0</ele><time>2026-05-01T13:58:11.934Z</time></trkpt><trkpt lat="43.0039299" lon="12.8191886"><ele>649.0</ele><time>2026-05-01T13:58:12.934Z</time></trkpt><trkpt lat="43.0038287" lon="12.8189443"><ele>649.0</ele><time>2026-05-01T13:58:13.934Z</time></trkpt><trkpt lat="43.0037198" lon="12.8187051"><ele>649.0</ele><time>2026-05-01T13:58:14.934Z</time></trkpt><trkpt lat="43.003611" lon="12.8184639"><ele>648.3333333333334</ele><time>2026-05-01T13:58:15.934Z</time></trkpt><trkpt lat="43.0034927" lon="12.818242"><ele>647.6666666666666</ele><time>2026-05-01T13:58:16.934Z</time></trkpt><trkpt lat="43.0033691" lon="12.8180155"><ele>647.0</ele><time>2026-05-01T13:58:17.934Z</time></trkpt><trkpt lat="43.0032478" lon="12.8177985"><ele>643.3333333333333</ele><time>2026-05-01T13:58:18.934Z</time></trkpt><trkpt lat="43.0031044" lon="12.817605"><ele>639.6666666666666</ele><time>2026-05-01T13:58:19.934Z</time></trkpt><trkpt lat="43.0029362" lon="12.8174642"><ele>636.0</ele><time>2026-05-01T13:58:20.934Z</time></trkpt><trkpt lat="43.0027726" lon="12.8173813"><ele>636.0</ele><time>2026-05-01T13:58:21.934Z</time></trkpt><trkpt lat="43.0026207" lon="12.8173286"><ele>636.0</ele><time>2026-05-01T13:58:22.933Z</time></trkpt><trkpt lat="43.0024944" lon="12.8172764"><ele>636.0</ele><time>2026-05-01T13:58:23.934Z</time></trkpt><trkpt lat="43.0023828" lon="12.8172308"><ele>636.0</ele><time>2026-05-01T13:58:24.934Z</time></trkpt><trkpt lat="43.0022822" lon="12.8171567"><ele>635.0</ele><time>2026-05-01T13:58:25.933Z</time></trkpt><trkpt lat="43.0021846" lon="12.8169999"><ele>634.0</ele><time>2026-05-01T13:58:26.933Z</time></trkpt><trkpt lat="43.0020983" lon="12.8168126"><ele>633.0</ele><time>2026-05-01T13:58:27.934Z</time></trkpt><trkpt lat="43.0019985" lon="12.8166147"><ele>631.0</ele><time>2026-05-01T13:58:28.934Z</time></trkpt><trkpt lat="43.0019003" lon="12.8164241"><ele>629.0</ele><time>2026-05-01T13:58:29.933Z</time></trkpt><trkpt lat="43.0018204" lon="12.8162265"><ele>627.0</ele><time>2026-05-01T13:58:30.933Z</time></trkpt><trkpt lat="43.00176" lon="12.8160338"><ele>625.5</ele><time>2026-05-01T13:58:31.934Z</time></trkpt><trkpt lat="43.0017277" lon="12.8158383"><ele>624.0</ele><time>2026-05-01T13:58:32.933Z</time></trkpt><trkpt lat="43.0017227" lon="12.8156396"><ele>622.5</ele><time>2026-05-01T13:58:33.934Z</time></trkpt><trkpt lat="43.0017436" lon="12.8154327"><ele>621.0</ele><time>2026-05-01T13:58:34.934Z</time></trkpt><trkpt lat="43.0017785" lon="12.8152159"><ele>619.0</ele><time>2026-05-01T13:58:35.934Z</time></trkpt><trkpt lat="43.0018179" lon="12.8149864"><ele>617.0</ele><time>2026-05-01T13:58:36.933Z</time></trkpt><trkpt lat="43.0018503" lon="12.81475"><ele>615.0</ele><time>2026-05-01T13:58:37.934Z</time></trkpt><trkpt lat="43.0018891" lon="12.8145011"><ele>612.0</ele><time>2026-05-01T13:58:38.934Z</time></trkpt><trkpt lat="43.0019402" lon="12.8142449"><ele>609.0</ele><time>2026-05-01T13:58:39.934Z</time></trkpt><trkpt lat="43.0019927" lon="12.8140154"><ele>606.0</ele><time>2026-05-01T13:58:40.934Z</time></trkpt><trkpt lat="43.0020621" lon="12.813788"><ele>606.0</ele><time>2026-05-01T13:58:41.933Z</time></trkpt><trkpt lat="43.0021424" lon="12.8135673"><ele>606.0</ele><time>2026-05-01T13:58:42.934Z</time></trkpt><trkpt lat="43.0022466" lon="12.8133439"><ele>606.0</ele><time>2026-05-01T13:58:43.934Z</time></trkpt><trkpt lat="43.0023667" lon="12.8131118"><ele>604.3333333333334</ele><time>2026-05-01T13:58:44.934Z</time></trkpt><trkpt lat="43.0024844" lon="12.812867"><ele>602.6666666666667</ele><time>2026-05-01T13:58:45.934Z</time></trkpt><trkpt lat="43.0025948" lon="12.8125935"><ele>601.0</ele><time>2026-05-01T13:58:46.934Z</time></trkpt><trkpt lat="43.0027033" lon="12.8123094"><ele>599.3333333333334</ele><time>2026-05-01T13:58:47.934Z</time></trkpt><trkpt lat="43.0028062" lon="12.8120381"><ele>597.6666666666666</ele><time>2026-05-01T13:58:48.934Z</time></trkpt><trkpt lat="43.0029025" lon="12.8117957"><ele>596.0</ele><time>2026-05-01T13:58:49.934Z</time></trkpt><trkpt lat="43.0030003" lon="12.8115673"><ele>594.3333333333333</ele><time>2026-05-01T13:58:50.934Z</time></trkpt><trkpt lat="43.0030848" lon="12.8113481"><ele>592.6666666666666</ele><time>2026-05-01T13:58:51.934Z</time></trkpt><trkpt lat="43.0031652" lon="12.8111299"><ele>591.0</ele><time>2026-05-01T13:58:52.934Z</time></trkpt><trkpt lat="43.0032339" lon="12.8109198"><ele>591.0</ele><time>2026-05-01T13:58:53.934Z</time></trkpt><trkpt lat="43.0032892" lon="12.8107062"><ele>591.0</ele><time>2026-05-01T13:58:54.934Z</time></trkpt><trkpt lat="43.0033337" lon="12.8105088"><ele>591.0</ele><time>2026-05-01T13:58:55.933Z</time></trkpt><trkpt lat="43.0033683" lon="12.8102976"><ele>588.6666666666666</ele><time>2026-05-01T13:58:56.934Z</time></trkpt><trkpt lat="43.0033984" lon="12.8100775"><ele>586.3333333333333</ele><time>2026-05-01T13:58:57.934Z</time></trkpt><trkpt lat="43.0034257" lon="12.8098425"><ele>584.0</ele><time>2026-05-01T13:58:58.933Z</time></trkpt><trkpt lat="43.0034574" lon="12.809604"><ele>584.0</ele><time>2026-05-01T13:58:59.934Z</time></trkpt><trkpt lat="43.0034804" lon="12.8093631"><ele>584.0</ele><time>2026-05-01T13:59:00.934Z</time></trkpt><trkpt lat="43.0034816" lon="12.8091282"><ele>584.0</ele><time>2026-05-01T13:59:01.933Z</time></trkpt><trkpt lat="43.0034797" lon="12.8088876"><ele>582.6666666666666</ele><time>2026-05-01T13:59:02.934Z</time></trkpt><trkpt lat="43.0034711" lon="12.8086374"><ele>581.3333333333334</ele><time>2026-05-01T13:59:03.934Z</time></trkpt><trkpt lat="43.0034609" lon="12.8083963"><ele>580.0</ele><time>2026-05-01T13:59:04.934Z</time></trkpt><trkpt lat="43.0034478" lon="12.8081574"><ele>577.6666666666667</ele><time>2026-05-01T13:59:05.934Z</time></trkpt><trkpt lat="43.003428" lon="12.8079315"><ele>575.3333333333334</ele><time>2026-05-01T13:59:06.934Z</time></trkpt><trkpt lat="43.0034092" lon="12.8077008"><ele>573.0</ele><time>2026-05-01T13:59:07.934Z</time></trkpt><trkpt lat="43.0033883" lon="12.8074882"><ele>571.25</ele><time>2026-05-01T13:59:08.934Z</time></trkpt><trkpt lat="43.003369" lon="12.8072951"><ele>569.5</ele><time>2026-05-01T13:59:09.934Z</time></trkpt><trkpt lat="43.0033691" lon="12.8071103"><ele>567.75</ele><time>2026-05-01T13:59:10.933Z</time></trkpt><trkpt lat="43.0033833" lon="12.8069341"><ele>566.0</ele><time>2026-05-01T13:59:11.934Z</time></trkpt><trkpt lat="43.0034292" lon="12.8067473"><ele>563.0</ele><time>2026-05-01T13:59:12.934Z</time></trkpt><trkpt lat="43.0034947" lon="12.8065486"><ele>560.0</ele><time>2026-05-01T13:59:13.934Z</time></trkpt><trkpt lat="43.0035566" lon="12.8063478"><ele>557.0</ele><time>2026-05-01T13:59:14.934Z</time></trkpt><trkpt lat="43.0036216" lon="12.8061523"><ele>553.5</ele><time>2026-05-01T13:59:15.934Z</time></trkpt><trkpt lat="43.0036824" lon="12.8059712"><ele>550.0</ele><time>2026-05-01T13:59:16.934Z</time></trkpt><trkpt lat="43.003744" lon="12.8057964"><ele>546.5</ele><time>2026-05-01T13:59:17.933Z</time></trkpt><trkpt lat="43.0038288" lon="12.8056383"><ele>543.0</ele><time>2026-05-01T13:59:18.933Z</time></trkpt><trkpt lat="43.0039351" lon="12.8054979"><ele>543.0</ele><time>2026-05-01T13:59:19.934Z</time></trkpt><trkpt lat="43.0040775" lon="12.8053644"><ele>543.0</ele><time>2026-05-01T13:59:20.933Z</time></trkpt><trkpt lat="43.0042368" lon="12.8052102"><ele>543.0</ele><time>2026-05-01T13:59:21.934Z</time></trkpt><trkpt lat="43.0043865" lon="12.8050692"><ele>541.6666666666666</ele><time>2026-05-01T13:59:22.934Z</time></trkpt><trkpt lat="43.004554" lon="12.8049103"><ele>540.3333333333333</ele><time>2026-05-01T13:59:23.934Z</time></trkpt><trkpt lat="43.004715" lon="12.8047473"><ele>539.0</ele><time>2026-05-01T13:59:24.933Z</time></trkpt><trkpt lat="43.004875" lon="12.8045803"><ele>537.3333333333333</ele><time>2026-05-01T13:59:25.934Z</time></trkpt><trkpt lat="43.0050377" lon="12.8044112"><ele>535.6666666666666</ele><time>2026-05-01T13:59:26.934Z</time></trkpt><trkpt lat="43.0051942" lon="12.8042543"><ele>534.0</ele><time>2026-05-01T13:59:27.934Z</time></trkpt><trkpt lat="43.0053537" lon="12.8041156"><ele>534.0</ele><time>2026-05-01T13:59:28.933Z</time></trkpt><trkpt lat="43.0055169" lon="12.8039758"><ele>534.0</ele><time>2026-05-01T13:59:29.934Z</time></trkpt><trkpt lat="43.005696" lon="12.8038702"><ele>534.0</ele><time>2026-05-01T13:59:30.934Z</time></trkpt><trkpt lat="43.0058797" lon="12.8037625"><ele>530.3333333333334</ele><time>2026-05-01T13:59:31.934Z</time></trkpt><trkpt lat="43.0060707" lon="12.8036676"><ele>526.6666666666667</ele><time>2026-05-01T13:59:32.933Z</time></trkpt><trkpt lat="43.0062477" lon="12.8035734"><ele>523.0</ele><time>2026-05-01T13:59:33.934Z</time></trkpt><trkpt lat="43.0064215" lon="12.8034678"><ele>523.0</ele><time>2026-05-01T13:59:34.934Z</time></trkpt><trkpt lat="43.0065787" lon="12.8033356"><ele>523.0</ele><time>2026-05-01T13:59:35.933Z</time></trkpt><trkpt lat="43.0067148" lon="12.803198"><ele>523.0</ele><time>2026-05-01T13:59:36.933Z</time></trkpt><trkpt lat="43.006847" lon="12.8030802"><ele>524.6666666666667</ele><time>2026-05-01T13:59:37.934Z</time></trkpt><trkpt lat="43.0069853" lon="12.802981"><ele>526.3333333333334</ele><time>2026-05-01T13:59:38.934Z</time></trkpt><trkpt lat="43.007135" lon="12.8029049"><ele>528.0</ele><time>2026-05-01T13:59:39.934Z</time></trkpt><trkpt lat="43.0072912" lon="12.8028598"><ele>528.0</ele><time>2026-05-01T13:59:40.933Z</time></trkpt><trkpt lat="43.0074653" lon="12.802817"><ele>528.0</ele><time>2026-05-01T13:59:41.934Z</time></trkpt><trkpt lat="43.007636" lon="12.802773"><ele>528.0</ele><time>2026-05-01T13:59:42.934Z</time></trkpt><trkpt lat="43.0077942" lon="12.8027007"><ele>522.0</ele><time>2026-05-01T13:59:43.935Z</time></trkpt><trkpt lat="43.0079399" lon="12.802611"><ele>516.0</ele><time>2026-05-01T13:59:44.934Z</time></trkpt><trkpt lat="43.0080853" lon="12.8025006"><ele>510.0</ele><time>2026-05-01T13:59:45.935Z</time></trkpt><trkpt lat="43.0082146" lon="12.8023976"><ele>510.0</ele><time>2026-05-01T13:59:46.935Z</time></trkpt><trkpt lat="43.0083382" lon="12.8023141"><ele>510.0</ele><time>2026-05-01T13:59:47.934Z</time></trkpt><trkpt lat="43.0084695" lon="12.8022753"><ele>510.0</ele><time>2026-05-01T13:59:48.935Z</time></trkpt><trkpt lat="43.0086109" lon="12.8022857"><ele>510.0</ele><time>2026-05-01T13:59:49.934Z</time></trkpt><trkpt lat="43.0087631" lon="12.8023331"><ele>510.0</ele><time>2026-05-01T13:59:50.935Z</time></trkpt><trkpt lat="43.0089219" lon="12.8023788"><ele>510.0</ele><time>2026-05-01T13:59:51.935Z</time></trkpt><trkpt lat="43.0090928" lon="12.8024259"><ele>510.0</ele><time>2026-05-01T13:59:52.934Z</time></trkpt><trkpt lat="43.0092654" lon="12.8024605"><ele>510.0</ele><time>2026-05-01T13:59:53.934Z</time></trkpt><trkpt lat="43.0094211" lon="12.8024775"><ele>510.0</ele><time>2026-05-01T13:59:54.934Z</time></trkpt><trkpt lat="43.0095539" lon="12.8024691"><ele>510.0</ele><time>2026-05-01T13:59:55.935Z</time></trkpt><trkpt lat="43.0096868" lon="12.8024438"><ele>510.0</ele><time>2026-05-01T13:59:56.935Z</time></trkpt><trkpt lat="43.0098184" lon="12.8023668"><ele>510.0</ele><time>2026-05-01T13:59:57.934Z</time></trkpt><trkpt lat="43.0099557" lon="12.8022612"><ele>510.0</ele><time>2026-05-01T13:59:58.935Z</time></trkpt><trkpt lat="43.010088" lon="12.8021577"><ele>510.0</ele><time>2026-05-01T13:59:59.935Z</time></trkpt><trkpt lat="43.0102144" lon="12.8020592"><ele>511.0</ele><time>2026-05-01T14:00:00.934Z</time></trkpt><trkpt lat="43.0103371" lon="12.8019702"><ele>512.0</ele><time>2026-05-01T14:00:01.934Z</time></trkpt><trkpt lat="43.0104627" lon="12.80188"><ele>513.0</ele><time>2026-05-01T14:00:02.935Z</time></trkpt><trkpt lat="43.0105901" lon="12.801819"><ele>514.0</ele><time>2026-05-01T14:00:03.935Z</time></trkpt><trkpt lat="43.0107344" lon="12.8017852"><ele>506.6666666666667</ele><time>2026-05-01T14:00:04.935Z</time></trkpt><trkpt lat="43.010893" lon="12.8017609"><ele>499.33333333333337</ele><time>2026-05-01T14:00:05.935Z</time></trkpt><trkpt lat="43.0110516" lon="12.8017206"><ele>492.0</ele><time>2026-05-01T14:00:06.935Z</time></trkpt><trkpt lat="43.0112221" lon="12.8016868"><ele>492.0</ele><time>2026-05-01T14:00:07.935Z</time></trkpt><trkpt lat="43.0113915" lon="12.8016523"><ele>492.0</ele><time>2026-05-01T14:00:08.935Z</time></trkpt><trkpt lat="43.011562" lon="12.8016082"><ele>492.0</ele><time>2026-05-01T14:00:09.934Z</time></trkpt><trkpt lat="43.011725" lon="12.8015635"><ele>492.66666666666663</ele><time>2026-05-01T14:00:10.934Z</time></trkpt><trkpt lat="43.011877" lon="12.8015215"><ele>493.3333333333333</ele><time>2026-05-01T14:00:11.935Z</time></trkpt><trkpt lat="43.0120282" lon="12.8015241"><ele>494.0</ele><time>2026-05-01T14:00:12.934Z</time></trkpt><trkpt lat="43.0121884" lon="12.8015477"><ele>494.0</ele><time>2026-05-01T14:00:13.935Z</time></trkpt><trkpt lat="43.0123488" lon="12.8016064"><ele>494.0</ele><time>2026-05-01T14:00:14.935Z</time></trkpt><trkpt lat="43.0125063" lon="12.8016469"><ele>494.0</ele><time>2026-05-01T14:00:15.935Z</time></trkpt><trkpt lat="43.0126625" lon="12.8016667"><ele>492.66666666666663</ele><time>2026-05-01T14:00:16.935Z</time></trkpt><trkpt lat="43.012816" lon="12.801651"><ele>491.33333333333337</ele><time>2026-05-01T14:00:17.935Z</time></trkpt><trkpt lat="43.012972" lon="12.8016057"><ele>490.0</ele><time>2026-05-01T14:00:18.934Z</time></trkpt><trkpt lat="43.0131113" lon="12.8015256"><ele>490.0</ele><time>2026-05-01T14:00:19.935Z</time></trkpt><trkpt lat="43.013235" lon="12.8014029"><ele>490.0</ele><time>2026-05-01T14:00:20.934Z</time></trkpt><trkpt lat="43.0133486" lon="12.8012354"><ele>490.0</ele><time>2026-05-01T14:00:21.934Z</time></trkpt><trkpt lat="43.013451" lon="12.8010555"><ele>485.0</ele><time>2026-05-01T14:00:22.935Z</time></trkpt><trkpt lat="43.0135583" lon="12.8008686"><ele>480.0</ele><time>2026-05-01T14:00:23.934Z</time></trkpt><trkpt lat="43.0136677" lon="12.8006885"><ele>475.0</ele><time>2026-05-01T14:00:24.935Z</time></trkpt><trkpt lat="43.0137897" lon="12.8005046"><ele>475.0</ele><time>2026-05-01T14:00:25.934Z</time></trkpt><trkpt lat="43.0139209" lon="12.8003294"><ele>475.0</ele><time>2026-05-01T14:00:26.934Z</time></trkpt><trkpt lat="43.0140549" lon="12.8001697"><ele>475.0</ele><time>2026-05-01T14:00:27.935Z</time></trkpt><trkpt lat="43.0141879" lon="12.800007"><ele>473.33333333333337</ele><time>2026-05-01T14:00:28.935Z</time></trkpt><trkpt lat="43.0143277" lon="12.7998583"><ele>471.66666666666663</ele><time>2026-05-01T14:00:29.934Z</time></trkpt><trkpt lat="43.0144815" lon="12.7997058"><ele>470.0</ele><time>2026-05-01T14:00:30.935Z</time></trkpt><trkpt lat="43.0146378" lon="12.7995613"><ele>470.0</ele><time>2026-05-01T14:00:31.935Z</time></trkpt><trkpt lat="43.0147896" lon="12.7994375"><ele>470.0</ele><time>2026-05-01T14:00:32.935Z</time></trkpt><trkpt lat="43.0149377" lon="12.7993205"><ele>470.0</ele><time>2026-05-01T14:00:33.935Z</time></trkpt><trkpt lat="43.015089" lon="12.7992086"><ele>467.3333333333333</ele><time>2026-05-01T14:00:34.934Z</time></trkpt><trkpt lat="43.015238" lon="12.7991027"><ele>464.66666666666663</ele><time>2026-05-01T14:00:35.934Z</time></trkpt><trkpt lat="43.0153761" lon="12.7990082"><ele>462.0</ele><time>2026-05-01T14:00:36.935Z</time></trkpt><trkpt lat="43.0154966" lon="12.7989133"><ele>462.0</ele><time>2026-05-01T14:00:37.935Z</time></trkpt><trkpt lat="43.0155997" lon="12.7987864"><ele>462.0</ele><time>2026-05-01T14:00:38.935Z</time></trkpt><trkpt lat="43.0156804" lon="12.7986051"><ele>462.0</ele><time>2026-05-01T14:00:39.934Z</time></trkpt><trkpt lat="43.015758" lon="12.7984086"><ele>463.0</ele><time>2026-05-01T14:00:40.935Z</time></trkpt><trkpt lat="43.0158236" lon="12.7981694"><ele>464.0</ele><time>2026-05-01T14:00:41.935Z</time></trkpt><trkpt lat="43.0158689" lon="12.7978768"><ele>465.0</ele><time>2026-05-01T14:00:42.935Z</time></trkpt><trkpt lat="43.0159264" lon="12.7975986"><ele>462.0</ele><time>2026-05-01T14:00:43.934Z</time></trkpt><trkpt lat="43.0159832" lon="12.7973261"><ele>459.0</ele><time>2026-05-01T14:00:44.935Z</time></trkpt><trkpt lat="43.016031" lon="12.7970801"><ele>456.0</ele><time>2026-05-01T14:00:45.934Z</time></trkpt><trkpt lat="43.0160676" lon="12.7968207"><ele>455.0</ele><time>2026-05-01T14:00:46.935Z</time></trkpt><trkpt lat="43.0160723" lon="12.7965583"><ele>454.0</ele><time>2026-05-01T14:00:47.934Z</time></trkpt><trkpt lat="43.0160511" lon="12.7962895"><ele>453.0</ele><time>2026-05-01T14:00:48.935Z</time></trkpt><trkpt lat="43.0160353" lon="12.7960156"><ele>451.33333333333337</ele><time>2026-05-01T14:00:49.935Z</time></trkpt><trkpt lat="43.0160135" lon="12.7957362"><ele>449.6666666666667</ele><time>2026-05-01T14:00:50.934Z</time></trkpt><trkpt lat="43.0160102" lon="12.7954662"><ele>448.0</ele><time>2026-05-01T14:00:51.934Z</time></trkpt><trkpt lat="43.0160047" lon="12.7951935"><ele>447.0</ele><time>2026-05-01T14:00:52.935Z</time></trkpt><trkpt lat="43.0160041" lon="12.7949278"><ele>446.0</ele><time>2026-05-01T14:00:53.934Z</time></trkpt><trkpt lat="43.0160013" lon="12.7946599"><ele>445.0</ele><time>2026-05-01T14:00:54.934Z</time></trkpt><trkpt lat="43.0160095" lon="12.7943968"><ele>444.6666666666667</ele><time>2026-05-01T14:00:55.935Z</time></trkpt><trkpt lat="43.0160152" lon="12.7941165"><ele>444.33333333333337</ele><time>2026-05-01T14:00:56.935Z</time></trkpt><trkpt lat="43.0160181" lon="12.7938283"><ele>444.0</ele><time>2026-05-01T14:00:57.935Z</time></trkpt><trkpt lat="43.0160235" lon="12.7935517"><ele>442.66666666666663</ele><time>2026-05-01T14:00:58.935Z</time></trkpt><trkpt lat="43.0160248" lon="12.7932706"><ele>441.3333333333333</ele><time>2026-05-01T14:00:59.935Z</time></trkpt><trkpt lat="43.0160327" lon="12.7929992"><ele>440.0</ele><time>2026-05-01T14:01:00.935Z</time></trkpt><trkpt lat="43.0160337" lon="12.7927367"><ele>439.66666666666663</ele><time>2026-05-01T14:01:01.934Z</time></trkpt><trkpt lat="43.0160152" lon="12.7924853"><ele>439.33333333333337</ele><time>2026-05-01T14:01:02.935Z</time></trkpt><trkpt lat="43.0159941" lon="12.7922403"><ele>439.0</ele><time>2026-05-01T14:01:03.934Z</time></trkpt><trkpt lat="43.0159632" lon="12.7919886"><ele>437.6666666666667</ele><time>2026-05-01T14:01:04.935Z</time></trkpt><trkpt lat="43.0159322" lon="12.791744"><ele>436.33333333333337</ele><time>2026-05-01T14:01:05.935Z</time></trkpt><trkpt lat="43.0159092" lon="12.7914844"><ele>435.0</ele><time>2026-05-01T14:01:06.934Z</time></trkpt><trkpt lat="43.015891" lon="12.7912302"><ele>433.66666666666663</ele><time>2026-05-01T14:01:07.935Z</time></trkpt><trkpt lat="43.0158737" lon="12.7909796"><ele>432.3333333333333</ele><time>2026-05-01T14:01:08.935Z</time></trkpt><trkpt lat="43.0158698" lon="12.7907204"><ele>431.0</ele><time>2026-05-01T14:01:09.935Z</time></trkpt><trkpt lat="43.0158692" lon="12.7904758"><ele>431.0</ele><time>2026-05-01T14:01:10.935Z</time></trkpt><trkpt lat="43.0158702" lon="12.7902364"><ele>431.0</ele><time>2026-05-01T14:01:11.935Z</time></trkpt><trkpt lat="43.0158808" lon="12.7900005"><ele>431.0</ele><time>2026-05-01T14:01:12.934Z</time></trkpt><trkpt lat="43.0159041" lon="12.789766"><ele>428.66666666666663</ele><time>2026-05-01T14:01:13.934Z</time></trkpt><trkpt lat="43.0159655" lon="12.7895206"><ele>426.33333333333337</ele><time>2026-05-01T14:01:14.935Z</time></trkpt><trkpt lat="43.0160435" lon="12.7892711"><ele>424.0</ele><time>2026-05-01T14:01:15.935Z</time></trkpt><trkpt lat="43.0161104" lon="12.7889998"><ele>421.0</ele><time>2026-05-01T14:01:16.935Z</time></trkpt><trkpt lat="43.0161748" lon="12.7887399"><ele>418.0</ele><time>2026-05-01T14:01:17.934Z</time></trkpt><trkpt lat="43.0162277" lon="12.7884918"><ele>415.0</ele><time>2026-05-01T14:01:18.935Z</time></trkpt><trkpt lat="43.0162874" lon="12.7882516"><ele>414.33333333333337</ele><time>2026-05-01T14:01:19.935Z</time></trkpt><trkpt lat="43.0163435" lon="12.7880227"><ele>413.66666666666663</ele><time>2026-05-01T14:01:20.935Z</time></trkpt><trkpt lat="43.0163952" lon="12.7878065"><ele>413.0</ele><time>2026-05-01T14:01:21.935Z</time></trkpt><trkpt lat="43.0164417" lon="12.7875925"><ele>413.0</ele><time>2026-05-01T14:01:22.935Z</time></trkpt><trkpt lat="43.0164843" lon="12.7873778"><ele>413.0</ele><time>2026-05-01T14:01:23.935Z</time></trkpt><trkpt lat="43.0165303" lon="12.7871662"><ele>413.0</ele><time>2026-05-01T14:01:24.935Z</time></trkpt><trkpt lat="43.0165784" lon="12.7869614"><ele>411.75</ele><time>2026-05-01T14:01:25.935Z</time></trkpt><trkpt lat="43.0166226" lon="12.7867727"><ele>410.5</ele><time>2026-05-01T14:01:26.935Z</time></trkpt><trkpt lat="43.0166737" lon="12.7865895"><ele>409.25</ele><time>2026-05-01T14:01:27.934Z</time></trkpt><trkpt lat="43.0167203" lon="12.78642"><ele>408.0</ele><time>2026-05-01T14:01:28.935Z</time></trkpt><trkpt lat="43.0167783" lon="12.78626"><ele>407.5</ele><time>2026-05-01T14:01:29.935Z</time></trkpt><trkpt lat="43.0168475" lon="12.7861226"><ele>407.0</ele><time>2026-05-01T14:01:30.934Z</time></trkpt><trkpt lat="43.0169408" lon="12.7859822"><ele>406.5</ele><time>2026-05-01T14:01:31.935Z</time></trkpt><trkpt lat="43.017046" lon="12.7858454"><ele>406.0</ele><time>2026-05-01T14:01:32.935Z</time></trkpt><trkpt lat="43.0171557" lon="12.785702"><ele>404.25</ele><time>2026-05-01T14:01:33.935Z</time></trkpt><trkpt lat="43.0172622" lon="12.7855696"><ele>402.5</ele><time>2026-05-01T14:01:34.935Z</time></trkpt><trkpt lat="43.0173637" lon="12.785434"><ele>400.75</ele><time>2026-05-01T14:01:35.935Z</time></trkpt><trkpt lat="43.0174592" lon="12.7853127"><ele>399.0</ele><time>2026-05-01T14:01:36.935Z</time></trkpt><trkpt lat="43.0175408" lon="12.7852031"><ele>398.0</ele><time>2026-05-01T14:01:37.935Z</time></trkpt><trkpt lat="43.017617" lon="12.7850977"><ele>397.0</ele><time>2026-05-01T14:01:38.935Z</time></trkpt><trkpt lat="43.0176837" lon="12.7850052"><ele>396.0</ele><time>2026-05-01T14:01:39.935Z</time></trkpt><trkpt lat="43.0177335" lon="12.7849274"><ele>395.0</ele><time>2026-05-01T14:01:40.934Z</time></trkpt><trkpt lat="43.0178006" lon="12.7847889"><ele>394.0</ele><time>2026-05-01T14:01:42.935Z</time></trkpt><trkpt lat="43.017816" lon="12.7847033"><ele>394.00000000000006</ele><time>2026-05-01T14:01:43.935Z</time></trkpt><trkpt lat="43.0178153" lon="12.7845986"><ele>394.0</ele><time>2026-05-01T14:01:44.935Z</time></trkpt><trkpt lat="43.0178038" lon="12.7844794"><ele>394.0</ele><time>2026-05-01T14:01:45.935Z</time></trkpt><trkpt lat="43.0177876" lon="12.7843562"><ele>394.0</ele><time>2026-05-01T14:01:46.934Z</time></trkpt><trkpt lat="43.0177752" lon="12.7842283"><ele>394.00000000000006</ele><time>2026-05-01T14:01:47.935Z</time></trkpt><trkpt lat="43.0177581" lon="12.7841106"><ele>394.0</ele><time>2026-05-01T14:01:48.935Z</time></trkpt><trkpt lat="43.0177447" lon="12.7840128"><ele>393.4</ele><time>2026-05-01T14:01:49.935Z</time></trkpt><trkpt lat="43.0177228" lon="12.7838605"><ele>392.79999999999995</ele><time>2026-05-01T14:01:51.935Z</time></trkpt><trkpt lat="43.0177663" lon="12.783704"><ele>392.20000000000005</ele><time>2026-05-01T14:01:53.935Z</time></trkpt><trkpt lat="43.0178054" lon="12.7836177"><ele>391.6</ele><time>2026-05-01T14:01:54.934Z</time></trkpt><trkpt lat="43.0178398" lon="12.7835221"><ele>391.0</ele><time>2026-05-01T14:01:55.935Z</time></trkpt><trkpt lat="43.0178612" lon="12.7834171"><ele>390.1666666666667</ele><time>2026-05-01T14:01:56.935Z</time></trkpt><trkpt lat="43.0178734" lon="12.7832955"><ele>389.33333333333337</ele><time>2026-05-01T14:01:57.935Z</time></trkpt><trkpt lat="43.0178763" lon="12.7831689"><ele>388.5</ele><time>2026-05-01T14:01:58.935Z</time></trkpt><trkpt lat="43.0178731" lon="12.7830467"><ele>387.66666666666663</ele><time>2026-05-01T14:01:59.934Z</time></trkpt><trkpt lat="43.0178537" lon="12.7829322"><ele>386.8333333333333</ele><time>2026-05-01T14:02:00.935Z</time></trkpt><trkpt lat="43.0178384" lon="12.7828113"><ele>386.0</ele><time>2026-05-01T14:02:01.935Z</time></trkpt><trkpt lat="43.0178158" lon="12.7827045"><ele>385.66666666666663</ele><time>2026-05-01T14:02:02.934Z</time></trkpt><trkpt lat="43.0177917" lon="12.7825981"><ele>385.3333333333333</ele><time>2026-05-01T14:02:03.935Z</time></trkpt><trkpt lat="43.017766" lon="12.7824976"><ele>385.0</ele><time>2026-05-01T14:02:04.935Z</time></trkpt><trkpt lat="43.0177258" lon="12.7824085"><ele>384.66666666666663</ele><time>2026-05-01T14:02:05.934Z</time></trkpt><trkpt lat="43.0176809" lon="12.7823249"><ele>384.3333333333333</ele><time>2026-05-01T14:02:06.935Z</time></trkpt><trkpt lat="43.0176341" lon="12.7822335"><ele>384.0</ele><time>2026-05-01T14:02:07.934Z</time></trkpt><trkpt lat="43.0176017" lon="12.7821355"><ele>383.99999999999994</ele><time>2026-05-01T14:02:08.935Z</time></trkpt><trkpt lat="43.0175727" lon="12.782041"><ele>384.0</ele><time>2026-05-01T14:02:09.935Z</time></trkpt><trkpt lat="43.0175486" lon="12.7819481"><ele>384.0</ele><time>2026-05-01T14:02:10.934Z</time></trkpt><trkpt lat="43.0175341" lon="12.7818577"><ele>384.0</ele><time>2026-05-01T14:02:11.935Z</time></trkpt><trkpt lat="43.0175314" lon="12.7817579"><ele>384.0</ele><time>2026-05-01T14:02:12.935Z</time></trkpt><trkpt lat="43.0175268" lon="12.781666"><ele>383.99999999999994</ele><time>2026-05-01T14:02:13.935Z</time></trkpt><trkpt lat="43.0175307" lon="12.7815675"><ele>384.0</ele><time>2026-05-01T14:02:14.935Z</time></trkpt><trkpt lat="43.017545" lon="12.7814668"><ele>384.0</ele><time>2026-05-01T14:02:15.934Z</time></trkpt><trkpt lat="43.0175603" lon="12.7813651"><ele>384.0</ele><time>2026-05-01T14:02:16.935Z</time></trkpt><trkpt lat="43.0175812" lon="12.7812553"><ele>384.0</ele><time>2026-05-01T14:02:17.934Z</time></trkpt><trkpt lat="43.0176009" lon="12.7811398"><ele>384.0</ele><time>2026-05-01T14:02:18.935Z</time></trkpt><trkpt lat="43.0176394" lon="12.7810176"><ele>384.0</ele><time>2026-05-01T14:02:19.934Z</time></trkpt><trkpt lat="43.0176726" lon="12.7808899"><ele>384.0</ele><time>2026-05-01T14:02:20.935Z</time></trkpt><trkpt lat="43.0177045" lon="12.7807612"><ele>384.0</ele><time>2026-05-01T14:02:21.935Z</time></trkpt><trkpt lat="43.0177321" lon="12.7806282"><ele>384.0</ele><time>2026-05-01T14:02:22.935Z</time></trkpt><trkpt lat="43.017762" lon="12.7805042"><ele>384.0</ele><time>2026-05-01T14:02:23.935Z</time></trkpt><trkpt lat="43.0177884" lon="12.7803716"><ele>384.0</ele><time>2026-05-01T14:02:24.935Z</time></trkpt><trkpt lat="43.0178241" lon="12.7802449"><ele>384.0</ele><time>2026-05-01T14:02:25.935Z</time></trkpt><trkpt lat="43.0178625" lon="12.7801189"><ele>382.75</ele><time>2026-05-01T14:02:26.935Z</time></trkpt><trkpt lat="43.0179228" lon="12.7800029"><ele>381.5</ele><time>2026-05-01T14:02:27.934Z</time></trkpt><trkpt lat="43.0179877" lon="12.7798822"><ele>380.25</ele><time>2026-05-01T14:02:28.934Z</time></trkpt><trkpt lat="43.0180723" lon="12.779769"><ele>379.0</ele><time>2026-05-01T14:02:29.935Z</time></trkpt><trkpt lat="43.0181571" lon="12.7796515"><ele>379.0</ele><time>2026-05-01T14:02:30.935Z</time></trkpt><trkpt lat="43.0182386" lon="12.7795283"><ele>379.0</ele><time>2026-05-01T14:02:31.935Z</time></trkpt><trkpt lat="43.0183167" lon="12.7794088"><ele>379.0</ele><time>2026-05-01T14:02:32.934Z</time></trkpt><trkpt lat="43.0183948" lon="12.7792956"><ele>379.0</ele><time>2026-05-01T14:02:33.935Z</time></trkpt><trkpt lat="43.0184709" lon="12.7791891"><ele>378.79999999999995</ele><time>2026-05-01T14:02:34.935Z</time></trkpt><trkpt lat="43.0185363" lon="12.7790887"><ele>378.59999999999997</ele><time>2026-05-01T14:02:35.935Z</time></trkpt><trkpt lat="43.0186" lon="12.7789856"><ele>378.4</ele><time>2026-05-01T14:02:36.935Z</time></trkpt><trkpt lat="43.0186597" lon="12.7788992"><ele>378.2</ele><time>2026-05-01T14:02:37.935Z</time></trkpt><trkpt lat="43.0187223" lon="12.7788297"><ele>378.0</ele><time>2026-05-01T14:02:38.934Z</time></trkpt><trkpt lat="43.0187939" lon="12.7787658"><ele>378.0</ele><time>2026-05-01T14:02:39.935Z</time></trkpt><trkpt lat="43.0188741" lon="12.7787197"><ele>378.0</ele><time>2026-05-01T14:02:40.935Z</time></trkpt><trkpt lat="43.0189582" lon="12.7786685"><ele>378.0</ele><time>2026-05-01T14:02:41.935Z</time></trkpt><trkpt lat="43.0190387" lon="12.7786215"><ele>378.0</ele><time>2026-05-01T14:02:42.935Z</time></trkpt><trkpt lat="43.0191274" lon="12.7785598"><ele>378.0</ele><time>2026-05-01T14:02:43.935Z</time></trkpt><trkpt lat="43.0192016" lon="12.7784806"><ele>377.0</ele><time>2026-05-01T14:02:44.935Z</time></trkpt><trkpt lat="43.0192844" lon="12.7783659"><ele>376.0</ele><time>2026-05-01T14:02:45.935Z</time></trkpt><trkpt lat="43.0193708" lon="12.7782689"><ele>375.0</ele><time>2026-05-01T14:02:46.935Z</time></trkpt><trkpt lat="43.0194718" lon="12.7781752"><ele>374.0</ele><time>2026-05-01T14:02:47.935Z</time></trkpt><trkpt lat="43.0195779" lon="12.7780714"><ele>374.0</ele><time>2026-05-01T14:02:48.935Z</time></trkpt><trkpt lat="43.0196843" lon="12.7779697"><ele>374.0</ele><time>2026-05-01T14:02:49.935Z</time></trkpt><trkpt lat="43.0197965" lon="12.7778757"><ele>374.0</ele><time>2026-05-01T14:02:50.935Z</time></trkpt><trkpt lat="43.0198984" lon="12.777795"><ele>374.0</ele><time>2026-05-01T14:02:51.935Z</time></trkpt><trkpt lat="43.0200001" lon="12.777715"><ele>373.0</ele><time>2026-05-01T14:02:52.935Z</time></trkpt><trkpt lat="43.0201115" lon="12.7776216"><ele>372.0</ele><time>2026-05-01T14:02:53.935Z</time></trkpt><trkpt lat="43.0202237" lon="12.7775268"><ele>371.0</ele><time>2026-05-01T14:02:54.934Z</time></trkpt><trkpt lat="43.0203391" lon="12.7774364"><ele>370.0</ele><time>2026-05-01T14:02:55.935Z</time></trkpt><trkpt lat="43.0204544" lon="12.7773576"><ele>370.0</ele><time>2026-05-01T14:02:56.935Z</time></trkpt><trkpt lat="43.0205684" lon="12.7772651"><ele>370.0</ele><time>2026-05-01T14:02:57.934Z</time></trkpt><trkpt lat="43.0206792" lon="12.7771756"><ele>370.0</ele><time>2026-05-01T14:02:58.935Z</time></trkpt><trkpt lat="43.0207955" lon="12.7770849"><ele>370.0</ele><time>2026-05-01T14:02:59.935Z</time></trkpt><trkpt lat="43.0209085" lon="12.7769919"><ele>371.0</ele><time>2026-05-01T14:03:00.935Z</time></trkpt><trkpt lat="43.0210202" lon="12.7768948"><ele>372.0</ele><time>2026-05-01T14:03:01.935Z</time></trkpt><trkpt lat="43.0211309" lon="12.7768019"><ele>373.0</ele><time>2026-05-01T14:03:02.935Z</time></trkpt><trkpt lat="43.0212413" lon="12.7767114"><ele>374.0</ele><time>2026-05-01T14:03:03.935Z</time></trkpt><trkpt lat="43.0213532" lon="12.7766171"><ele>372.75</ele><time>2026-05-01T14:03:04.935Z</time></trkpt><trkpt lat="43.0214624" lon="12.7765225"><ele>371.5</ele><time>2026-05-01T14:03:05.935Z</time></trkpt><trkpt lat="43.0215701" lon="12.7764408"><ele>370.25</ele><time>2026-05-01T14:03:06.934Z</time></trkpt><trkpt lat="43.0216758" lon="12.776361"><ele>369.0</ele><time>2026-05-01T14:03:07.935Z</time></trkpt><trkpt lat="43.0217755" lon="12.7762828"><ele>369.0</ele><time>2026-05-01T14:03:08.935Z</time></trkpt><trkpt lat="43.0218708" lon="12.7762095"><ele>369.0</ele><time>2026-05-01T14:03:09.935Z</time></trkpt><trkpt lat="43.0219648" lon="12.7761356"><ele>369.0</ele><time>2026-05-01T14:03:10.934Z</time></trkpt><trkpt lat="43.0220618" lon="12.7760608"><ele>369.0</ele><time>2026-05-01T14:03:11.935Z</time></trkpt><trkpt lat="43.0221601" lon="12.7759836"><ele>369.0</ele><time>2026-05-01T14:03:12.935Z</time></trkpt><trkpt lat="43.022255" lon="12.7759023"><ele>368.0</ele><time>2026-05-01T14:03:13.935Z</time></trkpt><trkpt lat="43.0223503" lon="12.7758092"><ele>367.0</ele><time>2026-05-01T14:03:14.935Z</time></trkpt><trkpt lat="43.0224396" lon="12.775706"><ele>366.0</ele><time>2026-05-01T14:03:15.935Z</time></trkpt><trkpt lat="43.0225295" lon="12.7756084"><ele>365.0</ele><time>2026-05-01T14:03:16.935Z</time></trkpt><trkpt lat="43.0226214" lon="12.7755064"><ele>365.0</ele><time>2026-05-01T14:03:17.935Z</time></trkpt><trkpt lat="43.0227062" lon="12.7754128"><ele>365.0</ele><time>2026-05-01T14:03:18.935Z</time></trkpt><trkpt lat="43.022791" lon="12.7753123"><ele>365.0</ele><time>2026-05-01T14:03:19.935Z</time></trkpt><trkpt lat="43.0228713" lon="12.7752115"><ele>365.0</ele><time>2026-05-01T14:03:20.935Z</time></trkpt><trkpt lat="43.0229515" lon="12.7751053"><ele>365.0</ele><time>2026-05-01T14:03:21.935Z</time></trkpt><trkpt lat="43.0230354" lon="12.7749984"><ele>365.5</ele><time>2026-05-01T14:03:22.935Z</time></trkpt><trkpt lat="43.0231193" lon="12.774889"><ele>366.0</ele><time>2026-05-01T14:03:23.935Z</time></trkpt><trkpt lat="43.0232117" lon="12.7747696"><ele>366.5</ele><time>2026-05-01T14:03:24.934Z</time></trkpt><trkpt lat="43.0233103" lon="12.7746404"><ele>367.0</ele><time>2026-05-01T14:03:25.935Z</time></trkpt><trkpt lat="43.0234129" lon="12.7745042"><ele>367.0</ele><time>2026-05-01T14:03:26.935Z</time></trkpt><trkpt lat="43.0235277" lon="12.7743565"><ele>367.0</ele><time>2026-05-01T14:03:27.935Z</time></trkpt><trkpt lat="43.0236568" lon="12.7742001"><ele>367.0</ele><time>2026-05-01T14:03:28.935Z</time></trkpt><trkpt lat="43.0237888" lon="12.774043"><ele>367.0</ele><time>2026-05-01T14:03:29.934Z</time></trkpt><trkpt lat="43.023915" lon="12.7738858"><ele>367.0</ele><time>2026-05-01T14:03:30.934Z</time></trkpt><trkpt lat="43.0240406" lon="12.7737292"><ele>367.0</ele><time>2026-05-01T14:03:31.934Z</time></trkpt><trkpt lat="43.0241605" lon="12.773566"><ele>364.3333333333333</ele><time>2026-05-01T14:03:32.934Z</time></trkpt><trkpt lat="43.024268" lon="12.7733965"><ele>361.6666666666667</ele><time>2026-05-01T14:03:33.935Z</time></trkpt><trkpt lat="43.0243732" lon="12.7732136"><ele>359.0</ele><time>2026-05-01T14:03:34.935Z</time></trkpt><trkpt lat="43.0244724" lon="12.7730253"><ele>359.0</ele><time>2026-05-01T14:03:35.935Z</time></trkpt><trkpt lat="43.0245719" lon="12.7728427"><ele>359.0</ele><time>2026-05-01T14:03:36.934Z</time></trkpt><trkpt lat="43.024673" lon="12.7726626"><ele>359.0</ele><time>2026-05-01T14:03:37.934Z</time></trkpt><trkpt lat="43.0247722" lon="12.7724681"><ele>356.6666666666667</ele><time>2026-05-01T14:03:38.935Z</time></trkpt><trkpt lat="43.0248767" lon="12.772269"><ele>354.3333333333333</ele><time>2026-05-01T14:03:39.934Z</time></trkpt><trkpt lat="43.0249932" lon="12.7720634"><ele>352.0</ele><time>2026-05-01T14:03:40.935Z</time></trkpt><trkpt lat="43.0250968" lon="12.7718602"><ele>351.0</ele><time>2026-05-01T14:03:41.935Z</time></trkpt><trkpt lat="43.0252008" lon="12.7716531"><ele>350.0</ele><time>2026-05-01T14:03:42.934Z</time></trkpt><trkpt lat="43.025313" lon="12.7714434"><ele>349.0</ele><time>2026-05-01T14:03:43.935Z</time></trkpt><trkpt lat="43.0254199" lon="12.7712408"><ele>349.0</ele><time>2026-05-01T14:03:44.935Z</time></trkpt><trkpt lat="43.0255346" lon="12.7710433"><ele>349.0</ele><time>2026-05-01T14:03:45.934Z</time></trkpt><trkpt lat="43.0256514" lon="12.7708686"><ele>349.0</ele><time>2026-05-01T14:03:46.935Z</time></trkpt><trkpt lat="43.0257757" lon="12.7707181"><ele>349.0</ele><time>2026-05-01T14:03:47.935Z</time></trkpt><trkpt lat="43.0259128" lon="12.7705716"><ele>349.0</ele><time>2026-05-01T14:03:48.935Z</time></trkpt><trkpt lat="43.0260588" lon="12.7704391"><ele>349.0</ele><time>2026-05-01T14:03:49.935Z</time></trkpt><trkpt lat="43.0262123" lon="12.7703135"><ele>347.66666666666663</ele><time>2026-05-01T14:03:50.935Z</time></trkpt><trkpt lat="43.0263708" lon="12.7701697"><ele>346.3333333333333</ele><time>2026-05-01T14:03:51.935Z</time></trkpt><trkpt lat="43.0265283" lon="12.7700234"><ele>345.0</ele><time>2026-05-01T14:03:52.935Z</time></trkpt><trkpt lat="43.0266755" lon="12.7699007"><ele>345.0</ele><time>2026-05-01T14:03:53.934Z</time></trkpt><trkpt lat="43.0268296" lon="12.769781"><ele>345.0</ele><time>2026-05-01T14:03:54.934Z</time></trkpt><trkpt lat="43.0269882" lon="12.7696768"><ele>345.0</ele><time>2026-05-01T14:03:55.935Z</time></trkpt><trkpt lat="43.0271453" lon="12.7695753"><ele>345.0</ele><time>2026-05-01T14:03:56.935Z</time></trkpt><trkpt lat="43.0273003" lon="12.7694673"><ele>345.0</ele><time>2026-05-01T14:03:57.934Z</time></trkpt><trkpt lat="43.0274523" lon="12.769366"><ele>345.0</ele><time>2026-05-01T14:03:58.935Z</time></trkpt><trkpt lat="43.027621" lon="12.7692585"><ele>343.3333333333333</ele><time>2026-05-01T14:03:59.935Z</time></trkpt><trkpt lat="43.0277865" lon="12.7691618"><ele>341.66666666666663</ele><time>2026-05-01T14:04:00.934Z</time></trkpt><trkpt lat="43.027943" lon="12.7690649"><ele>340.0</ele><time>2026-05-01T14:04:01.934Z</time></trkpt><trkpt lat="43.0280901" lon="12.7689806"><ele>340.0</ele><time>2026-05-01T14:04:02.935Z</time></trkpt><trkpt lat="43.0282261" lon="12.7688908"><ele>340.0</ele><time>2026-05-01T14:04:03.935Z</time></trkpt><trkpt lat="43.0283579" lon="12.768808"><ele>340.0</ele><time>2026-05-01T14:04:04.935Z</time></trkpt><trkpt lat="43.0284848" lon="12.7687277"><ele>340.0</ele><time>2026-05-01T14:04:05.934Z</time></trkpt><trkpt lat="43.0285998" lon="12.7686499"><ele>339.8</ele><time>2026-05-01T14:04:06.935Z</time></trkpt><trkpt lat="43.0287037" lon="12.7685815"><ele>339.6</ele><time>2026-05-01T14:04:07.935Z</time></trkpt><trkpt lat="43.0288002" lon="12.7685219"><ele>339.4</ele><time>2026-05-01T14:04:08.935Z</time></trkpt><trkpt lat="43.0288871" lon="12.7684614"><ele>339.2</ele><time>2026-05-01T14:04:09.935Z</time></trkpt><trkpt lat="43.0289575" lon="12.7683813"><ele>339.0</ele><time>2026-05-01T14:04:10.935Z</time></trkpt><trkpt lat="43.0290101" lon="12.7682655"><ele>339.0</ele><time>2026-05-01T14:04:11.934Z</time></trkpt><trkpt lat="43.0290456" lon="12.7681196"><ele>339.0</ele><time>2026-05-01T14:04:12.934Z</time></trkpt><trkpt lat="43.0290641" lon="12.767955"><ele>339.0</ele><time>2026-05-01T14:04:13.934Z</time></trkpt><trkpt lat="43.0290697" lon="12.7677772"><ele>339.0</ele><time>2026-05-01T14:04:14.935Z</time></trkpt><trkpt lat="43.0290806" lon="12.7675888"><ele>338.25</ele><time>2026-05-01T14:04:15.934Z</time></trkpt><trkpt lat="43.0290954" lon="12.7673895"><ele>337.5</ele><time>2026-05-01T14:04:16.935Z</time></trkpt><trkpt lat="43.0291089" lon="12.7671935"><ele>336.75</ele><time>2026-05-01T14:04:17.934Z</time></trkpt><trkpt lat="43.0291248" lon="12.7669941"><ele>336.0</ele><time>2026-05-01T14:04:18.935Z</time></trkpt><trkpt lat="43.0291422" lon="12.7667859"><ele>337.6666666666667</ele><time>2026-05-01T14:04:19.935Z</time></trkpt><trkpt lat="43.0291685" lon="12.7665667"><ele>339.33333333333337</ele><time>2026-05-01T14:04:20.935Z</time></trkpt><trkpt lat="43.0291905" lon="12.7663393"><ele>341.0</ele><time>2026-05-01T14:04:21.935Z</time></trkpt><trkpt lat="43.0292115" lon="12.7661048"><ele>340.0</ele><time>2026-05-01T14:04:22.934Z</time></trkpt><trkpt lat="43.0292361" lon="12.7658631"><ele>339.0</ele><time>2026-05-01T14:04:23.934Z</time></trkpt><trkpt lat="43.0292649" lon="12.7656115"><ele>338.0</ele><time>2026-05-01T14:04:24.935Z</time></trkpt><trkpt lat="43.029289" lon="12.7653539"><ele>336.6666666666667</ele><time>2026-05-01T14:04:25.935Z</time></trkpt><trkpt lat="43.0293114" lon="12.7650924"><ele>335.3333333333333</ele><time>2026-05-01T14:04:26.935Z</time></trkpt><trkpt lat="43.0293302" lon="12.7648253"><ele>334.0</ele><time>2026-05-01T14:04:27.935Z</time></trkpt><trkpt lat="43.0293494" lon="12.7645625"><ele>333.66666666666663</ele><time>2026-05-01T14:04:28.935Z</time></trkpt><trkpt lat="43.029367" lon="12.7643034"><ele>333.3333333333333</ele><time>2026-05-01T14:04:29.935Z</time></trkpt><trkpt lat="43.0293898" lon="12.7640509"><ele>333.0</ele><time>2026-05-01T14:04:30.935Z</time></trkpt><trkpt lat="43.0294128" lon="12.7638086"><ele>333.0</ele><time>2026-05-01T14:04:31.935Z</time></trkpt><trkpt lat="43.0294367" lon="12.7635808"><ele>333.0</ele><time>2026-05-01T14:04:32.934Z</time></trkpt><trkpt lat="43.0294552" lon="12.7633756"><ele>333.0</ele><time>2026-05-01T14:04:33.935Z</time></trkpt><trkpt lat="43.0294702" lon="12.7631969"><ele>332.25</ele><time>2026-05-01T14:04:34.935Z</time></trkpt><trkpt lat="43.0294731" lon="12.763034"><ele>331.5</ele><time>2026-05-01T14:04:35.934Z</time></trkpt><trkpt lat="43.0294546" lon="12.7628862"><ele>330.75</ele><time>2026-05-01T14:04:36.934Z</time></trkpt><trkpt lat="43.029412" lon="12.7627469"><ele>330.0</ele><time>2026-05-01T14:04:37.934Z</time></trkpt><trkpt lat="43.0293492" lon="12.7626012"><ele>329.75</ele><time>2026-05-01T14:04:38.935Z</time></trkpt><trkpt lat="43.0292642" lon="12.762452"><ele>329.5</ele><time>2026-05-01T14:04:39.934Z</time></trkpt><trkpt lat="43.0291591" lon="12.7623133"><ele>329.25</ele><time>2026-05-01T14:04:40.935Z</time></trkpt><trkpt lat="43.0290445" lon="12.7621624"><ele>329.0</ele><time>2026-05-01T14:04:41.935Z</time></trkpt><trkpt lat="43.0289076" lon="12.7620064"><ele>329.0</ele><time>2026-05-01T14:04:42.935Z</time></trkpt><trkpt lat="43.0287685" lon="12.7618523"><ele>329.0</ele><time>2026-05-01T14:04:43.935Z</time></trkpt><trkpt lat="43.0286311" lon="12.7616943"><ele>329.0</ele><time>2026-05-01T14:04:44.935Z</time></trkpt><trkpt lat="43.0285041" lon="12.7615467"><ele>329.0</ele><time>2026-05-01T14:04:45.935Z</time></trkpt><trkpt lat="43.0283872" lon="12.7613995"><ele>329.0</ele><time>2026-05-01T14:04:46.935Z</time></trkpt><trkpt lat="43.0282815" lon="12.7612737"><ele>329.0</ele><time>2026-05-01T14:04:47.935Z</time></trkpt><trkpt lat="43.0281828" lon="12.7611502"><ele>329.0</ele><time>2026-05-01T14:04:48.935Z</time></trkpt><trkpt lat="43.0280856" lon="12.7610426"><ele>330.5</ele><time>2026-05-01T14:04:49.935Z</time></trkpt><trkpt lat="43.0280018" lon="12.7609333"><ele>332.0</ele><time>2026-05-01T14:04:50.934Z</time></trkpt><trkpt lat="43.0279229" lon="12.7608161"><ele>333.5</ele><time>2026-05-01T14:04:51.935Z</time></trkpt><trkpt lat="43.0278477" lon="12.7606959"><ele>335.0</ele><time>2026-05-01T14:04:52.934Z</time></trkpt><trkpt lat="43.0277901" lon="12.7605474"><ele>335.0</ele><time>2026-05-01T14:04:53.935Z</time></trkpt><trkpt lat="43.0277445" lon="12.7603651"><ele>335.0</ele><time>2026-05-01T14:04:54.935Z</time></trkpt><trkpt lat="43.027723" lon="12.7601514"><ele>335.0</ele><time>2026-05-01T14:04:55.935Z</time></trkpt><trkpt lat="43.0277064" lon="12.7599171"><ele>333.6666666666667</ele><time>2026-05-01T14:04:56.935Z</time></trkpt><trkpt lat="43.0276878" lon="12.759666"><ele>332.3333333333333</ele><time>2026-05-01T14:04:57.935Z</time></trkpt><trkpt lat="43.0276724" lon="12.7594051"><ele>331.0</ele><time>2026-05-01T14:04:58.934Z</time></trkpt><trkpt lat="43.0276604" lon="12.7591422"><ele>331.0</ele><time>2026-05-01T14:04:59.934Z</time></trkpt><trkpt lat="43.0276479" lon="12.7588934"><ele>331.0</ele><time>2026-05-01T14:05:00.935Z</time></trkpt><trkpt lat="43.0276355" lon="12.7586625"><ele>331.0</ele><time>2026-05-01T14:05:01.935Z</time></trkpt><trkpt lat="43.0276277" lon="12.7584454"><ele>330.5</ele><time>2026-05-01T14:05:02.934Z</time></trkpt><trkpt lat="43.0276107" lon="12.7582475"><ele>330.0</ele><time>2026-05-01T14:05:03.935Z</time></trkpt><trkpt lat="43.0275951" lon="12.7580662"><ele>329.5</ele><time>2026-05-01T14:05:04.935Z</time></trkpt><trkpt lat="43.0275898" lon="12.7578956"><ele>329.0</ele><time>2026-05-01T14:05:05.935Z</time></trkpt><trkpt lat="43.0275865" lon="12.7577221"><ele>328.0</ele><time>2026-05-01T14:05:06.934Z</time></trkpt><trkpt lat="43.0275791" lon="12.7575558"><ele>327.0</ele><time>2026-05-01T14:05:07.935Z</time></trkpt><trkpt lat="43.0275752" lon="12.7573838"><ele>326.0</ele><time>2026-05-01T14:05:08.935Z</time></trkpt><trkpt lat="43.0275674" lon="12.7572051"><ele>325.0</ele><time>2026-05-01T14:05:09.934Z</time></trkpt><trkpt lat="43.0275628" lon="12.7570167"><ele>325.25</ele><time>2026-05-01T14:05:10.935Z</time></trkpt><trkpt lat="43.0275607" lon="12.7568227"><ele>325.5</ele><time>2026-05-01T14:05:11.934Z</time></trkpt><trkpt lat="43.0275545" lon="12.7566243"><ele>325.75</ele><time>2026-05-01T14:05:12.935Z</time></trkpt><trkpt lat="43.0275347" lon="12.7564299"><ele>326.0</ele><time>2026-05-01T14:05:13.935Z</time></trkpt><trkpt lat="43.0274968" lon="12.7562325"><ele>331.6666666666667</ele><time>2026-05-01T14:05:14.935Z</time></trkpt><trkpt lat="43.0274356" lon="12.7560314"><ele>337.3333333333333</ele><time>2026-05-01T14:05:15.935Z</time></trkpt><trkpt lat="43.0273742" lon="12.7558229"><ele>343.0</ele><time>2026-05-01T14:05:16.935Z</time></trkpt><trkpt lat="43.027305" lon="12.7556325"><ele>343.0</ele><time>2026-05-01T14:05:17.935Z</time></trkpt><trkpt lat="43.0272298" lon="12.7554373"><ele>343.0</ele><time>2026-05-01T14:05:18.935Z</time></trkpt><trkpt lat="43.0271415" lon="12.7552511"><ele>343.0</ele><time>2026-05-01T14:05:19.935Z</time></trkpt><trkpt lat="43.0270504" lon="12.7550769"><ele>339.3333333333333</ele><time>2026-05-01T14:05:20.935Z</time></trkpt><trkpt lat="43.0269518" lon="12.7549031"><ele>335.6666666666667</ele><time>2026-05-01T14:05:21.934Z</time></trkpt><trkpt lat="43.0268532" lon="12.7547297"><ele>332.0</ele><time>2026-05-01T14:05:22.935Z</time></trkpt><trkpt lat="43.0267518" lon="12.7545696"><ele>332.0</ele><time>2026-05-01T14:05:23.934Z</time></trkpt><trkpt lat="43.0266463" lon="12.7544012"><ele>332.0</ele><time>2026-05-01T14:05:24.935Z</time></trkpt><trkpt lat="43.026536" lon="12.7542445"><ele>332.0</ele><time>2026-05-01T14:05:25.935Z</time></trkpt><trkpt lat="43.026425" lon="12.7540921"><ele>334.0</ele><time>2026-05-01T14:05:26.935Z</time></trkpt><trkpt lat="43.026308" lon="12.7539493"><ele>336.0</ele><time>2026-05-01T14:05:27.935Z</time></trkpt><trkpt lat="43.0261932" lon="12.7538039"><ele>338.0</ele><time>2026-05-01T14:05:28.935Z</time></trkpt><trkpt lat="43.0260693" lon="12.753674"><ele>338.0</ele><time>2026-05-01T14:05:29.935Z</time></trkpt><trkpt lat="43.0259286" lon="12.7535574"><ele>338.0</ele><time>2026-05-01T14:05:30.934Z</time></trkpt><trkpt lat="43.0257845" lon="12.7534532"><ele>338.0</ele><time>2026-05-01T14:05:31.935Z</time></trkpt><trkpt lat="43.0256338" lon="12.7533654"><ele>336.33333333333337</ele><time>2026-05-01T14:05:32.935Z</time></trkpt><trkpt lat="43.0254797" lon="12.7532773"><ele>334.6666666666667</ele><time>2026-05-01T14:05:33.935Z</time></trkpt><trkpt lat="43.0253259" lon="12.7531901"><ele>333.0</ele><time>2026-05-01T14:05:34.935Z</time></trkpt><trkpt lat="43.0251697" lon="12.7531185"><ele>333.0</ele><time>2026-05-01T14:05:35.935Z</time></trkpt><trkpt lat="43.0250143" lon="12.7530452"><ele>333.0</ele><time>2026-05-01T14:05:36.935Z</time></trkpt><trkpt lat="43.0248527" lon="12.7529896"><ele>333.0</ele><time>2026-05-01T14:05:37.934Z</time></trkpt><trkpt lat="43.0246912" lon="12.7529509"><ele>331.5</ele><time>2026-05-01T14:05:38.935Z</time></trkpt><trkpt lat="43.0245296" lon="12.7529377"><ele>330.0</ele><time>2026-05-01T14:05:39.934Z</time></trkpt><trkpt lat="43.0243884" lon="12.7529387"><ele>328.5</ele><time>2026-05-01T14:05:40.935Z</time></trkpt><trkpt lat="43.024251" lon="12.7529502"><ele>327.0</ele><time>2026-05-01T14:05:41.934Z</time></trkpt><trkpt lat="43.0241366" lon="12.7529508"><ele>325.3333333333333</ele><time>2026-05-01T14:05:42.935Z</time></trkpt><trkpt lat="43.0240531" lon="12.7529621"><ele>323.6666666666667</ele><time>2026-05-01T14:05:43.934Z</time></trkpt><trkpt lat="43.0239847" lon="12.7529645"><ele>322.0</ele><time>2026-05-01T14:05:44.934Z</time></trkpt><trkpt lat="43.0239219" lon="12.7529283"><ele>320.33333333333337</ele><time>2026-05-01T14:05:46.935Z</time></trkpt><trkpt lat="43.0238833" lon="12.7527856"><ele>318.6666666666667</ele><time>2026-05-01T14:05:48.934Z</time></trkpt><trkpt lat="43.0238628" lon="12.7527012"><ele>317.0</ele><time>2026-05-01T14:05:49.935Z</time></trkpt><trkpt lat="43.0238409" lon="12.7526"><ele>316.6</ele><time>2026-05-01T14:05:50.936Z</time></trkpt><trkpt lat="43.0238173" lon="12.7524818"><ele>316.2</ele><time>2026-05-01T14:05:51.936Z</time></trkpt><trkpt lat="43.0237906" lon="12.7523561"><ele>315.8</ele><time>2026-05-01T14:05:52.935Z</time></trkpt><trkpt lat="43.0237624" lon="12.7522162"><ele>315.4</ele><time>2026-05-01T14:05:53.936Z</time></trkpt><trkpt lat="43.0237295" lon="12.7520477"><ele>315.0</ele><time>2026-05-01T14:05:54.935Z</time></trkpt><trkpt lat="43.023691" lon="12.7518731"><ele>315.0</ele><time>2026-05-01T14:05:55.936Z</time></trkpt><trkpt lat="43.0236538" lon="12.7516784"><ele>315.0</ele><time>2026-05-01T14:05:56.935Z</time></trkpt><trkpt lat="43.0236049" lon="12.7514734"><ele>315.0</ele><time>2026-05-01T14:05:57.935Z</time></trkpt><trkpt lat="43.0235557" lon="12.7512714"><ele>315.0</ele><time>2026-05-01T14:05:58.936Z</time></trkpt><trkpt lat="43.0235138" lon="12.7510691"><ele>315.0</ele><time>2026-05-01T14:05:59.936Z</time></trkpt><trkpt lat="43.0234637" lon="12.7508833"><ele>315.0</ele><time>2026-05-01T14:06:00.936Z</time></trkpt><trkpt lat="43.0234132" lon="12.7507044"><ele>315.0</ele><time>2026-05-01T14:06:01.935Z</time></trkpt><trkpt lat="43.0233726" lon="12.7505332"><ele>316.0</ele><time>2026-05-01T14:06:02.936Z</time></trkpt><trkpt lat="43.023351" lon="12.7503749"><ele>317.0</ele><time>2026-05-01T14:06:03.936Z</time></trkpt><trkpt lat="43.0233758" lon="12.7502357"><ele>318.0</ele><time>2026-05-01T14:06:04.936Z</time></trkpt><trkpt lat="43.0234478" lon="12.75013"><ele>319.0</ele><time>2026-05-01T14:06:05.935Z</time></trkpt><trkpt lat="43.0235415" lon="12.7500457"><ele>320.0</ele><time>2026-05-01T14:06:06.936Z</time></trkpt><trkpt lat="43.0236406" lon="12.7499576"><ele>321.33333333333337</ele><time>2026-05-01T14:06:07.935Z</time></trkpt><trkpt lat="43.0237285" lon="12.7498588"><ele>322.6666666666667</ele><time>2026-05-01T14:06:08.936Z</time></trkpt><trkpt lat="43.0237939" lon="12.7497578"><ele>324.0</ele><time>2026-05-01T14:06:09.936Z</time></trkpt><trkpt lat="43.0238232" lon="12.7496666"><ele>325.3333333333333</ele><time>2026-05-01T14:06:10.936Z</time></trkpt><trkpt lat="43.0238242" lon="12.7495541"><ele>326.66666666666663</ele><time>2026-05-01T14:06:12.936Z</time></trkpt><trkpt lat="43.0237629" lon="12.7494846"><ele>328.0</ele><time>2026-05-01T14:06:23.936Z</time></trkpt><trkpt lat="43.0236915" lon="12.7494581"><ele>328.0</ele><time>2026-05-01T14:06:24.934Z</time></trkpt><trkpt lat="43.0236091" lon="12.7494533"><ele>328.0</ele><time>2026-05-01T14:06:25.935Z</time></trkpt><trkpt lat="43.0235193" lon="12.7494634"><ele>328.0</ele><time>2026-05-01T14:06:26.935Z</time></trkpt><trkpt lat="43.0234224" lon="12.7494554"><ele>328.0</ele><time>2026-05-01T14:06:27.934Z</time></trkpt><trkpt lat="43.0233148" lon="12.749468"><ele>328.0</ele><time>2026-05-01T14:06:28.935Z</time></trkpt><trkpt lat="43.0231959" lon="12.7494659"><ele>329.5</ele><time>2026-05-01T14:06:29.935Z</time></trkpt><trkpt lat="43.0230666" lon="12.7494687"><ele>331.0</ele><time>2026-05-01T14:06:30.934Z</time></trkpt><trkpt lat="43.0229463" lon="12.7494736"><ele>332.5</ele><time>2026-05-01T14:06:31.935Z</time></trkpt><trkpt lat="43.0228223" lon="12.7494936"><ele>334.0</ele><time>2026-05-01T14:06:32.935Z</time></trkpt><trkpt lat="43.022708" lon="12.7495583"><ele>334.0</ele><time>2026-05-01T14:06:33.935Z</time></trkpt><trkpt lat="43.0226058" lon="12.7496622"><ele>334.0</ele><time>2026-05-01T14:06:34.935Z</time></trkpt><trkpt lat="43.0225111" lon="12.749793"><ele>334.0</ele><time>2026-05-01T14:06:35.935Z</time></trkpt><trkpt lat="43.0224119" lon="12.7499242"><ele>334.0</ele><time>2026-05-01T14:06:36.935Z</time></trkpt><trkpt lat="43.0223075" lon="12.7500607"><ele>335.75</ele><time>2026-05-01T14:06:37.935Z</time></trkpt><trkpt lat="43.0222081" lon="12.7502095"><ele>337.5</ele><time>2026-05-01T14:06:38.934Z</time></trkpt><trkpt lat="43.0221244" lon="12.7503662"><ele>339.25</ele><time>2026-05-01T14:06:39.934Z</time></trkpt><trkpt lat="43.0220573" lon="12.7505353"><ele>341.0</ele><time>2026-05-01T14:06:40.934Z</time></trkpt><trkpt lat="43.022018" lon="12.750707"><ele>341.0</ele><time>2026-05-01T14:06:41.934Z</time></trkpt><trkpt lat="43.0219831" lon="12.7508815"><ele>341.0</ele><time>2026-05-01T14:06:42.935Z</time></trkpt><trkpt lat="43.0219532" lon="12.7510522"><ele>341.0</ele><time>2026-05-01T14:06:43.935Z</time></trkpt><trkpt lat="43.0219295" lon="12.7512231"><ele>341.0</ele><time>2026-05-01T14:06:44.935Z</time></trkpt><trkpt lat="43.0219071" lon="12.7513965"><ele>339.75</ele><time>2026-05-01T14:06:45.935Z</time></trkpt><trkpt lat="43.0218799" lon="12.7515707"><ele>338.5</ele><time>2026-05-01T14:06:46.935Z</time></trkpt><trkpt lat="43.0218438" lon="12.751732"><ele>337.25</ele><time>2026-05-01T14:06:47.935Z</time></trkpt><trkpt lat="43.0217904" lon="12.7518858"><ele>336.0</ele><time>2026-05-01T14:06:48.935Z</time></trkpt><trkpt lat="43.0217284" lon="12.7520018"><ele>332.40000000000003</ele><time>2026-05-01T14:06:49.934Z</time></trkpt><trkpt lat="43.0216396" lon="12.7520739"><ele>328.8</ele><time>2026-05-01T14:06:50.935Z</time></trkpt><trkpt lat="43.0215449" lon="12.7521083"><ele>325.20000000000005</ele><time>2026-05-01T14:06:51.935Z</time></trkpt><trkpt lat="43.0214518" lon="12.7521068"><ele>321.6</ele><time>2026-05-01T14:06:52.935Z</time></trkpt><trkpt lat="43.0213573" lon="12.7520548"><ele>318.0</ele><time>2026-05-01T14:06:53.935Z</time></trkpt><trkpt lat="43.0212712" lon="12.7519641"><ele>320.25</ele><time>2026-05-01T14:06:54.935Z</time></trkpt><trkpt lat="43.0211882" lon="12.7518492"><ele>322.5</ele><time>2026-05-01T14:06:55.935Z</time></trkpt><trkpt lat="43.0210985" lon="12.7517365"><ele>324.75</ele><time>2026-05-01T14:06:56.935Z</time></trkpt><trkpt lat="43.0210038" lon="12.7516214"><ele>327.0</ele><time>2026-05-01T14:06:57.934Z</time></trkpt><trkpt lat="43.0209061" lon="12.7515019"><ele>327.25</ele><time>2026-05-01T14:06:58.935Z</time></trkpt><trkpt lat="43.0208131" lon="12.7513722"><ele>327.5</ele><time>2026-05-01T14:06:59.935Z</time></trkpt><trkpt lat="43.0207154" lon="12.7512467"><ele>327.75</ele><time>2026-05-01T14:07:00.935Z</time></trkpt><trkpt lat="43.0206139" lon="12.7511209"><ele>328.0</ele><time>2026-05-01T14:07:01.935Z</time></trkpt><trkpt lat="43.0205097" lon="12.7509943"><ele>328.0</ele><time>2026-05-01T14:07:02.935Z</time></trkpt><trkpt lat="43.0204049" lon="12.7508653"><ele>328.0</ele><time>2026-05-01T14:07:03.935Z</time></trkpt><trkpt lat="43.0202977" lon="12.7507275"><ele>328.0</ele><time>2026-05-01T14:07:04.935Z</time></trkpt><trkpt lat="43.0201773" lon="12.7506064"><ele>328.0</ele><time>2026-05-01T14:07:05.935Z</time></trkpt><trkpt lat="43.0200675" lon="12.7504707"><ele>324.75</ele><time>2026-05-01T14:07:06.935Z</time></trkpt><trkpt lat="43.019977" lon="12.750317"><ele>321.5</ele><time>2026-05-01T14:07:07.935Z</time></trkpt><trkpt lat="43.0198879" lon="12.7501598"><ele>318.25</ele><time>2026-05-01T14:07:08.934Z</time></trkpt><trkpt lat="43.019806" lon="12.7499977"><ele>315.0</ele><time>2026-05-01T14:07:09.935Z</time></trkpt><trkpt lat="43.0197299" lon="12.7498233"><ele>315.0</ele><time>2026-05-01T14:07:10.935Z</time></trkpt><trkpt lat="43.01967" lon="12.7496373"><ele>315.0</ele><time>2026-05-01T14:07:11.935Z</time></trkpt><trkpt lat="43.0195975" lon="12.7494662"><ele>315.0</ele><time>2026-05-01T14:07:12.934Z</time></trkpt><trkpt lat="43.0195054" lon="12.7493019"><ele>315.0</ele><time>2026-05-01T14:07:13.935Z</time></trkpt><trkpt lat="43.0193955" lon="12.7491547"><ele>313.0</ele><time>2026-05-01T14:07:14.935Z</time></trkpt><trkpt lat="43.0192578" lon="12.7490366"><ele>311.0</ele><time>2026-05-01T14:07:15.935Z</time></trkpt><trkpt lat="43.01911" lon="12.7489523"><ele>309.0</ele><time>2026-05-01T14:07:16.934Z</time></trkpt><trkpt lat="43.0189516" lon="12.7488983"><ele>309.0</ele><time>2026-05-01T14:07:17.934Z</time></trkpt><trkpt lat="43.0187856" lon="12.7488606"><ele>309.0</ele><time>2026-05-01T14:07:18.935Z</time></trkpt><trkpt lat="43.0186148" lon="12.7487921"><ele>309.0</ele><time>2026-05-01T14:07:19.935Z</time></trkpt><trkpt lat="43.0184367" lon="12.7486926"><ele>309.0</ele><time>2026-05-01T14:07:20.935Z</time></trkpt><trkpt lat="43.0182518" lon="12.7485938"><ele>309.0</ele><time>2026-05-01T14:07:21.935Z</time></trkpt><trkpt lat="43.0180596" lon="12.7485154"><ele>309.0</ele><time>2026-05-01T14:07:22.934Z</time></trkpt><trkpt lat="43.0178678" lon="12.7484795"><ele>315.3333333333333</ele><time>2026-05-01T14:07:23.935Z</time></trkpt><trkpt lat="43.0176802" lon="12.7484372"><ele>321.66666666666663</ele><time>2026-05-01T14:07:24.935Z</time></trkpt><trkpt lat="43.0174885" lon="12.7483919"><ele>328.0</ele><time>2026-05-01T14:07:25.935Z</time></trkpt><trkpt lat="43.0172893" lon="12.7483618"><ele>328.66666666666663</ele><time>2026-05-01T14:07:26.935Z</time></trkpt><trkpt lat="43.0170842" lon="12.7483488"><ele>329.3333333333333</ele><time>2026-05-01T14:07:27.935Z</time></trkpt><trkpt lat="43.0168755" lon="12.7483337"><ele>330.0</ele><time>2026-05-01T14:07:28.935Z</time></trkpt><trkpt lat="43.0166637" lon="12.7483273"><ele>326.6666666666667</ele><time>2026-05-01T14:07:29.935Z</time></trkpt><trkpt lat="43.0164587" lon="12.7483338"><ele>323.33333333333337</ele><time>2026-05-01T14:07:30.934Z</time></trkpt><trkpt lat="43.0162689" lon="12.7483328"><ele>320.0</ele><time>2026-05-01T14:07:31.935Z</time></trkpt><trkpt lat="43.0160803" lon="12.7483302"><ele>320.0</ele><time>2026-05-01T14:07:32.934Z</time></trkpt><trkpt lat="43.0159144" lon="12.7483202"><ele>320.0</ele><time>2026-05-01T14:07:33.935Z</time></trkpt><trkpt lat="43.01576" lon="12.7482837"><ele>320.0</ele><time>2026-05-01T14:07:34.934Z</time></trkpt><trkpt lat="43.0156106" lon="12.7482421"><ele>317.0</ele><time>2026-05-01T14:07:35.935Z</time></trkpt><trkpt lat="43.0154719" lon="12.7481805"><ele>314.0</ele><time>2026-05-01T14:07:36.935Z</time></trkpt><trkpt lat="43.015336" lon="12.7480969"><ele>311.0</ele><time>2026-05-01T14:07:37.935Z</time></trkpt><trkpt lat="43.0152017" lon="12.748001"><ele>308.0</ele><time>2026-05-01T14:07:38.934Z</time></trkpt><trkpt lat="43.0150586" lon="12.747881"><ele>307.6666666666667</ele><time>2026-05-01T14:07:39.934Z</time></trkpt><trkpt lat="43.014901" lon="12.7477486"><ele>307.3333333333333</ele><time>2026-05-01T14:07:40.935Z</time></trkpt><trkpt lat="43.0147341" lon="12.7476236"><ele>307.0</ele><time>2026-05-01T14:07:41.935Z</time></trkpt><trkpt lat="43.014584" lon="12.7474835"><ele>307.0</ele><time>2026-05-01T14:07:42.935Z</time></trkpt><trkpt lat="43.0144613" lon="12.7473164"><ele>307.0</ele><time>2026-05-01T14:07:43.935Z</time></trkpt><trkpt lat="43.0143608" lon="12.7471554"><ele>307.0</ele><time>2026-05-01T14:07:44.935Z</time></trkpt><trkpt lat="43.0142795" lon="12.747016"><ele>307.0</ele><time>2026-05-01T14:07:45.935Z</time></trkpt><trkpt lat="43.0141955" lon="12.7469006"><ele>307.0</ele><time>2026-05-01T14:07:46.934Z</time></trkpt><trkpt lat="43.0141054" lon="12.7468143"><ele>307.0</ele><time>2026-05-01T14:07:47.935Z</time></trkpt><trkpt lat="43.0140261" lon="12.7467611"><ele>307.0</ele><time>2026-05-01T14:07:48.934Z</time></trkpt><trkpt lat="43.0139656" lon="12.7467175"><ele>307.0</ele><time>2026-05-01T14:07:49.935Z</time></trkpt><trkpt lat="43.0139065" lon="12.7466859"><ele>307.0</ele><time>2026-05-01T14:07:50.935Z</time></trkpt><trkpt lat="43.0138482" lon="12.7466446"><ele>306.5</ele><time>2026-05-01T14:07:51.934Z</time></trkpt><trkpt lat="43.0137957" lon="12.7465933"><ele>306.0</ele><time>2026-05-01T14:07:52.935Z</time></trkpt><trkpt lat="43.0136888" lon="12.7466072"><ele>305.5</ele><time>2026-05-01T14:07:54.935Z</time></trkpt><trkpt lat="43.0136274" lon="12.7466365"><ele>305.0</ele><time>2026-05-01T14:07:55.934Z</time></trkpt><trkpt lat="43.0135583" lon="12.7466646"><ele>304.5</ele><time>2026-05-01T14:07:56.935Z</time></trkpt><trkpt lat="43.0134838" lon="12.7466728"><ele>304.0</ele><time>2026-05-01T14:07:57.935Z</time></trkpt><trkpt lat="43.0133984" lon="12.7466393"><ele>304.25</ele><time>2026-05-01T14:07:58.935Z</time></trkpt><trkpt lat="43.0133082" lon="12.7465426"><ele>304.5</ele><time>2026-05-01T14:07:59.935Z</time></trkpt><trkpt lat="43.0132228" lon="12.7464016"><ele>304.75</ele><time>2026-05-01T14:08:00.935Z</time></trkpt><trkpt lat="43.0131258" lon="12.7462534"><ele>305.0</ele><time>2026-05-01T14:08:01.935Z</time></trkpt><trkpt lat="43.0130131" lon="12.7460982"><ele>304.33333333333337</ele><time>2026-05-01T14:08:02.935Z</time></trkpt><trkpt lat="43.0128983" lon="12.7459318"><ele>303.6666666666667</ele><time>2026-05-01T14:08:03.935Z</time></trkpt><trkpt lat="43.0127863" lon="12.74577"><ele>303.0</ele><time>2026-05-01T14:08:04.935Z</time></trkpt><trkpt lat="43.0126826" lon="12.7456154"><ele>303.0</ele><time>2026-05-01T14:08:05.934Z</time></trkpt><trkpt lat="43.0125838" lon="12.7454526"><ele>303.0</ele><time>2026-05-01T14:08:06.935Z</time></trkpt><trkpt lat="43.0124799" lon="12.7453085"><ele>303.0</ele><time>2026-05-01T14:08:07.934Z</time></trkpt><trkpt lat="43.0123785" lon="12.7451532"><ele>303.0</ele><time>2026-05-01T14:08:08.935Z</time></trkpt><trkpt lat="43.0122807" lon="12.7449791"><ele>303.0</ele><time>2026-05-01T14:08:09.935Z</time></trkpt><trkpt lat="43.0121895" lon="12.7447822"><ele>303.0</ele><time>2026-05-01T14:08:10.935Z</time></trkpt><trkpt lat="43.012118" lon="12.7445593"><ele>302.3333333333333</ele><time>2026-05-01T14:08:11.935Z</time></trkpt><trkpt lat="43.0120597" lon="12.7443065"><ele>301.66666666666663</ele><time>2026-05-01T14:08:12.935Z</time></trkpt><trkpt lat="43.0119922" lon="12.7440353"><ele>301.0</ele><time>2026-05-01T14:08:13.935Z</time></trkpt><trkpt lat="43.0119246" lon="12.7437514"><ele>302.5</ele><time>2026-05-01T14:08:14.935Z</time></trkpt><trkpt lat="43.0118398" lon="12.7434517"><ele>304.0</ele><time>2026-05-01T14:08:15.935Z</time></trkpt><trkpt lat="43.0117483" lon="12.7431476"><ele>304.0</ele><time>2026-05-01T14:08:16.935Z</time></trkpt><trkpt lat="43.0116586" lon="12.7428421"><ele>304.0</ele><time>2026-05-01T14:08:17.935Z</time></trkpt><trkpt lat="43.0115733" lon="12.7425441"><ele>300.0</ele><time>2026-05-01T14:08:18.935Z</time></trkpt><trkpt lat="43.0114699" lon="12.7422543"><ele>296.0</ele><time>2026-05-01T14:08:19.935Z</time></trkpt><trkpt lat="43.0113591" lon="12.7419678"><ele>297.0</ele><time>2026-05-01T14:08:20.935Z</time></trkpt><trkpt lat="43.0112396" lon="12.7417002"><ele>298.0</ele><time>2026-05-01T14:08:21.935Z</time></trkpt><trkpt lat="43.0111027" lon="12.7414561"><ele>298.0</ele><time>2026-05-01T14:08:22.935Z</time></trkpt><trkpt lat="43.0109333" lon="12.7412391"><ele>298.0</ele><time>2026-05-01T14:08:23.935Z</time></trkpt><trkpt lat="43.0107481" lon="12.7410464"><ele>298.0</ele><time>2026-05-01T14:08:24.934Z</time></trkpt><trkpt lat="43.0105503" lon="12.740872"><ele>298.0</ele><time>2026-05-01T14:08:25.935Z</time></trkpt><trkpt lat="43.0103556" lon="12.7407113"><ele>298.0</ele><time>2026-05-01T14:08:26.935Z</time></trkpt><trkpt lat="43.0101619" lon="12.7405577"><ele>298.0</ele><time>2026-05-01T14:08:27.934Z</time></trkpt><trkpt lat="43.0099574" lon="12.7403973"><ele>296.5</ele><time>2026-05-01T14:08:28.935Z</time></trkpt><trkpt lat="43.0097484" lon="12.7402623"><ele>295.0</ele><time>2026-05-01T14:08:29.935Z</time></trkpt><trkpt lat="43.009522" lon="12.7401363"><ele>295.0</ele><time>2026-05-01T14:08:30.934Z</time></trkpt><trkpt lat="43.0092833" lon="12.7400249"><ele>295.0</ele><time>2026-05-01T14:08:31.935Z</time></trkpt><trkpt lat="43.0090357" lon="12.7399234"><ele>293.0</ele><time>2026-05-01T14:08:32.935Z</time></trkpt><trkpt lat="43.0087776" lon="12.7398466"><ele>291.0</ele><time>2026-05-01T14:08:33.935Z</time></trkpt><trkpt lat="43.0085057" lon="12.7397951"><ele>289.0</ele><time>2026-05-01T14:08:34.935Z</time></trkpt><trkpt lat="43.0082363" lon="12.7397522"><ele>287.0</ele><time>2026-05-01T14:08:35.934Z</time></trkpt><trkpt lat="43.0079706" lon="12.7397431"><ele>287.0</ele><time>2026-05-01T14:08:36.935Z</time></trkpt><trkpt lat="43.0077031" lon="12.73973"><ele>287.0</ele><time>2026-05-01T14:08:37.935Z</time></trkpt><trkpt lat="43.0074247" lon="12.7397044"><ele>286.0</ele><time>2026-05-01T14:08:38.935Z</time></trkpt><trkpt lat="43.0071526" lon="12.7396769"><ele>285.0</ele><time>2026-05-01T14:08:39.935Z</time></trkpt><trkpt lat="43.0068758" lon="12.7396468"><ele>285.0</ele><time>2026-05-01T14:08:40.935Z</time></trkpt><trkpt lat="43.0065994" lon="12.7396235"><ele>285.0</ele><time>2026-05-01T14:08:41.935Z</time></trkpt><trkpt lat="43.0063226" lon="12.739594"><ele>285.0</ele><time>2026-05-01T14:08:42.934Z</time></trkpt><trkpt lat="43.0060419" lon="12.7395667"><ele>285.0</ele><time>2026-05-01T14:08:43.935Z</time></trkpt><trkpt lat="43.0057641" lon="12.7395451"><ele>284.5</ele><time>2026-05-01T14:08:44.935Z</time></trkpt><trkpt lat="43.0054905" lon="12.7395219"><ele>284.0</ele><time>2026-05-01T14:08:45.935Z</time></trkpt><trkpt lat="43.0052152" lon="12.7394986"><ele>284.0</ele><time>2026-05-01T14:08:46.934Z</time></trkpt><trkpt lat="43.0049377" lon="12.7394755"><ele>284.0</ele><time>2026-05-01T14:08:47.935Z</time></trkpt><trkpt lat="43.004658" lon="12.739452"><ele>284.0</ele><time>2026-05-01T14:08:48.934Z</time></trkpt><trkpt lat="43.0043828" lon="12.7394307"><ele>284.0</ele><time>2026-05-01T14:08:49.935Z</time></trkpt><trkpt lat="43.0041079" lon="12.7394106"><ele>284.0</ele><time>2026-05-01T14:08:50.935Z</time></trkpt><trkpt lat="43.0038334" lon="12.7393867"><ele>284.0</ele><time>2026-05-01T14:08:51.935Z</time></trkpt><trkpt lat="43.0035578" lon="12.7393601"><ele>284.5</ele><time>2026-05-01T14:08:52.935Z</time></trkpt><trkpt lat="43.0032837" lon="12.7393322"><ele>285.0</ele><time>2026-05-01T14:08:53.934Z</time></trkpt><trkpt lat="43.0030071" lon="12.7393129"><ele>285.0</ele><time>2026-05-01T14:08:54.935Z</time></trkpt><trkpt lat="43.0027301" lon="12.7392917"><ele>285.0</ele><time>2026-05-01T14:08:55.934Z</time></trkpt><trkpt lat="43.0024563" lon="12.7392698"><ele>283.0</ele><time>2026-05-01T14:08:56.934Z</time></trkpt><trkpt lat="43.0021823" lon="12.7392406"><ele>281.0</ele><time>2026-05-01T14:08:57.934Z</time></trkpt><trkpt lat="43.0019059" lon="12.7392126"><ele>281.0</ele><time>2026-05-01T14:08:58.935Z</time></trkpt><trkpt lat="43.0016314" lon="12.7391802"><ele>281.0</ele><time>2026-05-01T14:08:59.935Z</time></trkpt><trkpt lat="43.0013571" lon="12.7391362"><ele>281.0</ele><time>2026-05-01T14:09:00.935Z</time></trkpt><trkpt lat="43.0010821" lon="12.7390943"><ele>281.0</ele><time>2026-05-01T14:09:01.935Z</time></trkpt><trkpt lat="43.0008081" lon="12.7390426"><ele>279.0</ele><time>2026-05-01T14:09:02.935Z</time></trkpt><trkpt lat="43.0005357" lon="12.7389801"><ele>277.0</ele><time>2026-05-01T14:09:03.935Z</time></trkpt><trkpt lat="43.0002606" lon="12.7388993"><ele>277.0</ele><time>2026-05-01T14:09:04.934Z</time></trkpt><trkpt lat="42.9999924" lon="12.7388029"><ele>277.0</ele><time>2026-05-01T14:09:05.935Z</time></trkpt><trkpt lat="42.9997256" lon="12.7386937"><ele>277.0</ele><time>2026-05-01T14:09:06.935Z</time></trkpt><trkpt lat="42.9994606" lon="12.7385745"><ele>277.0</ele><time>2026-05-01T14:09:07.935Z</time></trkpt><trkpt lat="42.9992" lon="12.7384388"><ele>279.5</ele><time>2026-05-01T14:09:08.935Z</time></trkpt><trkpt lat="42.9989388" lon="12.7383058"><ele>282.0</ele><time>2026-05-01T14:09:09.935Z</time></trkpt><trkpt lat="42.9986846" lon="12.7381554"><ele>282.0</ele><time>2026-05-01T14:09:10.935Z</time></trkpt><trkpt lat="42.998433" lon="12.7379936"><ele>282.0</ele><time>2026-05-01T14:09:11.935Z</time></trkpt><trkpt lat="42.9981798" lon="12.7378156"><ele>284.0</ele><time>2026-05-01T14:09:12.934Z</time></trkpt><trkpt lat="42.997937" lon="12.7376339"><ele>286.0</ele><time>2026-05-01T14:09:13.934Z</time></trkpt><trkpt lat="42.997694" lon="12.7374519"><ele>282.5</ele><time>2026-05-01T14:09:14.935Z</time></trkpt><trkpt lat="42.9974529" lon="12.7372575"><ele>279.0</ele><time>2026-05-01T14:09:15.934Z</time></trkpt><trkpt lat="42.9972091" lon="12.7370577"><ele>282.0</ele><time>2026-05-01T14:09:16.935Z</time></trkpt><trkpt lat="42.9969814" lon="12.7368738"><ele>285.0</ele><time>2026-05-01T14:09:17.935Z</time></trkpt><trkpt lat="42.9967567" lon="12.7367025"><ele>281.5</ele><time>2026-05-01T14:09:18.935Z</time></trkpt><trkpt lat="42.9965454" lon="12.7365438"><ele>278.0</ele><time>2026-05-01T14:09:19.935Z</time></trkpt><trkpt lat="42.9963416" lon="12.7363943"><ele>278.0</ele><time>2026-05-01T14:09:20.935Z</time></trkpt><trkpt lat="42.9961532" lon="12.7362495"><ele>278.0</ele><time>2026-05-01T14:09:21.935Z</time></trkpt><trkpt lat="42.9959618" lon="12.7360978"><ele>278.0</ele><time>2026-05-01T14:09:22.935Z</time></trkpt><trkpt lat="42.9957764" lon="12.7359523"><ele>279.0</ele><time>2026-05-01T14:09:23.935Z</time></trkpt><trkpt lat="42.9955926" lon="12.7357935"><ele>280.0</ele><time>2026-05-01T14:09:24.935Z</time></trkpt><trkpt lat="42.9954009" lon="12.7356316"><ele>281.0</ele><time>2026-05-01T14:09:25.935Z</time></trkpt><trkpt lat="42.9952051" lon="12.735455"><ele>282.5</ele><time>2026-05-01T14:09:26.935Z</time></trkpt><trkpt lat="42.9950039" lon="12.7352649"><ele>284.0</ele><time>2026-05-01T14:09:27.935Z</time></trkpt><trkpt lat="42.9947945" lon="12.7350686"><ele>284.0</ele><time>2026-05-01T14:09:28.935Z</time></trkpt><trkpt lat="42.9945761" lon="12.7348712"><ele>284.0</ele><time>2026-05-01T14:09:29.934Z</time></trkpt><trkpt lat="42.9943525" lon="12.7346713"><ele>285.0</ele><time>2026-05-01T14:09:30.935Z</time></trkpt><trkpt lat="42.9941223" lon="12.734473"><ele>286.0</ele><time>2026-05-01T14:09:31.934Z</time></trkpt><trkpt lat="42.9938995" lon="12.7342799"><ele>286.0</ele><time>2026-05-01T14:09:32.935Z</time></trkpt><trkpt lat="42.9936749" lon="12.7340788"><ele>286.0</ele><time>2026-05-01T14:09:33.935Z</time></trkpt><trkpt lat="42.9934518" lon="12.7338892"><ele>286.5</ele><time>2026-05-01T14:09:34.934Z</time></trkpt><trkpt lat="42.9932231" lon="12.7336845"><ele>287.0</ele><time>2026-05-01T14:09:35.935Z</time></trkpt><trkpt lat="42.9930038" lon="12.7334811"><ele>287.0</ele><time>2026-05-01T14:09:36.934Z</time></trkpt><trkpt lat="42.9927838" lon="12.7332773"><ele>287.0</ele><time>2026-05-01T14:09:37.935Z</time></trkpt><trkpt lat="42.9925563" lon="12.7330737"><ele>287.5</ele><time>2026-05-01T14:09:38.935Z</time></trkpt><trkpt lat="42.9923275" lon="12.7328732"><ele>288.0</ele><time>2026-05-01T14:09:39.935Z</time></trkpt><trkpt lat="42.9920959" lon="12.7326847"><ele>288.0</ele><time>2026-05-01T14:09:40.935Z</time></trkpt><trkpt lat="42.9918662" lon="12.7324957"><ele>288.0</ele><time>2026-05-01T14:09:41.935Z</time></trkpt><trkpt lat="42.9916282" lon="12.7323055"><ele>282.0</ele><time>2026-05-01T14:09:42.935Z</time></trkpt><trkpt lat="42.9913945" lon="12.7321173"><ele>276.0</ele><time>2026-05-01T14:09:43.935Z</time></trkpt><trkpt lat="42.9911626" lon="12.7319323"><ele>275.5</ele><time>2026-05-01T14:09:44.934Z</time></trkpt><trkpt lat="42.9909176" lon="12.7317526"><ele>275.0</ele><time>2026-05-01T14:09:45.935Z</time></trkpt><trkpt lat="42.9906734" lon="12.7315837"><ele>275.0</ele><time>2026-05-01T14:09:46.935Z</time></trkpt><trkpt lat="42.9904352" lon="12.7314186"><ele>275.0</ele><time>2026-05-01T14:09:47.934Z</time></trkpt><trkpt lat="42.9902002" lon="12.7312405"><ele>274.0</ele><time>2026-05-01T14:09:48.935Z</time></trkpt><trkpt lat="42.9899643" lon="12.7310625"><ele>273.0</ele><time>2026-05-01T14:09:49.935Z</time></trkpt><trkpt lat="42.9897255" lon="12.7308936"><ele>279.0</ele><time>2026-05-01T14:09:50.935Z</time></trkpt><trkpt lat="42.9894856" lon="12.7307211"><ele>285.0</ele><time>2026-05-01T14:09:51.934Z</time></trkpt><trkpt lat="42.9892489" lon="12.730546"><ele>286.5</ele><time>2026-05-01T14:09:52.935Z</time></trkpt><trkpt lat="42.9890005" lon="12.7303645"><ele>288.0</ele><time>2026-05-01T14:09:53.934Z</time></trkpt><trkpt lat="42.9887611" lon="12.7301912"><ele>288.0</ele><time>2026-05-01T14:09:54.935Z</time></trkpt><trkpt lat="42.9885265" lon="12.730022"><ele>288.0</ele><time>2026-05-01T14:09:55.935Z</time></trkpt><trkpt lat="42.9882919" lon="12.7298604"><ele>283.5</ele><time>2026-05-01T14:09:56.935Z</time></trkpt><trkpt lat="42.9880528" lon="12.7296891"><ele>279.0</ele><time>2026-05-01T14:09:57.934Z</time></trkpt><trkpt lat="42.9878131" lon="12.7295261"><ele>279.5</ele><time>2026-05-01T14:09:58.935Z</time></trkpt><trkpt lat="42.9875917" lon="12.7293482"><ele>280.0</ele><time>2026-05-01T14:09:59.935Z</time></trkpt><trkpt lat="42.9873691" lon="12.7291691"><ele>280.0</ele><time>2026-05-01T14:10:00.934Z</time></trkpt><trkpt lat="42.987174" lon="12.7289856"><ele>280.0</ele><time>2026-05-01T14:10:01.935Z</time></trkpt><trkpt lat="42.9869705" lon="12.7287858"><ele>280.0</ele><time>2026-05-01T14:10:02.935Z</time></trkpt><trkpt lat="42.9867799" lon="12.7285827"><ele>280.0</ele><time>2026-05-01T14:10:03.934Z</time></trkpt><trkpt lat="42.9865958" lon="12.7283618"><ele>284.5</ele><time>2026-05-01T14:10:04.935Z</time></trkpt><trkpt lat="42.986416" lon="12.7281205"><ele>289.0</ele><time>2026-05-01T14:10:05.934Z</time></trkpt><trkpt lat="42.986244" lon="12.7278734"><ele>291.0</ele><time>2026-05-01T14:10:06.935Z</time></trkpt><trkpt lat="42.9860737" lon="12.7276255"><ele>293.0</ele><time>2026-05-01T14:10:07.935Z</time></trkpt><trkpt lat="42.9859195" lon="12.7273598"><ele>288.0</ele><time>2026-05-01T14:10:08.935Z</time></trkpt><trkpt lat="42.9857598" lon="12.7270825"><ele>283.0</ele><time>2026-05-01T14:10:09.935Z</time></trkpt><trkpt lat="42.9856021" lon="12.7268068"><ele>282.5</ele><time>2026-05-01T14:10:10.935Z</time></trkpt><trkpt lat="42.9854401" lon="12.7265242"><ele>282.0</ele><time>2026-05-01T14:10:11.935Z</time></trkpt><trkpt lat="42.9852821" lon="12.7262407"><ele>284.5</ele><time>2026-05-01T14:10:12.934Z</time></trkpt><trkpt lat="42.9851129" lon="12.7259622"><ele>287.0</ele><time>2026-05-01T14:10:13.935Z</time></trkpt><trkpt lat="42.9849451" lon="12.7256864"><ele>284.0</ele><time>2026-05-01T14:10:14.935Z</time></trkpt><trkpt lat="42.9847753" lon="12.7254001"><ele>281.0</ele><time>2026-05-01T14:10:15.935Z</time></trkpt><trkpt lat="42.984605" lon="12.7251216"><ele>281.0</ele><time>2026-05-01T14:10:16.935Z</time></trkpt><trkpt lat="42.984432" lon="12.7248414"><ele>281.0</ele><time>2026-05-01T14:10:17.935Z</time></trkpt><trkpt lat="42.9842696" lon="12.7245501"><ele>278.5</ele><time>2026-05-01T14:10:18.934Z</time></trkpt><trkpt lat="42.9841056" lon="12.7242685"><ele>276.0</ele><time>2026-05-01T14:10:19.935Z</time></trkpt><trkpt lat="42.9839391" lon="12.7239899"><ele>276.0</ele><time>2026-05-01T14:10:20.934Z</time></trkpt><trkpt lat="42.9837715" lon="12.7237127"><ele>276.0</ele><time>2026-05-01T14:10:21.935Z</time></trkpt><trkpt lat="42.9836042" lon="12.7234389"><ele>278.0</ele><time>2026-05-01T14:10:22.935Z</time></trkpt><trkpt lat="42.983431" lon="12.7231706"><ele>280.0</ele><time>2026-05-01T14:10:23.935Z</time></trkpt><trkpt lat="42.9832522" lon="12.7229093"><ele>278.0</ele><time>2026-05-01T14:10:24.934Z</time></trkpt><trkpt lat="42.983067" lon="12.7226614"><ele>276.0</ele><time>2026-05-01T14:10:25.934Z</time></trkpt><trkpt lat="42.9828767" lon="12.7224129"><ele>276.0</ele><time>2026-05-01T14:10:26.935Z</time></trkpt><trkpt lat="42.9826673" lon="12.7221895"><ele>276.0</ele><time>2026-05-01T14:10:27.935Z</time></trkpt><trkpt lat="42.9824542" lon="12.7219675"><ele>273.5</ele><time>2026-05-01T14:10:28.935Z</time></trkpt><trkpt lat="42.9822223" lon="12.7217723"><ele>271.0</ele><time>2026-05-01T14:10:29.934Z</time></trkpt><trkpt lat="42.9819846" lon="12.7215836"><ele>271.0</ele><time>2026-05-01T14:10:30.934Z</time></trkpt><trkpt lat="42.981747" lon="12.7214067"><ele>271.0</ele><time>2026-05-01T14:10:31.935Z</time></trkpt><trkpt lat="42.9815143" lon="12.7212246"><ele>269.0</ele><time>2026-05-01T14:10:32.935Z</time></trkpt><trkpt lat="42.9812954" lon="12.7210489"><ele>267.0</ele><time>2026-05-01T14:10:33.934Z</time></trkpt><trkpt lat="42.9811009" lon="12.7209002"><ele>267.0</ele><time>2026-05-01T14:10:34.935Z</time></trkpt><trkpt lat="42.9809191" lon="12.720745"><ele>267.0</ele><time>2026-05-01T14:10:35.934Z</time></trkpt><trkpt lat="42.9807356" lon="12.7206034"><ele>267.0</ele><time>2026-05-01T14:10:36.935Z</time></trkpt><trkpt lat="42.980557" lon="12.7204654"><ele>266.3333333333333</ele><time>2026-05-01T14:10:37.935Z</time></trkpt><trkpt lat="42.9803727" lon="12.7203184"><ele>265.66666666666663</ele><time>2026-05-01T14:10:38.935Z</time></trkpt><trkpt lat="42.9801827" lon="12.7201736"><ele>265.0</ele><time>2026-05-01T14:10:39.935Z</time></trkpt><trkpt lat="42.9799962" lon="12.7200251"><ele>261.0</ele><time>2026-05-01T14:10:40.934Z</time></trkpt><trkpt lat="42.9798028" lon="12.7198712"><ele>257.0</ele><time>2026-05-01T14:10:41.934Z</time></trkpt><trkpt lat="42.9796087" lon="12.7197051"><ele>257.0</ele><time>2026-05-01T14:10:42.934Z</time></trkpt><trkpt lat="42.9794085" lon="12.7195342"><ele>257.0</ele><time>2026-05-01T14:10:43.935Z</time></trkpt><trkpt lat="42.9791918" lon="12.7193682"><ele>256.0</ele><time>2026-05-01T14:10:44.935Z</time></trkpt><trkpt lat="42.9789812" lon="12.7192021"><ele>255.0</ele><time>2026-05-01T14:10:45.934Z</time></trkpt><trkpt lat="42.978767" lon="12.7190377"><ele>255.0</ele><time>2026-05-01T14:10:46.935Z</time></trkpt><trkpt lat="42.9785643" lon="12.718878"><ele>255.0</ele><time>2026-05-01T14:10:47.935Z</time></trkpt><trkpt lat="42.9783603" lon="12.7187072"><ele>253.5</ele><time>2026-05-01T14:10:48.935Z</time></trkpt><trkpt lat="42.9781599" lon="12.7185415"><ele>252.0</ele><time>2026-05-01T14:10:49.935Z</time></trkpt><trkpt lat="42.9779564" lon="12.718384"><ele>252.0</ele><time>2026-05-01T14:10:50.934Z</time></trkpt><trkpt lat="42.9777559" lon="12.7182307"><ele>252.0</ele><time>2026-05-01T14:10:51.935Z</time></trkpt><trkpt lat="42.9775538" lon="12.7180701"><ele>250.66666666666669</ele><time>2026-05-01T14:10:52.934Z</time></trkpt><trkpt lat="42.9773668" lon="12.7179199"><ele>249.33333333333334</ele><time>2026-05-01T14:10:53.935Z</time></trkpt><trkpt lat="42.9771906" lon="12.7177781"><ele>248.0</ele><time>2026-05-01T14:10:54.934Z</time></trkpt><trkpt lat="42.9770292" lon="12.7176409"><ele>248.0</ele><time>2026-05-01T14:10:55.934Z</time></trkpt><trkpt lat="42.9768741" lon="12.7174985"><ele>248.0</ele><time>2026-05-01T14:10:56.935Z</time></trkpt><trkpt lat="42.9767213" lon="12.7173578"><ele>248.0</ele><time>2026-05-01T14:10:57.934Z</time></trkpt><trkpt lat="42.9765783" lon="12.717229"><ele>248.33333333333334</ele><time>2026-05-01T14:10:58.934Z</time></trkpt><trkpt lat="42.9764439" lon="12.7171066"><ele>248.66666666666669</ele><time>2026-05-01T14:10:59.935Z</time></trkpt><trkpt lat="42.9763091" lon="12.7169869"><ele>249.0</ele><time>2026-05-01T14:11:00.935Z</time></trkpt><trkpt lat="42.9761835" lon="12.7168702"><ele>249.0</ele><time>2026-05-01T14:11:01.935Z</time></trkpt><trkpt lat="42.9760573" lon="12.7167554"><ele>249.0</ele><time>2026-05-01T14:11:02.935Z</time></trkpt><trkpt lat="42.9759213" lon="12.7166445"><ele>249.0</ele><time>2026-05-01T14:11:03.935Z</time></trkpt><trkpt lat="42.9757859" lon="12.7165268"><ele>249.66666666666669</ele><time>2026-05-01T14:11:04.935Z</time></trkpt><trkpt lat="42.9756468" lon="12.7164057"><ele>250.33333333333334</ele><time>2026-05-01T14:11:05.935Z</time></trkpt><trkpt lat="42.9755086" lon="12.7162705"><ele>251.0</ele><time>2026-05-01T14:11:06.934Z</time></trkpt><trkpt lat="42.9753636" lon="12.716125"><ele>251.66666666666669</ele><time>2026-05-01T14:11:07.935Z</time></trkpt><trkpt lat="42.9752162" lon="12.7159807"><ele>252.33333333333331</ele><time>2026-05-01T14:11:08.935Z</time></trkpt><trkpt lat="42.9750615" lon="12.7158579"><ele>253.0</ele><time>2026-05-01T14:11:09.935Z</time></trkpt><trkpt lat="42.9749076" lon="12.7157137"><ele>251.0</ele><time>2026-05-01T14:11:10.934Z</time></trkpt><trkpt lat="42.9747519" lon="12.7155728"><ele>249.0</ele><time>2026-05-01T14:11:11.935Z</time></trkpt><trkpt lat="42.9745978" lon="12.7154273"><ele>247.0</ele><time>2026-05-01T14:11:12.935Z</time></trkpt><trkpt lat="42.9744447" lon="12.7152728"><ele>247.0</ele><time>2026-05-01T14:11:13.935Z</time></trkpt><trkpt lat="42.9743092" lon="12.7150998"><ele>247.0</ele><time>2026-05-01T14:11:14.934Z</time></trkpt><trkpt lat="42.9741865" lon="12.7148995"><ele>247.0</ele><time>2026-05-01T14:11:15.935Z</time></trkpt><trkpt lat="42.9740916" lon="12.7146719"><ele>246.66666666666666</ele><time>2026-05-01T14:11:16.935Z</time></trkpt><trkpt lat="42.9740074" lon="12.7144379"><ele>246.33333333333331</ele><time>2026-05-01T14:11:17.934Z</time></trkpt><trkpt lat="42.9739324" lon="12.7141911"><ele>246.0</ele><time>2026-05-01T14:11:18.934Z</time></trkpt><trkpt lat="42.9738665" lon="12.7139363"><ele>245.66666666666669</ele><time>2026-05-01T14:11:19.935Z</time></trkpt><trkpt lat="42.9738065" lon="12.7136666"><ele>245.33333333333334</ele><time>2026-05-01T14:11:20.935Z</time></trkpt><trkpt lat="42.9737558" lon="12.7134031"><ele>245.0</ele><time>2026-05-01T14:11:21.935Z</time></trkpt><trkpt lat="42.9737158" lon="12.7131344"><ele>245.66666666666669</ele><time>2026-05-01T14:11:22.934Z</time></trkpt><trkpt lat="42.9736703" lon="12.712858"><ele>246.33333333333331</ele><time>2026-05-01T14:11:23.935Z</time></trkpt><trkpt lat="42.9736223" lon="12.7125789"><ele>247.0</ele><time>2026-05-01T14:11:24.935Z</time></trkpt><trkpt lat="42.9735696" lon="12.7122943"><ele>247.0</ele><time>2026-05-01T14:11:25.935Z</time></trkpt><trkpt lat="42.9735157" lon="12.7120052"><ele>247.0</ele><time>2026-05-01T14:11:26.935Z</time></trkpt><trkpt lat="42.9734693" lon="12.7117141"><ele>247.0</ele><time>2026-05-01T14:11:27.935Z</time></trkpt><trkpt lat="42.9734311" lon="12.7114317"><ele>247.66666666666666</ele><time>2026-05-01T14:11:28.935Z</time></trkpt><trkpt lat="42.973388" lon="12.7111495"><ele>248.33333333333331</ele><time>2026-05-01T14:11:29.934Z</time></trkpt><trkpt lat="42.9733419" lon="12.7108612"><ele>249.0</ele><time>2026-05-01T14:11:30.934Z</time></trkpt><trkpt lat="42.973295" lon="12.7105683"><ele>248.0</ele><time>2026-05-01T14:11:31.935Z</time></trkpt><trkpt lat="42.9732478" lon="12.7102689"><ele>247.0</ele><time>2026-05-01T14:11:32.935Z</time></trkpt><trkpt lat="42.9731908" lon="12.7099572"><ele>247.0</ele><time>2026-05-01T14:11:33.935Z</time></trkpt><trkpt lat="42.9731343" lon="12.7096302"><ele>247.0</ele><time>2026-05-01T14:11:34.935Z</time></trkpt><trkpt lat="42.9730798" lon="12.7092975"><ele>247.0</ele><time>2026-05-01T14:11:35.934Z</time></trkpt><trkpt lat="42.9730228" lon="12.7089642"><ele>247.0</ele><time>2026-05-01T14:11:36.935Z</time></trkpt><trkpt lat="42.9729535" lon="12.7086329"><ele>245.5</ele><time>2026-05-01T14:11:37.934Z</time></trkpt><trkpt lat="42.9728809" lon="12.7082949"><ele>244.0</ele><time>2026-05-01T14:11:38.935Z</time></trkpt><trkpt lat="42.9727972" lon="12.7079677"><ele>243.5</ele><time>2026-05-01T14:11:39.935Z</time></trkpt><trkpt lat="42.9727014" lon="12.7076497"><ele>243.0</ele><time>2026-05-01T14:11:40.935Z</time></trkpt><trkpt lat="42.9726005" lon="12.707342"><ele>243.0</ele><time>2026-05-01T14:11:41.935Z</time></trkpt><trkpt lat="42.9724959" lon="12.7070381"><ele>243.0</ele><time>2026-05-01T14:11:42.934Z</time></trkpt><trkpt lat="42.9723858" lon="12.7067402"><ele>242.0</ele><time>2026-05-01T14:11:43.935Z</time></trkpt><trkpt lat="42.9722694" lon="12.7064499"><ele>241.0</ele><time>2026-05-01T14:11:44.935Z</time></trkpt><trkpt lat="42.97215" lon="12.7061709"><ele>244.5</ele><time>2026-05-01T14:11:45.935Z</time></trkpt><trkpt lat="42.9720278" lon="12.7058997"><ele>248.0</ele><time>2026-05-01T14:11:46.935Z</time></trkpt><trkpt lat="42.9719081" lon="12.7056381"><ele>248.0</ele><time>2026-05-01T14:11:47.935Z</time></trkpt><trkpt lat="42.9717902" lon="12.7053665"><ele>248.0</ele><time>2026-05-01T14:11:48.935Z</time></trkpt><trkpt lat="42.9716707" lon="12.705094"><ele>247.0</ele><time>2026-05-01T14:11:49.935Z</time></trkpt><trkpt lat="42.9715481" lon="12.7048258"><ele>246.0</ele><time>2026-05-01T14:11:50.934Z</time></trkpt><trkpt lat="42.9714273" lon="12.7045645"><ele>246.5</ele><time>2026-05-01T14:11:51.935Z</time></trkpt><trkpt lat="42.971313" lon="12.7042998"><ele>247.0</ele><time>2026-05-01T14:11:52.935Z</time></trkpt><trkpt lat="42.9712003" lon="12.7040328"><ele>247.0</ele><time>2026-05-01T14:11:53.935Z</time></trkpt><trkpt lat="42.9710859" lon="12.7037673"><ele>247.0</ele><time>2026-05-01T14:11:54.936Z</time></trkpt><trkpt lat="42.9709717" lon="12.7035019"><ele>245.0</ele><time>2026-05-01T14:11:55.936Z</time></trkpt><trkpt lat="42.9708524" lon="12.7032353"><ele>243.0</ele><time>2026-05-01T14:11:56.936Z</time></trkpt><trkpt lat="42.9707318" lon="12.7029629"><ele>241.5</ele><time>2026-05-01T14:11:57.936Z</time></trkpt><trkpt lat="42.970611" lon="12.7026802"><ele>240.0</ele><time>2026-05-01T14:11:58.935Z</time></trkpt><trkpt lat="42.9704979" lon="12.7023855"><ele>240.0</ele><time>2026-05-01T14:11:59.936Z</time></trkpt><trkpt lat="42.9704074" lon="12.7020635"><ele>240.0</ele><time>2026-05-01T14:12:00.936Z</time></trkpt><trkpt lat="42.9703341" lon="12.7017328"><ele>238.5</ele><time>2026-05-01T14:12:01.936Z</time></trkpt><trkpt lat="42.9702836" lon="12.7013957"><ele>237.0</ele><time>2026-05-01T14:12:02.935Z</time></trkpt><trkpt lat="42.97025" lon="12.7010454"><ele>237.0</ele><time>2026-05-01T14:12:03.935Z</time></trkpt><trkpt lat="42.9702331" lon="12.7006898"><ele>237.0</ele><time>2026-05-01T14:12:04.935Z</time></trkpt><trkpt lat="42.9702325" lon="12.7003354"><ele>237.0</ele><time>2026-05-01T14:12:05.936Z</time></trkpt><trkpt lat="42.9702545" lon="12.6999744"><ele>237.0</ele><time>2026-05-01T14:12:06.935Z</time></trkpt><trkpt lat="42.9702955" lon="12.699624"><ele>237.5</ele><time>2026-05-01T14:12:07.936Z</time></trkpt><trkpt lat="42.9703659" lon="12.6992791"><ele>238.0</ele><time>2026-05-01T14:12:08.936Z</time></trkpt><trkpt lat="42.9704644" lon="12.6989405"><ele>238.0</ele><time>2026-05-01T14:12:09.936Z</time></trkpt><trkpt lat="42.9705732" lon="12.6986198"><ele>238.0</ele><time>2026-05-01T14:12:10.936Z</time></trkpt><trkpt lat="42.9706928" lon="12.6983052"><ele>237.0</ele><time>2026-05-01T14:12:11.936Z</time></trkpt><trkpt lat="42.9708149" lon="12.6979889"><ele>236.0</ele><time>2026-05-01T14:12:12.936Z</time></trkpt><trkpt lat="42.9709381" lon="12.6976634"><ele>236.0</ele><time>2026-05-01T14:12:13.936Z</time></trkpt><trkpt lat="42.9710543" lon="12.6973384"><ele>236.0</ele><time>2026-05-01T14:12:14.935Z</time></trkpt><trkpt lat="42.9711702" lon="12.6970113"><ele>236.5</ele><time>2026-05-01T14:12:15.936Z</time></trkpt><trkpt lat="42.9712879" lon="12.6966833"><ele>237.0</ele><time>2026-05-01T14:12:16.936Z</time></trkpt><trkpt lat="42.9714066" lon="12.6963541"><ele>235.0</ele><time>2026-05-01T14:12:17.936Z</time></trkpt><trkpt lat="42.9715283" lon="12.6960206"><ele>233.0</ele><time>2026-05-01T14:12:18.936Z</time></trkpt><trkpt lat="42.9716443" lon="12.6956883"><ele>233.0</ele><time>2026-05-01T14:12:19.936Z</time></trkpt><trkpt lat="42.9717552" lon="12.6953491"><ele>233.0</ele><time>2026-05-01T14:12:20.936Z</time></trkpt><trkpt lat="42.9718665" lon="12.6950065"><ele>233.0</ele><time>2026-05-01T14:12:21.935Z</time></trkpt><trkpt lat="42.9719793" lon="12.6946703"><ele>233.0</ele><time>2026-05-01T14:12:22.935Z</time></trkpt><trkpt lat="42.9720953" lon="12.6943364"><ele>233.5</ele><time>2026-05-01T14:12:23.936Z</time></trkpt><trkpt lat="42.9722111" lon="12.6940099"><ele>234.0</ele><time>2026-05-01T14:12:24.936Z</time></trkpt><trkpt lat="42.972331" lon="12.6936715"><ele>234.0</ele><time>2026-05-01T14:12:25.936Z</time></trkpt><trkpt lat="42.9724516" lon="12.6933461"><ele>234.0</ele><time>2026-05-01T14:12:26.936Z</time></trkpt><trkpt lat="42.9725646" lon="12.693022"><ele>234.0</ele><time>2026-05-01T14:12:27.936Z</time></trkpt><trkpt lat="42.9726888" lon="12.6926965"><ele>234.0</ele><time>2026-05-01T14:12:28.936Z</time></trkpt><trkpt lat="42.9728072" lon="12.6923794"><ele>234.0</ele><time>2026-05-01T14:12:29.935Z</time></trkpt><trkpt lat="42.9729409" lon="12.6920662"><ele>234.0</ele><time>2026-05-01T14:12:30.936Z</time></trkpt><trkpt lat="42.973085" lon="12.6917633"><ele>234.0</ele><time>2026-05-01T14:12:31.935Z</time></trkpt><trkpt lat="42.9732377" lon="12.6914687"><ele>234.0</ele><time>2026-05-01T14:12:32.936Z</time></trkpt><trkpt lat="42.9733783" lon="12.6911711"><ele>236.0</ele><time>2026-05-01T14:12:33.936Z</time></trkpt><trkpt lat="42.9735228" lon="12.6908578"><ele>238.0</ele><time>2026-05-01T14:12:34.936Z</time></trkpt><trkpt lat="42.9736698" lon="12.690555"><ele>236.5</ele><time>2026-05-01T14:12:35.936Z</time></trkpt><trkpt lat="42.973812" lon="12.6902576"><ele>235.0</ele><time>2026-05-01T14:12:36.935Z</time></trkpt><trkpt lat="42.9739592" lon="12.689953"><ele>235.0</ele><time>2026-05-01T14:12:37.936Z</time></trkpt><trkpt lat="42.9741023" lon="12.6896511"><ele>235.0</ele><time>2026-05-01T14:12:38.936Z</time></trkpt><trkpt lat="42.9742391" lon="12.6893477"><ele>233.5</ele><time>2026-05-01T14:12:39.936Z</time></trkpt><trkpt lat="42.9743712" lon="12.689051"><ele>232.0</ele><time>2026-05-01T14:12:40.936Z</time></trkpt><trkpt lat="42.9745022" lon="12.6887543"><ele>231.0</ele><time>2026-05-01T14:12:41.935Z</time></trkpt><trkpt lat="42.9746318" lon="12.688441"><ele>230.0</ele><time>2026-05-01T14:12:42.935Z</time></trkpt><trkpt lat="42.9747544" lon="12.6881338"><ele>230.0</ele><time>2026-05-01T14:12:43.935Z</time></trkpt><trkpt lat="42.97489" lon="12.6878309"><ele>230.0</ele><time>2026-05-01T14:12:44.936Z</time></trkpt><trkpt lat="42.9750313" lon="12.6875196"><ele>229.0</ele><time>2026-05-01T14:12:45.935Z</time></trkpt><trkpt lat="42.9751817" lon="12.6872153"><ele>228.0</ele><time>2026-05-01T14:12:46.936Z</time></trkpt><trkpt lat="42.9753268" lon="12.6869072"><ele>227.0</ele><time>2026-05-01T14:12:47.936Z</time></trkpt><trkpt lat="42.975474" lon="12.6865963"><ele>226.0</ele><time>2026-05-01T14:12:48.936Z</time></trkpt><trkpt lat="42.9756192" lon="12.6862853"><ele>226.0</ele><time>2026-05-01T14:12:49.936Z</time></trkpt><trkpt lat="42.9757654" lon="12.6859702"><ele>226.0</ele><time>2026-05-01T14:12:50.935Z</time></trkpt><trkpt lat="42.9759115" lon="12.6856535"><ele>227.0</ele><time>2026-05-01T14:12:51.935Z</time></trkpt><trkpt lat="42.9760595" lon="12.6853396"><ele>228.0</ele><time>2026-05-01T14:12:52.936Z</time></trkpt><trkpt lat="42.9762144" lon="12.6850238"><ele>228.0</ele><time>2026-05-01T14:12:53.936Z</time></trkpt><trkpt lat="42.9763717" lon="12.6847099"><ele>228.0</ele><time>2026-05-01T14:12:54.935Z</time></trkpt><trkpt lat="42.9765271" lon="12.6843893"><ele>227.0</ele><time>2026-05-01T14:12:55.936Z</time></trkpt><trkpt lat="42.9766841" lon="12.6840727"><ele>226.0</ele><time>2026-05-01T14:12:56.935Z</time></trkpt><trkpt lat="42.9768348" lon="12.6837532"><ele>226.5</ele><time>2026-05-01T14:12:57.936Z</time></trkpt><trkpt lat="42.9769839" lon="12.6834322"><ele>227.0</ele><time>2026-05-01T14:12:58.936Z</time></trkpt><trkpt lat="42.97713" lon="12.6831115"><ele>227.0</ele><time>2026-05-01T14:12:59.936Z</time></trkpt><trkpt lat="42.9772744" lon="12.6827943"><ele>227.0</ele><time>2026-05-01T14:13:00.936Z</time></trkpt><trkpt lat="42.9774211" lon="12.6824771"><ele>226.0</ele><time>2026-05-01T14:13:01.936Z</time></trkpt><trkpt lat="42.977571" lon="12.6821635"><ele>225.0</ele><time>2026-05-01T14:13:02.936Z</time></trkpt><trkpt lat="42.9777175" lon="12.6818514"><ele>224.5</ele><time>2026-05-01T14:13:03.936Z</time></trkpt><trkpt lat="42.9778625" lon="12.6815411"><ele>224.0</ele><time>2026-05-01T14:13:04.936Z</time></trkpt><trkpt lat="42.9780078" lon="12.6812305"><ele>223.5</ele><time>2026-05-01T14:13:05.936Z</time></trkpt><trkpt lat="42.9781542" lon="12.6809251"><ele>223.0</ele><time>2026-05-01T14:13:06.935Z</time></trkpt><trkpt lat="42.9783001" lon="12.6806257"><ele>224.0</ele><time>2026-05-01T14:13:07.936Z</time></trkpt><trkpt lat="42.9784474" lon="12.6803177"><ele>225.0</ele><time>2026-05-01T14:13:08.936Z</time></trkpt><trkpt lat="42.9785914" lon="12.6800089"><ele>225.0</ele><time>2026-05-01T14:13:09.936Z</time></trkpt><trkpt lat="42.9787324" lon="12.6796985"><ele>225.0</ele><time>2026-05-01T14:13:10.936Z</time></trkpt><trkpt lat="42.9788732" lon="12.6793906"><ele>223.5</ele><time>2026-05-01T14:13:11.936Z</time></trkpt><trkpt lat="42.9790157" lon="12.6790807"><ele>222.0</ele><time>2026-05-01T14:13:12.936Z</time></trkpt><trkpt lat="42.9791616" lon="12.6787738"><ele>222.5</ele><time>2026-05-01T14:13:13.935Z</time></trkpt><trkpt lat="42.9793044" lon="12.6784696"><ele>223.0</ele><time>2026-05-01T14:13:14.935Z</time></trkpt><trkpt lat="42.9794512" lon="12.6781719"><ele>223.0</ele><time>2026-05-01T14:13:15.935Z</time></trkpt><trkpt lat="42.9796038" lon="12.677878"><ele>223.0</ele><time>2026-05-01T14:13:16.935Z</time></trkpt><trkpt lat="42.9797696" lon="12.6775874"><ele>223.5</ele><time>2026-05-01T14:13:17.936Z</time></trkpt><trkpt lat="42.9799396" lon="12.6773089"><ele>224.0</ele><time>2026-05-01T14:13:18.936Z</time></trkpt><trkpt lat="42.9801173" lon="12.6770376"><ele>223.5</ele><time>2026-05-01T14:13:19.935Z</time></trkpt><trkpt lat="42.9802943" lon="12.6767745"><ele>223.0</ele><time>2026-05-01T14:13:20.936Z</time></trkpt><trkpt lat="42.9804802" lon="12.6765044"><ele>223.0</ele><time>2026-05-01T14:13:21.936Z</time></trkpt><trkpt lat="42.98066" lon="12.6762506"><ele>223.0</ele><time>2026-05-01T14:13:22.936Z</time></trkpt><trkpt lat="42.9808516" lon="12.6759892"><ele>222.5</ele><time>2026-05-01T14:13:23.936Z</time></trkpt><trkpt lat="42.9810478" lon="12.6757409"><ele>222.0</ele><time>2026-05-01T14:13:24.936Z</time></trkpt><trkpt lat="42.9812416" lon="12.6754833"><ele>221.5</ele><time>2026-05-01T14:13:25.935Z</time></trkpt><trkpt lat="42.9814295" lon="12.6752308"><ele>221.0</ele><time>2026-05-01T14:13:26.936Z</time></trkpt><trkpt lat="42.98162" lon="12.6749778"><ele>222.0</ele><time>2026-05-01T14:13:27.936Z</time></trkpt><trkpt lat="42.9818157" lon="12.6747272"><ele>223.0</ele><time>2026-05-01T14:13:28.936Z</time></trkpt><trkpt lat="42.9820049" lon="12.6744787"><ele>222.0</ele><time>2026-05-01T14:13:29.936Z</time></trkpt><trkpt lat="42.9821958" lon="12.67422"><ele>221.0</ele><time>2026-05-01T14:13:30.936Z</time></trkpt><trkpt lat="42.9823882" lon="12.6739697"><ele>222.5</ele><time>2026-05-01T14:13:31.935Z</time></trkpt><trkpt lat="42.9825794" lon="12.6737187"><ele>224.0</ele><time>2026-05-01T14:13:32.935Z</time></trkpt><trkpt lat="42.9827665" lon="12.6734704"><ele>224.5</ele><time>2026-05-01T14:13:33.935Z</time></trkpt><trkpt lat="42.982948" lon="12.6732235"><ele>225.0</ele><time>2026-05-01T14:13:34.936Z</time></trkpt><trkpt lat="42.9831325" lon="12.6729489"><ele>224.5</ele><time>2026-05-01T14:13:35.936Z</time></trkpt><trkpt lat="42.9833174" lon="12.6726927"><ele>224.0</ele><time>2026-05-01T14:13:36.936Z</time></trkpt><trkpt lat="42.983505" lon="12.6724479"><ele>224.0</ele><time>2026-05-01T14:13:37.936Z</time></trkpt><trkpt lat="42.983692" lon="12.6722235"><ele>224.0</ele><time>2026-05-01T14:13:38.936Z</time></trkpt><trkpt lat="42.9838597" lon="12.6719999"><ele>223.5</ele><time>2026-05-01T14:13:39.936Z</time></trkpt><trkpt lat="42.9840427" lon="12.6717629"><ele>223.0</ele><time>2026-05-01T14:13:40.935Z</time></trkpt><trkpt lat="42.9842227" lon="12.6715333"><ele>223.0</ele><time>2026-05-01T14:13:41.936Z</time></trkpt><trkpt lat="42.984399" lon="12.6713133"><ele>223.0</ele><time>2026-05-01T14:13:42.936Z</time></trkpt><trkpt lat="42.9845666" lon="12.6710966"><ele>223.0</ele><time>2026-05-01T14:13:43.936Z</time></trkpt><trkpt lat="42.9847306" lon="12.6708738"><ele>223.0</ele><time>2026-05-01T14:13:44.936Z</time></trkpt><trkpt lat="42.9848829" lon="12.6706632"><ele>223.0</ele><time>2026-05-01T14:13:45.936Z</time></trkpt><trkpt lat="42.9850325" lon="12.670456"><ele>223.66666666666666</ele><time>2026-05-01T14:13:46.935Z</time></trkpt><trkpt lat="42.9851814" lon="12.6702526"><ele>224.33333333333331</ele><time>2026-05-01T14:13:47.936Z</time></trkpt><trkpt lat="42.9853371" lon="12.6700422"><ele>225.0</ele><time>2026-05-01T14:13:48.936Z</time></trkpt><trkpt lat="42.9854905" lon="12.669845"><ele>225.0</ele><time>2026-05-01T14:13:49.936Z</time></trkpt><trkpt lat="42.9856447" lon="12.669639"><ele>225.0</ele><time>2026-05-01T14:13:50.935Z</time></trkpt><trkpt lat="42.9858061" lon="12.6694312"><ele>225.0</ele><time>2026-05-01T14:13:51.935Z</time></trkpt><trkpt lat="42.9859634" lon="12.6692207"><ele>224.5</ele><time>2026-05-01T14:13:52.936Z</time></trkpt><trkpt lat="42.9861271" lon="12.6690086"><ele>224.0</ele><time>2026-05-01T14:13:53.936Z</time></trkpt><trkpt lat="42.9862912" lon="12.6687809"><ele>224.5</ele><time>2026-05-01T14:13:54.936Z</time></trkpt><trkpt lat="42.9864597" lon="12.6685542"><ele>225.0</ele><time>2026-05-01T14:13:55.936Z</time></trkpt><trkpt lat="42.9866305" lon="12.6683321"><ele>223.0</ele><time>2026-05-01T14:13:56.936Z</time></trkpt><trkpt lat="42.9868018" lon="12.6681003"><ele>221.0</ele><time>2026-05-01T14:13:57.936Z</time></trkpt><trkpt lat="42.9869734" lon="12.6678743"><ele>221.0</ele><time>2026-05-01T14:13:58.936Z</time></trkpt><trkpt lat="42.9871465" lon="12.6676533"><ele>221.0</ele><time>2026-05-01T14:13:59.935Z</time></trkpt><trkpt lat="42.9873281" lon="12.6674372"><ele>220.0</ele><time>2026-05-01T14:14:00.936Z</time></trkpt><trkpt lat="42.9875357" lon="12.66723"><ele>219.0</ele><time>2026-05-01T14:14:01.936Z</time></trkpt><trkpt lat="42.9877622" lon="12.6670431"><ele>218.0</ele><time>2026-05-01T14:14:02.935Z</time></trkpt><trkpt lat="42.9879939" lon="12.6668688"><ele>217.0</ele><time>2026-05-01T14:14:03.936Z</time></trkpt><trkpt lat="42.9882379" lon="12.6667"><ele>216.0</ele><time>2026-05-01T14:14:04.936Z</time></trkpt><trkpt lat="42.9884913" lon="12.6665327"><ele>215.0</ele><time>2026-05-01T14:14:05.936Z</time></trkpt><trkpt lat="42.9887537" lon="12.6663706"><ele>215.0</ele><time>2026-05-01T14:14:06.936Z</time></trkpt><trkpt lat="42.9890191" lon="12.6662159"><ele>215.0</ele><time>2026-05-01T14:14:07.936Z</time></trkpt><trkpt lat="42.989284" lon="12.6660676"><ele>215.0</ele><time>2026-05-01T14:14:08.936Z</time></trkpt><trkpt lat="42.9895447" lon="12.6659116"><ele>215.0</ele><time>2026-05-01T14:14:09.936Z</time></trkpt><trkpt lat="42.989808" lon="12.665763"><ele>215.0</ele><time>2026-05-01T14:14:10.935Z</time></trkpt><trkpt lat="42.9900734" lon="12.665613"><ele>215.0</ele><time>2026-05-01T14:14:11.935Z</time></trkpt><trkpt lat="42.9903388" lon="12.6654622"><ele>215.0</ele><time>2026-05-01T14:14:12.936Z</time></trkpt><trkpt lat="42.9906165" lon="12.6653161"><ele>215.0</ele><time>2026-05-01T14:14:13.936Z</time></trkpt><trkpt lat="42.9908915" lon="12.6651639"><ele>214.0</ele><time>2026-05-01T14:14:14.936Z</time></trkpt><trkpt lat="42.991165" lon="12.6650082"><ele>213.0</ele><time>2026-05-01T14:14:15.935Z</time></trkpt><trkpt lat="42.9914436" lon="12.6648487"><ele>212.0</ele><time>2026-05-01T14:14:16.936Z</time></trkpt><trkpt lat="42.9917302" lon="12.6646802"><ele>211.0</ele><time>2026-05-01T14:14:17.935Z</time></trkpt><trkpt lat="42.992014" lon="12.6645267"><ele>211.0</ele><time>2026-05-01T14:14:18.936Z</time></trkpt><trkpt lat="42.9922921" lon="12.6643767"><ele>211.0</ele><time>2026-05-01T14:14:19.935Z</time></trkpt><trkpt lat="42.9925678" lon="12.664221"><ele>210.5</ele><time>2026-05-01T14:14:20.936Z</time></trkpt><trkpt lat="42.9928422" lon="12.6640648"><ele>210.0</ele><time>2026-05-01T14:14:21.935Z</time></trkpt><trkpt lat="42.9931035" lon="12.6639149"><ele>210.0</ele><time>2026-05-01T14:14:22.936Z</time></trkpt><trkpt lat="42.993367" lon="12.6637534"><ele>210.0</ele><time>2026-05-01T14:14:23.936Z</time></trkpt><trkpt lat="42.9936329" lon="12.6636027"><ele>209.5</ele><time>2026-05-01T14:14:24.936Z</time></trkpt><trkpt lat="42.9938951" lon="12.6634569"><ele>209.0</ele><time>2026-05-01T14:14:25.935Z</time></trkpt><trkpt lat="42.9941624" lon="12.6633073"><ele>209.0</ele><time>2026-05-01T14:14:26.936Z</time></trkpt><trkpt lat="42.9944244" lon="12.66316"><ele>209.0</ele><time>2026-05-01T14:14:27.936Z</time></trkpt><trkpt lat="42.9946828" lon="12.6630179"><ele>209.0</ele><time>2026-05-01T14:14:28.935Z</time></trkpt><trkpt lat="42.9949302" lon="12.6628792"><ele>209.0</ele><time>2026-05-01T14:14:29.936Z</time></trkpt><trkpt lat="42.995171" lon="12.6627448"><ele>209.0</ele><time>2026-05-01T14:14:30.935Z</time></trkpt><trkpt lat="42.9954086" lon="12.6626109"><ele>209.0</ele><time>2026-05-01T14:14:31.936Z</time></trkpt><trkpt lat="42.9956432" lon="12.6624887"><ele>208.5</ele><time>2026-05-01T14:14:32.936Z</time></trkpt><trkpt lat="42.9958886" lon="12.6623731"><ele>208.0</ele><time>2026-05-01T14:14:33.936Z</time></trkpt><trkpt lat="42.9961471" lon="12.6622693"><ele>208.0</ele><time>2026-05-01T14:14:34.935Z</time></trkpt><trkpt lat="42.996419" lon="12.6621711"><ele>208.0</ele><time>2026-05-01T14:14:35.935Z</time></trkpt><trkpt lat="42.9966914" lon="12.6620889"><ele>209.0</ele><time>2026-05-01T14:14:36.936Z</time></trkpt><trkpt lat="42.9969598" lon="12.6620198"><ele>210.0</ele><time>2026-05-01T14:14:37.935Z</time></trkpt><trkpt lat="42.9972317" lon="12.6619641"><ele>210.0</ele><time>2026-05-01T14:14:38.936Z</time></trkpt><trkpt lat="42.9975021" lon="12.6619089"><ele>210.0</ele><time>2026-05-01T14:14:39.936Z</time></trkpt><trkpt lat="42.9977795" lon="12.6618498"><ele>210.0</ele><time>2026-05-01T14:14:40.936Z</time></trkpt><trkpt lat="42.9980528" lon="12.6617869"><ele>210.0</ele><time>2026-05-01T14:14:41.936Z</time></trkpt><trkpt lat="42.9983253" lon="12.6617387"><ele>209.5</ele><time>2026-05-01T14:14:42.936Z</time></trkpt><trkpt lat="42.9985959" lon="12.6616837"><ele>209.0</ele><time>2026-05-01T14:14:43.936Z</time></trkpt><trkpt lat="42.9988584" lon="12.661628"><ele>209.0</ele><time>2026-05-01T14:14:44.936Z</time></trkpt><trkpt lat="42.9991185" lon="12.6615635"><ele>209.0</ele><time>2026-05-01T14:14:45.936Z</time></trkpt><trkpt lat="42.9993858" lon="12.6614979"><ele>209.0</ele><time>2026-05-01T14:14:46.935Z</time></trkpt><trkpt lat="42.9996595" lon="12.6614296"><ele>209.0</ele><time>2026-05-01T14:14:47.936Z</time></trkpt><trkpt lat="42.9999482" lon="12.6613497"><ele>209.0</ele><time>2026-05-01T14:14:48.936Z</time></trkpt><trkpt lat="43.0002399" lon="12.6612817"><ele>209.0</ele><time>2026-05-01T14:14:49.936Z</time></trkpt><trkpt lat="43.0005298" lon="12.6611988"><ele>209.0</ele><time>2026-05-01T14:14:50.935Z</time></trkpt><trkpt lat="43.0008238" lon="12.6611331"><ele>209.0</ele><time>2026-05-01T14:14:51.936Z</time></trkpt><trkpt lat="43.0011229" lon="12.6610611"><ele>208.5</ele><time>2026-05-01T14:14:52.936Z</time></trkpt><trkpt lat="43.0014232" lon="12.6609881"><ele>208.0</ele><time>2026-05-01T14:14:53.936Z</time></trkpt><trkpt lat="43.0017265" lon="12.6609196"><ele>206.5</ele><time>2026-05-01T14:14:54.935Z</time></trkpt><trkpt lat="43.0020372" lon="12.6608537"><ele>205.0</ele><time>2026-05-01T14:14:55.936Z</time></trkpt><trkpt lat="43.0023459" lon="12.6607821"><ele>205.0</ele><time>2026-05-01T14:14:56.936Z</time></trkpt><trkpt lat="43.0026489" lon="12.6607124"><ele>205.0</ele><time>2026-05-01T14:14:57.936Z</time></trkpt><trkpt lat="43.0029425" lon="12.6606417"><ele>205.0</ele><time>2026-05-01T14:14:58.936Z</time></trkpt><trkpt lat="43.0032349" lon="12.6605529"><ele>205.0</ele><time>2026-05-01T14:14:59.935Z</time></trkpt><trkpt lat="43.0035261" lon="12.6604438"><ele>206.5</ele><time>2026-05-01T14:15:00.936Z</time></trkpt><trkpt lat="43.0038137" lon="12.6603364"><ele>208.0</ele><time>2026-05-01T14:15:01.935Z</time></trkpt><trkpt lat="43.0040981" lon="12.6602183"><ele>206.0</ele><time>2026-05-01T14:15:02.936Z</time></trkpt><trkpt lat="43.0043806" lon="12.6600926"><ele>204.0</ele><time>2026-05-01T14:15:03.936Z</time></trkpt><trkpt lat="43.0046574" lon="12.6599561"><ele>204.0</ele><time>2026-05-01T14:15:04.936Z</time></trkpt><trkpt lat="43.0049429" lon="12.6597991"><ele>204.0</ele><time>2026-05-01T14:15:05.936Z</time></trkpt><trkpt lat="43.0052256" lon="12.6596248"><ele>205.0</ele><time>2026-05-01T14:15:06.936Z</time></trkpt><trkpt lat="43.0054986" lon="12.6594468"><ele>206.0</ele><time>2026-05-01T14:15:07.936Z</time></trkpt><trkpt lat="43.0057737" lon="12.6592537"><ele>207.0</ele><time>2026-05-01T14:15:08.936Z</time></trkpt><trkpt lat="43.006048" lon="12.6590486"><ele>208.0</ele><time>2026-05-01T14:15:09.936Z</time></trkpt><trkpt lat="43.0063096" lon="12.6588218"><ele>207.5</ele><time>2026-05-01T14:15:10.936Z</time></trkpt><trkpt lat="43.0065683" lon="12.6585958"><ele>207.0</ele><time>2026-05-01T14:15:11.935Z</time></trkpt><trkpt lat="43.0068315" lon="12.6583629"><ele>207.0</ele><time>2026-05-01T14:15:12.936Z</time></trkpt><trkpt lat="43.0070909" lon="12.658128"><ele>207.0</ele><time>2026-05-01T14:15:13.935Z</time></trkpt><trkpt lat="43.0073466" lon="12.6578992"><ele>205.0</ele><time>2026-05-01T14:15:14.935Z</time></trkpt><trkpt lat="43.0076041" lon="12.6576643"><ele>203.0</ele><time>2026-05-01T14:15:15.935Z</time></trkpt><trkpt lat="43.0078612" lon="12.6574318"><ele>203.0</ele><time>2026-05-01T14:15:16.935Z</time></trkpt><trkpt lat="43.008121" lon="12.657196"><ele>203.0</ele><time>2026-05-01T14:15:17.935Z</time></trkpt><trkpt lat="43.0083725" lon="12.6569651"><ele>203.0</ele><time>2026-05-01T14:15:18.936Z</time></trkpt><trkpt lat="43.0086217" lon="12.6567371"><ele>203.0</ele><time>2026-05-01T14:15:19.936Z</time></trkpt><trkpt lat="43.0088705" lon="12.6565061"><ele>203.0</ele><time>2026-05-01T14:15:20.936Z</time></trkpt><trkpt lat="43.0091123" lon="12.6562723"><ele>203.0</ele><time>2026-05-01T14:15:21.936Z</time></trkpt><trkpt lat="43.0093569" lon="12.6560392"><ele>202.5</ele><time>2026-05-01T14:15:22.935Z</time></trkpt><trkpt lat="43.0096027" lon="12.655826"><ele>202.0</ele><time>2026-05-01T14:15:23.936Z</time></trkpt><trkpt lat="43.0098482" lon="12.6556126"><ele>202.0</ele><time>2026-05-01T14:15:24.936Z</time></trkpt><trkpt lat="43.0100924" lon="12.655389"><ele>202.0</ele><time>2026-05-01T14:15:25.936Z</time></trkpt><trkpt lat="43.0103348" lon="12.6551695"><ele>201.5</ele><time>2026-05-01T14:15:26.936Z</time></trkpt><trkpt lat="43.0105779" lon="12.6549486"><ele>201.0</ele><time>2026-05-01T14:15:27.935Z</time></trkpt><trkpt lat="43.010824" lon="12.6547288"><ele>201.0</ele><time>2026-05-01T14:15:28.936Z</time></trkpt><trkpt lat="43.0110706" lon="12.654516"><ele>201.0</ele><time>2026-05-01T14:15:29.936Z</time></trkpt><trkpt lat="43.0113152" lon="12.6542947"><ele>201.0</ele><time>2026-05-01T14:15:30.936Z</time></trkpt><trkpt lat="43.0115674" lon="12.6540833"><ele>201.0</ele><time>2026-05-01T14:15:31.936Z</time></trkpt><trkpt lat="43.0118174" lon="12.6538708"><ele>201.5</ele><time>2026-05-01T14:15:32.936Z</time></trkpt><trkpt lat="43.0120657" lon="12.6536514"><ele>202.0</ele><time>2026-05-01T14:15:33.935Z</time></trkpt><trkpt lat="43.0123148" lon="12.6534218"><ele>201.5</ele><time>2026-05-01T14:15:34.936Z</time></trkpt><trkpt lat="43.0125755" lon="12.6532021"><ele>201.0</ele><time>2026-05-01T14:15:35.936Z</time></trkpt><trkpt lat="43.0128387" lon="12.6529785"><ele>201.0</ele><time>2026-05-01T14:15:36.936Z</time></trkpt><trkpt lat="43.0130891" lon="12.652752"><ele>201.0</ele><time>2026-05-01T14:15:37.936Z</time></trkpt><trkpt lat="43.0133326" lon="12.6525092"><ele>201.0</ele><time>2026-05-01T14:15:38.935Z</time></trkpt><trkpt lat="43.0135744" lon="12.6522516"><ele>201.0</ele><time>2026-05-01T14:15:39.935Z</time></trkpt><trkpt lat="43.0138113" lon="12.6519882"><ele>200.5</ele><time>2026-05-01T14:15:40.936Z</time></trkpt><trkpt lat="43.0140396" lon="12.6517195"><ele>200.0</ele><time>2026-05-01T14:15:41.936Z</time></trkpt><trkpt lat="43.0142715" lon="12.6514402"><ele>201.0</ele><time>2026-05-01T14:15:42.936Z</time></trkpt><trkpt lat="43.0145025" lon="12.6511571"><ele>202.0</ele><time>2026-05-01T14:15:43.936Z</time></trkpt><trkpt lat="43.0147247" lon="12.6508712"><ele>202.0</ele><time>2026-05-01T14:15:44.936Z</time></trkpt><trkpt lat="43.0149409" lon="12.6505765"><ele>202.0</ele><time>2026-05-01T14:15:45.936Z</time></trkpt><trkpt lat="43.0151574" lon="12.6502721"><ele>203.0</ele><time>2026-05-01T14:15:46.936Z</time></trkpt><trkpt lat="43.0153739" lon="12.649972"><ele>204.0</ele><time>2026-05-01T14:15:47.936Z</time></trkpt><trkpt lat="43.0155912" lon="12.649672"><ele>203.5</ele><time>2026-05-01T14:15:48.936Z</time></trkpt><trkpt lat="43.0158109" lon="12.6493665"><ele>203.0</ele><time>2026-05-01T14:15:49.935Z</time></trkpt><trkpt lat="43.0160285" lon="12.649059"><ele>205.0</ele><time>2026-05-01T14:15:50.936Z</time></trkpt><trkpt lat="43.0162506" lon="12.6487575"><ele>207.0</ele><time>2026-05-01T14:15:51.936Z</time></trkpt><trkpt lat="43.0164743" lon="12.6484535"><ele>209.0</ele><time>2026-05-01T14:15:52.936Z</time></trkpt><trkpt lat="43.016697" lon="12.6481493"><ele>211.0</ele><time>2026-05-01T14:15:53.936Z</time></trkpt><trkpt lat="43.0169206" lon="12.6478396"><ele>209.0</ele><time>2026-05-01T14:15:54.936Z</time></trkpt><trkpt lat="43.0171383" lon="12.6475342"><ele>207.0</ele><time>2026-05-01T14:15:55.935Z</time></trkpt><trkpt lat="43.0173554" lon="12.6472277"><ele>208.0</ele><time>2026-05-01T14:15:56.936Z</time></trkpt><trkpt lat="43.0175705" lon="12.6469191"><ele>209.0</ele><time>2026-05-01T14:15:57.936Z</time></trkpt><trkpt lat="43.0177858" lon="12.6466122"><ele>209.0</ele><time>2026-05-01T14:15:58.935Z</time></trkpt><trkpt lat="43.0180042" lon="12.6463027"><ele>209.0</ele><time>2026-05-01T14:15:59.935Z</time></trkpt><trkpt lat="43.0182231" lon="12.6459973"><ele>209.5</ele><time>2026-05-01T14:16:00.936Z</time></trkpt><trkpt lat="43.0184411" lon="12.6456958"><ele>210.0</ele><time>2026-05-01T14:16:01.936Z</time></trkpt><trkpt lat="43.0186612" lon="12.6453967"><ele>209.5</ele><time>2026-05-01T14:16:02.935Z</time></trkpt><trkpt lat="43.0188806" lon="12.6451025"><ele>209.0</ele><time>2026-05-01T14:16:03.936Z</time></trkpt><trkpt lat="43.0191046" lon="12.6448009"><ele>209.0</ele><time>2026-05-01T14:16:04.935Z</time></trkpt><trkpt lat="43.0193242" lon="12.6444966"><ele>209.0</ele><time>2026-05-01T14:16:05.936Z</time></trkpt><trkpt lat="43.0195522" lon="12.644193"><ele>209.0</ele><time>2026-05-01T14:16:06.936Z</time></trkpt><trkpt lat="43.0197693" lon="12.6438809"><ele>209.0</ele><time>2026-05-01T14:16:07.935Z</time></trkpt><trkpt lat="43.0199823" lon="12.6435828"><ele>210.0</ele><time>2026-05-01T14:16:08.935Z</time></trkpt><trkpt lat="43.020197" lon="12.6432851"><ele>211.0</ele><time>2026-05-01T14:16:09.936Z</time></trkpt><trkpt lat="43.0204114" lon="12.6429866"><ele>210.5</ele><time>2026-05-01T14:16:10.936Z</time></trkpt><trkpt lat="43.0206289" lon="12.6426933"><ele>210.0</ele><time>2026-05-01T14:16:11.935Z</time></trkpt><trkpt lat="43.0208438" lon="12.6424021"><ele>210.0</ele><time>2026-05-01T14:16:12.936Z</time></trkpt><trkpt lat="43.0210663" lon="12.6421018"><ele>210.0</ele><time>2026-05-01T14:16:13.936Z</time></trkpt><trkpt lat="43.0212961" lon="12.6418196"><ele>209.5</ele><time>2026-05-01T14:16:14.936Z</time></trkpt><trkpt lat="43.0215409" lon="12.641544"><ele>209.0</ele><time>2026-05-01T14:16:15.936Z</time></trkpt><trkpt lat="43.0217981" lon="12.6412958"><ele>206.5</ele><time>2026-05-01T14:16:16.936Z</time></trkpt><trkpt lat="43.0220514" lon="12.6410517"><ele>204.0</ele><time>2026-05-01T14:16:17.936Z</time></trkpt><trkpt lat="43.0223028" lon="12.6408128"><ele>204.5</ele><time>2026-05-01T14:16:18.936Z</time></trkpt><trkpt lat="43.0225601" lon="12.6405934"><ele>205.0</ele><time>2026-05-01T14:16:19.936Z</time></trkpt><trkpt lat="43.0228213" lon="12.6403624"><ele>204.0</ele><time>2026-05-01T14:16:20.936Z</time></trkpt><trkpt lat="43.0230799" lon="12.6401339"><ele>203.0</ele><time>2026-05-01T14:16:21.936Z</time></trkpt><trkpt lat="43.0233375" lon="12.6399011"><ele>202.5</ele><time>2026-05-01T14:16:22.936Z</time></trkpt><trkpt lat="43.0235961" lon="12.6396692"><ele>202.0</ele><time>2026-05-01T14:16:23.935Z</time></trkpt><trkpt lat="43.0238485" lon="12.6394342"><ele>202.0</ele><time>2026-05-01T14:16:24.935Z</time></trkpt><trkpt lat="43.0241024" lon="12.6391971"><ele>202.0</ele><time>2026-05-01T14:16:25.935Z</time></trkpt><trkpt lat="43.0243599" lon="12.6389532"><ele>202.0</ele><time>2026-05-01T14:16:26.935Z</time></trkpt><trkpt lat="43.0246133" lon="12.6387053"><ele>202.0</ele><time>2026-05-01T14:16:27.936Z</time></trkpt><trkpt lat="43.0248678" lon="12.6384708"><ele>201.0</ele><time>2026-05-01T14:16:28.936Z</time></trkpt><trkpt lat="43.0251111" lon="12.6382367"><ele>200.0</ele><time>2026-05-01T14:16:29.935Z</time></trkpt><trkpt lat="43.0253563" lon="12.6379989"><ele>198.5</ele><time>2026-05-01T14:16:30.935Z</time></trkpt><trkpt lat="43.0256012" lon="12.6377607"><ele>197.0</ele><time>2026-05-01T14:16:31.936Z</time></trkpt><trkpt lat="43.0258567" lon="12.6375261"><ele>197.0</ele><time>2026-05-01T14:16:32.936Z</time></trkpt><trkpt lat="43.02611" lon="12.6372882"><ele>197.0</ele><time>2026-05-01T14:16:33.935Z</time></trkpt><trkpt lat="43.0263547" lon="12.6370631"><ele>196.0</ele><time>2026-05-01T14:16:34.936Z</time></trkpt><trkpt lat="43.0266076" lon="12.6368433"><ele>195.0</ele><time>2026-05-01T14:16:35.936Z</time></trkpt><trkpt lat="43.0268599" lon="12.6366125"><ele>197.5</ele><time>2026-05-01T14:16:36.936Z</time></trkpt><trkpt lat="43.0271052" lon="12.6363892"><ele>200.0</ele><time>2026-05-01T14:16:37.936Z</time></trkpt><trkpt lat="43.0273538" lon="12.6361658"><ele>199.5</ele><time>2026-05-01T14:16:38.935Z</time></trkpt><trkpt lat="43.0275928" lon="12.635934"><ele>199.0</ele><time>2026-05-01T14:16:39.936Z</time></trkpt><trkpt lat="43.0278453" lon="12.6357018"><ele>199.0</ele><time>2026-05-01T14:16:40.935Z</time></trkpt><trkpt lat="43.0280777" lon="12.635484"><ele>199.0</ele><time>2026-05-01T14:16:41.935Z</time></trkpt><trkpt lat="43.0283271" lon="12.6352626"><ele>200.0</ele><time>2026-05-01T14:16:42.935Z</time></trkpt><trkpt lat="43.0285684" lon="12.6350341"><ele>201.0</ele><time>2026-05-01T14:16:43.936Z</time></trkpt><trkpt lat="43.0288123" lon="12.6348071"><ele>201.0</ele><time>2026-05-01T14:16:44.936Z</time></trkpt><trkpt lat="43.0290564" lon="12.6345838"><ele>201.0</ele><time>2026-05-01T14:16:45.936Z</time></trkpt><trkpt lat="43.0292873" lon="12.6343602"><ele>202.0</ele><time>2026-05-01T14:16:46.936Z</time></trkpt><trkpt lat="43.0295334" lon="12.6341398"><ele>203.0</ele><time>2026-05-01T14:16:47.936Z</time></trkpt><trkpt lat="43.0297713" lon="12.6339199"><ele>203.0</ele><time>2026-05-01T14:16:48.936Z</time></trkpt><trkpt lat="43.0300076" lon="12.6337063"><ele>203.0</ele><time>2026-05-01T14:16:49.935Z</time></trkpt><trkpt lat="43.030249" lon="12.6334911"><ele>203.0</ele><time>2026-05-01T14:16:50.936Z</time></trkpt><trkpt lat="43.0304848" lon="12.6332837"><ele>203.0</ele><time>2026-05-01T14:16:51.935Z</time></trkpt><trkpt lat="43.0307163" lon="12.6330649"><ele>203.5</ele><time>2026-05-01T14:16:52.936Z</time></trkpt><trkpt lat="43.0309527" lon="12.6328469"><ele>204.0</ele><time>2026-05-01T14:16:53.935Z</time></trkpt><trkpt lat="43.0311885" lon="12.6326304"><ele>204.0</ele><time>2026-05-01T14:16:54.935Z</time></trkpt><trkpt lat="43.0314256" lon="12.6324171"><ele>204.0</ele><time>2026-05-01T14:16:55.935Z</time></trkpt><trkpt lat="43.0316578" lon="12.6322091"><ele>203.5</ele><time>2026-05-01T14:16:56.935Z</time></trkpt><trkpt lat="43.0318913" lon="12.632006"><ele>203.0</ele><time>2026-05-01T14:16:57.936Z</time></trkpt><trkpt lat="43.0321215" lon="12.6318013"><ele>203.0</ele><time>2026-05-01T14:16:58.936Z</time></trkpt><trkpt lat="43.0323524" lon="12.6316038"><ele>203.0</ele><time>2026-05-01T14:16:59.936Z</time></trkpt><trkpt lat="43.0325813" lon="12.6313883"><ele>203.5</ele><time>2026-05-01T14:17:00.936Z</time></trkpt><trkpt lat="43.0328049" lon="12.6311774"><ele>204.0</ele><time>2026-05-01T14:17:01.935Z</time></trkpt><trkpt lat="43.0330385" lon="12.6309593"><ele>204.0</ele><time>2026-05-01T14:17:02.936Z</time></trkpt><trkpt lat="43.0332694" lon="12.630746"><ele>204.0</ele><time>2026-05-01T14:17:03.936Z</time></trkpt><trkpt lat="43.0335009" lon="12.6305334"><ele>205.0</ele><time>2026-05-01T14:17:04.936Z</time></trkpt><trkpt lat="43.0337354" lon="12.6303289"><ele>206.0</ele><time>2026-05-01T14:17:05.936Z</time></trkpt><trkpt lat="43.0339758" lon="12.6301196"><ele>209.0</ele><time>2026-05-01T14:17:06.935Z</time></trkpt><trkpt lat="43.0342095" lon="12.6299048"><ele>212.0</ele><time>2026-05-01T14:17:07.936Z</time></trkpt><trkpt lat="43.0344401" lon="12.6296775"><ele>210.0</ele><time>2026-05-01T14:17:08.936Z</time></trkpt><trkpt lat="43.0346586" lon="12.6294411"><ele>208.0</ele><time>2026-05-01T14:17:09.935Z</time></trkpt><trkpt lat="43.0348645" lon="12.6291923"><ele>208.5</ele><time>2026-05-01T14:17:10.935Z</time></trkpt><trkpt lat="43.035061" lon="12.6289231"><ele>209.0</ele><time>2026-05-01T14:17:11.936Z</time></trkpt><trkpt lat="43.0352451" lon="12.6286459"><ele>208.5</ele><time>2026-05-01T14:17:12.936Z</time></trkpt><trkpt lat="43.0354254" lon="12.6283518"><ele>208.0</ele><time>2026-05-01T14:17:13.936Z</time></trkpt><trkpt lat="43.0355994" lon="12.6280464"><ele>208.0</ele><time>2026-05-01T14:17:14.936Z</time></trkpt><trkpt lat="43.0357615" lon="12.627721"><ele>208.0</ele><time>2026-05-01T14:17:15.935Z</time></trkpt><trkpt lat="43.0359188" lon="12.6273873"><ele>209.0</ele><time>2026-05-01T14:17:16.936Z</time></trkpt><trkpt lat="43.03607" lon="12.6270526"><ele>210.0</ele><time>2026-05-01T14:17:17.936Z</time></trkpt><trkpt lat="43.0362238" lon="12.6267172"><ele>210.0</ele><time>2026-05-01T14:17:18.936Z</time></trkpt><trkpt lat="43.0363796" lon="12.6263808"><ele>210.0</ele><time>2026-05-01T14:17:19.935Z</time></trkpt><trkpt lat="43.0365431" lon="12.6260431"><ele>211.0</ele><time>2026-05-01T14:17:20.936Z</time></trkpt><trkpt lat="43.0366994" lon="12.6257116"><ele>212.0</ele><time>2026-05-01T14:17:21.935Z</time></trkpt><trkpt lat="43.0368629" lon="12.625374"><ele>210.0</ele><time>2026-05-01T14:17:22.936Z</time></trkpt><trkpt lat="43.0370256" lon="12.625037"><ele>208.0</ele><time>2026-05-01T14:17:23.936Z</time></trkpt><trkpt lat="43.0371835" lon="12.6246959"><ele>207.5</ele><time>2026-05-01T14:17:24.936Z</time></trkpt><trkpt lat="43.0373412" lon="12.6243569"><ele>207.0</ele><time>2026-05-01T14:17:25.936Z</time></trkpt><trkpt lat="43.0374996" lon="12.6240164"><ele>208.0</ele><time>2026-05-01T14:17:26.935Z</time></trkpt><trkpt lat="43.0376588" lon="12.6236806"><ele>209.0</ele><time>2026-05-01T14:17:27.936Z</time></trkpt><trkpt lat="43.037819" lon="12.6233488"><ele>209.0</ele><time>2026-05-01T14:17:28.936Z</time></trkpt><trkpt lat="43.0379731" lon="12.6230142"><ele>209.0</ele><time>2026-05-01T14:17:29.935Z</time></trkpt><trkpt lat="43.0381275" lon="12.6226734"><ele>209.5</ele><time>2026-05-01T14:17:30.936Z</time></trkpt><trkpt lat="43.0382902" lon="12.6223384"><ele>210.0</ele><time>2026-05-01T14:17:31.936Z</time></trkpt><trkpt lat="43.038448" lon="12.6220006"><ele>208.5</ele><time>2026-05-01T14:17:32.936Z</time></trkpt><trkpt lat="43.0386131" lon="12.6216528"><ele>207.0</ele><time>2026-05-01T14:17:33.936Z</time></trkpt><trkpt lat="43.0387765" lon="12.6213141"><ele>206.5</ele><time>2026-05-01T14:17:34.936Z</time></trkpt><trkpt lat="43.0389428" lon="12.6209755"><ele>206.0</ele><time>2026-05-01T14:17:35.935Z</time></trkpt><trkpt lat="43.0391046" lon="12.6206282"><ele>206.5</ele><time>2026-05-01T14:17:36.936Z</time></trkpt><trkpt lat="43.0392642" lon="12.6202792"><ele>207.0</ele><time>2026-05-01T14:17:37.935Z</time></trkpt><trkpt lat="43.0394194" lon="12.6199347"><ele>207.0</ele><time>2026-05-01T14:17:38.936Z</time></trkpt><trkpt lat="43.039577" lon="12.6195945"><ele>207.0</ele><time>2026-05-01T14:17:39.936Z</time></trkpt><trkpt lat="43.039729" lon="12.6192608"><ele>207.0</ele><time>2026-05-01T14:17:40.935Z</time></trkpt><trkpt lat="43.0398785" lon="12.6189387"><ele>207.0</ele><time>2026-05-01T14:17:41.936Z</time></trkpt><trkpt lat="43.0400265" lon="12.6186239"><ele>207.0</ele><time>2026-05-01T14:17:42.936Z</time></trkpt><trkpt lat="43.0401741" lon="12.6183178"><ele>207.0</ele><time>2026-05-01T14:17:43.936Z</time></trkpt><trkpt lat="43.0403211" lon="12.618009"><ele>206.0</ele><time>2026-05-01T14:17:44.936Z</time></trkpt><trkpt lat="43.0404688" lon="12.6176984"><ele>205.0</ele><time>2026-05-01T14:17:45.936Z</time></trkpt><trkpt lat="43.0406161" lon="12.6173944"><ele>205.0</ele><time>2026-05-01T14:17:46.936Z</time></trkpt><trkpt lat="43.0407574" lon="12.6170845"><ele>205.0</ele><time>2026-05-01T14:17:47.936Z</time></trkpt><trkpt lat="43.040901" lon="12.6167817"><ele>205.0</ele><time>2026-05-01T14:17:48.936Z</time></trkpt><trkpt lat="43.0410496" lon="12.6164704"><ele>205.0</ele><time>2026-05-01T14:17:49.936Z</time></trkpt><trkpt lat="43.041203" lon="12.6161578"><ele>205.5</ele><time>2026-05-01T14:17:50.936Z</time></trkpt><trkpt lat="43.0413616" lon="12.6158347"><ele>206.0</ele><time>2026-05-01T14:17:51.936Z</time></trkpt><trkpt lat="43.0415179" lon="12.6155078"><ele>205.5</ele><time>2026-05-01T14:17:52.935Z</time></trkpt><trkpt lat="43.041673" lon="12.6151782"><ele>205.0</ele><time>2026-05-01T14:17:53.935Z</time></trkpt><trkpt lat="43.0418326" lon="12.6148462"><ele>205.0</ele><time>2026-05-01T14:17:54.936Z</time></trkpt><trkpt lat="43.0419883" lon="12.6145091"><ele>205.0</ele><time>2026-05-01T14:17:55.936Z</time></trkpt><trkpt lat="43.042148" lon="12.6141693"><ele>204.5</ele><time>2026-05-01T14:17:56.936Z</time></trkpt><trkpt lat="43.0423113" lon="12.6138324"><ele>204.0</ele><time>2026-05-01T14:17:57.936Z</time></trkpt><trkpt lat="43.0424794" lon="12.6134963"><ele>205.5</ele><time>2026-05-01T14:17:58.935Z</time></trkpt><trkpt lat="43.0426487" lon="12.6131632"><ele>207.0</ele><time>2026-05-01T14:17:59.935Z</time></trkpt><trkpt lat="43.042817" lon="12.6128288"><ele>206.5</ele><time>2026-05-01T14:18:00.935Z</time></trkpt><trkpt lat="43.0429867" lon="12.6124862"><ele>206.0</ele><time>2026-05-01T14:18:01.936Z</time></trkpt><trkpt lat="43.0431493" lon="12.6121392"><ele>208.0</ele><time>2026-05-01T14:18:02.936Z</time></trkpt><trkpt lat="43.0433136" lon="12.6117879"><ele>210.0</ele><time>2026-05-01T14:18:03.936Z</time></trkpt><trkpt lat="43.0434759" lon="12.611438"><ele>210.0</ele><time>2026-05-01T14:18:04.936Z</time></trkpt><trkpt lat="43.0436385" lon="12.611088"><ele>210.0</ele><time>2026-05-01T14:18:05.936Z</time></trkpt><trkpt lat="43.0437975" lon="12.610747"><ele>210.0</ele><time>2026-05-01T14:18:06.936Z</time></trkpt><trkpt lat="43.04396" lon="12.6104151"><ele>210.0</ele><time>2026-05-01T14:18:07.936Z</time></trkpt><trkpt lat="43.0441165" lon="12.6100792"><ele>210.0</ele><time>2026-05-01T14:18:08.935Z</time></trkpt><trkpt lat="43.0442703" lon="12.6097458"><ele>210.0</ele><time>2026-05-01T14:18:09.935Z</time></trkpt><trkpt lat="43.0444262" lon="12.6094136"><ele>210.5</ele><time>2026-05-01T14:18:10.935Z</time></trkpt><trkpt lat="43.0445848" lon="12.6090831"><ele>211.0</ele><time>2026-05-01T14:18:11.936Z</time></trkpt><trkpt lat="43.0447405" lon="12.6087512"><ele>211.0</ele><time>2026-05-01T14:18:12.936Z</time></trkpt><trkpt lat="43.044893" lon="12.6084232"><ele>211.0</ele><time>2026-05-01T14:18:13.935Z</time></trkpt><trkpt lat="43.0450424" lon="12.6080995"><ele>211.5</ele><time>2026-05-01T14:18:14.936Z</time></trkpt><trkpt lat="43.0451937" lon="12.6077744"><ele>212.0</ele><time>2026-05-01T14:18:15.936Z</time></trkpt><trkpt lat="43.0453457" lon="12.6074554"><ele>212.0</ele><time>2026-05-01T14:18:16.935Z</time></trkpt><trkpt lat="43.0454994" lon="12.6071351"><ele>212.0</ele><time>2026-05-01T14:18:17.936Z</time></trkpt><trkpt lat="43.0456549" lon="12.6068176"><ele>212.0</ele><time>2026-05-01T14:18:18.935Z</time></trkpt><trkpt lat="43.0458093" lon="12.6065001"><ele>212.0</ele><time>2026-05-01T14:18:19.936Z</time></trkpt><trkpt lat="43.0459601" lon="12.6061825"><ele>212.5</ele><time>2026-05-01T14:18:20.935Z</time></trkpt><trkpt lat="43.0461079" lon="12.6058675"><ele>213.0</ele><time>2026-05-01T14:18:21.936Z</time></trkpt><trkpt lat="43.0462592" lon="12.6055491"><ele>213.5</ele><time>2026-05-01T14:18:22.936Z</time></trkpt><trkpt lat="43.0464107" lon="12.6052324"><ele>214.0</ele><time>2026-05-01T14:18:23.936Z</time></trkpt><trkpt lat="43.046563" lon="12.6049163"><ele>214.0</ele><time>2026-05-01T14:18:24.936Z</time></trkpt><trkpt lat="43.0467146" lon="12.6045955"><ele>214.0</ele><time>2026-05-01T14:18:25.936Z</time></trkpt><trkpt lat="43.0468649" lon="12.6042765"><ele>214.0</ele><time>2026-05-01T14:18:26.936Z</time></trkpt><trkpt lat="43.0470122" lon="12.603957"><ele>214.0</ele><time>2026-05-01T14:18:27.935Z</time></trkpt><trkpt lat="43.0471606" lon="12.6036368"><ele>213.0</ele><time>2026-05-01T14:18:28.936Z</time></trkpt><trkpt lat="43.0473094" lon="12.6033147"><ele>212.0</ele><time>2026-05-01T14:18:29.935Z</time></trkpt><trkpt lat="43.0474523" lon="12.6029937"><ele>211.5</ele><time>2026-05-01T14:18:30.936Z</time></trkpt><trkpt lat="43.0475962" lon="12.6026746"><ele>211.0</ele><time>2026-05-01T14:18:31.936Z</time></trkpt><trkpt lat="43.0477343" lon="12.602351"><ele>211.0</ele><time>2026-05-01T14:18:32.936Z</time></trkpt><trkpt lat="43.047862" lon="12.6020275"><ele>211.0</ele><time>2026-05-01T14:18:33.936Z</time></trkpt><trkpt lat="43.0479835" lon="12.6016903"><ele>212.0</ele><time>2026-05-01T14:18:34.936Z</time></trkpt><trkpt lat="43.0480954" lon="12.6013516"><ele>213.0</ele><time>2026-05-01T14:18:35.936Z</time></trkpt><trkpt lat="43.0482031" lon="12.6010072"><ele>215.0</ele><time>2026-05-01T14:18:36.935Z</time></trkpt><trkpt lat="43.0483042" lon="12.6006589"><ele>217.0</ele><time>2026-05-01T14:18:37.936Z</time></trkpt><trkpt lat="43.0483999" lon="12.6003149"><ele>217.0</ele><time>2026-05-01T14:18:38.936Z</time></trkpt><trkpt lat="43.0484871" lon="12.5999713"><ele>217.0</ele><time>2026-05-01T14:18:39.936Z</time></trkpt><trkpt lat="43.0485691" lon="12.599622"><ele>217.0</ele><time>2026-05-01T14:18:40.935Z</time></trkpt><trkpt lat="43.0486491" lon="12.599275"><ele>217.0</ele><time>2026-05-01T14:18:41.936Z</time></trkpt><trkpt lat="43.0487295" lon="12.5989293"><ele>215.5</ele><time>2026-05-01T14:18:42.936Z</time></trkpt><trkpt lat="43.0488118" lon="12.5985864"><ele>214.0</ele><time>2026-05-01T14:18:43.936Z</time></trkpt><trkpt lat="43.0488946" lon="12.5982477"><ele>214.0</ele><time>2026-05-01T14:18:44.936Z</time></trkpt><trkpt lat="43.0489799" lon="12.5979073"><ele>214.0</ele><time>2026-05-01T14:18:45.935Z</time></trkpt><trkpt lat="43.0490623" lon="12.5975637"><ele>215.5</ele><time>2026-05-01T14:18:46.936Z</time></trkpt><trkpt lat="43.0491445" lon="12.5972178"><ele>217.0</ele><time>2026-05-01T14:18:47.936Z</time></trkpt><trkpt lat="43.049229" lon="12.5968662"><ele>217.5</ele><time>2026-05-01T14:18:48.936Z</time></trkpt><trkpt lat="43.0493141" lon="12.5965176"><ele>218.0</ele><time>2026-05-01T14:18:49.936Z</time></trkpt><trkpt lat="43.0493987" lon="12.5961712"><ele>217.0</ele><time>2026-05-01T14:18:50.936Z</time></trkpt><trkpt lat="43.0494832" lon="12.5958165"><ele>216.0</ele><time>2026-05-01T14:18:51.936Z</time></trkpt><trkpt lat="43.0495721" lon="12.5954531"><ele>216.5</ele><time>2026-05-01T14:18:52.935Z</time></trkpt><trkpt lat="43.0496637" lon="12.5950865"><ele>217.0</ele><time>2026-05-01T14:18:53.936Z</time></trkpt><trkpt lat="43.0497547" lon="12.5947198"><ele>216.0</ele><time>2026-05-01T14:18:54.936Z</time></trkpt><trkpt lat="43.0498446" lon="12.594352"><ele>215.0</ele><time>2026-05-01T14:18:55.936Z</time></trkpt><trkpt lat="43.0499305" lon="12.5939728"><ele>216.0</ele><time>2026-05-01T14:18:56.936Z</time></trkpt><trkpt lat="43.0500286" lon="12.5935913"><ele>217.0</ele><time>2026-05-01T14:18:57.936Z</time></trkpt><trkpt lat="43.0501251" lon="12.5932051"><ele>216.0</ele><time>2026-05-01T14:18:58.936Z</time></trkpt><trkpt lat="43.050223" lon="12.5928265"><ele>215.0</ele><time>2026-05-01T14:18:59.935Z</time></trkpt><trkpt lat="43.0503171" lon="12.5924475"><ele>215.0</ele><time>2026-05-01T14:19:00.936Z</time></trkpt><trkpt lat="43.0504106" lon="12.5920712"><ele>215.0</ele><time>2026-05-01T14:19:01.936Z</time></trkpt><trkpt lat="43.0505044" lon="12.5916967"><ele>215.0</ele><time>2026-05-01T14:19:02.936Z</time></trkpt><trkpt lat="43.0505943" lon="12.5913232"><ele>215.0</ele><time>2026-05-01T14:19:03.936Z</time></trkpt><trkpt lat="43.0506833" lon="12.5909531"><ele>215.0</ele><time>2026-05-01T14:19:04.936Z</time></trkpt><trkpt lat="43.0507718" lon="12.5905948"><ele>215.0</ele><time>2026-05-01T14:19:05.936Z</time></trkpt><trkpt lat="43.0508574" lon="12.5902393"><ele>215.0</ele><time>2026-05-01T14:19:06.936Z</time></trkpt><trkpt lat="43.0509403" lon="12.589885"><ele>215.0</ele><time>2026-05-01T14:19:07.936Z</time></trkpt><trkpt lat="43.0510265" lon="12.5895292"><ele>213.5</ele><time>2026-05-01T14:19:08.936Z</time></trkpt><trkpt lat="43.0511187" lon="12.5891716"><ele>212.0</ele><time>2026-05-01T14:19:09.936Z</time></trkpt><trkpt lat="43.0512097" lon="12.5888193"><ele>211.5</ele><time>2026-05-01T14:19:10.936Z</time></trkpt><trkpt lat="43.051292" lon="12.5884602"><ele>211.0</ele><time>2026-05-01T14:19:11.936Z</time></trkpt><trkpt lat="43.0513749" lon="12.5880975"><ele>211.0</ele><time>2026-05-01T14:19:12.936Z</time></trkpt><trkpt lat="43.0514609" lon="12.5877384"><ele>211.0</ele><time>2026-05-01T14:19:13.936Z</time></trkpt><trkpt lat="43.0515464" lon="12.5873833"><ele>212.0</ele><time>2026-05-01T14:19:14.936Z</time></trkpt><trkpt lat="43.0516312" lon="12.5870177"><ele>213.0</ele><time>2026-05-01T14:19:15.936Z</time></trkpt><trkpt lat="43.0517192" lon="12.58665"><ele>213.0</ele><time>2026-05-01T14:19:16.936Z</time></trkpt><trkpt lat="43.0518071" lon="12.5862809"><ele>213.0</ele><time>2026-05-01T14:19:17.935Z</time></trkpt><trkpt lat="43.0518951" lon="12.5859105"><ele>213.5</ele><time>2026-05-01T14:19:18.935Z</time></trkpt><trkpt lat="43.0519851" lon="12.5855391"><ele>214.0</ele><time>2026-05-01T14:19:19.936Z</time></trkpt><trkpt lat="43.0520775" lon="12.5851653"><ele>214.0</ele><time>2026-05-01T14:19:20.936Z</time></trkpt><trkpt lat="43.052169" lon="12.5847903"><ele>214.0</ele><time>2026-05-01T14:19:21.936Z</time></trkpt><trkpt lat="43.0522637" lon="12.5844145"><ele>213.0</ele><time>2026-05-01T14:19:22.936Z</time></trkpt><trkpt lat="43.0523576" lon="12.5840355"><ele>212.0</ele><time>2026-05-01T14:19:23.935Z</time></trkpt><trkpt lat="43.0524511" lon="12.5836558"><ele>212.0</ele><time>2026-05-01T14:19:24.936Z</time></trkpt><trkpt lat="43.0525416" lon="12.5832787"><ele>212.0</ele><time>2026-05-01T14:19:25.936Z</time></trkpt><trkpt lat="43.0526321" lon="12.582899"><ele>212.5</ele><time>2026-05-01T14:19:26.936Z</time></trkpt><trkpt lat="43.0527222" lon="12.5825196"><ele>213.0</ele><time>2026-05-01T14:19:27.936Z</time></trkpt><trkpt lat="43.052811" lon="12.5821412"><ele>213.0</ele><time>2026-05-01T14:19:28.936Z</time></trkpt><trkpt lat="43.0528947" lon="12.5817668"><ele>213.0</ele><time>2026-05-01T14:19:29.936Z</time></trkpt><trkpt lat="43.0529656" lon="12.5813912"><ele>211.5</ele><time>2026-05-01T14:19:30.935Z</time></trkpt><trkpt lat="43.0530219" lon="12.5810149"><ele>210.0</ele><time>2026-05-01T14:19:31.936Z</time></trkpt><trkpt lat="43.0530659" lon="12.5806314"><ele>210.0</ele><time>2026-05-01T14:19:32.936Z</time></trkpt><trkpt lat="43.0530862" lon="12.5802518"><ele>210.0</ele><time>2026-05-01T14:19:33.936Z</time></trkpt><trkpt lat="43.0530924" lon="12.5798745"><ele>210.5</ele><time>2026-05-01T14:19:34.935Z</time></trkpt><trkpt lat="43.0530832" lon="12.5794995"><ele>211.0</ele><time>2026-05-01T14:19:35.935Z</time></trkpt><trkpt lat="43.0530604" lon="12.5791343"><ele>211.0</ele><time>2026-05-01T14:19:36.936Z</time></trkpt><trkpt lat="43.0530343" lon="12.5787668"><ele>211.0</ele><time>2026-05-01T14:19:37.936Z</time></trkpt><trkpt lat="43.0530141" lon="12.5783982"><ele>210.5</ele><time>2026-05-01T14:19:38.936Z</time></trkpt><trkpt lat="43.0529933" lon="12.5780261"><ele>210.0</ele><time>2026-05-01T14:19:39.935Z</time></trkpt><trkpt lat="43.0529751" lon="12.5776431"><ele>209.5</ele><time>2026-05-01T14:19:40.936Z</time></trkpt><trkpt lat="43.0529566" lon="12.5772509"><ele>209.0</ele><time>2026-05-01T14:19:41.936Z</time></trkpt><trkpt lat="43.0529372" lon="12.5768582"><ele>209.0</ele><time>2026-05-01T14:19:42.936Z</time></trkpt><trkpt lat="43.0529164" lon="12.5764697"><ele>209.0</ele><time>2026-05-01T14:19:43.935Z</time></trkpt><trkpt lat="43.0528973" lon="12.5760836"><ele>209.0</ele><time>2026-05-01T14:19:44.935Z</time></trkpt><trkpt lat="43.0528756" lon="12.5756982"><ele>209.0</ele><time>2026-05-01T14:19:45.936Z</time></trkpt><trkpt lat="43.0528584" lon="12.5753206"><ele>208.5</ele><time>2026-05-01T14:19:46.936Z</time></trkpt><trkpt lat="43.0528391" lon="12.5749521"><ele>208.0</ele><time>2026-05-01T14:19:47.935Z</time></trkpt><trkpt lat="43.0528175" lon="12.5745939"><ele>208.5</ele><time>2026-05-01T14:19:48.936Z</time></trkpt><trkpt lat="43.0528001" lon="12.5742396"><ele>209.0</ele><time>2026-05-01T14:19:49.936Z</time></trkpt><trkpt lat="43.0527825" lon="12.5738878"><ele>209.0</ele><time>2026-05-01T14:19:50.936Z</time></trkpt><trkpt lat="43.0527673" lon="12.5735384"><ele>209.0</ele><time>2026-05-01T14:19:51.936Z</time></trkpt><trkpt lat="43.0527516" lon="12.5731886"><ele>208.5</ele><time>2026-05-01T14:19:52.936Z</time></trkpt><trkpt lat="43.052736" lon="12.5728398"><ele>208.0</ele><time>2026-05-01T14:19:53.936Z</time></trkpt><trkpt lat="43.0527212" lon="12.5724972"><ele>208.0</ele><time>2026-05-01T14:19:54.935Z</time></trkpt><trkpt lat="43.0527148" lon="12.5721435"><ele>208.0</ele><time>2026-05-01T14:19:55.936Z</time></trkpt><trkpt lat="43.0527049" lon="12.5717997"><ele>207.0</ele><time>2026-05-01T14:19:56.936Z</time></trkpt><trkpt lat="43.052697" lon="12.5714425"><ele>206.0</ele><time>2026-05-01T14:19:57.936Z</time></trkpt><trkpt lat="43.0526987" lon="12.5710862"><ele>205.0</ele><time>2026-05-01T14:19:58.936Z</time></trkpt><trkpt lat="43.0527235" lon="12.570724"><ele>204.0</ele><time>2026-05-01T14:19:59.936Z</time></trkpt><trkpt lat="43.0527687" lon="12.5703648"><ele>204.5</ele><time>2026-05-01T14:20:00.936Z</time></trkpt><trkpt lat="43.0528271" lon="12.5700086"><ele>205.0</ele><time>2026-05-01T14:20:01.935Z</time></trkpt><trkpt lat="43.0529016" lon="12.5696535"><ele>205.0</ele><time>2026-05-01T14:20:02.936Z</time></trkpt><trkpt lat="43.0529935" lon="12.5693132"><ele>205.0</ele><time>2026-05-01T14:20:03.936Z</time></trkpt><trkpt lat="43.0531055" lon="12.5689779"><ele>205.5</ele><time>2026-05-01T14:20:04.936Z</time></trkpt><trkpt lat="43.053234" lon="12.5686434"><ele>206.0</ele><time>2026-05-01T14:20:05.936Z</time></trkpt><trkpt lat="43.0533702" lon="12.5683075"><ele>206.0</ele><time>2026-05-01T14:20:06.936Z</time></trkpt><trkpt lat="43.0535132" lon="12.5679712"><ele>206.0</ele><time>2026-05-01T14:20:07.936Z</time></trkpt><trkpt lat="43.0536518" lon="12.5676352"><ele>205.5</ele><time>2026-05-01T14:20:08.936Z</time></trkpt><trkpt lat="43.0537858" lon="12.5673108"><ele>205.0</ele><time>2026-05-01T14:20:09.936Z</time></trkpt><trkpt lat="43.0539172" lon="12.5669885"><ele>204.5</ele><time>2026-05-01T14:20:10.936Z</time></trkpt><trkpt lat="43.0540563" lon="12.5666627"><ele>204.0</ele><time>2026-05-01T14:20:11.936Z</time></trkpt><trkpt lat="43.0541923" lon="12.5663469"><ele>204.5</ele><time>2026-05-01T14:20:12.936Z</time></trkpt><trkpt lat="43.0543302" lon="12.5660265"><ele>205.0</ele><time>2026-05-01T14:20:13.936Z</time></trkpt><trkpt lat="43.0544694" lon="12.5657102"><ele>205.0</ele><time>2026-05-01T14:20:14.936Z</time></trkpt><trkpt lat="43.0546039" lon="12.5653965"><ele>205.0</ele><time>2026-05-01T14:20:15.936Z</time></trkpt><trkpt lat="43.0547353" lon="12.5650712"><ele>205.0</ele><time>2026-05-01T14:20:16.936Z</time></trkpt><trkpt lat="43.0548699" lon="12.5647472"><ele>205.0</ele><time>2026-05-01T14:20:17.936Z</time></trkpt><trkpt lat="43.0550045" lon="12.5644212"><ele>204.5</ele><time>2026-05-01T14:20:18.936Z</time></trkpt><trkpt lat="43.0551334" lon="12.5640996"><ele>204.0</ele><time>2026-05-01T14:20:19.935Z</time></trkpt><trkpt lat="43.0552649" lon="12.5637694"><ele>204.0</ele><time>2026-05-01T14:20:20.936Z</time></trkpt><trkpt lat="43.0554054" lon="12.5634465"><ele>204.0</ele><time>2026-05-01T14:20:21.935Z</time></trkpt><trkpt lat="43.0555442" lon="12.5631194"><ele>203.5</ele><time>2026-05-01T14:20:22.936Z</time></trkpt><trkpt lat="43.055682" lon="12.5627888"><ele>203.0</ele><time>2026-05-01T14:20:23.936Z</time></trkpt><trkpt lat="43.0558243" lon="12.5624425"><ele>203.0</ele><time>2026-05-01T14:20:24.935Z</time></trkpt><trkpt lat="43.055962" lon="12.5621088"><ele>203.0</ele><time>2026-05-01T14:20:25.936Z</time></trkpt><trkpt lat="43.056102" lon="12.5617818"><ele>203.0</ele><time>2026-05-01T14:20:26.935Z</time></trkpt><trkpt lat="43.0562357" lon="12.5614539"><ele>203.0</ele><time>2026-05-01T14:20:27.936Z</time></trkpt><trkpt lat="43.0563675" lon="12.5611218"><ele>203.0</ele><time>2026-05-01T14:20:28.936Z</time></trkpt><trkpt lat="43.0565022" lon="12.5607961"><ele>203.0</ele><time>2026-05-01T14:20:29.936Z</time></trkpt><trkpt lat="43.0566362" lon="12.5604741"><ele>203.5</ele><time>2026-05-01T14:20:30.936Z</time></trkpt><trkpt lat="43.056771" lon="12.5601533"><ele>204.0</ele><time>2026-05-01T14:20:31.936Z</time></trkpt><trkpt lat="43.0569078" lon="12.5598304"><ele>203.0</ele><time>2026-05-01T14:20:32.935Z</time></trkpt><trkpt lat="43.0570394" lon="12.5595098"><ele>202.0</ele><time>2026-05-01T14:20:33.936Z</time></trkpt><trkpt lat="43.0571678" lon="12.5591882"><ele>202.0</ele><time>2026-05-01T14:20:34.936Z</time></trkpt><trkpt lat="43.0572964" lon="12.5588658"><ele>202.0</ele><time>2026-05-01T14:20:35.936Z</time></trkpt><trkpt lat="43.057423" lon="12.5585441"><ele>202.0</ele><time>2026-05-01T14:20:36.936Z</time></trkpt><trkpt lat="43.0575483" lon="12.5582226"><ele>202.0</ele><time>2026-05-01T14:20:37.936Z</time></trkpt><trkpt lat="43.0576716" lon="12.5578993"><ele>202.0</ele><time>2026-05-01T14:20:38.935Z</time></trkpt><trkpt lat="43.057798" lon="12.5575625"><ele>202.0</ele><time>2026-05-01T14:20:39.936Z</time></trkpt><trkpt lat="43.0579234" lon="12.5572167"><ele>201.5</ele><time>2026-05-01T14:20:40.936Z</time></trkpt><trkpt lat="43.0580554" lon="12.5568664"><ele>201.0</ele><time>2026-05-01T14:20:41.936Z</time></trkpt><trkpt lat="43.0581876" lon="12.5565149"><ele>201.0</ele><time>2026-05-01T14:20:42.936Z</time></trkpt><trkpt lat="43.0583215" lon="12.5561666"><ele>201.0</ele><time>2026-05-01T14:20:43.936Z</time></trkpt><trkpt lat="43.0584564" lon="12.5558167"><ele>201.0</ele><time>2026-05-01T14:20:44.936Z</time></trkpt><trkpt lat="43.0585916" lon="12.5554642"><ele>201.0</ele><time>2026-05-01T14:20:45.936Z</time></trkpt><trkpt lat="43.0587247" lon="12.5551144"><ele>200.5</ele><time>2026-05-01T14:20:46.936Z</time></trkpt><trkpt lat="43.0588544" lon="12.5547648"><ele>200.0</ele><time>2026-05-01T14:20:47.936Z</time></trkpt><trkpt lat="43.0589876" lon="12.5544183"><ele>200.0</ele><time>2026-05-01T14:20:48.936Z</time></trkpt><trkpt lat="43.0591205" lon="12.5540816"><ele>200.0</ele><time>2026-05-01T14:20:49.936Z</time></trkpt><trkpt lat="43.0592482" lon="12.5537482"><ele>199.0</ele><time>2026-05-01T14:20:50.935Z</time></trkpt><trkpt lat="43.0593761" lon="12.5534181"><ele>198.0</ele><time>2026-05-01T14:20:51.936Z</time></trkpt><trkpt lat="43.0595005" lon="12.5530832"><ele>198.0</ele><time>2026-05-01T14:20:52.936Z</time></trkpt><trkpt lat="43.0596246" lon="12.5527511"><ele>198.0</ele><time>2026-05-01T14:20:53.936Z</time></trkpt><trkpt lat="43.0597502" lon="12.5524163"><ele>198.0</ele><time>2026-05-01T14:20:54.936Z</time></trkpt><trkpt lat="43.0598776" lon="12.5520826"><ele>198.0</ele><time>2026-05-01T14:20:55.935Z</time></trkpt><trkpt lat="43.0600062" lon="12.5517464"><ele>198.5</ele><time>2026-05-01T14:20:56.936Z</time></trkpt><trkpt lat="43.060135" lon="12.5514103"><ele>199.0</ele><time>2026-05-01T14:20:57.935Z</time></trkpt><trkpt lat="43.0602636" lon="12.551069"><ele>198.0</ele><time>2026-05-01T14:20:58.936Z</time></trkpt><trkpt lat="43.0603935" lon="12.5507259"><ele>197.0</ele><time>2026-05-01T14:20:59.936Z</time></trkpt><trkpt lat="43.0605236" lon="12.5503811"><ele>196.5</ele><time>2026-05-01T14:21:00.936Z</time></trkpt><trkpt lat="43.060658" lon="12.550034"><ele>196.0</ele><time>2026-05-01T14:21:01.936Z</time></trkpt><trkpt lat="43.0607887" lon="12.5496914"><ele>198.0</ele><time>2026-05-01T14:21:02.935Z</time></trkpt><trkpt lat="43.0609245" lon="12.5493474"><ele>200.0</ele><time>2026-05-01T14:21:03.936Z</time></trkpt><trkpt lat="43.0610689" lon="12.5490061"><ele>198.5</ele><time>2026-05-01T14:21:04.936Z</time></trkpt><trkpt lat="43.0612197" lon="12.5486632"><ele>197.0</ele><time>2026-05-01T14:21:05.936Z</time></trkpt><trkpt lat="43.0613727" lon="12.548324"><ele>197.0</ele><time>2026-05-01T14:21:06.935Z</time></trkpt><trkpt lat="43.06153" lon="12.5479895"><ele>197.0</ele><time>2026-05-01T14:21:07.935Z</time></trkpt><trkpt lat="43.0616852" lon="12.5476464"><ele>195.5</ele><time>2026-05-01T14:21:08.936Z</time></trkpt><trkpt lat="43.0618399" lon="12.5473083"><ele>194.0</ele><time>2026-05-01T14:21:09.936Z</time></trkpt><trkpt lat="43.0619933" lon="12.5469742"><ele>192.0</ele><time>2026-05-01T14:21:10.936Z</time></trkpt><trkpt lat="43.0621404" lon="12.5466604"><ele>190.0</ele><time>2026-05-01T14:21:11.936Z</time></trkpt><trkpt lat="43.0622816" lon="12.54636"><ele>191.5</ele><time>2026-05-01T14:21:12.936Z</time></trkpt><trkpt lat="43.0624215" lon="12.5460706"><ele>193.0</ele><time>2026-05-01T14:21:13.935Z</time></trkpt><trkpt lat="43.0625611" lon="12.5457756"><ele>193.0</ele><time>2026-05-01T14:21:14.935Z</time></trkpt><trkpt lat="43.0627001" lon="12.5454733"><ele>193.0</ele><time>2026-05-01T14:21:15.936Z</time></trkpt><trkpt lat="43.0628475" lon="12.5451642"><ele>193.0</ele><time>2026-05-01T14:21:16.936Z</time></trkpt><trkpt lat="43.0629854" lon="12.5448518"><ele>193.0</ele><time>2026-05-01T14:21:17.936Z</time></trkpt><trkpt lat="43.0631267" lon="12.5445334"><ele>193.0</ele><time>2026-05-01T14:21:18.936Z</time></trkpt><trkpt lat="43.0632686" lon="12.5442147"><ele>193.0</ele><time>2026-05-01T14:21:19.936Z</time></trkpt><trkpt lat="43.0634101" lon="12.5438957"><ele>191.5</ele><time>2026-05-01T14:21:20.935Z</time></trkpt><trkpt lat="43.0635539" lon="12.5435729"><ele>190.0</ele><time>2026-05-01T14:21:21.936Z</time></trkpt><trkpt lat="43.0637008" lon="12.5432495"><ele>190.0</ele><time>2026-05-01T14:21:22.935Z</time></trkpt><trkpt lat="43.063849" lon="12.5429232"><ele>190.0</ele><time>2026-05-01T14:21:23.936Z</time></trkpt><trkpt lat="43.063998" lon="12.5425909"><ele>191.5</ele><time>2026-05-01T14:21:24.936Z</time></trkpt><trkpt lat="43.0641453" lon="12.5422607"><ele>193.0</ele><time>2026-05-01T14:21:25.936Z</time></trkpt><trkpt lat="43.0642977" lon="12.5419259"><ele>193.0</ele><time>2026-05-01T14:21:26.936Z</time></trkpt><trkpt lat="43.064447" lon="12.5415944"><ele>193.0</ele><time>2026-05-01T14:21:27.936Z</time></trkpt><trkpt lat="43.0645937" lon="12.5412625"><ele>194.0</ele><time>2026-05-01T14:21:28.936Z</time></trkpt><trkpt lat="43.0647368" lon="12.5409338"><ele>195.0</ele><time>2026-05-01T14:21:29.936Z</time></trkpt><trkpt lat="43.0648843" lon="12.5406057"><ele>195.0</ele><time>2026-05-01T14:21:30.936Z</time></trkpt><trkpt lat="43.0650319" lon="12.5402833"><ele>195.0</ele><time>2026-05-01T14:21:31.936Z</time></trkpt><trkpt lat="43.0651804" lon="12.5399663"><ele>195.0</ele><time>2026-05-01T14:21:32.936Z</time></trkpt><trkpt lat="43.0653278" lon="12.5396517"><ele>195.0</ele><time>2026-05-01T14:21:33.936Z</time></trkpt><trkpt lat="43.0654747" lon="12.5393353"><ele>194.5</ele><time>2026-05-01T14:21:34.936Z</time></trkpt><trkpt lat="43.0656221" lon="12.5390168"><ele>194.0</ele><time>2026-05-01T14:21:35.936Z</time></trkpt><trkpt lat="43.0657678" lon="12.5386941"><ele>195.0</ele><time>2026-05-01T14:21:36.936Z</time></trkpt><trkpt lat="43.0659121" lon="12.5383689"><ele>196.0</ele><time>2026-05-01T14:21:37.936Z</time></trkpt><trkpt lat="43.066055" lon="12.5380435"><ele>195.5</ele><time>2026-05-01T14:21:38.935Z</time></trkpt><trkpt lat="43.0661996" lon="12.5377167"><ele>195.0</ele><time>2026-05-01T14:21:39.936Z</time></trkpt><trkpt lat="43.0663438" lon="12.537393"><ele>195.0</ele><time>2026-05-01T14:21:40.936Z</time></trkpt><trkpt lat="43.0664855" lon="12.5370701"><ele>195.0</ele><time>2026-05-01T14:21:41.936Z</time></trkpt><trkpt lat="43.0666228" lon="12.536748"><ele>195.5</ele><time>2026-05-01T14:21:42.936Z</time></trkpt><trkpt lat="43.0667629" lon="12.5364256"><ele>196.0</ele><time>2026-05-01T14:21:43.936Z</time></trkpt><trkpt lat="43.0669028" lon="12.536099"><ele>196.0</ele><time>2026-05-01T14:21:44.936Z</time></trkpt><trkpt lat="43.0670452" lon="12.5357776"><ele>196.0</ele><time>2026-05-01T14:21:45.936Z</time></trkpt><trkpt lat="43.0672017" lon="12.535448"><ele>196.5</ele><time>2026-05-01T14:21:46.936Z</time></trkpt><trkpt lat="43.067357" lon="12.5351192"><ele>197.0</ele><time>2026-05-01T14:21:47.936Z</time></trkpt><trkpt lat="43.0675063" lon="12.5347875"><ele>198.0</ele><time>2026-05-01T14:21:48.936Z</time></trkpt><trkpt lat="43.0676537" lon="12.5344537"><ele>199.0</ele><time>2026-05-01T14:21:49.936Z</time></trkpt><trkpt lat="43.0678032" lon="12.534118"><ele>199.0</ele><time>2026-05-01T14:21:50.935Z</time></trkpt><trkpt lat="43.0679559" lon="12.5337742"><ele>199.0</ele><time>2026-05-01T14:21:51.935Z</time></trkpt><trkpt lat="43.0681072" lon="12.5334303"><ele>199.0</ele><time>2026-05-01T14:21:52.936Z</time></trkpt><trkpt lat="43.068256" lon="12.5330882"><ele>199.0</ele><time>2026-05-01T14:21:53.936Z</time></trkpt><trkpt lat="43.0684091" lon="12.5327499"><ele>197.0</ele><time>2026-05-01T14:21:54.936Z</time></trkpt><trkpt lat="43.0685633" lon="12.5324041"><ele>195.0</ele><time>2026-05-01T14:21:55.936Z</time></trkpt><trkpt lat="43.068715" lon="12.5320656"><ele>196.0</ele><time>2026-05-01T14:21:56.936Z</time></trkpt><trkpt lat="43.0688625" lon="12.5317285"><ele>197.0</ele><time>2026-05-01T14:21:57.936Z</time></trkpt><trkpt lat="43.0690113" lon="12.5313953"><ele>197.0</ele><time>2026-05-01T14:21:58.936Z</time></trkpt><trkpt lat="43.0691621" lon="12.5310645"><ele>197.0</ele><time>2026-05-01T14:21:59.936Z</time></trkpt><trkpt lat="43.0693161" lon="12.530731"><ele>197.0</ele><time>2026-05-01T14:22:00.936Z</time></trkpt><trkpt lat="43.0694643" lon="12.5304004"><ele>197.0</ele><time>2026-05-01T14:22:01.936Z</time></trkpt><trkpt lat="43.0696148" lon="12.5300669"><ele>197.0</ele><time>2026-05-01T14:22:02.936Z</time></trkpt><trkpt lat="43.0697634" lon="12.5297307"><ele>197.0</ele><time>2026-05-01T14:22:03.936Z</time></trkpt><trkpt lat="43.0699103" lon="12.5293961"><ele>198.0</ele><time>2026-05-01T14:22:04.936Z</time></trkpt><trkpt lat="43.0700589" lon="12.5290642"><ele>199.0</ele><time>2026-05-01T14:22:05.935Z</time></trkpt><trkpt lat="43.0702108" lon="12.5287319"><ele>198.5</ele><time>2026-05-01T14:22:06.936Z</time></trkpt><trkpt lat="43.0703608" lon="12.5283991"><ele>198.0</ele><time>2026-05-01T14:22:07.935Z</time></trkpt><trkpt lat="43.0705113" lon="12.5280691"><ele>197.0</ele><time>2026-05-01T14:22:08.935Z</time></trkpt><trkpt lat="43.0706624" lon="12.5277392"><ele>196.0</ele><time>2026-05-01T14:22:09.936Z</time></trkpt><trkpt lat="43.0708107" lon="12.5274108"><ele>196.0</ele><time>2026-05-01T14:22:10.936Z</time></trkpt><trkpt lat="43.0709513" lon="12.5270789"><ele>196.0</ele><time>2026-05-01T14:22:11.936Z</time></trkpt><trkpt lat="43.0710866" lon="12.5267431"><ele>196.0</ele><time>2026-05-01T14:22:12.936Z</time></trkpt><trkpt lat="43.0712144" lon="12.5263966"><ele>196.0</ele><time>2026-05-01T14:22:13.936Z</time></trkpt><trkpt lat="43.0713304" lon="12.5260371"><ele>195.5</ele><time>2026-05-01T14:22:14.935Z</time></trkpt><trkpt lat="43.0714398" lon="12.5256707"><ele>195.0</ele><time>2026-05-01T14:22:15.936Z</time></trkpt><trkpt lat="43.0715404" lon="12.5253021"><ele>196.5</ele><time>2026-05-01T14:22:16.936Z</time></trkpt><trkpt lat="43.0716274" lon="12.524927"><ele>198.0</ele><time>2026-05-01T14:22:17.936Z</time></trkpt><trkpt lat="43.0717039" lon="12.5245498"><ele>198.5</ele><time>2026-05-01T14:22:18.936Z</time></trkpt><trkpt lat="43.0717781" lon="12.5241677"><ele>199.0</ele><time>2026-05-01T14:22:19.935Z</time></trkpt><trkpt lat="43.0718425" lon="12.5237893"><ele>198.5</ele><time>2026-05-01T14:22:20.936Z</time></trkpt><trkpt lat="43.0719137" lon="12.5234107"><ele>198.0</ele><time>2026-05-01T14:22:21.936Z</time></trkpt><trkpt lat="43.071984" lon="12.5230295"><ele>197.0</ele><time>2026-05-01T14:22:22.935Z</time></trkpt><trkpt lat="43.0720562" lon="12.5226511"><ele>196.0</ele><time>2026-05-01T14:22:23.936Z</time></trkpt><trkpt lat="43.0721238" lon="12.522278"><ele>195.0</ele><time>2026-05-01T14:22:24.936Z</time></trkpt><trkpt lat="43.0721957" lon="12.5219045"><ele>194.0</ele><time>2026-05-01T14:22:25.935Z</time></trkpt><trkpt lat="43.0722682" lon="12.5215355"><ele>194.0</ele><time>2026-05-01T14:22:26.936Z</time></trkpt><trkpt lat="43.0723402" lon="12.5211639"><ele>194.0</ele><time>2026-05-01T14:22:27.936Z</time></trkpt><trkpt lat="43.0724059" lon="12.5207944"><ele>196.0</ele><time>2026-05-01T14:22:28.936Z</time></trkpt><trkpt lat="43.0724735" lon="12.5204273"><ele>198.0</ele><time>2026-05-01T14:22:29.936Z</time></trkpt><trkpt lat="43.0725434" lon="12.5200603"><ele>198.0</ele><time>2026-05-01T14:22:30.935Z</time></trkpt><trkpt lat="43.0726122" lon="12.5196958"><ele>198.0</ele><time>2026-05-01T14:22:31.936Z</time></trkpt><trkpt lat="43.0726817" lon="12.5193302"><ele>197.5</ele><time>2026-05-01T14:22:32.936Z</time></trkpt><trkpt lat="43.07275" lon="12.5189616"><ele>197.0</ele><time>2026-05-01T14:22:33.936Z</time></trkpt><trkpt lat="43.0728135" lon="12.5185944"><ele>197.0</ele><time>2026-05-01T14:22:34.935Z</time></trkpt><trkpt lat="43.0728785" lon="12.5182283"><ele>197.0</ele><time>2026-05-01T14:22:35.936Z</time></trkpt><trkpt lat="43.0729429" lon="12.5178645"><ele>196.5</ele><time>2026-05-01T14:22:36.936Z</time></trkpt><trkpt lat="43.0730107" lon="12.5175051"><ele>196.0</ele><time>2026-05-01T14:22:37.936Z</time></trkpt><trkpt lat="43.073079" lon="12.517148"><ele>195.5</ele><time>2026-05-01T14:22:38.936Z</time></trkpt><trkpt lat="43.0731439" lon="12.5167875"><ele>195.0</ele><time>2026-05-01T14:22:39.936Z</time></trkpt><trkpt lat="43.0732089" lon="12.5164266"><ele>195.0</ele><time>2026-05-01T14:22:40.935Z</time></trkpt><trkpt lat="43.07327" lon="12.5160668"><ele>195.0</ele><time>2026-05-01T14:22:41.936Z</time></trkpt><trkpt lat="43.0733328" lon="12.5157007"><ele>196.0</ele><time>2026-05-01T14:22:42.936Z</time></trkpt><trkpt lat="43.0733982" lon="12.5153266"><ele>197.0</ele><time>2026-05-01T14:22:43.936Z</time></trkpt><trkpt lat="43.0734665" lon="12.5149549"><ele>197.0</ele><time>2026-05-01T14:22:44.935Z</time></trkpt><trkpt lat="43.0735356" lon="12.5145849"><ele>197.0</ele><time>2026-05-01T14:22:45.936Z</time></trkpt><trkpt lat="43.0736035" lon="12.5142119"><ele>196.0</ele><time>2026-05-01T14:22:46.936Z</time></trkpt><trkpt lat="43.073672" lon="12.5138396"><ele>195.0</ele><time>2026-05-01T14:22:47.936Z</time></trkpt><trkpt lat="43.0737389" lon="12.5134742"><ele>194.5</ele><time>2026-05-01T14:22:48.936Z</time></trkpt><trkpt lat="43.0738054" lon="12.5131148"><ele>194.0</ele><time>2026-05-01T14:22:49.936Z</time></trkpt><trkpt lat="43.0738704" lon="12.5127562"><ele>194.0</ele><time>2026-05-01T14:22:50.935Z</time></trkpt><trkpt lat="43.0739363" lon="12.5123958"><ele>194.0</ele><time>2026-05-01T14:22:51.936Z</time></trkpt><trkpt lat="43.074003" lon="12.5120346"><ele>194.0</ele><time>2026-05-01T14:22:52.936Z</time></trkpt><trkpt lat="43.074069" lon="12.5116699"><ele>194.0</ele><time>2026-05-01T14:22:53.935Z</time></trkpt><trkpt lat="43.0741376" lon="12.5113001"><ele>195.0</ele><time>2026-05-01T14:22:54.936Z</time></trkpt><trkpt lat="43.074205" lon="12.5109345"><ele>196.0</ele><time>2026-05-01T14:22:55.936Z</time></trkpt><trkpt lat="43.0742726" lon="12.5105678"><ele>196.0</ele><time>2026-05-01T14:22:56.935Z</time></trkpt><trkpt lat="43.0743425" lon="12.5102016"><ele>196.0</ele><time>2026-05-01T14:22:57.936Z</time></trkpt><trkpt lat="43.0744166" lon="12.5098332"><ele>196.0</ele><time>2026-05-01T14:22:58.935Z</time></trkpt><trkpt lat="43.0744857" lon="12.5094662"><ele>196.0</ele><time>2026-05-01T14:22:59.936Z</time></trkpt><trkpt lat="43.0745588" lon="12.5090942"><ele>196.0</ele><time>2026-05-01T14:23:00.936Z</time></trkpt><trkpt lat="43.074626" lon="12.5087224"><ele>196.0</ele><time>2026-05-01T14:23:01.936Z</time></trkpt><trkpt lat="43.0746954" lon="12.5083506"><ele>196.0</ele><time>2026-05-01T14:23:02.935Z</time></trkpt><trkpt lat="43.0747642" lon="12.5079754"><ele>196.0</ele><time>2026-05-01T14:23:03.936Z</time></trkpt><trkpt lat="43.0748342" lon="12.5075995"><ele>196.5</ele><time>2026-05-01T14:23:04.936Z</time></trkpt><trkpt lat="43.074904" lon="12.5072273"><ele>197.0</ele><time>2026-05-01T14:23:05.936Z</time></trkpt><trkpt lat="43.0749742" lon="12.5068558"><ele>196.5</ele><time>2026-05-01T14:23:06.935Z</time></trkpt><trkpt lat="43.0750487" lon="12.5064872"><ele>196.0</ele><time>2026-05-01T14:23:07.936Z</time></trkpt><trkpt lat="43.0751333" lon="12.5061235"><ele>196.0</ele><time>2026-05-01T14:23:08.936Z</time></trkpt><trkpt lat="43.0752318" lon="12.5057718"><ele>196.0</ele><time>2026-05-01T14:23:09.936Z</time></trkpt><trkpt lat="43.0753471" lon="12.505432"><ele>195.5</ele><time>2026-05-01T14:23:10.936Z</time></trkpt><trkpt lat="43.0754769" lon="12.5051101"><ele>195.0</ele><time>2026-05-01T14:23:11.935Z</time></trkpt><trkpt lat="43.0756202" lon="12.5048098"><ele>195.5</ele><time>2026-05-01T14:23:12.936Z</time></trkpt><trkpt lat="43.0757716" lon="12.5045233"><ele>196.0</ele><time>2026-05-01T14:23:13.936Z</time></trkpt><trkpt lat="43.0759319" lon="12.5042457"><ele>196.0</ele><time>2026-05-01T14:23:14.935Z</time></trkpt><trkpt lat="43.0760987" lon="12.5039719"><ele>196.0</ele><time>2026-05-01T14:23:15.936Z</time></trkpt><trkpt lat="43.0762797" lon="12.5037269"><ele>197.0</ele><time>2026-05-01T14:23:16.936Z</time></trkpt><trkpt lat="43.0764679" lon="12.5034888"><ele>198.0</ele><time>2026-05-01T14:23:17.935Z</time></trkpt><trkpt lat="43.0766464" lon="12.5032537"><ele>198.0</ele><time>2026-05-01T14:23:18.935Z</time></trkpt><trkpt lat="43.0768246" lon="12.5030204"><ele>198.0</ele><time>2026-05-01T14:23:19.935Z</time></trkpt><trkpt lat="43.0770001" lon="12.5027829"><ele>198.0</ele><time>2026-05-01T14:23:20.936Z</time></trkpt><trkpt lat="43.0771736" lon="12.5025403"><ele>198.0</ele><time>2026-05-01T14:23:21.936Z</time></trkpt><trkpt lat="43.0773471" lon="12.5022958"><ele>197.5</ele><time>2026-05-01T14:23:22.936Z</time></trkpt><trkpt lat="43.0775199" lon="12.502045"><ele>197.0</ele><time>2026-05-01T14:23:23.936Z</time></trkpt><trkpt lat="43.0776963" lon="12.5017942"><ele>197.0</ele><time>2026-05-01T14:23:24.936Z</time></trkpt><trkpt lat="43.0778752" lon="12.5015424"><ele>197.0</ele><time>2026-05-01T14:23:25.935Z</time></trkpt><trkpt lat="43.0780562" lon="12.5012897"><ele>197.0</ele><time>2026-05-01T14:23:26.936Z</time></trkpt><trkpt lat="43.0782424" lon="12.5010368"><ele>197.0</ele><time>2026-05-01T14:23:27.935Z</time></trkpt><trkpt lat="43.0784304" lon="12.5007808"><ele>198.0</ele><time>2026-05-01T14:23:28.936Z</time></trkpt><trkpt lat="43.0786205" lon="12.5005206"><ele>199.0</ele><time>2026-05-01T14:23:29.935Z</time></trkpt><trkpt lat="43.0788068" lon="12.5002557"><ele>199.0</ele><time>2026-05-01T14:23:30.936Z</time></trkpt><trkpt lat="43.0789959" lon="12.4999902"><ele>199.0</ele><time>2026-05-01T14:23:31.936Z</time></trkpt><trkpt lat="43.0791846" lon="12.4997218"><ele>198.5</ele><time>2026-05-01T14:23:32.936Z</time></trkpt><trkpt lat="43.0793752" lon="12.4994554"><ele>198.0</ele><time>2026-05-01T14:23:33.936Z</time></trkpt><trkpt lat="43.0795616" lon="12.4991886"><ele>198.0</ele><time>2026-05-01T14:23:34.935Z</time></trkpt><trkpt lat="43.0797479" lon="12.4989232"><ele>198.0</ele><time>2026-05-01T14:23:35.936Z</time></trkpt><trkpt lat="43.0799316" lon="12.4986576"><ele>197.0</ele><time>2026-05-01T14:23:36.936Z</time></trkpt><trkpt lat="43.0801063" lon="12.4983846"><ele>196.0</ele><time>2026-05-01T14:23:37.936Z</time></trkpt><trkpt lat="43.0802738" lon="12.4981"><ele>196.5</ele><time>2026-05-01T14:23:38.936Z</time></trkpt><trkpt lat="43.0804256" lon="12.497804"><ele>197.0</ele><time>2026-05-01T14:23:39.936Z</time></trkpt><trkpt lat="43.0805614" lon="12.4974942"><ele>197.0</ele><time>2026-05-01T14:23:40.935Z</time></trkpt><trkpt lat="43.0806868" lon="12.497172"><ele>197.0</ele><time>2026-05-01T14:23:41.936Z</time></trkpt><trkpt lat="43.080803" lon="12.4968499"><ele>197.0</ele><time>2026-05-01T14:23:42.936Z</time></trkpt><trkpt lat="43.0809007" lon="12.4965136"><ele>197.0</ele><time>2026-05-01T14:23:43.936Z</time></trkpt><trkpt lat="43.0809876" lon="12.496166"><ele>196.5</ele><time>2026-05-01T14:23:44.936Z</time></trkpt><trkpt lat="43.0810628" lon="12.4958099"><ele>196.0</ele><time>2026-05-01T14:23:45.936Z</time></trkpt><trkpt lat="43.0811331" lon="12.4954593"><ele>195.5</ele><time>2026-05-01T14:23:46.936Z</time></trkpt><trkpt lat="43.0812014" lon="12.4951071"><ele>195.0</ele><time>2026-05-01T14:23:47.935Z</time></trkpt><trkpt lat="43.0812653" lon="12.494757"><ele>194.5</ele><time>2026-05-01T14:23:48.935Z</time></trkpt><trkpt lat="43.0813268" lon="12.4943996"><ele>194.0</ele><time>2026-05-01T14:23:49.936Z</time></trkpt><trkpt lat="43.0813868" lon="12.4940446"><ele>194.0</ele><time>2026-05-01T14:23:50.935Z</time></trkpt><trkpt lat="43.0814488" lon="12.4936863"><ele>194.0</ele><time>2026-05-01T14:23:51.936Z</time></trkpt><trkpt lat="43.0815083" lon="12.4933232"><ele>194.0</ele><time>2026-05-01T14:23:52.936Z</time></trkpt><trkpt lat="43.0815696" lon="12.4929611"><ele>194.0</ele><time>2026-05-01T14:23:53.936Z</time></trkpt><trkpt lat="43.0816313" lon="12.492598"><ele>194.5</ele><time>2026-05-01T14:23:54.936Z</time></trkpt><trkpt lat="43.0816915" lon="12.492236"><ele>195.0</ele><time>2026-05-01T14:23:55.936Z</time></trkpt><trkpt lat="43.0817526" lon="12.4918846"><ele>195.0</ele><time>2026-05-01T14:23:56.935Z</time></trkpt><trkpt lat="43.0818145" lon="12.4915364"><ele>195.0</ele><time>2026-05-01T14:23:57.935Z</time></trkpt><trkpt lat="43.0818755" lon="12.4911996"><ele>196.0</ele><time>2026-05-01T14:23:58.936Z</time></trkpt><trkpt lat="43.0819427" lon="12.4908772"><ele>197.0</ele><time>2026-05-01T14:23:59.936Z</time></trkpt><trkpt lat="43.0820205" lon="12.4905555"><ele>197.0</ele><time>2026-05-01T14:24:00.936Z</time></trkpt><trkpt lat="43.0821045" lon="12.4902674"><ele>197.0</ele><time>2026-05-01T14:24:01.936Z</time></trkpt><trkpt lat="43.0821945" lon="12.4900079"><ele>197.0</ele><time>2026-05-01T14:24:02.936Z</time></trkpt><trkpt lat="43.0822882" lon="12.4897671"><ele>197.33333333333334</ele><time>2026-05-01T14:24:03.936Z</time></trkpt><trkpt lat="43.0823827" lon="12.4895489"><ele>197.66666666666669</ele><time>2026-05-01T14:24:04.936Z</time></trkpt><trkpt lat="43.082479" lon="12.4893483"><ele>198.0</ele><time>2026-05-01T14:24:05.936Z</time></trkpt><trkpt lat="43.0825744" lon="12.4891615"><ele>198.0</ele><time>2026-05-01T14:24:06.936Z</time></trkpt><trkpt lat="43.0826776" lon="12.4889832"><ele>198.0</ele><time>2026-05-01T14:24:07.936Z</time></trkpt><trkpt lat="43.0827873" lon="12.4888094"><ele>198.0</ele><time>2026-05-01T14:24:08.936Z</time></trkpt><trkpt lat="43.0829076" lon="12.4886266"><ele>198.33333333333331</ele><time>2026-05-01T14:24:09.936Z</time></trkpt><trkpt lat="43.0830354" lon="12.4884349"><ele>198.66666666666666</ele><time>2026-05-01T14:24:10.936Z</time></trkpt><trkpt lat="43.0831649" lon="12.4882389"><ele>199.0</ele><time>2026-05-01T14:24:11.936Z</time></trkpt><trkpt lat="43.0833017" lon="12.4880321"><ele>199.0</ele><time>2026-05-01T14:24:12.936Z</time></trkpt><trkpt lat="43.0834429" lon="12.4878179"><ele>199.0</ele><time>2026-05-01T14:24:13.936Z</time></trkpt><trkpt lat="43.0835851" lon="12.4875945"><ele>199.0</ele><time>2026-05-01T14:24:14.936Z</time></trkpt><trkpt lat="43.0837245" lon="12.4873697"><ele>199.0</ele><time>2026-05-01T14:24:15.936Z</time></trkpt><trkpt lat="43.0838684" lon="12.4871468"><ele>199.0</ele><time>2026-05-01T14:24:16.936Z</time></trkpt><trkpt lat="43.084008" lon="12.4869334"><ele>199.0</ele><time>2026-05-01T14:24:17.936Z</time></trkpt><trkpt lat="43.0841499" lon="12.486719"><ele>199.0</ele><time>2026-05-01T14:24:18.936Z</time></trkpt><trkpt lat="43.0842919" lon="12.486506"><ele>199.0</ele><time>2026-05-01T14:24:19.935Z</time></trkpt><trkpt lat="43.0844371" lon="12.486294"><ele>199.0</ele><time>2026-05-01T14:24:20.936Z</time></trkpt><trkpt lat="43.0845832" lon="12.4860792"><ele>199.66666666666666</ele><time>2026-05-01T14:24:21.936Z</time></trkpt><trkpt lat="43.0847266" lon="12.4858608"><ele>200.33333333333331</ele><time>2026-05-01T14:24:22.936Z</time></trkpt><trkpt lat="43.0848716" lon="12.485636"><ele>201.0</ele><time>2026-05-01T14:24:23.936Z</time></trkpt><trkpt lat="43.0850192" lon="12.4854133"><ele>201.5</ele><time>2026-05-01T14:24:24.936Z</time></trkpt><trkpt lat="43.0851716" lon="12.4851878"><ele>202.0</ele><time>2026-05-01T14:24:25.936Z</time></trkpt><trkpt lat="43.0853218" lon="12.484957"><ele>202.0</ele><time>2026-05-01T14:24:26.935Z</time></trkpt><trkpt lat="43.0854709" lon="12.4847283"><ele>202.0</ele><time>2026-05-01T14:24:27.936Z</time></trkpt><trkpt lat="43.0856196" lon="12.484497"><ele>202.0</ele><time>2026-05-01T14:24:28.936Z</time></trkpt><trkpt lat="43.0857708" lon="12.4842683"><ele>202.0</ele><time>2026-05-01T14:24:29.936Z</time></trkpt><trkpt lat="43.0859204" lon="12.4840488"><ele>202.0</ele><time>2026-05-01T14:24:30.936Z</time></trkpt><trkpt lat="43.0860682" lon="12.4838276"><ele>202.0</ele><time>2026-05-01T14:24:31.936Z</time></trkpt><trkpt lat="43.086214" lon="12.4836074"><ele>202.33333333333331</ele><time>2026-05-01T14:24:32.936Z</time></trkpt><trkpt lat="43.0863522" lon="12.4833909"><ele>202.66666666666669</ele><time>2026-05-01T14:24:33.936Z</time></trkpt><trkpt lat="43.0864986" lon="12.4831741"><ele>203.0</ele><time>2026-05-01T14:24:34.937Z</time></trkpt><trkpt lat="43.0866419" lon="12.4829556"><ele>204.66666666666669</ele><time>2026-05-01T14:24:35.937Z</time></trkpt><trkpt lat="43.0867847" lon="12.4827358"><ele>206.33333333333331</ele><time>2026-05-01T14:24:36.936Z</time></trkpt><trkpt lat="43.0869284" lon="12.4825107"><ele>208.0</ele><time>2026-05-01T14:24:37.936Z</time></trkpt><trkpt lat="43.0870652" lon="12.4822743"><ele>208.66666666666666</ele><time>2026-05-01T14:24:38.937Z</time></trkpt><trkpt lat="43.0871898" lon="12.4820265"><ele>209.33333333333331</ele><time>2026-05-01T14:24:39.936Z</time></trkpt><trkpt lat="43.0872991" lon="12.4817547"><ele>210.0</ele><time>2026-05-01T14:24:40.937Z</time></trkpt><trkpt lat="43.0873868" lon="12.4814704"><ele>210.0</ele><time>2026-05-01T14:24:41.937Z</time></trkpt><trkpt lat="43.0874567" lon="12.481171"><ele>210.0</ele><time>2026-05-01T14:24:42.937Z</time></trkpt><trkpt lat="43.0875103" lon="12.4808591"><ele>210.0</ele><time>2026-05-01T14:24:43.937Z</time></trkpt><trkpt lat="43.0875486" lon="12.480553"><ele>210.0</ele><time>2026-05-01T14:24:44.937Z</time></trkpt><trkpt lat="43.0875744" lon="12.4802453"><ele>209.0</ele><time>2026-05-01T14:24:45.936Z</time></trkpt><trkpt lat="43.0875878" lon="12.4799356"><ele>208.0</ele><time>2026-05-01T14:24:46.937Z</time></trkpt><trkpt lat="43.0876061" lon="12.4796209"><ele>207.33333333333331</ele><time>2026-05-01T14:24:47.937Z</time></trkpt><trkpt lat="43.0876208" lon="12.479314"><ele>206.66666666666669</ele><time>2026-05-01T14:24:48.937Z</time></trkpt><trkpt lat="43.0876423" lon="12.4790112"><ele>206.0</ele><time>2026-05-01T14:24:49.936Z</time></trkpt><trkpt lat="43.0876605" lon="12.4787162"><ele>205.66666666666669</ele><time>2026-05-01T14:24:50.937Z</time></trkpt><trkpt lat="43.0876775" lon="12.4784274"><ele>205.33333333333331</ele><time>2026-05-01T14:24:51.937Z</time></trkpt><trkpt lat="43.087693" lon="12.4781537"><ele>205.0</ele><time>2026-05-01T14:24:52.936Z</time></trkpt><trkpt lat="43.0877128" lon="12.4778946"><ele>205.66666666666666</ele><time>2026-05-01T14:24:53.937Z</time></trkpt><trkpt lat="43.0877295" lon="12.4776449"><ele>206.33333333333331</ele><time>2026-05-01T14:24:54.936Z</time></trkpt><trkpt lat="43.0877501" lon="12.4773931"><ele>207.0</ele><time>2026-05-01T14:24:55.937Z</time></trkpt><trkpt lat="43.087762" lon="12.4771447"><ele>207.66666666666669</ele><time>2026-05-01T14:24:56.937Z</time></trkpt><trkpt lat="43.08778" lon="12.4769029"><ele>208.33333333333334</ele><time>2026-05-01T14:24:57.937Z</time></trkpt><trkpt lat="43.0877936" lon="12.4766535"><ele>209.0</ele><time>2026-05-01T14:24:58.937Z</time></trkpt><trkpt lat="43.0878091" lon="12.4764028"><ele>209.0</ele><time>2026-05-01T14:24:59.937Z</time></trkpt><trkpt lat="43.0878284" lon="12.4761496"><ele>209.0</ele><time>2026-05-01T14:25:00.937Z</time></trkpt><trkpt lat="43.0878466" lon="12.475904"><ele>209.0</ele><time>2026-05-01T14:25:01.937Z</time></trkpt><trkpt lat="43.0878601" lon="12.4756725"><ele>209.0</ele><time>2026-05-01T14:25:02.937Z</time></trkpt><trkpt lat="43.0878832" lon="12.475454"><ele>209.0</ele><time>2026-05-01T14:25:03.936Z</time></trkpt><trkpt lat="43.0879004" lon="12.4752386"><ele>209.0</ele><time>2026-05-01T14:25:04.937Z</time></trkpt><trkpt lat="43.0879214" lon="12.4750276"><ele>210.0</ele><time>2026-05-01T14:25:05.937Z</time></trkpt><trkpt lat="43.0879463" lon="12.4748187"><ele>211.0</ele><time>2026-05-01T14:25:06.937Z</time></trkpt><trkpt lat="43.0879673" lon="12.4746147"><ele>212.0</ele><time>2026-05-01T14:25:07.937Z</time></trkpt><trkpt lat="43.0879917" lon="12.4744172"><ele>212.25</ele><time>2026-05-01T14:25:08.937Z</time></trkpt><trkpt lat="43.0880222" lon="12.4742357"><ele>212.5</ele><time>2026-05-01T14:25:09.937Z</time></trkpt><trkpt lat="43.0880679" lon="12.4740595"><ele>212.75</ele><time>2026-05-01T14:25:10.936Z</time></trkpt><trkpt lat="43.088129" lon="12.4738863"><ele>213.0</ele><time>2026-05-01T14:25:11.936Z</time></trkpt><trkpt lat="43.0881829" lon="12.4737122"><ele>213.0</ele><time>2026-05-01T14:25:12.937Z</time></trkpt><trkpt lat="43.08823" lon="12.473547"><ele>213.0</ele><time>2026-05-01T14:25:13.937Z</time></trkpt><trkpt lat="43.088289" lon="12.4733885"><ele>213.0</ele><time>2026-05-01T14:25:14.937Z</time></trkpt><trkpt lat="43.0883741" lon="12.4732414"><ele>213.0</ele><time>2026-05-01T14:25:15.937Z</time></trkpt><trkpt lat="43.0884739" lon="12.4730887"><ele>210.0</ele><time>2026-05-01T14:25:16.937Z</time></trkpt><trkpt lat="43.0885514" lon="12.4729487"><ele>207.0</ele><time>2026-05-01T14:25:17.937Z</time></trkpt><trkpt lat="43.08861" lon="12.4727995"><ele>204.0</ele><time>2026-05-01T14:25:18.936Z</time></trkpt><trkpt lat="43.0886719" lon="12.472658"><ele>201.0</ele><time>2026-05-01T14:25:19.937Z</time></trkpt><trkpt lat="43.088711" lon="12.4725171"><ele>200.20000000000002</ele><time>2026-05-01T14:25:20.937Z</time></trkpt><trkpt lat="43.088715" lon="12.4723798"><ele>199.4</ele><time>2026-05-01T14:25:21.937Z</time></trkpt><trkpt lat="43.0886849" lon="12.4722515"><ele>198.6</ele><time>2026-05-01T14:25:22.937Z</time></trkpt><trkpt lat="43.0886343" lon="12.4721383"><ele>197.8</ele><time>2026-05-01T14:25:23.937Z</time></trkpt><trkpt lat="43.088576" lon="12.4720354"><ele>197.0</ele><time>2026-05-01T14:25:24.937Z</time></trkpt><trkpt lat="43.0885052" lon="12.4719611"><ele>196.39999999999998</ele><time>2026-05-01T14:25:25.937Z</time></trkpt><trkpt lat="43.0884177" lon="12.4719127"><ele>195.79999999999998</ele><time>2026-05-01T14:25:26.937Z</time></trkpt><trkpt lat="43.0883196" lon="12.4718827"><ele>195.2</ele><time>2026-05-01T14:25:27.937Z</time></trkpt><trkpt lat="43.0882155" lon="12.4718731"><ele>194.6</ele><time>2026-05-01T14:25:28.937Z</time></trkpt><trkpt lat="43.0881126" lon="12.4718586"><ele>194.0</ele><time>2026-05-01T14:25:29.937Z</time></trkpt><trkpt lat="43.0880114" lon="12.4718359"><ele>195.39999999999998</ele><time>2026-05-01T14:25:30.937Z</time></trkpt><trkpt lat="43.0879081" lon="12.4718019"><ele>196.8</ele><time>2026-05-01T14:25:31.937Z</time></trkpt><trkpt lat="43.0878117" lon="12.4717351"><ele>198.2</ele><time>2026-05-01T14:25:32.937Z</time></trkpt><trkpt lat="43.0877316" lon="12.4716319"><ele>199.60000000000002</ele><time>2026-05-01T14:25:33.937Z</time></trkpt><trkpt lat="43.0876616" lon="12.471494"><ele>201.0</ele><time>2026-05-01T14:25:34.937Z</time></trkpt><trkpt lat="43.0876109" lon="12.4713415"><ele>199.75</ele><time>2026-05-01T14:25:35.937Z</time></trkpt><trkpt lat="43.0875703" lon="12.4711819"><ele>198.5</ele><time>2026-05-01T14:25:36.937Z</time></trkpt><trkpt lat="43.087538" lon="12.4710183"><ele>197.25</ele><time>2026-05-01T14:25:37.937Z</time></trkpt><trkpt lat="43.0875102" lon="12.4708558"><ele>196.0</ele><time>2026-05-01T14:25:38.936Z</time></trkpt><trkpt lat="43.087481" lon="12.4706836"><ele>196.0</ele><time>2026-05-01T14:25:39.937Z</time></trkpt><trkpt lat="43.0874509" lon="12.4704984"><ele>196.0</ele><time>2026-05-01T14:25:40.937Z</time></trkpt><trkpt lat="43.0874196" lon="12.4703157"><ele>196.0</ele><time>2026-05-01T14:25:41.937Z</time></trkpt><trkpt lat="43.087384" lon="12.4701284"><ele>196.0</ele><time>2026-05-01T14:25:42.937Z</time></trkpt><trkpt lat="43.0873549" lon="12.4699415"><ele>195.75</ele><time>2026-05-01T14:25:43.936Z</time></trkpt><trkpt lat="43.0873334" lon="12.469762"><ele>195.5</ele><time>2026-05-01T14:25:44.937Z</time></trkpt><trkpt lat="43.0873231" lon="12.4695919"><ele>195.25</ele><time>2026-05-01T14:25:45.937Z</time></trkpt><trkpt lat="43.0873139" lon="12.4694167"><ele>195.0</ele><time>2026-05-01T14:25:46.937Z</time></trkpt><trkpt lat="43.0873053" lon="12.4692361"><ele>195.0</ele><time>2026-05-01T14:25:47.937Z</time></trkpt><trkpt lat="43.0873066" lon="12.4690508"><ele>195.0</ele><time>2026-05-01T14:25:48.937Z</time></trkpt><trkpt lat="43.0873094" lon="12.4688638"><ele>195.0</ele><time>2026-05-01T14:25:49.937Z</time></trkpt><trkpt lat="43.087321" lon="12.4686689"><ele>195.0</ele><time>2026-05-01T14:25:50.937Z</time></trkpt><trkpt lat="43.0873371" lon="12.4684617"><ele>194.33333333333331</ele><time>2026-05-01T14:25:51.937Z</time></trkpt><trkpt lat="43.087361" lon="12.4682459"><ele>193.66666666666666</ele><time>2026-05-01T14:25:52.937Z</time></trkpt><trkpt lat="43.0873898" lon="12.4680298"><ele>193.0</ele><time>2026-05-01T14:25:53.937Z</time></trkpt><trkpt lat="43.087421" lon="12.4678191"><ele>192.0</ele><time>2026-05-01T14:25:54.937Z</time></trkpt><trkpt lat="43.0874533" lon="12.4676041"><ele>191.0</ele><time>2026-05-01T14:25:55.937Z</time></trkpt><trkpt lat="43.0874925" lon="12.4673911"><ele>190.0</ele><time>2026-05-01T14:25:56.937Z</time></trkpt><trkpt lat="43.087529" lon="12.4671823"><ele>189.66666666666669</ele><time>2026-05-01T14:25:57.937Z</time></trkpt><trkpt lat="43.0875624" lon="12.4669725"><ele>189.33333333333334</ele><time>2026-05-01T14:25:58.937Z</time></trkpt><trkpt lat="43.0875932" lon="12.4667633"><ele>189.0</ele><time>2026-05-01T14:25:59.937Z</time></trkpt><trkpt lat="43.0876258" lon="12.4665524"><ele>189.0</ele><time>2026-05-01T14:26:00.936Z</time></trkpt><trkpt lat="43.0876608" lon="12.4663372"><ele>189.0</ele><time>2026-05-01T14:26:01.937Z</time></trkpt><trkpt lat="43.0876944" lon="12.4661189"><ele>189.0</ele><time>2026-05-01T14:26:02.937Z</time></trkpt><trkpt lat="43.0877291" lon="12.4658924"><ele>188.66666666666666</ele><time>2026-05-01T14:26:03.937Z</time></trkpt><trkpt lat="43.0877653" lon="12.4656654"><ele>188.33333333333331</ele><time>2026-05-01T14:26:04.936Z</time></trkpt><trkpt lat="43.0878033" lon="12.4654367"><ele>188.0</ele><time>2026-05-01T14:26:05.937Z</time></trkpt><trkpt lat="43.0878393" lon="12.4652081"><ele>188.0</ele><time>2026-05-01T14:26:06.937Z</time></trkpt><trkpt lat="43.0878721" lon="12.4649782"><ele>188.0</ele><time>2026-05-01T14:26:07.937Z</time></trkpt><trkpt lat="43.0879023" lon="12.4647418"><ele>188.0</ele><time>2026-05-01T14:26:08.937Z</time></trkpt><trkpt lat="43.0879433" lon="12.4645044"><ele>188.0</ele><time>2026-05-01T14:26:09.937Z</time></trkpt><trkpt lat="43.0879835" lon="12.4642619"><ele>188.0</ele><time>2026-05-01T14:26:10.936Z</time></trkpt><trkpt lat="43.0880225" lon="12.4640211"><ele>188.0</ele><time>2026-05-01T14:26:11.936Z</time></trkpt><trkpt lat="43.0880616" lon="12.4637734"><ele>187.66666666666666</ele><time>2026-05-01T14:26:12.937Z</time></trkpt><trkpt lat="43.0881023" lon="12.4635189"><ele>187.33333333333334</ele><time>2026-05-01T14:26:13.937Z</time></trkpt><trkpt lat="43.0881422" lon="12.4632625"><ele>187.0</ele><time>2026-05-01T14:26:14.936Z</time></trkpt><trkpt lat="43.0881842" lon="12.463002"><ele>187.0</ele><time>2026-05-01T14:26:15.937Z</time></trkpt><trkpt lat="43.0882246" lon="12.4627424"><ele>187.0</ele><time>2026-05-01T14:26:16.937Z</time></trkpt><trkpt lat="43.0882691" lon="12.4624784"><ele>187.0</ele><time>2026-05-01T14:26:17.937Z</time></trkpt><trkpt lat="43.0883133" lon="12.4622148"><ele>186.33333333333334</ele><time>2026-05-01T14:26:18.937Z</time></trkpt><trkpt lat="43.0883605" lon="12.4619467"><ele>185.66666666666666</ele><time>2026-05-01T14:26:19.937Z</time></trkpt><trkpt lat="43.0884041" lon="12.4616731"><ele>185.0</ele><time>2026-05-01T14:26:20.936Z</time></trkpt><trkpt lat="43.0884462" lon="12.4613984"><ele>185.66666666666666</ele><time>2026-05-01T14:26:21.937Z</time></trkpt><trkpt lat="43.0884891" lon="12.4611214"><ele>186.33333333333334</ele><time>2026-05-01T14:26:22.936Z</time></trkpt><trkpt lat="43.0885302" lon="12.4608486"><ele>187.0</ele><time>2026-05-01T14:26:23.937Z</time></trkpt><trkpt lat="43.0885703" lon="12.4605751"><ele>186.66666666666669</ele><time>2026-05-01T14:26:24.936Z</time></trkpt><trkpt lat="43.0886111" lon="12.4603002"><ele>186.33333333333334</ele><time>2026-05-01T14:26:25.937Z</time></trkpt><trkpt lat="43.0886548" lon="12.4600239"><ele>186.0</ele><time>2026-05-01T14:26:26.936Z</time></trkpt><trkpt lat="43.0887017" lon="12.4597472"><ele>186.0</ele><time>2026-05-01T14:26:27.937Z</time></trkpt><trkpt lat="43.0887429" lon="12.4594722"><ele>186.0</ele><time>2026-05-01T14:26:28.937Z</time></trkpt><trkpt lat="43.0887861" lon="12.4591981"><ele>186.0</ele><time>2026-05-01T14:26:29.937Z</time></trkpt><trkpt lat="43.0888309" lon="12.4589159"><ele>187.0</ele><time>2026-05-01T14:26:30.937Z</time></trkpt><trkpt lat="43.0888713" lon="12.45864"><ele>188.0</ele><time>2026-05-01T14:26:31.936Z</time></trkpt><trkpt lat="43.0889132" lon="12.4583689"><ele>189.0</ele><time>2026-05-01T14:26:32.937Z</time></trkpt><trkpt lat="43.0889523" lon="12.4580965"><ele>188.66666666666666</ele><time>2026-05-01T14:26:33.937Z</time></trkpt><trkpt lat="43.0889925" lon="12.4578256"><ele>188.33333333333331</ele><time>2026-05-01T14:26:34.937Z</time></trkpt><trkpt lat="43.0890414" lon="12.4575573"><ele>188.0</ele><time>2026-05-01T14:26:35.937Z</time></trkpt><trkpt lat="43.0890971" lon="12.4572894"><ele>187.0</ele><time>2026-05-01T14:26:36.937Z</time></trkpt><trkpt lat="43.0891397" lon="12.457016"><ele>186.0</ele><time>2026-05-01T14:26:37.937Z</time></trkpt><trkpt lat="43.0891855" lon="12.4567382"><ele>185.0</ele><time>2026-05-01T14:26:38.937Z</time></trkpt><trkpt lat="43.0892286" lon="12.4564528"><ele>185.33333333333331</ele><time>2026-05-01T14:26:39.937Z</time></trkpt><trkpt lat="43.0892697" lon="12.4561711"><ele>185.66666666666666</ele><time>2026-05-01T14:26:40.937Z</time></trkpt><trkpt lat="43.0893117" lon="12.4558928"><ele>186.0</ele><time>2026-05-01T14:26:41.937Z</time></trkpt><trkpt lat="43.0893537" lon="12.4556132"><ele>186.33333333333334</ele><time>2026-05-01T14:26:42.937Z</time></trkpt><trkpt lat="43.0893919" lon="12.455339"><ele>186.66666666666669</ele><time>2026-05-01T14:26:43.937Z</time></trkpt><trkpt lat="43.0894279" lon="12.4550609"><ele>187.0</ele><time>2026-05-01T14:26:44.937Z</time></trkpt><trkpt lat="43.0894546" lon="12.4547839"><ele>187.0</ele><time>2026-05-01T14:26:45.937Z</time></trkpt><trkpt lat="43.0894687" lon="12.4545041"><ele>187.0</ele><time>2026-05-01T14:26:46.937Z</time></trkpt><trkpt lat="43.0894753" lon="12.4542222"><ele>187.0</ele><time>2026-05-01T14:26:47.936Z</time></trkpt><trkpt lat="43.0894691" lon="12.4539444"><ele>186.66666666666669</ele><time>2026-05-01T14:26:48.937Z</time></trkpt><trkpt lat="43.0894539" lon="12.4536684"><ele>186.33333333333334</ele><time>2026-05-01T14:26:49.937Z</time></trkpt><trkpt lat="43.089427" lon="12.453388"><ele>186.0</ele><time>2026-05-01T14:26:50.937Z</time></trkpt><trkpt lat="43.0893917" lon="12.4531169"><ele>186.0</ele><time>2026-05-01T14:26:51.937Z</time></trkpt><trkpt lat="43.0893473" lon="12.4528489"><ele>186.0</ele><time>2026-05-01T14:26:52.937Z</time></trkpt><trkpt lat="43.0892956" lon="12.4525837"><ele>186.0</ele><time>2026-05-01T14:26:53.936Z</time></trkpt><trkpt lat="43.089238" lon="12.4523198"><ele>186.0</ele><time>2026-05-01T14:26:54.937Z</time></trkpt><trkpt lat="43.0891694" lon="12.4520587"><ele>186.0</ele><time>2026-05-01T14:26:55.937Z</time></trkpt><trkpt lat="43.0890929" lon="12.4517962"><ele>186.0</ele><time>2026-05-01T14:26:56.937Z</time></trkpt><trkpt lat="43.0890112" lon="12.4515398"><ele>186.0</ele><time>2026-05-01T14:26:57.937Z</time></trkpt><trkpt lat="43.088933" lon="12.4512789"><ele>186.0</ele><time>2026-05-01T14:26:58.937Z</time></trkpt><trkpt lat="43.0888542" lon="12.4510155"><ele>186.0</ele><time>2026-05-01T14:26:59.937Z</time></trkpt><trkpt lat="43.08877" lon="12.4507526"><ele>186.0</ele><time>2026-05-01T14:27:00.937Z</time></trkpt><trkpt lat="43.0886904" lon="12.4504912"><ele>186.0</ele><time>2026-05-01T14:27:01.937Z</time></trkpt><trkpt lat="43.0886093" lon="12.4502273"><ele>186.0</ele><time>2026-05-01T14:27:02.937Z</time></trkpt><trkpt lat="43.0885272" lon="12.449969"><ele>186.0</ele><time>2026-05-01T14:27:03.937Z</time></trkpt><trkpt lat="43.0884469" lon="12.4497036"><ele>186.0</ele><time>2026-05-01T14:27:04.937Z</time></trkpt><trkpt lat="43.0883683" lon="12.4494394"><ele>186.0</ele><time>2026-05-01T14:27:05.937Z</time></trkpt><trkpt lat="43.0882897" lon="12.4491725"><ele>185.33333333333334</ele><time>2026-05-01T14:27:06.937Z</time></trkpt><trkpt lat="43.0882093" lon="12.4489057"><ele>184.66666666666669</ele><time>2026-05-01T14:27:07.937Z</time></trkpt><trkpt lat="43.0881254" lon="12.448632"><ele>184.0</ele><time>2026-05-01T14:27:08.937Z</time></trkpt><trkpt lat="43.0880378" lon="12.448354"><ele>184.0</ele><time>2026-05-01T14:27:09.936Z</time></trkpt><trkpt lat="43.0879506" lon="12.4480698"><ele>184.0</ele><time>2026-05-01T14:27:10.937Z</time></trkpt><trkpt lat="43.0878617" lon="12.4477847"><ele>186.0</ele><time>2026-05-01T14:27:11.936Z</time></trkpt><trkpt lat="43.0877765" lon="12.4474943"><ele>188.0</ele><time>2026-05-01T14:27:12.937Z</time></trkpt><trkpt lat="43.0876942" lon="12.447199"><ele>189.0</ele><time>2026-05-01T14:27:13.937Z</time></trkpt><trkpt lat="43.0876098" lon="12.4469077"><ele>190.0</ele><time>2026-05-01T14:27:14.937Z</time></trkpt><trkpt lat="43.0875255" lon="12.446619"><ele>190.0</ele><time>2026-05-01T14:27:15.937Z</time></trkpt><trkpt lat="43.0874385" lon="12.4463301"><ele>190.0</ele><time>2026-05-01T14:27:16.937Z</time></trkpt><trkpt lat="43.0873469" lon="12.4460414"><ele>190.5</ele><time>2026-05-01T14:27:17.937Z</time></trkpt><trkpt lat="43.0872566" lon="12.4457484"><ele>191.0</ele><time>2026-05-01T14:27:18.936Z</time></trkpt><trkpt lat="43.0871677" lon="12.4454549"><ele>191.0</ele><time>2026-05-01T14:27:19.937Z</time></trkpt><trkpt lat="43.0870796" lon="12.4451567"><ele>191.0</ele><time>2026-05-01T14:27:20.937Z</time></trkpt><trkpt lat="43.0869906" lon="12.4448518"><ele>191.0</ele><time>2026-05-01T14:27:21.937Z</time></trkpt><trkpt lat="43.0868977" lon="12.4445538"><ele>191.0</ele><time>2026-05-01T14:27:22.937Z</time></trkpt><trkpt lat="43.0868017" lon="12.4442582"><ele>191.0</ele><time>2026-05-01T14:27:23.937Z</time></trkpt><trkpt lat="43.0867097" lon="12.4439601"><ele>191.0</ele><time>2026-05-01T14:27:24.937Z</time></trkpt><trkpt lat="43.0866202" lon="12.4436652"><ele>191.0</ele><time>2026-05-01T14:27:25.937Z</time></trkpt><trkpt lat="43.0865339" lon="12.4433713"><ele>191.0</ele><time>2026-05-01T14:27:26.937Z</time></trkpt><trkpt lat="43.0864441" lon="12.4430839"><ele>190.5</ele><time>2026-05-01T14:27:27.936Z</time></trkpt><trkpt lat="43.0863529" lon="12.4427962"><ele>190.0</ele><time>2026-05-01T14:27:28.937Z</time></trkpt><trkpt lat="43.0862623" lon="12.4425059"><ele>190.0</ele><time>2026-05-01T14:27:29.937Z</time></trkpt><trkpt lat="43.0861777" lon="12.4422133"><ele>190.0</ele><time>2026-05-01T14:27:30.937Z</time></trkpt><trkpt lat="43.0860964" lon="12.4419225"><ele>190.66666666666669</ele><time>2026-05-01T14:27:31.936Z</time></trkpt><trkpt lat="43.0860218" lon="12.4416415"><ele>191.33333333333334</ele><time>2026-05-01T14:27:32.937Z</time></trkpt><trkpt lat="43.0859544" lon="12.4413683"><ele>192.0</ele><time>2026-05-01T14:27:33.937Z</time></trkpt><trkpt lat="43.0859034" lon="12.4410923"><ele>192.0</ele><time>2026-05-01T14:27:34.937Z</time></trkpt><trkpt lat="43.0858632" lon="12.4408201"><ele>192.0</ele><time>2026-05-01T14:27:35.937Z</time></trkpt><trkpt lat="43.0858331" lon="12.4405263"><ele>192.0</ele><time>2026-05-01T14:27:36.936Z</time></trkpt><trkpt lat="43.0858196" lon="12.4402369"><ele>192.0</ele><time>2026-05-01T14:27:37.936Z</time></trkpt><trkpt lat="43.0858236" lon="12.4399681"><ele>192.0</ele><time>2026-05-01T14:27:38.937Z</time></trkpt><trkpt lat="43.0858344" lon="12.4396966"><ele>192.0</ele><time>2026-05-01T14:27:39.937Z</time></trkpt><trkpt lat="43.085844" lon="12.4394268"><ele>192.33333333333331</ele><time>2026-05-01T14:27:40.937Z</time></trkpt><trkpt lat="43.085855" lon="12.4391512"><ele>192.66666666666666</ele><time>2026-05-01T14:27:41.937Z</time></trkpt><trkpt lat="43.0858608" lon="12.4388762"><ele>193.0</ele><time>2026-05-01T14:27:42.936Z</time></trkpt><trkpt lat="43.0858618" lon="12.4385985"><ele>193.0</ele><time>2026-05-01T14:27:43.936Z</time></trkpt><trkpt lat="43.0858682" lon="12.4383323"><ele>193.0</ele><time>2026-05-01T14:27:44.937Z</time></trkpt><trkpt lat="43.0858682" lon="12.4380779"><ele>193.0</ele><time>2026-05-01T14:27:45.937Z</time></trkpt><trkpt lat="43.0858693" lon="12.4378358"><ele>193.0</ele><time>2026-05-01T14:27:46.937Z</time></trkpt><trkpt lat="43.0858722" lon="12.4375945"><ele>193.0</ele><time>2026-05-01T14:27:47.937Z</time></trkpt><trkpt lat="43.0858762" lon="12.4373508"><ele>193.0</ele><time>2026-05-01T14:27:48.937Z</time></trkpt><trkpt lat="43.0858752" lon="12.4371012"><ele>193.0</ele><time>2026-05-01T14:27:49.937Z</time></trkpt><trkpt lat="43.0858791" lon="12.4368443"><ele>193.0</ele><time>2026-05-01T14:27:50.937Z</time></trkpt><trkpt lat="43.0858822" lon="12.436592"><ele>193.0</ele><time>2026-05-01T14:27:51.937Z</time></trkpt><trkpt lat="43.0858856" lon="12.4363409"><ele>193.66666666666666</ele><time>2026-05-01T14:27:52.937Z</time></trkpt><trkpt lat="43.0858899" lon="12.4360898"><ele>194.33333333333331</ele><time>2026-05-01T14:27:53.937Z</time></trkpt><trkpt lat="43.0858917" lon="12.435837"><ele>195.0</ele><time>2026-05-01T14:27:54.937Z</time></trkpt><trkpt lat="43.0858962" lon="12.4355839"><ele>195.66666666666669</ele><time>2026-05-01T14:27:55.937Z</time></trkpt><trkpt lat="43.0859081" lon="12.4353328"><ele>196.33333333333334</ele><time>2026-05-01T14:27:56.937Z</time></trkpt><trkpt lat="43.0859268" lon="12.4350783"><ele>197.0</ele><time>2026-05-01T14:27:57.937Z</time></trkpt><trkpt lat="43.085936" lon="12.4348274"><ele>197.66666666666669</ele><time>2026-05-01T14:27:58.937Z</time></trkpt><trkpt lat="43.0859558" lon="12.4345853"><ele>198.33333333333331</ele><time>2026-05-01T14:27:59.937Z</time></trkpt><trkpt lat="43.0859707" lon="12.4343655"><ele>199.0</ele><time>2026-05-01T14:28:00.937Z</time></trkpt><trkpt lat="43.0859818" lon="12.4341518"><ele>199.0</ele><time>2026-05-01T14:28:01.937Z</time></trkpt><trkpt lat="43.0859831" lon="12.4339463"><ele>199.0</ele><time>2026-05-01T14:28:02.936Z</time></trkpt><trkpt lat="43.0859831" lon="12.4337465"><ele>199.0</ele><time>2026-05-01T14:28:03.937Z</time></trkpt><trkpt lat="43.0859754" lon="12.4335418"><ele>199.0</ele><time>2026-05-01T14:28:04.937Z</time></trkpt><trkpt lat="43.0859663" lon="12.4333398"><ele>199.0</ele><time>2026-05-01T14:28:05.937Z</time></trkpt><trkpt lat="43.0859631" lon="12.4331477"><ele>199.0</ele><time>2026-05-01T14:28:06.937Z</time></trkpt><trkpt lat="43.0859561" lon="12.4329636"><ele>199.0</ele><time>2026-05-01T14:28:07.937Z</time></trkpt><trkpt lat="43.0859536" lon="12.432792"><ele>199.0</ele><time>2026-05-01T14:28:08.937Z</time></trkpt><trkpt lat="43.0859545" lon="12.4326169"><ele>199.0</ele><time>2026-05-01T14:28:09.937Z</time></trkpt><trkpt lat="43.0859567" lon="12.4324578"><ele>199.0</ele><time>2026-05-01T14:28:10.936Z</time></trkpt><trkpt lat="43.0859495" lon="12.4323109"><ele>199.0</ele><time>2026-05-01T14:28:11.937Z</time></trkpt><trkpt lat="43.0859391" lon="12.4321716"><ele>199.0</ele><time>2026-05-01T14:28:12.936Z</time></trkpt><trkpt lat="43.0859326" lon="12.4320204"><ele>199.0</ele><time>2026-05-01T14:28:13.936Z</time></trkpt><trkpt lat="43.0859282" lon="12.4318561"><ele>199.0</ele><time>2026-05-01T14:28:14.937Z</time></trkpt><trkpt lat="43.085925" lon="12.4316763"><ele>199.0</ele><time>2026-05-01T14:28:15.936Z</time></trkpt><trkpt lat="43.085925" lon="12.4314698"><ele>199.0</ele><time>2026-05-01T14:28:16.936Z</time></trkpt><trkpt lat="43.085921" lon="12.4312447"><ele>199.0</ele><time>2026-05-01T14:28:17.937Z</time></trkpt><trkpt lat="43.0859118" lon="12.4310099"><ele>198.33333333333331</ele><time>2026-05-01T14:28:18.937Z</time></trkpt><trkpt lat="43.0859022" lon="12.4307573"><ele>197.66666666666669</ele><time>2026-05-01T14:28:19.936Z</time></trkpt><trkpt lat="43.0858909" lon="12.430508"><ele>197.0</ele><time>2026-05-01T14:28:20.936Z</time></trkpt><trkpt lat="43.0858789" lon="12.4302697"><ele>197.0</ele><time>2026-05-01T14:28:21.937Z</time></trkpt><trkpt lat="43.0858709" lon="12.4300406"><ele>197.0</ele><time>2026-05-01T14:28:22.937Z</time></trkpt><trkpt lat="43.0858668" lon="12.4298077"><ele>197.0</ele><time>2026-05-01T14:28:23.937Z</time></trkpt><trkpt lat="43.0858653" lon="12.4295708"><ele>198.33333333333334</ele><time>2026-05-01T14:28:24.937Z</time></trkpt><trkpt lat="43.0858695" lon="12.4293324"><ele>199.66666666666669</ele><time>2026-05-01T14:28:25.937Z</time></trkpt><trkpt lat="43.0858876" lon="12.4290972"><ele>201.0</ele><time>2026-05-01T14:28:26.936Z</time></trkpt><trkpt lat="43.0859402" lon="12.428869"><ele>201.33333333333331</ele><time>2026-05-01T14:28:27.937Z</time></trkpt><trkpt lat="43.0860313" lon="12.428675"><ele>201.66666666666666</ele><time>2026-05-01T14:28:28.936Z</time></trkpt><trkpt lat="43.0861398" lon="12.4285123"><ele>202.0</ele><time>2026-05-01T14:28:29.937Z</time></trkpt><trkpt lat="43.0862654" lon="12.4283616"><ele>202.0</ele><time>2026-05-01T14:28:30.937Z</time></trkpt><trkpt lat="43.0863924" lon="12.4282172"><ele>202.0</ele><time>2026-05-01T14:28:31.937Z</time></trkpt><trkpt lat="43.0865232" lon="12.4280842"><ele>202.0</ele><time>2026-05-01T14:28:32.936Z</time></trkpt><trkpt lat="43.0866602" lon="12.4279489"><ele>202.0</ele><time>2026-05-01T14:28:33.937Z</time></trkpt><trkpt lat="43.0868044" lon="12.4278108"><ele>202.0</ele><time>2026-05-01T14:28:34.937Z</time></trkpt><trkpt lat="43.0869624" lon="12.4276527"><ele>202.0</ele><time>2026-05-01T14:28:35.936Z</time></trkpt><trkpt lat="43.0871297" lon="12.427474"><ele>202.0</ele><time>2026-05-01T14:28:36.936Z</time></trkpt><trkpt lat="43.0873036" lon="12.4272872"><ele>202.0</ele><time>2026-05-01T14:28:37.937Z</time></trkpt><trkpt lat="43.0874775" lon="12.4270868"><ele>202.0</ele><time>2026-05-01T14:28:38.937Z</time></trkpt><trkpt lat="43.0876479" lon="12.4268853"><ele>201.66666666666666</ele><time>2026-05-01T14:28:39.936Z</time></trkpt><trkpt lat="43.0878109" lon="12.4266891"><ele>201.33333333333331</ele><time>2026-05-01T14:28:40.937Z</time></trkpt><trkpt lat="43.0879759" lon="12.4264958"><ele>201.0</ele><time>2026-05-01T14:28:41.937Z</time></trkpt><trkpt lat="43.0881265" lon="12.4263091"><ele>202.66666666666669</ele><time>2026-05-01T14:28:42.937Z</time></trkpt><trkpt lat="43.0882787" lon="12.4261329"><ele>204.33333333333334</ele><time>2026-05-01T14:28:43.937Z</time></trkpt><trkpt lat="43.088425" lon="12.425956"><ele>206.0</ele><time>2026-05-01T14:28:44.936Z</time></trkpt><trkpt lat="43.0885757" lon="12.4257726"><ele>206.0</ele><time>2026-05-01T14:28:45.937Z</time></trkpt><trkpt lat="43.0887256" lon="12.4255904"><ele>206.0</ele><time>2026-05-01T14:28:46.937Z</time></trkpt><trkpt lat="43.088879" lon="12.4254075"><ele>206.0</ele><time>2026-05-01T14:28:47.937Z</time></trkpt><trkpt lat="43.0890356" lon="12.4252189"><ele>210.0</ele><time>2026-05-01T14:28:48.937Z</time></trkpt><trkpt lat="43.0891901" lon="12.4250402"><ele>214.0</ele><time>2026-05-01T14:28:49.936Z</time></trkpt><trkpt lat="43.0893402" lon="12.4248592"><ele>218.0</ele><time>2026-05-01T14:28:50.936Z</time></trkpt><trkpt lat="43.0894888" lon="12.4246777"><ele>217.33333333333334</ele><time>2026-05-01T14:28:51.936Z</time></trkpt><trkpt lat="43.0896433" lon="12.4244954"><ele>216.66666666666669</ele><time>2026-05-01T14:28:52.937Z</time></trkpt><trkpt lat="43.0897981" lon="12.4243108"><ele>216.0</ele><time>2026-05-01T14:28:53.937Z</time></trkpt><trkpt lat="43.0899554" lon="12.4241212"><ele>218.0</ele><time>2026-05-01T14:28:54.937Z</time></trkpt><trkpt lat="43.0901155" lon="12.423928"><ele>220.0</ele><time>2026-05-01T14:28:55.936Z</time></trkpt><trkpt lat="43.0902728" lon="12.4237312"><ele>222.0</ele><time>2026-05-01T14:28:56.937Z</time></trkpt><trkpt lat="43.0904268" lon="12.4235278"><ele>222.0</ele><time>2026-05-01T14:28:57.936Z</time></trkpt><trkpt lat="43.0905706" lon="12.423315"><ele>222.0</ele><time>2026-05-01T14:28:58.937Z</time></trkpt><trkpt lat="43.0907051" lon="12.423095"><ele>222.0</ele><time>2026-05-01T14:28:59.936Z</time></trkpt><trkpt lat="43.0908335" lon="12.4228686"><ele>226.33333333333331</ele><time>2026-05-01T14:29:00.937Z</time></trkpt><trkpt lat="43.0909472" lon="12.4226319"><ele>230.66666666666666</ele><time>2026-05-01T14:29:01.937Z</time></trkpt><trkpt lat="43.0910455" lon="12.4223708"><ele>235.0</ele><time>2026-05-01T14:29:02.936Z</time></trkpt><trkpt lat="43.0911227" lon="12.4220878"><ele>238.33333333333331</ele><time>2026-05-01T14:29:03.937Z</time></trkpt><trkpt lat="43.0911848" lon="12.4218026"><ele>241.66666666666669</ele><time>2026-05-01T14:29:04.937Z</time></trkpt><trkpt lat="43.0912442" lon="12.4215158"><ele>245.0</ele><time>2026-05-01T14:29:05.937Z</time></trkpt><trkpt lat="43.0920177" lon="12.4143978"><ele>249.33333333333334</ele><time>2026-05-01T14:29:26.937Z</time></trkpt><trkpt lat="43.0921062" lon="12.4140941"><ele>253.66666666666669</ele><time>2026-05-01T14:29:27.937Z</time></trkpt><trkpt lat="43.092168" lon="12.4138235"><ele>258.0</ele><time>2026-05-01T14:29:28.936Z</time></trkpt><trkpt lat="43.0922717" lon="12.4135383"><ele>258.0</ele><time>2026-05-01T14:29:29.937Z</time></trkpt><trkpt lat="43.0923693" lon="12.4132566"><ele>258.0</ele><time>2026-05-01T14:29:30.937Z</time></trkpt><trkpt lat="43.0924793" lon="12.4130026"><ele>258.0</ele><time>2026-05-01T14:29:31.937Z</time></trkpt><trkpt lat="43.0925845" lon="12.4127392"><ele>263.0</ele><time>2026-05-01T14:29:32.937Z</time></trkpt><trkpt lat="43.0926737" lon="12.4124578"><ele>268.0</ele><time>2026-05-01T14:29:33.937Z</time></trkpt><trkpt lat="43.0927779" lon="12.412181"><ele>267.3333333333333</ele><time>2026-05-01T14:29:34.937Z</time></trkpt><trkpt lat="43.0928749" lon="12.4119071"><ele>266.6666666666667</ele><time>2026-05-01T14:29:35.937Z</time></trkpt><trkpt lat="43.0929787" lon="12.4116372"><ele>266.0</ele><time>2026-05-01T14:29:36.936Z</time></trkpt><trkpt lat="43.0930814" lon="12.4113621"><ele>265.5</ele><time>2026-05-01T14:29:37.937Z</time></trkpt><trkpt lat="43.0931851" lon="12.4110881"><ele>265.0</ele><time>2026-05-01T14:29:38.937Z</time></trkpt><trkpt lat="43.0932938" lon="12.4108073"><ele>271.5</ele><time>2026-05-01T14:29:39.937Z</time></trkpt><trkpt lat="43.0933979" lon="12.4105307"><ele>278.0</ele><time>2026-05-01T14:29:40.937Z</time></trkpt><trkpt lat="43.093499" lon="12.4102504"><ele>278.0</ele><time>2026-05-01T14:29:41.936Z</time></trkpt><trkpt lat="43.0935956" lon="12.40997"><ele>278.0</ele><time>2026-05-01T14:29:42.937Z</time></trkpt><trkpt lat="43.0936875" lon="12.4096844"><ele>277.0</ele><time>2026-05-01T14:29:43.937Z</time></trkpt><trkpt lat="43.0937756" lon="12.4093898"><ele>276.0</ele><time>2026-05-01T14:29:44.936Z</time></trkpt><trkpt lat="43.0938592" lon="12.4090835"><ele>276.0</ele><time>2026-05-01T14:29:45.937Z</time></trkpt><trkpt lat="43.0939385" lon="12.4087598"><ele>276.0</ele><time>2026-05-01T14:29:46.936Z</time></trkpt><trkpt lat="43.0940079" lon="12.4084338"><ele>276.0</ele><time>2026-05-01T14:29:47.937Z</time></trkpt><trkpt lat="43.0940696" lon="12.4081011"><ele>276.0</ele><time>2026-05-01T14:29:48.936Z</time></trkpt><trkpt lat="43.094129" lon="12.4077552"><ele>283.0</ele><time>2026-05-01T14:29:49.936Z</time></trkpt><trkpt lat="43.0941816" lon="12.4074069"><ele>290.0</ele><time>2026-05-01T14:29:50.937Z</time></trkpt><trkpt lat="43.0942282" lon="12.4070524"><ele>291.0</ele><time>2026-05-01T14:29:51.937Z</time></trkpt><trkpt lat="43.0942673" lon="12.4066965"><ele>292.0</ele><time>2026-05-01T14:29:52.936Z</time></trkpt><trkpt lat="43.0943011" lon="12.4063353"><ele>292.5</ele><time>2026-05-01T14:29:53.936Z</time></trkpt><trkpt lat="43.0943266" lon="12.4059737"><ele>293.0</ele><time>2026-05-01T14:29:54.937Z</time></trkpt><trkpt lat="43.0943423" lon="12.4056088"><ele>297.5</ele><time>2026-05-01T14:29:55.936Z</time></trkpt><trkpt lat="43.0943556" lon="12.4052424"><ele>302.0</ele><time>2026-05-01T14:29:56.937Z</time></trkpt><trkpt lat="43.0943599" lon="12.4048761"><ele>304.0</ele><time>2026-05-01T14:29:57.937Z</time></trkpt><trkpt lat="43.0943607" lon="12.4045128"><ele>306.0</ele><time>2026-05-01T14:29:58.937Z</time></trkpt><trkpt lat="43.0943576" lon="12.4041632"><ele>308.5</ele><time>2026-05-01T14:29:59.936Z</time></trkpt><trkpt lat="43.0943469" lon="12.4038087"><ele>311.0</ele><time>2026-05-01T14:30:00.936Z</time></trkpt><trkpt lat="43.0943285" lon="12.4034541"><ele>311.0</ele><time>2026-05-01T14:30:01.937Z</time></trkpt><trkpt lat="43.0943099" lon="12.4031007"><ele>311.0</ele><time>2026-05-01T14:30:02.936Z</time></trkpt><trkpt lat="43.0942931" lon="12.4027486"><ele>317.0</ele><time>2026-05-01T14:30:03.937Z</time></trkpt><trkpt lat="43.0942773" lon="12.4024011"><ele>323.0</ele><time>2026-05-01T14:30:04.937Z</time></trkpt><trkpt lat="43.0936296" lon="12.3887322"><ele>323.5</ele><time>2026-05-01T14:30:42.936Z</time></trkpt><trkpt lat="43.093646" lon="12.3883692"><ele>324.0</ele><time>2026-05-01T14:30:43.936Z</time></trkpt><trkpt lat="43.0936272" lon="12.3880433"><ele>321.0</ele><time>2026-05-01T14:30:44.937Z</time></trkpt><trkpt lat="43.0936266" lon="12.3876938"><ele>318.0</ele><time>2026-05-01T14:30:45.937Z</time></trkpt><trkpt lat="43.0936284" lon="12.3873557"><ele>316.5</ele><time>2026-05-01T14:30:46.937Z</time></trkpt><trkpt lat="43.0936395" lon="12.3870099"><ele>315.0</ele><time>2026-05-01T14:30:47.937Z</time></trkpt><trkpt lat="43.0936694" lon="12.3866594"><ele>311.0</ele><time>2026-05-01T14:30:48.937Z</time></trkpt><trkpt lat="43.0936958" lon="12.3863013"><ele>307.0</ele><time>2026-05-01T14:30:49.937Z</time></trkpt><trkpt lat="43.0937352" lon="12.3859409"><ele>307.0</ele><time>2026-05-01T14:30:50.937Z</time></trkpt><trkpt lat="43.0937824" lon="12.3855837"><ele>307.0</ele><time>2026-05-01T14:30:51.936Z</time></trkpt><trkpt lat="43.0938301" lon="12.3852331"><ele>307.0</ele><time>2026-05-01T14:30:52.937Z</time></trkpt><trkpt lat="43.093883" lon="12.3848848"><ele>307.0</ele><time>2026-05-01T14:30:53.937Z</time></trkpt><trkpt lat="43.0939413" lon="12.3845473"><ele>310.5</ele><time>2026-05-01T14:30:54.937Z</time></trkpt><trkpt lat="43.0940048" lon="12.3842136"><ele>314.0</ele><time>2026-05-01T14:30:55.937Z</time></trkpt><trkpt lat="43.0940655" lon="12.3838863"><ele>316.0</ele><time>2026-05-01T14:30:56.937Z</time></trkpt><trkpt lat="43.0941341" lon="12.3835664"><ele>318.0</ele><time>2026-05-01T14:30:57.936Z</time></trkpt><trkpt lat="43.0942028" lon="12.3832363"><ele>326.5</ele><time>2026-05-01T14:30:58.937Z</time></trkpt><trkpt lat="43.0942756" lon="12.3828952"><ele>335.0</ele><time>2026-05-01T14:30:59.937Z</time></trkpt><trkpt lat="43.0983558" lon="12.37293"><ele>317.6666666666667</ele><time>2026-05-01T14:31:32.937Z</time></trkpt><trkpt lat="43.098392" lon="12.3726436"><ele>300.3333333333333</ele><time>2026-05-01T14:31:33.937Z</time></trkpt><trkpt lat="43.0984195" lon="12.3723669"><ele>283.0</ele><time>2026-05-01T14:31:34.937Z</time></trkpt><trkpt lat="43.0984341" lon="12.3720732"><ele>282.66666666666663</ele><time>2026-05-01T14:31:35.937Z</time></trkpt><trkpt lat="43.0984442" lon="12.3717778"><ele>282.3333333333333</ele><time>2026-05-01T14:31:36.936Z</time></trkpt><trkpt lat="43.0984374" lon="12.3714842"><ele>282.0</ele><time>2026-05-01T14:31:37.936Z</time></trkpt><trkpt lat="43.0984324" lon="12.3711826"><ele>282.0</ele><time>2026-05-01T14:31:38.936Z</time></trkpt><trkpt lat="43.098411" lon="12.3708828"><ele>282.0</ele><time>2026-05-01T14:31:39.937Z</time></trkpt><trkpt lat="43.098378" lon="12.3705791"><ele>282.0</ele><time>2026-05-01T14:31:40.936Z</time></trkpt><trkpt lat="43.0983402" lon="12.3702766"><ele>282.3333333333333</ele><time>2026-05-01T14:31:41.937Z</time></trkpt><trkpt lat="43.0982867" lon="12.3699811"><ele>282.66666666666663</ele><time>2026-05-01T14:31:42.937Z</time></trkpt><trkpt lat="43.0982209" lon="12.3696858"><ele>283.0</ele><time>2026-05-01T14:31:43.937Z</time></trkpt><trkpt lat="43.0981432" lon="12.3693965"><ele>281.5</ele><time>2026-05-01T14:31:44.936Z</time></trkpt><trkpt lat="43.098056" lon="12.369106"><ele>280.0</ele><time>2026-05-01T14:31:45.937Z</time></trkpt><trkpt lat="43.0979727" lon="12.3688117"><ele>280.0</ele><time>2026-05-01T14:31:46.936Z</time></trkpt><trkpt lat="43.0978777" lon="12.3685328"><ele>280.0</ele><time>2026-05-01T14:31:47.937Z</time></trkpt><trkpt lat="43.0977819" lon="12.3682658"><ele>280.0</ele><time>2026-05-01T14:31:48.937Z</time></trkpt><trkpt lat="43.0976963" lon="12.3680083"><ele>281.0</ele><time>2026-05-01T14:31:49.936Z</time></trkpt><trkpt lat="43.0976093" lon="12.3677563"><ele>282.0</ele><time>2026-05-01T14:31:50.937Z</time></trkpt><trkpt lat="43.0975168" lon="12.3675042"><ele>283.0</ele><time>2026-05-01T14:31:51.937Z</time></trkpt><trkpt lat="43.0974251" lon="12.3672398"><ele>283.66666666666663</ele><time>2026-05-01T14:31:52.937Z</time></trkpt><trkpt lat="43.0973283" lon="12.3669725"><ele>284.3333333333333</ele><time>2026-05-01T14:31:53.937Z</time></trkpt><trkpt lat="43.0972297" lon="12.3666956"><ele>285.0</ele><time>2026-05-01T14:31:54.937Z</time></trkpt><trkpt lat="43.0971294" lon="12.3664086"><ele>288.5</ele><time>2026-05-01T14:31:55.936Z</time></trkpt><trkpt lat="43.0970279" lon="12.3661294"><ele>292.0</ele><time>2026-05-01T14:31:56.937Z</time></trkpt><trkpt lat="43.0969224" lon="12.3658354"><ele>292.0</ele><time>2026-05-01T14:31:57.936Z</time></trkpt><trkpt lat="43.0968113" lon="12.3655321"><ele>292.0</ele><time>2026-05-01T14:31:58.937Z</time></trkpt><trkpt lat="43.0963282" lon="12.3587659"><ele>281.0</ele><time>2026-05-01T14:32:19.937Z</time></trkpt><trkpt lat="43.0964594" lon="12.3584858"><ele>270.0</ele><time>2026-05-01T14:32:20.937Z</time></trkpt><trkpt lat="43.0965975" lon="12.3581735"><ele>270.0</ele><time>2026-05-01T14:32:21.936Z</time></trkpt><trkpt lat="43.096741" lon="12.3578671"><ele>270.0</ele><time>2026-05-01T14:32:22.937Z</time></trkpt><trkpt lat="43.0968876" lon="12.3575567"><ele>270.0</ele><time>2026-05-01T14:32:23.937Z</time></trkpt><trkpt lat="43.0970339" lon="12.3572716"><ele>270.0</ele><time>2026-05-01T14:32:24.936Z</time></trkpt><trkpt lat="43.0971699" lon="12.3569754"><ele>267.5</ele><time>2026-05-01T14:32:25.937Z</time></trkpt><trkpt lat="43.0973244" lon="12.3566699"><ele>265.0</ele><time>2026-05-01T14:32:26.937Z</time></trkpt><trkpt lat="43.0974609" lon="12.3563752"><ele>263.0</ele><time>2026-05-01T14:32:27.937Z</time></trkpt><trkpt lat="43.0976008" lon="12.356081"><ele>261.0</ele><time>2026-05-01T14:32:28.937Z</time></trkpt><trkpt lat="43.0977461" lon="12.3557863"><ele>261.0</ele><time>2026-05-01T14:32:29.937Z</time></trkpt><trkpt lat="43.0978883" lon="12.3554855"><ele>261.0</ele><time>2026-05-01T14:32:30.936Z</time></trkpt><trkpt lat="43.098027" lon="12.3551901"><ele>261.0</ele><time>2026-05-01T14:32:31.936Z</time></trkpt><trkpt lat="43.098166" lon="12.3548994"><ele>261.0</ele><time>2026-05-01T14:32:32.937Z</time></trkpt><trkpt lat="43.0983046" lon="12.3546074"><ele>263.0</ele><time>2026-05-01T14:32:33.937Z</time></trkpt><trkpt lat="43.0984439" lon="12.3543178"><ele>265.0</ele><time>2026-05-01T14:32:34.936Z</time></trkpt><trkpt lat="43.0985822" lon="12.3540234"><ele>266.5</ele><time>2026-05-01T14:32:35.937Z</time></trkpt><trkpt lat="43.0987155" lon="12.3537342"><ele>268.0</ele><time>2026-05-01T14:32:36.937Z</time></trkpt><trkpt lat="43.0988536" lon="12.353446"><ele>268.0</ele><time>2026-05-01T14:32:37.937Z</time></trkpt><trkpt lat="43.0989949" lon="12.3531533"><ele>268.0</ele><time>2026-05-01T14:32:38.937Z</time></trkpt><trkpt lat="43.0991339" lon="12.3528581"><ele>269.0</ele><time>2026-05-01T14:32:39.937Z</time></trkpt><trkpt lat="43.0992754" lon="12.3525655"><ele>270.0</ele><time>2026-05-01T14:32:40.936Z</time></trkpt><trkpt lat="43.099413" lon="12.3522753"><ele>271.0</ele><time>2026-05-01T14:32:41.937Z</time></trkpt><trkpt lat="43.099549" lon="12.3519862"><ele>272.0</ele><time>2026-05-01T14:32:42.937Z</time></trkpt><trkpt lat="43.0996869" lon="12.3516946"><ele>272.0</ele><time>2026-05-01T14:32:43.937Z</time></trkpt><trkpt lat="43.0998209" lon="12.3514008"><ele>272.0</ele><time>2026-05-01T14:32:44.937Z</time></trkpt><trkpt lat="43.0999468" lon="12.3510971"><ele>271.5</ele><time>2026-05-01T14:32:45.937Z</time></trkpt><trkpt lat="43.1000615" lon="12.350786"><ele>271.0</ele><time>2026-05-01T14:32:46.936Z</time></trkpt><trkpt lat="43.100176" lon="12.3504754"><ele>274.5</ele><time>2026-05-01T14:32:47.937Z</time></trkpt><trkpt lat="43.1002838" lon="12.3501537"><ele>278.0</ele><time>2026-05-01T14:32:48.937Z</time></trkpt><trkpt lat="43.1003849" lon="12.3498287"><ele>283.5</ele><time>2026-05-01T14:32:49.937Z</time></trkpt><trkpt lat="43.1004804" lon="12.3495007"><ele>289.0</ele><time>2026-05-01T14:32:50.937Z</time></trkpt><trkpt lat="43.1005698" lon="12.3491688"><ele>292.0</ele><time>2026-05-01T14:32:51.937Z</time></trkpt><trkpt lat="43.10065" lon="12.3488281"><ele>295.0</ele><time>2026-05-01T14:32:52.937Z</time></trkpt><trkpt lat="43.1007231" lon="12.3484857"><ele>291.0</ele><time>2026-05-01T14:32:53.937Z</time></trkpt><trkpt lat="43.100798" lon="12.3481398"><ele>287.0</ele><time>2026-05-01T14:32:54.936Z</time></trkpt><trkpt lat="43.1008682" lon="12.347796"><ele>287.0</ele><time>2026-05-01T14:32:55.937Z</time></trkpt><trkpt lat="43.1009379" lon="12.347451"><ele>287.0</ele><time>2026-05-01T14:32:56.937Z</time></trkpt><trkpt lat="43.1010096" lon="12.3471047"><ele>288.0</ele><time>2026-05-01T14:32:57.937Z</time></trkpt><trkpt lat="43.1010827" lon="12.3467626"><ele>289.0</ele><time>2026-05-01T14:32:58.937Z</time></trkpt><trkpt lat="43.1011548" lon="12.3464261"><ele>290.5</ele><time>2026-05-01T14:32:59.937Z</time></trkpt><trkpt lat="43.1012297" lon="12.3460935"><ele>292.0</ele><time>2026-05-01T14:33:00.936Z</time></trkpt><trkpt lat="43.1013049" lon="12.3457727"><ele>296.0</ele><time>2026-05-01T14:33:01.936Z</time></trkpt><trkpt lat="43.1013876" lon="12.3454523"><ele>300.0</ele><time>2026-05-01T14:33:02.937Z</time></trkpt><trkpt lat="43.1014747" lon="12.3451384"><ele>300.0</ele><time>2026-05-01T14:33:03.937Z</time></trkpt><trkpt lat="43.1015812" lon="12.3448337"><ele>300.0</ele><time>2026-05-01T14:33:04.937Z</time></trkpt><trkpt lat="43.1017022" lon="12.3445337"><ele>299.5</ele><time>2026-05-01T14:33:05.936Z</time></trkpt><trkpt lat="43.1018383" lon="12.344236"><ele>299.0</ele><time>2026-05-01T14:33:06.937Z</time></trkpt><trkpt lat="43.1019814" lon="12.3439631"><ele>299.5</ele><time>2026-05-01T14:33:07.937Z</time></trkpt><trkpt lat="43.1021217" lon="12.3437074"><ele>300.0</ele><time>2026-05-01T14:33:08.937Z</time></trkpt><trkpt lat="43.102264" lon="12.343438"><ele>300.0</ele><time>2026-05-01T14:33:09.936Z</time></trkpt><trkpt lat="43.1024087" lon="12.3431474"><ele>300.0</ele><time>2026-05-01T14:33:10.937Z</time></trkpt><trkpt lat="43.1025558" lon="12.3428535"><ele>298.5</ele><time>2026-05-01T14:33:11.936Z</time></trkpt><trkpt lat="43.1027176" lon="12.3425507"><ele>297.0</ele><time>2026-05-01T14:33:12.937Z</time></trkpt><trkpt lat="43.1028778" lon="12.3422441"><ele>300.5</ele><time>2026-05-01T14:33:13.937Z</time></trkpt><trkpt lat="43.103042" lon="12.3419314"><ele>304.0</ele><time>2026-05-01T14:33:14.936Z</time></trkpt><trkpt lat="43.1032061" lon="12.34162"><ele>303.0</ele><time>2026-05-01T14:33:15.937Z</time></trkpt><trkpt lat="43.1033706" lon="12.3413106"><ele>302.0</ele><time>2026-05-01T14:33:16.937Z</time></trkpt><trkpt lat="43.1035371" lon="12.3410003"><ele>302.0</ele><time>2026-05-01T14:33:17.936Z</time></trkpt><trkpt lat="43.1037041" lon="12.3406786"><ele>302.0</ele><time>2026-05-01T14:33:18.937Z</time></trkpt><trkpt lat="43.1038738" lon="12.3403646"><ele>301.5</ele><time>2026-05-01T14:33:19.937Z</time></trkpt><trkpt lat="43.1040414" lon="12.3400582"><ele>301.0</ele><time>2026-05-01T14:33:20.937Z</time></trkpt><trkpt lat="43.1041997" lon="12.3397322"><ele>302.0</ele><time>2026-05-01T14:33:21.937Z</time></trkpt><trkpt lat="43.1043282" lon="12.3393807"><ele>303.0</ele><time>2026-05-01T14:33:22.936Z</time></trkpt><trkpt lat="43.1044463" lon="12.339032"><ele>303.5</ele><time>2026-05-01T14:33:23.936Z</time></trkpt><trkpt lat="43.1045617" lon="12.3386938"><ele>304.0</ele><time>2026-05-01T14:33:24.937Z</time></trkpt><trkpt lat="43.1046666" lon="12.3383372"><ele>306.0</ele><time>2026-05-01T14:33:25.937Z</time></trkpt><trkpt lat="43.1047591" lon="12.3379703"><ele>308.0</ele><time>2026-05-01T14:33:26.937Z</time></trkpt><trkpt lat="43.1048449" lon="12.3376068"><ele>306.5</ele><time>2026-05-01T14:33:27.937Z</time></trkpt><trkpt lat="43.104928" lon="12.3372467"><ele>305.0</ele><time>2026-05-01T14:33:28.937Z</time></trkpt><trkpt lat="43.1050055" lon="12.3368918"><ele>304.5</ele><time>2026-05-01T14:33:29.937Z</time></trkpt><trkpt lat="43.1050819" lon="12.3365365"><ele>304.0</ele><time>2026-05-01T14:33:30.936Z</time></trkpt><trkpt lat="43.1051448" lon="12.336186"><ele>305.0</ele><time>2026-05-01T14:33:31.937Z</time></trkpt><trkpt lat="43.1052165" lon="12.3358335"><ele>306.0</ele><time>2026-05-01T14:33:32.937Z</time></trkpt><trkpt lat="43.1052941" lon="12.3354862"><ele>309.5</ele><time>2026-05-01T14:33:33.937Z</time></trkpt><trkpt lat="43.1053719" lon="12.3351338"><ele>313.0</ele><time>2026-05-01T14:33:34.936Z</time></trkpt><trkpt lat="43.1054449" lon="12.3347855"><ele>314.0</ele><time>2026-05-01T14:33:35.937Z</time></trkpt><trkpt lat="43.1055209" lon="12.3344468"><ele>315.0</ele><time>2026-05-01T14:33:36.936Z</time></trkpt><trkpt lat="43.1055895" lon="12.3341118"><ele>315.0</ele><time>2026-05-01T14:33:37.936Z</time></trkpt><trkpt lat="43.105654" lon="12.3337792"><ele>315.0</ele><time>2026-05-01T14:33:38.937Z</time></trkpt><trkpt lat="43.1057195" lon="12.3334507"><ele>308.0</ele><time>2026-05-01T14:33:39.936Z</time></trkpt><trkpt lat="43.1057874" lon="12.3331233"><ele>301.0</ele><time>2026-05-01T14:33:40.937Z</time></trkpt><trkpt lat="43.1058569" lon="12.3328002"><ele>301.0</ele><time>2026-05-01T14:33:41.937Z</time></trkpt><trkpt lat="43.1059276" lon="12.332476"><ele>301.0</ele><time>2026-05-01T14:33:42.936Z</time></trkpt><trkpt lat="43.105993" lon="12.3321566"><ele>303.5</ele><time>2026-05-01T14:33:43.936Z</time></trkpt><trkpt lat="43.1060501" lon="12.3318385"><ele>306.0</ele><time>2026-05-01T14:33:44.937Z</time></trkpt><trkpt lat="43.1060925" lon="12.3315207"><ele>308.0</ele><time>2026-05-01T14:33:45.936Z</time></trkpt><trkpt lat="43.1061232" lon="12.3312069"><ele>310.0</ele><time>2026-05-01T14:33:46.937Z</time></trkpt><trkpt lat="43.1061448" lon="12.3308944"><ele>310.0</ele><time>2026-05-01T14:33:47.936Z</time></trkpt><trkpt lat="43.1061583" lon="12.330579"><ele>310.0</ele><time>2026-05-01T14:33:48.937Z</time></trkpt><trkpt lat="43.1061596" lon="12.3302593"><ele>311.5</ele><time>2026-05-01T14:33:49.937Z</time></trkpt><trkpt lat="43.1061494" lon="12.3299298"><ele>313.0</ele><time>2026-05-01T14:33:50.937Z</time></trkpt><trkpt lat="43.1061291" lon="12.3295971"><ele>309.0</ele><time>2026-05-01T14:33:51.937Z</time></trkpt><trkpt lat="43.1061011" lon="12.329257"><ele>305.0</ele><time>2026-05-01T14:33:52.936Z</time></trkpt><trkpt lat="43.1060617" lon="12.3289271"><ele>302.0</ele><time>2026-05-01T14:33:53.936Z</time></trkpt><trkpt lat="43.1060129" lon="12.3286028"><ele>299.0</ele><time>2026-05-01T14:33:54.936Z</time></trkpt><trkpt lat="43.1059495" lon="12.3282841"><ele>298.0</ele><time>2026-05-01T14:33:55.936Z</time></trkpt><trkpt lat="43.1058749" lon="12.3279692"><ele>297.0</ele><time>2026-05-01T14:33:56.937Z</time></trkpt><trkpt lat="43.1057935" lon="12.3276552"><ele>295.5</ele><time>2026-05-01T14:33:57.937Z</time></trkpt><trkpt lat="43.1057001" lon="12.3273388"><ele>294.0</ele><time>2026-05-01T14:33:58.937Z</time></trkpt><trkpt lat="43.1055969" lon="12.3270264"><ele>294.0</ele><time>2026-05-01T14:33:59.937Z</time></trkpt><trkpt lat="43.1054853" lon="12.3267168"><ele>294.0</ele><time>2026-05-01T14:34:00.937Z</time></trkpt><trkpt lat="43.1053691" lon="12.3264083"><ele>292.0</ele><time>2026-05-01T14:34:01.937Z</time></trkpt><trkpt lat="43.1052436" lon="12.3261011"><ele>290.0</ele><time>2026-05-01T14:34:02.937Z</time></trkpt><trkpt lat="43.1051205" lon="12.3257861"><ele>289.5</ele><time>2026-05-01T14:34:03.937Z</time></trkpt><trkpt lat="43.1050052" lon="12.3254609"><ele>289.0</ele><time>2026-05-01T14:34:04.936Z</time></trkpt><trkpt lat="43.1048948" lon="12.3251362"><ele>286.5</ele><time>2026-05-01T14:34:05.937Z</time></trkpt><trkpt lat="43.1047796" lon="12.3248209"><ele>284.0</ele><time>2026-05-01T14:34:06.936Z</time></trkpt><trkpt lat="43.1046616" lon="12.324501"><ele>283.5</ele><time>2026-05-01T14:34:07.937Z</time></trkpt><trkpt lat="43.1045451" lon="12.3241768"><ele>283.0</ele><time>2026-05-01T14:34:08.937Z</time></trkpt><trkpt lat="43.1044288" lon="12.3238441"><ele>283.0</ele><time>2026-05-01T14:34:09.937Z</time></trkpt><trkpt lat="43.1043109" lon="12.3235071"><ele>283.0</ele><time>2026-05-01T14:34:10.937Z</time></trkpt><trkpt lat="43.1041928" lon="12.3231729"><ele>279.0</ele><time>2026-05-01T14:34:11.936Z</time></trkpt><trkpt lat="43.1040755" lon="12.3228365"><ele>275.0</ele><time>2026-05-01T14:34:12.936Z</time></trkpt><trkpt lat="43.1039549" lon="12.3224936"><ele>277.0</ele><time>2026-05-01T14:34:13.936Z</time></trkpt><trkpt lat="43.103834" lon="12.3221486"><ele>279.0</ele><time>2026-05-01T14:34:14.936Z</time></trkpt><trkpt lat="43.103711" lon="12.3218011"><ele>279.0</ele><time>2026-05-01T14:34:15.937Z</time></trkpt><trkpt lat="43.1035911" lon="12.321449"><ele>279.0</ele><time>2026-05-01T14:34:16.936Z</time></trkpt><trkpt lat="43.1034705" lon="12.3210962"><ele>279.5</ele><time>2026-05-01T14:34:17.937Z</time></trkpt><trkpt lat="43.1033521" lon="12.3207452"><ele>280.0</ele><time>2026-05-01T14:34:18.936Z</time></trkpt><trkpt lat="43.1032329" lon="12.320394"><ele>278.0</ele><time>2026-05-01T14:34:19.937Z</time></trkpt><trkpt lat="43.1031197" lon="12.3200338"><ele>276.0</ele><time>2026-05-01T14:34:20.936Z</time></trkpt><trkpt lat="43.1030149" lon="12.3196728"><ele>276.0</ele><time>2026-05-01T14:34:21.937Z</time></trkpt><trkpt lat="43.1029059" lon="12.3193076"><ele>276.0</ele><time>2026-05-01T14:34:22.936Z</time></trkpt><trkpt lat="43.1028054" lon="12.3189419"><ele>275.5</ele><time>2026-05-01T14:34:23.937Z</time></trkpt><trkpt lat="43.1027122" lon="12.3185763"><ele>275.0</ele><time>2026-05-01T14:34:24.937Z</time></trkpt><trkpt lat="43.1026215" lon="12.3182054"><ele>274.5</ele><time>2026-05-01T14:34:25.936Z</time></trkpt><trkpt lat="43.1025359" lon="12.3178296"><ele>274.0</ele><time>2026-05-01T14:34:26.937Z</time></trkpt><trkpt lat="43.1024537" lon="12.3174536"><ele>270.5</ele><time>2026-05-01T14:34:27.936Z</time></trkpt><trkpt lat="43.1023755" lon="12.3170761"><ele>267.0</ele><time>2026-05-01T14:34:28.936Z</time></trkpt><trkpt lat="43.1023037" lon="12.3166967"><ele>267.0</ele><time>2026-05-01T14:34:29.937Z</time></trkpt><trkpt lat="43.1022429" lon="12.3163212"><ele>267.0</ele><time>2026-05-01T14:34:30.937Z</time></trkpt><trkpt lat="43.1021845" lon="12.3159495"><ele>267.0</ele><time>2026-05-01T14:34:31.937Z</time></trkpt><trkpt lat="43.1021277" lon="12.3155756"><ele>267.0</ele><time>2026-05-01T14:34:32.937Z</time></trkpt><trkpt lat="43.1020714" lon="12.3152024"><ele>267.0</ele><time>2026-05-01T14:34:33.937Z</time></trkpt><trkpt lat="43.1020148" lon="12.3148262"><ele>267.0</ele><time>2026-05-01T14:34:34.937Z</time></trkpt><trkpt lat="43.1019601" lon="12.3144537"><ele>266.5</ele><time>2026-05-01T14:34:35.937Z</time></trkpt><trkpt lat="43.1019024" lon="12.3140897"><ele>266.0</ele><time>2026-05-01T14:34:36.936Z</time></trkpt><trkpt lat="43.1018414" lon="12.3137247"><ele>265.5</ele><time>2026-05-01T14:34:37.937Z</time></trkpt><trkpt lat="43.1017843" lon="12.313361"><ele>265.0</ele><time>2026-05-01T14:34:38.937Z</time></trkpt><trkpt lat="43.1017354" lon="12.3129941"><ele>264.0</ele><time>2026-05-01T14:34:39.936Z</time></trkpt><trkpt lat="43.1016869" lon="12.3126213"><ele>263.0</ele><time>2026-05-01T14:34:40.936Z</time></trkpt><trkpt lat="43.1016353" lon="12.31225"><ele>261.0</ele><time>2026-05-01T14:34:41.937Z</time></trkpt><trkpt lat="43.1015794" lon="12.3118837"><ele>259.0</ele><time>2026-05-01T14:34:42.937Z</time></trkpt><trkpt lat="43.1015167" lon="12.3115238"><ele>257.0</ele><time>2026-05-01T14:34:43.937Z</time></trkpt><trkpt lat="43.1014571" lon="12.3111582"><ele>255.0</ele><time>2026-05-01T14:34:44.937Z</time></trkpt><trkpt lat="43.1014081" lon="12.3107935"><ele>254.0</ele><time>2026-05-01T14:34:45.937Z</time></trkpt><trkpt lat="43.1013561" lon="12.3104282"><ele>253.0</ele><time>2026-05-01T14:34:46.937Z</time></trkpt><trkpt lat="43.101303" lon="12.3100707"><ele>253.5</ele><time>2026-05-01T14:34:47.937Z</time></trkpt><trkpt lat="43.1012538" lon="12.3097091"><ele>254.0</ele><time>2026-05-01T14:34:48.936Z</time></trkpt><trkpt lat="43.1012015" lon="12.3093473"><ele>254.0</ele><time>2026-05-01T14:34:49.937Z</time></trkpt><trkpt lat="43.1011494" lon="12.3089861"><ele>254.0</ele><time>2026-05-01T14:34:50.937Z</time></trkpt><trkpt lat="43.101094" lon="12.3086257"><ele>253.0</ele><time>2026-05-01T14:34:51.936Z</time></trkpt><trkpt lat="43.1010435" lon="12.3082624"><ele>252.0</ele><time>2026-05-01T14:34:52.936Z</time></trkpt><trkpt lat="43.1009934" lon="12.3079005"><ele>252.0</ele><time>2026-05-01T14:34:53.937Z</time></trkpt><trkpt lat="43.1009498" lon="12.3075364"><ele>252.0</ele><time>2026-05-01T14:34:54.937Z</time></trkpt><trkpt lat="43.1009152" lon="12.3071685"><ele>252.0</ele><time>2026-05-01T14:34:55.937Z</time></trkpt><trkpt lat="43.100893" lon="12.3068024"><ele>252.0</ele><time>2026-05-01T14:34:56.937Z</time></trkpt><trkpt lat="43.1008798" lon="12.3064339"><ele>251.0</ele><time>2026-05-01T14:34:57.937Z</time></trkpt><trkpt lat="43.1008776" lon="12.3060608"><ele>250.0</ele><time>2026-05-01T14:34:58.936Z</time></trkpt><trkpt lat="43.1008818" lon="12.3056865"><ele>248.0</ele><time>2026-05-01T14:34:59.937Z</time></trkpt><trkpt lat="43.100899" lon="12.3053071"><ele>246.0</ele><time>2026-05-01T14:35:00.937Z</time></trkpt><trkpt lat="43.1009207" lon="12.3049266"><ele>245.5</ele><time>2026-05-01T14:35:01.937Z</time></trkpt><trkpt lat="43.1009501" lon="12.3045432"><ele>245.0</ele><time>2026-05-01T14:35:02.937Z</time></trkpt><trkpt lat="43.1009823" lon="12.3041581"><ele>245.0</ele><time>2026-05-01T14:35:03.937Z</time></trkpt><trkpt lat="43.101015" lon="12.3037606"><ele>245.0</ele><time>2026-05-01T14:35:04.936Z</time></trkpt><trkpt lat="43.1010482" lon="12.3033781"><ele>246.0</ele><time>2026-05-01T14:35:05.937Z</time></trkpt><trkpt lat="43.1010805" lon="12.3029995"><ele>247.0</ele><time>2026-05-01T14:35:06.936Z</time></trkpt><trkpt lat="43.1011106" lon="12.3026162"><ele>248.0</ele><time>2026-05-01T14:35:07.937Z</time></trkpt><trkpt lat="43.101145" lon="12.3022392"><ele>249.0</ele><time>2026-05-01T14:35:08.937Z</time></trkpt><trkpt lat="43.1011797" lon="12.3018582"><ele>249.0</ele><time>2026-05-01T14:35:09.937Z</time></trkpt><trkpt lat="43.1012122" lon="12.3014838"><ele>249.0</ele><time>2026-05-01T14:35:10.937Z</time></trkpt><trkpt lat="43.1012459" lon="12.301107"><ele>248.0</ele><time>2026-05-01T14:35:11.937Z</time></trkpt><trkpt lat="43.1012796" lon="12.300731"><ele>247.0</ele><time>2026-05-01T14:35:12.937Z</time></trkpt><trkpt lat="43.1013143" lon="12.3003577"><ele>245.0</ele><time>2026-05-01T14:35:13.936Z</time></trkpt><trkpt lat="43.1013448" lon="12.2999892"><ele>243.0</ele><time>2026-05-01T14:35:14.937Z</time></trkpt><trkpt lat="43.1013813" lon="12.2996223"><ele>242.5</ele><time>2026-05-01T14:35:15.937Z</time></trkpt><trkpt lat="43.1014219" lon="12.299256"><ele>242.0</ele><time>2026-05-01T14:35:16.937Z</time></trkpt><trkpt lat="43.1014753" lon="12.2988916"><ele>242.0</ele><time>2026-05-01T14:35:17.937Z</time></trkpt><trkpt lat="43.1015347" lon="12.2985258"><ele>242.0</ele><time>2026-05-01T14:35:18.937Z</time></trkpt><trkpt lat="43.1016098" lon="12.2981542"><ele>242.0</ele><time>2026-05-01T14:35:19.936Z</time></trkpt><trkpt lat="43.1017009" lon="12.2977615"><ele>242.0</ele><time>2026-05-01T14:35:20.936Z</time></trkpt><trkpt lat="43.1018048" lon="12.2973731"><ele>241.5</ele><time>2026-05-01T14:35:21.937Z</time></trkpt><trkpt lat="43.1019213" lon="12.2969856"><ele>241.0</ele><time>2026-05-01T14:35:22.937Z</time></trkpt><trkpt lat="43.102047" lon="12.2966072"><ele>241.0</ele><time>2026-05-01T14:35:23.936Z</time></trkpt><trkpt lat="43.1021832" lon="12.2962332"><ele>241.0</ele><time>2026-05-01T14:35:24.936Z</time></trkpt><trkpt lat="43.1023234" lon="12.29586"><ele>244.5</ele><time>2026-05-01T14:35:25.937Z</time></trkpt><trkpt lat="43.1024561" lon="12.2954838"><ele>248.0</ele><time>2026-05-01T14:35:26.937Z</time></trkpt><trkpt lat="43.102591" lon="12.2951098"><ele>251.0</ele><time>2026-05-01T14:35:27.936Z</time></trkpt><trkpt lat="43.1027253" lon="12.2947333"><ele>254.0</ele><time>2026-05-01T14:35:28.936Z</time></trkpt><trkpt lat="43.1028594" lon="12.2943561"><ele>254.0</ele><time>2026-05-01T14:35:29.937Z</time></trkpt><trkpt lat="43.1029948" lon="12.2939828"><ele>254.0</ele><time>2026-05-01T14:35:30.937Z</time></trkpt><trkpt lat="43.1031274" lon="12.2936096"><ele>255.5</ele><time>2026-05-01T14:35:31.936Z</time></trkpt><trkpt lat="43.1032705" lon="12.2932389"><ele>257.0</ele><time>2026-05-01T14:35:32.937Z</time></trkpt><trkpt lat="43.1034165" lon="12.2928668"><ele>257.5</ele><time>2026-05-01T14:35:33.937Z</time></trkpt><trkpt lat="43.1035667" lon="12.2925068"><ele>258.0</ele><time>2026-05-01T14:35:34.937Z</time></trkpt><trkpt lat="43.1037246" lon="12.292155"><ele>254.5</ele><time>2026-05-01T14:35:35.937Z</time></trkpt><trkpt lat="43.10389" lon="12.2918075"><ele>251.0</ele><time>2026-05-01T14:35:36.936Z</time></trkpt><trkpt lat="43.1040619" lon="12.2914712"><ele>249.0</ele><time>2026-05-01T14:35:37.937Z</time></trkpt><trkpt lat="43.1042437" lon="12.2911371"><ele>247.0</ele><time>2026-05-01T14:35:38.937Z</time></trkpt><trkpt lat="43.1044277" lon="12.2908112"><ele>245.5</ele><time>2026-05-01T14:35:39.936Z</time></trkpt><trkpt lat="43.1046217" lon="12.2904913"><ele>244.0</ele><time>2026-05-01T14:35:40.937Z</time></trkpt><trkpt lat="43.104824" lon="12.2901849"><ele>247.5</ele><time>2026-05-01T14:35:41.937Z</time></trkpt><trkpt lat="43.1050379" lon="12.2898981"><ele>251.0</ele><time>2026-05-01T14:35:42.937Z</time></trkpt><trkpt lat="43.1052618" lon="12.2896223"><ele>251.0</ele><time>2026-05-01T14:35:43.937Z</time></trkpt><trkpt lat="43.1054907" lon="12.2893542"><ele>251.0</ele><time>2026-05-01T14:35:44.936Z</time></trkpt><trkpt lat="43.1057288" lon="12.2890931"><ele>251.5</ele><time>2026-05-01T14:35:45.937Z</time></trkpt><trkpt lat="43.105972" lon="12.2888424"><ele>252.0</ele><time>2026-05-01T14:35:46.937Z</time></trkpt><trkpt lat="43.1062218" lon="12.2886043"><ele>252.0</ele><time>2026-05-01T14:35:47.937Z</time></trkpt><trkpt lat="43.1064769" lon="12.2883711"><ele>252.0</ele><time>2026-05-01T14:35:48.937Z</time></trkpt><trkpt lat="43.1067403" lon="12.2881581"><ele>250.5</ele><time>2026-05-01T14:35:49.937Z</time></trkpt><trkpt lat="43.1070066" lon="12.287954"><ele>249.0</ele><time>2026-05-01T14:35:50.937Z</time></trkpt><trkpt lat="43.1072728" lon="12.2877597"><ele>252.5</ele><time>2026-05-01T14:35:51.937Z</time></trkpt><trkpt lat="43.1075429" lon="12.2875688"><ele>256.0</ele><time>2026-05-01T14:35:52.936Z</time></trkpt><trkpt lat="43.1078164" lon="12.2873861"><ele>253.5</ele><time>2026-05-01T14:35:53.936Z</time></trkpt><trkpt lat="43.1080928" lon="12.2872082"><ele>251.0</ele><time>2026-05-01T14:35:54.937Z</time></trkpt><trkpt lat="43.1083702" lon="12.2870282"><ele>251.0</ele><time>2026-05-01T14:35:55.937Z</time></trkpt><trkpt lat="43.1086459" lon="12.286846"><ele>251.0</ele><time>2026-05-01T14:35:56.937Z</time></trkpt><trkpt lat="43.1089233" lon="12.2866551"><ele>250.5</ele><time>2026-05-01T14:35:57.937Z</time></trkpt><trkpt lat="43.1091987" lon="12.2864659"><ele>250.0</ele><time>2026-05-01T14:35:58.937Z</time></trkpt><trkpt lat="43.1094736" lon="12.2862725"><ele>250.0</ele><time>2026-05-01T14:35:59.937Z</time></trkpt><trkpt lat="43.1097526" lon="12.2860779"><ele>250.0</ele><time>2026-05-01T14:36:00.937Z</time></trkpt><trkpt lat="43.1100357" lon="12.2858805"><ele>248.5</ele><time>2026-05-01T14:36:01.937Z</time></trkpt><trkpt lat="43.1103144" lon="12.2856839"><ele>247.0</ele><time>2026-05-01T14:36:02.937Z</time></trkpt><trkpt lat="43.1105965" lon="12.2854913"><ele>248.0</ele><time>2026-05-01T14:36:03.937Z</time></trkpt><trkpt lat="43.1108791" lon="12.2852973"><ele>249.0</ele><time>2026-05-01T14:36:04.937Z</time></trkpt><trkpt lat="43.1111654" lon="12.2851033"><ele>249.0</ele><time>2026-05-01T14:36:05.937Z</time></trkpt><trkpt lat="43.1114467" lon="12.2849025"><ele>249.0</ele><time>2026-05-01T14:36:06.937Z</time></trkpt><trkpt lat="43.1117228" lon="12.2847088"><ele>245.0</ele><time>2026-05-01T14:36:07.937Z</time></trkpt><trkpt lat="43.1119997" lon="12.2845097"><ele>241.0</ele><time>2026-05-01T14:36:08.937Z</time></trkpt><trkpt lat="43.1122789" lon="12.2843036"><ele>242.5</ele><time>2026-05-01T14:36:09.937Z</time></trkpt><trkpt lat="43.112555" lon="12.2841057"><ele>244.0</ele><time>2026-05-01T14:36:10.937Z</time></trkpt><trkpt lat="43.1128389" lon="12.2839009"><ele>241.5</ele><time>2026-05-01T14:36:11.936Z</time></trkpt><trkpt lat="43.1131201" lon="12.2837039"><ele>239.0</ele><time>2026-05-01T14:36:12.937Z</time></trkpt><trkpt lat="43.1134049" lon="12.2835147"><ele>239.0</ele><time>2026-05-01T14:36:13.937Z</time></trkpt><trkpt lat="43.1136894" lon="12.2833174"><ele>239.0</ele><time>2026-05-01T14:36:14.937Z</time></trkpt><trkpt lat="43.113973" lon="12.2831191"><ele>237.0</ele><time>2026-05-01T14:36:15.937Z</time></trkpt><trkpt lat="43.1142497" lon="12.2829224"><ele>235.0</ele><time>2026-05-01T14:36:16.937Z</time></trkpt><trkpt lat="43.1145309" lon="12.2827252"><ele>235.0</ele><time>2026-05-01T14:36:17.937Z</time></trkpt><trkpt lat="43.1148094" lon="12.2825238"><ele>235.0</ele><time>2026-05-01T14:36:18.936Z</time></trkpt><trkpt lat="43.1150847" lon="12.2823185"><ele>235.0</ele><time>2026-05-01T14:36:19.937Z</time></trkpt><trkpt lat="43.115358" lon="12.2821213"><ele>235.0</ele><time>2026-05-01T14:36:20.937Z</time></trkpt><trkpt lat="43.115636" lon="12.2819216"><ele>235.0</ele><time>2026-05-01T14:36:21.937Z</time></trkpt><trkpt lat="43.1159192" lon="12.2817227"><ele>235.0</ele><time>2026-05-01T14:36:22.937Z</time></trkpt><trkpt lat="43.1161924" lon="12.2815355"><ele>233.5</ele><time>2026-05-01T14:36:23.937Z</time></trkpt><trkpt lat="43.116462" lon="12.2813431"><ele>232.0</ele><time>2026-05-01T14:36:24.936Z</time></trkpt><trkpt lat="43.1167296" lon="12.2811472"><ele>231.5</ele><time>2026-05-01T14:36:25.937Z</time></trkpt><trkpt lat="43.1169965" lon="12.2809636"><ele>231.0</ele><time>2026-05-01T14:36:26.937Z</time></trkpt><trkpt lat="43.1172592" lon="12.2807788"><ele>231.5</ele><time>2026-05-01T14:36:27.937Z</time></trkpt><trkpt lat="43.1175197" lon="12.2805936"><ele>232.0</ele><time>2026-05-01T14:36:28.936Z</time></trkpt><trkpt lat="43.1177789" lon="12.2804059"><ele>232.0</ele><time>2026-05-01T14:36:29.937Z</time></trkpt><trkpt lat="43.1180325" lon="12.280218"><ele>232.0</ele><time>2026-05-01T14:36:30.936Z</time></trkpt><trkpt lat="43.1182858" lon="12.2800339"><ele>233.0</ele><time>2026-05-01T14:36:31.937Z</time></trkpt><trkpt lat="43.1185364" lon="12.2798585"><ele>234.0</ele><time>2026-05-01T14:36:32.937Z</time></trkpt><trkpt lat="43.1187815" lon="12.2796881"><ele>234.0</ele><time>2026-05-01T14:36:33.937Z</time></trkpt><trkpt lat="43.1190213" lon="12.2795155"><ele>234.0</ele><time>2026-05-01T14:36:34.937Z</time></trkpt><trkpt lat="43.1192596" lon="12.279342"><ele>233.5</ele><time>2026-05-01T14:36:35.937Z</time></trkpt><trkpt lat="43.1195" lon="12.2791678"><ele>233.0</ele><time>2026-05-01T14:36:36.937Z</time></trkpt><trkpt lat="43.1197467" lon="12.2789898"><ele>233.0</ele><time>2026-05-01T14:36:37.937Z</time></trkpt><trkpt lat="43.1199991" lon="12.2788064"><ele>233.0</ele><time>2026-05-01T14:36:38.937Z</time></trkpt><trkpt lat="43.1202498" lon="12.2786301"><ele>233.0</ele><time>2026-05-01T14:36:39.936Z</time></trkpt><trkpt lat="43.1204994" lon="12.2784521"><ele>233.0</ele><time>2026-05-01T14:36:40.936Z</time></trkpt><trkpt lat="43.1207502" lon="12.278275"><ele>233.0</ele><time>2026-05-01T14:36:41.937Z</time></trkpt><trkpt lat="43.1210009" lon="12.2781037"><ele>233.0</ele><time>2026-05-01T14:36:42.937Z</time></trkpt><trkpt lat="43.1212459" lon="12.2779298"><ele>233.0</ele><time>2026-05-01T14:36:43.937Z</time></trkpt><trkpt lat="43.1214932" lon="12.2777556"><ele>233.0</ele><time>2026-05-01T14:36:44.936Z</time></trkpt><trkpt lat="43.1217441" lon="12.2775834"><ele>233.0</ele><time>2026-05-01T14:36:45.937Z</time></trkpt><trkpt lat="43.121996" lon="12.2774061"><ele>233.0</ele><time>2026-05-01T14:36:46.937Z</time></trkpt><trkpt lat="43.1222485" lon="12.2772285"><ele>232.5</ele><time>2026-05-01T14:36:47.937Z</time></trkpt><trkpt lat="43.1225021" lon="12.2770522"><ele>232.0</ele><time>2026-05-01T14:36:48.937Z</time></trkpt><trkpt lat="43.1227547" lon="12.2768657"><ele>232.0</ele><time>2026-05-01T14:36:49.937Z</time></trkpt><trkpt lat="43.1230067" lon="12.2766679"><ele>232.0</ele><time>2026-05-01T14:36:50.936Z</time></trkpt><trkpt lat="43.1232575" lon="12.2764663"><ele>232.0</ele><time>2026-05-01T14:36:51.937Z</time></trkpt><trkpt lat="43.1235036" lon="12.2762658"><ele>232.0</ele><time>2026-05-01T14:36:52.937Z</time></trkpt><trkpt lat="43.1237515" lon="12.2760625"><ele>232.0</ele><time>2026-05-01T14:36:53.936Z</time></trkpt><trkpt lat="43.1239973" lon="12.2758522"><ele>232.0</ele><time>2026-05-01T14:36:54.936Z</time></trkpt><trkpt lat="43.1242407" lon="12.2756374"><ele>232.5</ele><time>2026-05-01T14:36:55.937Z</time></trkpt><trkpt lat="43.1244845" lon="12.2754186"><ele>233.0</ele><time>2026-05-01T14:36:56.937Z</time></trkpt><trkpt lat="43.1247276" lon="12.2751992"><ele>234.0</ele><time>2026-05-01T14:36:57.937Z</time></trkpt><trkpt lat="43.1249656" lon="12.2749742"><ele>235.0</ele><time>2026-05-01T14:36:58.937Z</time></trkpt><trkpt lat="43.1252004" lon="12.2747445"><ele>235.0</ele><time>2026-05-01T14:36:59.937Z</time></trkpt><trkpt lat="43.1254359" lon="12.2745121"><ele>235.0</ele><time>2026-05-01T14:37:00.937Z</time></trkpt><trkpt lat="43.1256706" lon="12.2742739"><ele>235.5</ele><time>2026-05-01T14:37:01.937Z</time></trkpt><trkpt lat="43.1259034" lon="12.2740346"><ele>236.0</ele><time>2026-05-01T14:37:02.936Z</time></trkpt><trkpt lat="43.1261341" lon="12.2737836"><ele>236.0</ele><time>2026-05-01T14:37:03.937Z</time></trkpt><trkpt lat="43.1263605" lon="12.2735374"><ele>236.0</ele><time>2026-05-01T14:37:04.937Z</time></trkpt><trkpt lat="43.1265827" lon="12.2732841"><ele>235.5</ele><time>2026-05-01T14:37:05.936Z</time></trkpt><trkpt lat="43.1268055" lon="12.2730308"><ele>235.0</ele><time>2026-05-01T14:37:06.937Z</time></trkpt><trkpt lat="43.1270268" lon="12.2727741"><ele>235.0</ele><time>2026-05-01T14:37:07.937Z</time></trkpt><trkpt lat="43.1272477" lon="12.2725125"><ele>235.0</ele><time>2026-05-01T14:37:08.936Z</time></trkpt><trkpt lat="43.1274675" lon="12.2722515"><ele>236.0</ele><time>2026-05-01T14:37:09.937Z</time></trkpt><trkpt lat="43.1276788" lon="12.2719799"><ele>237.0</ele><time>2026-05-01T14:37:10.937Z</time></trkpt><trkpt lat="43.1278913" lon="12.2717045"><ele>237.0</ele><time>2026-05-01T14:37:11.937Z</time></trkpt><trkpt lat="43.128099" lon="12.2714285"><ele>237.0</ele><time>2026-05-01T14:37:12.937Z</time></trkpt><trkpt lat="43.1283084" lon="12.2711468"><ele>237.0</ele><time>2026-05-01T14:37:13.936Z</time></trkpt><trkpt lat="43.1285143" lon="12.2708626"><ele>237.0</ele><time>2026-05-01T14:37:14.937Z</time></trkpt><trkpt lat="43.1287195" lon="12.2705725"><ele>237.5</ele><time>2026-05-01T14:37:15.937Z</time></trkpt><trkpt lat="43.1289161" lon="12.2702777"><ele>238.0</ele><time>2026-05-01T14:37:16.937Z</time></trkpt><trkpt lat="43.1291155" lon="12.2699837"><ele>238.0</ele><time>2026-05-01T14:37:17.937Z</time></trkpt><trkpt lat="43.1293118" lon="12.2696905"><ele>238.0</ele><time>2026-05-01T14:37:18.937Z</time></trkpt><trkpt lat="43.1295091" lon="12.2693975"><ele>238.0</ele><time>2026-05-01T14:37:19.936Z</time></trkpt><trkpt lat="43.1297027" lon="12.269103"><ele>238.0</ele><time>2026-05-01T14:37:20.937Z</time></trkpt><trkpt lat="43.1298933" lon="12.2688013"><ele>235.5</ele><time>2026-05-01T14:37:21.937Z</time></trkpt><trkpt lat="43.1300766" lon="12.268498"><ele>233.0</ele><time>2026-05-01T14:37:22.936Z</time></trkpt><trkpt lat="43.1302574" lon="12.2681883"><ele>235.5</ele><time>2026-05-01T14:37:23.937Z</time></trkpt><trkpt lat="43.1304335" lon="12.2678724"><ele>238.0</ele><time>2026-05-01T14:37:24.937Z</time></trkpt><trkpt lat="43.1306143" lon="12.2675575"><ele>237.5</ele><time>2026-05-01T14:37:25.937Z</time></trkpt><trkpt lat="43.1307895" lon="12.2672356"><ele>237.0</ele><time>2026-05-01T14:37:26.937Z</time></trkpt><trkpt lat="43.1309612" lon="12.2669124"><ele>237.0</ele><time>2026-05-01T14:37:27.937Z</time></trkpt><trkpt lat="43.1311318" lon="12.2665835"><ele>237.0</ele><time>2026-05-01T14:37:28.937Z</time></trkpt><trkpt lat="43.1313009" lon="12.2662538"><ele>237.5</ele><time>2026-05-01T14:37:29.937Z</time></trkpt><trkpt lat="43.1314645" lon="12.2659278"><ele>238.0</ele><time>2026-05-01T14:37:30.937Z</time></trkpt><trkpt lat="43.1316247" lon="12.2655989"><ele>238.0</ele><time>2026-05-01T14:37:31.936Z</time></trkpt><trkpt lat="43.1317773" lon="12.2652765"><ele>238.0</ele><time>2026-05-01T14:37:32.937Z</time></trkpt><trkpt lat="43.1319228" lon="12.2649612"><ele>238.0</ele><time>2026-05-01T14:37:33.936Z</time></trkpt><trkpt lat="43.1320653" lon="12.2646389"><ele>238.0</ele><time>2026-05-01T14:37:34.937Z</time></trkpt><trkpt lat="43.1322088" lon="12.2643149"><ele>238.0</ele><time>2026-05-01T14:37:35.937Z</time></trkpt><trkpt lat="43.1323498" lon="12.2639877"><ele>238.0</ele><time>2026-05-01T14:37:36.937Z</time></trkpt><trkpt lat="43.1324857" lon="12.2636597"><ele>237.5</ele><time>2026-05-01T14:37:37.936Z</time></trkpt><trkpt lat="43.1326143" lon="12.263325"><ele>237.0</ele><time>2026-05-01T14:37:38.937Z</time></trkpt><trkpt lat="43.1327457" lon="12.2629911"><ele>236.5</ele><time>2026-05-01T14:37:39.937Z</time></trkpt><trkpt lat="43.1328742" lon="12.2626553"><ele>236.0</ele><time>2026-05-01T14:37:40.937Z</time></trkpt><trkpt lat="43.1329966" lon="12.2623151"><ele>235.0</ele><time>2026-05-01T14:37:41.937Z</time></trkpt><trkpt lat="43.1331181" lon="12.2619746"><ele>234.0</ele><time>2026-05-01T14:37:42.937Z</time></trkpt><trkpt lat="43.1332385" lon="12.2616332"><ele>234.5</ele><time>2026-05-01T14:37:43.937Z</time></trkpt><trkpt lat="43.1333555" lon="12.2612896"><ele>235.0</ele><time>2026-05-01T14:37:44.937Z</time></trkpt><trkpt lat="43.1334691" lon="12.2609464"><ele>234.0</ele><time>2026-05-01T14:37:45.937Z</time></trkpt><trkpt lat="43.1335813" lon="12.2605937"><ele>233.0</ele><time>2026-05-01T14:37:46.937Z</time></trkpt><trkpt lat="43.1336895" lon="12.2602364"><ele>233.0</ele><time>2026-05-01T14:37:47.936Z</time></trkpt><trkpt lat="43.1337993" lon="12.2598732"><ele>233.0</ele><time>2026-05-01T14:37:48.937Z</time></trkpt><trkpt lat="43.133905" lon="12.2595017"><ele>233.0</ele><time>2026-05-01T14:37:49.936Z</time></trkpt><trkpt lat="43.1340082" lon="12.2591252"><ele>233.0</ele><time>2026-05-01T14:37:50.937Z</time></trkpt><trkpt lat="43.1341059" lon="12.2587496"><ele>233.0</ele><time>2026-05-01T14:37:51.937Z</time></trkpt><trkpt lat="43.134209" lon="12.2583694"><ele>233.0</ele><time>2026-05-01T14:37:52.936Z</time></trkpt><trkpt lat="43.1343112" lon="12.2579928"><ele>233.5</ele><time>2026-05-01T14:37:53.936Z</time></trkpt><trkpt lat="43.1344155" lon="12.2576164"><ele>234.0</ele><time>2026-05-01T14:37:54.937Z</time></trkpt><trkpt lat="43.1345171" lon="12.2572412"><ele>235.5</ele><time>2026-05-01T14:37:55.936Z</time></trkpt><trkpt lat="43.1346182" lon="12.2568688"><ele>237.0</ele><time>2026-05-01T14:37:56.936Z</time></trkpt><trkpt lat="43.1347217" lon="12.256501"><ele>237.0</ele><time>2026-05-01T14:37:57.937Z</time></trkpt><trkpt lat="43.1348197" lon="12.2561324"><ele>237.0</ele><time>2026-05-01T14:37:58.937Z</time></trkpt><trkpt lat="43.1349204" lon="12.2557626"><ele>235.0</ele><time>2026-05-01T14:37:59.937Z</time></trkpt><trkpt lat="43.1350181" lon="12.2554011"><ele>233.0</ele><time>2026-05-01T14:38:00.937Z</time></trkpt><trkpt lat="43.1351143" lon="12.2550418"><ele>233.0</ele><time>2026-05-01T14:38:01.936Z</time></trkpt><trkpt lat="43.1352106" lon="12.2546867"><ele>233.0</ele><time>2026-05-01T14:38:02.937Z</time></trkpt><trkpt lat="43.1353042" lon="12.2543402"><ele>233.0</ele><time>2026-05-01T14:38:03.936Z</time></trkpt><trkpt lat="43.1354011" lon="12.2539887"><ele>233.0</ele><time>2026-05-01T14:38:04.937Z</time></trkpt><trkpt lat="43.1355022" lon="12.2536322"><ele>232.5</ele><time>2026-05-01T14:38:05.937Z</time></trkpt><trkpt lat="43.1356027" lon="12.2532685"><ele>232.0</ele><time>2026-05-01T14:38:06.936Z</time></trkpt><trkpt lat="43.1357079" lon="12.2528871"><ele>231.5</ele><time>2026-05-01T14:38:07.937Z</time></trkpt><trkpt lat="43.1358108" lon="12.2525041"><ele>231.0</ele><time>2026-05-01T14:38:08.937Z</time></trkpt><trkpt lat="43.1359171" lon="12.252118"><ele>230.5</ele><time>2026-05-01T14:38:09.937Z</time></trkpt><trkpt lat="43.136025" lon="12.2517275"><ele>230.0</ele><time>2026-05-01T14:38:10.937Z</time></trkpt><trkpt lat="43.1361321" lon="12.2513342"><ele>230.0</ele><time>2026-05-01T14:38:11.936Z</time></trkpt><trkpt lat="43.136238" lon="12.2509383"><ele>230.0</ele><time>2026-05-01T14:38:12.936Z</time></trkpt><trkpt lat="43.1363454" lon="12.2505329"><ele>229.5</ele><time>2026-05-01T14:38:13.937Z</time></trkpt><trkpt lat="43.1364504" lon="12.250132"><ele>229.0</ele><time>2026-05-01T14:38:14.937Z</time></trkpt><trkpt lat="43.1365599" lon="12.2497305"><ele>229.0</ele><time>2026-05-01T14:38:15.936Z</time></trkpt><trkpt lat="43.136669" lon="12.2493318"><ele>229.0</ele><time>2026-05-01T14:38:16.937Z</time></trkpt><trkpt lat="43.1367825" lon="12.248926"><ele>229.0</ele><time>2026-05-01T14:38:17.936Z</time></trkpt><trkpt lat="43.1368894" lon="12.248524"><ele>229.0</ele><time>2026-05-01T14:38:18.937Z</time></trkpt><trkpt lat="43.1369986" lon="12.2481207"><ele>230.0</ele><time>2026-05-01T14:38:19.937Z</time></trkpt><trkpt lat="43.1371074" lon="12.2477207"><ele>231.0</ele><time>2026-05-01T14:38:20.937Z</time></trkpt><trkpt lat="43.137216" lon="12.2473229"><ele>231.0</ele><time>2026-05-01T14:38:21.937Z</time></trkpt><trkpt lat="43.1373242" lon="12.2469242"><ele>231.0</ele><time>2026-05-01T14:38:22.937Z</time></trkpt><trkpt lat="43.1374276" lon="12.2465204"><ele>232.0</ele><time>2026-05-01T14:38:23.937Z</time></trkpt><trkpt lat="43.1375323" lon="12.2461198"><ele>233.0</ele><time>2026-05-01T14:38:24.937Z</time></trkpt><trkpt lat="43.1376414" lon="12.2457191"><ele>232.5</ele><time>2026-05-01T14:38:25.937Z</time></trkpt><trkpt lat="43.137751" lon="12.2453163"><ele>232.0</ele><time>2026-05-01T14:38:26.936Z</time></trkpt><trkpt lat="43.1378662" lon="12.2448971"><ele>232.0</ele><time>2026-05-01T14:38:27.937Z</time></trkpt><trkpt lat="43.1379732" lon="12.2444888"><ele>232.0</ele><time>2026-05-01T14:38:28.937Z</time></trkpt><trkpt lat="43.1380828" lon="12.2440874"><ele>233.0</ele><time>2026-05-01T14:38:29.936Z</time></trkpt><trkpt lat="43.1381908" lon="12.2436877"><ele>234.0</ele><time>2026-05-01T14:38:30.937Z</time></trkpt><trkpt lat="43.1382987" lon="12.2432838"><ele>234.5</ele><time>2026-05-01T14:38:31.937Z</time></trkpt><trkpt lat="43.1384113" lon="12.2428817"><ele>235.0</ele><time>2026-05-01T14:38:32.937Z</time></trkpt><trkpt lat="43.138523" lon="12.2424793"><ele>234.5</ele><time>2026-05-01T14:38:33.937Z</time></trkpt><trkpt lat="43.1386325" lon="12.2420758"><ele>234.0</ele><time>2026-05-01T14:38:34.937Z</time></trkpt><trkpt lat="43.1387403" lon="12.2416734"><ele>234.5</ele><time>2026-05-01T14:38:35.937Z</time></trkpt><trkpt lat="43.1388487" lon="12.2412719"><ele>235.0</ele><time>2026-05-01T14:38:36.936Z</time></trkpt><trkpt lat="43.1389569" lon="12.2408705"><ele>235.0</ele><time>2026-05-01T14:38:37.937Z</time></trkpt><trkpt lat="43.1390647" lon="12.2404681"><ele>235.0</ele><time>2026-05-01T14:38:38.937Z</time></trkpt><trkpt lat="43.1391763" lon="12.2400686"><ele>236.0</ele><time>2026-05-01T14:38:39.937Z</time></trkpt><trkpt lat="43.1392857" lon="12.2396693"><ele>237.0</ele><time>2026-05-01T14:38:40.937Z</time></trkpt><trkpt lat="43.1393949" lon="12.2392693"><ele>237.5</ele><time>2026-05-01T14:38:41.937Z</time></trkpt><trkpt lat="43.1395035" lon="12.2388773"><ele>238.0</ele><time>2026-05-01T14:38:42.937Z</time></trkpt><trkpt lat="43.1396106" lon="12.238484"><ele>237.0</ele><time>2026-05-01T14:38:43.937Z</time></trkpt><trkpt lat="43.1397168" lon="12.2380885"><ele>236.0</ele><time>2026-05-01T14:38:44.937Z</time></trkpt><trkpt lat="43.1398235" lon="12.237693"><ele>235.5</ele><time>2026-05-01T14:38:45.936Z</time></trkpt><trkpt lat="43.1399282" lon="12.2372991"><ele>235.0</ele><time>2026-05-01T14:38:46.937Z</time></trkpt><trkpt lat="43.1400336" lon="12.2369029"><ele>235.0</ele><time>2026-05-01T14:38:47.936Z</time></trkpt><trkpt lat="43.1401347" lon="12.2365078"><ele>235.0</ele><time>2026-05-01T14:38:48.937Z</time></trkpt><trkpt lat="43.1402377" lon="12.2361131"><ele>235.5</ele><time>2026-05-01T14:38:49.936Z</time></trkpt><trkpt lat="43.1403379" lon="12.2357183"><ele>236.0</ele><time>2026-05-01T14:38:50.936Z</time></trkpt><trkpt lat="43.1404384" lon="12.2353237"><ele>236.5</ele><time>2026-05-01T14:38:51.936Z</time></trkpt><trkpt lat="43.1405365" lon="12.2349297"><ele>237.0</ele><time>2026-05-01T14:38:52.937Z</time></trkpt><trkpt lat="43.1406285" lon="12.2345328"><ele>236.5</ele><time>2026-05-01T14:38:53.936Z</time></trkpt><trkpt lat="43.1407185" lon="12.2341341"><ele>236.0</ele><time>2026-05-01T14:38:54.937Z</time></trkpt><trkpt lat="43.1408028" lon="12.2337264"><ele>236.0</ele><time>2026-05-01T14:38:55.936Z</time></trkpt><trkpt lat="43.1408865" lon="12.233314"><ele>236.0</ele><time>2026-05-01T14:38:56.937Z</time></trkpt><trkpt lat="43.140973" lon="12.2328989"><ele>237.0</ele><time>2026-05-01T14:38:57.937Z</time></trkpt><trkpt lat="43.1410577" lon="12.2324823"><ele>238.0</ele><time>2026-05-01T14:38:58.936Z</time></trkpt><trkpt lat="43.141144" lon="12.2320667"><ele>238.0</ele><time>2026-05-01T14:38:59.937Z</time></trkpt><trkpt lat="43.1412262" lon="12.2316464"><ele>238.0</ele><time>2026-05-01T14:39:00.937Z</time></trkpt><trkpt lat="43.1413097" lon="12.2312278"><ele>237.0</ele><time>2026-05-01T14:39:01.937Z</time></trkpt><trkpt lat="43.1413969" lon="12.2308075"><ele>236.0</ele><time>2026-05-01T14:39:02.937Z</time></trkpt><trkpt lat="43.141482" lon="12.2303901"><ele>236.5</ele><time>2026-05-01T14:39:03.937Z</time></trkpt><trkpt lat="43.1415672" lon="12.2299727"><ele>237.0</ele><time>2026-05-01T14:39:04.937Z</time></trkpt><trkpt lat="43.1416466" lon="12.2295518"><ele>237.0</ele><time>2026-05-01T14:39:05.936Z</time></trkpt><trkpt lat="43.1417276" lon="12.2291304"><ele>237.0</ele><time>2026-05-01T14:39:06.936Z</time></trkpt><trkpt lat="43.1418098" lon="12.2287135"><ele>236.5</ele><time>2026-05-01T14:39:07.937Z</time></trkpt><trkpt lat="43.1418922" lon="12.2283025"><ele>236.0</ele><time>2026-05-01T14:39:08.936Z</time></trkpt><trkpt lat="43.1419785" lon="12.2278927"><ele>237.0</ele><time>2026-05-01T14:39:09.936Z</time></trkpt><trkpt lat="43.142074" lon="12.2274922"><ele>238.0</ele><time>2026-05-01T14:39:10.936Z</time></trkpt><trkpt lat="43.1421782" lon="12.2271007"><ele>238.0</ele><time>2026-05-01T14:39:11.936Z</time></trkpt><trkpt lat="43.1422929" lon="12.2267256"><ele>238.0</ele><time>2026-05-01T14:39:12.937Z</time></trkpt><trkpt lat="43.1424198" lon="12.2263689"><ele>238.5</ele><time>2026-05-01T14:39:13.937Z</time></trkpt><trkpt lat="43.1425572" lon="12.2260239"><ele>239.0</ele><time>2026-05-01T14:39:14.937Z</time></trkpt><trkpt lat="43.1427099" lon="12.2256907"><ele>238.0</ele><time>2026-05-01T14:39:15.937Z</time></trkpt><trkpt lat="43.1428711" lon="12.2253675"><ele>237.0</ele><time>2026-05-01T14:39:16.937Z</time></trkpt><trkpt lat="43.143043" lon="12.2250576"><ele>239.0</ele><time>2026-05-01T14:39:17.936Z</time></trkpt><trkpt lat="43.1432248" lon="12.2247564"><ele>241.0</ele><time>2026-05-01T14:39:18.936Z</time></trkpt><trkpt lat="43.1434167" lon="12.2244648"><ele>241.0</ele><time>2026-05-01T14:39:19.936Z</time></trkpt><trkpt lat="43.1436258" lon="12.2241823"><ele>241.0</ele><time>2026-05-01T14:39:20.937Z</time></trkpt><trkpt lat="43.1438373" lon="12.2239088"><ele>242.0</ele><time>2026-05-01T14:39:21.937Z</time></trkpt><trkpt lat="43.1440584" lon="12.2236547"><ele>243.0</ele><time>2026-05-01T14:39:22.937Z</time></trkpt><trkpt lat="43.1442911" lon="12.2234112"><ele>243.0</ele><time>2026-05-01T14:39:23.936Z</time></trkpt><trkpt lat="43.1445274" lon="12.2231848"><ele>243.0</ele><time>2026-05-01T14:39:24.937Z</time></trkpt><trkpt lat="43.1447697" lon="12.2229752"><ele>243.5</ele><time>2026-05-01T14:39:25.936Z</time></trkpt><trkpt lat="43.1450119" lon="12.2227861"><ele>244.0</ele><time>2026-05-01T14:39:26.937Z</time></trkpt><trkpt lat="43.1452528" lon="12.2226174"><ele>244.0</ele><time>2026-05-01T14:39:27.937Z</time></trkpt><trkpt lat="43.1454969" lon="12.2224676"><ele>244.0</ele><time>2026-05-01T14:39:28.937Z</time></trkpt><trkpt lat="43.1457381" lon="12.2223201"><ele>243.0</ele><time>2026-05-01T14:39:29.937Z</time></trkpt><trkpt lat="43.145985" lon="12.2221717"><ele>242.0</ele><time>2026-05-01T14:39:30.937Z</time></trkpt><trkpt lat="43.1462364" lon="12.2220171"><ele>242.0</ele><time>2026-05-01T14:39:31.937Z</time></trkpt><trkpt lat="43.1464939" lon="12.2218524"><ele>242.0</ele><time>2026-05-01T14:39:32.937Z</time></trkpt><trkpt lat="43.1467602" lon="12.2216807"><ele>243.0</ele><time>2026-05-01T14:39:33.937Z</time></trkpt><trkpt lat="43.1470257" lon="12.2215126"><ele>244.0</ele><time>2026-05-01T14:39:34.937Z</time></trkpt><trkpt lat="43.1472941" lon="12.2213405"><ele>244.0</ele><time>2026-05-01T14:39:35.937Z</time></trkpt><trkpt lat="43.1475659" lon="12.2211675"><ele>244.0</ele><time>2026-05-01T14:39:36.937Z</time></trkpt><trkpt lat="43.1478361" lon="12.220999"><ele>244.0</ele><time>2026-05-01T14:39:37.937Z</time></trkpt><trkpt lat="43.1481042" lon="12.220829"><ele>244.0</ele><time>2026-05-01T14:39:38.937Z</time></trkpt><trkpt lat="43.1483797" lon="12.2206568"><ele>243.5</ele><time>2026-05-01T14:39:39.937Z</time></trkpt><trkpt lat="43.1486562" lon="12.220477"><ele>243.0</ele><time>2026-05-01T14:39:40.936Z</time></trkpt><trkpt lat="43.1489351" lon="12.2203047"><ele>243.5</ele><time>2026-05-01T14:39:41.937Z</time></trkpt><trkpt lat="43.1492143" lon="12.2201267"><ele>244.0</ele><time>2026-05-01T14:39:42.937Z</time></trkpt><trkpt lat="43.1494877" lon="12.2199442"><ele>244.5</ele><time>2026-05-01T14:39:43.937Z</time></trkpt><trkpt lat="43.1497539" lon="12.2197351"><ele>245.0</ele><time>2026-05-01T14:39:44.937Z</time></trkpt><trkpt lat="43.1500102" lon="12.2194964"><ele>245.5</ele><time>2026-05-01T14:39:45.937Z</time></trkpt><trkpt lat="43.1502511" lon="12.2192347"><ele>246.0</ele><time>2026-05-01T14:39:46.937Z</time></trkpt><trkpt lat="43.1504755" lon="12.2189338"><ele>246.0</ele><time>2026-05-01T14:39:47.936Z</time></trkpt><trkpt lat="43.1506893" lon="12.2186183"><ele>246.0</ele><time>2026-05-01T14:39:48.937Z</time></trkpt><trkpt lat="43.1508912" lon="12.2182915"><ele>245.5</ele><time>2026-05-01T14:39:49.937Z</time></trkpt><trkpt lat="43.1510723" lon="12.2179485"><ele>245.0</ele><time>2026-05-01T14:39:50.936Z</time></trkpt><trkpt lat="43.1512306" lon="12.2175797"><ele>245.0</ele><time>2026-05-01T14:39:51.936Z</time></trkpt><trkpt lat="43.1513776" lon="12.2171933"><ele>245.0</ele><time>2026-05-01T14:39:52.937Z</time></trkpt><trkpt lat="43.1515055" lon="12.2167939"><ele>247.0</ele><time>2026-05-01T14:39:53.937Z</time></trkpt><trkpt lat="43.1516062" lon="12.2163819"><ele>249.0</ele><time>2026-05-01T14:39:54.936Z</time></trkpt><trkpt lat="43.1516927" lon="12.2159732"><ele>249.5</ele><time>2026-05-01T14:39:55.937Z</time></trkpt><trkpt lat="43.1517492" lon="12.2155486"><ele>250.0</ele><time>2026-05-01T14:39:56.937Z</time></trkpt><trkpt lat="43.1517802" lon="12.2151223"><ele>252.0</ele><time>2026-05-01T14:39:57.937Z</time></trkpt><trkpt lat="43.1518028" lon="12.2146927"><ele>254.0</ele><time>2026-05-01T14:39:58.937Z</time></trkpt><trkpt lat="43.151801" lon="12.2142686"><ele>257.0</ele><time>2026-05-01T14:39:59.936Z</time></trkpt><trkpt lat="43.1517724" lon="12.2138493"><ele>260.0</ele><time>2026-05-01T14:40:00.936Z</time></trkpt><trkpt lat="43.1517211" lon="12.2134346"><ele>265.5</ele><time>2026-05-01T14:40:01.937Z</time></trkpt><trkpt lat="43.1516714" lon="12.2130289"><ele>271.0</ele><time>2026-05-01T14:40:02.937Z</time></trkpt><trkpt lat="43.1516285" lon="12.2126531"><ele>273.5</ele><time>2026-05-01T14:40:03.937Z</time></trkpt><trkpt lat="43.1515941" lon="12.2122928"><ele>276.0</ele><time>2026-05-01T14:40:04.937Z</time></trkpt><trkpt lat="43.1515746" lon="12.2119381"><ele>276.0</ele><time>2026-05-01T14:40:05.937Z</time></trkpt><trkpt lat="43.1515782" lon="12.2115828"><ele>276.0</ele><time>2026-05-01T14:40:06.937Z</time></trkpt><trkpt lat="43.1516052" lon="12.2112253"><ele>275.5</ele><time>2026-05-01T14:40:07.936Z</time></trkpt><trkpt lat="43.1516505" lon="12.2108653"><ele>275.0</ele><time>2026-05-01T14:40:08.937Z</time></trkpt><trkpt lat="43.1517172" lon="12.2105126"><ele>276.0</ele><time>2026-05-01T14:40:09.937Z</time></trkpt><trkpt lat="43.1518075" lon="12.2101646"><ele>277.0</ele><time>2026-05-01T14:40:10.937Z</time></trkpt><trkpt lat="43.1519246" lon="12.2098147"><ele>279.0</ele><time>2026-05-01T14:40:11.937Z</time></trkpt><trkpt lat="43.1520483" lon="12.2094741"><ele>281.0</ele><time>2026-05-01T14:40:12.937Z</time></trkpt><trkpt lat="43.152173" lon="12.2091299"><ele>281.0</ele><time>2026-05-01T14:40:13.936Z</time></trkpt><trkpt lat="43.152297" lon="12.2087907"><ele>281.0</ele><time>2026-05-01T14:40:14.936Z</time></trkpt><trkpt lat="43.1524149" lon="12.2084493"><ele>287.0</ele><time>2026-05-01T14:40:15.936Z</time></trkpt><trkpt lat="43.1525354" lon="12.2081081"><ele>293.0</ele><time>2026-05-01T14:40:16.936Z</time></trkpt><trkpt lat="43.1526544" lon="12.2077694"><ele>293.0</ele><time>2026-05-01T14:40:17.936Z</time></trkpt><trkpt lat="43.1527811" lon="12.2074354"><ele>293.0</ele><time>2026-05-01T14:40:18.936Z</time></trkpt><trkpt lat="43.1529055" lon="12.2070867"><ele>298.0</ele><time>2026-05-01T14:40:19.937Z</time></trkpt><trkpt lat="43.15303" lon="12.2067337"><ele>303.0</ele><time>2026-05-01T14:40:20.937Z</time></trkpt><trkpt lat="43.1531564" lon="12.2063879"><ele>297.0</ele><time>2026-05-01T14:40:21.937Z</time></trkpt><trkpt lat="43.1532779" lon="12.2060566"><ele>291.0</ele><time>2026-05-01T14:40:22.937Z</time></trkpt><trkpt lat="43.1566629" lon="12.1962589"><ele>291.0</ele><time>2026-05-01T14:40:50.937Z</time></trkpt><trkpt lat="43.1567689" lon="12.1960751"><ele>291.0</ele><time>2026-05-01T14:40:51.937Z</time></trkpt><trkpt lat="43.1568719" lon="12.1957342"><ele>291.0</ele><time>2026-05-01T14:40:52.937Z</time></trkpt><trkpt lat="43.1569773" lon="12.1953879"><ele>289.0</ele><time>2026-05-01T14:40:53.937Z</time></trkpt><trkpt lat="43.1570997" lon="12.1950543"><ele>287.0</ele><time>2026-05-01T14:40:54.937Z</time></trkpt><trkpt lat="43.1572248" lon="12.194707"><ele>286.5</ele><time>2026-05-01T14:40:55.937Z</time></trkpt><trkpt lat="43.1573481" lon="12.194362"><ele>286.0</ele><time>2026-05-01T14:40:56.936Z</time></trkpt><trkpt lat="43.1574789" lon="12.1940166"><ele>282.0</ele><time>2026-05-01T14:40:57.936Z</time></trkpt><trkpt lat="43.1576219" lon="12.1936754"><ele>278.0</ele><time>2026-05-01T14:40:58.937Z</time></trkpt><trkpt lat="43.1577806" lon="12.1933379"><ele>275.5</ele><time>2026-05-01T14:40:59.937Z</time></trkpt><trkpt lat="43.1579529" lon="12.1930205"><ele>273.0</ele><time>2026-05-01T14:41:00.936Z</time></trkpt><trkpt lat="43.1581358" lon="12.1927075"><ele>273.0</ele><time>2026-05-01T14:41:01.936Z</time></trkpt><trkpt lat="43.1583261" lon="12.1924062"><ele>273.0</ele><time>2026-05-01T14:41:02.936Z</time></trkpt><trkpt lat="43.1585214" lon="12.1921238"><ele>273.0</ele><time>2026-05-01T14:41:03.937Z</time></trkpt><trkpt lat="43.1587075" lon="12.1918454"><ele>273.0</ele><time>2026-05-01T14:41:04.936Z</time></trkpt><trkpt lat="43.1588886" lon="12.19158"><ele>272.0</ele><time>2026-05-01T14:41:05.937Z</time></trkpt><trkpt lat="43.1590715" lon="12.191343"><ele>271.0</ele><time>2026-05-01T14:41:06.937Z</time></trkpt><trkpt lat="43.1592527" lon="12.1911353"><ele>271.0</ele><time>2026-05-01T14:41:07.937Z</time></trkpt><trkpt lat="43.1594398" lon="12.1909364"><ele>271.0</ele><time>2026-05-01T14:41:08.937Z</time></trkpt><trkpt lat="43.1596379" lon="12.190753"><ele>269.5</ele><time>2026-05-01T14:41:09.936Z</time></trkpt><trkpt lat="43.1598439" lon="12.1905712"><ele>268.0</ele><time>2026-05-01T14:41:10.936Z</time></trkpt><trkpt lat="43.1600595" lon="12.1903978"><ele>268.0</ele><time>2026-05-01T14:41:11.936Z</time></trkpt><trkpt lat="43.1602877" lon="12.1902377"><ele>268.0</ele><time>2026-05-01T14:41:12.936Z</time></trkpt><trkpt lat="43.1605287" lon="12.1900858"><ele>266.5</ele><time>2026-05-01T14:41:13.937Z</time></trkpt><trkpt lat="43.160772" lon="12.1899471"><ele>265.0</ele><time>2026-05-01T14:41:14.936Z</time></trkpt><trkpt lat="43.1610158" lon="12.1898244"><ele>265.0</ele><time>2026-05-01T14:41:15.936Z</time></trkpt><trkpt lat="43.1612677" lon="12.1897147"><ele>265.0</ele><time>2026-05-01T14:41:16.937Z</time></trkpt><trkpt lat="43.1615363" lon="12.1896311"><ele>265.0</ele><time>2026-05-01T14:41:17.937Z</time></trkpt><trkpt lat="43.1618088" lon="12.1895637"><ele>265.0</ele><time>2026-05-01T14:41:18.937Z</time></trkpt><trkpt lat="43.1620886" lon="12.1895211"><ele>265.0</ele><time>2026-05-01T14:41:19.937Z</time></trkpt><trkpt lat="43.1623697" lon="12.189491"><ele>265.0</ele><time>2026-05-01T14:41:20.937Z</time></trkpt><trkpt lat="43.1626501" lon="12.1894692"><ele>265.0</ele><time>2026-05-01T14:41:21.937Z</time></trkpt><trkpt lat="43.1629246" lon="12.1894621"><ele>265.0</ele><time>2026-05-01T14:41:22.937Z</time></trkpt><trkpt lat="43.1632049" lon="12.1894561"><ele>265.5</ele><time>2026-05-01T14:41:23.937Z</time></trkpt><trkpt lat="43.1634787" lon="12.1894404"><ele>266.0</ele><time>2026-05-01T14:41:24.937Z</time></trkpt><trkpt lat="43.1637526" lon="12.1894217"><ele>266.0</ele><time>2026-05-01T14:41:25.937Z</time></trkpt><trkpt lat="43.164022" lon="12.1893989"><ele>266.0</ele><time>2026-05-01T14:41:26.936Z</time></trkpt><trkpt lat="43.1642918" lon="12.1893782"><ele>265.0</ele><time>2026-05-01T14:41:27.936Z</time></trkpt><trkpt lat="43.1645632" lon="12.1893739"><ele>264.0</ele><time>2026-05-01T14:41:28.937Z</time></trkpt><trkpt lat="43.1648338" lon="12.1893548"><ele>264.0</ele><time>2026-05-01T14:41:29.937Z</time></trkpt><trkpt lat="43.1651048" lon="12.1893429"><ele>264.0</ele><time>2026-05-01T14:41:30.937Z</time></trkpt><trkpt lat="43.1653738" lon="12.1893263"><ele>264.0</ele><time>2026-05-01T14:41:31.937Z</time></trkpt><trkpt lat="43.165644" lon="12.1893035"><ele>264.0</ele><time>2026-05-01T14:41:32.937Z</time></trkpt><trkpt lat="43.1659154" lon="12.1892841"><ele>264.0</ele><time>2026-05-01T14:41:33.937Z</time></trkpt><trkpt lat="43.1661823" lon="12.1892618"><ele>264.0</ele><time>2026-05-01T14:41:34.936Z</time></trkpt><trkpt lat="43.1664465" lon="12.1892448"><ele>265.5</ele><time>2026-05-01T14:41:35.936Z</time></trkpt><trkpt lat="43.1667058" lon="12.1892241"><ele>267.0</ele><time>2026-05-01T14:41:36.937Z</time></trkpt><trkpt lat="43.166965" lon="12.1892108"><ele>267.0</ele><time>2026-05-01T14:41:37.938Z</time></trkpt><trkpt lat="43.1672214" lon="12.1891964"><ele>267.0</ele><time>2026-05-01T14:41:38.938Z</time></trkpt><trkpt lat="43.1674751" lon="12.1891816"><ele>267.0</ele><time>2026-05-01T14:41:39.938Z</time></trkpt><trkpt lat="43.1677241" lon="12.1891586"><ele>267.0</ele><time>2026-05-01T14:41:40.937Z</time></trkpt><trkpt lat="43.1679724" lon="12.1891418"><ele>265.5</ele><time>2026-05-01T14:41:41.938Z</time></trkpt><trkpt lat="43.1682175" lon="12.1891176"><ele>264.0</ele><time>2026-05-01T14:41:42.938Z</time></trkpt><trkpt lat="43.1684583" lon="12.1890856"><ele>264.0</ele><time>2026-05-01T14:41:43.938Z</time></trkpt><trkpt lat="43.1686946" lon="12.1890492"><ele>264.0</ele><time>2026-05-01T14:41:44.937Z</time></trkpt><trkpt lat="43.1689289" lon="12.1890001"><ele>262.0</ele><time>2026-05-01T14:41:45.938Z</time></trkpt><trkpt lat="43.1691676" lon="12.1889475"><ele>260.0</ele><time>2026-05-01T14:41:46.937Z</time></trkpt><trkpt lat="43.169405" lon="12.1888903"><ele>260.0</ele><time>2026-05-01T14:41:47.938Z</time></trkpt><trkpt lat="43.1696433" lon="12.1888278"><ele>260.0</ele><time>2026-05-01T14:41:48.937Z</time></trkpt><trkpt lat="43.1698824" lon="12.1887584"><ele>260.5</ele><time>2026-05-01T14:41:49.937Z</time></trkpt><trkpt lat="43.170124" lon="12.1886831"><ele>261.0</ele><time>2026-05-01T14:41:50.938Z</time></trkpt><trkpt lat="43.1703654" lon="12.188597"><ele>261.0</ele><time>2026-05-01T14:41:51.938Z</time></trkpt><trkpt lat="43.1706077" lon="12.1884992"><ele>261.0</ele><time>2026-05-01T14:41:52.938Z</time></trkpt><trkpt lat="43.170849" lon="12.1883991"><ele>262.0</ele><time>2026-05-01T14:41:53.937Z</time></trkpt><trkpt lat="43.1710965" lon="12.1882967"><ele>263.0</ele><time>2026-05-01T14:41:54.937Z</time></trkpt><trkpt lat="43.171345" lon="12.1881771"><ele>261.5</ele><time>2026-05-01T14:41:55.937Z</time></trkpt><trkpt lat="43.1715939" lon="12.1880424"><ele>260.0</ele><time>2026-05-01T14:41:56.938Z</time></trkpt><trkpt lat="43.1718433" lon="12.1879003"><ele>260.0</ele><time>2026-05-01T14:41:57.938Z</time></trkpt><trkpt lat="43.1720925" lon="12.1877479"><ele>260.0</ele><time>2026-05-01T14:41:58.938Z</time></trkpt><trkpt lat="43.1723364" lon="12.1875967"><ele>260.0</ele><time>2026-05-01T14:41:59.938Z</time></trkpt><trkpt lat="43.1725758" lon="12.1874382"><ele>260.0</ele><time>2026-05-01T14:42:00.937Z</time></trkpt><trkpt lat="43.1728222" lon="12.1872644"><ele>260.0</ele><time>2026-05-01T14:42:01.938Z</time></trkpt><trkpt lat="43.1730659" lon="12.1870741"><ele>260.0</ele><time>2026-05-01T14:42:02.938Z</time></trkpt><trkpt lat="43.1733108" lon="12.1868771"><ele>260.0</ele><time>2026-05-01T14:42:03.937Z</time></trkpt><trkpt lat="43.1735581" lon="12.1866679"><ele>260.0</ele><time>2026-05-01T14:42:04.938Z</time></trkpt><trkpt lat="43.1737988" lon="12.1864534"><ele>261.5</ele><time>2026-05-01T14:42:05.938Z</time></trkpt><trkpt lat="43.1740472" lon="12.1862363"><ele>263.0</ele><time>2026-05-01T14:42:06.938Z</time></trkpt><trkpt lat="43.1742929" lon="12.186001"><ele>263.0</ele><time>2026-05-01T14:42:07.938Z</time></trkpt><trkpt lat="43.1745351" lon="12.1857634"><ele>263.0</ele><time>2026-05-01T14:42:08.937Z</time></trkpt><trkpt lat="43.1747817" lon="12.1855353"><ele>262.5</ele><time>2026-05-01T14:42:09.938Z</time></trkpt><trkpt lat="43.17503" lon="12.1853118"><ele>262.0</ele><time>2026-05-01T14:42:10.937Z</time></trkpt><trkpt lat="43.1752795" lon="12.1850931"><ele>262.0</ele><time>2026-05-01T14:42:11.938Z</time></trkpt><trkpt lat="43.1755333" lon="12.1848686"><ele>262.0</ele><time>2026-05-01T14:42:12.938Z</time></trkpt><trkpt lat="43.1757836" lon="12.1846399"><ele>261.0</ele><time>2026-05-01T14:42:13.938Z</time></trkpt><trkpt lat="43.1760333" lon="12.1844114"><ele>260.0</ele><time>2026-05-01T14:42:14.937Z</time></trkpt><trkpt lat="43.1762828" lon="12.1841834"><ele>260.0</ele><time>2026-05-01T14:42:15.938Z</time></trkpt><trkpt lat="43.1765312" lon="12.1839616"><ele>260.0</ele><time>2026-05-01T14:42:16.938Z</time></trkpt><trkpt lat="43.1767789" lon="12.1837381"><ele>260.0</ele><time>2026-05-01T14:42:17.938Z</time></trkpt><trkpt lat="43.1770275" lon="12.1835198"><ele>260.0</ele><time>2026-05-01T14:42:18.938Z</time></trkpt><trkpt lat="43.1772762" lon="12.1832959"><ele>261.0</ele><time>2026-05-01T14:42:19.938Z</time></trkpt><trkpt lat="43.1775226" lon="12.1830689"><ele>262.0</ele><time>2026-05-01T14:42:20.938Z</time></trkpt><trkpt lat="43.1777591" lon="12.1828331"><ele>262.0</ele><time>2026-05-01T14:42:21.938Z</time></trkpt><trkpt lat="43.1779863" lon="12.18258"><ele>262.0</ele><time>2026-05-01T14:42:22.937Z</time></trkpt><trkpt lat="43.1782063" lon="12.1823104"><ele>262.5</ele><time>2026-05-01T14:42:23.937Z</time></trkpt><trkpt lat="43.1784245" lon="12.1820294"><ele>263.0</ele><time>2026-05-01T14:42:24.937Z</time></trkpt><trkpt lat="43.1786312" lon="12.1817394"><ele>261.5</ele><time>2026-05-01T14:42:25.938Z</time></trkpt><trkpt lat="43.1788401" lon="12.1814453"><ele>260.0</ele><time>2026-05-01T14:42:26.938Z</time></trkpt><trkpt lat="43.1790432" lon="12.1811422"><ele>260.0</ele><time>2026-05-01T14:42:27.938Z</time></trkpt><trkpt lat="43.1792397" lon="12.1808268"><ele>260.0</ele><time>2026-05-01T14:42:28.938Z</time></trkpt><trkpt lat="43.1794199" lon="12.1804932"><ele>260.0</ele><time>2026-05-01T14:42:29.938Z</time></trkpt><trkpt lat="43.1795912" lon="12.1801575"><ele>260.0</ele><time>2026-05-01T14:42:30.938Z</time></trkpt><trkpt lat="43.1797655" lon="12.1798101"><ele>261.5</ele><time>2026-05-01T14:42:31.938Z</time></trkpt><trkpt lat="43.1799265" lon="12.1794584"><ele>263.0</ele><time>2026-05-01T14:42:32.938Z</time></trkpt><trkpt lat="43.1800828" lon="12.1791011"><ele>261.5</ele><time>2026-05-01T14:42:33.938Z</time></trkpt><trkpt lat="43.1802258" lon="12.178729"><ele>260.0</ele><time>2026-05-01T14:42:34.937Z</time></trkpt><trkpt lat="43.1803615" lon="12.1783504"><ele>259.5</ele><time>2026-05-01T14:42:35.938Z</time></trkpt><trkpt lat="43.1804892" lon="12.1779655"><ele>259.0</ele><time>2026-05-01T14:42:36.938Z</time></trkpt><trkpt lat="43.1806018" lon="12.1775748"><ele>260.0</ele><time>2026-05-01T14:42:37.937Z</time></trkpt><trkpt lat="43.1807029" lon="12.1771782"><ele>261.0</ele><time>2026-05-01T14:42:38.938Z</time></trkpt><trkpt lat="43.1808012" lon="12.1767808"><ele>262.0</ele><time>2026-05-01T14:42:39.938Z</time></trkpt><trkpt lat="43.1808979" lon="12.1763788"><ele>263.0</ele><time>2026-05-01T14:42:40.938Z</time></trkpt><trkpt lat="43.180985" lon="12.1759713"><ele>263.0</ele><time>2026-05-01T14:42:41.937Z</time></trkpt><trkpt lat="43.1810603" lon="12.1755586"><ele>263.0</ele><time>2026-05-01T14:42:42.938Z</time></trkpt><trkpt lat="43.1811328" lon="12.1751509"><ele>261.5</ele><time>2026-05-01T14:42:43.937Z</time></trkpt><trkpt lat="43.1812074" lon="12.1747408"><ele>260.0</ele><time>2026-05-01T14:42:44.938Z</time></trkpt><trkpt lat="43.1812817" lon="12.1743343"><ele>259.5</ele><time>2026-05-01T14:42:45.938Z</time></trkpt><trkpt lat="43.1813635" lon="12.1739315"><ele>259.0</ele><time>2026-05-01T14:42:46.938Z</time></trkpt><trkpt lat="43.1814415" lon="12.1735317"><ele>261.5</ele><time>2026-05-01T14:42:47.938Z</time></trkpt><trkpt lat="43.1815189" lon="12.173135"><ele>264.0</ele><time>2026-05-01T14:42:48.938Z</time></trkpt><trkpt lat="43.1815896" lon="12.1727418"><ele>263.5</ele><time>2026-05-01T14:42:49.938Z</time></trkpt><trkpt lat="43.1816614" lon="12.172351"><ele>263.0</ele><time>2026-05-01T14:42:50.937Z</time></trkpt><trkpt lat="43.1817303" lon="12.171959"><ele>263.0</ele><time>2026-05-01T14:42:51.937Z</time></trkpt><trkpt lat="43.1818073" lon="12.1715736"><ele>263.0</ele><time>2026-05-01T14:42:52.938Z</time></trkpt><trkpt lat="43.181883" lon="12.1711924"><ele>263.0</ele><time>2026-05-01T14:42:53.938Z</time></trkpt><trkpt lat="43.1819562" lon="12.1708089"><ele>263.0</ele><time>2026-05-01T14:42:54.938Z</time></trkpt><trkpt lat="43.1820283" lon="12.1704279"><ele>263.5</ele><time>2026-05-01T14:42:55.938Z</time></trkpt><trkpt lat="43.1820948" lon="12.1700523"><ele>264.0</ele><time>2026-05-01T14:42:56.938Z</time></trkpt><trkpt lat="43.182162" lon="12.1696752"><ele>264.0</ele><time>2026-05-01T14:42:57.938Z</time></trkpt><trkpt lat="43.1822346" lon="12.1692981"><ele>264.0</ele><time>2026-05-01T14:42:58.938Z</time></trkpt><trkpt lat="43.1823086" lon="12.1689258"><ele>264.0</ele><time>2026-05-01T14:42:59.938Z</time></trkpt><trkpt lat="43.1823787" lon="12.1685517"><ele>264.0</ele><time>2026-05-01T14:43:00.938Z</time></trkpt><trkpt lat="43.1824495" lon="12.1681867"><ele>264.0</ele><time>2026-05-01T14:43:01.938Z</time></trkpt><trkpt lat="43.1825183" lon="12.1678187"><ele>264.0</ele><time>2026-05-01T14:43:02.938Z</time></trkpt><trkpt lat="43.1825874" lon="12.1674503"><ele>263.5</ele><time>2026-05-01T14:43:03.938Z</time></trkpt><trkpt lat="43.182656" lon="12.1670769"><ele>263.0</ele><time>2026-05-01T14:43:04.938Z</time></trkpt><trkpt lat="43.182728" lon="12.1667062"><ele>264.0</ele><time>2026-05-01T14:43:05.938Z</time></trkpt><trkpt lat="43.1828002" lon="12.1663352"><ele>265.0</ele><time>2026-05-01T14:43:06.938Z</time></trkpt><trkpt lat="43.1828692" lon="12.1659651"><ele>264.5</ele><time>2026-05-01T14:43:07.937Z</time></trkpt><trkpt lat="43.1829378" lon="12.1655944"><ele>264.0</ele><time>2026-05-01T14:43:08.938Z</time></trkpt><trkpt lat="43.1830055" lon="12.1652227"><ele>263.5</ele><time>2026-05-01T14:43:09.938Z</time></trkpt><trkpt lat="43.1830753" lon="12.1648514"><ele>263.0</ele><time>2026-05-01T14:43:10.938Z</time></trkpt><trkpt lat="43.1831443" lon="12.164482"><ele>264.5</ele><time>2026-05-01T14:43:11.938Z</time></trkpt><trkpt lat="43.1832182" lon="12.1641117"><ele>266.0</ele><time>2026-05-01T14:43:12.938Z</time></trkpt><trkpt lat="43.1832934" lon="12.1637417"><ele>266.0</ele><time>2026-05-01T14:43:13.938Z</time></trkpt><trkpt lat="43.1833697" lon="12.1633747"><ele>266.0</ele><time>2026-05-01T14:43:14.938Z</time></trkpt><trkpt lat="43.1834496" lon="12.1630044"><ele>266.5</ele><time>2026-05-01T14:43:15.938Z</time></trkpt><trkpt lat="43.1835371" lon="12.1626394"><ele>267.0</ele><time>2026-05-01T14:43:16.938Z</time></trkpt><trkpt lat="43.1836281" lon="12.1622811"><ele>266.0</ele><time>2026-05-01T14:43:17.938Z</time></trkpt><trkpt lat="43.183726" lon="12.1619182"><ele>265.0</ele><time>2026-05-01T14:43:18.938Z</time></trkpt><trkpt lat="43.1838246" lon="12.161555"><ele>265.0</ele><time>2026-05-01T14:43:19.937Z</time></trkpt><trkpt lat="43.1839278" lon="12.161189"><ele>265.0</ele><time>2026-05-01T14:43:20.937Z</time></trkpt><trkpt lat="43.1840381" lon="12.1608283"><ele>264.5</ele><time>2026-05-01T14:43:21.938Z</time></trkpt><trkpt lat="43.1841561" lon="12.1604694"><ele>264.0</ele><time>2026-05-01T14:43:22.938Z</time></trkpt><trkpt lat="43.1842779" lon="12.1601119"><ele>263.5</ele><time>2026-05-01T14:43:23.937Z</time></trkpt><trkpt lat="43.1844022" lon="12.1597581"><ele>263.0</ele><time>2026-05-01T14:43:24.938Z</time></trkpt><trkpt lat="43.1845234" lon="12.1594072"><ele>263.0</ele><time>2026-05-01T14:43:25.938Z</time></trkpt><trkpt lat="43.184649" lon="12.1590564"><ele>263.0</ele><time>2026-05-01T14:43:26.938Z</time></trkpt><trkpt lat="43.1847764" lon="12.1587101"><ele>264.0</ele><time>2026-05-01T14:43:27.938Z</time></trkpt><trkpt lat="43.1849094" lon="12.1583692"><ele>265.0</ele><time>2026-05-01T14:43:28.938Z</time></trkpt><trkpt lat="43.1850432" lon="12.1580308"><ele>265.0</ele><time>2026-05-01T14:43:29.938Z</time></trkpt><trkpt lat="43.1851837" lon="12.1577017"><ele>265.0</ele><time>2026-05-01T14:43:30.937Z</time></trkpt><trkpt lat="43.1853252" lon="12.1573723"><ele>263.5</ele><time>2026-05-01T14:43:31.938Z</time></trkpt><trkpt lat="43.1854698" lon="12.1570549"><ele>262.0</ele><time>2026-05-01T14:43:32.938Z</time></trkpt><trkpt lat="43.1856171" lon="12.1567456"><ele>264.5</ele><time>2026-05-01T14:43:33.938Z</time></trkpt><trkpt lat="43.1857716" lon="12.1564373"><ele>267.0</ele><time>2026-05-01T14:43:34.938Z</time></trkpt><trkpt lat="43.1859289" lon="12.1561323"><ele>267.0</ele><time>2026-05-01T14:43:35.938Z</time></trkpt><trkpt lat="43.1860909" lon="12.1558269"><ele>267.0</ele><time>2026-05-01T14:43:36.937Z</time></trkpt><trkpt lat="43.1862455" lon="12.1555191"><ele>267.0</ele><time>2026-05-01T14:43:37.938Z</time></trkpt><trkpt lat="43.1863989" lon="12.1552139"><ele>267.0</ele><time>2026-05-01T14:43:38.938Z</time></trkpt><trkpt lat="43.1865524" lon="12.1549031"><ele>270.5</ele><time>2026-05-01T14:43:39.938Z</time></trkpt><trkpt lat="43.1867109" lon="12.1545968"><ele>274.0</ele><time>2026-05-01T14:43:40.937Z</time></trkpt><trkpt lat="43.186868" lon="12.1542859"><ele>274.0</ele><time>2026-05-01T14:43:41.937Z</time></trkpt><trkpt lat="43.187029" lon="12.1539739"><ele>274.0</ele><time>2026-05-01T14:43:42.937Z</time></trkpt><trkpt lat="43.1871913" lon="12.1536641"><ele>274.5</ele><time>2026-05-01T14:43:43.938Z</time></trkpt><trkpt lat="43.1873519" lon="12.1533544"><ele>275.0</ele><time>2026-05-01T14:43:44.938Z</time></trkpt><trkpt lat="43.1875149" lon="12.1530429"><ele>275.0</ele><time>2026-05-01T14:43:45.938Z</time></trkpt><trkpt lat="43.1876738" lon="12.1527413"><ele>275.0</ele><time>2026-05-01T14:43:46.938Z</time></trkpt><trkpt lat="43.1878262" lon="12.1524312"><ele>274.0</ele><time>2026-05-01T14:43:47.938Z</time></trkpt><trkpt lat="43.1879783" lon="12.1521201"><ele>273.0</ele><time>2026-05-01T14:43:48.938Z</time></trkpt><trkpt lat="43.1881301" lon="12.1518075"><ele>277.0</ele><time>2026-05-01T14:43:49.938Z</time></trkpt><trkpt lat="43.1882824" lon="12.151496"><ele>281.0</ele><time>2026-05-01T14:43:50.938Z</time></trkpt><trkpt lat="43.1884327" lon="12.1511801"><ele>281.0</ele><time>2026-05-01T14:43:51.938Z</time></trkpt><trkpt lat="43.1885785" lon="12.1508619"><ele>281.0</ele><time>2026-05-01T14:43:52.937Z</time></trkpt><trkpt lat="43.1887222" lon="12.1505347"><ele>281.0</ele><time>2026-05-01T14:43:53.938Z</time></trkpt><trkpt lat="43.1888626" lon="12.1502028"><ele>281.0</ele><time>2026-05-01T14:43:54.938Z</time></trkpt><trkpt lat="43.1890028" lon="12.1498653"><ele>290.0</ele><time>2026-05-01T14:43:55.938Z</time></trkpt><trkpt lat="43.1891391" lon="12.1495232"><ele>299.0</ele><time>2026-05-01T14:43:56.938Z</time></trkpt><trkpt lat="43.1892739" lon="12.1491763"><ele>296.0</ele><time>2026-05-01T14:43:57.937Z</time></trkpt><trkpt lat="43.189404" lon="12.1488372"><ele>293.0</ele><time>2026-05-01T14:43:58.938Z</time></trkpt><trkpt lat="43.1923685" lon="12.1417322"><ele>293.0</ele><time>2026-05-01T14:44:18.937Z</time></trkpt><trkpt lat="43.1925057" lon="12.1413787"><ele>293.0</ele><time>2026-05-01T14:44:19.937Z</time></trkpt><trkpt lat="43.1926254" lon="12.1410246"><ele>294.0</ele><time>2026-05-01T14:44:20.937Z</time></trkpt><trkpt lat="43.1927339" lon="12.1406778"><ele>295.0</ele><time>2026-05-01T14:44:21.937Z</time></trkpt><trkpt lat="43.1928604" lon="12.1403292"><ele>295.0</ele><time>2026-05-01T14:44:22.938Z</time></trkpt><trkpt lat="43.1929874" lon="12.1399814"><ele>295.0</ele><time>2026-05-01T14:44:23.938Z</time></trkpt><trkpt lat="43.1931338" lon="12.1396192"><ele>298.0</ele><time>2026-05-01T14:44:24.938Z</time></trkpt><trkpt lat="43.1932643" lon="12.139279"><ele>301.0</ele><time>2026-05-01T14:44:25.938Z</time></trkpt><trkpt lat="43.1933945" lon="12.1389381"><ele>301.5</ele><time>2026-05-01T14:44:26.938Z</time></trkpt><trkpt lat="43.1935316" lon="12.1385972"><ele>302.0</ele><time>2026-05-01T14:44:27.938Z</time></trkpt><trkpt lat="43.1936695" lon="12.1382643"><ele>303.0</ele><time>2026-05-01T14:44:28.938Z</time></trkpt><trkpt lat="43.1938098" lon="12.1379321"><ele>304.0</ele><time>2026-05-01T14:44:29.938Z</time></trkpt><trkpt lat="43.1939483" lon="12.1375974"><ele>305.5</ele><time>2026-05-01T14:44:30.938Z</time></trkpt><trkpt lat="43.1940916" lon="12.1372742"><ele>307.0</ele><time>2026-05-01T14:44:31.938Z</time></trkpt><trkpt lat="43.1945317" lon="12.1363048"><ele>307.0</ele><time>2026-05-01T14:44:34.938Z</time></trkpt><trkpt lat="43.1946355" lon="12.135955"><ele>307.0</ele><time>2026-05-01T14:44:35.938Z</time></trkpt><trkpt lat="43.1947692" lon="12.1356266"><ele>307.5</ele><time>2026-05-01T14:44:36.938Z</time></trkpt><trkpt lat="43.1949055" lon="12.1352819"><ele>308.0</ele><time>2026-05-01T14:44:37.938Z</time></trkpt><trkpt lat="43.195039" lon="12.1349372"><ele>306.5</ele><time>2026-05-01T14:44:38.938Z</time></trkpt><trkpt lat="43.1951737" lon="12.1345949"><ele>305.0</ele><time>2026-05-01T14:44:39.938Z</time></trkpt><trkpt lat="43.1953104" lon="12.1342509"><ele>304.5</ele><time>2026-05-01T14:44:40.938Z</time></trkpt><trkpt lat="43.1954518" lon="12.133915"><ele>304.0</ele><time>2026-05-01T14:44:41.938Z</time></trkpt><trkpt lat="43.1955964" lon="12.1335776"><ele>308.0</ele><time>2026-05-01T14:44:42.938Z</time></trkpt><trkpt lat="43.1957441" lon="12.1332352"><ele>312.0</ele><time>2026-05-01T14:44:43.938Z</time></trkpt><trkpt lat="43.1958878" lon="12.1328928"><ele>312.0</ele><time>2026-05-01T14:44:44.938Z</time></trkpt><trkpt lat="43.1960251" lon="12.1325559"><ele>312.0</ele><time>2026-05-01T14:44:45.937Z</time></trkpt><trkpt lat="43.1961647" lon="12.1322208"><ele>310.0</ele><time>2026-05-01T14:44:46.938Z</time></trkpt><trkpt lat="43.1963041" lon="12.1318829"><ele>308.0</ele><time>2026-05-01T14:44:47.938Z</time></trkpt><trkpt lat="43.1964436" lon="12.1315433"><ele>311.0</ele><time>2026-05-01T14:44:48.938Z</time></trkpt><trkpt lat="43.19658" lon="12.1312013"><ele>314.0</ele><time>2026-05-01T14:44:49.938Z</time></trkpt><trkpt lat="43.1967065" lon="12.130854"><ele>312.5</ele><time>2026-05-01T14:44:50.937Z</time></trkpt><trkpt lat="43.1968293" lon="12.1305012"><ele>311.0</ele><time>2026-05-01T14:44:51.938Z</time></trkpt><trkpt lat="43.1969456" lon="12.1301409"><ele>310.5</ele><time>2026-05-01T14:44:52.938Z</time></trkpt><trkpt lat="43.1970403" lon="12.1297744"><ele>310.0</ele><time>2026-05-01T14:44:53.937Z</time></trkpt><trkpt lat="43.1971266" lon="12.1293981"><ele>310.5</ele><time>2026-05-01T14:44:54.937Z</time></trkpt><trkpt lat="43.1972046" lon="12.1290182"><ele>311.0</ele><time>2026-05-01T14:44:55.937Z</time></trkpt><trkpt lat="43.1972711" lon="12.1286341"><ele>311.0</ele><time>2026-05-01T14:44:56.938Z</time></trkpt><trkpt lat="43.1973231" lon="12.1282479"><ele>311.0</ele><time>2026-05-01T14:44:57.938Z</time></trkpt><trkpt lat="43.1973592" lon="12.1278603"><ele>310.0</ele><time>2026-05-01T14:44:58.938Z</time></trkpt><trkpt lat="43.1973781" lon="12.1274709"><ele>309.0</ele><time>2026-05-01T14:44:59.938Z</time></trkpt><trkpt lat="43.1973903" lon="12.1270836"><ele>305.5</ele><time>2026-05-01T14:45:00.937Z</time></trkpt><trkpt lat="43.1973965" lon="12.1266925"><ele>302.0</ele><time>2026-05-01T14:45:01.938Z</time></trkpt><trkpt lat="43.1973903" lon="12.1262997"><ele>300.0</ele><time>2026-05-01T14:45:02.937Z</time></trkpt><trkpt lat="43.1973649" lon="12.1259112"><ele>298.0</ele><time>2026-05-01T14:45:03.938Z</time></trkpt><trkpt lat="43.1973243" lon="12.1255204"><ele>303.0</ele><time>2026-05-01T14:45:04.938Z</time></trkpt><trkpt lat="43.1972803" lon="12.1251325"><ele>308.0</ele><time>2026-05-01T14:45:05.938Z</time></trkpt><trkpt lat="43.1972406" lon="12.1247496"><ele>308.5</ele><time>2026-05-01T14:45:06.937Z</time></trkpt><trkpt lat="43.1971991" lon="12.124366"><ele>309.0</ele><time>2026-05-01T14:45:07.938Z</time></trkpt><trkpt lat="43.1971608" lon="12.1239793"><ele>312.0</ele><time>2026-05-01T14:45:08.938Z</time></trkpt><trkpt lat="43.1971178" lon="12.1235812"><ele>315.0</ele><time>2026-05-01T14:45:09.938Z</time></trkpt><trkpt lat="43.1966417" lon="12.1187462"><ele>297.5</ele><time>2026-05-01T14:45:21.938Z</time></trkpt><trkpt lat="43.1965912" lon="12.1183908"><ele>280.0</ele><time>2026-05-01T14:45:22.937Z</time></trkpt><trkpt lat="43.1965882" lon="12.1180219"><ele>276.5</ele><time>2026-05-01T14:45:23.938Z</time></trkpt><trkpt lat="43.1965298" lon="12.1176209"><ele>273.0</ele><time>2026-05-01T14:45:24.937Z</time></trkpt><trkpt lat="43.1964874" lon="12.117213"><ele>269.5</ele><time>2026-05-01T14:45:25.938Z</time></trkpt><trkpt lat="43.196435" lon="12.1168428"><ele>266.0</ele><time>2026-05-01T14:45:26.938Z</time></trkpt><trkpt lat="43.1963973" lon="12.1164865"><ele>265.5</ele><time>2026-05-01T14:45:27.938Z</time></trkpt><trkpt lat="43.1963777" lon="12.1160983"><ele>265.0</ele><time>2026-05-01T14:45:28.938Z</time></trkpt><trkpt lat="43.1963476" lon="12.1157031"><ele>265.0</ele><time>2026-05-01T14:45:29.938Z</time></trkpt><trkpt lat="43.1963107" lon="12.1153158"><ele>265.0</ele><time>2026-05-01T14:45:30.938Z</time></trkpt><trkpt lat="43.1962711" lon="12.1149292"><ele>265.0</ele><time>2026-05-01T14:45:31.938Z</time></trkpt><trkpt lat="43.1962301" lon="12.1145395"><ele>265.0</ele><time>2026-05-01T14:45:32.937Z</time></trkpt><trkpt lat="43.1961919" lon="12.1141523"><ele>266.0</ele><time>2026-05-01T14:45:33.938Z</time></trkpt><trkpt lat="43.1961553" lon="12.1137659"><ele>267.0</ele><time>2026-05-01T14:45:34.937Z</time></trkpt><trkpt lat="43.1961132" lon="12.1133805"><ele>266.0</ele><time>2026-05-01T14:45:35.938Z</time></trkpt><trkpt lat="43.1960723" lon="12.113002"><ele>265.0</ele><time>2026-05-01T14:45:36.938Z</time></trkpt><trkpt lat="43.1960342" lon="12.1126302"><ele>265.5</ele><time>2026-05-01T14:45:37.938Z</time></trkpt><trkpt lat="43.1959971" lon="12.1122555"><ele>266.0</ele><time>2026-05-01T14:45:38.938Z</time></trkpt><trkpt lat="43.1959627" lon="12.1118797"><ele>266.0</ele><time>2026-05-01T14:45:39.937Z</time></trkpt><trkpt lat="43.1959307" lon="12.1115063"><ele>266.0</ele><time>2026-05-01T14:45:40.937Z</time></trkpt><trkpt lat="43.1958966" lon="12.1111406"><ele>266.0</ele><time>2026-05-01T14:45:41.938Z</time></trkpt><trkpt lat="43.1958606" lon="12.1107692"><ele>266.0</ele><time>2026-05-01T14:45:42.937Z</time></trkpt><trkpt lat="43.1958271" lon="12.1103987"><ele>265.0</ele><time>2026-05-01T14:45:43.938Z</time></trkpt><trkpt lat="43.1957974" lon="12.110021"><ele>264.0</ele><time>2026-05-01T14:45:44.938Z</time></trkpt><trkpt lat="43.1957653" lon="12.1096401"><ele>263.0</ele><time>2026-05-01T14:45:45.937Z</time></trkpt><trkpt lat="43.1957331" lon="12.1092559"><ele>262.0</ele><time>2026-05-01T14:45:46.938Z</time></trkpt><trkpt lat="43.1957002" lon="12.1088665"><ele>261.5</ele><time>2026-05-01T14:45:47.938Z</time></trkpt><trkpt lat="43.1956634" lon="12.1084697"><ele>261.0</ele><time>2026-05-01T14:45:48.938Z</time></trkpt><trkpt lat="43.1956307" lon="12.1080689"><ele>262.0</ele><time>2026-05-01T14:45:49.937Z</time></trkpt><trkpt lat="43.1955906" lon="12.1076652"><ele>263.0</ele><time>2026-05-01T14:45:50.938Z</time></trkpt><trkpt lat="43.1955507" lon="12.1072559"><ele>263.0</ele><time>2026-05-01T14:45:51.938Z</time></trkpt><trkpt lat="43.1955133" lon="12.106839"><ele>263.0</ele><time>2026-05-01T14:45:52.938Z</time></trkpt><trkpt lat="43.1954773" lon="12.1064165"><ele>262.0</ele><time>2026-05-01T14:45:53.938Z</time></trkpt><trkpt lat="43.1954386" lon="12.1059967"><ele>261.0</ele><time>2026-05-01T14:45:54.938Z</time></trkpt><trkpt lat="43.1953988" lon="12.1055789"><ele>261.0</ele><time>2026-05-01T14:45:55.938Z</time></trkpt><trkpt lat="43.1953643" lon="12.1051579"><ele>261.0</ele><time>2026-05-01T14:45:56.938Z</time></trkpt><trkpt lat="43.1953325" lon="12.1047336"><ele>260.5</ele><time>2026-05-01T14:45:57.938Z</time></trkpt><trkpt lat="43.1953047" lon="12.1043094"><ele>260.0</ele><time>2026-05-01T14:45:58.937Z</time></trkpt><trkpt lat="43.195282" lon="12.1038807"><ele>260.0</ele><time>2026-05-01T14:45:59.938Z</time></trkpt><trkpt lat="43.1952698" lon="12.1034552"><ele>260.0</ele><time>2026-05-01T14:46:00.938Z</time></trkpt><trkpt lat="43.1952634" lon="12.1030341"><ele>260.0</ele><time>2026-05-01T14:46:01.938Z</time></trkpt><trkpt lat="43.1952583" lon="12.1026132"><ele>260.0</ele><time>2026-05-01T14:46:02.938Z</time></trkpt><trkpt lat="43.1952643" lon="12.1021981"><ele>259.5</ele><time>2026-05-01T14:46:03.938Z</time></trkpt><trkpt lat="43.19528" lon="12.1017798"><ele>259.0</ele><time>2026-05-01T14:46:04.938Z</time></trkpt><trkpt lat="43.1953027" lon="12.1013662"><ele>259.0</ele><time>2026-05-01T14:46:05.938Z</time></trkpt><trkpt lat="43.1953332" lon="12.100956"><ele>259.0</ele><time>2026-05-01T14:46:06.938Z</time></trkpt><trkpt lat="43.1953679" lon="12.1005543"><ele>259.5</ele><time>2026-05-01T14:46:07.937Z</time></trkpt><trkpt lat="43.1954106" lon="12.1001614"><ele>260.0</ele><time>2026-05-01T14:46:08.938Z</time></trkpt><trkpt lat="43.1954557" lon="12.0997937"><ele>259.5</ele><time>2026-05-01T14:46:09.937Z</time></trkpt><trkpt lat="43.1955008" lon="12.0994269"><ele>259.0</ele><time>2026-05-01T14:46:10.938Z</time></trkpt><trkpt lat="43.1955524" lon="12.0990547"><ele>259.0</ele><time>2026-05-01T14:46:11.938Z</time></trkpt><trkpt lat="43.1956088" lon="12.098664"><ele>259.0</ele><time>2026-05-01T14:46:12.938Z</time></trkpt><trkpt lat="43.1956702" lon="12.0982684"><ele>259.0</ele><time>2026-05-01T14:46:13.938Z</time></trkpt><trkpt lat="43.1957259" lon="12.0978736"><ele>259.0</ele><time>2026-05-01T14:46:14.937Z</time></trkpt><trkpt lat="43.1957845" lon="12.097475"><ele>258.5</ele><time>2026-05-01T14:46:15.938Z</time></trkpt><trkpt lat="43.1958471" lon="12.0970688"><ele>258.0</ele><time>2026-05-01T14:46:16.937Z</time></trkpt><trkpt lat="43.195901" lon="12.0966627"><ele>259.0</ele><time>2026-05-01T14:46:17.938Z</time></trkpt><trkpt lat="43.1959588" lon="12.0962576"><ele>260.0</ele><time>2026-05-01T14:46:18.937Z</time></trkpt><trkpt lat="43.1960188" lon="12.0958498"><ele>260.0</ele><time>2026-05-01T14:46:19.937Z</time></trkpt><trkpt lat="43.1960767" lon="12.0954464"><ele>260.0</ele><time>2026-05-01T14:46:20.938Z</time></trkpt><trkpt lat="43.1961382" lon="12.0950403"><ele>260.0</ele><time>2026-05-01T14:46:21.938Z</time></trkpt><trkpt lat="43.1961952" lon="12.09464"><ele>260.0</ele><time>2026-05-01T14:46:22.937Z</time></trkpt><trkpt lat="43.1962516" lon="12.0942396"><ele>259.5</ele><time>2026-05-01T14:46:23.938Z</time></trkpt><trkpt lat="43.1963073" lon="12.0938375"><ele>259.0</ele><time>2026-05-01T14:46:24.937Z</time></trkpt><trkpt lat="43.1963642" lon="12.0934383"><ele>259.0</ele><time>2026-05-01T14:46:25.937Z</time></trkpt><trkpt lat="43.1964221" lon="12.0930407"><ele>259.0</ele><time>2026-05-01T14:46:26.938Z</time></trkpt><trkpt lat="43.1964825" lon="12.0926454"><ele>260.0</ele><time>2026-05-01T14:46:27.938Z</time></trkpt><trkpt lat="43.1965407" lon="12.0922534"><ele>261.0</ele><time>2026-05-01T14:46:28.938Z</time></trkpt><trkpt lat="43.1966016" lon="12.0918565"><ele>261.5</ele><time>2026-05-01T14:46:29.938Z</time></trkpt><trkpt lat="43.1966638" lon="12.0914604"><ele>262.0</ele><time>2026-05-01T14:46:30.937Z</time></trkpt><trkpt lat="43.1967216" lon="12.091067"><ele>261.5</ele><time>2026-05-01T14:46:31.937Z</time></trkpt><trkpt lat="43.1967801" lon="12.0906652"><ele>261.0</ele><time>2026-05-01T14:46:32.937Z</time></trkpt><trkpt lat="43.1968352" lon="12.0902586"><ele>260.5</ele><time>2026-05-01T14:46:33.937Z</time></trkpt><trkpt lat="43.1968953" lon="12.0898464"><ele>260.0</ele><time>2026-05-01T14:46:34.937Z</time></trkpt><trkpt lat="43.1969592" lon="12.0894357"><ele>260.0</ele><time>2026-05-01T14:46:35.937Z</time></trkpt><trkpt lat="43.1970242" lon="12.0890205"><ele>260.0</ele><time>2026-05-01T14:46:36.938Z</time></trkpt><trkpt lat="43.1970906" lon="12.0886052"><ele>259.5</ele><time>2026-05-01T14:46:37.938Z</time></trkpt><trkpt lat="43.1971518" lon="12.0881915"><ele>259.0</ele><time>2026-05-01T14:46:38.938Z</time></trkpt><trkpt lat="43.1972134" lon="12.0877721"><ele>259.0</ele><time>2026-05-01T14:46:39.938Z</time></trkpt><trkpt lat="43.1972741" lon="12.0873541"><ele>259.0</ele><time>2026-05-01T14:46:40.938Z</time></trkpt><trkpt lat="43.1973359" lon="12.0869376"><ele>260.0</ele><time>2026-05-01T14:46:41.937Z</time></trkpt><trkpt lat="43.197398" lon="12.086516"><ele>261.0</ele><time>2026-05-01T14:46:42.938Z</time></trkpt><trkpt lat="43.1974592" lon="12.0860923"><ele>261.5</ele><time>2026-05-01T14:46:43.937Z</time></trkpt><trkpt lat="43.1975193" lon="12.0856699"><ele>262.0</ele><time>2026-05-01T14:46:44.937Z</time></trkpt><trkpt lat="43.1975762" lon="12.0852414"><ele>262.0</ele><time>2026-05-01T14:46:45.938Z</time></trkpt><trkpt lat="43.197626" lon="12.0848127"><ele>262.0</ele><time>2026-05-01T14:46:46.938Z</time></trkpt><trkpt lat="43.1976631" lon="12.0843841"><ele>261.0</ele><time>2026-05-01T14:46:47.938Z</time></trkpt><trkpt lat="43.1976897" lon="12.0839505"><ele>260.0</ele><time>2026-05-01T14:46:48.937Z</time></trkpt><trkpt lat="43.1976949" lon="12.0835143"><ele>259.0</ele><time>2026-05-01T14:46:49.937Z</time></trkpt><trkpt lat="43.1976909" lon="12.0830809"><ele>258.0</ele><time>2026-05-01T14:46:50.937Z</time></trkpt><trkpt lat="43.1976797" lon="12.0826442"><ele>259.0</ele><time>2026-05-01T14:46:51.938Z</time></trkpt><trkpt lat="43.1976583" lon="12.0822138"><ele>260.0</ele><time>2026-05-01T14:46:52.937Z</time></trkpt><trkpt lat="43.1976298" lon="12.0817846"><ele>260.5</ele><time>2026-05-01T14:46:53.938Z</time></trkpt><trkpt lat="43.1975968" lon="12.0813584"><ele>261.0</ele><time>2026-05-01T14:46:54.938Z</time></trkpt><trkpt lat="43.1975623" lon="12.0809411"><ele>260.5</ele><time>2026-05-01T14:46:55.938Z</time></trkpt><trkpt lat="43.197529" lon="12.0805157"><ele>260.0</ele><time>2026-05-01T14:46:56.937Z</time></trkpt><trkpt lat="43.197497" lon="12.0800935"><ele>260.5</ele><time>2026-05-01T14:46:57.938Z</time></trkpt><trkpt lat="43.1974665" lon="12.0796802"><ele>261.0</ele><time>2026-05-01T14:46:58.938Z</time></trkpt><trkpt lat="43.197436" lon="12.0792645"><ele>261.5</ele><time>2026-05-01T14:46:59.938Z</time></trkpt><trkpt lat="43.1974092" lon="12.0788503"><ele>262.0</ele><time>2026-05-01T14:47:00.938Z</time></trkpt><trkpt lat="43.1973818" lon="12.0784389"><ele>262.5</ele><time>2026-05-01T14:47:01.937Z</time></trkpt><trkpt lat="43.1973558" lon="12.0780249"><ele>263.0</ele><time>2026-05-01T14:47:02.937Z</time></trkpt><trkpt lat="43.197319" lon="12.077617"><ele>263.5</ele><time>2026-05-01T14:47:03.938Z</time></trkpt><trkpt lat="43.1972865" lon="12.0772066"><ele>264.0</ele><time>2026-05-01T14:47:04.938Z</time></trkpt><trkpt lat="43.1972578" lon="12.0767944"><ele>262.0</ele><time>2026-05-01T14:47:05.937Z</time></trkpt><trkpt lat="43.19723" lon="12.0763822"><ele>260.0</ele><time>2026-05-01T14:47:06.938Z</time></trkpt><trkpt lat="43.1972041" lon="12.0759723"><ele>259.5</ele><time>2026-05-01T14:47:07.938Z</time></trkpt><trkpt lat="43.1971735" lon="12.0755622"><ele>259.0</ele><time>2026-05-01T14:47:08.938Z</time></trkpt><trkpt lat="43.1971399" lon="12.0751491"><ele>259.0</ele><time>2026-05-01T14:47:09.938Z</time></trkpt><trkpt lat="43.1971059" lon="12.0747404"><ele>259.0</ele><time>2026-05-01T14:47:10.938Z</time></trkpt><trkpt lat="43.1970714" lon="12.0743346"><ele>259.5</ele><time>2026-05-01T14:47:11.938Z</time></trkpt><trkpt lat="43.1970323" lon="12.0739322"><ele>260.0</ele><time>2026-05-01T14:47:12.937Z</time></trkpt><trkpt lat="43.1969886" lon="12.0735296"><ele>260.0</ele><time>2026-05-01T14:47:13.938Z</time></trkpt><trkpt lat="43.1969362" lon="12.0731306"><ele>260.0</ele><time>2026-05-01T14:47:14.937Z</time></trkpt><trkpt lat="43.1968716" lon="12.0727345"><ele>259.5</ele><time>2026-05-01T14:47:15.938Z</time></trkpt><trkpt lat="43.1967959" lon="12.0723354"><ele>259.0</ele><time>2026-05-01T14:47:16.938Z</time></trkpt><trkpt lat="43.1967136" lon="12.0719421"><ele>260.5</ele><time>2026-05-01T14:47:17.938Z</time></trkpt><trkpt lat="43.1966228" lon="12.0715521"><ele>262.0</ele><time>2026-05-01T14:47:18.938Z</time></trkpt><trkpt lat="43.1965323" lon="12.0711632"><ele>262.5</ele><time>2026-05-01T14:47:19.938Z</time></trkpt><trkpt lat="43.1964371" lon="12.0707788"><ele>263.0</ele><time>2026-05-01T14:47:20.937Z</time></trkpt><trkpt lat="43.196339" lon="12.0704114"><ele>263.5</ele><time>2026-05-01T14:47:21.938Z</time></trkpt><trkpt lat="43.1962439" lon="12.0700665"><ele>264.0</ele><time>2026-05-01T14:47:22.938Z</time></trkpt><trkpt lat="43.1961501" lon="12.0697477"><ele>263.0</ele><time>2026-05-01T14:47:23.938Z</time></trkpt><trkpt lat="43.196059" lon="12.0694279"><ele>262.0</ele><time>2026-05-01T14:47:24.937Z</time></trkpt><trkpt lat="43.1959679" lon="12.0691015"><ele>261.5</ele><time>2026-05-01T14:47:25.937Z</time></trkpt><trkpt lat="43.1958826" lon="12.0687624"><ele>261.0</ele><time>2026-05-01T14:47:26.938Z</time></trkpt><trkpt lat="43.1957937" lon="12.0684115"><ele>260.5</ele><time>2026-05-01T14:47:27.938Z</time></trkpt><trkpt lat="43.1957023" lon="12.0680541"><ele>260.0</ele><time>2026-05-01T14:47:28.938Z</time></trkpt><trkpt lat="43.1956108" lon="12.0676865"><ele>260.0</ele><time>2026-05-01T14:47:29.938Z</time></trkpt><trkpt lat="43.1955185" lon="12.0673112"><ele>260.0</ele><time>2026-05-01T14:47:30.938Z</time></trkpt><trkpt lat="43.1954316" lon="12.0669223"><ele>260.0</ele><time>2026-05-01T14:47:31.938Z</time></trkpt><trkpt lat="43.1953636" lon="12.0665252"><ele>260.0</ele><time>2026-05-01T14:47:32.937Z</time></trkpt><trkpt lat="43.1953117" lon="12.0661269"><ele>259.5</ele><time>2026-05-01T14:47:33.937Z</time></trkpt><trkpt lat="43.1952731" lon="12.0657178"><ele>259.0</ele><time>2026-05-01T14:47:34.938Z</time></trkpt><trkpt lat="43.1952474" lon="12.0652973"><ele>259.0</ele><time>2026-05-01T14:47:35.937Z</time></trkpt><trkpt lat="43.195235" lon="12.0648793"><ele>259.0</ele><time>2026-05-01T14:47:36.937Z</time></trkpt><trkpt lat="43.195247" lon="12.0644606"><ele>259.0</ele><time>2026-05-01T14:47:37.938Z</time></trkpt><trkpt lat="43.1952711" lon="12.0640392"><ele>259.0</ele><time>2026-05-01T14:47:38.937Z</time></trkpt><trkpt lat="43.1953171" lon="12.0636178"><ele>258.5</ele><time>2026-05-01T14:47:39.938Z</time></trkpt><trkpt lat="43.1953672" lon="12.0631974"><ele>258.0</ele><time>2026-05-01T14:47:40.938Z</time></trkpt><trkpt lat="43.1954229" lon="12.0627789"><ele>259.0</ele><time>2026-05-01T14:47:41.937Z</time></trkpt><trkpt lat="43.1954764" lon="12.0623616"><ele>260.0</ele><time>2026-05-01T14:47:42.937Z</time></trkpt><trkpt lat="43.1955256" lon="12.0619513"><ele>260.5</ele><time>2026-05-01T14:47:43.938Z</time></trkpt><trkpt lat="43.1955719" lon="12.0615429"><ele>261.0</ele><time>2026-05-01T14:47:44.938Z</time></trkpt><trkpt lat="43.1956166" lon="12.0611481"><ele>260.5</ele><time>2026-05-01T14:47:45.937Z</time></trkpt><trkpt lat="43.1956648" lon="12.0607445"><ele>260.0</ele><time>2026-05-01T14:47:46.938Z</time></trkpt><trkpt lat="43.1957153" lon="12.060354"><ele>260.0</ele><time>2026-05-01T14:47:47.937Z</time></trkpt><trkpt lat="43.1957583" lon="12.0599637"><ele>260.0</ele><time>2026-05-01T14:47:48.937Z</time></trkpt><trkpt lat="43.1957996" lon="12.0595726"><ele>260.5</ele><time>2026-05-01T14:47:49.937Z</time></trkpt><trkpt lat="43.1958385" lon="12.0591831"><ele>261.0</ele><time>2026-05-01T14:47:50.938Z</time></trkpt><trkpt lat="43.1958821" lon="12.0587895"><ele>261.0</ele><time>2026-05-01T14:47:51.938Z</time></trkpt><trkpt lat="43.1959282" lon="12.0583951"><ele>261.0</ele><time>2026-05-01T14:47:52.938Z</time></trkpt><trkpt lat="43.1959679" lon="12.0579992"><ele>261.5</ele><time>2026-05-01T14:47:53.938Z</time></trkpt><trkpt lat="43.1960059" lon="12.0575957"><ele>262.0</ele><time>2026-05-01T14:47:54.937Z</time></trkpt><trkpt lat="43.1960307" lon="12.0571889"><ele>262.0</ele><time>2026-05-01T14:47:55.938Z</time></trkpt><trkpt lat="43.196043" lon="12.0567768"><ele>262.0</ele><time>2026-05-01T14:47:56.938Z</time></trkpt><trkpt lat="43.1960296" lon="12.0563614"><ele>262.5</ele><time>2026-05-01T14:47:57.937Z</time></trkpt><trkpt lat="43.1959947" lon="12.0559554"><ele>263.0</ele><time>2026-05-01T14:47:58.938Z</time></trkpt><trkpt lat="43.1959357" lon="12.0555576"><ele>264.5</ele><time>2026-05-01T14:47:59.938Z</time></trkpt><trkpt lat="43.1958581" lon="12.0551639"><ele>266.0</ele><time>2026-05-01T14:48:00.938Z</time></trkpt><trkpt lat="43.1957638" lon="12.0547761"><ele>264.5</ele><time>2026-05-01T14:48:01.938Z</time></trkpt><trkpt lat="43.1956532" lon="12.0544021"><ele>263.0</ele><time>2026-05-01T14:48:02.938Z</time></trkpt><trkpt lat="43.1955278" lon="12.0540326"><ele>266.0</ele><time>2026-05-01T14:48:03.938Z</time></trkpt><trkpt lat="43.195382" lon="12.0536767"><ele>269.0</ele><time>2026-05-01T14:48:04.938Z</time></trkpt><trkpt lat="43.1952165" lon="12.053337"><ele>270.5</ele><time>2026-05-01T14:48:05.937Z</time></trkpt><trkpt lat="43.1950309" lon="12.0530178"><ele>272.0</ele><time>2026-05-01T14:48:06.937Z</time></trkpt><trkpt lat="43.1948299" lon="12.0527127"><ele>277.0</ele><time>2026-05-01T14:48:07.938Z</time></trkpt><trkpt lat="43.1946204" lon="12.0524148"><ele>282.0</ele><time>2026-05-01T14:48:08.938Z</time></trkpt><trkpt lat="43.1943908" lon="12.0521412"><ele>282.0</ele><time>2026-05-01T14:48:09.938Z</time></trkpt><trkpt lat="43.1941466" lon="12.0518875"><ele>282.0</ele><time>2026-05-01T14:48:10.937Z</time></trkpt><trkpt lat="43.1938868" lon="12.0516537"><ele>287.0</ele><time>2026-05-01T14:48:11.938Z</time></trkpt><trkpt lat="43.1936155" lon="12.0514404"><ele>292.0</ele><time>2026-05-01T14:48:12.938Z</time></trkpt><trkpt lat="43.1933404" lon="12.0512452"><ele>288.5</ele><time>2026-05-01T14:48:13.938Z</time></trkpt><trkpt lat="43.1930595" lon="12.0510597"><ele>285.0</ele><time>2026-05-01T14:48:14.938Z</time></trkpt><trkpt lat="43.1927762" lon="12.0508804"><ele>287.0</ele><time>2026-05-01T14:48:15.938Z</time></trkpt><trkpt lat="43.1924934" lon="12.0507018"><ele>289.0</ele><time>2026-05-01T14:48:16.937Z</time></trkpt><trkpt lat="43.1922115" lon="12.0505235"><ele>289.0</ele><time>2026-05-01T14:48:17.938Z</time></trkpt><trkpt lat="43.191931" lon="12.0503417"><ele>289.0</ele><time>2026-05-01T14:48:18.938Z</time></trkpt><trkpt lat="43.1916472" lon="12.0501543"><ele>291.0</ele><time>2026-05-01T14:48:19.937Z</time></trkpt><trkpt lat="43.1913686" lon="12.0499597"><ele>293.0</ele><time>2026-05-01T14:48:20.938Z</time></trkpt><trkpt lat="43.1910938" lon="12.0497678"><ele>293.0</ele><time>2026-05-01T14:48:21.938Z</time></trkpt><trkpt lat="43.1908245" lon="12.0495679"><ele>293.0</ele><time>2026-05-01T14:48:22.938Z</time></trkpt><trkpt lat="43.1905584" lon="12.049358"><ele>286.0</ele><time>2026-05-01T14:48:23.937Z</time></trkpt><trkpt lat="43.1903047" lon="12.0491127"><ele>279.0</ele><time>2026-05-01T14:48:24.938Z</time></trkpt><trkpt lat="43.1900591" lon="12.048852"><ele>272.5</ele><time>2026-05-01T14:48:25.938Z</time></trkpt><trkpt lat="43.1898198" lon="12.0485727"><ele>266.0</ele><time>2026-05-01T14:48:26.938Z</time></trkpt><trkpt lat="43.1895953" lon="12.0482654"><ele>266.0</ele><time>2026-05-01T14:48:27.938Z</time></trkpt><trkpt lat="43.1893936" lon="12.047932"><ele>266.0</ele><time>2026-05-01T14:48:28.937Z</time></trkpt><trkpt lat="43.189222" lon="12.0475682"><ele>265.5</ele><time>2026-05-01T14:48:29.938Z</time></trkpt><trkpt lat="43.1890662" lon="12.047189"><ele>265.0</ele><time>2026-05-01T14:48:30.938Z</time></trkpt><trkpt lat="43.188924" lon="12.0468079"><ele>264.0</ele><time>2026-05-01T14:48:31.938Z</time></trkpt><trkpt lat="43.1887991" lon="12.04641"><ele>263.0</ele><time>2026-05-01T14:48:32.938Z</time></trkpt><trkpt lat="43.1886764" lon="12.0460053"><ele>261.5</ele><time>2026-05-01T14:48:33.938Z</time></trkpt><trkpt lat="43.188567" lon="12.0456"><ele>260.0</ele><time>2026-05-01T14:48:34.938Z</time></trkpt><trkpt lat="43.1884634" lon="12.045187"><ele>260.5</ele><time>2026-05-01T14:48:35.937Z</time></trkpt><trkpt lat="43.1883611" lon="12.0447764"><ele>261.0</ele><time>2026-05-01T14:48:36.938Z</time></trkpt><trkpt lat="43.1882684" lon="12.0443711"><ele>260.5</ele><time>2026-05-01T14:48:37.937Z</time></trkpt><trkpt lat="43.1881706" lon="12.0439643"><ele>260.0</ele><time>2026-05-01T14:48:38.938Z</time></trkpt><trkpt lat="43.188072" lon="12.04356"><ele>260.0</ele><time>2026-05-01T14:48:39.938Z</time></trkpt><trkpt lat="43.1879763" lon="12.0431581"><ele>260.0</ele><time>2026-05-01T14:48:40.938Z</time></trkpt><trkpt lat="43.1878738" lon="12.0427678"><ele>260.0</ele><time>2026-05-01T14:48:41.938Z</time></trkpt><trkpt lat="43.1877669" lon="12.042379"><ele>260.0</ele><time>2026-05-01T14:48:42.937Z</time></trkpt><trkpt lat="43.1876604" lon="12.0419872"><ele>262.0</ele><time>2026-05-01T14:48:43.938Z</time></trkpt><trkpt lat="43.1875548" lon="12.0415895"><ele>264.0</ele><time>2026-05-01T14:48:44.938Z</time></trkpt><trkpt lat="43.187447" lon="12.0411904"><ele>262.5</ele><time>2026-05-01T14:48:45.938Z</time></trkpt><trkpt lat="43.1873365" lon="12.0407905"><ele>261.0</ele><time>2026-05-01T14:48:46.938Z</time></trkpt><trkpt lat="43.1872257" lon="12.0403954"><ele>261.0</ele><time>2026-05-01T14:48:47.937Z</time></trkpt><trkpt lat="43.1871165" lon="12.0399982"><ele>261.0</ele><time>2026-05-01T14:48:48.938Z</time></trkpt><trkpt lat="43.1870065" lon="12.0396027"><ele>262.0</ele><time>2026-05-01T14:48:49.937Z</time></trkpt><trkpt lat="43.186896" lon="12.0392057"><ele>263.0</ele><time>2026-05-01T14:48:50.938Z</time></trkpt><trkpt lat="43.1867884" lon="12.0388072"><ele>264.0</ele><time>2026-05-01T14:48:51.937Z</time></trkpt><trkpt lat="43.1866833" lon="12.0384023"><ele>265.0</ele><time>2026-05-01T14:48:52.937Z</time></trkpt><trkpt lat="43.1865823" lon="12.0379986"><ele>263.5</ele><time>2026-05-01T14:48:53.938Z</time></trkpt><trkpt lat="43.1864924" lon="12.0375871"><ele>262.0</ele><time>2026-05-01T14:48:54.938Z</time></trkpt><trkpt lat="43.186409" lon="12.037172"><ele>261.0</ele><time>2026-05-01T14:48:55.938Z</time></trkpt><trkpt lat="43.1863345" lon="12.0367586"><ele>260.0</ele><time>2026-05-01T14:48:56.937Z</time></trkpt><trkpt lat="43.1862769" lon="12.0363441"><ele>260.0</ele><time>2026-05-01T14:48:57.938Z</time></trkpt><trkpt lat="43.1862389" lon="12.0359141"><ele>260.0</ele><time>2026-05-01T14:48:58.937Z</time></trkpt><trkpt lat="43.186219" lon="12.0354834"><ele>260.0</ele><time>2026-05-01T14:48:59.937Z</time></trkpt><trkpt lat="43.1862211" lon="12.0350508"><ele>260.0</ele><time>2026-05-01T14:49:00.938Z</time></trkpt><trkpt lat="43.1862422" lon="12.0346179"><ele>260.0</ele><time>2026-05-01T14:49:01.938Z</time></trkpt><trkpt lat="43.186279" lon="12.0341937"><ele>260.0</ele><time>2026-05-01T14:49:02.937Z</time></trkpt><trkpt lat="43.1863256" lon="12.033768"><ele>260.0</ele><time>2026-05-01T14:49:03.938Z</time></trkpt><trkpt lat="43.1863871" lon="12.0333509"><ele>260.0</ele><time>2026-05-01T14:49:04.938Z</time></trkpt><trkpt lat="43.1864557" lon="12.0329381"><ele>260.0</ele><time>2026-05-01T14:49:05.937Z</time></trkpt><trkpt lat="43.1865356" lon="12.032531"><ele>260.0</ele><time>2026-05-01T14:49:06.937Z</time></trkpt><trkpt lat="43.1866228" lon="12.0321332"><ele>260.0</ele><time>2026-05-01T14:49:07.937Z</time></trkpt><trkpt lat="43.1867108" lon="12.0317369"><ele>260.0</ele><time>2026-05-01T14:49:08.938Z</time></trkpt><trkpt lat="43.1867917" lon="12.0313508"><ele>260.0</ele><time>2026-05-01T14:49:09.937Z</time></trkpt><trkpt lat="43.1868709" lon="12.0309713"><ele>260.0</ele><time>2026-05-01T14:49:10.938Z</time></trkpt><trkpt lat="43.1869521" lon="12.0306065"><ele>260.5</ele><time>2026-05-01T14:49:11.937Z</time></trkpt><trkpt lat="43.1870253" lon="12.0302603"><ele>261.0</ele><time>2026-05-01T14:49:12.938Z</time></trkpt><trkpt lat="43.1871022" lon="12.0299219"><ele>261.0</ele><time>2026-05-01T14:49:13.938Z</time></trkpt><trkpt lat="43.1871748" lon="12.0295877"><ele>261.0</ele><time>2026-05-01T14:49:14.938Z</time></trkpt><trkpt lat="43.1872489" lon="12.0292491"><ele>261.0</ele><time>2026-05-01T14:49:15.938Z</time></trkpt><trkpt lat="43.1873219" lon="12.0289129"><ele>261.0</ele><time>2026-05-01T14:49:16.938Z</time></trkpt><trkpt lat="43.1873945" lon="12.0285774"><ele>261.0</ele><time>2026-05-01T14:49:17.938Z</time></trkpt><trkpt lat="43.1874666" lon="12.0282398"><ele>261.0</ele><time>2026-05-01T14:49:18.938Z</time></trkpt><trkpt lat="43.1875376" lon="12.0279036"><ele>261.0</ele><time>2026-05-01T14:49:19.938Z</time></trkpt><trkpt lat="43.1876114" lon="12.0275653"><ele>261.0</ele><time>2026-05-01T14:49:20.938Z</time></trkpt><trkpt lat="43.1876778" lon="12.0272296"><ele>261.0</ele><time>2026-05-01T14:49:21.938Z</time></trkpt><trkpt lat="43.1877486" lon="12.0268888"><ele>261.0</ele><time>2026-05-01T14:49:22.937Z</time></trkpt><trkpt lat="43.187821" lon="12.0265424"><ele>261.0</ele><time>2026-05-01T14:49:23.938Z</time></trkpt><trkpt lat="43.1878986" lon="12.0261792"><ele>261.0</ele><time>2026-05-01T14:49:24.938Z</time></trkpt><trkpt lat="43.1879809" lon="12.0258001"><ele>261.5</ele><time>2026-05-01T14:49:25.938Z</time></trkpt><trkpt lat="43.1880604" lon="12.0254088"><ele>262.0</ele><time>2026-05-01T14:49:26.938Z</time></trkpt><trkpt lat="43.1881438" lon="12.0250144"><ele>261.5</ele><time>2026-05-01T14:49:27.937Z</time></trkpt><trkpt lat="43.1882287" lon="12.0246123"><ele>261.0</ele><time>2026-05-01T14:49:28.937Z</time></trkpt><trkpt lat="43.1883211" lon="12.0241988"><ele>260.5</ele><time>2026-05-01T14:49:29.938Z</time></trkpt><trkpt lat="43.1884138" lon="12.0237741"><ele>260.0</ele><time>2026-05-01T14:49:30.938Z</time></trkpt><trkpt lat="43.1885024" lon="12.0233516"><ele>260.0</ele><time>2026-05-01T14:49:31.937Z</time></trkpt><trkpt lat="43.1885938" lon="12.0229238"><ele>260.0</ele><time>2026-05-01T14:49:32.938Z</time></trkpt><trkpt lat="43.1886816" lon="12.0224996"><ele>260.0</ele><time>2026-05-01T14:49:33.937Z</time></trkpt><trkpt lat="43.1887725" lon="12.0220733"><ele>260.0</ele><time>2026-05-01T14:49:34.938Z</time></trkpt><trkpt lat="43.1888672" lon="12.0216446"><ele>260.0</ele><time>2026-05-01T14:49:35.938Z</time></trkpt><trkpt lat="43.188961" lon="12.0212164"><ele>260.0</ele><time>2026-05-01T14:49:36.937Z</time></trkpt><trkpt lat="43.1890552" lon="12.0207882"><ele>260.5</ele><time>2026-05-01T14:49:37.938Z</time></trkpt><trkpt lat="43.1891467" lon="12.0203606"><ele>261.0</ele><time>2026-05-01T14:49:38.938Z</time></trkpt><trkpt lat="43.1892323" lon="12.0199432"><ele>261.0</ele><time>2026-05-01T14:49:39.938Z</time></trkpt><trkpt lat="43.1893173" lon="12.0195341"><ele>261.0</ele><time>2026-05-01T14:49:40.938Z</time></trkpt><trkpt lat="43.1894009" lon="12.0191461"><ele>260.5</ele><time>2026-05-01T14:49:41.937Z</time></trkpt><trkpt lat="43.1894836" lon="12.0187657"><ele>260.0</ele><time>2026-05-01T14:49:42.937Z</time></trkpt><trkpt lat="43.1895606" lon="12.0183906"><ele>259.5</ele><time>2026-05-01T14:49:43.938Z</time></trkpt><trkpt lat="43.1896345" lon="12.0180269"><ele>259.0</ele><time>2026-05-01T14:49:44.938Z</time></trkpt><trkpt lat="43.1897013" lon="12.0176678"><ele>259.5</ele><time>2026-05-01T14:49:45.938Z</time></trkpt><trkpt lat="43.1897647" lon="12.017311"><ele>260.0</ele><time>2026-05-01T14:49:46.938Z</time></trkpt><trkpt lat="43.1898202" lon="12.0169565"><ele>261.5</ele><time>2026-05-01T14:49:47.938Z</time></trkpt><trkpt lat="43.1898654" lon="12.0165968"><ele>263.0</ele><time>2026-05-01T14:49:48.937Z</time></trkpt><trkpt lat="43.1899069" lon="12.0162365"><ele>263.0</ele><time>2026-05-01T14:49:49.937Z</time></trkpt><trkpt lat="43.1899417" lon="12.0158783"><ele>263.0</ele><time>2026-05-01T14:49:50.938Z</time></trkpt><trkpt lat="43.1899702" lon="12.0155133"><ele>263.5</ele><time>2026-05-01T14:49:51.937Z</time></trkpt><trkpt lat="43.1899897" lon="12.0151454"><ele>264.0</ele><time>2026-05-01T14:49:52.938Z</time></trkpt><trkpt lat="43.1900088" lon="12.014773"><ele>264.0</ele><time>2026-05-01T14:49:53.938Z</time></trkpt><trkpt lat="43.1900149" lon="12.0143974"><ele>264.0</ele><time>2026-05-01T14:49:54.938Z</time></trkpt><trkpt lat="43.1900188" lon="12.0140149"><ele>264.0</ele><time>2026-05-01T14:49:55.937Z</time></trkpt><trkpt lat="43.1900162" lon="12.0136357"><ele>264.0</ele><time>2026-05-01T14:49:56.938Z</time></trkpt><trkpt lat="43.1900118" lon="12.0132508"><ele>264.5</ele><time>2026-05-01T14:49:57.938Z</time></trkpt><trkpt lat="43.1900047" lon="12.0128585"><ele>265.0</ele><time>2026-05-01T14:49:58.937Z</time></trkpt><trkpt lat="43.189993" lon="12.0124635"><ele>265.0</ele><time>2026-05-01T14:49:59.937Z</time></trkpt><trkpt lat="43.1899852" lon="12.0120674"><ele>265.0</ele><time>2026-05-01T14:50:00.938Z</time></trkpt><trkpt lat="43.1899776" lon="12.0116695"><ele>265.5</ele><time>2026-05-01T14:50:01.937Z</time></trkpt><trkpt lat="43.1899725" lon="12.011261"><ele>266.0</ele><time>2026-05-01T14:50:02.937Z</time></trkpt><trkpt lat="43.1899682" lon="12.010843"><ele>266.0</ele><time>2026-05-01T14:50:03.938Z</time></trkpt><trkpt lat="43.189963" lon="12.0104175"><ele>266.0</ele><time>2026-05-01T14:50:04.937Z</time></trkpt><trkpt lat="43.1899663" lon="12.0099945"><ele>266.0</ele><time>2026-05-01T14:50:05.937Z</time></trkpt><trkpt lat="43.1899718" lon="12.009572"><ele>266.0</ele><time>2026-05-01T14:50:06.937Z</time></trkpt><trkpt lat="43.1899854" lon="12.009148"><ele>266.0</ele><time>2026-05-01T14:50:07.938Z</time></trkpt><trkpt lat="43.190008" lon="12.008719"><ele>266.0</ele><time>2026-05-01T14:50:08.937Z</time></trkpt><trkpt lat="43.1900409" lon="12.0082865"><ele>266.0</ele><time>2026-05-01T14:50:09.938Z</time></trkpt><trkpt lat="43.1900764" lon="12.0078498"><ele>266.0</ele><time>2026-05-01T14:50:10.938Z</time></trkpt><trkpt lat="43.1901117" lon="12.0074153"><ele>265.5</ele><time>2026-05-01T14:50:11.938Z</time></trkpt><trkpt lat="43.1901544" lon="12.0069852"><ele>265.0</ele><time>2026-05-01T14:50:12.938Z</time></trkpt><trkpt lat="43.1901994" lon="12.0065563"><ele>265.0</ele><time>2026-05-01T14:50:13.938Z</time></trkpt><trkpt lat="43.1902515" lon="12.0061265"><ele>265.0</ele><time>2026-05-01T14:50:14.937Z</time></trkpt><trkpt lat="43.1903105" lon="12.0057022"><ele>265.0</ele><time>2026-05-01T14:50:15.938Z</time></trkpt><trkpt lat="43.190378" lon="12.0052748"><ele>265.0</ele><time>2026-05-01T14:50:16.938Z</time></trkpt><trkpt lat="43.1904497" lon="12.0048501"><ele>265.0</ele><time>2026-05-01T14:50:17.937Z</time></trkpt><trkpt lat="43.1905274" lon="12.0044216"><ele>265.0</ele><time>2026-05-01T14:50:18.938Z</time></trkpt><trkpt lat="43.1906033" lon="12.0039947"><ele>266.0</ele><time>2026-05-01T14:50:19.938Z</time></trkpt><trkpt lat="43.1906851" lon="12.0035727"><ele>267.0</ele><time>2026-05-01T14:50:20.938Z</time></trkpt><trkpt lat="43.1907753" lon="12.0031519"><ele>267.0</ele><time>2026-05-01T14:50:21.937Z</time></trkpt><trkpt lat="43.1908712" lon="12.0027405"><ele>267.0</ele><time>2026-05-01T14:50:22.938Z</time></trkpt><trkpt lat="43.1909698" lon="12.0023247"><ele>266.5</ele><time>2026-05-01T14:50:23.937Z</time></trkpt><trkpt lat="43.1910728" lon="12.0019112"><ele>266.0</ele><time>2026-05-01T14:50:24.937Z</time></trkpt><trkpt lat="43.1911831" lon="12.001501"><ele>266.0</ele><time>2026-05-01T14:50:25.938Z</time></trkpt><trkpt lat="43.1912995" lon="12.0010922"><ele>266.0</ele><time>2026-05-01T14:50:26.938Z</time></trkpt><trkpt lat="43.1914174" lon="12.00069"><ele>266.0</ele><time>2026-05-01T14:50:27.938Z</time></trkpt><trkpt lat="43.1915439" lon="12.0002858"><ele>266.0</ele><time>2026-05-01T14:50:28.938Z</time></trkpt><trkpt lat="43.1916695" lon="11.9998845"><ele>266.0</ele><time>2026-05-01T14:50:29.938Z</time></trkpt><trkpt lat="43.1918049" lon="11.9994839"><ele>266.0</ele><time>2026-05-01T14:50:30.937Z</time></trkpt><trkpt lat="43.1919361" lon="11.9990829"><ele>266.0</ele><time>2026-05-01T14:50:31.938Z</time></trkpt><trkpt lat="43.192065" lon="11.9986803"><ele>266.0</ele><time>2026-05-01T14:50:32.937Z</time></trkpt><trkpt lat="43.1921934" lon="11.9982744"><ele>266.0</ele><time>2026-05-01T14:50:33.938Z</time></trkpt><trkpt lat="43.1923195" lon="11.9978728"><ele>266.0</ele><time>2026-05-01T14:50:34.938Z</time></trkpt><trkpt lat="43.1924504" lon="11.9974614"><ele>266.5</ele><time>2026-05-01T14:50:35.938Z</time></trkpt><trkpt lat="43.1925871" lon="11.9970593"><ele>267.0</ele><time>2026-05-01T14:50:36.938Z</time></trkpt><trkpt lat="43.1927218" lon="11.9966521"><ele>267.0</ele><time>2026-05-01T14:50:37.937Z</time></trkpt><trkpt lat="43.1928547" lon="11.9962463"><ele>267.0</ele><time>2026-05-01T14:50:38.938Z</time></trkpt><trkpt lat="43.192982" lon="11.9958328"><ele>266.0</ele><time>2026-05-01T14:50:39.937Z</time></trkpt><trkpt lat="43.1931004" lon="11.9954293"><ele>265.0</ele><time>2026-05-01T14:50:40.938Z</time></trkpt><trkpt lat="43.1932225" lon="11.9950287"><ele>264.5</ele><time>2026-05-01T14:50:41.938Z</time></trkpt><trkpt lat="43.1933529" lon="11.9946331"><ele>264.0</ele><time>2026-05-01T14:50:42.938Z</time></trkpt><trkpt lat="43.1934795" lon="11.9942335"><ele>264.5</ele><time>2026-05-01T14:50:43.937Z</time></trkpt><trkpt lat="43.1936061" lon="11.993832"><ele>265.0</ele><time>2026-05-01T14:50:44.938Z</time></trkpt><trkpt lat="43.1937357" lon="11.9934277"><ele>265.0</ele><time>2026-05-01T14:50:45.938Z</time></trkpt><trkpt lat="43.1938615" lon="11.9930291"><ele>265.0</ele><time>2026-05-01T14:50:46.938Z</time></trkpt><trkpt lat="43.1939872" lon="11.992626"><ele>265.0</ele><time>2026-05-01T14:50:47.937Z</time></trkpt><trkpt lat="43.1941176" lon="11.9922217"><ele>265.0</ele><time>2026-05-01T14:50:48.938Z</time></trkpt><trkpt lat="43.194239" lon="11.9918185"><ele>265.0</ele><time>2026-05-01T14:50:49.937Z</time></trkpt><trkpt lat="43.1943669" lon="11.991418"><ele>265.0</ele><time>2026-05-01T14:50:50.938Z</time></trkpt><trkpt lat="43.1944961" lon="11.9910227"><ele>264.5</ele><time>2026-05-01T14:50:51.938Z</time></trkpt><trkpt lat="43.1946197" lon="11.9906273"><ele>264.0</ele><time>2026-05-01T14:50:52.938Z</time></trkpt><trkpt lat="43.1947435" lon="11.9902345"><ele>263.5</ele><time>2026-05-01T14:50:53.938Z</time></trkpt><trkpt lat="43.194874" lon="11.9898338"><ele>263.0</ele><time>2026-05-01T14:50:54.938Z</time></trkpt><trkpt lat="43.1950074" lon="11.9894335"><ele>263.0</ele><time>2026-05-01T14:50:55.938Z</time></trkpt><trkpt lat="43.1951456" lon="11.9890275"><ele>263.0</ele><time>2026-05-01T14:50:56.938Z</time></trkpt><trkpt lat="43.1952832" lon="11.9886271"><ele>263.5</ele><time>2026-05-01T14:50:57.937Z</time></trkpt><trkpt lat="43.1954229" lon="11.9882249"><ele>264.0</ele><time>2026-05-01T14:50:58.937Z</time></trkpt><trkpt lat="43.1955669" lon="11.9878188"><ele>263.5</ele><time>2026-05-01T14:50:59.938Z</time></trkpt><trkpt lat="43.1957156" lon="11.9874149"><ele>263.0</ele><time>2026-05-01T14:51:00.938Z</time></trkpt><trkpt lat="43.1958679" lon="11.9870088"><ele>263.0</ele><time>2026-05-01T14:51:01.938Z</time></trkpt><trkpt lat="43.1960219" lon="11.9866036"><ele>263.0</ele><time>2026-05-01T14:51:02.938Z</time></trkpt><trkpt lat="43.1961759" lon="11.9861963"><ele>263.0</ele><time>2026-05-01T14:51:03.938Z</time></trkpt><trkpt lat="43.1963328" lon="11.9857909"><ele>263.0</ele><time>2026-05-01T14:51:04.938Z</time></trkpt><trkpt lat="43.1964917" lon="11.9853826"><ele>263.5</ele><time>2026-05-01T14:51:05.937Z</time></trkpt><trkpt lat="43.1966539" lon="11.9849766"><ele>264.0</ele><time>2026-05-01T14:51:06.937Z</time></trkpt><trkpt lat="43.1968181" lon="11.9845721"><ele>264.0</ele><time>2026-05-01T14:51:07.938Z</time></trkpt><trkpt lat="43.1969843" lon="11.9841698"><ele>264.0</ele><time>2026-05-01T14:51:08.938Z</time></trkpt><trkpt lat="43.197158" lon="11.983765"><ele>264.0</ele><time>2026-05-01T14:51:09.937Z</time></trkpt><trkpt lat="43.1973276" lon="11.9833662"><ele>264.0</ele><time>2026-05-01T14:51:10.938Z</time></trkpt><trkpt lat="43.1974955" lon="11.9829705"><ele>264.0</ele><time>2026-05-01T14:51:11.938Z</time></trkpt><trkpt lat="43.1976647" lon="11.9825704"><ele>264.0</ele><time>2026-05-01T14:51:12.938Z</time></trkpt><trkpt lat="43.1978334" lon="11.9821692"><ele>264.0</ele><time>2026-05-01T14:51:13.938Z</time></trkpt><trkpt lat="43.1979966" lon="11.98177"><ele>264.0</ele><time>2026-05-01T14:51:14.938Z</time></trkpt><trkpt lat="43.1981599" lon="11.9813687"><ele>263.5</ele><time>2026-05-01T14:51:15.938Z</time></trkpt><trkpt lat="43.1983244" lon="11.9809626"><ele>263.0</ele><time>2026-05-01T14:51:16.937Z</time></trkpt><trkpt lat="43.1984911" lon="11.9805543"><ele>264.5</ele><time>2026-05-01T14:51:17.938Z</time></trkpt><trkpt lat="43.1986608" lon="11.9801528"><ele>266.0</ele><time>2026-05-01T14:51:18.938Z</time></trkpt><trkpt lat="43.1988194" lon="11.9797521"><ele>266.5</ele><time>2026-05-01T14:51:19.938Z</time></trkpt><trkpt lat="43.1989764" lon="11.9793643"><ele>267.0</ele><time>2026-05-01T14:51:20.938Z</time></trkpt><trkpt lat="43.1991348" lon="11.9789755"><ele>267.0</ele><time>2026-05-01T14:51:21.938Z</time></trkpt><trkpt lat="43.1992884" lon="11.9785915"><ele>267.0</ele><time>2026-05-01T14:51:22.938Z</time></trkpt><trkpt lat="43.199439" lon="11.9782062"><ele>267.0</ele><time>2026-05-01T14:51:23.937Z</time></trkpt><trkpt lat="43.1995835" lon="11.9778197"><ele>267.0</ele><time>2026-05-01T14:51:24.937Z</time></trkpt><trkpt lat="43.1997292" lon="11.9774355"><ele>267.0</ele><time>2026-05-01T14:51:25.938Z</time></trkpt><trkpt lat="43.1998735" lon="11.9770508"><ele>267.0</ele><time>2026-05-01T14:51:26.938Z</time></trkpt><trkpt lat="43.2000138" lon="11.9766652"><ele>268.5</ele><time>2026-05-01T14:51:27.937Z</time></trkpt><trkpt lat="43.2001531" lon="11.9762808"><ele>270.0</ele><time>2026-05-01T14:51:28.938Z</time></trkpt><trkpt lat="43.2002891" lon="11.975892"><ele>271.0</ele><time>2026-05-01T14:51:29.938Z</time></trkpt><trkpt lat="43.2004305" lon="11.9754972"><ele>272.0</ele><time>2026-05-01T14:51:30.938Z</time></trkpt><trkpt lat="43.2005775" lon="11.9750972"><ele>272.5</ele><time>2026-05-01T14:51:31.938Z</time></trkpt><trkpt lat="43.2007262" lon="11.974687"><ele>273.0</ele><time>2026-05-01T14:51:32.938Z</time></trkpt><trkpt lat="43.2008742" lon="11.9742722"><ele>273.5</ele><time>2026-05-01T14:51:33.937Z</time></trkpt><trkpt lat="43.2010214" lon="11.9738565"><ele>274.0</ele><time>2026-05-01T14:51:34.938Z</time></trkpt><trkpt lat="43.2011725" lon="11.9734404"><ele>274.5</ele><time>2026-05-01T14:51:35.938Z</time></trkpt><trkpt lat="43.2013188" lon="11.9730242"><ele>275.0</ele><time>2026-05-01T14:51:36.938Z</time></trkpt><trkpt lat="43.2014631" lon="11.9726093"><ele>273.5</ele><time>2026-05-01T14:51:37.938Z</time></trkpt><trkpt lat="43.2016092" lon="11.9721947"><ele>272.0</ele><time>2026-05-01T14:51:38.937Z</time></trkpt><trkpt lat="43.2017555" lon="11.9717807"><ele>271.5</ele><time>2026-05-01T14:51:39.938Z</time></trkpt><trkpt lat="43.2019014" lon="11.9713721"><ele>271.0</ele><time>2026-05-01T14:51:40.938Z</time></trkpt><trkpt lat="43.2020493" lon="11.9709702"><ele>270.5</ele><time>2026-05-01T14:51:41.937Z</time></trkpt><trkpt lat="43.2022001" lon="11.9705608"><ele>270.0</ele><time>2026-05-01T14:51:42.937Z</time></trkpt><trkpt lat="43.2023478" lon="11.9701525"><ele>269.5</ele><time>2026-05-01T14:51:43.938Z</time></trkpt><trkpt lat="43.2024921" lon="11.9697458"><ele>269.0</ele><time>2026-05-01T14:51:44.938Z</time></trkpt><trkpt lat="43.2026395" lon="11.9693405"><ele>269.0</ele><time>2026-05-01T14:51:45.938Z</time></trkpt><trkpt lat="43.2027869" lon="11.968936"><ele>269.0</ele><time>2026-05-01T14:51:46.937Z</time></trkpt><trkpt lat="43.202934" lon="11.9685317"><ele>270.5</ele><time>2026-05-01T14:51:47.937Z</time></trkpt><trkpt lat="43.2030783" lon="11.9681294"><ele>272.0</ele><time>2026-05-01T14:51:48.938Z</time></trkpt><trkpt lat="43.2032199" lon="11.9677212"><ele>272.0</ele><time>2026-05-01T14:51:49.937Z</time></trkpt><trkpt lat="43.2033655" lon="11.9673179"><ele>272.0</ele><time>2026-05-01T14:51:50.938Z</time></trkpt><trkpt lat="43.2035089" lon="11.9669127"><ele>272.5</ele><time>2026-05-01T14:51:51.938Z</time></trkpt><trkpt lat="43.2036517" lon="11.9665162"><ele>273.0</ele><time>2026-05-01T14:51:52.937Z</time></trkpt><trkpt lat="43.2037934" lon="11.9661271"><ele>273.0</ele><time>2026-05-01T14:51:53.938Z</time></trkpt><trkpt lat="43.2039247" lon="11.9657662"><ele>273.0</ele><time>2026-05-01T14:51:54.938Z</time></trkpt><trkpt lat="43.2040486" lon="11.965409"><ele>272.0</ele><time>2026-05-01T14:51:55.937Z</time></trkpt><trkpt lat="43.2041778" lon="11.9650519"><ele>271.0</ele><time>2026-05-01T14:51:56.937Z</time></trkpt><trkpt lat="43.2043093" lon="11.9646841"><ele>271.0</ele><time>2026-05-01T14:51:57.938Z</time></trkpt><trkpt lat="43.2044427" lon="11.9643084"><ele>271.0</ele><time>2026-05-01T14:51:58.938Z</time></trkpt><trkpt lat="43.2045767" lon="11.9639306"><ele>272.0</ele><time>2026-05-01T14:51:59.938Z</time></trkpt><trkpt lat="43.2047126" lon="11.9635412"><ele>273.0</ele><time>2026-05-01T14:52:00.938Z</time></trkpt><trkpt lat="43.2048526" lon="11.9631439"><ele>273.5</ele><time>2026-05-01T14:52:01.938Z</time></trkpt><trkpt lat="43.2049881" lon="11.9627447"><ele>274.0</ele><time>2026-05-01T14:52:02.937Z</time></trkpt><trkpt lat="43.2051262" lon="11.9623385"><ele>274.5</ele><time>2026-05-01T14:52:03.938Z</time></trkpt><trkpt lat="43.2052568" lon="11.9619308"><ele>275.0</ele><time>2026-05-01T14:52:04.937Z</time></trkpt><trkpt lat="43.2053856" lon="11.9615158"><ele>275.5</ele><time>2026-05-01T14:52:05.938Z</time></trkpt><trkpt lat="43.2055199" lon="11.9610987"><ele>276.0</ele><time>2026-05-01T14:52:06.938Z</time></trkpt><trkpt lat="43.2056571" lon="11.960682"><ele>277.0</ele><time>2026-05-01T14:52:07.938Z</time></trkpt><trkpt lat="43.205785" lon="11.9602619"><ele>278.0</ele><time>2026-05-01T14:52:08.937Z</time></trkpt><trkpt lat="43.2059124" lon="11.9598392"><ele>278.0</ele><time>2026-05-01T14:52:09.937Z</time></trkpt><trkpt lat="43.2060353" lon="11.9594145"><ele>278.0</ele><time>2026-05-01T14:52:10.938Z</time></trkpt><trkpt lat="43.2061538" lon="11.9589875"><ele>279.0</ele><time>2026-05-01T14:52:11.938Z</time></trkpt><trkpt lat="43.206271" lon="11.9585536"><ele>280.0</ele><time>2026-05-01T14:52:12.938Z</time></trkpt><trkpt lat="43.2063812" lon="11.9581235"><ele>277.5</ele><time>2026-05-01T14:52:13.937Z</time></trkpt><trkpt lat="43.2064946" lon="11.9576933"><ele>275.0</ele><time>2026-05-01T14:52:14.937Z</time></trkpt><trkpt lat="43.2066086" lon="11.9572696"><ele>275.0</ele><time>2026-05-01T14:52:15.937Z</time></trkpt><trkpt lat="43.206718" lon="11.956839"><ele>275.0</ele><time>2026-05-01T14:52:16.938Z</time></trkpt><trkpt lat="43.206825" lon="11.9564094"><ele>273.5</ele><time>2026-05-01T14:52:17.937Z</time></trkpt><trkpt lat="43.2069261" lon="11.955983"><ele>272.0</ele><time>2026-05-01T14:52:18.938Z</time></trkpt><trkpt lat="43.2070201" lon="11.955562"><ele>272.0</ele><time>2026-05-01T14:52:19.938Z</time></trkpt><trkpt lat="43.2071123" lon="11.9551436"><ele>272.0</ele><time>2026-05-01T14:52:20.938Z</time></trkpt><trkpt lat="43.2071985" lon="11.9547264"><ele>272.5</ele><time>2026-05-01T14:52:21.937Z</time></trkpt><trkpt lat="43.2072862" lon="11.9543166"><ele>273.0</ele><time>2026-05-01T14:52:22.938Z</time></trkpt><trkpt lat="43.2073767" lon="11.9539099"><ele>275.5</ele><time>2026-05-01T14:52:23.937Z</time></trkpt><trkpt lat="43.2074632" lon="11.9534987"><ele>278.0</ele><time>2026-05-01T14:52:24.938Z</time></trkpt><trkpt lat="43.2075499" lon="11.9530896"><ele>280.0</ele><time>2026-05-01T14:52:25.938Z</time></trkpt><trkpt lat="43.207633" lon="11.9526847"><ele>282.0</ele><time>2026-05-01T14:52:26.938Z</time></trkpt><trkpt lat="43.2077194" lon="11.9522814"><ele>282.0</ele><time>2026-05-01T14:52:27.938Z</time></trkpt><trkpt lat="43.2078104" lon="11.951881"><ele>282.0</ele><time>2026-05-01T14:52:28.937Z</time></trkpt><trkpt lat="43.2079087" lon="11.9514816"><ele>282.0</ele><time>2026-05-01T14:52:29.938Z</time></trkpt><trkpt lat="43.2080173" lon="11.9510852"><ele>282.0</ele><time>2026-05-01T14:52:30.938Z</time></trkpt><trkpt lat="43.2081298" lon="11.9506911"><ele>282.5</ele><time>2026-05-01T14:52:31.938Z</time></trkpt><trkpt lat="43.2082529" lon="11.9502908"><ele>283.0</ele><time>2026-05-01T14:52:32.938Z</time></trkpt><trkpt lat="43.2083872" lon="11.9498914"><ele>283.0</ele><time>2026-05-01T14:52:33.937Z</time></trkpt><trkpt lat="43.2085246" lon="11.9494927"><ele>283.0</ele><time>2026-05-01T14:52:34.938Z</time></trkpt><trkpt lat="43.2086801" lon="11.9490982"><ele>283.5</ele><time>2026-05-01T14:52:35.938Z</time></trkpt><trkpt lat="43.2088379" lon="11.9487057"><ele>284.0</ele><time>2026-05-01T14:52:36.938Z</time></trkpt><trkpt lat="43.2090012" lon="11.9483199"><ele>281.5</ele><time>2026-05-01T14:52:37.938Z</time></trkpt><trkpt lat="43.2091777" lon="11.947935"><ele>279.0</ele><time>2026-05-01T14:52:38.938Z</time></trkpt><trkpt lat="43.2093576" lon="11.9475617"><ele>281.0</ele><time>2026-05-01T14:52:39.938Z</time></trkpt><trkpt lat="43.2095485" lon="11.9471918"><ele>283.0</ele><time>2026-05-01T14:52:40.938Z</time></trkpt><trkpt lat="43.2097442" lon="11.9468289"><ele>284.0</ele><time>2026-05-01T14:52:41.937Z</time></trkpt><trkpt lat="43.2099486" lon="11.946472"><ele>285.0</ele><time>2026-05-01T14:52:42.938Z</time></trkpt><trkpt lat="43.2101587" lon="11.9461285"><ele>285.0</ele><time>2026-05-01T14:52:43.938Z</time></trkpt><trkpt lat="43.2103684" lon="11.9457843"><ele>285.0</ele><time>2026-05-01T14:52:44.938Z</time></trkpt><trkpt lat="43.2105881" lon="11.9454539"><ele>285.0</ele><time>2026-05-01T14:52:45.938Z</time></trkpt><trkpt lat="43.2108111" lon="11.9451281"><ele>285.0</ele><time>2026-05-01T14:52:46.938Z</time></trkpt><trkpt lat="43.2110322" lon="11.9448081"><ele>285.5</ele><time>2026-05-01T14:52:47.938Z</time></trkpt><trkpt lat="43.2112481" lon="11.9445009"><ele>286.0</ele><time>2026-05-01T14:52:48.938Z</time></trkpt><trkpt lat="43.2114641" lon="11.9441963"><ele>285.5</ele><time>2026-05-01T14:52:49.938Z</time></trkpt><trkpt lat="43.2116832" lon="11.9438897"><ele>285.0</ele><time>2026-05-01T14:52:50.938Z</time></trkpt><trkpt lat="43.2118989" lon="11.9435753"><ele>286.5</ele><time>2026-05-01T14:52:51.937Z</time></trkpt><trkpt lat="43.2121047" lon="11.9432607"><ele>288.0</ele><time>2026-05-01T14:52:52.938Z</time></trkpt><trkpt lat="43.2123085" lon="11.9429412"><ele>287.0</ele><time>2026-05-01T14:52:53.937Z</time></trkpt><trkpt lat="43.2125117" lon="11.9426132"><ele>286.0</ele><time>2026-05-01T14:52:54.938Z</time></trkpt><trkpt lat="43.2127138" lon="11.9422735"><ele>285.0</ele><time>2026-05-01T14:52:55.937Z</time></trkpt><trkpt lat="43.2129085" lon="11.9419327"><ele>284.0</ele><time>2026-05-01T14:52:56.938Z</time></trkpt><trkpt lat="43.2130985" lon="11.9415837"><ele>284.0</ele><time>2026-05-01T14:52:57.937Z</time></trkpt><trkpt lat="43.2132814" lon="11.9412219"><ele>284.0</ele><time>2026-05-01T14:52:58.938Z</time></trkpt><trkpt lat="43.2134627" lon="11.9408587"><ele>281.0</ele><time>2026-05-01T14:52:59.938Z</time></trkpt><trkpt lat="43.2136432" lon="11.9404921"><ele>278.0</ele><time>2026-05-01T14:53:00.937Z</time></trkpt><trkpt lat="43.2138123" lon="11.9401139"><ele>277.5</ele><time>2026-05-01T14:53:01.938Z</time></trkpt><trkpt lat="43.2139791" lon="11.9397307"><ele>277.0</ele><time>2026-05-01T14:53:02.938Z</time></trkpt><trkpt lat="43.2141399" lon="11.9393364"><ele>274.5</ele><time>2026-05-01T14:53:03.938Z</time></trkpt><trkpt lat="43.2142882" lon="11.9389427"><ele>272.0</ele><time>2026-05-01T14:53:04.938Z</time></trkpt><trkpt lat="43.214438" lon="11.9385448"><ele>270.5</ele><time>2026-05-01T14:53:05.937Z</time></trkpt><trkpt lat="43.2145914" lon="11.9381403"><ele>269.0</ele><time>2026-05-01T14:53:06.938Z</time></trkpt><trkpt lat="43.2147437" lon="11.9377431"><ele>269.0</ele><time>2026-05-01T14:53:07.938Z</time></trkpt><trkpt lat="43.2148946" lon="11.9373453"><ele>269.0</ele><time>2026-05-01T14:53:08.938Z</time></trkpt><trkpt lat="43.2150434" lon="11.9369504"><ele>270.0</ele><time>2026-05-01T14:53:09.937Z</time></trkpt><trkpt lat="43.2151858" lon="11.9365681"><ele>271.0</ele><time>2026-05-01T14:53:10.938Z</time></trkpt><trkpt lat="43.2153288" lon="11.9361844"><ele>270.0</ele><time>2026-05-01T14:53:11.937Z</time></trkpt><trkpt lat="43.2154722" lon="11.9357938"><ele>269.0</ele><time>2026-05-01T14:53:12.938Z</time></trkpt><trkpt lat="43.2156211" lon="11.935399"><ele>270.0</ele><time>2026-05-01T14:53:13.938Z</time></trkpt><trkpt lat="43.2157669" lon="11.9350016"><ele>271.0</ele><time>2026-05-01T14:53:14.938Z</time></trkpt><trkpt lat="43.2159112" lon="11.9346074"><ele>272.0</ele><time>2026-05-01T14:53:15.938Z</time></trkpt><trkpt lat="43.2160539" lon="11.9342204"><ele>273.0</ele><time>2026-05-01T14:53:16.938Z</time></trkpt><trkpt lat="43.216186" lon="11.9338431"><ele>273.0</ele><time>2026-05-01T14:53:17.937Z</time></trkpt><trkpt lat="43.2163005" lon="11.933488"><ele>273.0</ele><time>2026-05-01T14:53:18.938Z</time></trkpt><trkpt lat="43.2164059" lon="11.9331555"><ele>274.5</ele><time>2026-05-01T14:53:19.938Z</time></trkpt><trkpt lat="43.2165041" lon="11.9328345"><ele>276.0</ele><time>2026-05-01T14:53:20.938Z</time></trkpt><trkpt lat="43.216595" lon="11.9325251"><ele>277.5</ele><time>2026-05-01T14:53:21.938Z</time></trkpt><trkpt lat="43.216681" lon="11.9322214"><ele>279.0</ele><time>2026-05-01T14:53:22.938Z</time></trkpt><trkpt lat="43.2167683" lon="11.9319207"><ele>281.0</ele><time>2026-05-01T14:53:23.937Z</time></trkpt><trkpt lat="43.2168465" lon="11.931617"><ele>283.0</ele><time>2026-05-01T14:53:24.929Z</time></trkpt><trkpt lat="43.2169235" lon="11.9313123"><ele>283.0</ele><time>2026-05-01T14:53:25.937Z</time></trkpt><trkpt lat="43.216998" lon="11.931003"><ele>283.0</ele><time>2026-05-01T14:53:26.938Z</time></trkpt><trkpt lat="43.2170675" lon="11.9306809"><ele>286.0</ele><time>2026-05-01T14:53:27.938Z</time></trkpt><trkpt lat="43.2171381" lon="11.9303512"><ele>289.0</ele><time>2026-05-01T14:53:28.937Z</time></trkpt><trkpt lat="43.217206" lon="11.9300199"><ele>289.5</ele><time>2026-05-01T14:53:29.937Z</time></trkpt><trkpt lat="43.2172694" lon="11.9296784"><ele>290.0</ele><time>2026-05-01T14:53:30.938Z</time></trkpt><trkpt lat="43.2173323" lon="11.9293384"><ele>291.0</ele><time>2026-05-01T14:53:31.938Z</time></trkpt><trkpt lat="43.2173871" lon="11.9290085"><ele>292.0</ele><time>2026-05-01T14:53:32.937Z</time></trkpt><trkpt lat="43.2174395" lon="11.9286866"><ele>292.0</ele><time>2026-05-01T14:53:33.938Z</time></trkpt><trkpt lat="43.2174924" lon="11.9283457"><ele>292.0</ele><time>2026-05-01T14:53:34.937Z</time></trkpt><trkpt lat="43.2175415" lon="11.9279943"><ele>292.0</ele><time>2026-05-01T14:53:35.938Z</time></trkpt><trkpt lat="43.2175878" lon="11.9276335"><ele>292.0</ele><time>2026-05-01T14:53:36.937Z</time></trkpt><trkpt lat="43.2176341" lon="11.9272738"><ele>292.5</ele><time>2026-05-01T14:53:37.938Z</time></trkpt><trkpt lat="43.2176796" lon="11.9268945"><ele>293.0</ele><time>2026-05-01T14:53:38.938Z</time></trkpt><trkpt lat="43.217732" lon="11.9265006"><ele>294.5</ele><time>2026-05-01T14:53:39.938Z</time></trkpt><trkpt lat="43.2177875" lon="11.9260853"><ele>296.0</ele><time>2026-05-01T14:53:40.938Z</time></trkpt><trkpt lat="43.2178451" lon="11.9256566"><ele>298.0</ele><time>2026-05-01T14:53:41.938Z</time></trkpt><trkpt lat="43.2179071" lon="11.9252175"><ele>300.0</ele><time>2026-05-01T14:53:42.937Z</time></trkpt><trkpt lat="43.2179664" lon="11.9247863"><ele>300.5</ele><time>2026-05-01T14:53:43.938Z</time></trkpt><trkpt lat="43.2180361" lon="11.9243567"><ele>301.0</ele><time>2026-05-01T14:53:44.938Z</time></trkpt><trkpt lat="43.2181112" lon="11.923929"><ele>300.5</ele><time>2026-05-01T14:53:45.938Z</time></trkpt><trkpt lat="43.2181986" lon="11.9235113"><ele>300.0</ele><time>2026-05-01T14:53:46.937Z</time></trkpt><trkpt lat="43.2182938" lon="11.9230959"><ele>300.0</ele><time>2026-05-01T14:53:47.937Z</time></trkpt><trkpt lat="43.2183917" lon="11.9226805"><ele>300.0</ele><time>2026-05-01T14:53:48.938Z</time></trkpt><trkpt lat="43.2184964" lon="11.9222692"><ele>299.5</ele><time>2026-05-01T14:53:49.938Z</time></trkpt><trkpt lat="43.2186113" lon="11.9218649"><ele>299.0</ele><time>2026-05-01T14:53:50.938Z</time></trkpt><trkpt lat="43.2187314" lon="11.9214707"><ele>298.5</ele><time>2026-05-01T14:53:51.938Z</time></trkpt><trkpt lat="43.2188591" lon="11.921078"><ele>298.0</ele><time>2026-05-01T14:53:52.938Z</time></trkpt><trkpt lat="43.2189955" lon="11.9206934"><ele>298.0</ele><time>2026-05-01T14:53:53.938Z</time></trkpt><trkpt lat="43.2191316" lon="11.9203115"><ele>298.0</ele><time>2026-05-01T14:53:54.938Z</time></trkpt><trkpt lat="43.2192738" lon="11.9199441"><ele>298.5</ele><time>2026-05-01T14:53:55.938Z</time></trkpt><trkpt lat="43.2194223" lon="11.9195831"><ele>299.0</ele><time>2026-05-01T14:53:56.937Z</time></trkpt><trkpt lat="43.2195746" lon="11.9192237"><ele>299.0</ele><time>2026-05-01T14:53:57.937Z</time></trkpt><trkpt lat="43.2197318" lon="11.9188667"><ele>299.0</ele><time>2026-05-01T14:53:58.938Z</time></trkpt><trkpt lat="43.2198914" lon="11.9185072"><ele>301.5</ele><time>2026-05-01T14:53:59.938Z</time></trkpt><trkpt lat="43.2200454" lon="11.9181438"><ele>304.0</ele><time>2026-05-01T14:54:00.938Z</time></trkpt><trkpt lat="43.2201949" lon="11.9177819"><ele>303.5</ele><time>2026-05-01T14:54:01.938Z</time></trkpt><trkpt lat="43.220342" lon="11.9174102"><ele>303.0</ele><time>2026-05-01T14:54:02.937Z</time></trkpt><trkpt lat="43.2204796" lon="11.9170367"><ele>304.0</ele><time>2026-05-01T14:54:03.937Z</time></trkpt><trkpt lat="43.2206097" lon="11.916656"><ele>305.0</ele><time>2026-05-01T14:54:04.937Z</time></trkpt><trkpt lat="43.2207312" lon="11.9162652"><ele>305.0</ele><time>2026-05-01T14:54:05.938Z</time></trkpt><trkpt lat="43.2208373" lon="11.9158635"><ele>305.0</ele><time>2026-05-01T14:54:06.939Z</time></trkpt><trkpt lat="43.2209362" lon="11.9154583"><ele>305.0</ele><time>2026-05-01T14:54:07.939Z</time></trkpt><trkpt lat="43.2210259" lon="11.91505"><ele>305.0</ele><time>2026-05-01T14:54:08.939Z</time></trkpt><trkpt lat="43.221103" lon="11.9146399"><ele>306.0</ele><time>2026-05-01T14:54:09.938Z</time></trkpt><trkpt lat="43.2211724" lon="11.9142232"><ele>307.0</ele><time>2026-05-01T14:54:10.938Z</time></trkpt><trkpt lat="43.2212314" lon="11.9137988"><ele>308.5</ele><time>2026-05-01T14:54:11.938Z</time></trkpt><trkpt lat="43.2212776" lon="11.9133754"><ele>310.0</ele><time>2026-05-01T14:54:12.939Z</time></trkpt><trkpt lat="43.2213081" lon="11.9129501"><ele>309.0</ele><time>2026-05-01T14:54:13.938Z</time></trkpt><trkpt lat="43.2213425" lon="11.9125229"><ele>308.0</ele><time>2026-05-01T14:54:14.938Z</time></trkpt><trkpt lat="43.2213751" lon="11.9120962"><ele>308.5</ele><time>2026-05-01T14:54:15.939Z</time></trkpt><trkpt lat="43.2214157" lon="11.9116715"><ele>309.0</ele><time>2026-05-01T14:54:16.939Z</time></trkpt><trkpt lat="43.2214512" lon="11.9112462"><ele>309.0</ele><time>2026-05-01T14:54:17.939Z</time></trkpt><trkpt lat="43.2214874" lon="11.9108133"><ele>309.0</ele><time>2026-05-01T14:54:18.938Z</time></trkpt><trkpt lat="43.2215253" lon="11.9103853"><ele>309.5</ele><time>2026-05-01T14:54:19.939Z</time></trkpt><trkpt lat="43.2215615" lon="11.9099604"><ele>310.0</ele><time>2026-05-01T14:54:20.938Z</time></trkpt><trkpt lat="43.2215914" lon="11.9095368"><ele>309.5</ele><time>2026-05-01T14:54:21.938Z</time></trkpt><trkpt lat="43.2216298" lon="11.9090989"><ele>309.0</ele><time>2026-05-01T14:54:22.939Z</time></trkpt><trkpt lat="43.2216701" lon="11.9086579"><ele>309.0</ele><time>2026-05-01T14:54:23.939Z</time></trkpt><trkpt lat="43.2217085" lon="11.9082185"><ele>309.0</ele><time>2026-05-01T14:54:24.939Z</time></trkpt><trkpt lat="43.221754" lon="11.9077844"><ele>309.5</ele><time>2026-05-01T14:54:25.939Z</time></trkpt><trkpt lat="43.2218147" lon="11.9073525"><ele>310.0</ele><time>2026-05-01T14:54:26.939Z</time></trkpt><trkpt lat="43.2218881" lon="11.9069216"><ele>310.5</ele><time>2026-05-01T14:54:27.938Z</time></trkpt><trkpt lat="43.2219778" lon="11.9064924"><ele>311.0</ele><time>2026-05-01T14:54:28.939Z</time></trkpt><trkpt lat="43.2220828" lon="11.9060677"><ele>311.5</ele><time>2026-05-01T14:54:29.938Z</time></trkpt><trkpt lat="43.2222005" lon="11.905653"><ele>312.0</ele><time>2026-05-01T14:54:30.939Z</time></trkpt><trkpt lat="43.2223322" lon="11.9052295"><ele>306.5</ele><time>2026-05-01T14:54:31.939Z</time></trkpt><trkpt lat="43.2224674" lon="11.9048107"><ele>301.0</ele><time>2026-05-01T14:54:32.939Z</time></trkpt><trkpt lat="43.2226221" lon="11.9044009"><ele>300.5</ele><time>2026-05-01T14:54:33.939Z</time></trkpt><trkpt lat="43.2227803" lon="11.9040037"><ele>300.0</ele><time>2026-05-01T14:54:34.939Z</time></trkpt><trkpt lat="43.2229538" lon="11.9036169"><ele>300.0</ele><time>2026-05-01T14:54:35.939Z</time></trkpt><trkpt lat="43.223132" lon="11.9032505"><ele>300.0</ele><time>2026-05-01T14:54:36.939Z</time></trkpt><trkpt lat="43.2233195" lon="11.9028837"><ele>302.0</ele><time>2026-05-01T14:54:37.939Z</time></trkpt><trkpt lat="43.2235174" lon="11.9025298"><ele>304.0</ele><time>2026-05-01T14:54:38.939Z</time></trkpt><trkpt lat="43.2237231" lon="11.9021843"><ele>304.0</ele><time>2026-05-01T14:54:39.939Z</time></trkpt><trkpt lat="43.2239359" lon="11.9018546"><ele>304.0</ele><time>2026-05-01T14:54:40.939Z</time></trkpt><trkpt lat="43.224154" lon="11.9015277"><ele>305.0</ele><time>2026-05-01T14:54:41.938Z</time></trkpt><trkpt lat="43.2243728" lon="11.9011985"><ele>306.0</ele><time>2026-05-01T14:54:42.939Z</time></trkpt><trkpt lat="43.2245886" lon="11.9008606"><ele>306.0</ele><time>2026-05-01T14:54:43.939Z</time></trkpt><trkpt lat="43.2247982" lon="11.9005112"><ele>306.0</ele><time>2026-05-01T14:54:44.939Z</time></trkpt><trkpt lat="43.2249984" lon="11.900151"><ele>301.5</ele><time>2026-05-01T14:54:45.939Z</time></trkpt><trkpt lat="43.2251891" lon="11.8997864"><ele>297.0</ele><time>2026-05-01T14:54:46.939Z</time></trkpt><trkpt lat="43.225371" lon="11.8994044"><ele>293.5</ele><time>2026-05-01T14:54:47.939Z</time></trkpt><trkpt lat="43.2255444" lon="11.8990115"><ele>290.0</ele><time>2026-05-01T14:54:48.939Z</time></trkpt><trkpt lat="43.2257064" lon="11.898609"><ele>290.0</ele><time>2026-05-01T14:54:49.939Z</time></trkpt><trkpt lat="43.2258569" lon="11.8981909"><ele>290.0</ele><time>2026-05-01T14:54:50.939Z</time></trkpt><trkpt lat="43.2259902" lon="11.8977645"><ele>290.5</ele><time>2026-05-01T14:54:51.939Z</time></trkpt><trkpt lat="43.2261157" lon="11.8973274"><ele>291.0</ele><time>2026-05-01T14:54:52.938Z</time></trkpt><trkpt lat="43.2262385" lon="11.8968955"><ele>291.5</ele><time>2026-05-01T14:54:53.939Z</time></trkpt><trkpt lat="43.2263512" lon="11.8964536"><ele>292.0</ele><time>2026-05-01T14:54:54.939Z</time></trkpt><trkpt lat="43.2264495" lon="11.8960089"><ele>297.0</ele><time>2026-05-01T14:54:55.939Z</time></trkpt><trkpt lat="43.2265447" lon="11.8955562"><ele>302.0</ele><time>2026-05-01T14:54:56.938Z</time></trkpt><trkpt lat="43.2266439" lon="11.8951098"><ele>300.5</ele><time>2026-05-01T14:54:57.939Z</time></trkpt><trkpt lat="43.2267513" lon="11.8946694"><ele>299.0</ele><time>2026-05-01T14:54:58.939Z</time></trkpt><trkpt lat="43.2268667" lon="11.894232"><ele>297.0</ele><time>2026-05-01T14:54:59.939Z</time></trkpt><trkpt lat="43.2269854" lon="11.8937973"><ele>295.0</ele><time>2026-05-01T14:55:00.939Z</time></trkpt><trkpt lat="43.2271102" lon="11.8933635"><ele>295.0</ele><time>2026-05-01T14:55:01.939Z</time></trkpt><trkpt lat="43.2272431" lon="11.8929313"><ele>295.0</ele><time>2026-05-01T14:55:02.939Z</time></trkpt><trkpt lat="43.2273821" lon="11.8925043"><ele>295.5</ele><time>2026-05-01T14:55:03.939Z</time></trkpt><trkpt lat="43.2275251" lon="11.8920782"><ele>296.0</ele><time>2026-05-01T14:55:04.939Z</time></trkpt><trkpt lat="43.2276734" lon="11.8916546"><ele>294.5</ele><time>2026-05-01T14:55:05.939Z</time></trkpt><trkpt lat="43.2278269" lon="11.8912407"><ele>293.0</ele><time>2026-05-01T14:55:06.939Z</time></trkpt><trkpt lat="43.2279873" lon="11.8908335"><ele>292.0</ele><time>2026-05-01T14:55:07.938Z</time></trkpt><trkpt lat="43.2281564" lon="11.8904364"><ele>291.0</ele><time>2026-05-01T14:55:08.938Z</time></trkpt><trkpt lat="43.2283257" lon="11.8900416"><ele>291.0</ele><time>2026-05-01T14:55:09.939Z</time></trkpt><trkpt lat="43.2284949" lon="11.889647"><ele>291.0</ele><time>2026-05-01T14:55:10.939Z</time></trkpt><trkpt lat="43.2286602" lon="11.8892447"><ele>290.5</ele><time>2026-05-01T14:55:11.938Z</time></trkpt><trkpt lat="43.2288104" lon="11.8888379"><ele>290.0</ele><time>2026-05-01T14:55:12.938Z</time></trkpt><trkpt lat="43.228949" lon="11.8884238"><ele>294.0</ele><time>2026-05-01T14:55:13.939Z</time></trkpt><trkpt lat="43.2290803" lon="11.8880085"><ele>298.0</ele><time>2026-05-01T14:55:14.938Z</time></trkpt><trkpt lat="43.2291959" lon="11.8875792"><ele>298.0</ele><time>2026-05-01T14:55:15.939Z</time></trkpt><trkpt lat="43.2293004" lon="11.8871406"><ele>298.0</ele><time>2026-05-01T14:55:16.939Z</time></trkpt><trkpt lat="43.2293883" lon="11.8866966"><ele>297.5</ele><time>2026-05-01T14:55:17.938Z</time></trkpt><trkpt lat="43.229468" lon="11.8862471"><ele>297.0</ele><time>2026-05-01T14:55:18.938Z</time></trkpt><trkpt lat="43.2295372" lon="11.8857858"><ele>298.0</ele><time>2026-05-01T14:55:19.939Z</time></trkpt><trkpt lat="43.2295948" lon="11.8853204"><ele>299.0</ele><time>2026-05-01T14:55:20.939Z</time></trkpt><trkpt lat="43.2296388" lon="11.8848504"><ele>300.5</ele><time>2026-05-01T14:55:21.939Z</time></trkpt><trkpt lat="43.2296706" lon="11.8843802"><ele>302.0</ele><time>2026-05-01T14:55:22.939Z</time></trkpt><trkpt lat="43.2296914" lon="11.8839062"><ele>302.0</ele><time>2026-05-01T14:55:23.939Z</time></trkpt><trkpt lat="43.2296906" lon="11.8834338"><ele>302.0</ele><time>2026-05-01T14:55:24.939Z</time></trkpt><trkpt lat="43.2296762" lon="11.8829655"><ele>301.0</ele><time>2026-05-01T14:55:25.938Z</time></trkpt><trkpt lat="43.2296555" lon="11.8824941"><ele>300.0</ele><time>2026-05-01T14:55:26.939Z</time></trkpt><trkpt lat="43.2296258" lon="11.8820334"><ele>297.5</ele><time>2026-05-01T14:55:27.938Z</time></trkpt><trkpt lat="43.2295922" lon="11.8815728"><ele>295.0</ele><time>2026-05-01T14:55:28.939Z</time></trkpt><trkpt lat="43.2295638" lon="11.8811158"><ele>292.0</ele><time>2026-05-01T14:55:29.939Z</time></trkpt><trkpt lat="43.2295509" lon="11.8806618"><ele>289.0</ele><time>2026-05-01T14:55:30.939Z</time></trkpt><trkpt lat="43.2295431" lon="11.8802089"><ele>289.5</ele><time>2026-05-01T14:55:31.939Z</time></trkpt><trkpt lat="43.2295455" lon="11.8797605"><ele>290.0</ele><time>2026-05-01T14:55:32.939Z</time></trkpt><trkpt lat="43.2295484" lon="11.8793193"><ele>289.5</ele><time>2026-05-01T14:55:33.939Z</time></trkpt><trkpt lat="43.2295553" lon="11.8788779"><ele>289.0</ele><time>2026-05-01T14:55:34.939Z</time></trkpt><trkpt lat="43.2295708" lon="11.8784435"><ele>287.5</ele><time>2026-05-01T14:55:35.939Z</time></trkpt><trkpt lat="43.2295903" lon="11.8780226"><ele>286.0</ele><time>2026-05-01T14:55:36.938Z</time></trkpt><trkpt lat="43.22961" lon="11.8776243"><ele>283.5</ele><time>2026-05-01T14:55:37.939Z</time></trkpt><trkpt lat="43.2296359" lon="11.8772489"><ele>281.0</ele><time>2026-05-01T14:55:38.938Z</time></trkpt><trkpt lat="43.2296672" lon="11.8768872"><ele>277.5</ele><time>2026-05-01T14:55:39.939Z</time></trkpt><trkpt lat="43.2296994" lon="11.8765199"><ele>274.0</ele><time>2026-05-01T14:55:40.939Z</time></trkpt><trkpt lat="43.2297374" lon="11.8761416"><ele>273.0</ele><time>2026-05-01T14:55:41.938Z</time></trkpt><trkpt lat="43.2297736" lon="11.8757651"><ele>272.0</ele><time>2026-05-01T14:55:42.939Z</time></trkpt><trkpt lat="43.2298191" lon="11.8753704"><ele>271.0</ele><time>2026-05-01T14:55:43.938Z</time></trkpt><trkpt lat="43.2298659" lon="11.8749748"><ele>270.0</ele><time>2026-05-01T14:55:44.939Z</time></trkpt><trkpt lat="43.2299071" lon="11.8745732"><ele>269.0</ele><time>2026-05-01T14:55:45.939Z</time></trkpt><trkpt lat="43.2299486" lon="11.8741649"><ele>268.0</ele><time>2026-05-01T14:55:46.939Z</time></trkpt><trkpt lat="43.2299888" lon="11.8737612"><ele>267.5</ele><time>2026-05-01T14:55:47.938Z</time></trkpt><trkpt lat="43.2300283" lon="11.8733535"><ele>267.0</ele><time>2026-05-01T14:55:48.938Z</time></trkpt><trkpt lat="43.2300719" lon="11.8729488"><ele>266.5</ele><time>2026-05-01T14:55:49.939Z</time></trkpt><trkpt lat="43.2301179" lon="11.8725502"><ele>266.0</ele><time>2026-05-01T14:55:50.938Z</time></trkpt><trkpt lat="43.2301615" lon="11.8721535"><ele>266.0</ele><time>2026-05-01T14:55:51.938Z</time></trkpt><trkpt lat="43.2302026" lon="11.8717608"><ele>266.0</ele><time>2026-05-01T14:55:52.939Z</time></trkpt><trkpt lat="43.230241" lon="11.871373"><ele>266.0</ele><time>2026-05-01T14:55:53.939Z</time></trkpt><trkpt lat="43.2302799" lon="11.8709838"><ele>266.0</ele><time>2026-05-01T14:55:54.939Z</time></trkpt><trkpt lat="43.2303199" lon="11.8705939"><ele>266.5</ele><time>2026-05-01T14:55:55.939Z</time></trkpt><trkpt lat="43.2303604" lon="11.8702033"><ele>267.0</ele><time>2026-05-01T14:55:56.939Z</time></trkpt><trkpt lat="43.2304028" lon="11.8698064"><ele>267.5</ele><time>2026-05-01T14:55:57.939Z</time></trkpt><trkpt lat="43.2304431" lon="11.8694059"><ele>268.0</ele><time>2026-05-01T14:55:58.939Z</time></trkpt><trkpt lat="43.2304825" lon="11.8690051"><ele>266.5</ele><time>2026-05-01T14:55:59.939Z</time></trkpt><trkpt lat="43.2305246" lon="11.8686027"><ele>265.0</ele><time>2026-05-01T14:56:00.938Z</time></trkpt><trkpt lat="43.2305668" lon="11.8682019"><ele>265.0</ele><time>2026-05-01T14:56:01.939Z</time></trkpt><trkpt lat="43.2306119" lon="11.8677924"><ele>265.0</ele><time>2026-05-01T14:56:02.939Z</time></trkpt><trkpt lat="43.2306573" lon="11.8673866"><ele>264.0</ele><time>2026-05-01T14:56:03.939Z</time></trkpt><trkpt lat="43.2306942" lon="11.8669827"><ele>263.0</ele><time>2026-05-01T14:56:04.939Z</time></trkpt><trkpt lat="43.2307298" lon="11.8665788"><ele>263.0</ele><time>2026-05-01T14:56:05.938Z</time></trkpt><trkpt lat="43.2307672" lon="11.8661851"><ele>263.0</ele><time>2026-05-01T14:56:06.939Z</time></trkpt><trkpt lat="43.2307979" lon="11.8657897"><ele>264.0</ele><time>2026-05-01T14:56:07.939Z</time></trkpt><trkpt lat="43.2308143" lon="11.8653961"><ele>265.0</ele><time>2026-05-01T14:56:08.939Z</time></trkpt><trkpt lat="43.2308236" lon="11.8650071"><ele>265.0</ele><time>2026-05-01T14:56:09.938Z</time></trkpt><trkpt lat="43.230833" lon="11.8646197"><ele>265.0</ele><time>2026-05-01T14:56:10.938Z</time></trkpt><trkpt lat="43.2308376" lon="11.8642308"><ele>265.0</ele><time>2026-05-01T14:56:11.939Z</time></trkpt><trkpt lat="43.230839" lon="11.8638358"><ele>265.0</ele><time>2026-05-01T14:56:12.938Z</time></trkpt><trkpt lat="43.2308312" lon="11.8634336"><ele>265.0</ele><time>2026-05-01T14:56:13.939Z</time></trkpt><trkpt lat="43.230819" lon="11.863036"><ele>265.0</ele><time>2026-05-01T14:56:14.939Z</time></trkpt><trkpt lat="43.2308137" lon="11.8626364"><ele>264.0</ele><time>2026-05-01T14:56:15.939Z</time></trkpt><trkpt lat="43.2308086" lon="11.862238"><ele>263.0</ele><time>2026-05-01T14:56:16.939Z</time></trkpt><trkpt lat="43.2308039" lon="11.8618434"><ele>261.0</ele><time>2026-05-01T14:56:17.938Z</time></trkpt><trkpt lat="43.2307998" lon="11.8614482"><ele>259.0</ele><time>2026-05-01T14:56:18.939Z</time></trkpt><trkpt lat="43.2307967" lon="11.8610557"><ele>259.0</ele><time>2026-05-01T14:56:19.939Z</time></trkpt><trkpt lat="43.2307941" lon="11.8606615"><ele>259.0</ele><time>2026-05-01T14:56:20.939Z</time></trkpt><trkpt lat="43.230791" lon="11.8602626"><ele>259.0</ele><time>2026-05-01T14:56:21.939Z</time></trkpt><trkpt lat="43.2307877" lon="11.8598622"><ele>259.0</ele><time>2026-05-01T14:56:22.939Z</time></trkpt><trkpt lat="43.2307797" lon="11.8594592"><ele>258.0</ele><time>2026-05-01T14:56:23.939Z</time></trkpt><trkpt lat="43.2307737" lon="11.8590527"><ele>257.0</ele><time>2026-05-01T14:56:24.939Z</time></trkpt><trkpt lat="43.2307702" lon="11.8586445"><ele>258.5</ele><time>2026-05-01T14:56:25.938Z</time></trkpt><trkpt lat="43.2307606" lon="11.8582386"><ele>260.0</ele><time>2026-05-01T14:56:26.938Z</time></trkpt><trkpt lat="43.2307568" lon="11.8578293"><ele>262.0</ele><time>2026-05-01T14:56:27.938Z</time></trkpt><trkpt lat="43.2307558" lon="11.8574186"><ele>264.0</ele><time>2026-05-01T14:56:28.938Z</time></trkpt><trkpt lat="43.2307519" lon="11.8570139"><ele>266.0</ele><time>2026-05-01T14:56:29.939Z</time></trkpt><trkpt lat="43.2307525" lon="11.8566129"><ele>268.0</ele><time>2026-05-01T14:56:30.939Z</time></trkpt><trkpt lat="43.2307635" lon="11.8562063"><ele>269.5</ele><time>2026-05-01T14:56:31.939Z</time></trkpt><trkpt lat="43.2307947" lon="11.8558015"><ele>271.0</ele><time>2026-05-01T14:56:32.939Z</time></trkpt><trkpt lat="43.2308492" lon="11.8553937"><ele>270.5</ele><time>2026-05-01T14:56:33.939Z</time></trkpt><trkpt lat="43.230934" lon="11.8550002"><ele>270.0</ele><time>2026-05-01T14:56:34.939Z</time></trkpt><trkpt lat="43.2310339" lon="11.854603"><ele>268.0</ele><time>2026-05-01T14:56:35.939Z</time></trkpt><trkpt lat="43.2311536" lon="11.8542213"><ele>266.0</ele><time>2026-05-01T14:56:36.938Z</time></trkpt><trkpt lat="43.2312939" lon="11.8538411"><ele>266.0</ele><time>2026-05-01T14:56:37.939Z</time></trkpt><trkpt lat="43.2314569" lon="11.8534736"><ele>266.0</ele><time>2026-05-01T14:56:38.939Z</time></trkpt><trkpt lat="43.2316424" lon="11.8531257"><ele>266.0</ele><time>2026-05-01T14:56:39.939Z</time></trkpt><trkpt lat="43.2318439" lon="11.8528002"><ele>266.0</ele><time>2026-05-01T14:56:40.939Z</time></trkpt><trkpt lat="43.2320517" lon="11.8524842"><ele>266.0</ele><time>2026-05-01T14:56:41.939Z</time></trkpt><trkpt lat="43.232262" lon="11.852163"><ele>266.0</ele><time>2026-05-01T14:56:42.939Z</time></trkpt><trkpt lat="43.2324694" lon="11.8518342"><ele>268.0</ele><time>2026-05-01T14:56:43.938Z</time></trkpt><trkpt lat="43.2326685" lon="11.8515079"><ele>270.0</ele><time>2026-05-01T14:56:44.939Z</time></trkpt><trkpt lat="43.2328584" lon="11.8511699"><ele>270.0</ele><time>2026-05-01T14:56:45.939Z</time></trkpt><trkpt lat="43.2330361" lon="11.850818"><ele>270.0</ele><time>2026-05-01T14:56:46.939Z</time></trkpt><trkpt lat="43.2331867" lon="11.8504413"><ele>270.5</ele><time>2026-05-01T14:56:47.939Z</time></trkpt><trkpt lat="43.2333135" lon="11.8500603"><ele>271.0</ele><time>2026-05-01T14:56:48.939Z</time></trkpt><trkpt lat="43.2334167" lon="11.8496559"><ele>272.0</ele><time>2026-05-01T14:56:49.938Z</time></trkpt><trkpt lat="43.2335058" lon="11.8492372"><ele>273.0</ele><time>2026-05-01T14:56:50.939Z</time></trkpt><trkpt lat="43.2335734" lon="11.8488167"><ele>274.0</ele><time>2026-05-01T14:56:51.939Z</time></trkpt><trkpt lat="43.233612" lon="11.8483921"><ele>275.0</ele><time>2026-05-01T14:56:52.938Z</time></trkpt><trkpt lat="43.2336302" lon="11.8479641"><ele>275.0</ele><time>2026-05-01T14:56:53.938Z</time></trkpt><trkpt lat="43.2336221" lon="11.8475185"><ele>275.0</ele><time>2026-05-01T14:56:54.939Z</time></trkpt><trkpt lat="43.2335924" lon="11.8470793"><ele>272.0</ele><time>2026-05-01T14:56:55.938Z</time></trkpt><trkpt lat="43.2335398" lon="11.8466354"><ele>269.0</ele><time>2026-05-01T14:56:56.939Z</time></trkpt><trkpt lat="43.2334709" lon="11.846197"><ele>264.5</ele><time>2026-05-01T14:56:57.938Z</time></trkpt><trkpt lat="43.2333821" lon="11.8457662"><ele>260.0</ele><time>2026-05-01T14:56:58.939Z</time></trkpt><trkpt lat="43.2332597" lon="11.8453563"><ele>261.0</ele><time>2026-05-01T14:56:59.939Z</time></trkpt><trkpt lat="43.2331193" lon="11.8449606"><ele>262.0</ele><time>2026-05-01T14:57:00.939Z</time></trkpt><trkpt lat="43.2329614" lon="11.8445885"><ele>260.0</ele><time>2026-05-01T14:57:01.938Z</time></trkpt><trkpt lat="43.2327908" lon="11.8442344"><ele>258.0</ele><time>2026-05-01T14:57:02.939Z</time></trkpt><trkpt lat="43.2326073" lon="11.8438956"><ele>258.0</ele><time>2026-05-01T14:57:03.939Z</time></trkpt><trkpt lat="43.2324089" lon="11.8435804"><ele>258.0</ele><time>2026-05-01T14:57:04.939Z</time></trkpt><trkpt lat="43.2321974" lon="11.8432819"><ele>259.0</ele><time>2026-05-01T14:57:05.939Z</time></trkpt><trkpt lat="43.2319781" lon="11.8430005"><ele>260.0</ele><time>2026-05-01T14:57:06.939Z</time></trkpt><trkpt lat="43.2317527" lon="11.842738"><ele>261.0</ele><time>2026-05-01T14:57:07.939Z</time></trkpt><trkpt lat="43.2315352" lon="11.8424892"><ele>262.0</ele><time>2026-05-01T14:57:08.939Z</time></trkpt><trkpt lat="43.2313202" lon="11.8422462"><ele>262.0</ele><time>2026-05-01T14:57:09.939Z</time></trkpt><trkpt lat="43.2311101" lon="11.8419981"><ele>262.0</ele><time>2026-05-01T14:57:10.938Z</time></trkpt><trkpt lat="43.230899" lon="11.8417471"><ele>263.0</ele><time>2026-05-01T14:57:11.939Z</time></trkpt><trkpt lat="43.2306794" lon="11.8414841"><ele>264.0</ele><time>2026-05-01T14:57:12.939Z</time></trkpt><trkpt lat="43.2304525" lon="11.8412111"><ele>260.0</ele><time>2026-05-01T14:57:13.939Z</time></trkpt><trkpt lat="43.2302159" lon="11.8409347"><ele>256.0</ele><time>2026-05-01T14:57:14.939Z</time></trkpt><trkpt lat="43.2299731" lon="11.8406479"><ele>254.5</ele><time>2026-05-01T14:57:15.938Z</time></trkpt><trkpt lat="43.2297261" lon="11.8403485"><ele>253.0</ele><time>2026-05-01T14:57:16.938Z</time></trkpt><trkpt lat="43.2294763" lon="11.8400501"><ele>253.0</ele><time>2026-05-01T14:57:17.938Z</time></trkpt><trkpt lat="43.2292254" lon="11.8397493"><ele>253.0</ele><time>2026-05-01T14:57:18.939Z</time></trkpt><trkpt lat="43.228978" lon="11.8394498"><ele>252.5</ele><time>2026-05-01T14:57:19.939Z</time></trkpt><trkpt lat="43.2287308" lon="11.8391519"><ele>252.0</ele><time>2026-05-01T14:57:20.938Z</time></trkpt><trkpt lat="43.2284858" lon="11.8388524"><ele>252.0</ele><time>2026-05-01T14:57:21.938Z</time></trkpt><trkpt lat="43.2282473" lon="11.8385485"><ele>252.0</ele><time>2026-05-01T14:57:22.939Z</time></trkpt><trkpt lat="43.2280184" lon="11.8382362"><ele>251.5</ele><time>2026-05-01T14:57:23.939Z</time></trkpt><trkpt lat="43.2278003" lon="11.8379139"><ele>251.0</ele><time>2026-05-01T14:57:24.939Z</time></trkpt><trkpt lat="43.2275889" lon="11.8375902"><ele>251.0</ele><time>2026-05-01T14:57:25.939Z</time></trkpt><trkpt lat="43.227383" lon="11.837256"><ele>251.0</ele><time>2026-05-01T14:57:26.938Z</time></trkpt><trkpt lat="43.2271833" lon="11.8369176"><ele>249.0</ele><time>2026-05-01T14:57:27.939Z</time></trkpt><trkpt lat="43.2269947" lon="11.8365647"><ele>247.0</ele><time>2026-05-01T14:57:28.939Z</time></trkpt><trkpt lat="43.2268175" lon="11.8362083"><ele>246.5</ele><time>2026-05-01T14:57:29.939Z</time></trkpt><trkpt lat="43.226642" lon="11.8358499"><ele>246.0</ele><time>2026-05-01T14:57:30.939Z</time></trkpt><trkpt lat="43.226479" lon="11.8354839"><ele>245.0</ele><time>2026-05-01T14:57:31.939Z</time></trkpt><trkpt lat="43.2263271" lon="11.8351354"><ele>244.0</ele><time>2026-05-01T14:57:32.939Z</time></trkpt><trkpt lat="43.2261909" lon="11.8348076"><ele>244.0</ele><time>2026-05-01T14:57:33.939Z</time></trkpt><trkpt lat="43.2260732" lon="11.8345021"><ele>244.0</ele><time>2026-05-01T14:57:34.939Z</time></trkpt><trkpt lat="43.2259678" lon="11.8342169"><ele>243.5</ele><time>2026-05-01T14:57:35.939Z</time></trkpt><trkpt lat="43.2258578" lon="11.8339413"><ele>243.0</ele><time>2026-05-01T14:57:36.939Z</time></trkpt><trkpt lat="43.225745" lon="11.8336657"><ele>243.66666666666669</ele><time>2026-05-01T14:57:37.939Z</time></trkpt><trkpt lat="43.2256363" lon="11.8333976"><ele>244.33333333333334</ele><time>2026-05-01T14:57:38.939Z</time></trkpt><trkpt lat="43.2255304" lon="11.8331415"><ele>245.0</ele><time>2026-05-01T14:57:39.938Z</time></trkpt><trkpt lat="43.2254318" lon="11.832897"><ele>245.0</ele><time>2026-05-01T14:57:40.939Z</time></trkpt><trkpt lat="43.2253394" lon="11.8326647"><ele>245.0</ele><time>2026-05-01T14:57:41.939Z</time></trkpt><trkpt lat="43.2252459" lon="11.8324478"><ele>245.0</ele><time>2026-05-01T14:57:42.938Z</time></trkpt><trkpt lat="43.2251554" lon="11.8322326"><ele>246.0</ele><time>2026-05-01T14:57:43.939Z</time></trkpt><trkpt lat="43.2250586" lon="11.8320238"><ele>247.0</ele><time>2026-05-01T14:57:44.938Z</time></trkpt><trkpt lat="43.2249607" lon="11.8318141"><ele>248.0</ele><time>2026-05-01T14:57:45.938Z</time></trkpt><trkpt lat="43.2248709" lon="11.8316078"><ele>248.0</ele><time>2026-05-01T14:57:46.938Z</time></trkpt><trkpt lat="43.2247873" lon="11.8314047"><ele>248.0</ele><time>2026-05-01T14:57:47.939Z</time></trkpt><trkpt lat="43.2247021" lon="11.8311931"><ele>248.0</ele><time>2026-05-01T14:57:48.939Z</time></trkpt><trkpt lat="43.2246127" lon="11.8309796"><ele>248.33333333333334</ele><time>2026-05-01T14:57:49.938Z</time></trkpt><trkpt lat="43.2245189" lon="11.8307631"><ele>248.66666666666669</ele><time>2026-05-01T14:57:50.939Z</time></trkpt><trkpt lat="43.2244269" lon="11.8305409"><ele>249.0</ele><time>2026-05-01T14:57:51.939Z</time></trkpt><trkpt lat="43.2243324" lon="11.8303096"><ele>249.0</ele><time>2026-05-01T14:57:52.939Z</time></trkpt><trkpt lat="43.2242416" lon="11.8300748"><ele>249.0</ele><time>2026-05-01T14:57:53.939Z</time></trkpt><trkpt lat="43.2241508" lon="11.8298352"><ele>249.0</ele><time>2026-05-01T14:57:54.939Z</time></trkpt><trkpt lat="43.2240633" lon="11.8295875"><ele>249.0</ele><time>2026-05-01T14:57:55.939Z</time></trkpt><trkpt lat="43.2239819" lon="11.8293281"><ele>249.0</ele><time>2026-05-01T14:57:56.939Z</time></trkpt><trkpt lat="43.2238976" lon="11.8290686"><ele>249.0</ele><time>2026-05-01T14:57:57.939Z</time></trkpt><trkpt lat="43.2238143" lon="11.8288148"><ele>248.66666666666669</ele><time>2026-05-01T14:57:58.939Z</time></trkpt><trkpt lat="43.223732" lon="11.8285576"><ele>248.33333333333334</ele><time>2026-05-01T14:57:59.939Z</time></trkpt><trkpt lat="43.2236567" lon="11.8283056"><ele>248.0</ele><time>2026-05-01T14:58:00.939Z</time></trkpt><trkpt lat="43.2235889" lon="11.8280679"><ele>248.0</ele><time>2026-05-01T14:58:01.939Z</time></trkpt><trkpt lat="43.2235296" lon="11.8278348"><ele>248.0</ele><time>2026-05-01T14:58:02.938Z</time></trkpt><trkpt lat="43.2234699" lon="11.8276035"><ele>248.0</ele><time>2026-05-01T14:58:03.938Z</time></trkpt><trkpt lat="43.2233991" lon="11.8273711"><ele>248.0</ele><time>2026-05-01T14:58:04.939Z</time></trkpt><trkpt lat="43.2233293" lon="11.8271329"><ele>248.0</ele><time>2026-05-01T14:58:05.939Z</time></trkpt><trkpt lat="43.2232623" lon="11.8268959"><ele>248.0</ele><time>2026-05-01T14:58:06.939Z</time></trkpt><trkpt lat="43.2232007" lon="11.8266479"><ele>247.66666666666669</ele><time>2026-05-01T14:58:07.939Z</time></trkpt><trkpt lat="43.2231459" lon="11.8264143"><ele>247.33333333333331</ele><time>2026-05-01T14:58:08.939Z</time></trkpt><trkpt lat="43.2230934" lon="11.8261934"><ele>247.0</ele><time>2026-05-01T14:58:09.938Z</time></trkpt><trkpt lat="43.2230423" lon="11.8259607"><ele>247.0</ele><time>2026-05-01T14:58:10.939Z</time></trkpt><trkpt lat="43.2229867" lon="11.8257355"><ele>247.0</ele><time>2026-05-01T14:58:11.939Z</time></trkpt><trkpt lat="43.2229326" lon="11.8255106"><ele>247.0</ele><time>2026-05-01T14:58:12.939Z</time></trkpt><trkpt lat="43.2228759" lon="11.8252896"><ele>248.0</ele><time>2026-05-01T14:58:13.939Z</time></trkpt><trkpt lat="43.2228203" lon="11.82507"><ele>249.0</ele><time>2026-05-01T14:58:14.939Z</time></trkpt><trkpt lat="43.2227633" lon="11.8248463"><ele>250.0</ele><time>2026-05-01T14:58:15.939Z</time></trkpt><trkpt lat="43.2227077" lon="11.8246233"><ele>250.0</ele><time>2026-05-01T14:58:16.939Z</time></trkpt><trkpt lat="43.2226547" lon="11.8244042"><ele>250.0</ele><time>2026-05-01T14:58:17.939Z</time></trkpt><trkpt lat="43.2226013" lon="11.8241871"><ele>250.0</ele><time>2026-05-01T14:58:18.939Z</time></trkpt><trkpt lat="43.2225481" lon="11.8239798"><ele>249.75</ele><time>2026-05-01T14:58:19.939Z</time></trkpt><trkpt lat="43.2224989" lon="11.8237854"><ele>249.5</ele><time>2026-05-01T14:58:20.938Z</time></trkpt><trkpt lat="43.2224518" lon="11.8235958"><ele>249.25</ele><time>2026-05-01T14:58:21.938Z</time></trkpt><trkpt lat="43.2224026" lon="11.8234081"><ele>249.0</ele><time>2026-05-01T14:58:22.938Z</time></trkpt><trkpt lat="43.2223502" lon="11.8232163"><ele>248.33333333333331</ele><time>2026-05-01T14:58:23.939Z</time></trkpt><trkpt lat="43.2223022" lon="11.8230172"><ele>247.66666666666666</ele><time>2026-05-01T14:58:24.938Z</time></trkpt><trkpt lat="43.2222485" lon="11.8228141"><ele>247.0</ele><time>2026-05-01T14:58:25.938Z</time></trkpt><trkpt lat="43.2221975" lon="11.8226083"><ele>247.0</ele><time>2026-05-01T14:58:26.938Z</time></trkpt><trkpt lat="43.2221453" lon="11.8223981"><ele>247.0</ele><time>2026-05-01T14:58:27.938Z</time></trkpt><trkpt lat="43.2220907" lon="11.8221849"><ele>247.0</ele><time>2026-05-01T14:58:28.938Z</time></trkpt><trkpt lat="43.2220379" lon="11.8219745"><ele>247.0</ele><time>2026-05-01T14:58:29.938Z</time></trkpt><trkpt lat="43.2219841" lon="11.8217633"><ele>247.0</ele><time>2026-05-01T14:58:30.939Z</time></trkpt><trkpt lat="43.2219318" lon="11.8215494"><ele>247.0</ele><time>2026-05-01T14:58:31.939Z</time></trkpt><trkpt lat="43.2218755" lon="11.8213364"><ele>247.0</ele><time>2026-05-01T14:58:32.939Z</time></trkpt><trkpt lat="43.2218241" lon="11.8211192"><ele>247.0</ele><time>2026-05-01T14:58:33.939Z</time></trkpt><trkpt lat="43.2217695" lon="11.8209028"><ele>247.0</ele><time>2026-05-01T14:58:34.939Z</time></trkpt><trkpt lat="43.2217155" lon="11.8206891"><ele>247.0</ele><time>2026-05-01T14:58:35.939Z</time></trkpt><trkpt lat="43.2216626" lon="11.8204727"><ele>247.0</ele><time>2026-05-01T14:58:36.939Z</time></trkpt><trkpt lat="43.2216093" lon="11.8202574"><ele>247.0</ele><time>2026-05-01T14:58:37.939Z</time></trkpt><trkpt lat="43.2215543" lon="11.8200447"><ele>247.0</ele><time>2026-05-01T14:58:38.939Z</time></trkpt><trkpt lat="43.2215027" lon="11.8198361"><ele>247.0</ele><time>2026-05-01T14:58:39.939Z</time></trkpt><trkpt lat="43.2214539" lon="11.8196331"><ele>247.0</ele><time>2026-05-01T14:58:40.939Z</time></trkpt><trkpt lat="43.2214105" lon="11.8194453"><ele>247.66666666666666</ele><time>2026-05-01T14:58:41.939Z</time></trkpt><trkpt lat="43.2213636" lon="11.8192586"><ele>248.33333333333331</ele><time>2026-05-01T14:58:42.938Z</time></trkpt><trkpt lat="43.221314" lon="11.8190656"><ele>249.0</ele><time>2026-05-01T14:58:43.938Z</time></trkpt><trkpt lat="43.2212644" lon="11.8188601"><ele>249.0</ele><time>2026-05-01T14:58:44.939Z</time></trkpt><trkpt lat="43.2212127" lon="11.8186478"><ele>249.0</ele><time>2026-05-01T14:58:45.939Z</time></trkpt><trkpt lat="43.2211571" lon="11.8184349"><ele>249.0</ele><time>2026-05-01T14:58:46.938Z</time></trkpt><trkpt lat="43.2211029" lon="11.8182195"><ele>249.0</ele><time>2026-05-01T14:58:47.939Z</time></trkpt><trkpt lat="43.2210499" lon="11.8180079"><ele>249.0</ele><time>2026-05-01T14:58:48.939Z</time></trkpt><trkpt lat="43.2209977" lon="11.8178059"><ele>249.0</ele><time>2026-05-01T14:58:49.939Z</time></trkpt><trkpt lat="43.2209459" lon="11.8176118"><ele>249.33333333333331</ele><time>2026-05-01T14:58:50.938Z</time></trkpt><trkpt lat="43.2208909" lon="11.8174112"><ele>249.66666666666666</ele><time>2026-05-01T14:58:51.938Z</time></trkpt><trkpt lat="43.2208369" lon="11.817208"><ele>250.0</ele><time>2026-05-01T14:58:52.939Z</time></trkpt><trkpt lat="43.2207807" lon="11.8170062"><ele>249.66666666666666</ele><time>2026-05-01T14:58:53.939Z</time></trkpt><trkpt lat="43.2207237" lon="11.8168028"><ele>249.33333333333331</ele><time>2026-05-01T14:58:54.939Z</time></trkpt><trkpt lat="43.2206645" lon="11.8166051"><ele>249.0</ele><time>2026-05-01T14:58:55.939Z</time></trkpt><trkpt lat="43.2206032" lon="11.8164064"><ele>249.0</ele><time>2026-05-01T14:58:56.939Z</time></trkpt><trkpt lat="43.2205423" lon="11.81621"><ele>249.0</ele><time>2026-05-01T14:58:57.939Z</time></trkpt><trkpt lat="43.2204783" lon="11.8160178"><ele>249.0</ele><time>2026-05-01T14:58:58.939Z</time></trkpt><trkpt lat="43.2204148" lon="11.8158242"><ele>248.66666666666669</ele><time>2026-05-01T14:58:59.938Z</time></trkpt><trkpt lat="43.2203494" lon="11.8156306"><ele>248.33333333333334</ele><time>2026-05-01T14:59:00.939Z</time></trkpt><trkpt lat="43.2202788" lon="11.8154377"><ele>248.0</ele><time>2026-05-01T14:59:01.939Z</time></trkpt><trkpt lat="43.2202057" lon="11.8152388"><ele>248.66666666666669</ele><time>2026-05-01T14:59:02.939Z</time></trkpt><trkpt lat="43.2201303" lon="11.8150383"><ele>249.33333333333331</ele><time>2026-05-01T14:59:03.939Z</time></trkpt><trkpt lat="43.2200574" lon="11.8148403"><ele>250.0</ele><time>2026-05-01T14:59:04.939Z</time></trkpt><trkpt lat="43.2199843" lon="11.8146399"><ele>250.0</ele><time>2026-05-01T14:59:05.939Z</time></trkpt><trkpt lat="43.2199068" lon="11.8144463"><ele>250.0</ele><time>2026-05-01T14:59:06.939Z</time></trkpt><trkpt lat="43.2198359" lon="11.8142617"><ele>250.0</ele><time>2026-05-01T14:59:07.939Z</time></trkpt><trkpt lat="43.2197666" lon="11.8140934"><ele>249.5</ele><time>2026-05-01T14:59:08.939Z</time></trkpt><trkpt lat="43.2196982" lon="11.8139403"><ele>249.0</ele><time>2026-05-01T14:59:09.939Z</time></trkpt><trkpt lat="43.2196422" lon="11.8137968"><ele>248.5</ele><time>2026-05-01T14:59:10.938Z</time></trkpt><trkpt lat="43.2195937" lon="11.8136612"><ele>248.0</ele><time>2026-05-01T14:59:11.939Z</time></trkpt><trkpt lat="43.2195519" lon="11.8135221"><ele>248.25</ele><time>2026-05-01T14:59:12.938Z</time></trkpt><trkpt lat="43.2195148" lon="11.8133844"><ele>248.5</ele><time>2026-05-01T14:59:13.939Z</time></trkpt><trkpt lat="43.2194749" lon="11.8132403"><ele>248.75</ele><time>2026-05-01T14:59:14.938Z</time></trkpt><trkpt lat="43.2194272" lon="11.8130911"><ele>249.0</ele><time>2026-05-01T14:59:15.939Z</time></trkpt><trkpt lat="43.2193719" lon="11.8129426"><ele>249.0</ele><time>2026-05-01T14:59:16.939Z</time></trkpt><trkpt lat="43.2193066" lon="11.8127895"><ele>249.0</ele><time>2026-05-01T14:59:17.939Z</time></trkpt><trkpt lat="43.2192355" lon="11.812637"><ele>249.0</ele><time>2026-05-01T14:59:18.939Z</time></trkpt><trkpt lat="43.2191718" lon="11.8124876"><ele>249.0</ele><time>2026-05-01T14:59:19.939Z</time></trkpt><trkpt lat="43.2191183" lon="11.8123394"><ele>249.0</ele><time>2026-05-01T14:59:20.939Z</time></trkpt><trkpt lat="43.2190722" lon="11.8121866"><ele>248.99999999999997</ele><time>2026-05-01T14:59:21.939Z</time></trkpt><trkpt lat="43.2190556" lon="11.8120396"><ele>248.99999999999997</ele><time>2026-05-01T14:59:22.938Z</time></trkpt><trkpt lat="43.2190624" lon="11.8118949"><ele>249.0</ele><time>2026-05-01T14:59:23.939Z</time></trkpt><trkpt lat="43.2191011" lon="11.8117591"><ele>249.0</ele><time>2026-05-01T14:59:24.939Z</time></trkpt><trkpt lat="43.2191716" lon="11.8116352"><ele>249.0</ele><time>2026-05-01T14:59:25.939Z</time></trkpt><trkpt lat="43.2192573" lon="11.8115379"><ele>248.99999999999997</ele><time>2026-05-01T14:59:26.939Z</time></trkpt><trkpt lat="43.219352" lon="11.8114564"><ele>248.99999999999997</ele><time>2026-05-01T14:59:27.939Z</time></trkpt><trkpt lat="43.2194484" lon="11.8113829"><ele>249.0</ele><time>2026-05-01T14:59:28.938Z</time></trkpt><trkpt lat="43.2195345" lon="11.8113118"><ele>249.0</ele><time>2026-05-01T14:59:29.938Z</time></trkpt><trkpt lat="43.2196163" lon="11.8112366"><ele>249.0</ele><time>2026-05-01T14:59:30.938Z</time></trkpt><trkpt lat="43.2196999" lon="11.8111637"><ele>249.0</ele><time>2026-05-01T14:59:31.939Z</time></trkpt><trkpt lat="43.2197813" lon="11.8110983"><ele>249.0</ele><time>2026-05-01T14:59:32.939Z</time></trkpt><trkpt lat="43.2198569" lon="11.8110336"><ele>249.0</ele><time>2026-05-01T14:59:33.938Z</time></trkpt><trkpt lat="43.2199268" lon="11.8109701"><ele>249.0</ele><time>2026-05-01T14:59:34.939Z</time></trkpt><trkpt lat="43.2199826" lon="11.8109155"><ele>249.0</ele><time>2026-05-01T14:59:35.939Z</time></trkpt><trkpt lat="43.2200405" lon="11.8108617"><ele>249.2</ele><time>2026-05-01T14:59:37.938Z</time></trkpt><trkpt lat="43.2200971" lon="11.8107626"><ele>249.39999999999998</ele><time>2026-05-01T14:59:46.938Z</time></trkpt><trkpt lat="43.2201755" lon="11.8106895"><ele>249.6</ele><time>2026-05-01T14:59:48.938Z</time></trkpt><trkpt lat="43.2202631" lon="11.8106386"><ele>249.8</ele><time>2026-05-01T14:59:50.938Z</time></trkpt><trkpt lat="43.2203718" lon="11.8105819"><ele>250.0</ele><time>2026-05-01T14:59:52.939Z</time></trkpt><trkpt lat="43.2204249" lon="11.810521"><ele>249.99999999999997</ele><time>2026-05-01T14:59:53.939Z</time></trkpt><trkpt lat="43.2204754" lon="11.8104263"><ele>250.0</ele><time>2026-05-01T14:59:54.938Z</time></trkpt><trkpt lat="43.2204969" lon="11.8103194"><ele>250.0</ele><time>2026-05-01T14:59:55.939Z</time></trkpt><trkpt lat="43.2204938" lon="11.8102017"><ele>250.0</ele><time>2026-05-01T14:59:56.939Z</time></trkpt><trkpt lat="43.220467" lon="11.8101024"><ele>249.99999999999997</ele><time>2026-05-01T14:59:57.938Z</time></trkpt><trkpt lat="43.2204172" lon="11.8100138"><ele>250.0</ele><time>2026-05-01T14:59:58.939Z</time></trkpt><trkpt lat="43.2203433" lon="11.8099436"><ele>250.16666666666666</ele><time>2026-05-01T14:59:59.939Z</time></trkpt><trkpt lat="43.2202558" lon="11.8099116"><ele>250.33333333333331</ele><time>2026-05-01T15:00:00.938Z</time></trkpt><trkpt lat="43.2201603" lon="11.809936"><ele>250.5</ele><time>2026-05-01T15:00:01.939Z</time></trkpt><trkpt lat="43.2200697" lon="11.8099885"><ele>250.66666666666669</ele><time>2026-05-01T15:00:02.939Z</time></trkpt><trkpt lat="43.2200037" lon="11.8100521"><ele>250.83333333333334</ele><time>2026-05-01T15:00:03.939Z</time></trkpt><trkpt lat="43.2199449" lon="11.8101036"><ele>251.0</ele><time>2026-05-01T15:00:04.939Z</time></trkpt><trkpt lat="43.2198822" lon="11.81014"><ele>250.83333333333334</ele><time>2026-05-01T15:00:05.939Z</time></trkpt><trkpt lat="43.2198186" lon="11.810167"><ele>250.66666666666669</ele><time>2026-05-01T15:00:06.938Z</time></trkpt><trkpt lat="43.2197543" lon="11.8101903"><ele>250.5</ele><time>2026-05-01T15:00:07.939Z</time></trkpt><trkpt lat="43.2196869" lon="11.8102039"><ele>250.33333333333331</ele><time>2026-05-01T15:00:08.939Z</time></trkpt><trkpt lat="43.2196104" lon="11.8102011"><ele>250.16666666666666</ele><time>2026-05-01T15:00:09.938Z</time></trkpt><trkpt lat="43.2195232" lon="11.8101892"><ele>250.0</ele><time>2026-05-01T15:00:10.938Z</time></trkpt><trkpt lat="43.2194357" lon="11.8101812"><ele>249.99999999999997</ele><time>2026-05-01T15:00:11.938Z</time></trkpt><trkpt lat="43.219349" lon="11.810179"><ele>250.0</ele><time>2026-05-01T15:00:12.939Z</time></trkpt><trkpt lat="43.2192658" lon="11.8101726"><ele>250.0</ele><time>2026-05-01T15:00:13.938Z</time></trkpt><trkpt lat="43.2191818" lon="11.8101623"><ele>250.0</ele><time>2026-05-01T15:00:14.939Z</time></trkpt><trkpt lat="43.2190916" lon="11.8101561"><ele>249.99999999999997</ele><time>2026-05-01T15:00:15.939Z</time></trkpt><trkpt lat="43.2189999" lon="11.8101535"><ele>250.0</ele><time>2026-05-01T15:00:16.939Z</time></trkpt><trkpt lat="43.2189047" lon="11.810144"><ele>250.6</ele><time>2026-05-01T15:00:17.939Z</time></trkpt><trkpt lat="43.2188101" lon="11.8101352"><ele>251.2</ele><time>2026-05-01T15:00:18.938Z</time></trkpt><trkpt lat="43.2187162" lon="11.8101313"><ele>251.8</ele><time>2026-05-01T15:00:19.939Z</time></trkpt><trkpt lat="43.2186256" lon="11.8101223"><ele>252.4</ele><time>2026-05-01T15:00:20.939Z</time></trkpt><trkpt lat="43.2185302" lon="11.8101073"><ele>253.0</ele><time>2026-05-01T15:00:21.939Z</time></trkpt><trkpt lat="43.218428" lon="11.8100906"><ele>253.0</ele><time>2026-05-01T15:00:22.938Z</time></trkpt><trkpt lat="43.2183161" lon="11.8100611"><ele>253.0</ele><time>2026-05-01T15:00:23.939Z</time></trkpt><trkpt lat="43.2182028" lon="11.8100317"><ele>253.0</ele><time>2026-05-01T15:00:24.939Z</time></trkpt><trkpt lat="43.2180795" lon="11.809997"><ele>253.0</ele><time>2026-05-01T15:00:25.938Z</time></trkpt><trkpt lat="43.2179579" lon="11.8099665"><ele>253.0</ele><time>2026-05-01T15:00:26.939Z</time></trkpt><trkpt lat="43.2178495" lon="11.8099292"><ele>253.0</ele><time>2026-05-01T15:00:27.939Z</time></trkpt><trkpt lat="43.217749" lon="11.8099063"><ele>253.0</ele><time>2026-05-01T15:00:28.939Z</time></trkpt><trkpt lat="43.2176541" lon="11.8098908"><ele>253.0</ele><time>2026-05-01T15:00:29.939Z</time></trkpt><trkpt lat="43.2175594" lon="11.8098905"><ele>253.0</ele><time>2026-05-01T15:00:30.939Z</time></trkpt><trkpt lat="43.2174696" lon="11.8098797"><ele>253.0</ele><time>2026-05-01T15:00:31.938Z</time></trkpt><trkpt lat="43.2174028" lon="11.8098795"><ele>253.0</ele><time>2026-05-01T15:00:32.939Z</time></trkpt><trkpt lat="43.2173121" lon="11.8098885"><ele>253.0</ele><time>2026-05-01T15:00:34.939Z</time></trkpt><trkpt lat="43.2172139" lon="11.8098518"><ele>253.0</ele><time>2026-05-01T15:00:37.938Z</time></trkpt><trkpt lat="43.2171012" lon="11.809741"><ele>253.0</ele><time>2026-05-01T15:00:39.939Z</time></trkpt><trkpt lat="43.2170357" lon="11.8096724"><ele>252.66666666666666</ele><time>2026-05-01T15:00:40.939Z</time></trkpt><trkpt lat="43.2169558" lon="11.8096184"><ele>252.33333333333331</ele><time>2026-05-01T15:00:41.939Z</time></trkpt><trkpt lat="43.2168712" lon="11.8095951"><ele>252.0</ele><time>2026-05-01T15:00:42.939Z</time></trkpt><trkpt lat="43.2167812" lon="11.8096121"><ele>251.66666666666669</ele><time>2026-05-01T15:00:43.939Z</time></trkpt><trkpt lat="43.2167092" lon="11.8096373"><ele>251.33333333333334</ele><time>2026-05-01T15:00:44.939Z</time></trkpt><trkpt lat="43.2166466" lon="11.8096674"><ele>251.0</ele><time>2026-05-01T15:00:45.939Z</time></trkpt><trkpt lat="43.2165849" lon="11.8096915"><ele>250.50000000000003</ele><time>2026-05-01T15:00:46.938Z</time></trkpt><trkpt lat="43.2164621" lon="11.8096951"><ele>250.0</ele><time>2026-05-01T15:00:48.938Z</time></trkpt><trkpt lat="43.216398" lon="11.8096759"><ele>249.5</ele><time>2026-05-01T15:00:49.939Z</time></trkpt><trkpt lat="43.216338" lon="11.8096387"><ele>249.0</ele><time>2026-05-01T15:00:50.939Z</time></trkpt><trkpt lat="43.2162719" lon="11.809598"><ele>248.50000000000003</ele><time>2026-05-01T15:00:51.939Z</time></trkpt><trkpt lat="43.2162" lon="11.8095474"><ele>248.0</ele><time>2026-05-01T15:00:52.938Z</time></trkpt><trkpt lat="43.2161335" lon="11.8095061"><ele>248.00000000000003</ele><time>2026-05-01T15:00:53.938Z</time></trkpt><trkpt lat="43.2160622" lon="11.8094619"><ele>248.0</ele><time>2026-05-01T15:00:54.939Z</time></trkpt><trkpt lat="43.2159888" lon="11.8094189"><ele>248.0</ele><time>2026-05-01T15:00:55.939Z</time></trkpt><trkpt lat="43.2159187" lon="11.8093774"><ele>248.0</ele><time>2026-05-01T15:00:56.938Z</time></trkpt><trkpt lat="43.2158417" lon="11.809329"><ele>248.00000000000003</ele><time>2026-05-01T15:00:57.939Z</time></trkpt><trkpt lat="43.2157574" lon="11.8092846"><ele>248.0</ele><time>2026-05-01T15:00:58.939Z</time></trkpt><trkpt lat="43.2156753" lon="11.809234"><ele>248.8</ele><time>2026-05-01T15:00:59.939Z</time></trkpt><trkpt lat="43.2155835" lon="11.8091798"><ele>249.60000000000002</ele><time>2026-05-01T15:01:00.939Z</time></trkpt><trkpt lat="43.2154983" lon="11.8091155"><ele>250.39999999999998</ele><time>2026-05-01T15:01:01.939Z</time></trkpt><trkpt lat="43.2154113" lon="11.8090541"><ele>251.2</ele><time>2026-05-01T15:01:02.939Z</time></trkpt><trkpt lat="43.2153196" lon="11.8089909"><ele>252.0</ele><time>2026-05-01T15:01:03.938Z</time></trkpt><trkpt lat="43.2152168" lon="11.8089393"><ele>252.0</ele><time>2026-05-01T15:01:04.939Z</time></trkpt><trkpt lat="43.2151082" lon="11.8088705"><ele>252.0</ele><time>2026-05-01T15:01:05.939Z</time></trkpt><trkpt lat="43.215" lon="11.8087942"><ele>252.0</ele><time>2026-05-01T15:01:06.939Z</time></trkpt><trkpt lat="43.2148948" lon="11.808721"><ele>252.0</ele><time>2026-05-01T15:01:07.939Z</time></trkpt><trkpt lat="43.2147895" lon="11.8086554"><ele>251.8</ele><time>2026-05-01T15:01:08.938Z</time></trkpt><trkpt lat="43.214683" lon="11.8085909"><ele>251.6</ele><time>2026-05-01T15:01:09.939Z</time></trkpt><trkpt lat="43.2145883" lon="11.8085269"><ele>251.40000000000003</ele><time>2026-05-01T15:01:10.939Z</time></trkpt><trkpt lat="43.2144934" lon="11.8084611"><ele>251.20000000000002</ele><time>2026-05-01T15:01:11.939Z</time></trkpt><trkpt lat="43.2143978" lon="11.8083898"><ele>251.0</ele><time>2026-05-01T15:01:12.938Z</time></trkpt><trkpt lat="43.2143034" lon="11.8083107"><ele>251.60000000000002</ele><time>2026-05-01T15:01:13.939Z</time></trkpt><trkpt lat="43.2142119" lon="11.8082264"><ele>252.20000000000002</ele><time>2026-05-01T15:01:14.939Z</time></trkpt><trkpt lat="43.2141209" lon="11.8081445"><ele>252.79999999999998</ele><time>2026-05-01T15:01:15.939Z</time></trkpt><trkpt lat="43.2140294" lon="11.8080584"><ele>253.39999999999998</ele><time>2026-05-01T15:01:16.938Z</time></trkpt><trkpt lat="43.2139405" lon="11.8079685"><ele>254.0</ele><time>2026-05-01T15:01:17.939Z</time></trkpt><trkpt lat="43.2138528" lon="11.8078857"><ele>254.0</ele><time>2026-05-01T15:01:18.938Z</time></trkpt><trkpt lat="43.2137679" lon="11.8078061"><ele>253.99999999999997</ele><time>2026-05-01T15:01:19.939Z</time></trkpt><trkpt lat="43.2136857" lon="11.8077317"><ele>253.99999999999997</ele><time>2026-05-01T15:01:20.939Z</time></trkpt><trkpt lat="43.2136131" lon="11.8076617"><ele>254.0</ele><time>2026-05-01T15:01:21.939Z</time></trkpt><trkpt lat="43.2135518" lon="11.8075911"><ele>254.0</ele><time>2026-05-01T15:01:22.939Z</time></trkpt><trkpt lat="43.2134849" lon="11.8075209"><ele>254.6</ele><time>2026-05-01T15:01:23.939Z</time></trkpt><trkpt lat="43.2134201" lon="11.8074457"><ele>255.2</ele><time>2026-05-01T15:01:24.939Z</time></trkpt><trkpt lat="43.2133498" lon="11.8073748"><ele>255.79999999999998</ele><time>2026-05-01T15:01:25.938Z</time></trkpt><trkpt lat="43.2132756" lon="11.8072969"><ele>256.4</ele><time>2026-05-01T15:01:26.939Z</time></trkpt><trkpt lat="43.2132039" lon="11.8072247"><ele>257.0</ele><time>2026-05-01T15:01:27.939Z</time></trkpt><trkpt lat="43.2131208" lon="11.8071453"><ele>257.0</ele><time>2026-05-01T15:01:28.939Z</time></trkpt><trkpt lat="43.2130384" lon="11.8070648"><ele>257.0</ele><time>2026-05-01T15:01:29.939Z</time></trkpt><trkpt lat="43.2129691" lon="11.8069904"><ele>257.0</ele><time>2026-05-01T15:01:30.938Z</time></trkpt><trkpt lat="43.2128933" lon="11.8069143"><ele>257.0</ele><time>2026-05-01T15:01:31.939Z</time></trkpt><trkpt lat="43.2128132" lon="11.80684"><ele>257.0</ele><time>2026-05-01T15:01:32.939Z</time></trkpt><trkpt lat="43.2127332" lon="11.8067546"><ele>257.1666666666667</ele><time>2026-05-01T15:01:33.939Z</time></trkpt><trkpt lat="43.2126546" lon="11.8066713"><ele>257.33333333333337</ele><time>2026-05-01T15:01:34.939Z</time></trkpt><trkpt lat="43.2125822" lon="11.8065968"><ele>257.5</ele><time>2026-05-01T15:01:35.939Z</time></trkpt><trkpt lat="43.2125229" lon="11.8065268"><ele>257.6666666666667</ele><time>2026-05-01T15:01:36.939Z</time></trkpt><trkpt lat="43.2124682" lon="11.8064659"><ele>257.8333333333333</ele><time>2026-05-01T15:01:37.938Z</time></trkpt><trkpt lat="43.2124194" lon="11.8064088"><ele>258.0</ele><time>2026-05-01T15:01:38.939Z</time></trkpt><trkpt lat="43.2123692" lon="11.8063489"><ele>258.0</ele><time>2026-05-01T15:01:39.939Z</time></trkpt><trkpt lat="43.2123255" lon="11.8062794"><ele>258.0</ele><time>2026-05-01T15:01:40.939Z</time></trkpt><trkpt lat="43.2122842" lon="11.8062097"><ele>258.0</ele><time>2026-05-01T15:01:41.939Z</time></trkpt><trkpt lat="43.2122506" lon="11.8061359"><ele>258.0</ele><time>2026-05-01T15:01:42.939Z</time></trkpt><trkpt lat="43.2122092" lon="11.8060131"><ele>258.0</ele><time>2026-05-01T15:01:44.938Z</time></trkpt><trkpt lat="43.212186" lon="11.8058986"><ele>258.0</ele><time>2026-05-01T15:01:46.939Z</time></trkpt><trkpt lat="43.2121685" lon="11.8057631"><ele>258.5</ele><time>2026-05-01T15:01:48.939Z</time></trkpt><trkpt lat="43.2121446" lon="11.8056022"><ele>259.0</ele><time>2026-05-01T15:01:50.939Z</time></trkpt><trkpt lat="43.2121269" lon="11.8054342"><ele>259.5</ele><time>2026-05-01T15:01:52.939Z</time></trkpt><trkpt lat="43.2120585" lon="11.8052723"><ele>260.0</ele><time>2026-05-01T15:01:54.939Z</time></trkpt><trkpt lat="43.2119943" lon="11.8051988"><ele>260.0</ele><time>2026-05-01T15:01:55.939Z</time></trkpt><trkpt lat="43.2119202" lon="11.8051399"><ele>260.0</ele><time>2026-05-01T15:01:56.939Z</time></trkpt><trkpt lat="43.2118321" lon="11.8051264"><ele>260.0</ele><time>2026-05-01T15:01:57.938Z</time></trkpt><trkpt lat="43.2117428" lon="11.8051442"><ele>260.0</ele><time>2026-05-01T15:01:58.939Z</time></trkpt><trkpt lat="43.2116535" lon="11.8051923"><ele>260.0</ele><time>2026-05-01T15:01:59.938Z</time></trkpt><trkpt lat="43.2115776" lon="11.8052541"><ele>260.0</ele><time>2026-05-01T15:02:00.939Z</time></trkpt><trkpt lat="43.2114882" lon="11.8053091"><ele>260.1666666666667</ele><time>2026-05-01T15:02:01.938Z</time></trkpt><trkpt lat="43.2113979" lon="11.8053318"><ele>260.33333333333337</ele><time>2026-05-01T15:02:02.938Z</time></trkpt><trkpt lat="43.211317" lon="11.8053143"><ele>260.5</ele><time>2026-05-01T15:02:03.938Z</time></trkpt><trkpt lat="43.2112484" lon="11.8052645"><ele>260.6666666666667</ele><time>2026-05-01T15:02:04.939Z</time></trkpt><trkpt lat="43.2111771" lon="11.8051995"><ele>260.8333333333333</ele><time>2026-05-01T15:02:05.939Z</time></trkpt><trkpt lat="43.2110967" lon="11.8051153"><ele>261.0</ele><time>2026-05-01T15:02:06.938Z</time></trkpt><trkpt lat="43.2110095" lon="11.8050326"><ele>261.25</ele><time>2026-05-01T15:02:07.939Z</time></trkpt><trkpt lat="43.2109133" lon="11.8049365"><ele>261.5</ele><time>2026-05-01T15:02:08.938Z</time></trkpt><trkpt lat="43.2108077" lon="11.8048331"><ele>261.75</ele><time>2026-05-01T15:02:09.939Z</time></trkpt><trkpt lat="43.2106992" lon="11.804725"><ele>262.0</ele><time>2026-05-01T15:02:10.939Z</time></trkpt><trkpt lat="43.2105849" lon="11.8046175"><ele>262.3333333333333</ele><time>2026-05-01T15:02:11.939Z</time></trkpt><trkpt lat="43.2104644" lon="11.8045076"><ele>262.6666666666667</ele><time>2026-05-01T15:02:12.939Z</time></trkpt><trkpt lat="43.2103424" lon="11.8043859"><ele>263.0</ele><time>2026-05-01T15:02:13.939Z</time></trkpt><trkpt lat="43.2102135" lon="11.8042646"><ele>263.6666666666667</ele><time>2026-05-01T15:02:14.939Z</time></trkpt><trkpt lat="43.2100794" lon="11.8041364"><ele>264.3333333333333</ele><time>2026-05-01T15:02:15.939Z</time></trkpt><trkpt lat="43.2099423" lon="11.8040026"><ele>265.0</ele><time>2026-05-01T15:02:16.939Z</time></trkpt><trkpt lat="43.2098047" lon="11.8038725"><ele>266.66666666666663</ele><time>2026-05-01T15:02:17.939Z</time></trkpt><trkpt lat="43.2096731" lon="11.8037405"><ele>268.3333333333333</ele><time>2026-05-01T15:02:18.938Z</time></trkpt><trkpt lat="43.2095506" lon="11.8036085"><ele>270.0</ele><time>2026-05-01T15:02:19.938Z</time></trkpt><trkpt lat="43.2094342" lon="11.8034903"><ele>271.0</ele><time>2026-05-01T15:02:20.939Z</time></trkpt><trkpt lat="43.2093243" lon="11.803375"><ele>272.0</ele><time>2026-05-01T15:02:21.939Z</time></trkpt><trkpt lat="43.2092171" lon="11.8032686"><ele>273.0</ele><time>2026-05-01T15:02:22.939Z</time></trkpt><trkpt lat="43.2091069" lon="11.8031588"><ele>274.0</ele><time>2026-05-01T15:02:23.938Z</time></trkpt><trkpt lat="43.2089946" lon="11.8030435"><ele>275.5</ele><time>2026-05-01T15:02:24.938Z</time></trkpt><trkpt lat="43.2088779" lon="11.8029322"><ele>277.0</ele><time>2026-05-01T15:02:25.939Z</time></trkpt><trkpt lat="43.2087607" lon="11.8028173"><ele>278.5</ele><time>2026-05-01T15:02:26.938Z</time></trkpt><trkpt lat="43.2086432" lon="11.8027058"><ele>280.0</ele><time>2026-05-01T15:02:27.939Z</time></trkpt><trkpt lat="43.2085335" lon="11.8026072"><ele>280.0</ele><time>2026-05-01T15:02:28.939Z</time></trkpt><trkpt lat="43.2084394" lon="11.8025491"><ele>280.0</ele><time>2026-05-01T15:02:29.939Z</time></trkpt><trkpt lat="43.2083669" lon="11.8025025"><ele>280.0</ele><time>2026-05-01T15:02:30.939Z</time></trkpt><trkpt lat="43.2082963" lon="11.8024007"><ele>280.0</ele><time>2026-05-01T15:02:32.938Z</time></trkpt><trkpt lat="43.2082547" lon="11.8022915"><ele>280.0</ele><time>2026-05-01T15:02:34.939Z</time></trkpt><trkpt lat="43.2081623" lon="11.8022818"><ele>280.0</ele><time>2026-05-01T15:02:37.939Z</time></trkpt><trkpt lat="43.2081021" lon="11.8023392"><ele>287.0</ele><time>2026-05-01T15:02:39.939Z</time></trkpt><trkpt lat="43.2081021" lon="11.8023392"><ele>287.0</ele><time>2026-05-01T15:02:39.939Z</time></trkpt><trkpt lat="43.2081021" lon="11.8023392"><ele>287.0</ele><time>2026-05-01T15:02:39.939Z</time></trkpt></trkseg></trk></gpx>